<?xml version="1.0" encoding="utf-8"?>
<gpx xmlns:xsi="http://www.w3.org/2001/XMLSchema-instance" xmlns:xsd="http://www.w3.org/2001/XMLSchema" version="1.1" creator="Shapelink.com" xmlns="http://www.topografix.com/GPX/1/1" xmlns:gpxtpx="http://www.garmin.com/xmlschemas/TrackPointExtension/v1">
  <metadata>
    <name>Sykling 45.34 km, 2013-04-26</name>
    <desc></desc>
    <author><name>Mikael Blom</name></author> 
    <time>2013-04-26T18:39:36Z</time>
  </metadata>
  <trk>
    <name>Sykling 45.34 km, 2013-04-26</name>
    <trkseg>
      <trkpt lat="59.978869" lon="17.7393197">
        <ele>38.1094</ele>
        <time>2013-04-26T18:39:36Z</time>
      </trkpt>
      <trkpt lat="59.9788413" lon="17.7393114">
        <ele>38.1094</ele>
        <time>2013-04-26T18:39:37Z</time>
      </trkpt>
      <trkpt lat="59.9788098" lon="17.7393035">
        <ele>38.5901</ele>
        <time>2013-04-26T18:39:38Z</time>
      </trkpt>
      <trkpt lat="59.9787803" lon="17.7392933">
        <ele>39.5513</ele>
        <time>2013-04-26T18:39:39Z</time>
      </trkpt>
      <trkpt lat="59.9787432" lon="17.7392808">
        <ele>39.5513</ele>
        <time>2013-04-26T18:39:40Z</time>
      </trkpt>
      <trkpt lat="59.9787015" lon="17.739256">
        <ele>39.5513</ele>
        <time>2013-04-26T18:39:41Z</time>
      </trkpt>
      <trkpt lat="59.9786501" lon="17.7392389">
        <ele>38.5901</ele>
        <time>2013-04-26T18:39:42Z</time>
      </trkpt>
      <trkpt lat="59.978593" lon="17.7392258">
        <ele>36.1868</ele>
        <time>2013-04-26T18:39:43Z</time>
      </trkpt>
      <trkpt lat="59.9785403" lon="17.739218">
        <ele>35.7061</ele>
        <time>2013-04-26T18:39:44Z</time>
      </trkpt>
      <trkpt lat="59.9784875" lon="17.7392091">
        <ele>34.7449</ele>
        <time>2013-04-26T18:39:45Z</time>
      </trkpt>
      <trkpt lat="59.9784435" lon="17.7392051">
        <ele>34.2642</ele>
        <time>2013-04-26T18:39:46Z</time>
      </trkpt>
      <trkpt lat="59.9783896" lon="17.739202">
        <ele>33.3029</ele>
        <time>2013-04-26T18:39:47Z</time>
      </trkpt>
      <trkpt lat="59.9783384" lon="17.7392004">
        <ele>32.8223</ele>
        <time>2013-04-26T18:39:48Z</time>
      </trkpt>
      <trkpt lat="59.9782896" lon="17.7391927">
        <ele>32.3416</ele>
        <time>2013-04-26T18:39:49Z</time>
      </trkpt>
      <trkpt lat="59.9782301" lon="17.7391778">
        <ele>31.3801</ele>
        <time>2013-04-26T18:39:50Z</time>
      </trkpt>
      <trkpt lat="59.9781704" lon="17.7391676">
        <ele>30.4188</ele>
        <time>2013-04-26T18:39:51Z</time>
      </trkpt>
      <trkpt lat="59.9781171" lon="17.7391642">
        <ele>30.4188</ele>
        <time>2013-04-26T18:39:52Z</time>
      </trkpt>
      <trkpt lat="59.9780648" lon="17.7391471">
        <ele>29.9381</ele>
        <time>2013-04-26T18:39:53Z</time>
      </trkpt>
      <trkpt lat="59.9780197" lon="17.7391208">
        <ele>29.4575</ele>
        <time>2013-04-26T18:39:54Z</time>
      </trkpt>
      <trkpt lat="59.9779673" lon="17.7390874">
        <ele>27.5349</ele>
        <time>2013-04-26T18:39:55Z</time>
      </trkpt>
      <trkpt lat="59.9779078" lon="17.7390498">
        <ele>25.6123</ele>
        <time>2013-04-26T18:39:56Z</time>
      </trkpt>
      <trkpt lat="59.977845" lon="17.739014">
        <ele>23.6896</ele>
        <time>2013-04-26T18:39:57Z</time>
      </trkpt>
      <trkpt lat="59.9777901" lon="17.7389813">
        <ele>22.2476</ele>
        <time>2013-04-26T18:39:58Z</time>
      </trkpt>
      <trkpt lat="59.9777242" lon="17.7389637">
        <ele>19.8444</ele>
        <time>2013-04-26T18:39:59Z</time>
      </trkpt>
      <trkpt lat="59.9776503" lon="17.7389561">
        <ele>17.4412</ele>
        <time>2013-04-26T18:40:00Z</time>
      </trkpt>
      <trkpt lat="59.9775736" lon="17.738957">
        <ele>15.0377</ele>
        <time>2013-04-26T18:40:01Z</time>
      </trkpt>
      <trkpt lat="59.9774929" lon="17.7389689">
        <ele>13.1151</ele>
        <time>2013-04-26T18:40:02Z</time>
      </trkpt>
      <trkpt lat="59.9774086" lon="17.738989">
        <ele>11.1925</ele>
        <time>2013-04-26T18:40:03Z</time>
      </trkpt>
      <trkpt lat="59.9773225" lon="17.7390215">
        <ele>9.75061</ele>
        <time>2013-04-26T18:40:04Z</time>
      </trkpt>
      <trkpt lat="59.9772359" lon="17.7390632">
        <ele>8.78918</ele>
        <time>2013-04-26T18:40:05Z</time>
      </trkpt>
      <trkpt lat="59.9771318" lon="17.7391381">
        <ele>7.82788</ele>
        <time>2013-04-26T18:40:06Z</time>
      </trkpt>
      <trkpt lat="59.9770451" lon="17.7391942">
        <ele>7.34717</ele>
        <time>2013-04-26T18:40:07Z</time>
      </trkpt>
      <trkpt lat="59.9769578" lon="17.7392388">
        <ele>6.86646</ele>
        <time>2013-04-26T18:40:08Z</time>
      </trkpt>
      <trkpt lat="59.9768763" lon="17.7392729">
        <ele>6.38586</ele>
        <time>2013-04-26T18:40:09Z</time>
      </trkpt>
      <trkpt lat="59.9768007" lon="17.7392979">
        <ele>5.42456</ele>
        <time>2013-04-26T18:40:10Z</time>
      </trkpt>
      <trkpt lat="59.9767261" lon="17.7393208">
        <ele>5.42456</ele>
        <time>2013-04-26T18:40:11Z</time>
      </trkpt>
      <trkpt lat="59.9766651" lon="17.7393388">
        <ele>5.42456</ele>
        <time>2013-04-26T18:40:12Z</time>
      </trkpt>
      <trkpt lat="59.9766344" lon="17.7393206">
        <ele>5.90527</ele>
        <time>2013-04-26T18:40:13Z</time>
      </trkpt>
      <trkpt lat="59.976553" lon="17.7393952">
        <ele>5.90527</ele>
        <time>2013-04-26T18:40:14Z</time>
      </trkpt>
      <trkpt lat="59.9764714" lon="17.7394815">
        <ele>5.90527</ele>
        <time>2013-04-26T18:40:15Z</time>
      </trkpt>
      <trkpt lat="59.9763984" lon="17.7395797">
        <ele>5.90527</ele>
        <time>2013-04-26T18:40:16Z</time>
      </trkpt>
      <trkpt lat="59.9763313" lon="17.7396853">
        <ele>5.90527</ele>
        <time>2013-04-26T18:40:17Z</time>
      </trkpt>
      <trkpt lat="59.9762772" lon="17.7398028">
        <ele>5.90527</ele>
        <time>2013-04-26T18:40:18Z</time>
      </trkpt>
      <trkpt lat="59.9762272" lon="17.739923">
        <ele>5.90527</ele>
        <time>2013-04-26T18:40:19Z</time>
      </trkpt>
      <trkpt lat="59.9761819" lon="17.7400473">
        <ele>6.38586</ele>
        <time>2013-04-26T18:40:20Z</time>
      </trkpt>
      <trkpt lat="59.9761435" lon="17.7401773">
        <ele>6.38586</ele>
        <time>2013-04-26T18:40:21Z</time>
      </trkpt>
      <trkpt lat="59.9761067" lon="17.7403049">
        <ele>5.90527</ele>
        <time>2013-04-26T18:40:22Z</time>
      </trkpt>
      <trkpt lat="59.9760694" lon="17.7404359">
        <ele>6.38586</ele>
        <time>2013-04-26T18:40:23Z</time>
      </trkpt>
      <trkpt lat="59.9760288" lon="17.7405716">
        <ele>6.86646</ele>
        <time>2013-04-26T18:40:24Z</time>
      </trkpt>
      <trkpt lat="59.975988" lon="17.7407048">
        <ele>7.34717</ele>
        <time>2013-04-26T18:40:25Z</time>
      </trkpt>
      <trkpt lat="59.9759488" lon="17.7408392">
        <ele>7.82788</ele>
        <time>2013-04-26T18:40:26Z</time>
      </trkpt>
      <trkpt lat="59.9759122" lon="17.7409765">
        <ele>8.78918</ele>
        <time>2013-04-26T18:40:27Z</time>
      </trkpt>
      <trkpt lat="59.9758751" lon="17.7411207">
        <ele>8.78918</ele>
        <time>2013-04-26T18:40:28Z</time>
      </trkpt>
      <trkpt lat="59.9758426" lon="17.7412559">
        <ele>9.75061</ele>
        <time>2013-04-26T18:40:29Z</time>
      </trkpt>
      <trkpt lat="59.9758145" lon="17.7413918">
        <ele>11.1925</ele>
        <time>2013-04-26T18:40:30Z</time>
      </trkpt>
      <trkpt lat="59.9757903" lon="17.7415263">
        <ele>13.1151</ele>
        <time>2013-04-26T18:40:31Z</time>
      </trkpt>
      <trkpt lat="59.9757631" lon="17.7416693">
        <ele>14.0764</ele>
        <time>2013-04-26T18:40:32Z</time>
      </trkpt>
      <trkpt lat="59.9757326" lon="17.7418041">
        <ele>15.0377</ele>
        <time>2013-04-26T18:40:33Z</time>
      </trkpt>
      <trkpt lat="59.9757121" lon="17.7419204">
        <ele>16.4797</ele>
        <time>2013-04-26T18:40:34Z</time>
      </trkpt>
      <trkpt lat="59.9756856" lon="17.7420439">
        <ele>17.9218</ele>
        <time>2013-04-26T18:40:35Z</time>
      </trkpt>
      <trkpt lat="59.9756584" lon="17.7421593">
        <ele>19.3638</ele>
        <time>2013-04-26T18:40:36Z</time>
      </trkpt>
      <trkpt lat="59.9756294" lon="17.7422814">
        <ele>20.8057</ele>
        <time>2013-04-26T18:40:37Z</time>
      </trkpt>
      <trkpt lat="59.975603" lon="17.7424091">
        <ele>22.7283</ele>
        <time>2013-04-26T18:40:38Z</time>
      </trkpt>
      <trkpt lat="59.9755772" lon="17.7425436">
        <ele>24.1703</ele>
        <time>2013-04-26T18:40:39Z</time>
      </trkpt>
      <trkpt lat="59.97555" lon="17.7426778">
        <ele>26.0929</ele>
        <time>2013-04-26T18:40:40Z</time>
      </trkpt>
      <trkpt lat="59.9755184" lon="17.7428109">
        <ele>28.0155</ele>
        <time>2013-04-26T18:40:41Z</time>
      </trkpt>
      <trkpt lat="59.9754842" lon="17.742937">
        <ele>28.4962</ele>
        <time>2013-04-26T18:40:42Z</time>
      </trkpt>
      <trkpt lat="59.9754488" lon="17.7430631">
        <ele>28.4962</ele>
        <time>2013-04-26T18:40:43Z</time>
      </trkpt>
      <trkpt lat="59.975414" lon="17.7431951">
        <ele>29.4575</ele>
        <time>2013-04-26T18:40:44Z</time>
      </trkpt>
      <trkpt lat="59.975381" lon="17.7433329">
        <ele>29.9381</ele>
        <time>2013-04-26T18:40:45Z</time>
      </trkpt>
      <trkpt lat="59.9753513" lon="17.7434741">
        <ele>30.4188</ele>
        <time>2013-04-26T18:40:46Z</time>
      </trkpt>
      <trkpt lat="59.9753234" lon="17.7436184">
        <ele>30.8995</ele>
        <time>2013-04-26T18:40:47Z</time>
      </trkpt>
      <trkpt lat="59.9752976" lon="17.7437641">
        <ele>30.8995</ele>
        <time>2013-04-26T18:40:48Z</time>
      </trkpt>
      <trkpt lat="59.9752753" lon="17.7439181">
        <ele>31.8607</ele>
        <time>2013-04-26T18:40:49Z</time>
      </trkpt>
      <trkpt lat="59.975248" lon="17.7440666">
        <ele>31.8607</ele>
        <time>2013-04-26T18:40:50Z</time>
      </trkpt>
      <trkpt lat="59.9752178" lon="17.7442091">
        <ele>31.3801</ele>
        <time>2013-04-26T18:40:51Z</time>
      </trkpt>
      <trkpt lat="59.9751862" lon="17.7443515">
        <ele>31.3801</ele>
        <time>2013-04-26T18:40:52Z</time>
      </trkpt>
      <trkpt lat="59.9751526" lon="17.7444943">
        <ele>31.3801</ele>
        <time>2013-04-26T18:40:53Z</time>
      </trkpt>
      <trkpt lat="59.9751155" lon="17.7446375">
        <ele>30.8995</ele>
        <time>2013-04-26T18:40:54Z</time>
      </trkpt>
      <trkpt lat="59.9750741" lon="17.7447819">
        <ele>30.4188</ele>
        <time>2013-04-26T18:40:55Z</time>
      </trkpt>
      <trkpt lat="59.9750307" lon="17.7449315">
        <ele>30.8995</ele>
        <time>2013-04-26T18:40:56Z</time>
      </trkpt>
      <trkpt lat="59.9749842" lon="17.7450743">
        <ele>30.8995</ele>
        <time>2013-04-26T18:40:57Z</time>
      </trkpt>
      <trkpt lat="59.9749373" lon="17.7452171">
        <ele>30.8995</ele>
        <time>2013-04-26T18:40:58Z</time>
      </trkpt>
      <trkpt lat="59.9748897" lon="17.745356">
        <ele>31.3801</ele>
        <time>2013-04-26T18:40:59Z</time>
      </trkpt>
      <trkpt lat="59.9748407" lon="17.7454968">
        <ele>32.3416</ele>
        <time>2013-04-26T18:41:00Z</time>
      </trkpt>
      <trkpt lat="59.9747866" lon="17.745628">
        <ele>32.8223</ele>
        <time>2013-04-26T18:41:01Z</time>
      </trkpt>
      <trkpt lat="59.9747314" lon="17.7457564">
        <ele>33.3029</ele>
        <time>2013-04-26T18:41:02Z</time>
      </trkpt>
      <trkpt lat="59.9746811" lon="17.7458916">
        <ele>34.2642</ele>
        <time>2013-04-26T18:41:03Z</time>
      </trkpt>
      <trkpt lat="59.9746284" lon="17.7460112">
        <ele>35.2255</ele>
        <time>2013-04-26T18:41:04Z</time>
      </trkpt>
      <trkpt lat="59.9745735" lon="17.7461263">
        <ele>35.7061</ele>
        <time>2013-04-26T18:41:05Z</time>
      </trkpt>
      <trkpt lat="59.9745092" lon="17.7462188">
        <ele>35.7061</ele>
        <time>2013-04-26T18:41:06Z</time>
      </trkpt>
      <trkpt lat="59.974443" lon="17.7463101">
        <ele>35.2255</ele>
        <time>2013-04-26T18:41:07Z</time>
      </trkpt>
      <trkpt lat="59.9743766" lon="17.7464039">
        <ele>35.2255</ele>
        <time>2013-04-26T18:41:08Z</time>
      </trkpt>
      <trkpt lat="59.9743104" lon="17.746499">
        <ele>35.2255</ele>
        <time>2013-04-26T18:41:09Z</time>
      </trkpt>
      <trkpt lat="59.9742424" lon="17.7465897">
        <ele>34.7449</ele>
        <time>2013-04-26T18:41:10Z</time>
      </trkpt>
      <trkpt lat="59.9741733" lon="17.7466806">
        <ele>34.7449</ele>
        <time>2013-04-26T18:41:11Z</time>
      </trkpt>
      <trkpt lat="59.9741036" lon="17.7467717">
        <ele>34.7449</ele>
        <time>2013-04-26T18:41:12Z</time>
      </trkpt>
      <trkpt lat="59.9740319" lon="17.7468603">
        <ele>34.7449</ele>
        <time>2013-04-26T18:41:13Z</time>
      </trkpt>
      <trkpt lat="59.97396" lon="17.7469479">
        <ele>35.2255</ele>
        <time>2013-04-26T18:41:14Z</time>
      </trkpt>
      <trkpt lat="59.973891" lon="17.7470378">
        <ele>35.7061</ele>
        <time>2013-04-26T18:41:15Z</time>
      </trkpt>
      <trkpt lat="59.9738247" lon="17.7471255">
        <ele>35.7061</ele>
        <time>2013-04-26T18:41:16Z</time>
      </trkpt>
      <trkpt lat="59.9737575" lon="17.7472052">
        <ele>36.1868</ele>
        <time>2013-04-26T18:41:17Z</time>
      </trkpt>
      <trkpt lat="59.9736892" lon="17.7472742">
        <ele>35.7061</ele>
        <time>2013-04-26T18:41:18Z</time>
      </trkpt>
      <trkpt lat="59.9736203" lon="17.7473397">
        <ele>35.7061</ele>
        <time>2013-04-26T18:41:19Z</time>
      </trkpt>
      <trkpt lat="59.9735525" lon="17.7474095">
        <ele>35.7061</ele>
        <time>2013-04-26T18:41:20Z</time>
      </trkpt>
      <trkpt lat="59.9734833" lon="17.7474734">
        <ele>35.2255</ele>
        <time>2013-04-26T18:41:21Z</time>
      </trkpt>
      <trkpt lat="59.9734105" lon="17.7475337">
        <ele>35.2255</ele>
        <time>2013-04-26T18:41:22Z</time>
      </trkpt>
      <trkpt lat="59.9733399" lon="17.747601">
        <ele>34.7449</ele>
        <time>2013-04-26T18:41:23Z</time>
      </trkpt>
      <trkpt lat="59.9732696" lon="17.7476733">
        <ele>34.7449</ele>
        <time>2013-04-26T18:41:24Z</time>
      </trkpt>
      <trkpt lat="59.9731986" lon="17.7477492">
        <ele>34.7449</ele>
        <time>2013-04-26T18:41:25Z</time>
      </trkpt>
      <trkpt lat="59.9731279" lon="17.7478309">
        <ele>34.7449</ele>
        <time>2013-04-26T18:41:26Z</time>
      </trkpt>
      <trkpt lat="59.9730525" lon="17.7479212">
        <ele>34.7449</ele>
        <time>2013-04-26T18:41:27Z</time>
      </trkpt>
      <trkpt lat="59.9729779" lon="17.7480137">
        <ele>35.2255</ele>
        <time>2013-04-26T18:41:28Z</time>
      </trkpt>
      <trkpt lat="59.9729068" lon="17.7481107">
        <ele>35.7061</ele>
        <time>2013-04-26T18:41:29Z</time>
      </trkpt>
      <trkpt lat="59.9728375" lon="17.7482111">
        <ele>35.7061</ele>
        <time>2013-04-26T18:41:30Z</time>
      </trkpt>
      <trkpt lat="59.9727749" lon="17.7483217">
        <ele>35.7061</ele>
        <time>2013-04-26T18:41:31Z</time>
      </trkpt>
      <trkpt lat="59.9727219" lon="17.7484542">
        <ele>36.6675</ele>
        <time>2013-04-26T18:41:32Z</time>
      </trkpt>
      <trkpt lat="59.9726696" lon="17.7485769">
        <ele>37.1481</ele>
        <time>2013-04-26T18:41:33Z</time>
      </trkpt>
      <trkpt lat="59.9726195" lon="17.7487088">
        <ele>37.1481</ele>
        <time>2013-04-26T18:41:34Z</time>
      </trkpt>
      <trkpt lat="59.9725512" lon="17.7488554">
        <ele>37.6287</ele>
        <time>2013-04-26T18:41:35Z</time>
      </trkpt>
      <trkpt lat="59.9725027" lon="17.7490038">
        <ele>38.5901</ele>
        <time>2013-04-26T18:41:36Z</time>
      </trkpt>
      <trkpt lat="59.9724484" lon="17.7490774">
        <ele>38.5901</ele>
        <time>2013-04-26T18:41:37Z</time>
      </trkpt>
      <trkpt lat="59.9724128" lon="17.7491877">
        <ele>38.5901</ele>
        <time>2013-04-26T18:41:38Z</time>
      </trkpt>
      <trkpt lat="59.9723754" lon="17.7493312">
        <ele>39.5513</ele>
        <time>2013-04-26T18:41:39Z</time>
      </trkpt>
      <trkpt lat="59.9723216" lon="17.7494617">
        <ele>40.5128</ele>
        <time>2013-04-26T18:41:40Z</time>
      </trkpt>
      <trkpt lat="59.9722743" lon="17.7495912">
        <ele>41.9547</ele>
        <time>2013-04-26T18:41:41Z</time>
      </trkpt>
      <trkpt lat="59.9722336" lon="17.7496968">
        <ele>41.9547</ele>
        <time>2013-04-26T18:41:42Z</time>
      </trkpt>
      <trkpt lat="59.9721878" lon="17.7498298">
        <ele>42.916</ele>
        <time>2013-04-26T18:41:43Z</time>
      </trkpt>
      <trkpt lat="59.9721427" lon="17.7499438">
        <ele>43.3966</ele>
        <time>2013-04-26T18:41:44Z</time>
      </trkpt>
      <trkpt lat="59.9720871" lon="17.7500526">
        <ele>43.8773</ele>
        <time>2013-04-26T18:41:45Z</time>
      </trkpt>
      <trkpt lat="59.9720318" lon="17.750147">
        <ele>42.916</ele>
        <time>2013-04-26T18:41:46Z</time>
      </trkpt>
      <trkpt lat="59.9719786" lon="17.7502613">
        <ele>43.3966</ele>
        <time>2013-04-26T18:41:47Z</time>
      </trkpt>
      <trkpt lat="59.971931" lon="17.7504017">
        <ele>44.8386</ele>
        <time>2013-04-26T18:41:48Z</time>
      </trkpt>
      <trkpt lat="59.9718796" lon="17.7505423">
        <ele>45.7999</ele>
        <time>2013-04-26T18:41:49Z</time>
      </trkpt>
      <trkpt lat="59.9718228" lon="17.750663">
        <ele>45.7999</ele>
        <time>2013-04-26T18:41:50Z</time>
      </trkpt>
      <trkpt lat="59.9717625" lon="17.7507811">
        <ele>46.2806</ele>
        <time>2013-04-26T18:41:51Z</time>
      </trkpt>
      <trkpt lat="59.9717044" lon="17.7509048">
        <ele>46.7612</ele>
        <time>2013-04-26T18:41:52Z</time>
      </trkpt>
      <trkpt lat="59.9716435" lon="17.7510071">
        <ele>46.7612</ele>
        <time>2013-04-26T18:41:53Z</time>
      </trkpt>
      <trkpt lat="59.9715736" lon="17.7510883">
        <ele>45.7999</ele>
        <time>2013-04-26T18:41:54Z</time>
      </trkpt>
      <trkpt lat="59.9715022" lon="17.7511618">
        <ele>44.358</ele>
        <time>2013-04-26T18:41:55Z</time>
      </trkpt>
      <trkpt lat="59.971433" lon="17.7512416">
        <ele>42.916</ele>
        <time>2013-04-26T18:41:56Z</time>
      </trkpt>
      <trkpt lat="59.9713589" lon="17.7513239">
        <ele>41.474</ele>
        <time>2013-04-26T18:41:57Z</time>
      </trkpt>
      <trkpt lat="59.9712794" lon="17.7514084">
        <ele>40.5128</ele>
        <time>2013-04-26T18:41:58Z</time>
      </trkpt>
      <trkpt lat="59.9711976" lon="17.751493">
        <ele>39.5513</ele>
        <time>2013-04-26T18:41:59Z</time>
      </trkpt>
      <trkpt lat="59.9711146" lon="17.7515753">
        <ele>38.5901</ele>
        <time>2013-04-26T18:42:00Z</time>
      </trkpt>
      <trkpt lat="59.9710296" lon="17.7516638">
        <ele>38.1094</ele>
        <time>2013-04-26T18:42:01Z</time>
      </trkpt>
      <trkpt lat="59.9709442" lon="17.7517607">
        <ele>37.6287</ele>
        <time>2013-04-26T18:42:02Z</time>
      </trkpt>
      <trkpt lat="59.9708591" lon="17.7518571">
        <ele>37.6287</ele>
        <time>2013-04-26T18:42:03Z</time>
      </trkpt>
      <trkpt lat="59.97078" lon="17.7519623">
        <ele>37.1481</ele>
        <time>2013-04-26T18:42:04Z</time>
      </trkpt>
      <trkpt lat="59.9707033" lon="17.7520787">
        <ele>36.6675</ele>
        <time>2013-04-26T18:42:05Z</time>
      </trkpt>
      <trkpt lat="59.9706303" lon="17.7522024">
        <ele>36.6675</ele>
        <time>2013-04-26T18:42:06Z</time>
      </trkpt>
      <trkpt lat="59.9705546" lon="17.7523345">
        <ele>36.6675</ele>
        <time>2013-04-26T18:42:07Z</time>
      </trkpt>
      <trkpt lat="59.9704877" lon="17.752476">
        <ele>37.1481</ele>
        <time>2013-04-26T18:42:08Z</time>
      </trkpt>
      <trkpt lat="59.9704312" lon="17.7526303">
        <ele>37.6287</ele>
        <time>2013-04-26T18:42:09Z</time>
      </trkpt>
      <trkpt lat="59.970375" lon="17.7527871">
        <ele>37.6287</ele>
        <time>2013-04-26T18:42:10Z</time>
      </trkpt>
      <trkpt lat="59.9703169" lon="17.752935">
        <ele>37.6287</ele>
        <time>2013-04-26T18:42:11Z</time>
      </trkpt>
      <trkpt lat="59.9702657" lon="17.753093">
        <ele>37.6287</ele>
        <time>2013-04-26T18:42:12Z</time>
      </trkpt>
      <trkpt lat="59.9702158" lon="17.7532511">
        <ele>37.6287</ele>
        <time>2013-04-26T18:42:13Z</time>
      </trkpt>
      <trkpt lat="59.9701642" lon="17.7534001">
        <ele>37.1481</ele>
        <time>2013-04-26T18:42:14Z</time>
      </trkpt>
      <trkpt lat="59.9701133" lon="17.7535436">
        <ele>36.6675</ele>
        <time>2013-04-26T18:42:15Z</time>
      </trkpt>
      <trkpt lat="59.9700641" lon="17.7536949">
        <ele>37.1481</ele>
        <time>2013-04-26T18:42:16Z</time>
      </trkpt>
      <trkpt lat="59.9700113" lon="17.7538472">
        <ele>38.1094</ele>
        <time>2013-04-26T18:42:17Z</time>
      </trkpt>
      <trkpt lat="59.9699538" lon="17.7539858">
        <ele>38.5901</ele>
        <time>2013-04-26T18:42:18Z</time>
      </trkpt>
      <trkpt lat="59.9698968" lon="17.7541233">
        <ele>39.0707</ele>
        <time>2013-04-26T18:42:19Z</time>
      </trkpt>
      <trkpt lat="59.9698397" lon="17.7542591">
        <ele>40.0321</ele>
        <time>2013-04-26T18:42:20Z</time>
      </trkpt>
      <trkpt lat="59.9697817" lon="17.7543899">
        <ele>40.5128</ele>
        <time>2013-04-26T18:42:21Z</time>
      </trkpt>
      <trkpt lat="59.9697212" lon="17.7545101">
        <ele>40.5128</ele>
        <time>2013-04-26T18:42:22Z</time>
      </trkpt>
      <trkpt lat="59.9696641" lon="17.7546315">
        <ele>40.9934</ele>
        <time>2013-04-26T18:42:23Z</time>
      </trkpt>
      <trkpt lat="59.9696096" lon="17.7547558">
        <ele>40.9934</ele>
        <time>2013-04-26T18:42:24Z</time>
      </trkpt>
      <trkpt lat="59.9695548" lon="17.7548775">
        <ele>40.9934</ele>
        <time>2013-04-26T18:42:25Z</time>
      </trkpt>
      <trkpt lat="59.969499" lon="17.7549977">
        <ele>41.474</ele>
        <time>2013-04-26T18:42:26Z</time>
      </trkpt>
      <trkpt lat="59.9694442" lon="17.755118">
        <ele>41.474</ele>
        <time>2013-04-26T18:42:27Z</time>
      </trkpt>
      <trkpt lat="59.9693902" lon="17.7552402">
        <ele>41.474</ele>
        <time>2013-04-26T18:42:28Z</time>
      </trkpt>
      <trkpt lat="59.9693353" lon="17.7553599">
        <ele>41.474</ele>
        <time>2013-04-26T18:42:29Z</time>
      </trkpt>
      <trkpt lat="59.9692798" lon="17.7554779">
        <ele>41.9547</ele>
        <time>2013-04-26T18:42:30Z</time>
      </trkpt>
      <trkpt lat="59.9692265" lon="17.7555907">
        <ele>41.9547</ele>
        <time>2013-04-26T18:42:31Z</time>
      </trkpt>
      <trkpt lat="59.9691742" lon="17.7557035">
        <ele>41.9547</ele>
        <time>2013-04-26T18:42:32Z</time>
      </trkpt>
      <trkpt lat="59.9691218" lon="17.7558103">
        <ele>41.474</ele>
        <time>2013-04-26T18:42:33Z</time>
      </trkpt>
      <trkpt lat="59.9690688" lon="17.7559138">
        <ele>40.9934</ele>
        <time>2013-04-26T18:42:34Z</time>
      </trkpt>
      <trkpt lat="59.9690142" lon="17.7560177">
        <ele>40.5128</ele>
        <time>2013-04-26T18:42:35Z</time>
      </trkpt>
      <trkpt lat="59.9689613" lon="17.7561304">
        <ele>40.9934</ele>
        <time>2013-04-26T18:42:36Z</time>
      </trkpt>
      <trkpt lat="59.9689084" lon="17.7562465">
        <ele>41.474</ele>
        <time>2013-04-26T18:42:37Z</time>
      </trkpt>
      <trkpt lat="59.9688551" lon="17.7563462">
        <ele>40.9934</ele>
        <time>2013-04-26T18:42:38Z</time>
      </trkpt>
      <trkpt lat="59.968802" lon="17.7564482">
        <ele>40.9934</ele>
        <time>2013-04-26T18:42:39Z</time>
      </trkpt>
      <trkpt lat="59.968749" lon="17.7565474">
        <ele>40.9934</ele>
        <time>2013-04-26T18:42:40Z</time>
      </trkpt>
      <trkpt lat="59.9686955" lon="17.7566549">
        <ele>41.474</ele>
        <time>2013-04-26T18:42:41Z</time>
      </trkpt>
      <trkpt lat="59.9686404" lon="17.7567594">
        <ele>41.9547</ele>
        <time>2013-04-26T18:42:42Z</time>
      </trkpt>
      <trkpt lat="59.9685841" lon="17.75685">
        <ele>40.9934</ele>
        <time>2013-04-26T18:42:43Z</time>
      </trkpt>
      <trkpt lat="59.9685277" lon="17.7569515">
        <ele>41.474</ele>
        <time>2013-04-26T18:42:44Z</time>
      </trkpt>
      <trkpt lat="59.9684686" lon="17.7570475">
        <ele>41.474</ele>
        <time>2013-04-26T18:42:45Z</time>
      </trkpt>
      <trkpt lat="59.9684071" lon="17.7571317">
        <ele>40.9934</ele>
        <time>2013-04-26T18:42:46Z</time>
      </trkpt>
      <trkpt lat="59.9683459" lon="17.7572223">
        <ele>40.9934</ele>
        <time>2013-04-26T18:42:47Z</time>
      </trkpt>
      <trkpt lat="59.9682828" lon="17.7573085">
        <ele>40.5128</ele>
        <time>2013-04-26T18:42:48Z</time>
      </trkpt>
      <trkpt lat="59.968217" lon="17.7573907">
        <ele>40.0321</ele>
        <time>2013-04-26T18:42:49Z</time>
      </trkpt>
      <trkpt lat="59.9681523" lon="17.7574789">
        <ele>39.5513</ele>
        <time>2013-04-26T18:42:50Z</time>
      </trkpt>
      <trkpt lat="59.9680853" lon="17.7575689">
        <ele>39.0707</ele>
        <time>2013-04-26T18:42:51Z</time>
      </trkpt>
      <trkpt lat="59.9680133" lon="17.7576565">
        <ele>38.5901</ele>
        <time>2013-04-26T18:42:52Z</time>
      </trkpt>
      <trkpt lat="59.9679368" lon="17.7577442">
        <ele>37.6287</ele>
        <time>2013-04-26T18:42:53Z</time>
      </trkpt>
      <trkpt lat="59.9678569" lon="17.7578322">
        <ele>37.1481</ele>
        <time>2013-04-26T18:42:54Z</time>
      </trkpt>
      <trkpt lat="59.967774" lon="17.7579225">
        <ele>36.6675</ele>
        <time>2013-04-26T18:42:55Z</time>
      </trkpt>
      <trkpt lat="59.9676897" lon="17.7580139">
        <ele>35.7061</ele>
        <time>2013-04-26T18:42:56Z</time>
      </trkpt>
      <trkpt lat="59.967602" lon="17.7581031">
        <ele>34.7449</ele>
        <time>2013-04-26T18:42:57Z</time>
      </trkpt>
      <trkpt lat="59.9675092" lon="17.7581876">
        <ele>33.7834</ele>
        <time>2013-04-26T18:42:58Z</time>
      </trkpt>
      <trkpt lat="59.9674158" lon="17.7582778">
        <ele>33.3029</ele>
        <time>2013-04-26T18:42:59Z</time>
      </trkpt>
      <trkpt lat="59.9673254" lon="17.7583627">
        <ele>32.8223</ele>
        <time>2013-04-26T18:43:00Z</time>
      </trkpt>
      <trkpt lat="59.9672364" lon="17.7584482">
        <ele>31.8607</ele>
        <time>2013-04-26T18:43:01Z</time>
      </trkpt>
      <trkpt lat="59.9671451" lon="17.7585249">
        <ele>30.8995</ele>
        <time>2013-04-26T18:43:02Z</time>
      </trkpt>
      <trkpt lat="59.9670529" lon="17.7585984">
        <ele>30.4188</ele>
        <time>2013-04-26T18:43:03Z</time>
      </trkpt>
      <trkpt lat="59.9669632" lon="17.7586823">
        <ele>29.9381</ele>
        <time>2013-04-26T18:43:04Z</time>
      </trkpt>
      <trkpt lat="59.9668721" lon="17.7587595">
        <ele>29.9381</ele>
        <time>2013-04-26T18:43:05Z</time>
      </trkpt>
      <trkpt lat="59.9667845" lon="17.7588414">
        <ele>29.4575</ele>
        <time>2013-04-26T18:43:06Z</time>
      </trkpt>
      <trkpt lat="59.966697" lon="17.7589256">
        <ele>29.4575</ele>
        <time>2013-04-26T18:43:07Z</time>
      </trkpt>
      <trkpt lat="59.9666132" lon="17.7590138">
        <ele>28.9769</ele>
        <time>2013-04-26T18:43:08Z</time>
      </trkpt>
      <trkpt lat="59.9665277" lon="17.7591075">
        <ele>28.4962</ele>
        <time>2013-04-26T18:43:09Z</time>
      </trkpt>
      <trkpt lat="59.9664453" lon="17.7592072">
        <ele>28.4962</ele>
        <time>2013-04-26T18:43:10Z</time>
      </trkpt>
      <trkpt lat="59.9663692" lon="17.7593149">
        <ele>28.0155</ele>
        <time>2013-04-26T18:43:11Z</time>
      </trkpt>
      <trkpt lat="59.9662947" lon="17.7594272">
        <ele>27.0543</ele>
        <time>2013-04-26T18:43:12Z</time>
      </trkpt>
      <trkpt lat="59.9662229" lon="17.7595449">
        <ele>26.5736</ele>
        <time>2013-04-26T18:43:13Z</time>
      </trkpt>
      <trkpt lat="59.9661495" lon="17.7596609">
        <ele>26.5736</ele>
        <time>2013-04-26T18:43:14Z</time>
      </trkpt>
      <trkpt lat="59.9660743" lon="17.7597761">
        <ele>26.5736</ele>
        <time>2013-04-26T18:43:15Z</time>
      </trkpt>
      <trkpt lat="59.9660009" lon="17.7598977">
        <ele>26.0929</ele>
        <time>2013-04-26T18:43:16Z</time>
      </trkpt>
      <trkpt lat="59.9659321" lon="17.760025">
        <ele>26.0929</ele>
        <time>2013-04-26T18:43:17Z</time>
      </trkpt>
      <trkpt lat="59.9658605" lon="17.7601427">
        <ele>26.0929</ele>
        <time>2013-04-26T18:43:18Z</time>
      </trkpt>
      <trkpt lat="59.965789" lon="17.7602529">
        <ele>25.6123</ele>
        <time>2013-04-26T18:43:19Z</time>
      </trkpt>
      <trkpt lat="59.965719" lon="17.7603621">
        <ele>25.1317</ele>
        <time>2013-04-26T18:43:20Z</time>
      </trkpt>
      <trkpt lat="59.9656495" lon="17.7604715">
        <ele>24.651</ele>
        <time>2013-04-26T18:43:21Z</time>
      </trkpt>
      <trkpt lat="59.9655818" lon="17.7605782">
        <ele>24.1703</ele>
        <time>2013-04-26T18:43:22Z</time>
      </trkpt>
      <trkpt lat="59.9655148" lon="17.7606896">
        <ele>24.1703</ele>
        <time>2013-04-26T18:43:23Z</time>
      </trkpt>
      <trkpt lat="59.9654482" lon="17.7608045">
        <ele>24.651</ele>
        <time>2013-04-26T18:43:24Z</time>
      </trkpt>
      <trkpt lat="59.965388" lon="17.7609346">
        <ele>25.1317</ele>
        <time>2013-04-26T18:43:25Z</time>
      </trkpt>
      <trkpt lat="59.9653316" lon="17.7610693">
        <ele>25.1317</ele>
        <time>2013-04-26T18:43:26Z</time>
      </trkpt>
      <trkpt lat="59.9652756" lon="17.7612102">
        <ele>26.0929</ele>
        <time>2013-04-26T18:43:27Z</time>
      </trkpt>
      <trkpt lat="59.9652243" lon="17.7613512">
        <ele>26.5736</ele>
        <time>2013-04-26T18:43:28Z</time>
      </trkpt>
      <trkpt lat="59.9651752" lon="17.7614915">
        <ele>27.0543</ele>
        <time>2013-04-26T18:43:29Z</time>
      </trkpt>
      <trkpt lat="59.965127" lon="17.7616359">
        <ele>28.0155</ele>
        <time>2013-04-26T18:43:30Z</time>
      </trkpt>
      <trkpt lat="59.9650776" lon="17.7617658">
        <ele>28.0155</ele>
        <time>2013-04-26T18:43:31Z</time>
      </trkpt>
      <trkpt lat="59.9650271" lon="17.7618943">
        <ele>27.5349</ele>
        <time>2013-04-26T18:43:32Z</time>
      </trkpt>
      <trkpt lat="59.9649757" lon="17.7620344">
        <ele>28.4962</ele>
        <time>2013-04-26T18:43:33Z</time>
      </trkpt>
      <trkpt lat="59.9649225" lon="17.7621675">
        <ele>28.4962</ele>
        <time>2013-04-26T18:43:34Z</time>
      </trkpt>
      <trkpt lat="59.9648716" lon="17.7623048">
        <ele>28.4962</ele>
        <time>2013-04-26T18:43:35Z</time>
      </trkpt>
      <trkpt lat="59.9648208" lon="17.7624316">
        <ele>27.5349</ele>
        <time>2013-04-26T18:43:36Z</time>
      </trkpt>
      <trkpt lat="59.9647663" lon="17.7625592">
        <ele>27.0543</ele>
        <time>2013-04-26T18:43:37Z</time>
      </trkpt>
      <trkpt lat="59.9647165" lon="17.7627029">
        <ele>27.5349</ele>
        <time>2013-04-26T18:43:38Z</time>
      </trkpt>
      <trkpt lat="59.964669" lon="17.762851">
        <ele>28.4962</ele>
        <time>2013-04-26T18:43:39Z</time>
      </trkpt>
      <trkpt lat="59.9646256" lon="17.7629923">
        <ele>28.4962</ele>
        <time>2013-04-26T18:43:40Z</time>
      </trkpt>
      <trkpt lat="59.9645858" lon="17.7631264">
        <ele>28.0155</ele>
        <time>2013-04-26T18:43:41Z</time>
      </trkpt>
      <trkpt lat="59.9645472" lon="17.7632544">
        <ele>27.0543</ele>
        <time>2013-04-26T18:43:42Z</time>
      </trkpt>
      <trkpt lat="59.9645085" lon="17.7633849">
        <ele>26.5736</ele>
        <time>2013-04-26T18:43:43Z</time>
      </trkpt>
      <trkpt lat="59.9644717" lon="17.7635201">
        <ele>26.0929</ele>
        <time>2013-04-26T18:43:44Z</time>
      </trkpt>
      <trkpt lat="59.9644333" lon="17.7636609">
        <ele>26.0929</ele>
        <time>2013-04-26T18:43:45Z</time>
      </trkpt>
      <trkpt lat="59.9643951" lon="17.7637947">
        <ele>25.6123</ele>
        <time>2013-04-26T18:43:46Z</time>
      </trkpt>
      <trkpt lat="59.9643577" lon="17.7639329">
        <ele>25.6123</ele>
        <time>2013-04-26T18:43:47Z</time>
      </trkpt>
      <trkpt lat="59.9643182" lon="17.7640623">
        <ele>25.1317</ele>
        <time>2013-04-26T18:43:48Z</time>
      </trkpt>
      <trkpt lat="59.9642815" lon="17.7641891">
        <ele>24.1703</ele>
        <time>2013-04-26T18:43:49Z</time>
      </trkpt>
      <trkpt lat="59.9642465" lon="17.7643291">
        <ele>24.651</ele>
        <time>2013-04-26T18:43:50Z</time>
      </trkpt>
      <trkpt lat="59.9642085" lon="17.7644499">
        <ele>23.6896</ele>
        <time>2013-04-26T18:43:51Z</time>
      </trkpt>
      <trkpt lat="59.9641717" lon="17.7645788">
        <ele>23.6896</ele>
        <time>2013-04-26T18:43:52Z</time>
      </trkpt>
      <trkpt lat="59.9641338" lon="17.7647069">
        <ele>23.6896</ele>
        <time>2013-04-26T18:43:53Z</time>
      </trkpt>
      <trkpt lat="59.9641009" lon="17.7648356">
        <ele>23.6896</ele>
        <time>2013-04-26T18:43:54Z</time>
      </trkpt>
      <trkpt lat="59.9640729" lon="17.7649666">
        <ele>24.1703</ele>
        <time>2013-04-26T18:43:55Z</time>
      </trkpt>
      <trkpt lat="59.9640489" lon="17.7650915">
        <ele>24.1703</ele>
        <time>2013-04-26T18:43:56Z</time>
      </trkpt>
      <trkpt lat="59.9640309" lon="17.765217">
        <ele>24.651</ele>
        <time>2013-04-26T18:43:57Z</time>
      </trkpt>
      <trkpt lat="59.9640208" lon="17.7653444">
        <ele>25.1317</ele>
        <time>2013-04-26T18:43:58Z</time>
      </trkpt>
      <trkpt lat="59.9640187" lon="17.7654719">
        <ele>26.0929</ele>
        <time>2013-04-26T18:43:59Z</time>
      </trkpt>
      <trkpt lat="59.9640277" lon="17.7657215">
        <ele>27.5349</ele>
        <time>2013-04-26T18:44:00Z</time>
      </trkpt>
      <trkpt lat="59.9640315" lon="17.7658737">
        <ele>28.9769</ele>
        <time>2013-04-26T18:44:01Z</time>
      </trkpt>
      <trkpt lat="59.9640266" lon="17.7660354">
        <ele>29.9381</ele>
        <time>2013-04-26T18:44:02Z</time>
      </trkpt>
      <trkpt lat="59.9640196" lon="17.7661339">
        <ele>30.8995</ele>
        <time>2013-04-26T18:44:03Z</time>
      </trkpt>
      <trkpt lat="59.9640215" lon="17.7662461">
        <ele>31.8607</ele>
        <time>2013-04-26T18:44:04Z</time>
      </trkpt>
      <trkpt lat="59.964025" lon="17.7663347">
        <ele>31.3801</ele>
        <time>2013-04-26T18:44:05Z</time>
      </trkpt>
      <trkpt lat="59.9640298" lon="17.7664198">
        <ele>30.4188</ele>
        <time>2013-04-26T18:44:06Z</time>
      </trkpt>
      <trkpt lat="59.9640301" lon="17.7665211">
        <ele>30.4188</ele>
        <time>2013-04-26T18:44:07Z</time>
      </trkpt>
      <trkpt lat="59.964034" lon="17.7666019">
        <ele>28.9769</ele>
        <time>2013-04-26T18:44:08Z</time>
      </trkpt>
      <trkpt lat="59.9640374" lon="17.7667082">
        <ele>28.9769</ele>
        <time>2013-04-26T18:44:09Z</time>
      </trkpt>
      <trkpt lat="59.9640391" lon="17.7668276">
        <ele>29.4575</ele>
        <time>2013-04-26T18:44:10Z</time>
      </trkpt>
      <trkpt lat="59.9640382" lon="17.7669555">
        <ele>28.4962</ele>
        <time>2013-04-26T18:44:11Z</time>
      </trkpt>
      <trkpt lat="59.9640328" lon="17.7670887">
        <ele>28.0155</ele>
        <time>2013-04-26T18:44:12Z</time>
      </trkpt>
      <trkpt lat="59.9640247" lon="17.7672011">
        <ele>26.5736</ele>
        <time>2013-04-26T18:44:13Z</time>
      </trkpt>
      <trkpt lat="59.9640091" lon="17.7673197">
        <ele>25.6123</ele>
        <time>2013-04-26T18:44:14Z</time>
      </trkpt>
      <trkpt lat="59.9639897" lon="17.7674398">
        <ele>25.6123</ele>
        <time>2013-04-26T18:44:15Z</time>
      </trkpt>
      <trkpt lat="59.9639676" lon="17.7675544">
        <ele>25.6123</ele>
        <time>2013-04-26T18:44:16Z</time>
      </trkpt>
      <trkpt lat="59.9639426" lon="17.7676698">
        <ele>25.6123</ele>
        <time>2013-04-26T18:44:17Z</time>
      </trkpt>
      <trkpt lat="59.9639193" lon="17.7677901">
        <ele>26.0929</ele>
        <time>2013-04-26T18:44:18Z</time>
      </trkpt>
      <trkpt lat="59.9638895" lon="17.7679402">
        <ele>26.0929</ele>
        <time>2013-04-26T18:44:19Z</time>
      </trkpt>
      <trkpt lat="59.9638633" lon="17.7680659">
        <ele>26.0929</ele>
        <time>2013-04-26T18:44:20Z</time>
      </trkpt>
      <trkpt lat="59.9638361" lon="17.7682057">
        <ele>26.5736</ele>
        <time>2013-04-26T18:44:21Z</time>
      </trkpt>
      <trkpt lat="59.963806" lon="17.7683454">
        <ele>26.5736</ele>
        <time>2013-04-26T18:44:22Z</time>
      </trkpt>
      <trkpt lat="59.9637697" lon="17.7684943">
        <ele>27.0543</ele>
        <time>2013-04-26T18:44:23Z</time>
      </trkpt>
      <trkpt lat="59.9637289" lon="17.7686285">
        <ele>26.5736</ele>
        <time>2013-04-26T18:44:24Z</time>
      </trkpt>
      <trkpt lat="59.9636852" lon="17.7687441">
        <ele>26.0929</ele>
        <time>2013-04-26T18:44:25Z</time>
      </trkpt>
      <trkpt lat="59.9636455" lon="17.768874">
        <ele>26.0929</ele>
        <time>2013-04-26T18:44:26Z</time>
      </trkpt>
      <trkpt lat="59.9636081" lon="17.7690119">
        <ele>26.0929</ele>
        <time>2013-04-26T18:44:27Z</time>
      </trkpt>
      <trkpt lat="59.9635739" lon="17.7691584">
        <ele>27.0543</ele>
        <time>2013-04-26T18:44:28Z</time>
      </trkpt>
      <trkpt lat="59.9635341" lon="17.7692827">
        <ele>27.0543</ele>
        <time>2013-04-26T18:44:29Z</time>
      </trkpt>
      <trkpt lat="59.9634932" lon="17.769393">
        <ele>26.5736</ele>
        <time>2013-04-26T18:44:30Z</time>
      </trkpt>
      <trkpt lat="59.9634596" lon="17.7695169">
        <ele>27.0543</ele>
        <time>2013-04-26T18:44:31Z</time>
      </trkpt>
      <trkpt lat="59.9634285" lon="17.7696411">
        <ele>26.5736</ele>
        <time>2013-04-26T18:44:32Z</time>
      </trkpt>
      <trkpt lat="59.9634072" lon="17.7697663">
        <ele>26.5736</ele>
        <time>2013-04-26T18:44:33Z</time>
      </trkpt>
      <trkpt lat="59.9634003" lon="17.7698991">
        <ele>26.5736</ele>
        <time>2013-04-26T18:44:34Z</time>
      </trkpt>
      <trkpt lat="59.9634005" lon="17.7700328">
        <ele>26.5736</ele>
        <time>2013-04-26T18:44:35Z</time>
      </trkpt>
      <trkpt lat="59.9634039" lon="17.77017">
        <ele>26.5736</ele>
        <time>2013-04-26T18:44:36Z</time>
      </trkpt>
      <trkpt lat="59.9634086" lon="17.7703062">
        <ele>26.0929</ele>
        <time>2013-04-26T18:44:37Z</time>
      </trkpt>
      <trkpt lat="59.9634161" lon="17.7704443">
        <ele>25.6123</ele>
        <time>2013-04-26T18:44:38Z</time>
      </trkpt>
      <trkpt lat="59.9634263" lon="17.770584">
        <ele>25.6123</ele>
        <time>2013-04-26T18:44:39Z</time>
      </trkpt>
      <trkpt lat="59.9634418" lon="17.7707293">
        <ele>25.6123</ele>
        <time>2013-04-26T18:44:40Z</time>
      </trkpt>
      <trkpt lat="59.9634617" lon="17.7708685">
        <ele>25.1317</ele>
        <time>2013-04-26T18:44:41Z</time>
      </trkpt>
      <trkpt lat="59.9634848" lon="17.771024">
        <ele>25.1317</ele>
        <time>2013-04-26T18:44:42Z</time>
      </trkpt>
      <trkpt lat="59.9635132" lon="17.7711746">
        <ele>25.1317</ele>
        <time>2013-04-26T18:44:43Z</time>
      </trkpt>
      <trkpt lat="59.963545" lon="17.7713238">
        <ele>25.1317</ele>
        <time>2013-04-26T18:44:44Z</time>
      </trkpt>
      <trkpt lat="59.9635785" lon="17.7714693">
        <ele>25.6123</ele>
        <time>2013-04-26T18:44:45Z</time>
      </trkpt>
      <trkpt lat="59.9636133" lon="17.771614">
        <ele>25.6123</ele>
        <time>2013-04-26T18:44:46Z</time>
      </trkpt>
      <trkpt lat="59.9636481" lon="17.7717596">
        <ele>25.6123</ele>
        <time>2013-04-26T18:44:47Z</time>
      </trkpt>
      <trkpt lat="59.9636831" lon="17.7719062">
        <ele>25.6123</ele>
        <time>2013-04-26T18:44:48Z</time>
      </trkpt>
      <trkpt lat="59.9637181" lon="17.7720553">
        <ele>25.6123</ele>
        <time>2013-04-26T18:44:49Z</time>
      </trkpt>
      <trkpt lat="59.9637526" lon="17.7722075">
        <ele>25.6123</ele>
        <time>2013-04-26T18:44:50Z</time>
      </trkpt>
      <trkpt lat="59.9637848" lon="17.7723646">
        <ele>26.0929</ele>
        <time>2013-04-26T18:44:51Z</time>
      </trkpt>
      <trkpt lat="59.9638124" lon="17.7725261">
        <ele>26.0929</ele>
        <time>2013-04-26T18:44:52Z</time>
      </trkpt>
      <trkpt lat="59.9638345" lon="17.7726902">
        <ele>26.0929</ele>
        <time>2013-04-26T18:44:53Z</time>
      </trkpt>
      <trkpt lat="59.9638495" lon="17.7728494">
        <ele>25.6123</ele>
        <time>2013-04-26T18:44:54Z</time>
      </trkpt>
      <trkpt lat="59.9638545" lon="17.7730079">
        <ele>26.0929</ele>
        <time>2013-04-26T18:44:55Z</time>
      </trkpt>
      <trkpt lat="59.9638504" lon="17.7731618">
        <ele>26.0929</ele>
        <time>2013-04-26T18:44:56Z</time>
      </trkpt>
      <trkpt lat="59.9638395" lon="17.7733161">
        <ele>26.0929</ele>
        <time>2013-04-26T18:44:57Z</time>
      </trkpt>
      <trkpt lat="59.9638226" lon="17.7734672">
        <ele>26.5736</ele>
        <time>2013-04-26T18:44:58Z</time>
      </trkpt>
      <trkpt lat="59.9638023" lon="17.773616">
        <ele>26.5736</ele>
        <time>2013-04-26T18:44:59Z</time>
      </trkpt>
      <trkpt lat="59.9637806" lon="17.7737655">
        <ele>27.0543</ele>
        <time>2013-04-26T18:45:00Z</time>
      </trkpt>
      <trkpt lat="59.9637554" lon="17.7739121">
        <ele>27.0543</ele>
        <time>2013-04-26T18:45:01Z</time>
      </trkpt>
      <trkpt lat="59.9637247" lon="17.7740454">
        <ele>26.5736</ele>
        <time>2013-04-26T18:45:02Z</time>
      </trkpt>
      <trkpt lat="59.9636977" lon="17.7741849">
        <ele>26.5736</ele>
        <time>2013-04-26T18:45:03Z</time>
      </trkpt>
      <trkpt lat="59.9636735" lon="17.774319">
        <ele>26.0929</ele>
        <time>2013-04-26T18:45:04Z</time>
      </trkpt>
      <trkpt lat="59.9636538" lon="17.7744631">
        <ele>26.0929</ele>
        <time>2013-04-26T18:45:05Z</time>
      </trkpt>
      <trkpt lat="59.963633" lon="17.7746023">
        <ele>25.6123</ele>
        <time>2013-04-26T18:45:06Z</time>
      </trkpt>
      <trkpt lat="59.9636093" lon="17.774742">
        <ele>24.651</ele>
        <time>2013-04-26T18:45:07Z</time>
      </trkpt>
      <trkpt lat="59.9635834" lon="17.7748834">
        <ele>24.651</ele>
        <time>2013-04-26T18:45:08Z</time>
      </trkpt>
      <trkpt lat="59.9635536" lon="17.7750228">
        <ele>24.1703</ele>
        <time>2013-04-26T18:45:09Z</time>
      </trkpt>
      <trkpt lat="59.9635209" lon="17.7751607">
        <ele>24.1703</ele>
        <time>2013-04-26T18:45:10Z</time>
      </trkpt>
      <trkpt lat="59.9634847" lon="17.7752989">
        <ele>24.651</ele>
        <time>2013-04-26T18:45:11Z</time>
      </trkpt>
      <trkpt lat="59.9634434" lon="17.775426">
        <ele>25.1317</ele>
        <time>2013-04-26T18:45:12Z</time>
      </trkpt>
      <trkpt lat="59.9634" lon="17.7755469">
        <ele>24.651</ele>
        <time>2013-04-26T18:45:13Z</time>
      </trkpt>
      <trkpt lat="59.9633578" lon="17.775668">
        <ele>25.1317</ele>
        <time>2013-04-26T18:45:14Z</time>
      </trkpt>
      <trkpt lat="59.963317" lon="17.7757906">
        <ele>25.1317</ele>
        <time>2013-04-26T18:45:15Z</time>
      </trkpt>
      <trkpt lat="59.9632792" lon="17.7759152">
        <ele>25.6123</ele>
        <time>2013-04-26T18:45:16Z</time>
      </trkpt>
      <trkpt lat="59.9632423" lon="17.7760378">
        <ele>26.0929</ele>
        <time>2013-04-26T18:45:17Z</time>
      </trkpt>
      <trkpt lat="59.9632052" lon="17.7761584">
        <ele>26.0929</ele>
        <time>2013-04-26T18:45:18Z</time>
      </trkpt>
      <trkpt lat="59.963168" lon="17.7762791">
        <ele>26.0929</ele>
        <time>2013-04-26T18:45:19Z</time>
      </trkpt>
      <trkpt lat="59.9631331" lon="17.776409">
        <ele>26.5736</ele>
        <time>2013-04-26T18:45:20Z</time>
      </trkpt>
      <trkpt lat="59.9630965" lon="17.7765349">
        <ele>26.5736</ele>
        <time>2013-04-26T18:45:21Z</time>
      </trkpt>
      <trkpt lat="59.9630605" lon="17.7766667">
        <ele>27.0543</ele>
        <time>2013-04-26T18:45:22Z</time>
      </trkpt>
      <trkpt lat="59.9630208" lon="17.7767974">
        <ele>26.5736</ele>
        <time>2013-04-26T18:45:23Z</time>
      </trkpt>
      <trkpt lat="59.9629772" lon="17.7769229">
        <ele>26.0929</ele>
        <time>2013-04-26T18:45:24Z</time>
      </trkpt>
      <trkpt lat="59.9629301" lon="17.7770478">
        <ele>25.6123</ele>
        <time>2013-04-26T18:45:25Z</time>
      </trkpt>
      <trkpt lat="59.9628804" lon="17.7771727">
        <ele>25.6123</ele>
        <time>2013-04-26T18:45:26Z</time>
      </trkpt>
      <trkpt lat="59.9628269" lon="17.7772928">
        <ele>25.6123</ele>
        <time>2013-04-26T18:45:27Z</time>
      </trkpt>
      <trkpt lat="59.9627712" lon="17.7774098">
        <ele>25.6123</ele>
        <time>2013-04-26T18:45:28Z</time>
      </trkpt>
      <trkpt lat="59.9627155" lon="17.7775273">
        <ele>26.0929</ele>
        <time>2013-04-26T18:45:29Z</time>
      </trkpt>
      <trkpt lat="59.9626601" lon="17.777649">
        <ele>26.5736</ele>
        <time>2013-04-26T18:45:30Z</time>
      </trkpt>
      <trkpt lat="59.9626049" lon="17.7777698">
        <ele>27.0543</ele>
        <time>2013-04-26T18:45:31Z</time>
      </trkpt>
      <trkpt lat="59.9625505" lon="17.7778915">
        <ele>27.0543</ele>
        <time>2013-04-26T18:45:32Z</time>
      </trkpt>
      <trkpt lat="59.962496" lon="17.7780118">
        <ele>27.5349</ele>
        <time>2013-04-26T18:45:33Z</time>
      </trkpt>
      <trkpt lat="59.9624419" lon="17.7781314">
        <ele>27.5349</ele>
        <time>2013-04-26T18:45:34Z</time>
      </trkpt>
      <trkpt lat="59.9623884" lon="17.7782507">
        <ele>27.5349</ele>
        <time>2013-04-26T18:45:35Z</time>
      </trkpt>
      <trkpt lat="59.9623339" lon="17.7783698">
        <ele>28.0155</ele>
        <time>2013-04-26T18:45:36Z</time>
      </trkpt>
      <trkpt lat="59.96228" lon="17.7784905">
        <ele>28.0155</ele>
        <time>2013-04-26T18:45:37Z</time>
      </trkpt>
      <trkpt lat="59.9622288" lon="17.7786138">
        <ele>28.4962</ele>
        <time>2013-04-26T18:45:38Z</time>
      </trkpt>
      <trkpt lat="59.9621801" lon="17.7787427">
        <ele>28.9769</ele>
        <time>2013-04-26T18:45:39Z</time>
      </trkpt>
      <trkpt lat="59.9621309" lon="17.7788653">
        <ele>29.4575</ele>
        <time>2013-04-26T18:45:40Z</time>
      </trkpt>
      <trkpt lat="59.9620806" lon="17.7789808">
        <ele>29.9381</ele>
        <time>2013-04-26T18:45:41Z</time>
      </trkpt>
      <trkpt lat="59.9620304" lon="17.7791001">
        <ele>30.4188</ele>
        <time>2013-04-26T18:45:42Z</time>
      </trkpt>
      <trkpt lat="59.9619806" lon="17.7792143">
        <ele>31.3801</ele>
        <time>2013-04-26T18:45:43Z</time>
      </trkpt>
      <trkpt lat="59.9619302" lon="17.7793212">
        <ele>31.3801</ele>
        <time>2013-04-26T18:45:44Z</time>
      </trkpt>
      <trkpt lat="59.9618793" lon="17.7794235">
        <ele>30.8995</ele>
        <time>2013-04-26T18:45:45Z</time>
      </trkpt>
      <trkpt lat="59.9618303" lon="17.7795289">
        <ele>30.8995</ele>
        <time>2013-04-26T18:45:46Z</time>
      </trkpt>
      <trkpt lat="59.9617833" lon="17.77964">
        <ele>31.3801</ele>
        <time>2013-04-26T18:45:47Z</time>
      </trkpt>
      <trkpt lat="59.9617365" lon="17.7797524">
        <ele>31.8607</ele>
        <time>2013-04-26T18:45:48Z</time>
      </trkpt>
      <trkpt lat="59.9616894" lon="17.7798656">
        <ele>31.3801</ele>
        <time>2013-04-26T18:45:49Z</time>
      </trkpt>
      <trkpt lat="59.9616418" lon="17.7799896">
        <ele>31.8607</ele>
        <time>2013-04-26T18:45:50Z</time>
      </trkpt>
      <trkpt lat="59.9615893" lon="17.7801068">
        <ele>31.8607</ele>
        <time>2013-04-26T18:45:51Z</time>
      </trkpt>
      <trkpt lat="59.961535" lon="17.780223">
        <ele>32.3416</ele>
        <time>2013-04-26T18:45:52Z</time>
      </trkpt>
      <trkpt lat="59.961479" lon="17.7803355">
        <ele>32.3416</ele>
        <time>2013-04-26T18:45:53Z</time>
      </trkpt>
      <trkpt lat="59.9614222" lon="17.7804454">
        <ele>32.8223</ele>
        <time>2013-04-26T18:45:54Z</time>
      </trkpt>
      <trkpt lat="59.9613647" lon="17.7805532">
        <ele>32.8223</ele>
        <time>2013-04-26T18:45:55Z</time>
      </trkpt>
      <trkpt lat="59.9613072" lon="17.780661">
        <ele>33.3029</ele>
        <time>2013-04-26T18:45:56Z</time>
      </trkpt>
      <trkpt lat="59.9612494" lon="17.7807674">
        <ele>33.7834</ele>
        <time>2013-04-26T18:45:57Z</time>
      </trkpt>
      <trkpt lat="59.9611914" lon="17.7808752">
        <ele>33.7834</ele>
        <time>2013-04-26T18:45:58Z</time>
      </trkpt>
      <trkpt lat="59.9611341" lon="17.7809862">
        <ele>34.2642</ele>
        <time>2013-04-26T18:45:59Z</time>
      </trkpt>
      <trkpt lat="59.9610757" lon="17.7810941">
        <ele>34.7449</ele>
        <time>2013-04-26T18:46:00Z</time>
      </trkpt>
      <trkpt lat="59.9610179" lon="17.7812013">
        <ele>34.7449</ele>
        <time>2013-04-26T18:46:01Z</time>
      </trkpt>
      <trkpt lat="59.9609602" lon="17.7813086">
        <ele>35.2255</ele>
        <time>2013-04-26T18:46:02Z</time>
      </trkpt>
      <trkpt lat="59.960902" lon="17.7814122">
        <ele>35.2255</ele>
        <time>2013-04-26T18:46:03Z</time>
      </trkpt>
      <trkpt lat="59.960842" lon="17.7815149">
        <ele>35.2255</ele>
        <time>2013-04-26T18:46:04Z</time>
      </trkpt>
      <trkpt lat="59.9607807" lon="17.7816152">
        <ele>34.7449</ele>
        <time>2013-04-26T18:46:05Z</time>
      </trkpt>
      <trkpt lat="59.9607214" lon="17.7817242">
        <ele>35.2255</ele>
        <time>2013-04-26T18:46:06Z</time>
      </trkpt>
      <trkpt lat="59.9606633" lon="17.7818322">
        <ele>35.7061</ele>
        <time>2013-04-26T18:46:07Z</time>
      </trkpt>
      <trkpt lat="59.9606066" lon="17.781939">
        <ele>35.2255</ele>
        <time>2013-04-26T18:46:08Z</time>
      </trkpt>
      <trkpt lat="59.9605541" lon="17.7820512">
        <ele>35.2255</ele>
        <time>2013-04-26T18:46:09Z</time>
      </trkpt>
      <trkpt lat="59.9605077" lon="17.7821683">
        <ele>35.7061</ele>
        <time>2013-04-26T18:46:10Z</time>
      </trkpt>
      <trkpt lat="59.9604665" lon="17.7822899">
        <ele>36.1868</ele>
        <time>2013-04-26T18:46:11Z</time>
      </trkpt>
      <trkpt lat="59.9604287" lon="17.7824139">
        <ele>36.6675</ele>
        <time>2013-04-26T18:46:12Z</time>
      </trkpt>
      <trkpt lat="59.9603927" lon="17.7825378">
        <ele>36.6675</ele>
        <time>2013-04-26T18:46:13Z</time>
      </trkpt>
      <trkpt lat="59.960356" lon="17.7826605">
        <ele>37.1481</ele>
        <time>2013-04-26T18:46:14Z</time>
      </trkpt>
      <trkpt lat="59.9603194" lon="17.7827884">
        <ele>37.6287</ele>
        <time>2013-04-26T18:46:15Z</time>
      </trkpt>
      <trkpt lat="59.9602814" lon="17.7829172">
        <ele>38.1094</ele>
        <time>2013-04-26T18:46:16Z</time>
      </trkpt>
      <trkpt lat="59.9602409" lon="17.7830428">
        <ele>38.5901</ele>
        <time>2013-04-26T18:46:17Z</time>
      </trkpt>
      <trkpt lat="59.9601976" lon="17.7831667">
        <ele>37.6287</ele>
        <time>2013-04-26T18:46:18Z</time>
      </trkpt>
      <trkpt lat="59.9601546" lon="17.7832949">
        <ele>37.6287</ele>
        <time>2013-04-26T18:46:19Z</time>
      </trkpt>
      <trkpt lat="59.9601137" lon="17.7834262">
        <ele>37.1481</ele>
        <time>2013-04-26T18:46:20Z</time>
      </trkpt>
      <trkpt lat="59.9600734" lon="17.7835586">
        <ele>37.1481</ele>
        <time>2013-04-26T18:46:21Z</time>
      </trkpt>
      <trkpt lat="59.9600317" lon="17.7836908">
        <ele>37.6287</ele>
        <time>2013-04-26T18:46:22Z</time>
      </trkpt>
      <trkpt lat="59.9599858" lon="17.7838116">
        <ele>37.1481</ele>
        <time>2013-04-26T18:46:23Z</time>
      </trkpt>
      <trkpt lat="59.9599376" lon="17.783928">
        <ele>36.6675</ele>
        <time>2013-04-26T18:46:24Z</time>
      </trkpt>
      <trkpt lat="59.9598882" lon="17.784053">
        <ele>37.1481</ele>
        <time>2013-04-26T18:46:25Z</time>
      </trkpt>
      <trkpt lat="59.9598343" lon="17.7841706">
        <ele>37.6287</ele>
        <time>2013-04-26T18:46:26Z</time>
      </trkpt>
      <trkpt lat="59.9597776" lon="17.7842855">
        <ele>37.6287</ele>
        <time>2013-04-26T18:46:27Z</time>
      </trkpt>
      <trkpt lat="59.959719" lon="17.7843969">
        <ele>38.1094</ele>
        <time>2013-04-26T18:46:28Z</time>
      </trkpt>
      <trkpt lat="59.9596603" lon="17.7845025">
        <ele>38.5901</ele>
        <time>2013-04-26T18:46:29Z</time>
      </trkpt>
      <trkpt lat="59.9596023" lon="17.7846075">
        <ele>39.0707</ele>
        <time>2013-04-26T18:46:30Z</time>
      </trkpt>
      <trkpt lat="59.959544" lon="17.7847143">
        <ele>39.5513</ele>
        <time>2013-04-26T18:46:31Z</time>
      </trkpt>
      <trkpt lat="59.9594825" lon="17.7848064">
        <ele>39.5513</ele>
        <time>2013-04-26T18:46:32Z</time>
      </trkpt>
      <trkpt lat="59.9594188" lon="17.7848981">
        <ele>39.5513</ele>
        <time>2013-04-26T18:46:33Z</time>
      </trkpt>
      <trkpt lat="59.9593527" lon="17.7849921">
        <ele>39.5513</ele>
        <time>2013-04-26T18:46:34Z</time>
      </trkpt>
      <trkpt lat="59.9592826" lon="17.7850831">
        <ele>39.5513</ele>
        <time>2013-04-26T18:46:35Z</time>
      </trkpt>
      <trkpt lat="59.9592077" lon="17.7851629">
        <ele>39.5513</ele>
        <time>2013-04-26T18:46:36Z</time>
      </trkpt>
      <trkpt lat="59.959129" lon="17.7852313">
        <ele>39.0707</ele>
        <time>2013-04-26T18:46:37Z</time>
      </trkpt>
      <trkpt lat="59.9590455" lon="17.785293">
        <ele>38.5901</ele>
        <time>2013-04-26T18:46:38Z</time>
      </trkpt>
      <trkpt lat="59.9589619" lon="17.7853539">
        <ele>37.6287</ele>
        <time>2013-04-26T18:46:39Z</time>
      </trkpt>
      <trkpt lat="59.9588785" lon="17.7854127">
        <ele>37.1481</ele>
        <time>2013-04-26T18:46:40Z</time>
      </trkpt>
      <trkpt lat="59.9587969" lon="17.7854733">
        <ele>36.1868</ele>
        <time>2013-04-26T18:46:41Z</time>
      </trkpt>
      <trkpt lat="59.9587161" lon="17.785538">
        <ele>35.2255</ele>
        <time>2013-04-26T18:46:42Z</time>
      </trkpt>
      <trkpt lat="59.9586372" lon="17.7856089">
        <ele>34.7449</ele>
        <time>2013-04-26T18:46:43Z</time>
      </trkpt>
      <trkpt lat="59.9585591" lon="17.7856852">
        <ele>33.7834</ele>
        <time>2013-04-26T18:46:44Z</time>
      </trkpt>
      <trkpt lat="59.9584794" lon="17.7857642">
        <ele>33.3029</ele>
        <time>2013-04-26T18:46:45Z</time>
      </trkpt>
      <trkpt lat="59.9584011" lon="17.7858488">
        <ele>32.8223</ele>
        <time>2013-04-26T18:46:46Z</time>
      </trkpt>
      <trkpt lat="59.9583207" lon="17.7859338">
        <ele>32.3416</ele>
        <time>2013-04-26T18:46:47Z</time>
      </trkpt>
      <trkpt lat="59.9582421" lon="17.7860208">
        <ele>31.8607</ele>
        <time>2013-04-26T18:46:48Z</time>
      </trkpt>
      <trkpt lat="59.9581644" lon="17.7861082">
        <ele>31.3801</ele>
        <time>2013-04-26T18:46:49Z</time>
      </trkpt>
      <trkpt lat="59.9580867" lon="17.7861947">
        <ele>30.8995</ele>
        <time>2013-04-26T18:46:50Z</time>
      </trkpt>
      <trkpt lat="59.9580096" lon="17.7862827">
        <ele>30.4188</ele>
        <time>2013-04-26T18:46:51Z</time>
      </trkpt>
      <trkpt lat="59.9579324" lon="17.7863725">
        <ele>29.9381</ele>
        <time>2013-04-26T18:46:52Z</time>
      </trkpt>
      <trkpt lat="59.9578562" lon="17.7864673">
        <ele>29.9381</ele>
        <time>2013-04-26T18:46:53Z</time>
      </trkpt>
      <trkpt lat="59.9577851" lon="17.7865811">
        <ele>30.4188</ele>
        <time>2013-04-26T18:46:54Z</time>
      </trkpt>
      <trkpt lat="59.957723" lon="17.7867056">
        <ele>30.8995</ele>
        <time>2013-04-26T18:46:55Z</time>
      </trkpt>
      <trkpt lat="59.9576738" lon="17.7868466">
        <ele>30.8995</ele>
        <time>2013-04-26T18:46:56Z</time>
      </trkpt>
      <trkpt lat="59.9576377" lon="17.7869932">
        <ele>30.8995</ele>
        <time>2013-04-26T18:46:57Z</time>
      </trkpt>
      <trkpt lat="59.9576075" lon="17.7871459">
        <ele>30.4188</ele>
        <time>2013-04-26T18:46:58Z</time>
      </trkpt>
      <trkpt lat="59.9575776" lon="17.7872915">
        <ele>28.9769</ele>
        <time>2013-04-26T18:46:59Z</time>
      </trkpt>
      <trkpt lat="59.9575455" lon="17.7874463">
        <ele>28.9769</ele>
        <time>2013-04-26T18:47:00Z</time>
      </trkpt>
      <trkpt lat="59.9575087" lon="17.7876011">
        <ele>28.9769</ele>
        <time>2013-04-26T18:47:01Z</time>
      </trkpt>
      <trkpt lat="59.957469" lon="17.7877566">
        <ele>28.9769</ele>
        <time>2013-04-26T18:47:02Z</time>
      </trkpt>
      <trkpt lat="59.9574282" lon="17.7879101">
        <ele>29.4575</ele>
        <time>2013-04-26T18:47:03Z</time>
      </trkpt>
      <trkpt lat="59.9573868" lon="17.7880579">
        <ele>29.9381</ele>
        <time>2013-04-26T18:47:04Z</time>
      </trkpt>
      <trkpt lat="59.9573448" lon="17.788205">
        <ele>29.9381</ele>
        <time>2013-04-26T18:47:05Z</time>
      </trkpt>
      <trkpt lat="59.9573032" lon="17.7883506">
        <ele>29.9381</ele>
        <time>2013-04-26T18:47:06Z</time>
      </trkpt>
      <trkpt lat="59.9572616" lon="17.788497">
        <ele>30.4188</ele>
        <time>2013-04-26T18:47:07Z</time>
      </trkpt>
      <trkpt lat="59.9572163" lon="17.7886399">
        <ele>30.4188</ele>
        <time>2013-04-26T18:47:08Z</time>
      </trkpt>
      <trkpt lat="59.9571684" lon="17.7887783">
        <ele>29.9381</ele>
        <time>2013-04-26T18:47:09Z</time>
      </trkpt>
      <trkpt lat="59.9571168" lon="17.7889085">
        <ele>29.4575</ele>
        <time>2013-04-26T18:47:10Z</time>
      </trkpt>
      <trkpt lat="59.9570625" lon="17.7890412">
        <ele>29.9381</ele>
        <time>2013-04-26T18:47:11Z</time>
      </trkpt>
      <trkpt lat="59.9569901" lon="17.7891553">
        <ele>29.9381</ele>
        <time>2013-04-26T18:47:12Z</time>
      </trkpt>
      <trkpt lat="59.9569091" lon="17.7892698">
        <ele>29.9381</ele>
        <time>2013-04-26T18:47:13Z</time>
      </trkpt>
      <trkpt lat="59.956842" lon="17.7893681">
        <ele>30.4188</ele>
        <time>2013-04-26T18:47:14Z</time>
      </trkpt>
      <trkpt lat="59.9567519" lon="17.7894582">
        <ele>29.4575</ele>
        <time>2013-04-26T18:47:15Z</time>
      </trkpt>
      <trkpt lat="59.9566792" lon="17.7895402">
        <ele>29.4575</ele>
        <time>2013-04-26T18:47:16Z</time>
      </trkpt>
      <trkpt lat="59.9566179" lon="17.7896549">
        <ele>29.4575</ele>
        <time>2013-04-26T18:47:17Z</time>
      </trkpt>
      <trkpt lat="59.9565667" lon="17.7898112">
        <ele>29.9381</ele>
        <time>2013-04-26T18:47:18Z</time>
      </trkpt>
      <trkpt lat="59.9565399" lon="17.789997">
        <ele>30.8995</ele>
        <time>2013-04-26T18:47:19Z</time>
      </trkpt>
      <trkpt lat="59.9565327" lon="17.79016">
        <ele>30.8995</ele>
        <time>2013-04-26T18:47:20Z</time>
      </trkpt>
      <trkpt lat="59.956546" lon="17.7903197">
        <ele>31.3801</ele>
        <time>2013-04-26T18:47:21Z</time>
      </trkpt>
      <trkpt lat="59.956573" lon="17.7904705">
        <ele>31.8607</ele>
        <time>2013-04-26T18:47:22Z</time>
      </trkpt>
      <trkpt lat="59.9566052" lon="17.7906103">
        <ele>31.8607</ele>
        <time>2013-04-26T18:47:23Z</time>
      </trkpt>
      <trkpt lat="59.9566351" lon="17.7907462">
        <ele>32.3416</ele>
        <time>2013-04-26T18:47:24Z</time>
      </trkpt>
      <trkpt lat="59.9566627" lon="17.7908823">
        <ele>32.8223</ele>
        <time>2013-04-26T18:47:25Z</time>
      </trkpt>
      <trkpt lat="59.9566856" lon="17.7910183">
        <ele>33.3029</ele>
        <time>2013-04-26T18:47:26Z</time>
      </trkpt>
      <trkpt lat="59.9567025" lon="17.7911573">
        <ele>33.3029</ele>
        <time>2013-04-26T18:47:27Z</time>
      </trkpt>
      <trkpt lat="59.9567093" lon="17.7912922">
        <ele>32.3416</ele>
        <time>2013-04-26T18:47:28Z</time>
      </trkpt>
      <trkpt lat="59.9567075" lon="17.7914465">
        <ele>32.3416</ele>
        <time>2013-04-26T18:47:29Z</time>
      </trkpt>
      <trkpt lat="59.9566907" lon="17.7915935">
        <ele>30.8995</ele>
        <time>2013-04-26T18:47:30Z</time>
      </trkpt>
      <trkpt lat="59.9566674" lon="17.7917361">
        <ele>29.9381</ele>
        <time>2013-04-26T18:47:31Z</time>
      </trkpt>
      <trkpt lat="59.9566419" lon="17.7918783">
        <ele>29.4575</ele>
        <time>2013-04-26T18:47:32Z</time>
      </trkpt>
      <trkpt lat="59.9566151" lon="17.7920205">
        <ele>28.4962</ele>
        <time>2013-04-26T18:47:33Z</time>
      </trkpt>
      <trkpt lat="59.9565897" lon="17.7921702">
        <ele>28.4962</ele>
        <time>2013-04-26T18:47:34Z</time>
      </trkpt>
      <trkpt lat="59.9565648" lon="17.792315">
        <ele>28.9769</ele>
        <time>2013-04-26T18:47:35Z</time>
      </trkpt>
      <trkpt lat="59.9565399" lon="17.7924592">
        <ele>28.9769</ele>
        <time>2013-04-26T18:47:36Z</time>
      </trkpt>
      <trkpt lat="59.9565139" lon="17.7926026">
        <ele>28.4962</ele>
        <time>2013-04-26T18:47:37Z</time>
      </trkpt>
      <trkpt lat="59.956487" lon="17.7927482">
        <ele>27.5349</ele>
        <time>2013-04-26T18:47:38Z</time>
      </trkpt>
      <trkpt lat="59.9564608" lon="17.7928974">
        <ele>28.0155</ele>
        <time>2013-04-26T18:47:39Z</time>
      </trkpt>
      <trkpt lat="59.9564318" lon="17.7930414">
        <ele>27.0543</ele>
        <time>2013-04-26T18:47:40Z</time>
      </trkpt>
      <trkpt lat="59.956404" lon="17.793189">
        <ele>27.0543</ele>
        <time>2013-04-26T18:47:41Z</time>
      </trkpt>
      <trkpt lat="59.9563748" lon="17.7933367">
        <ele>27.5349</ele>
        <time>2013-04-26T18:47:42Z</time>
      </trkpt>
      <trkpt lat="59.9563441" lon="17.7934921">
        <ele>27.5349</ele>
        <time>2013-04-26T18:47:43Z</time>
      </trkpt>
      <trkpt lat="59.9563114" lon="17.7936447">
        <ele>27.5349</ele>
        <time>2013-04-26T18:47:44Z</time>
      </trkpt>
      <trkpt lat="59.9562779" lon="17.793795">
        <ele>27.0543</ele>
        <time>2013-04-26T18:47:45Z</time>
      </trkpt>
      <trkpt lat="59.9562444" lon="17.7939463">
        <ele>26.5736</ele>
        <time>2013-04-26T18:47:46Z</time>
      </trkpt>
      <trkpt lat="59.9562073" lon="17.7940919">
        <ele>25.6123</ele>
        <time>2013-04-26T18:47:47Z</time>
      </trkpt>
      <trkpt lat="59.956172" lon="17.7942469">
        <ele>25.1317</ele>
        <time>2013-04-26T18:47:48Z</time>
      </trkpt>
      <trkpt lat="59.9561363" lon="17.7943953">
        <ele>24.651</ele>
        <time>2013-04-26T18:47:49Z</time>
      </trkpt>
      <trkpt lat="59.9560981" lon="17.7945379">
        <ele>23.6896</ele>
        <time>2013-04-26T18:47:50Z</time>
      </trkpt>
      <trkpt lat="59.9560602" lon="17.7946866">
        <ele>22.7283</ele>
        <time>2013-04-26T18:47:51Z</time>
      </trkpt>
      <trkpt lat="59.9560214" lon="17.7948388">
        <ele>22.2476</ele>
        <time>2013-04-26T18:47:52Z</time>
      </trkpt>
      <trkpt lat="59.9559855" lon="17.7949913">
        <ele>22.2476</ele>
        <time>2013-04-26T18:47:53Z</time>
      </trkpt>
      <trkpt lat="59.9559478" lon="17.7951332">
        <ele>21.2864</ele>
        <time>2013-04-26T18:47:54Z</time>
      </trkpt>
      <trkpt lat="59.9559136" lon="17.7952844">
        <ele>20.8057</ele>
        <time>2013-04-26T18:47:55Z</time>
      </trkpt>
      <trkpt lat="59.9558836" lon="17.795442">
        <ele>21.2864</ele>
        <time>2013-04-26T18:47:56Z</time>
      </trkpt>
      <trkpt lat="59.9558551" lon="17.7955998">
        <ele>21.2864</ele>
        <time>2013-04-26T18:47:57Z</time>
      </trkpt>
      <trkpt lat="59.9558278" lon="17.7957552">
        <ele>21.2864</ele>
        <time>2013-04-26T18:47:58Z</time>
      </trkpt>
      <trkpt lat="59.9557993" lon="17.7959065">
        <ele>20.325</ele>
        <time>2013-04-26T18:47:59Z</time>
      </trkpt>
      <trkpt lat="59.9557715" lon="17.7960617">
        <ele>19.8444</ele>
        <time>2013-04-26T18:48:00Z</time>
      </trkpt>
      <trkpt lat="59.9557432" lon="17.7962141">
        <ele>19.3638</ele>
        <time>2013-04-26T18:48:01Z</time>
      </trkpt>
      <trkpt lat="59.9557158" lon="17.7963684">
        <ele>18.8831</ele>
        <time>2013-04-26T18:48:02Z</time>
      </trkpt>
      <trkpt lat="59.9556867" lon="17.7965201">
        <ele>18.4023</ele>
        <time>2013-04-26T18:48:03Z</time>
      </trkpt>
      <trkpt lat="59.9556551" lon="17.7966695">
        <ele>18.4023</ele>
        <time>2013-04-26T18:48:04Z</time>
      </trkpt>
      <trkpt lat="59.9556211" lon="17.796816">
        <ele>17.9218</ele>
        <time>2013-04-26T18:48:05Z</time>
      </trkpt>
      <trkpt lat="59.9555855" lon="17.7969659">
        <ele>17.9218</ele>
        <time>2013-04-26T18:48:06Z</time>
      </trkpt>
      <trkpt lat="59.9555465" lon="17.7971107">
        <ele>17.9218</ele>
        <time>2013-04-26T18:48:07Z</time>
      </trkpt>
      <trkpt lat="59.9555071" lon="17.7972593">
        <ele>17.9218</ele>
        <time>2013-04-26T18:48:08Z</time>
      </trkpt>
      <trkpt lat="59.9554667" lon="17.797403">
        <ele>18.4023</ele>
        <time>2013-04-26T18:48:09Z</time>
      </trkpt>
      <trkpt lat="59.9554255" lon="17.7975449">
        <ele>18.8831</ele>
        <time>2013-04-26T18:48:10Z</time>
      </trkpt>
      <trkpt lat="59.9553832" lon="17.7976837">
        <ele>18.8831</ele>
        <time>2013-04-26T18:48:11Z</time>
      </trkpt>
      <trkpt lat="59.9553431" lon="17.7978241">
        <ele>19.3638</ele>
        <time>2013-04-26T18:48:12Z</time>
      </trkpt>
      <trkpt lat="59.955303" lon="17.797963">
        <ele>19.3638</ele>
        <time>2013-04-26T18:48:13Z</time>
      </trkpt>
      <trkpt lat="59.9552599" lon="17.7980873">
        <ele>18.8831</ele>
        <time>2013-04-26T18:48:14Z</time>
      </trkpt>
      <trkpt lat="59.9552185" lon="17.7982184">
        <ele>19.3638</ele>
        <time>2013-04-26T18:48:15Z</time>
      </trkpt>
      <trkpt lat="59.9551785" lon="17.7983557">
        <ele>19.8444</ele>
        <time>2013-04-26T18:48:16Z</time>
      </trkpt>
      <trkpt lat="59.955134" lon="17.7984803">
        <ele>20.8057</ele>
        <time>2013-04-26T18:48:17Z</time>
      </trkpt>
      <trkpt lat="59.9550867" lon="17.7985994">
        <ele>21.2864</ele>
        <time>2013-04-26T18:48:18Z</time>
      </trkpt>
      <trkpt lat="59.9550393" lon="17.7987098">
        <ele>21.2864</ele>
        <time>2013-04-26T18:48:19Z</time>
      </trkpt>
      <trkpt lat="59.954994" lon="17.7988249">
        <ele>22.2476</ele>
        <time>2013-04-26T18:48:20Z</time>
      </trkpt>
      <trkpt lat="59.9549442" lon="17.7989356">
        <ele>22.7283</ele>
        <time>2013-04-26T18:48:21Z</time>
      </trkpt>
      <trkpt lat="59.9548942" lon="17.7990465">
        <ele>23.6896</ele>
        <time>2013-04-26T18:48:22Z</time>
      </trkpt>
      <trkpt lat="59.9548321" lon="17.7991483">
        <ele>24.1703</ele>
        <time>2013-04-26T18:48:23Z</time>
      </trkpt>
      <trkpt lat="59.954774" lon="17.7992574">
        <ele>24.1703</ele>
        <time>2013-04-26T18:48:24Z</time>
      </trkpt>
      <trkpt lat="59.9547163" lon="17.7993705">
        <ele>24.1703</ele>
        <time>2013-04-26T18:48:25Z</time>
      </trkpt>
      <trkpt lat="59.9546585" lon="17.7994894">
        <ele>24.1703</ele>
        <time>2013-04-26T18:48:26Z</time>
      </trkpt>
      <trkpt lat="59.9546014" lon="17.799609">
        <ele>24.1703</ele>
        <time>2013-04-26T18:48:27Z</time>
      </trkpt>
      <trkpt lat="59.9545469" lon="17.7997325">
        <ele>24.651</ele>
        <time>2013-04-26T18:48:28Z</time>
      </trkpt>
      <trkpt lat="59.9544925" lon="17.7998636">
        <ele>25.1317</ele>
        <time>2013-04-26T18:48:29Z</time>
      </trkpt>
      <trkpt lat="59.9544403" lon="17.7999911">
        <ele>25.1317</ele>
        <time>2013-04-26T18:48:30Z</time>
      </trkpt>
      <trkpt lat="59.9543889" lon="17.8001178">
        <ele>25.6123</ele>
        <time>2013-04-26T18:48:31Z</time>
      </trkpt>
      <trkpt lat="59.9543379" lon="17.800251">
        <ele>25.6123</ele>
        <time>2013-04-26T18:48:32Z</time>
      </trkpt>
      <trkpt lat="59.9542867" lon="17.8003798">
        <ele>26.5736</ele>
        <time>2013-04-26T18:48:33Z</time>
      </trkpt>
      <trkpt lat="59.9542354" lon="17.8004928">
        <ele>25.6123</ele>
        <time>2013-04-26T18:48:34Z</time>
      </trkpt>
      <trkpt lat="59.9541851" lon="17.8006188">
        <ele>25.6123</ele>
        <time>2013-04-26T18:48:35Z</time>
      </trkpt>
      <trkpt lat="59.9541392" lon="17.8007412">
        <ele>25.6123</ele>
        <time>2013-04-26T18:48:36Z</time>
      </trkpt>
      <trkpt lat="59.9540934" lon="17.8008586">
        <ele>26.0929</ele>
        <time>2013-04-26T18:48:37Z</time>
      </trkpt>
      <trkpt lat="59.9540471" lon="17.8009644">
        <ele>26.0929</ele>
        <time>2013-04-26T18:48:38Z</time>
      </trkpt>
      <trkpt lat="59.9540088" lon="17.8010774">
        <ele>26.5736</ele>
        <time>2013-04-26T18:48:39Z</time>
      </trkpt>
      <trkpt lat="59.9539757" lon="17.8011845">
        <ele>27.0543</ele>
        <time>2013-04-26T18:48:40Z</time>
      </trkpt>
      <trkpt lat="59.9539326" lon="17.8012803">
        <ele>26.5736</ele>
        <time>2013-04-26T18:48:41Z</time>
      </trkpt>
      <trkpt lat="59.9538373" lon="17.8013441">
        <ele>26.0929</ele>
        <time>2013-04-26T18:48:42Z</time>
      </trkpt>
      <trkpt lat="59.953784" lon="17.801476">
        <ele>25.6123</ele>
        <time>2013-04-26T18:48:43Z</time>
      </trkpt>
      <trkpt lat="59.9537302" lon="17.8015915">
        <ele>25.6123</ele>
        <time>2013-04-26T18:48:44Z</time>
      </trkpt>
      <trkpt lat="59.9536927" lon="17.8016949">
        <ele>25.6123</ele>
        <time>2013-04-26T18:48:45Z</time>
      </trkpt>
      <trkpt lat="59.9536726" lon="17.8018165">
        <ele>25.1317</ele>
        <time>2013-04-26T18:48:46Z</time>
      </trkpt>
      <trkpt lat="59.953653" lon="17.801951">
        <ele>25.1317</ele>
        <time>2013-04-26T18:48:47Z</time>
      </trkpt>
      <trkpt lat="59.9536359" lon="17.8021509">
        <ele>25.6123</ele>
        <time>2013-04-26T18:48:48Z</time>
      </trkpt>
      <trkpt lat="59.9536075" lon="17.8023152">
        <ele>26.0929</ele>
        <time>2013-04-26T18:48:49Z</time>
      </trkpt>
      <trkpt lat="59.9535738" lon="17.8023681">
        <ele>24.651</ele>
        <time>2013-04-26T18:48:50Z</time>
      </trkpt>
      <trkpt lat="59.9535463" lon="17.802464">
        <ele>24.1703</ele>
        <time>2013-04-26T18:48:51Z</time>
      </trkpt>
      <trkpt lat="59.9535228" lon="17.8025752">
        <ele>23.6896</ele>
        <time>2013-04-26T18:48:52Z</time>
      </trkpt>
      <trkpt lat="59.9534976" lon="17.8026648">
        <ele>23.6896</ele>
        <time>2013-04-26T18:48:53Z</time>
      </trkpt>
      <trkpt lat="59.9534733" lon="17.8028122">
        <ele>24.1703</ele>
        <time>2013-04-26T18:48:54Z</time>
      </trkpt>
      <trkpt lat="59.9534431" lon="17.8029484">
        <ele>24.1703</ele>
        <time>2013-04-26T18:48:55Z</time>
      </trkpt>
      <trkpt lat="59.9534111" lon="17.8030681">
        <ele>25.6123</ele>
        <time>2013-04-26T18:48:56Z</time>
      </trkpt>
      <trkpt lat="59.9533829" lon="17.8031866">
        <ele>26.0929</ele>
        <time>2013-04-26T18:48:57Z</time>
      </trkpt>
      <trkpt lat="59.9533469" lon="17.8033053">
        <ele>27.0543</ele>
        <time>2013-04-26T18:48:58Z</time>
      </trkpt>
      <trkpt lat="59.9533137" lon="17.8034374">
        <ele>28.0155</ele>
        <time>2013-04-26T18:48:59Z</time>
      </trkpt>
      <trkpt lat="59.9532748" lon="17.8035384">
        <ele>28.0155</ele>
        <time>2013-04-26T18:49:00Z</time>
      </trkpt>
      <trkpt lat="59.9532314" lon="17.8036509">
        <ele>28.4962</ele>
        <time>2013-04-26T18:49:01Z</time>
      </trkpt>
      <trkpt lat="59.9531837" lon="17.8037445">
        <ele>28.4962</ele>
        <time>2013-04-26T18:49:02Z</time>
      </trkpt>
      <trkpt lat="59.9531293" lon="17.8038257">
        <ele>28.4962</ele>
        <time>2013-04-26T18:49:03Z</time>
      </trkpt>
      <trkpt lat="59.9530804" lon="17.8039423">
        <ele>28.4962</ele>
        <time>2013-04-26T18:49:04Z</time>
      </trkpt>
      <trkpt lat="59.9530314" lon="17.804047">
        <ele>28.4962</ele>
        <time>2013-04-26T18:49:05Z</time>
      </trkpt>
      <trkpt lat="59.9529813" lon="17.8041528">
        <ele>28.0155</ele>
        <time>2013-04-26T18:49:06Z</time>
      </trkpt>
      <trkpt lat="59.9529304" lon="17.8042595">
        <ele>28.0155</ele>
        <time>2013-04-26T18:49:07Z</time>
      </trkpt>
      <trkpt lat="59.9528789" lon="17.8043792">
        <ele>27.5349</ele>
        <time>2013-04-26T18:49:08Z</time>
      </trkpt>
      <trkpt lat="59.9528418" lon="17.8045376">
        <ele>27.5349</ele>
        <time>2013-04-26T18:49:09Z</time>
      </trkpt>
      <trkpt lat="59.9528113" lon="17.8046988">
        <ele>27.0543</ele>
        <time>2013-04-26T18:49:10Z</time>
      </trkpt>
      <trkpt lat="59.9527885" lon="17.8048528">
        <ele>27.5349</ele>
        <time>2013-04-26T18:49:11Z</time>
      </trkpt>
      <trkpt lat="59.9527719" lon="17.8050057">
        <ele>26.5736</ele>
        <time>2013-04-26T18:49:12Z</time>
      </trkpt>
      <trkpt lat="59.9527559" lon="17.8051469">
        <ele>25.6123</ele>
        <time>2013-04-26T18:49:13Z</time>
      </trkpt>
      <trkpt lat="59.9527419" lon="17.805304">
        <ele>25.6123</ele>
        <time>2013-04-26T18:49:14Z</time>
      </trkpt>
      <trkpt lat="59.952728" lon="17.8054625">
        <ele>25.6123</ele>
        <time>2013-04-26T18:49:15Z</time>
      </trkpt>
      <trkpt lat="59.9527108" lon="17.8056171">
        <ele>25.1317</ele>
        <time>2013-04-26T18:49:16Z</time>
      </trkpt>
      <trkpt lat="59.9526914" lon="17.8057683">
        <ele>24.651</ele>
        <time>2013-04-26T18:49:17Z</time>
      </trkpt>
      <trkpt lat="59.9526684" lon="17.8059127">
        <ele>23.6896</ele>
        <time>2013-04-26T18:49:18Z</time>
      </trkpt>
      <trkpt lat="59.9526434" lon="17.8060579">
        <ele>23.209</ele>
        <time>2013-04-26T18:49:19Z</time>
      </trkpt>
      <trkpt lat="59.9526119" lon="17.8061989">
        <ele>22.7283</ele>
        <time>2013-04-26T18:49:20Z</time>
      </trkpt>
      <trkpt lat="59.9525806" lon="17.8063418">
        <ele>22.2476</ele>
        <time>2013-04-26T18:49:21Z</time>
      </trkpt>
      <trkpt lat="59.9525505" lon="17.8064944">
        <ele>22.2476</ele>
        <time>2013-04-26T18:49:22Z</time>
      </trkpt>
      <trkpt lat="59.9525197" lon="17.8066417">
        <ele>21.767</ele>
        <time>2013-04-26T18:49:23Z</time>
      </trkpt>
      <trkpt lat="59.9524859" lon="17.8068008">
        <ele>22.2476</ele>
        <time>2013-04-26T18:49:24Z</time>
      </trkpt>
      <trkpt lat="59.9524479" lon="17.806957">
        <ele>22.2476</ele>
        <time>2013-04-26T18:49:25Z</time>
      </trkpt>
      <trkpt lat="59.9524077" lon="17.8071156">
        <ele>22.2476</ele>
        <time>2013-04-26T18:49:26Z</time>
      </trkpt>
      <trkpt lat="59.9523648" lon="17.8072711">
        <ele>22.2476</ele>
        <time>2013-04-26T18:49:27Z</time>
      </trkpt>
      <trkpt lat="59.9523233" lon="17.8074338">
        <ele>22.7283</ele>
        <time>2013-04-26T18:49:28Z</time>
      </trkpt>
      <trkpt lat="59.9522802" lon="17.8075905">
        <ele>22.7283</ele>
        <time>2013-04-26T18:49:29Z</time>
      </trkpt>
      <trkpt lat="59.9522388" lon="17.8077539">
        <ele>23.209</ele>
        <time>2013-04-26T18:49:30Z</time>
      </trkpt>
      <trkpt lat="59.9521983" lon="17.8079227">
        <ele>23.6896</ele>
        <time>2013-04-26T18:49:31Z</time>
      </trkpt>
      <trkpt lat="59.9521561" lon="17.8080843">
        <ele>24.1703</ele>
        <time>2013-04-26T18:49:32Z</time>
      </trkpt>
      <trkpt lat="59.9521151" lon="17.8082501">
        <ele>24.651</ele>
        <time>2013-04-26T18:49:33Z</time>
      </trkpt>
      <trkpt lat="59.9520736" lon="17.8084118">
        <ele>25.1317</ele>
        <time>2013-04-26T18:49:34Z</time>
      </trkpt>
      <trkpt lat="59.9520337" lon="17.8085724">
        <ele>25.1317</ele>
        <time>2013-04-26T18:49:35Z</time>
      </trkpt>
      <trkpt lat="59.9519907" lon="17.8087226">
        <ele>25.1317</ele>
        <time>2013-04-26T18:49:36Z</time>
      </trkpt>
      <trkpt lat="59.9519503" lon="17.8088826">
        <ele>25.6123</ele>
        <time>2013-04-26T18:49:37Z</time>
      </trkpt>
      <trkpt lat="59.9519114" lon="17.8090447">
        <ele>26.0929</ele>
        <time>2013-04-26T18:49:38Z</time>
      </trkpt>
      <trkpt lat="59.9518704" lon="17.8091969">
        <ele>26.0929</ele>
        <time>2013-04-26T18:49:39Z</time>
      </trkpt>
      <trkpt lat="59.9518323" lon="17.809356">
        <ele>26.0929</ele>
        <time>2013-04-26T18:49:40Z</time>
      </trkpt>
      <trkpt lat="59.951794" lon="17.8095136">
        <ele>26.5736</ele>
        <time>2013-04-26T18:49:41Z</time>
      </trkpt>
      <trkpt lat="59.9517548" lon="17.8096624">
        <ele>26.5736</ele>
        <time>2013-04-26T18:49:42Z</time>
      </trkpt>
      <trkpt lat="59.9517178" lon="17.8098219">
        <ele>27.0543</ele>
        <time>2013-04-26T18:49:43Z</time>
      </trkpt>
      <trkpt lat="59.9516763" lon="17.8099693">
        <ele>27.0543</ele>
        <time>2013-04-26T18:49:44Z</time>
      </trkpt>
      <trkpt lat="59.9516354" lon="17.8101169">
        <ele>26.5736</ele>
        <time>2013-04-26T18:49:45Z</time>
      </trkpt>
      <trkpt lat="59.9515971" lon="17.8102652">
        <ele>26.5736</ele>
        <time>2013-04-26T18:49:46Z</time>
      </trkpt>
      <trkpt lat="59.9515634" lon="17.8104222">
        <ele>27.0543</ele>
        <time>2013-04-26T18:49:47Z</time>
      </trkpt>
      <trkpt lat="59.9515312" lon="17.8105784">
        <ele>27.0543</ele>
        <time>2013-04-26T18:49:48Z</time>
      </trkpt>
      <trkpt lat="59.9515013" lon="17.8107383">
        <ele>27.0543</ele>
        <time>2013-04-26T18:49:49Z</time>
      </trkpt>
      <trkpt lat="59.9514722" lon="17.8108956">
        <ele>27.0543</ele>
        <time>2013-04-26T18:49:50Z</time>
      </trkpt>
      <trkpt lat="59.9514472" lon="17.8110657">
        <ele>27.5349</ele>
        <time>2013-04-26T18:49:51Z</time>
      </trkpt>
      <trkpt lat="59.951423" lon="17.811228">
        <ele>27.5349</ele>
        <time>2013-04-26T18:49:52Z</time>
      </trkpt>
      <trkpt lat="59.9514016" lon="17.8113945">
        <ele>27.5349</ele>
        <time>2013-04-26T18:49:53Z</time>
      </trkpt>
      <trkpt lat="59.9513812" lon="17.8115591">
        <ele>27.5349</ele>
        <time>2013-04-26T18:49:54Z</time>
      </trkpt>
      <trkpt lat="59.9513629" lon="17.8117251">
        <ele>27.0543</ele>
        <time>2013-04-26T18:49:55Z</time>
      </trkpt>
      <trkpt lat="59.951348" lon="17.8118923">
        <ele>27.0543</ele>
        <time>2013-04-26T18:49:56Z</time>
      </trkpt>
      <trkpt lat="59.9513391" lon="17.8120664">
        <ele>27.0543</ele>
        <time>2013-04-26T18:49:57Z</time>
      </trkpt>
      <trkpt lat="59.9513329" lon="17.8122338">
        <ele>26.5736</ele>
        <time>2013-04-26T18:49:58Z</time>
      </trkpt>
      <trkpt lat="59.9513309" lon="17.8124148">
        <ele>26.5736</ele>
        <time>2013-04-26T18:49:59Z</time>
      </trkpt>
      <trkpt lat="59.9513292" lon="17.8125966">
        <ele>26.5736</ele>
        <time>2013-04-26T18:50:00Z</time>
      </trkpt>
      <trkpt lat="59.9513283" lon="17.81278">
        <ele>26.0929</ele>
        <time>2013-04-26T18:50:01Z</time>
      </trkpt>
      <trkpt lat="59.9513278" lon="17.8129641">
        <ele>26.0929</ele>
        <time>2013-04-26T18:50:02Z</time>
      </trkpt>
      <trkpt lat="59.9513267" lon="17.8131479">
        <ele>25.6123</ele>
        <time>2013-04-26T18:50:03Z</time>
      </trkpt>
      <trkpt lat="59.9513254" lon="17.8133313">
        <ele>25.6123</ele>
        <time>2013-04-26T18:50:04Z</time>
      </trkpt>
      <trkpt lat="59.9513241" lon="17.8135155">
        <ele>25.1317</ele>
        <time>2013-04-26T18:50:05Z</time>
      </trkpt>
      <trkpt lat="59.951323" lon="17.8136991">
        <ele>25.1317</ele>
        <time>2013-04-26T18:50:06Z</time>
      </trkpt>
      <trkpt lat="59.9513216" lon="17.8138807">
        <ele>24.651</ele>
        <time>2013-04-26T18:50:07Z</time>
      </trkpt>
      <trkpt lat="59.9513209" lon="17.8140648">
        <ele>24.651</ele>
        <time>2013-04-26T18:50:08Z</time>
      </trkpt>
      <trkpt lat="59.9513208" lon="17.814254">
        <ele>24.651</ele>
        <time>2013-04-26T18:50:09Z</time>
      </trkpt>
      <trkpt lat="59.9513199" lon="17.8144379">
        <ele>24.651</ele>
        <time>2013-04-26T18:50:10Z</time>
      </trkpt>
      <trkpt lat="59.9513182" lon="17.8146201">
        <ele>24.651</ele>
        <time>2013-04-26T18:50:11Z</time>
      </trkpt>
      <trkpt lat="59.9513153" lon="17.8147977">
        <ele>24.651</ele>
        <time>2013-04-26T18:50:12Z</time>
      </trkpt>
      <trkpt lat="59.9513122" lon="17.8149729">
        <ele>24.1703</ele>
        <time>2013-04-26T18:50:13Z</time>
      </trkpt>
      <trkpt lat="59.9513081" lon="17.8151458">
        <ele>24.1703</ele>
        <time>2013-04-26T18:50:14Z</time>
      </trkpt>
      <trkpt lat="59.9513022" lon="17.8153148">
        <ele>23.6896</ele>
        <time>2013-04-26T18:50:15Z</time>
      </trkpt>
      <trkpt lat="59.9512949" lon="17.8154838">
        <ele>23.6896</ele>
        <time>2013-04-26T18:50:16Z</time>
      </trkpt>
      <trkpt lat="59.9512868" lon="17.8156515">
        <ele>23.6896</ele>
        <time>2013-04-26T18:50:17Z</time>
      </trkpt>
      <trkpt lat="59.9512772" lon="17.8158152">
        <ele>23.209</ele>
        <time>2013-04-26T18:50:18Z</time>
      </trkpt>
      <trkpt lat="59.951266" lon="17.8159783">
        <ele>23.209</ele>
        <time>2013-04-26T18:50:19Z</time>
      </trkpt>
      <trkpt lat="59.9512534" lon="17.8161389">
        <ele>22.7283</ele>
        <time>2013-04-26T18:50:20Z</time>
      </trkpt>
      <trkpt lat="59.9512397" lon="17.8163031">
        <ele>22.7283</ele>
        <time>2013-04-26T18:50:21Z</time>
      </trkpt>
      <trkpt lat="59.9512244" lon="17.8164653">
        <ele>22.2476</ele>
        <time>2013-04-26T18:50:22Z</time>
      </trkpt>
      <trkpt lat="59.9512095" lon="17.8166288">
        <ele>22.2476</ele>
        <time>2013-04-26T18:50:23Z</time>
      </trkpt>
      <trkpt lat="59.9511941" lon="17.816789">
        <ele>22.2476</ele>
        <time>2013-04-26T18:50:24Z</time>
      </trkpt>
      <trkpt lat="59.9511775" lon="17.8169424">
        <ele>21.767</ele>
        <time>2013-04-26T18:50:25Z</time>
      </trkpt>
      <trkpt lat="59.9511626" lon="17.8171043">
        <ele>22.2476</ele>
        <time>2013-04-26T18:50:26Z</time>
      </trkpt>
      <trkpt lat="59.9511475" lon="17.8172634">
        <ele>21.767</ele>
        <time>2013-04-26T18:50:27Z</time>
      </trkpt>
      <trkpt lat="59.9511303" lon="17.8174154">
        <ele>21.767</ele>
        <time>2013-04-26T18:50:28Z</time>
      </trkpt>
      <trkpt lat="59.9511133" lon="17.8175697">
        <ele>21.2864</ele>
        <time>2013-04-26T18:50:29Z</time>
      </trkpt>
      <trkpt lat="59.9510971" lon="17.8177225">
        <ele>21.2864</ele>
        <time>2013-04-26T18:50:30Z</time>
      </trkpt>
      <trkpt lat="59.951081" lon="17.8178772">
        <ele>21.2864</ele>
        <time>2013-04-26T18:50:31Z</time>
      </trkpt>
      <trkpt lat="59.951065" lon="17.818028">
        <ele>21.2864</ele>
        <time>2013-04-26T18:50:32Z</time>
      </trkpt>
      <trkpt lat="59.9510495" lon="17.8181763">
        <ele>20.8057</ele>
        <time>2013-04-26T18:50:33Z</time>
      </trkpt>
      <trkpt lat="59.9510334" lon="17.818326">
        <ele>20.325</ele>
        <time>2013-04-26T18:50:34Z</time>
      </trkpt>
      <trkpt lat="59.9510174" lon="17.8184777">
        <ele>20.325</ele>
        <time>2013-04-26T18:50:35Z</time>
      </trkpt>
      <trkpt lat="59.9510019" lon="17.8186286">
        <ele>20.325</ele>
        <time>2013-04-26T18:50:36Z</time>
      </trkpt>
      <trkpt lat="59.9509879" lon="17.8187848">
        <ele>19.8444</ele>
        <time>2013-04-26T18:50:37Z</time>
      </trkpt>
      <trkpt lat="59.9509763" lon="17.8189437">
        <ele>19.8444</ele>
        <time>2013-04-26T18:50:38Z</time>
      </trkpt>
      <trkpt lat="59.9509678" lon="17.8191038">
        <ele>19.3638</ele>
        <time>2013-04-26T18:50:39Z</time>
      </trkpt>
      <trkpt lat="59.9509634" lon="17.8192683">
        <ele>19.3638</ele>
        <time>2013-04-26T18:50:40Z</time>
      </trkpt>
      <trkpt lat="59.9509613" lon="17.819434">
        <ele>19.3638</ele>
        <time>2013-04-26T18:50:41Z</time>
      </trkpt>
      <trkpt lat="59.9509608" lon="17.8196086">
        <ele>19.3638</ele>
        <time>2013-04-26T18:50:42Z</time>
      </trkpt>
      <trkpt lat="59.9509589" lon="17.81978">
        <ele>19.3638</ele>
        <time>2013-04-26T18:50:43Z</time>
      </trkpt>
      <trkpt lat="59.9509552" lon="17.8199521">
        <ele>19.3638</ele>
        <time>2013-04-26T18:50:44Z</time>
      </trkpt>
      <trkpt lat="59.9509502" lon="17.8201245">
        <ele>19.3638</ele>
        <time>2013-04-26T18:50:45Z</time>
      </trkpt>
      <trkpt lat="59.9509428" lon="17.8202973">
        <ele>18.8831</ele>
        <time>2013-04-26T18:50:46Z</time>
      </trkpt>
      <trkpt lat="59.9509333" lon="17.8204699">
        <ele>18.8831</ele>
        <time>2013-04-26T18:50:47Z</time>
      </trkpt>
      <trkpt lat="59.9509222" lon="17.8206414">
        <ele>18.8831</ele>
        <time>2013-04-26T18:50:48Z</time>
      </trkpt>
      <trkpt lat="59.9509111" lon="17.8208112">
        <ele>18.8831</ele>
        <time>2013-04-26T18:50:49Z</time>
      </trkpt>
      <trkpt lat="59.9508993" lon="17.8209804">
        <ele>18.8831</ele>
        <time>2013-04-26T18:50:50Z</time>
      </trkpt>
      <trkpt lat="59.9508868" lon="17.8211513">
        <ele>18.8831</ele>
        <time>2013-04-26T18:50:51Z</time>
      </trkpt>
      <trkpt lat="59.9508734" lon="17.8213216">
        <ele>18.8831</ele>
        <time>2013-04-26T18:50:52Z</time>
      </trkpt>
      <trkpt lat="59.9508594" lon="17.8214895">
        <ele>18.8831</ele>
        <time>2013-04-26T18:50:53Z</time>
      </trkpt>
      <trkpt lat="59.9508453" lon="17.8216588">
        <ele>18.8831</ele>
        <time>2013-04-26T18:50:54Z</time>
      </trkpt>
      <trkpt lat="59.9508273" lon="17.8218251">
        <ele>18.8831</ele>
        <time>2013-04-26T18:50:55Z</time>
      </trkpt>
      <trkpt lat="59.9508051" lon="17.8219871">
        <ele>18.4023</ele>
        <time>2013-04-26T18:50:56Z</time>
      </trkpt>
      <trkpt lat="59.9507826" lon="17.822151">
        <ele>18.4023</ele>
        <time>2013-04-26T18:50:57Z</time>
      </trkpt>
      <trkpt lat="59.9507589" lon="17.8223096">
        <ele>17.9218</ele>
        <time>2013-04-26T18:50:58Z</time>
      </trkpt>
      <trkpt lat="59.9507368" lon="17.8224689">
        <ele>17.9218</ele>
        <time>2013-04-26T18:50:59Z</time>
      </trkpt>
      <trkpt lat="59.9507159" lon="17.8226247">
        <ele>17.4412</ele>
        <time>2013-04-26T18:51:00Z</time>
      </trkpt>
      <trkpt lat="59.9506981" lon="17.8227828">
        <ele>17.4412</ele>
        <time>2013-04-26T18:51:01Z</time>
      </trkpt>
      <trkpt lat="59.9506824" lon="17.8229404">
        <ele>16.9604</ele>
        <time>2013-04-26T18:51:02Z</time>
      </trkpt>
      <trkpt lat="59.9506706" lon="17.8231072">
        <ele>17.4412</ele>
        <time>2013-04-26T18:51:03Z</time>
      </trkpt>
      <trkpt lat="59.9506579" lon="17.8232699">
        <ele>17.4412</ele>
        <time>2013-04-26T18:51:04Z</time>
      </trkpt>
      <trkpt lat="59.9506424" lon="17.8234333">
        <ele>17.9218</ele>
        <time>2013-04-26T18:51:05Z</time>
      </trkpt>
      <trkpt lat="59.9506242" lon="17.8235945">
        <ele>18.4023</ele>
        <time>2013-04-26T18:51:06Z</time>
      </trkpt>
      <trkpt lat="59.9506031" lon="17.8237433">
        <ele>17.9218</ele>
        <time>2013-04-26T18:51:07Z</time>
      </trkpt>
      <trkpt lat="59.9505757" lon="17.8238811">
        <ele>16.9604</ele>
        <time>2013-04-26T18:51:08Z</time>
      </trkpt>
      <trkpt lat="59.950544" lon="17.8240162">
        <ele>15.999</ele>
        <time>2013-04-26T18:51:09Z</time>
      </trkpt>
      <trkpt lat="59.9505116" lon="17.8241593">
        <ele>15.999</ele>
        <time>2013-04-26T18:51:10Z</time>
      </trkpt>
      <trkpt lat="59.9504756" lon="17.8242906">
        <ele>14.557</ele>
        <time>2013-04-26T18:51:11Z</time>
      </trkpt>
      <trkpt lat="59.9504422" lon="17.8244385">
        <ele>14.557</ele>
        <time>2013-04-26T18:51:12Z</time>
      </trkpt>
      <trkpt lat="59.9504077" lon="17.8245871">
        <ele>14.557</ele>
        <time>2013-04-26T18:51:13Z</time>
      </trkpt>
      <trkpt lat="59.9503751" lon="17.8247388">
        <ele>14.557</ele>
        <time>2013-04-26T18:51:14Z</time>
      </trkpt>
      <trkpt lat="59.9503409" lon="17.8248815">
        <ele>14.0764</ele>
        <time>2013-04-26T18:51:15Z</time>
      </trkpt>
      <trkpt lat="59.9503056" lon="17.8250213">
        <ele>13.5958</ele>
        <time>2013-04-26T18:51:16Z</time>
      </trkpt>
      <trkpt lat="59.9502708" lon="17.8251648">
        <ele>13.5958</ele>
        <time>2013-04-26T18:51:17Z</time>
      </trkpt>
      <trkpt lat="59.9502345" lon="17.8253">
        <ele>12.6344</ele>
        <time>2013-04-26T18:51:18Z</time>
      </trkpt>
      <trkpt lat="59.9502005" lon="17.8254424">
        <ele>12.6344</ele>
        <time>2013-04-26T18:51:19Z</time>
      </trkpt>
      <trkpt lat="59.9501668" lon="17.8255872">
        <ele>12.6344</ele>
        <time>2013-04-26T18:51:20Z</time>
      </trkpt>
      <trkpt lat="59.9501332" lon="17.8257309">
        <ele>12.6344</ele>
        <time>2013-04-26T18:51:21Z</time>
      </trkpt>
      <trkpt lat="59.950101" lon="17.8258763">
        <ele>12.6344</ele>
        <time>2013-04-26T18:51:22Z</time>
      </trkpt>
      <trkpt lat="59.9500716" lon="17.8260252">
        <ele>12.6344</ele>
        <time>2013-04-26T18:51:23Z</time>
      </trkpt>
      <trkpt lat="59.9500462" lon="17.8261774">
        <ele>12.6344</ele>
        <time>2013-04-26T18:51:24Z</time>
      </trkpt>
      <trkpt lat="59.950026" lon="17.8263337">
        <ele>12.6344</ele>
        <time>2013-04-26T18:51:25Z</time>
      </trkpt>
      <trkpt lat="59.9500117" lon="17.8264951">
        <ele>13.1151</ele>
        <time>2013-04-26T18:51:26Z</time>
      </trkpt>
      <trkpt lat="59.9500011" lon="17.8266561">
        <ele>13.5958</ele>
        <time>2013-04-26T18:51:27Z</time>
      </trkpt>
      <trkpt lat="59.9499938" lon="17.8268155">
        <ele>14.0764</ele>
        <time>2013-04-26T18:51:28Z</time>
      </trkpt>
      <trkpt lat="59.9499889" lon="17.8269722">
        <ele>14.0764</ele>
        <time>2013-04-26T18:51:29Z</time>
      </trkpt>
      <trkpt lat="59.949986" lon="17.827129">
        <ele>14.557</ele>
        <time>2013-04-26T18:51:30Z</time>
      </trkpt>
      <trkpt lat="59.9499846" lon="17.8272865">
        <ele>15.0377</ele>
        <time>2013-04-26T18:51:31Z</time>
      </trkpt>
      <trkpt lat="59.9499853" lon="17.8274445">
        <ele>15.0377</ele>
        <time>2013-04-26T18:51:32Z</time>
      </trkpt>
      <trkpt lat="59.9499871" lon="17.8276015">
        <ele>15.5184</ele>
        <time>2013-04-26T18:51:33Z</time>
      </trkpt>
      <trkpt lat="59.9499893" lon="17.8277572">
        <ele>15.999</ele>
        <time>2013-04-26T18:51:34Z</time>
      </trkpt>
      <trkpt lat="59.9499913" lon="17.82791">
        <ele>15.999</ele>
        <time>2013-04-26T18:51:35Z</time>
      </trkpt>
      <trkpt lat="59.9499943" lon="17.8280625">
        <ele>16.4797</ele>
        <time>2013-04-26T18:51:36Z</time>
      </trkpt>
      <trkpt lat="59.9499975" lon="17.8282143">
        <ele>16.4797</ele>
        <time>2013-04-26T18:51:37Z</time>
      </trkpt>
      <trkpt lat="59.9500031" lon="17.8283641">
        <ele>16.9604</ele>
        <time>2013-04-26T18:51:38Z</time>
      </trkpt>
      <trkpt lat="59.9500097" lon="17.8285116">
        <ele>16.9604</ele>
        <time>2013-04-26T18:51:39Z</time>
      </trkpt>
      <trkpt lat="59.9500133" lon="17.828658">
        <ele>17.4412</ele>
        <time>2013-04-26T18:51:40Z</time>
      </trkpt>
      <trkpt lat="59.950014" lon="17.8288027">
        <ele>16.9604</ele>
        <time>2013-04-26T18:51:41Z</time>
      </trkpt>
      <trkpt lat="59.9500126" lon="17.8289462">
        <ele>16.9604</ele>
        <time>2013-04-26T18:51:42Z</time>
      </trkpt>
      <trkpt lat="59.9500089" lon="17.8290887">
        <ele>16.9604</ele>
        <time>2013-04-26T18:51:43Z</time>
      </trkpt>
      <trkpt lat="59.9500027" lon="17.8292301">
        <ele>17.4412</ele>
        <time>2013-04-26T18:51:44Z</time>
      </trkpt>
      <trkpt lat="59.9499942" lon="17.8293675">
        <ele>17.9218</ele>
        <time>2013-04-26T18:51:45Z</time>
      </trkpt>
      <trkpt lat="59.9499781" lon="17.8294969">
        <ele>18.4023</ele>
        <time>2013-04-26T18:51:46Z</time>
      </trkpt>
      <trkpt lat="59.9499488" lon="17.8296109">
        <ele>18.8831</ele>
        <time>2013-04-26T18:51:47Z</time>
      </trkpt>
      <trkpt lat="59.9499035" lon="17.8296973">
        <ele>18.8831</ele>
        <time>2013-04-26T18:51:48Z</time>
      </trkpt>
      <trkpt lat="59.9498446" lon="17.8297292">
        <ele>18.8831</ele>
        <time>2013-04-26T18:51:49Z</time>
      </trkpt>
      <trkpt lat="59.9497821" lon="17.8297072">
        <ele>18.8831</ele>
        <time>2013-04-26T18:51:50Z</time>
      </trkpt>
      <trkpt lat="59.9497269" lon="17.8296396">
        <ele>18.8831</ele>
        <time>2013-04-26T18:51:51Z</time>
      </trkpt>
      <trkpt lat="59.9496745" lon="17.8295518">
        <ele>18.8831</ele>
        <time>2013-04-26T18:51:52Z</time>
      </trkpt>
      <trkpt lat="59.9496206" lon="17.8294612">
        <ele>18.8831</ele>
        <time>2013-04-26T18:51:53Z</time>
      </trkpt>
      <trkpt lat="59.9495632" lon="17.8293705">
        <ele>18.8831</ele>
        <time>2013-04-26T18:51:54Z</time>
      </trkpt>
      <trkpt lat="59.9495038" lon="17.8292829">
        <ele>18.8831</ele>
        <time>2013-04-26T18:51:55Z</time>
      </trkpt>
      <trkpt lat="59.9494422" lon="17.8291958">
        <ele>18.8831</ele>
        <time>2013-04-26T18:51:56Z</time>
      </trkpt>
      <trkpt lat="59.9493767" lon="17.8291089">
        <ele>18.4023</ele>
        <time>2013-04-26T18:51:57Z</time>
      </trkpt>
      <trkpt lat="59.9493076" lon="17.8290238">
        <ele>18.4023</ele>
        <time>2013-04-26T18:51:58Z</time>
      </trkpt>
      <trkpt lat="59.9492369" lon="17.828941">
        <ele>18.4023</ele>
        <time>2013-04-26T18:51:59Z</time>
      </trkpt>
      <trkpt lat="59.9491646" lon="17.8288587">
        <ele>18.4023</ele>
        <time>2013-04-26T18:52:00Z</time>
      </trkpt>
      <trkpt lat="59.9490889" lon="17.828772">
        <ele>18.4023</ele>
        <time>2013-04-26T18:52:01Z</time>
      </trkpt>
      <trkpt lat="59.9490131" lon="17.8286851">
        <ele>18.4023</ele>
        <time>2013-04-26T18:52:02Z</time>
      </trkpt>
      <trkpt lat="59.948939" lon="17.8286027">
        <ele>19.3638</ele>
        <time>2013-04-26T18:52:03Z</time>
      </trkpt>
      <trkpt lat="59.9488641" lon="17.8285208">
        <ele>19.8444</ele>
        <time>2013-04-26T18:52:04Z</time>
      </trkpt>
      <trkpt lat="59.9487901" lon="17.8284405">
        <ele>19.8444</ele>
        <time>2013-04-26T18:52:05Z</time>
      </trkpt>
      <trkpt lat="59.9487169" lon="17.8283615">
        <ele>20.325</ele>
        <time>2013-04-26T18:52:06Z</time>
      </trkpt>
      <trkpt lat="59.948644" lon="17.8282826">
        <ele>20.8057</ele>
        <time>2013-04-26T18:52:07Z</time>
      </trkpt>
      <trkpt lat="59.9485712" lon="17.8282053">
        <ele>20.8057</ele>
        <time>2013-04-26T18:52:08Z</time>
      </trkpt>
      <trkpt lat="59.9484979" lon="17.8281296">
        <ele>20.8057</ele>
        <time>2013-04-26T18:52:09Z</time>
      </trkpt>
      <trkpt lat="59.9484249" lon="17.8280542">
        <ele>21.2864</ele>
        <time>2013-04-26T18:52:10Z</time>
      </trkpt>
      <trkpt lat="59.9483524" lon="17.8279778">
        <ele>21.2864</ele>
        <time>2013-04-26T18:52:11Z</time>
      </trkpt>
      <trkpt lat="59.9482792" lon="17.8278987">
        <ele>21.2864</ele>
        <time>2013-04-26T18:52:12Z</time>
      </trkpt>
      <trkpt lat="59.948205" lon="17.8278202">
        <ele>21.2864</ele>
        <time>2013-04-26T18:52:13Z</time>
      </trkpt>
      <trkpt lat="59.9481298" lon="17.8277444">
        <ele>21.2864</ele>
        <time>2013-04-26T18:52:14Z</time>
      </trkpt>
      <trkpt lat="59.9480554" lon="17.8276698">
        <ele>21.767</ele>
        <time>2013-04-26T18:52:15Z</time>
      </trkpt>
      <trkpt lat="59.9479804" lon="17.8275933">
        <ele>22.2476</ele>
        <time>2013-04-26T18:52:16Z</time>
      </trkpt>
      <trkpt lat="59.9479043" lon="17.8275135">
        <ele>22.2476</ele>
        <time>2013-04-26T18:52:17Z</time>
      </trkpt>
      <trkpt lat="59.9478286" lon="17.8274352">
        <ele>22.7283</ele>
        <time>2013-04-26T18:52:18Z</time>
      </trkpt>
      <trkpt lat="59.9477524" lon="17.8273576">
        <ele>22.7283</ele>
        <time>2013-04-26T18:52:19Z</time>
      </trkpt>
      <trkpt lat="59.9476764" lon="17.8272801">
        <ele>23.209</ele>
        <time>2013-04-26T18:52:20Z</time>
      </trkpt>
      <trkpt lat="59.9475985" lon="17.8271996">
        <ele>22.7283</ele>
        <time>2013-04-26T18:52:21Z</time>
      </trkpt>
      <trkpt lat="59.9475199" lon="17.8271187">
        <ele>22.2476</ele>
        <time>2013-04-26T18:52:22Z</time>
      </trkpt>
      <trkpt lat="59.9474409" lon="17.8270371">
        <ele>21.767</ele>
        <time>2013-04-26T18:52:23Z</time>
      </trkpt>
      <trkpt lat="59.9473619" lon="17.8269553">
        <ele>21.767</ele>
        <time>2013-04-26T18:52:24Z</time>
      </trkpt>
      <trkpt lat="59.9472831" lon="17.826875">
        <ele>21.2864</ele>
        <time>2013-04-26T18:52:25Z</time>
      </trkpt>
      <trkpt lat="59.9472043" lon="17.8267948">
        <ele>21.2864</ele>
        <time>2013-04-26T18:52:26Z</time>
      </trkpt>
      <trkpt lat="59.9471255" lon="17.8267129">
        <ele>21.2864</ele>
        <time>2013-04-26T18:52:27Z</time>
      </trkpt>
      <trkpt lat="59.9470469" lon="17.8266306">
        <ele>21.2864</ele>
        <time>2013-04-26T18:52:28Z</time>
      </trkpt>
      <trkpt lat="59.9469681" lon="17.8265474">
        <ele>21.2864</ele>
        <time>2013-04-26T18:52:29Z</time>
      </trkpt>
      <trkpt lat="59.9468897" lon="17.8264651">
        <ele>20.8057</ele>
        <time>2013-04-26T18:52:30Z</time>
      </trkpt>
      <trkpt lat="59.9468117" lon="17.8263842">
        <ele>20.8057</ele>
        <time>2013-04-26T18:52:31Z</time>
      </trkpt>
      <trkpt lat="59.9467349" lon="17.826304">
        <ele>20.8057</ele>
        <time>2013-04-26T18:52:32Z</time>
      </trkpt>
      <trkpt lat="59.9466582" lon="17.8262246">
        <ele>20.8057</ele>
        <time>2013-04-26T18:52:33Z</time>
      </trkpt>
      <trkpt lat="59.9465822" lon="17.8261473">
        <ele>21.2864</ele>
        <time>2013-04-26T18:52:34Z</time>
      </trkpt>
      <trkpt lat="59.9465072" lon="17.8260714">
        <ele>21.2864</ele>
        <time>2013-04-26T18:52:35Z</time>
      </trkpt>
      <trkpt lat="59.9464326" lon="17.825993">
        <ele>21.2864</ele>
        <time>2013-04-26T18:52:36Z</time>
      </trkpt>
      <trkpt lat="59.9463594" lon="17.8259146">
        <ele>21.2864</ele>
        <time>2013-04-26T18:52:37Z</time>
      </trkpt>
      <trkpt lat="59.9462864" lon="17.8258393">
        <ele>21.2864</ele>
        <time>2013-04-26T18:52:38Z</time>
      </trkpt>
      <trkpt lat="59.9462149" lon="17.8257656">
        <ele>21.767</ele>
        <time>2013-04-26T18:52:39Z</time>
      </trkpt>
      <trkpt lat="59.9461434" lon="17.8256901">
        <ele>21.767</ele>
        <time>2013-04-26T18:52:40Z</time>
      </trkpt>
      <trkpt lat="59.9460719" lon="17.8256157">
        <ele>22.2476</ele>
        <time>2013-04-26T18:52:41Z</time>
      </trkpt>
      <trkpt lat="59.9460009" lon="17.8255419">
        <ele>22.2476</ele>
        <time>2013-04-26T18:52:42Z</time>
      </trkpt>
      <trkpt lat="59.9459296" lon="17.8254679">
        <ele>22.2476</ele>
        <time>2013-04-26T18:52:43Z</time>
      </trkpt>
      <trkpt lat="59.9458585" lon="17.8253948">
        <ele>22.2476</ele>
        <time>2013-04-26T18:52:44Z</time>
      </trkpt>
      <trkpt lat="59.9457877" lon="17.8253227">
        <ele>22.2476</ele>
        <time>2013-04-26T18:52:45Z</time>
      </trkpt>
      <trkpt lat="59.9457174" lon="17.8252502">
        <ele>22.2476</ele>
        <time>2013-04-26T18:52:46Z</time>
      </trkpt>
      <trkpt lat="59.9456446" lon="17.8251742">
        <ele>21.767</ele>
        <time>2013-04-26T18:52:47Z</time>
      </trkpt>
      <trkpt lat="59.9455735" lon="17.8251005">
        <ele>21.2864</ele>
        <time>2013-04-26T18:52:48Z</time>
      </trkpt>
      <trkpt lat="59.9455036" lon="17.8250283">
        <ele>21.2864</ele>
        <time>2013-04-26T18:52:49Z</time>
      </trkpt>
      <trkpt lat="59.9454332" lon="17.8249554">
        <ele>21.767</ele>
        <time>2013-04-26T18:52:50Z</time>
      </trkpt>
      <trkpt lat="59.9453619" lon="17.8248824">
        <ele>21.767</ele>
        <time>2013-04-26T18:52:51Z</time>
      </trkpt>
      <trkpt lat="59.9452907" lon="17.8248083">
        <ele>21.2864</ele>
        <time>2013-04-26T18:52:52Z</time>
      </trkpt>
      <trkpt lat="59.9452207" lon="17.8247354">
        <ele>21.2864</ele>
        <time>2013-04-26T18:52:53Z</time>
      </trkpt>
      <trkpt lat="59.94515" lon="17.8246626">
        <ele>21.2864</ele>
        <time>2013-04-26T18:52:54Z</time>
      </trkpt>
      <trkpt lat="59.9450805" lon="17.8245899">
        <ele>21.2864</ele>
        <time>2013-04-26T18:52:55Z</time>
      </trkpt>
      <trkpt lat="59.9450085" lon="17.8245136">
        <ele>20.8057</ele>
        <time>2013-04-26T18:52:56Z</time>
      </trkpt>
      <trkpt lat="59.9449371" lon="17.8244399">
        <ele>20.325</ele>
        <time>2013-04-26T18:52:57Z</time>
      </trkpt>
      <trkpt lat="59.9448682" lon="17.8243684">
        <ele>20.325</ele>
        <time>2013-04-26T18:52:58Z</time>
      </trkpt>
      <trkpt lat="59.9447997" lon="17.8242928">
        <ele>19.8444</ele>
        <time>2013-04-26T18:52:59Z</time>
      </trkpt>
      <trkpt lat="59.9447337" lon="17.824223">
        <ele>20.8057</ele>
        <time>2013-04-26T18:53:00Z</time>
      </trkpt>
      <trkpt lat="59.9446687" lon="17.8241568">
        <ele>21.2864</ele>
        <time>2013-04-26T18:53:01Z</time>
      </trkpt>
      <trkpt lat="59.9446028" lon="17.8240888">
        <ele>21.767</ele>
        <time>2013-04-26T18:53:02Z</time>
      </trkpt>
      <trkpt lat="59.9445367" lon="17.8240195">
        <ele>22.2476</ele>
        <time>2013-04-26T18:53:03Z</time>
      </trkpt>
      <trkpt lat="59.9444708" lon="17.8239477">
        <ele>22.7283</ele>
        <time>2013-04-26T18:53:04Z</time>
      </trkpt>
      <trkpt lat="59.944404" lon="17.8238709">
        <ele>22.7283</ele>
        <time>2013-04-26T18:53:05Z</time>
      </trkpt>
      <trkpt lat="59.9443373" lon="17.8237885">
        <ele>22.7283</ele>
        <time>2013-04-26T18:53:06Z</time>
      </trkpt>
      <trkpt lat="59.9442725" lon="17.8237076">
        <ele>22.7283</ele>
        <time>2013-04-26T18:53:07Z</time>
      </trkpt>
      <trkpt lat="59.9442071" lon="17.8236263">
        <ele>22.7283</ele>
        <time>2013-04-26T18:53:08Z</time>
      </trkpt>
      <trkpt lat="59.9441413" lon="17.8235458">
        <ele>22.2476</ele>
        <time>2013-04-26T18:53:09Z</time>
      </trkpt>
      <trkpt lat="59.944075" lon="17.8234636">
        <ele>22.2476</ele>
        <time>2013-04-26T18:53:10Z</time>
      </trkpt>
      <trkpt lat="59.9440075" lon="17.8233802">
        <ele>21.767</ele>
        <time>2013-04-26T18:53:11Z</time>
      </trkpt>
      <trkpt lat="59.9439392" lon="17.8232952">
        <ele>21.767</ele>
        <time>2013-04-26T18:53:12Z</time>
      </trkpt>
      <trkpt lat="59.94387" lon="17.8232086">
        <ele>21.2864</ele>
        <time>2013-04-26T18:53:13Z</time>
      </trkpt>
      <trkpt lat="59.9437995" lon="17.8231202">
        <ele>21.2864</ele>
        <time>2013-04-26T18:53:14Z</time>
      </trkpt>
      <trkpt lat="59.9437276" lon="17.8230304">
        <ele>20.8057</ele>
        <time>2013-04-26T18:53:15Z</time>
      </trkpt>
      <trkpt lat="59.9436539" lon="17.8229394">
        <ele>20.8057</ele>
        <time>2013-04-26T18:53:16Z</time>
      </trkpt>
      <trkpt lat="59.9435787" lon="17.8228466">
        <ele>20.325</ele>
        <time>2013-04-26T18:53:17Z</time>
      </trkpt>
      <trkpt lat="59.9435024" lon="17.822752">
        <ele>20.325</ele>
        <time>2013-04-26T18:53:18Z</time>
      </trkpt>
      <trkpt lat="59.9434265" lon="17.8226572">
        <ele>20.325</ele>
        <time>2013-04-26T18:53:19Z</time>
      </trkpt>
      <trkpt lat="59.9433489" lon="17.8225631">
        <ele>19.8444</ele>
        <time>2013-04-26T18:53:20Z</time>
      </trkpt>
      <trkpt lat="59.9432693" lon="17.8224688">
        <ele>19.3638</ele>
        <time>2013-04-26T18:53:21Z</time>
      </trkpt>
      <trkpt lat="59.943188" lon="17.8223707">
        <ele>19.3638</ele>
        <time>2013-04-26T18:53:22Z</time>
      </trkpt>
      <trkpt lat="59.9431048" lon="17.8222685">
        <ele>18.8831</ele>
        <time>2013-04-26T18:53:23Z</time>
      </trkpt>
      <trkpt lat="59.9430203" lon="17.8221639">
        <ele>18.8831</ele>
        <time>2013-04-26T18:53:24Z</time>
      </trkpt>
      <trkpt lat="59.9429349" lon="17.8220586">
        <ele>18.4023</ele>
        <time>2013-04-26T18:53:25Z</time>
      </trkpt>
      <trkpt lat="59.9428498" lon="17.8219534">
        <ele>18.4023</ele>
        <time>2013-04-26T18:53:26Z</time>
      </trkpt>
      <trkpt lat="59.9427645" lon="17.8218467">
        <ele>18.4023</ele>
        <time>2013-04-26T18:53:27Z</time>
      </trkpt>
      <trkpt lat="59.9426789" lon="17.8217381">
        <ele>18.4023</ele>
        <time>2013-04-26T18:53:28Z</time>
      </trkpt>
      <trkpt lat="59.9425915" lon="17.8216293">
        <ele>17.9218</ele>
        <time>2013-04-26T18:53:29Z</time>
      </trkpt>
      <trkpt lat="59.9425032" lon="17.8215205">
        <ele>17.9218</ele>
        <time>2013-04-26T18:53:30Z</time>
      </trkpt>
      <trkpt lat="59.9424143" lon="17.8214095">
        <ele>17.9218</ele>
        <time>2013-04-26T18:53:31Z</time>
      </trkpt>
      <trkpt lat="59.9423242" lon="17.8212973">
        <ele>17.4412</ele>
        <time>2013-04-26T18:53:32Z</time>
      </trkpt>
      <trkpt lat="59.942233" lon="17.8211844">
        <ele>17.4412</ele>
        <time>2013-04-26T18:53:33Z</time>
      </trkpt>
      <trkpt lat="59.9421409" lon="17.8210714">
        <ele>16.9604</ele>
        <time>2013-04-26T18:53:34Z</time>
      </trkpt>
      <trkpt lat="59.9420479" lon="17.8209576">
        <ele>16.9604</ele>
        <time>2013-04-26T18:53:35Z</time>
      </trkpt>
      <trkpt lat="59.9419541" lon="17.820842">
        <ele>16.9604</ele>
        <time>2013-04-26T18:53:36Z</time>
      </trkpt>
      <trkpt lat="59.94186" lon="17.8207258">
        <ele>16.9604</ele>
        <time>2013-04-26T18:53:37Z</time>
      </trkpt>
      <trkpt lat="59.9417658" lon="17.8206087">
        <ele>16.9604</ele>
        <time>2013-04-26T18:53:38Z</time>
      </trkpt>
      <trkpt lat="59.9416719" lon="17.8204918">
        <ele>16.4797</ele>
        <time>2013-04-26T18:53:39Z</time>
      </trkpt>
      <trkpt lat="59.941578" lon="17.8203747">
        <ele>16.4797</ele>
        <time>2013-04-26T18:53:40Z</time>
      </trkpt>
      <trkpt lat="59.9414856" lon="17.820259">
        <ele>16.4797</ele>
        <time>2013-04-26T18:53:41Z</time>
      </trkpt>
      <trkpt lat="59.9413946" lon="17.8201463">
        <ele>16.9604</ele>
        <time>2013-04-26T18:53:42Z</time>
      </trkpt>
      <trkpt lat="59.9413058" lon="17.8200368">
        <ele>16.9604</ele>
        <time>2013-04-26T18:53:43Z</time>
      </trkpt>
      <trkpt lat="59.9412192" lon="17.8199282">
        <ele>17.4412</ele>
        <time>2013-04-26T18:53:44Z</time>
      </trkpt>
      <trkpt lat="59.9411343" lon="17.8198225">
        <ele>17.4412</ele>
        <time>2013-04-26T18:53:45Z</time>
      </trkpt>
      <trkpt lat="59.9410519" lon="17.8197208">
        <ele>17.9218</ele>
        <time>2013-04-26T18:53:46Z</time>
      </trkpt>
      <trkpt lat="59.9409727" lon="17.819622">
        <ele>18.4023</ele>
        <time>2013-04-26T18:53:47Z</time>
      </trkpt>
      <trkpt lat="59.9408959" lon="17.8195284">
        <ele>18.4023</ele>
        <time>2013-04-26T18:53:48Z</time>
      </trkpt>
      <trkpt lat="59.9408228" lon="17.8194382">
        <ele>18.8831</ele>
        <time>2013-04-26T18:53:49Z</time>
      </trkpt>
      <trkpt lat="59.9407534" lon="17.8193491">
        <ele>18.8831</ele>
        <time>2013-04-26T18:53:50Z</time>
      </trkpt>
      <trkpt lat="59.940686" lon="17.8192632">
        <ele>19.3638</ele>
        <time>2013-04-26T18:53:51Z</time>
      </trkpt>
      <trkpt lat="59.9406182" lon="17.8191779">
        <ele>19.3638</ele>
        <time>2013-04-26T18:53:52Z</time>
      </trkpt>
      <trkpt lat="59.9405526" lon="17.8190972">
        <ele>19.8444</ele>
        <time>2013-04-26T18:53:53Z</time>
      </trkpt>
      <trkpt lat="59.9404871" lon="17.8190184">
        <ele>19.8444</ele>
        <time>2013-04-26T18:53:54Z</time>
      </trkpt>
      <trkpt lat="59.940424" lon="17.8189459">
        <ele>19.8444</ele>
        <time>2013-04-26T18:53:55Z</time>
      </trkpt>
      <trkpt lat="59.940361" lon="17.8188891">
        <ele>20.8057</ele>
        <time>2013-04-26T18:53:56Z</time>
      </trkpt>
      <trkpt lat="59.940296" lon="17.8188347">
        <ele>20.8057</ele>
        <time>2013-04-26T18:53:57Z</time>
      </trkpt>
      <trkpt lat="59.9402322" lon="17.8187742">
        <ele>21.2864</ele>
        <time>2013-04-26T18:53:58Z</time>
      </trkpt>
      <trkpt lat="59.9401671" lon="17.8187154">
        <ele>21.767</ele>
        <time>2013-04-26T18:53:59Z</time>
      </trkpt>
      <trkpt lat="59.9400998" lon="17.818663">
        <ele>22.2476</ele>
        <time>2013-04-26T18:54:00Z</time>
      </trkpt>
      <trkpt lat="59.940031" lon="17.8186145">
        <ele>22.7283</ele>
        <time>2013-04-26T18:54:01Z</time>
      </trkpt>
      <trkpt lat="59.939961" lon="17.8185683">
        <ele>22.7283</ele>
        <time>2013-04-26T18:54:02Z</time>
      </trkpt>
      <trkpt lat="59.9398903" lon="17.8185285">
        <ele>23.209</ele>
        <time>2013-04-26T18:54:03Z</time>
      </trkpt>
      <trkpt lat="59.9398191" lon="17.8184963">
        <ele>23.6896</ele>
        <time>2013-04-26T18:54:04Z</time>
      </trkpt>
      <trkpt lat="59.9397474" lon="17.8184711">
        <ele>23.6896</ele>
        <time>2013-04-26T18:54:05Z</time>
      </trkpt>
      <trkpt lat="59.9396745" lon="17.818456">
        <ele>24.1703</ele>
        <time>2013-04-26T18:54:06Z</time>
      </trkpt>
      <trkpt lat="59.9396" lon="17.8184534">
        <ele>24.1703</ele>
        <time>2013-04-26T18:54:07Z</time>
      </trkpt>
      <trkpt lat="59.9395246" lon="17.8184643">
        <ele>24.651</ele>
        <time>2013-04-26T18:54:08Z</time>
      </trkpt>
      <trkpt lat="59.9394492" lon="17.8184916">
        <ele>25.1317</ele>
        <time>2013-04-26T18:54:09Z</time>
      </trkpt>
      <trkpt lat="59.9393746" lon="17.8185353">
        <ele>25.1317</ele>
        <time>2013-04-26T18:54:10Z</time>
      </trkpt>
      <trkpt lat="59.939301" lon="17.8185953">
        <ele>25.1317</ele>
        <time>2013-04-26T18:54:11Z</time>
      </trkpt>
      <trkpt lat="59.9392289" lon="17.8186685">
        <ele>25.1317</ele>
        <time>2013-04-26T18:54:12Z</time>
      </trkpt>
      <trkpt lat="59.9391592" lon="17.8187537">
        <ele>25.1317</ele>
        <time>2013-04-26T18:54:13Z</time>
      </trkpt>
      <trkpt lat="59.9390931" lon="17.8188485">
        <ele>25.1317</ele>
        <time>2013-04-26T18:54:14Z</time>
      </trkpt>
      <trkpt lat="59.9390307" lon="17.8189516">
        <ele>25.1317</ele>
        <time>2013-04-26T18:54:15Z</time>
      </trkpt>
      <trkpt lat="59.9389724" lon="17.8190621">
        <ele>25.1317</ele>
        <time>2013-04-26T18:54:16Z</time>
      </trkpt>
      <trkpt lat="59.9389161" lon="17.8191754">
        <ele>25.1317</ele>
        <time>2013-04-26T18:54:17Z</time>
      </trkpt>
      <trkpt lat="59.9388602" lon="17.8192884">
        <ele>24.651</ele>
        <time>2013-04-26T18:54:18Z</time>
      </trkpt>
      <trkpt lat="59.9388046" lon="17.8194008">
        <ele>24.651</ele>
        <time>2013-04-26T18:54:19Z</time>
      </trkpt>
      <trkpt lat="59.938749" lon="17.8195133">
        <ele>24.651</ele>
        <time>2013-04-26T18:54:20Z</time>
      </trkpt>
      <trkpt lat="59.9386948" lon="17.8196277">
        <ele>24.651</ele>
        <time>2013-04-26T18:54:21Z</time>
      </trkpt>
      <trkpt lat="59.9386416" lon="17.819749">
        <ele>24.651</ele>
        <time>2013-04-26T18:54:22Z</time>
      </trkpt>
      <trkpt lat="59.9385875" lon="17.8198676">
        <ele>24.1703</ele>
        <time>2013-04-26T18:54:23Z</time>
      </trkpt>
      <trkpt lat="59.9385321" lon="17.8199881">
        <ele>24.1703</ele>
        <time>2013-04-26T18:54:24Z</time>
      </trkpt>
      <trkpt lat="59.9384759" lon="17.8201103">
        <ele>23.6896</ele>
        <time>2013-04-26T18:54:25Z</time>
      </trkpt>
      <trkpt lat="59.9384195" lon="17.8202347">
        <ele>23.209</ele>
        <time>2013-04-26T18:54:26Z</time>
      </trkpt>
      <trkpt lat="59.9383619" lon="17.8203598">
        <ele>23.209</ele>
        <time>2013-04-26T18:54:27Z</time>
      </trkpt>
      <trkpt lat="59.9383035" lon="17.8204866">
        <ele>22.7283</ele>
        <time>2013-04-26T18:54:28Z</time>
      </trkpt>
      <trkpt lat="59.9382454" lon="17.8206164">
        <ele>22.7283</ele>
        <time>2013-04-26T18:54:29Z</time>
      </trkpt>
      <trkpt lat="59.9381863" lon="17.8207467">
        <ele>22.2476</ele>
        <time>2013-04-26T18:54:30Z</time>
      </trkpt>
      <trkpt lat="59.9381266" lon="17.8208776">
        <ele>22.2476</ele>
        <time>2013-04-26T18:54:31Z</time>
      </trkpt>
      <trkpt lat="59.9380661" lon="17.8210089">
        <ele>21.767</ele>
        <time>2013-04-26T18:54:32Z</time>
      </trkpt>
      <trkpt lat="59.9380048" lon="17.8211419">
        <ele>21.767</ele>
        <time>2013-04-26T18:54:33Z</time>
      </trkpt>
      <trkpt lat="59.9379432" lon="17.8212776">
        <ele>21.2864</ele>
        <time>2013-04-26T18:54:34Z</time>
      </trkpt>
      <trkpt lat="59.9378805" lon="17.8214128">
        <ele>21.2864</ele>
        <time>2013-04-26T18:54:35Z</time>
      </trkpt>
      <trkpt lat="59.937817" lon="17.8215471">
        <ele>21.2864</ele>
        <time>2013-04-26T18:54:36Z</time>
      </trkpt>
      <trkpt lat="59.9377558" lon="17.8216842">
        <ele>21.2864</ele>
        <time>2013-04-26T18:54:37Z</time>
      </trkpt>
      <trkpt lat="59.9376988" lon="17.8218236">
        <ele>21.2864</ele>
        <time>2013-04-26T18:54:38Z</time>
      </trkpt>
      <trkpt lat="59.9376458" lon="17.8219674">
        <ele>20.8057</ele>
        <time>2013-04-26T18:54:39Z</time>
      </trkpt>
      <trkpt lat="59.9375963" lon="17.8221164">
        <ele>20.8057</ele>
        <time>2013-04-26T18:54:40Z</time>
      </trkpt>
      <trkpt lat="59.9375512" lon="17.822269">
        <ele>20.8057</ele>
        <time>2013-04-26T18:54:41Z</time>
      </trkpt>
      <trkpt lat="59.9375093" lon="17.8224222">
        <ele>20.8057</ele>
        <time>2013-04-26T18:54:42Z</time>
      </trkpt>
      <trkpt lat="59.9374683" lon="17.8225722">
        <ele>20.8057</ele>
        <time>2013-04-26T18:54:43Z</time>
      </trkpt>
      <trkpt lat="59.9374263" lon="17.8227203">
        <ele>20.8057</ele>
        <time>2013-04-26T18:54:44Z</time>
      </trkpt>
      <trkpt lat="59.9373808" lon="17.8228632">
        <ele>20.8057</ele>
        <time>2013-04-26T18:54:45Z</time>
      </trkpt>
      <trkpt lat="59.9373322" lon="17.8230003">
        <ele>20.8057</ele>
        <time>2013-04-26T18:54:46Z</time>
      </trkpt>
      <trkpt lat="59.9372824" lon="17.8231352">
        <ele>20.8057</ele>
        <time>2013-04-26T18:54:47Z</time>
      </trkpt>
      <trkpt lat="59.937232" lon="17.8232688">
        <ele>20.8057</ele>
        <time>2013-04-26T18:54:48Z</time>
      </trkpt>
      <trkpt lat="59.9371813" lon="17.8234015">
        <ele>20.8057</ele>
        <time>2013-04-26T18:54:49Z</time>
      </trkpt>
      <trkpt lat="59.937131" lon="17.8235352">
        <ele>20.8057</ele>
        <time>2013-04-26T18:54:50Z</time>
      </trkpt>
      <trkpt lat="59.9370805" lon="17.8236688">
        <ele>21.2864</ele>
        <time>2013-04-26T18:54:51Z</time>
      </trkpt>
      <trkpt lat="59.9370305" lon="17.8238017">
        <ele>21.2864</ele>
        <time>2013-04-26T18:54:52Z</time>
      </trkpt>
      <trkpt lat="59.9369799" lon="17.8239335">
        <ele>21.2864</ele>
        <time>2013-04-26T18:54:53Z</time>
      </trkpt>
      <trkpt lat="59.9369273" lon="17.8240632">
        <ele>21.2864</ele>
        <time>2013-04-26T18:54:54Z</time>
      </trkpt>
      <trkpt lat="59.9368724" lon="17.8241924">
        <ele>21.2864</ele>
        <time>2013-04-26T18:54:55Z</time>
      </trkpt>
      <trkpt lat="59.936812" lon="17.8243147">
        <ele>21.2864</ele>
        <time>2013-04-26T18:54:56Z</time>
      </trkpt>
      <trkpt lat="59.9367468" lon="17.8244288">
        <ele>21.767</ele>
        <time>2013-04-26T18:54:57Z</time>
      </trkpt>
      <trkpt lat="59.9366778" lon="17.8245346">
        <ele>21.767</ele>
        <time>2013-04-26T18:54:58Z</time>
      </trkpt>
      <trkpt lat="59.9366047" lon="17.8246312">
        <ele>22.2476</ele>
        <time>2013-04-26T18:54:59Z</time>
      </trkpt>
      <trkpt lat="59.9365272" lon="17.8247142">
        <ele>22.2476</ele>
        <time>2013-04-26T18:55:00Z</time>
      </trkpt>
      <trkpt lat="59.9364407" lon="17.824783">
        <ele>22.7283</ele>
        <time>2013-04-26T18:55:01Z</time>
      </trkpt>
      <trkpt lat="59.9363546" lon="17.8248327">
        <ele>22.7283</ele>
        <time>2013-04-26T18:55:02Z</time>
      </trkpt>
      <trkpt lat="59.9362655" lon="17.8248881">
        <ele>22.7283</ele>
        <time>2013-04-26T18:55:03Z</time>
      </trkpt>
      <trkpt lat="59.9361774" lon="17.8249269">
        <ele>23.209</ele>
        <time>2013-04-26T18:55:04Z</time>
      </trkpt>
      <trkpt lat="59.9360863" lon="17.8249698">
        <ele>23.209</ele>
        <time>2013-04-26T18:55:05Z</time>
      </trkpt>
      <trkpt lat="59.9359952" lon="17.8250103">
        <ele>23.6896</ele>
        <time>2013-04-26T18:55:06Z</time>
      </trkpt>
      <trkpt lat="59.9359044" lon="17.8250512">
        <ele>23.6896</ele>
        <time>2013-04-26T18:55:07Z</time>
      </trkpt>
      <trkpt lat="59.9358136" lon="17.8250927">
        <ele>24.1703</ele>
        <time>2013-04-26T18:55:08Z</time>
      </trkpt>
      <trkpt lat="59.9357227" lon="17.8251337">
        <ele>24.1703</ele>
        <time>2013-04-26T18:55:09Z</time>
      </trkpt>
      <trkpt lat="59.935632" lon="17.8251757">
        <ele>24.651</ele>
        <time>2013-04-26T18:55:10Z</time>
      </trkpt>
      <trkpt lat="59.9355408" lon="17.8252176">
        <ele>24.651</ele>
        <time>2013-04-26T18:55:11Z</time>
      </trkpt>
      <trkpt lat="59.9354491" lon="17.8252607">
        <ele>25.1317</ele>
        <time>2013-04-26T18:55:12Z</time>
      </trkpt>
      <trkpt lat="59.935357" lon="17.825303">
        <ele>25.1317</ele>
        <time>2013-04-26T18:55:13Z</time>
      </trkpt>
      <trkpt lat="59.9352651" lon="17.825344">
        <ele>25.6123</ele>
        <time>2013-04-26T18:55:14Z</time>
      </trkpt>
      <trkpt lat="59.9351735" lon="17.8253854">
        <ele>25.6123</ele>
        <time>2013-04-26T18:55:15Z</time>
      </trkpt>
      <trkpt lat="59.9350825" lon="17.8254277">
        <ele>26.0929</ele>
        <time>2013-04-26T18:55:16Z</time>
      </trkpt>
      <trkpt lat="59.9349918" lon="17.8254691">
        <ele>26.0929</ele>
        <time>2013-04-26T18:55:17Z</time>
      </trkpt>
      <trkpt lat="59.9349016" lon="17.8255103">
        <ele>26.5736</ele>
        <time>2013-04-26T18:55:18Z</time>
      </trkpt>
      <trkpt lat="59.9348123" lon="17.8255527">
        <ele>26.5736</ele>
        <time>2013-04-26T18:55:19Z</time>
      </trkpt>
      <trkpt lat="59.9347234" lon="17.8255943">
        <ele>27.0543</ele>
        <time>2013-04-26T18:55:20Z</time>
      </trkpt>
      <trkpt lat="59.9346355" lon="17.8256354">
        <ele>27.0543</ele>
        <time>2013-04-26T18:55:21Z</time>
      </trkpt>
      <trkpt lat="59.9345487" lon="17.8256755">
        <ele>27.5349</ele>
        <time>2013-04-26T18:55:22Z</time>
      </trkpt>
      <trkpt lat="59.9344628" lon="17.8257148">
        <ele>27.5349</ele>
        <time>2013-04-26T18:55:23Z</time>
      </trkpt>
      <trkpt lat="59.9343779" lon="17.8257537">
        <ele>28.0155</ele>
        <time>2013-04-26T18:55:24Z</time>
      </trkpt>
      <trkpt lat="59.9342938" lon="17.8257921">
        <ele>28.0155</ele>
        <time>2013-04-26T18:55:25Z</time>
      </trkpt>
      <trkpt lat="59.9342102" lon="17.8258293">
        <ele>28.4962</ele>
        <time>2013-04-26T18:55:26Z</time>
      </trkpt>
      <trkpt lat="59.9341278" lon="17.8258656">
        <ele>28.4962</ele>
        <time>2013-04-26T18:55:27Z</time>
      </trkpt>
      <trkpt lat="59.9340469" lon="17.8259024">
        <ele>28.9769</ele>
        <time>2013-04-26T18:55:28Z</time>
      </trkpt>
      <trkpt lat="59.9339672" lon="17.8259392">
        <ele>29.4575</ele>
        <time>2013-04-26T18:55:29Z</time>
      </trkpt>
      <trkpt lat="59.9338887" lon="17.8259765">
        <ele>29.4575</ele>
        <time>2013-04-26T18:55:30Z</time>
      </trkpt>
      <trkpt lat="59.9338113" lon="17.8260159">
        <ele>29.9381</ele>
        <time>2013-04-26T18:55:31Z</time>
      </trkpt>
      <trkpt lat="59.9337348" lon="17.8260567">
        <ele>29.9381</ele>
        <time>2013-04-26T18:55:32Z</time>
      </trkpt>
      <trkpt lat="59.9336585" lon="17.8261013">
        <ele>29.9381</ele>
        <time>2013-04-26T18:55:33Z</time>
      </trkpt>
      <trkpt lat="59.9335823" lon="17.8261521">
        <ele>29.9381</ele>
        <time>2013-04-26T18:55:34Z</time>
      </trkpt>
      <trkpt lat="59.9335062" lon="17.8262101">
        <ele>30.4188</ele>
        <time>2013-04-26T18:55:35Z</time>
      </trkpt>
      <trkpt lat="59.9334298" lon="17.8262743">
        <ele>30.4188</ele>
        <time>2013-04-26T18:55:36Z</time>
      </trkpt>
      <trkpt lat="59.9333532" lon="17.8263436">
        <ele>29.9381</ele>
        <time>2013-04-26T18:55:37Z</time>
      </trkpt>
      <trkpt lat="59.9332774" lon="17.8264209">
        <ele>29.9381</ele>
        <time>2013-04-26T18:55:38Z</time>
      </trkpt>
      <trkpt lat="59.933202" lon="17.8265059">
        <ele>29.9381</ele>
        <time>2013-04-26T18:55:39Z</time>
      </trkpt>
      <trkpt lat="59.9331284" lon="17.8266013">
        <ele>29.9381</ele>
        <time>2013-04-26T18:55:40Z</time>
      </trkpt>
      <trkpt lat="59.9330569" lon="17.8267067">
        <ele>29.4575</ele>
        <time>2013-04-26T18:55:41Z</time>
      </trkpt>
      <trkpt lat="59.9329869" lon="17.8268162">
        <ele>29.4575</ele>
        <time>2013-04-26T18:55:42Z</time>
      </trkpt>
      <trkpt lat="59.9329179" lon="17.8269292">
        <ele>28.9769</ele>
        <time>2013-04-26T18:55:43Z</time>
      </trkpt>
      <trkpt lat="59.9328492" lon="17.8270447">
        <ele>28.9769</ele>
        <time>2013-04-26T18:55:44Z</time>
      </trkpt>
      <trkpt lat="59.9327809" lon="17.8271617">
        <ele>28.9769</ele>
        <time>2013-04-26T18:55:45Z</time>
      </trkpt>
      <trkpt lat="59.9327133" lon="17.8272786">
        <ele>28.9769</ele>
        <time>2013-04-26T18:55:46Z</time>
      </trkpt>
      <trkpt lat="59.9326465" lon="17.8273938">
        <ele>28.9769</ele>
        <time>2013-04-26T18:55:47Z</time>
      </trkpt>
      <trkpt lat="59.93258" lon="17.8275072">
        <ele>28.9769</ele>
        <time>2013-04-26T18:55:48Z</time>
      </trkpt>
      <trkpt lat="59.932515" lon="17.8276185">
        <ele>28.9769</ele>
        <time>2013-04-26T18:55:49Z</time>
      </trkpt>
      <trkpt lat="59.9324513" lon="17.827731">
        <ele>28.9769</ele>
        <time>2013-04-26T18:55:50Z</time>
      </trkpt>
      <trkpt lat="59.9323892" lon="17.8278438">
        <ele>28.9769</ele>
        <time>2013-04-26T18:55:51Z</time>
      </trkpt>
      <trkpt lat="59.9323286" lon="17.8279573">
        <ele>28.9769</ele>
        <time>2013-04-26T18:55:52Z</time>
      </trkpt>
      <trkpt lat="59.9322701" lon="17.8280749">
        <ele>28.9769</ele>
        <time>2013-04-26T18:55:53Z</time>
      </trkpt>
      <trkpt lat="59.9322135" lon="17.8281957">
        <ele>28.9769</ele>
        <time>2013-04-26T18:55:54Z</time>
      </trkpt>
      <trkpt lat="59.9321582" lon="17.8283189">
        <ele>28.9769</ele>
        <time>2013-04-26T18:55:55Z</time>
      </trkpt>
      <trkpt lat="59.9321052" lon="17.8284453">
        <ele>29.4575</ele>
        <time>2013-04-26T18:55:56Z</time>
      </trkpt>
      <trkpt lat="59.9320554" lon="17.8285753">
        <ele>29.4575</ele>
        <time>2013-04-26T18:55:57Z</time>
      </trkpt>
      <trkpt lat="59.9320095" lon="17.8287089">
        <ele>28.9769</ele>
        <time>2013-04-26T18:55:58Z</time>
      </trkpt>
      <trkpt lat="59.9319676" lon="17.8288451">
        <ele>28.9769</ele>
        <time>2013-04-26T18:55:59Z</time>
      </trkpt>
      <trkpt lat="59.9319294" lon="17.8289823">
        <ele>28.9769</ele>
        <time>2013-04-26T18:56:00Z</time>
      </trkpt>
      <trkpt lat="59.9318951" lon="17.8291197">
        <ele>29.4575</ele>
        <time>2013-04-26T18:56:01Z</time>
      </trkpt>
      <trkpt lat="59.931863" lon="17.8292578">
        <ele>29.9381</ele>
        <time>2013-04-26T18:56:02Z</time>
      </trkpt>
      <trkpt lat="59.9318298" lon="17.8293907">
        <ele>29.9381</ele>
        <time>2013-04-26T18:56:03Z</time>
      </trkpt>
      <trkpt lat="59.9317956" lon="17.8295196">
        <ele>29.9381</ele>
        <time>2013-04-26T18:56:04Z</time>
      </trkpt>
      <trkpt lat="59.9317619" lon="17.8296467">
        <ele>29.9381</ele>
        <time>2013-04-26T18:56:05Z</time>
      </trkpt>
      <trkpt lat="59.9317276" lon="17.8297697">
        <ele>30.4188</ele>
        <time>2013-04-26T18:56:06Z</time>
      </trkpt>
      <trkpt lat="59.9316936" lon="17.8298905">
        <ele>30.8995</ele>
        <time>2013-04-26T18:56:07Z</time>
      </trkpt>
      <trkpt lat="59.9316599" lon="17.8300148">
        <ele>30.8995</ele>
        <time>2013-04-26T18:56:08Z</time>
      </trkpt>
      <trkpt lat="59.9316267" lon="17.8301329">
        <ele>31.3801</ele>
        <time>2013-04-26T18:56:09Z</time>
      </trkpt>
      <trkpt lat="59.9315926" lon="17.8302464">
        <ele>31.3801</ele>
        <time>2013-04-26T18:56:10Z</time>
      </trkpt>
      <trkpt lat="59.9315589" lon="17.8303636">
        <ele>30.8995</ele>
        <time>2013-04-26T18:56:11Z</time>
      </trkpt>
      <trkpt lat="59.931522" lon="17.8304805">
        <ele>30.8995</ele>
        <time>2013-04-26T18:56:12Z</time>
      </trkpt>
      <trkpt lat="59.9314831" lon="17.8305956">
        <ele>30.4188</ele>
        <time>2013-04-26T18:56:13Z</time>
      </trkpt>
      <trkpt lat="59.9314418" lon="17.8307074">
        <ele>29.9381</ele>
        <time>2013-04-26T18:56:14Z</time>
      </trkpt>
      <trkpt lat="59.9313972" lon="17.8308162">
        <ele>29.4575</ele>
        <time>2013-04-26T18:56:15Z</time>
      </trkpt>
      <trkpt lat="59.931351" lon="17.830925">
        <ele>29.4575</ele>
        <time>2013-04-26T18:56:16Z</time>
      </trkpt>
      <trkpt lat="59.9313025" lon="17.8310321">
        <ele>28.9769</ele>
        <time>2013-04-26T18:56:17Z</time>
      </trkpt>
      <trkpt lat="59.931252" lon="17.8311379">
        <ele>28.9769</ele>
        <time>2013-04-26T18:56:18Z</time>
      </trkpt>
      <trkpt lat="59.9312003" lon="17.831242">
        <ele>28.4962</ele>
        <time>2013-04-26T18:56:19Z</time>
      </trkpt>
      <trkpt lat="59.9311477" lon="17.8313431">
        <ele>28.4962</ele>
        <time>2013-04-26T18:56:20Z</time>
      </trkpt>
      <trkpt lat="59.9310943" lon="17.8314423">
        <ele>28.4962</ele>
        <time>2013-04-26T18:56:21Z</time>
      </trkpt>
      <trkpt lat="59.9310396" lon="17.8315392">
        <ele>28.4962</ele>
        <time>2013-04-26T18:56:22Z</time>
      </trkpt>
      <trkpt lat="59.9309834" lon="17.8316331">
        <ele>28.4962</ele>
        <time>2013-04-26T18:56:23Z</time>
      </trkpt>
      <trkpt lat="59.9309257" lon="17.8317252">
        <ele>28.4962</ele>
        <time>2013-04-26T18:56:24Z</time>
      </trkpt>
      <trkpt lat="59.9308684" lon="17.8318175">
        <ele>28.9769</ele>
        <time>2013-04-26T18:56:25Z</time>
      </trkpt>
      <trkpt lat="59.9308098" lon="17.831908">
        <ele>29.4575</ele>
        <time>2013-04-26T18:56:26Z</time>
      </trkpt>
      <trkpt lat="59.9307523" lon="17.8320021">
        <ele>29.9381</ele>
        <time>2013-04-26T18:56:27Z</time>
      </trkpt>
      <trkpt lat="59.9306943" lon="17.8320957">
        <ele>30.4188</ele>
        <time>2013-04-26T18:56:28Z</time>
      </trkpt>
      <trkpt lat="59.9306343" lon="17.8321905">
        <ele>30.8995</ele>
        <time>2013-04-26T18:56:29Z</time>
      </trkpt>
      <trkpt lat="59.9305736" lon="17.8322813">
        <ele>31.3801</ele>
        <time>2013-04-26T18:56:30Z</time>
      </trkpt>
      <trkpt lat="59.9305123" lon="17.8323735">
        <ele>31.3801</ele>
        <time>2013-04-26T18:56:31Z</time>
      </trkpt>
      <trkpt lat="59.9304536" lon="17.8324763">
        <ele>32.3416</ele>
        <time>2013-04-26T18:56:32Z</time>
      </trkpt>
      <trkpt lat="59.9303929" lon="17.8325693">
        <ele>32.3416</ele>
        <time>2013-04-26T18:56:33Z</time>
      </trkpt>
      <trkpt lat="59.9303317" lon="17.8326658">
        <ele>32.3416</ele>
        <time>2013-04-26T18:56:34Z</time>
      </trkpt>
      <trkpt lat="59.9302696" lon="17.8327641">
        <ele>32.3416</ele>
        <time>2013-04-26T18:56:35Z</time>
      </trkpt>
      <trkpt lat="59.9302072" lon="17.832863">
        <ele>31.8607</ele>
        <time>2013-04-26T18:56:36Z</time>
      </trkpt>
      <trkpt lat="59.9301452" lon="17.8329668">
        <ele>31.8607</ele>
        <time>2013-04-26T18:56:37Z</time>
      </trkpt>
      <trkpt lat="59.9300818" lon="17.8330613">
        <ele>31.3801</ele>
        <time>2013-04-26T18:56:38Z</time>
      </trkpt>
      <trkpt lat="59.9300209" lon="17.8331592">
        <ele>31.3801</ele>
        <time>2013-04-26T18:56:39Z</time>
      </trkpt>
      <trkpt lat="59.9299596" lon="17.8332505">
        <ele>30.8995</ele>
        <time>2013-04-26T18:56:40Z</time>
      </trkpt>
      <trkpt lat="59.9298992" lon="17.8333453">
        <ele>30.4188</ele>
        <time>2013-04-26T18:56:41Z</time>
      </trkpt>
      <trkpt lat="59.929839" lon="17.8334383">
        <ele>30.4188</ele>
        <time>2013-04-26T18:56:42Z</time>
      </trkpt>
      <trkpt lat="59.9297785" lon="17.8335319">
        <ele>29.9381</ele>
        <time>2013-04-26T18:56:43Z</time>
      </trkpt>
      <trkpt lat="59.9297198" lon="17.8336295">
        <ele>29.9381</ele>
        <time>2013-04-26T18:56:44Z</time>
      </trkpt>
      <trkpt lat="59.9296605" lon="17.8337201">
        <ele>29.9381</ele>
        <time>2013-04-26T18:56:45Z</time>
      </trkpt>
      <trkpt lat="59.9296033" lon="17.833811">
        <ele>29.4575</ele>
        <time>2013-04-26T18:56:46Z</time>
      </trkpt>
      <trkpt lat="59.929546" lon="17.8339004">
        <ele>29.4575</ele>
        <time>2013-04-26T18:56:47Z</time>
      </trkpt>
      <trkpt lat="59.9294873" lon="17.8339878">
        <ele>29.4575</ele>
        <time>2013-04-26T18:56:48Z</time>
      </trkpt>
      <trkpt lat="59.9294272" lon="17.834075">
        <ele>28.9769</ele>
        <time>2013-04-26T18:56:49Z</time>
      </trkpt>
      <trkpt lat="59.9293657" lon="17.8341636">
        <ele>28.9769</ele>
        <time>2013-04-26T18:56:50Z</time>
      </trkpt>
      <trkpt lat="59.929303" lon="17.8342547">
        <ele>28.4962</ele>
        <time>2013-04-26T18:56:51Z</time>
      </trkpt>
      <trkpt lat="59.9292392" lon="17.8343478">
        <ele>28.4962</ele>
        <time>2013-04-26T18:56:52Z</time>
      </trkpt>
      <trkpt lat="59.9291733" lon="17.8344381">
        <ele>28.0155</ele>
        <time>2013-04-26T18:56:53Z</time>
      </trkpt>
      <trkpt lat="59.9291049" lon="17.8345243">
        <ele>28.0155</ele>
        <time>2013-04-26T18:56:54Z</time>
      </trkpt>
      <trkpt lat="59.9290345" lon="17.8346086">
        <ele>27.5349</ele>
        <time>2013-04-26T18:56:55Z</time>
      </trkpt>
      <trkpt lat="59.9289636" lon="17.8346925">
        <ele>27.5349</ele>
        <time>2013-04-26T18:56:56Z</time>
      </trkpt>
      <trkpt lat="59.9288925" lon="17.8347773">
        <ele>27.5349</ele>
        <time>2013-04-26T18:56:57Z</time>
      </trkpt>
      <trkpt lat="59.9288223" lon="17.8348671">
        <ele>27.0543</ele>
        <time>2013-04-26T18:56:58Z</time>
      </trkpt>
      <trkpt lat="59.9287534" lon="17.834962">
        <ele>27.0543</ele>
        <time>2013-04-26T18:56:59Z</time>
      </trkpt>
      <trkpt lat="59.9286858" lon="17.8350598">
        <ele>27.0543</ele>
        <time>2013-04-26T18:57:00Z</time>
      </trkpt>
      <trkpt lat="59.9286187" lon="17.8351587">
        <ele>27.0543</ele>
        <time>2013-04-26T18:57:01Z</time>
      </trkpt>
      <trkpt lat="59.9285521" lon="17.8352576">
        <ele>26.5736</ele>
        <time>2013-04-26T18:57:02Z</time>
      </trkpt>
      <trkpt lat="59.9284855" lon="17.8353565">
        <ele>26.5736</ele>
        <time>2013-04-26T18:57:03Z</time>
      </trkpt>
      <trkpt lat="59.9284196" lon="17.8354559">
        <ele>26.5736</ele>
        <time>2013-04-26T18:57:04Z</time>
      </trkpt>
      <trkpt lat="59.9283537" lon="17.8355539">
        <ele>26.5736</ele>
        <time>2013-04-26T18:57:05Z</time>
      </trkpt>
      <trkpt lat="59.9282878" lon="17.8356501">
        <ele>26.5736</ele>
        <time>2013-04-26T18:57:06Z</time>
      </trkpt>
      <trkpt lat="59.9282224" lon="17.8357442">
        <ele>26.5736</ele>
        <time>2013-04-26T18:57:07Z</time>
      </trkpt>
      <trkpt lat="59.9281574" lon="17.8358369">
        <ele>26.5736</ele>
        <time>2013-04-26T18:57:08Z</time>
      </trkpt>
      <trkpt lat="59.9280932" lon="17.8359303">
        <ele>26.5736</ele>
        <time>2013-04-26T18:57:09Z</time>
      </trkpt>
      <trkpt lat="59.92803" lon="17.8360259">
        <ele>26.5736</ele>
        <time>2013-04-26T18:57:10Z</time>
      </trkpt>
      <trkpt lat="59.9279673" lon="17.8361227">
        <ele>26.5736</ele>
        <time>2013-04-26T18:57:11Z</time>
      </trkpt>
      <trkpt lat="59.9279052" lon="17.8362205">
        <ele>26.5736</ele>
        <time>2013-04-26T18:57:12Z</time>
      </trkpt>
      <trkpt lat="59.9278442" lon="17.8363204">
        <ele>26.5736</ele>
        <time>2013-04-26T18:57:13Z</time>
      </trkpt>
      <trkpt lat="59.9277847" lon="17.836423">
        <ele>26.5736</ele>
        <time>2013-04-26T18:57:14Z</time>
      </trkpt>
      <trkpt lat="59.9277252" lon="17.8365126">
        <ele>26.5736</ele>
        <time>2013-04-26T18:57:15Z</time>
      </trkpt>
      <trkpt lat="59.9276661" lon="17.8365988">
        <ele>26.0929</ele>
        <time>2013-04-26T18:57:16Z</time>
      </trkpt>
      <trkpt lat="59.9276043" lon="17.8366837">
        <ele>25.6123</ele>
        <time>2013-04-26T18:57:17Z</time>
      </trkpt>
      <trkpt lat="59.9275408" lon="17.8367682">
        <ele>25.6123</ele>
        <time>2013-04-26T18:57:18Z</time>
      </trkpt>
      <trkpt lat="59.9274775" lon="17.8368501">
        <ele>25.1317</ele>
        <time>2013-04-26T18:57:19Z</time>
      </trkpt>
      <trkpt lat="59.9274105" lon="17.8369296">
        <ele>24.651</ele>
        <time>2013-04-26T18:57:20Z</time>
      </trkpt>
      <trkpt lat="59.9273418" lon="17.8370101">
        <ele>24.1703</ele>
        <time>2013-04-26T18:57:21Z</time>
      </trkpt>
      <trkpt lat="59.9272742" lon="17.8370957">
        <ele>23.6896</ele>
        <time>2013-04-26T18:57:22Z</time>
      </trkpt>
      <trkpt lat="59.9272066" lon="17.8371841">
        <ele>22.7283</ele>
        <time>2013-04-26T18:57:23Z</time>
      </trkpt>
      <trkpt lat="59.927139" lon="17.8372732">
        <ele>22.2476</ele>
        <time>2013-04-26T18:57:24Z</time>
      </trkpt>
      <trkpt lat="59.9270735" lon="17.8373642">
        <ele>22.2476</ele>
        <time>2013-04-26T18:57:25Z</time>
      </trkpt>
      <trkpt lat="59.927008" lon="17.8374544">
        <ele>22.2476</ele>
        <time>2013-04-26T18:57:26Z</time>
      </trkpt>
      <trkpt lat="59.9269375" lon="17.8375322">
        <ele>21.2864</ele>
        <time>2013-04-26T18:57:27Z</time>
      </trkpt>
      <trkpt lat="59.9268636" lon="17.8375996">
        <ele>20.8057</ele>
        <time>2013-04-26T18:57:28Z</time>
      </trkpt>
      <trkpt lat="59.9267859" lon="17.8376491">
        <ele>19.3638</ele>
        <time>2013-04-26T18:57:29Z</time>
      </trkpt>
      <trkpt lat="59.9267057" lon="17.8377095">
        <ele>18.8831</ele>
        <time>2013-04-26T18:57:30Z</time>
      </trkpt>
      <trkpt lat="59.926622" lon="17.837774">
        <ele>18.4023</ele>
        <time>2013-04-26T18:57:31Z</time>
      </trkpt>
      <trkpt lat="59.926541" lon="17.8378532">
        <ele>18.4023</ele>
        <time>2013-04-26T18:57:32Z</time>
      </trkpt>
      <trkpt lat="59.9264606" lon="17.8379495">
        <ele>17.9218</ele>
        <time>2013-04-26T18:57:33Z</time>
      </trkpt>
      <trkpt lat="59.9263871" lon="17.8380668">
        <ele>17.4412</ele>
        <time>2013-04-26T18:57:34Z</time>
      </trkpt>
      <trkpt lat="59.9263221" lon="17.8382067">
        <ele>17.4412</ele>
        <time>2013-04-26T18:57:35Z</time>
      </trkpt>
      <trkpt lat="59.926259" lon="17.8383593">
        <ele>17.4412</ele>
        <time>2013-04-26T18:57:36Z</time>
      </trkpt>
      <trkpt lat="59.9261944" lon="17.8385082">
        <ele>17.4412</ele>
        <time>2013-04-26T18:57:37Z</time>
      </trkpt>
      <trkpt lat="59.9261297" lon="17.8386575">
        <ele>17.4412</ele>
        <time>2013-04-26T18:57:38Z</time>
      </trkpt>
      <trkpt lat="59.9260647" lon="17.8388065">
        <ele>17.9218</ele>
        <time>2013-04-26T18:57:39Z</time>
      </trkpt>
      <trkpt lat="59.9259949" lon="17.8389467">
        <ele>16.9604</ele>
        <time>2013-04-26T18:57:40Z</time>
      </trkpt>
      <trkpt lat="59.9259234" lon="17.8390846">
        <ele>17.4412</ele>
        <time>2013-04-26T18:57:41Z</time>
      </trkpt>
      <trkpt lat="59.925843" lon="17.8391997">
        <ele>16.9604</ele>
        <time>2013-04-26T18:57:42Z</time>
      </trkpt>
      <trkpt lat="59.9257535" lon="17.8392865">
        <ele>15.999</ele>
        <time>2013-04-26T18:57:43Z</time>
      </trkpt>
      <trkpt lat="59.9256581" lon="17.8393348">
        <ele>15.0377</ele>
        <time>2013-04-26T18:57:44Z</time>
      </trkpt>
      <trkpt lat="59.9255627" lon="17.839354">
        <ele>15.5184</ele>
        <time>2013-04-26T18:57:45Z</time>
      </trkpt>
      <trkpt lat="59.9254681" lon="17.8393518">
        <ele>16.4797</ele>
        <time>2013-04-26T18:57:46Z</time>
      </trkpt>
      <trkpt lat="59.925375" lon="17.8393396">
        <ele>16.9604</ele>
        <time>2013-04-26T18:57:47Z</time>
      </trkpt>
      <trkpt lat="59.9252827" lon="17.8393274">
        <ele>16.9604</ele>
        <time>2013-04-26T18:57:48Z</time>
      </trkpt>
      <trkpt lat="59.9251909" lon="17.8393223">
        <ele>16.9604</ele>
        <time>2013-04-26T18:57:49Z</time>
      </trkpt>
      <trkpt lat="59.9250986" lon="17.8393226">
        <ele>16.4797</ele>
        <time>2013-04-26T18:57:50Z</time>
      </trkpt>
      <trkpt lat="59.925007" lon="17.8393266">
        <ele>16.4797</ele>
        <time>2013-04-26T18:57:51Z</time>
      </trkpt>
      <trkpt lat="59.924914" lon="17.83933">
        <ele>15.999</ele>
        <time>2013-04-26T18:57:52Z</time>
      </trkpt>
      <trkpt lat="59.9248211" lon="17.8393353">
        <ele>15.999</ele>
        <time>2013-04-26T18:57:53Z</time>
      </trkpt>
      <trkpt lat="59.9247289" lon="17.8393454">
        <ele>15.999</ele>
        <time>2013-04-26T18:57:54Z</time>
      </trkpt>
      <trkpt lat="59.9246362" lon="17.8393583">
        <ele>16.4797</ele>
        <time>2013-04-26T18:57:55Z</time>
      </trkpt>
      <trkpt lat="59.9245434" lon="17.8393757">
        <ele>16.4797</ele>
        <time>2013-04-26T18:57:56Z</time>
      </trkpt>
      <trkpt lat="59.9244497" lon="17.8393965">
        <ele>16.4797</ele>
        <time>2013-04-26T18:57:57Z</time>
      </trkpt>
      <trkpt lat="59.9243559" lon="17.8394205">
        <ele>16.4797</ele>
        <time>2013-04-26T18:57:58Z</time>
      </trkpt>
      <trkpt lat="59.9242615" lon="17.8394473">
        <ele>16.4797</ele>
        <time>2013-04-26T18:57:59Z</time>
      </trkpt>
      <trkpt lat="59.9241669" lon="17.8394782">
        <ele>15.999</ele>
        <time>2013-04-26T18:58:00Z</time>
      </trkpt>
      <trkpt lat="59.9240726" lon="17.8395124">
        <ele>15.999</ele>
        <time>2013-04-26T18:58:01Z</time>
      </trkpt>
      <trkpt lat="59.9239778" lon="17.8395483">
        <ele>15.999</ele>
        <time>2013-04-26T18:58:02Z</time>
      </trkpt>
      <trkpt lat="59.923883" lon="17.8395851">
        <ele>15.999</ele>
        <time>2013-04-26T18:58:03Z</time>
      </trkpt>
      <trkpt lat="59.9237887" lon="17.8396253">
        <ele>16.4797</ele>
        <time>2013-04-26T18:58:04Z</time>
      </trkpt>
      <trkpt lat="59.9236954" lon="17.8396686">
        <ele>16.4797</ele>
        <time>2013-04-26T18:58:05Z</time>
      </trkpt>
      <trkpt lat="59.9236021" lon="17.8397128">
        <ele>16.4797</ele>
        <time>2013-04-26T18:58:06Z</time>
      </trkpt>
      <trkpt lat="59.9235089" lon="17.8397567">
        <ele>16.4797</ele>
        <time>2013-04-26T18:58:07Z</time>
      </trkpt>
      <trkpt lat="59.9234156" lon="17.8398032">
        <ele>16.4797</ele>
        <time>2013-04-26T18:58:08Z</time>
      </trkpt>
      <trkpt lat="59.9233225" lon="17.8398529">
        <ele>16.4797</ele>
        <time>2013-04-26T18:58:09Z</time>
      </trkpt>
      <trkpt lat="59.9232293" lon="17.8399052">
        <ele>16.4797</ele>
        <time>2013-04-26T18:58:10Z</time>
      </trkpt>
      <trkpt lat="59.9231366" lon="17.8399596">
        <ele>16.4797</ele>
        <time>2013-04-26T18:58:11Z</time>
      </trkpt>
      <trkpt lat="59.9230444" lon="17.8400135">
        <ele>16.4797</ele>
        <time>2013-04-26T18:58:12Z</time>
      </trkpt>
      <trkpt lat="59.9229525" lon="17.8400661">
        <ele>16.4797</ele>
        <time>2013-04-26T18:58:13Z</time>
      </trkpt>
      <trkpt lat="59.922861" lon="17.8401187">
        <ele>16.9604</ele>
        <time>2013-04-26T18:58:14Z</time>
      </trkpt>
      <trkpt lat="59.9227691" lon="17.8401688">
        <ele>16.9604</ele>
        <time>2013-04-26T18:58:15Z</time>
      </trkpt>
      <trkpt lat="59.9226771" lon="17.8402175">
        <ele>16.9604</ele>
        <time>2013-04-26T18:58:16Z</time>
      </trkpt>
      <trkpt lat="59.9225843" lon="17.8402651">
        <ele>16.9604</ele>
        <time>2013-04-26T18:58:17Z</time>
      </trkpt>
      <trkpt lat="59.9224896" lon="17.8403103">
        <ele>16.9604</ele>
        <time>2013-04-26T18:58:18Z</time>
      </trkpt>
      <trkpt lat="59.9223949" lon="17.8403559">
        <ele>16.9604</ele>
        <time>2013-04-26T18:58:19Z</time>
      </trkpt>
      <trkpt lat="59.922299" lon="17.8403978">
        <ele>16.4797</ele>
        <time>2013-04-26T18:58:20Z</time>
      </trkpt>
      <trkpt lat="59.9222032" lon="17.8404352">
        <ele>16.4797</ele>
        <time>2013-04-26T18:58:21Z</time>
      </trkpt>
      <trkpt lat="59.9221068" lon="17.8404688">
        <ele>16.9604</ele>
        <time>2013-04-26T18:58:22Z</time>
      </trkpt>
      <trkpt lat="59.9220097" lon="17.8404992">
        <ele>16.9604</ele>
        <time>2013-04-26T18:58:23Z</time>
      </trkpt>
      <trkpt lat="59.9219116" lon="17.8405278">
        <ele>17.4412</ele>
        <time>2013-04-26T18:58:24Z</time>
      </trkpt>
      <trkpt lat="59.921813" lon="17.8405554">
        <ele>17.4412</ele>
        <time>2013-04-26T18:58:25Z</time>
      </trkpt>
      <trkpt lat="59.9217139" lon="17.8405826">
        <ele>17.4412</ele>
        <time>2013-04-26T18:58:26Z</time>
      </trkpt>
      <trkpt lat="59.9216141" lon="17.8406098">
        <ele>17.9218</ele>
        <time>2013-04-26T18:58:27Z</time>
      </trkpt>
      <trkpt lat="59.9215131" lon="17.8406357">
        <ele>17.4412</ele>
        <time>2013-04-26T18:58:28Z</time>
      </trkpt>
      <trkpt lat="59.9214121" lon="17.8406583">
        <ele>17.4412</ele>
        <time>2013-04-26T18:58:29Z</time>
      </trkpt>
      <trkpt lat="59.9213107" lon="17.8406755">
        <ele>17.4412</ele>
        <time>2013-04-26T18:58:30Z</time>
      </trkpt>
      <trkpt lat="59.9212095" lon="17.8406889">
        <ele>17.4412</ele>
        <time>2013-04-26T18:58:31Z</time>
      </trkpt>
      <trkpt lat="59.9211147" lon="17.8406838">
        <ele>17.4412</ele>
        <time>2013-04-26T18:58:32Z</time>
      </trkpt>
      <trkpt lat="59.921017" lon="17.8406826">
        <ele>17.4412</ele>
        <time>2013-04-26T18:58:33Z</time>
      </trkpt>
      <trkpt lat="59.9209191" lon="17.8406838">
        <ele>17.4412</ele>
        <time>2013-04-26T18:58:34Z</time>
      </trkpt>
      <trkpt lat="59.9208221" lon="17.8406903">
        <ele>17.4412</ele>
        <time>2013-04-26T18:58:35Z</time>
      </trkpt>
      <trkpt lat="59.9207257" lon="17.8406982">
        <ele>17.9218</ele>
        <time>2013-04-26T18:58:36Z</time>
      </trkpt>
      <trkpt lat="59.9206293" lon="17.8407018">
        <ele>17.9218</ele>
        <time>2013-04-26T18:58:37Z</time>
      </trkpt>
      <trkpt lat="59.9205309" lon="17.8407004">
        <ele>16.9604</ele>
        <time>2013-04-26T18:58:38Z</time>
      </trkpt>
      <trkpt lat="59.9204308" lon="17.8406972">
        <ele>16.4797</ele>
        <time>2013-04-26T18:58:39Z</time>
      </trkpt>
      <trkpt lat="59.9203362" lon="17.8406978">
        <ele>15.999</ele>
        <time>2013-04-26T18:58:40Z</time>
      </trkpt>
      <trkpt lat="59.9202419" lon="17.8407048">
        <ele>16.4797</ele>
        <time>2013-04-26T18:58:41Z</time>
      </trkpt>
      <trkpt lat="59.9201445" lon="17.8406967">
        <ele>15.999</ele>
        <time>2013-04-26T18:58:42Z</time>
      </trkpt>
      <trkpt lat="59.920049" lon="17.8407018">
        <ele>16.4797</ele>
        <time>2013-04-26T18:58:43Z</time>
      </trkpt>
      <trkpt lat="59.9199545" lon="17.8407117">
        <ele>16.9604</ele>
        <time>2013-04-26T18:58:44Z</time>
      </trkpt>
      <trkpt lat="59.9198617" lon="17.8407309">
        <ele>18.4023</ele>
        <time>2013-04-26T18:58:45Z</time>
      </trkpt>
      <trkpt lat="59.919767" lon="17.8407563">
        <ele>19.3638</ele>
        <time>2013-04-26T18:58:46Z</time>
      </trkpt>
      <trkpt lat="59.9196721" lon="17.8407947">
        <ele>19.8444</ele>
        <time>2013-04-26T18:58:47Z</time>
      </trkpt>
      <trkpt lat="59.9195764" lon="17.8408439">
        <ele>19.8444</ele>
        <time>2013-04-26T18:58:48Z</time>
      </trkpt>
      <trkpt lat="59.9194815" lon="17.8409025">
        <ele>20.325</ele>
        <time>2013-04-26T18:58:49Z</time>
      </trkpt>
      <trkpt lat="59.9193867" lon="17.8409646">
        <ele>20.325</ele>
        <time>2013-04-26T18:58:50Z</time>
      </trkpt>
      <trkpt lat="59.9192917" lon="17.8410288">
        <ele>20.8057</ele>
        <time>2013-04-26T18:58:51Z</time>
      </trkpt>
      <trkpt lat="59.9191967" lon="17.8410956">
        <ele>20.8057</ele>
        <time>2013-04-26T18:58:52Z</time>
      </trkpt>
      <trkpt lat="59.9191017" lon="17.8411634">
        <ele>20.8057</ele>
        <time>2013-04-26T18:58:53Z</time>
      </trkpt>
      <trkpt lat="59.9190071" lon="17.8412327">
        <ele>21.2864</ele>
        <time>2013-04-26T18:58:54Z</time>
      </trkpt>
      <trkpt lat="59.9189132" lon="17.8413028">
        <ele>21.2864</ele>
        <time>2013-04-26T18:58:55Z</time>
      </trkpt>
      <trkpt lat="59.9188195" lon="17.8413715">
        <ele>21.2864</ele>
        <time>2013-04-26T18:58:56Z</time>
      </trkpt>
      <trkpt lat="59.9187262" lon="17.8414404">
        <ele>21.2864</ele>
        <time>2013-04-26T18:58:57Z</time>
      </trkpt>
      <trkpt lat="59.918634" lon="17.8415137">
        <ele>21.2864</ele>
        <time>2013-04-26T18:58:58Z</time>
      </trkpt>
      <trkpt lat="59.9185433" lon="17.8415918">
        <ele>21.2864</ele>
        <time>2013-04-26T18:58:59Z</time>
      </trkpt>
      <trkpt lat="59.9184538" lon="17.8416735">
        <ele>21.2864</ele>
        <time>2013-04-26T18:59:00Z</time>
      </trkpt>
      <trkpt lat="59.9183658" lon="17.8417566">
        <ele>21.2864</ele>
        <time>2013-04-26T18:59:01Z</time>
      </trkpt>
      <trkpt lat="59.9182792" lon="17.8418384">
        <ele>21.767</ele>
        <time>2013-04-26T18:59:02Z</time>
      </trkpt>
      <trkpt lat="59.9181948" lon="17.8419207">
        <ele>21.767</ele>
        <time>2013-04-26T18:59:03Z</time>
      </trkpt>
      <trkpt lat="59.9181124" lon="17.8420031">
        <ele>21.767</ele>
        <time>2013-04-26T18:59:04Z</time>
      </trkpt>
      <trkpt lat="59.918032" lon="17.842084">
        <ele>21.767</ele>
        <time>2013-04-26T18:59:05Z</time>
      </trkpt>
      <trkpt lat="59.9179539" lon="17.8421695">
        <ele>21.767</ele>
        <time>2013-04-26T18:59:06Z</time>
      </trkpt>
      <trkpt lat="59.9178772" lon="17.8422534">
        <ele>22.2476</ele>
        <time>2013-04-26T18:59:07Z</time>
      </trkpt>
      <trkpt lat="59.9178011" lon="17.8423361">
        <ele>22.2476</ele>
        <time>2013-04-26T18:59:08Z</time>
      </trkpt>
      <trkpt lat="59.9177264" lon="17.8424175">
        <ele>22.2476</ele>
        <time>2013-04-26T18:59:09Z</time>
      </trkpt>
      <trkpt lat="59.9176522" lon="17.8424959">
        <ele>22.2476</ele>
        <time>2013-04-26T18:59:10Z</time>
      </trkpt>
      <trkpt lat="59.9175746" lon="17.8425669">
        <ele>21.767</ele>
        <time>2013-04-26T18:59:11Z</time>
      </trkpt>
      <trkpt lat="59.917495" lon="17.8426341">
        <ele>21.2864</ele>
        <time>2013-04-26T18:59:12Z</time>
      </trkpt>
      <trkpt lat="59.9174139" lon="17.8426989">
        <ele>21.2864</ele>
        <time>2013-04-26T18:59:13Z</time>
      </trkpt>
      <trkpt lat="59.9173323" lon="17.8427662">
        <ele>20.8057</ele>
        <time>2013-04-26T18:59:14Z</time>
      </trkpt>
      <trkpt lat="59.9172514" lon="17.8428351">
        <ele>20.325</ele>
        <time>2013-04-26T18:59:15Z</time>
      </trkpt>
      <trkpt lat="59.9171731" lon="17.8429081">
        <ele>20.325</ele>
        <time>2013-04-26T18:59:16Z</time>
      </trkpt>
      <trkpt lat="59.9170954" lon="17.8429799">
        <ele>20.325</ele>
        <time>2013-04-26T18:59:17Z</time>
      </trkpt>
      <trkpt lat="59.9170163" lon="17.8430294">
        <ele>19.8444</ele>
        <time>2013-04-26T18:59:18Z</time>
      </trkpt>
      <trkpt lat="59.916936" lon="17.8430465">
        <ele>19.3638</ele>
        <time>2013-04-26T18:59:19Z</time>
      </trkpt>
      <trkpt lat="59.9168572" lon="17.8430194">
        <ele>18.8831</ele>
        <time>2013-04-26T18:59:20Z</time>
      </trkpt>
      <trkpt lat="59.9167826" lon="17.842946">
        <ele>17.9218</ele>
        <time>2013-04-26T18:59:21Z</time>
      </trkpt>
      <trkpt lat="59.9167144" lon="17.8428452">
        <ele>17.4412</ele>
        <time>2013-04-26T18:59:22Z</time>
      </trkpt>
      <trkpt lat="59.9166481" lon="17.8427325">
        <ele>16.4797</ele>
        <time>2013-04-26T18:59:23Z</time>
      </trkpt>
      <trkpt lat="59.9165797" lon="17.8426175">
        <ele>15.999</ele>
        <time>2013-04-26T18:59:24Z</time>
      </trkpt>
      <trkpt lat="59.9165097" lon="17.8425015">
        <ele>15.5184</ele>
        <time>2013-04-26T18:59:25Z</time>
      </trkpt>
      <trkpt lat="59.9164383" lon="17.8423827">
        <ele>14.557</ele>
        <time>2013-04-26T18:59:26Z</time>
      </trkpt>
      <trkpt lat="59.9163667" lon="17.8422637">
        <ele>14.0764</ele>
        <time>2013-04-26T18:59:27Z</time>
      </trkpt>
      <trkpt lat="59.9162932" lon="17.8421402">
        <ele>13.5958</ele>
        <time>2013-04-26T18:59:28Z</time>
      </trkpt>
      <trkpt lat="59.9162122" lon="17.8420274">
        <ele>12.1538</ele>
        <time>2013-04-26T18:59:29Z</time>
      </trkpt>
      <trkpt lat="59.9161283" lon="17.8419394">
        <ele>11.6732</ele>
        <time>2013-04-26T18:59:30Z</time>
      </trkpt>
      <trkpt lat="59.9160368" lon="17.841873">
        <ele>11.6732</ele>
        <time>2013-04-26T18:59:31Z</time>
      </trkpt>
      <trkpt lat="59.9159414" lon="17.8418301">
        <ele>11.1925</ele>
        <time>2013-04-26T18:59:32Z</time>
      </trkpt>
      <trkpt lat="59.9158445" lon="17.8418089">
        <ele>11.1925</ele>
        <time>2013-04-26T18:59:33Z</time>
      </trkpt>
      <trkpt lat="59.9157434" lon="17.8418001">
        <ele>10.7118</ele>
        <time>2013-04-26T18:59:34Z</time>
      </trkpt>
      <trkpt lat="59.9156393" lon="17.8417938">
        <ele>10.2312</ele>
        <time>2013-04-26T18:59:35Z</time>
      </trkpt>
      <trkpt lat="59.9155342" lon="17.841785">
        <ele>10.2312</ele>
        <time>2013-04-26T18:59:36Z</time>
      </trkpt>
      <trkpt lat="59.9154326" lon="17.8417789">
        <ele>9.75061</ele>
        <time>2013-04-26T18:59:37Z</time>
      </trkpt>
      <trkpt lat="59.9153296" lon="17.8417726">
        <ele>9.2699</ele>
        <time>2013-04-26T18:59:38Z</time>
      </trkpt>
      <trkpt lat="59.9152277" lon="17.8417758">
        <ele>8.78918</ele>
        <time>2013-04-26T18:59:39Z</time>
      </trkpt>
      <trkpt lat="59.9151258" lon="17.8417954">
        <ele>8.78918</ele>
        <time>2013-04-26T18:59:40Z</time>
      </trkpt>
      <trkpt lat="59.9150224" lon="17.841828">
        <ele>8.78918</ele>
        <time>2013-04-26T18:59:41Z</time>
      </trkpt>
      <trkpt lat="59.9149197" lon="17.8418711">
        <ele>8.78918</ele>
        <time>2013-04-26T18:59:42Z</time>
      </trkpt>
      <trkpt lat="59.9148189" lon="17.8419255">
        <ele>8.78918</ele>
        <time>2013-04-26T18:59:43Z</time>
      </trkpt>
      <trkpt lat="59.914722" lon="17.8419902">
        <ele>8.78918</ele>
        <time>2013-04-26T18:59:44Z</time>
      </trkpt>
      <trkpt lat="59.914626" lon="17.8420638">
        <ele>8.78918</ele>
        <time>2013-04-26T18:59:45Z</time>
      </trkpt>
      <trkpt lat="59.914531" lon="17.8421472">
        <ele>9.2699</ele>
        <time>2013-04-26T18:59:46Z</time>
      </trkpt>
      <trkpt lat="59.9144412" lon="17.8422433">
        <ele>9.2699</ele>
        <time>2013-04-26T18:59:47Z</time>
      </trkpt>
      <trkpt lat="59.9143563" lon="17.8423488">
        <ele>9.2699</ele>
        <time>2013-04-26T18:59:48Z</time>
      </trkpt>
      <trkpt lat="59.9142713" lon="17.8424559">
        <ele>9.75061</ele>
        <time>2013-04-26T18:59:49Z</time>
      </trkpt>
      <trkpt lat="59.9141837" lon="17.8425569">
        <ele>9.75061</ele>
        <time>2013-04-26T18:59:50Z</time>
      </trkpt>
      <trkpt lat="59.9140951" lon="17.8426528">
        <ele>9.75061</ele>
        <time>2013-04-26T18:59:51Z</time>
      </trkpt>
      <trkpt lat="59.9140061" lon="17.842745">
        <ele>9.75061</ele>
        <time>2013-04-26T18:59:52Z</time>
      </trkpt>
      <trkpt lat="59.9139166" lon="17.8428321">
        <ele>9.75061</ele>
        <time>2013-04-26T18:59:53Z</time>
      </trkpt>
      <trkpt lat="59.9138277" lon="17.8429159">
        <ele>10.2312</ele>
        <time>2013-04-26T18:59:54Z</time>
      </trkpt>
      <trkpt lat="59.9137389" lon="17.8429972">
        <ele>10.2312</ele>
        <time>2013-04-26T18:59:55Z</time>
      </trkpt>
      <trkpt lat="59.9136492" lon="17.8430745">
        <ele>10.2312</ele>
        <time>2013-04-26T18:59:56Z</time>
      </trkpt>
      <trkpt lat="59.9135579" lon="17.8431406">
        <ele>10.7118</ele>
        <time>2013-04-26T18:59:57Z</time>
      </trkpt>
      <trkpt lat="59.9134652" lon="17.843195">
        <ele>10.7118</ele>
        <time>2013-04-26T18:59:58Z</time>
      </trkpt>
      <trkpt lat="59.9133711" lon="17.84324">
        <ele>11.1925</ele>
        <time>2013-04-26T18:59:59Z</time>
      </trkpt>
      <trkpt lat="59.9132769" lon="17.8432775">
        <ele>11.1925</ele>
        <time>2013-04-26T19:00:00Z</time>
      </trkpt>
      <trkpt lat="59.9131833" lon="17.8433033">
        <ele>11.1925</ele>
        <time>2013-04-26T19:00:01Z</time>
      </trkpt>
      <trkpt lat="59.9130904" lon="17.8433254">
        <ele>11.6732</ele>
        <time>2013-04-26T19:00:02Z</time>
      </trkpt>
      <trkpt lat="59.9129997" lon="17.8433475">
        <ele>12.1538</ele>
        <time>2013-04-26T19:00:03Z</time>
      </trkpt>
      <trkpt lat="59.9129116" lon="17.8433732">
        <ele>12.6344</ele>
        <time>2013-04-26T19:00:04Z</time>
      </trkpt>
      <trkpt lat="59.9128271" lon="17.8434048">
        <ele>12.6344</ele>
        <time>2013-04-26T19:00:05Z</time>
      </trkpt>
      <trkpt lat="59.9127458" lon="17.8434438">
        <ele>13.1151</ele>
        <time>2013-04-26T19:00:06Z</time>
      </trkpt>
      <trkpt lat="59.9126672" lon="17.8434892">
        <ele>13.5958</ele>
        <time>2013-04-26T19:00:07Z</time>
      </trkpt>
      <trkpt lat="59.9125918" lon="17.8435437">
        <ele>14.0764</ele>
        <time>2013-04-26T19:00:08Z</time>
      </trkpt>
      <trkpt lat="59.9125192" lon="17.843609">
        <ele>14.0764</ele>
        <time>2013-04-26T19:00:09Z</time>
      </trkpt>
      <trkpt lat="59.9124484" lon="17.8436836">
        <ele>14.557</ele>
        <time>2013-04-26T19:00:10Z</time>
      </trkpt>
      <trkpt lat="59.9123785" lon="17.8437596">
        <ele>15.0377</ele>
        <time>2013-04-26T19:00:11Z</time>
      </trkpt>
      <trkpt lat="59.9123082" lon="17.8438391">
        <ele>15.0377</ele>
        <time>2013-04-26T19:00:12Z</time>
      </trkpt>
      <trkpt lat="59.9122367" lon="17.8439197">
        <ele>15.0377</ele>
        <time>2013-04-26T19:00:13Z</time>
      </trkpt>
      <trkpt lat="59.9121624" lon="17.8439975">
        <ele>15.0377</ele>
        <time>2013-04-26T19:00:14Z</time>
      </trkpt>
      <trkpt lat="59.9120846" lon="17.8440726">
        <ele>15.0377</ele>
        <time>2013-04-26T19:00:15Z</time>
      </trkpt>
      <trkpt lat="59.9120036" lon="17.8441415">
        <ele>15.0377</ele>
        <time>2013-04-26T19:00:16Z</time>
      </trkpt>
      <trkpt lat="59.911919" lon="17.8441991">
        <ele>15.0377</ele>
        <time>2013-04-26T19:00:17Z</time>
      </trkpt>
      <trkpt lat="59.91183" lon="17.8442425">
        <ele>14.557</ele>
        <time>2013-04-26T19:00:18Z</time>
      </trkpt>
      <trkpt lat="59.9117402" lon="17.8442732">
        <ele>14.557</ele>
        <time>2013-04-26T19:00:19Z</time>
      </trkpt>
      <trkpt lat="59.9116486" lon="17.8442954">
        <ele>14.557</ele>
        <time>2013-04-26T19:00:20Z</time>
      </trkpt>
      <trkpt lat="59.9115564" lon="17.8443031">
        <ele>14.557</ele>
        <time>2013-04-26T19:00:21Z</time>
      </trkpt>
      <trkpt lat="59.9114654" lon="17.8443047">
        <ele>15.0377</ele>
        <time>2013-04-26T19:00:22Z</time>
      </trkpt>
      <trkpt lat="59.9113735" lon="17.8443027">
        <ele>15.0377</ele>
        <time>2013-04-26T19:00:23Z</time>
      </trkpt>
      <trkpt lat="59.9112814" lon="17.844297">
        <ele>15.0377</ele>
        <time>2013-04-26T19:00:24Z</time>
      </trkpt>
      <trkpt lat="59.9111884" lon="17.8442803">
        <ele>15.0377</ele>
        <time>2013-04-26T19:00:25Z</time>
      </trkpt>
      <trkpt lat="59.9110954" lon="17.844257">
        <ele>15.0377</ele>
        <time>2013-04-26T19:00:26Z</time>
      </trkpt>
      <trkpt lat="59.9110032" lon="17.8442214">
        <ele>14.557</ele>
        <time>2013-04-26T19:00:27Z</time>
      </trkpt>
      <trkpt lat="59.9109149" lon="17.8441659">
        <ele>14.557</ele>
        <time>2013-04-26T19:00:28Z</time>
      </trkpt>
      <trkpt lat="59.9108311" lon="17.8440964">
        <ele>14.557</ele>
        <time>2013-04-26T19:00:29Z</time>
      </trkpt>
      <trkpt lat="59.9107535" lon="17.8440277">
        <ele>14.0764</ele>
        <time>2013-04-26T19:00:30Z</time>
      </trkpt>
      <trkpt lat="59.9106827" lon="17.8439641">
        <ele>14.557</ele>
        <time>2013-04-26T19:00:31Z</time>
      </trkpt>
      <trkpt lat="59.9106104" lon="17.8438981">
        <ele>14.557</ele>
        <time>2013-04-26T19:00:32Z</time>
      </trkpt>
      <trkpt lat="59.9105448" lon="17.8438472">
        <ele>15.0377</ele>
        <time>2013-04-26T19:00:33Z</time>
      </trkpt>
      <trkpt lat="59.9104684" lon="17.8437934">
        <ele>14.557</ele>
        <time>2013-04-26T19:00:34Z</time>
      </trkpt>
      <trkpt lat="59.9103926" lon="17.8437375">
        <ele>14.0764</ele>
        <time>2013-04-26T19:00:35Z</time>
      </trkpt>
      <trkpt lat="59.9103241" lon="17.8436845">
        <ele>13.5958</ele>
        <time>2013-04-26T19:00:36Z</time>
      </trkpt>
      <trkpt lat="59.9102609" lon="17.8436349">
        <ele>14.0764</ele>
        <time>2013-04-26T19:00:37Z</time>
      </trkpt>
      <trkpt lat="59.9101905" lon="17.8435723">
        <ele>13.5958</ele>
        <time>2013-04-26T19:00:38Z</time>
      </trkpt>
      <trkpt lat="59.9101199" lon="17.8435102">
        <ele>13.5958</ele>
        <time>2013-04-26T19:00:39Z</time>
      </trkpt>
      <trkpt lat="59.910048" lon="17.8434496">
        <ele>13.1151</ele>
        <time>2013-04-26T19:00:40Z</time>
      </trkpt>
      <trkpt lat="59.909964" lon="17.843322">
        <ele>12.1538</ele>
        <time>2013-04-26T19:00:41Z</time>
      </trkpt>
      <trkpt lat="59.909876" lon="17.8432283">
        <ele>12.1538</ele>
        <time>2013-04-26T19:00:42Z</time>
      </trkpt>
      <trkpt lat="59.9097963" lon="17.8431381">
        <ele>13.5958</ele>
        <time>2013-04-26T19:00:43Z</time>
      </trkpt>
      <trkpt lat="59.9097242" lon="17.8430693">
        <ele>13.5958</ele>
        <time>2013-04-26T19:00:44Z</time>
      </trkpt>
      <trkpt lat="59.9096657" lon="17.8429827">
        <ele>13.5958</ele>
        <time>2013-04-26T19:00:45Z</time>
      </trkpt>
      <trkpt lat="59.9096143" lon="17.842893">
        <ele>13.1151</ele>
        <time>2013-04-26T19:00:46Z</time>
      </trkpt>
      <trkpt lat="59.9095792" lon="17.8427538">
        <ele>13.1151</ele>
        <time>2013-04-26T19:00:47Z</time>
      </trkpt>
      <trkpt lat="59.9095673" lon="17.8425997">
        <ele>12.6344</ele>
        <time>2013-04-26T19:00:48Z</time>
      </trkpt>
      <trkpt lat="59.9095751" lon="17.8424438">
        <ele>12.6344</ele>
        <time>2013-04-26T19:00:49Z</time>
      </trkpt>
      <trkpt lat="59.9095927" lon="17.8422993">
        <ele>12.6344</ele>
        <time>2013-04-26T19:00:50Z</time>
      </trkpt>
      <trkpt lat="59.9096102" lon="17.8421543">
        <ele>12.1538</ele>
        <time>2013-04-26T19:00:51Z</time>
      </trkpt>
      <trkpt lat="59.9096259" lon="17.8420021">
        <ele>11.6732</ele>
        <time>2013-04-26T19:00:52Z</time>
      </trkpt>
      <trkpt lat="59.9096363" lon="17.8418419">
        <ele>11.6732</ele>
        <time>2013-04-26T19:00:53Z</time>
      </trkpt>
      <trkpt lat="59.9096398" lon="17.8416731">
        <ele>11.6732</ele>
        <time>2013-04-26T19:00:54Z</time>
      </trkpt>
      <trkpt lat="59.9096353" lon="17.8414991">
        <ele>11.1925</ele>
        <time>2013-04-26T19:00:55Z</time>
      </trkpt>
      <trkpt lat="59.9096249" lon="17.8413245">
        <ele>11.1925</ele>
        <time>2013-04-26T19:00:56Z</time>
      </trkpt>
      <trkpt lat="59.9096104" lon="17.8411524">
        <ele>10.7118</ele>
        <time>2013-04-26T19:00:57Z</time>
      </trkpt>
      <trkpt lat="59.9095919" lon="17.8409848">
        <ele>10.2312</ele>
        <time>2013-04-26T19:00:58Z</time>
      </trkpt>
      <trkpt lat="59.9095657" lon="17.8408272">
        <ele>10.2312</ele>
        <time>2013-04-26T19:00:59Z</time>
      </trkpt>
      <trkpt lat="59.9095284" lon="17.840677">
        <ele>10.2312</ele>
        <time>2013-04-26T19:01:00Z</time>
      </trkpt>
      <trkpt lat="59.9094866" lon="17.8405357">
        <ele>10.2312</ele>
        <time>2013-04-26T19:01:01Z</time>
      </trkpt>
      <trkpt lat="59.9094374" lon="17.8403984">
        <ele>10.2312</ele>
        <time>2013-04-26T19:01:02Z</time>
      </trkpt>
      <trkpt lat="59.9093878" lon="17.840262">
        <ele>10.2312</ele>
        <time>2013-04-26T19:01:03Z</time>
      </trkpt>
      <trkpt lat="59.9093357" lon="17.8401298">
        <ele>10.2312</ele>
        <time>2013-04-26T19:01:04Z</time>
      </trkpt>
      <trkpt lat="59.909287" lon="17.8399993">
        <ele>10.7118</ele>
        <time>2013-04-26T19:01:05Z</time>
      </trkpt>
      <trkpt lat="59.9092392" lon="17.8398699">
        <ele>10.7118</ele>
        <time>2013-04-26T19:01:06Z</time>
      </trkpt>
      <trkpt lat="59.9091924" lon="17.8397452">
        <ele>11.1925</ele>
        <time>2013-04-26T19:01:07Z</time>
      </trkpt>
      <trkpt lat="59.9091508" lon="17.839628">
        <ele>11.1925</ele>
        <time>2013-04-26T19:01:08Z</time>
      </trkpt>
      <trkpt lat="59.909112" lon="17.8395173">
        <ele>11.6732</ele>
        <time>2013-04-26T19:01:09Z</time>
      </trkpt>
      <trkpt lat="59.9090717" lon="17.8394117">
        <ele>12.1538</ele>
        <time>2013-04-26T19:01:10Z</time>
      </trkpt>
      <trkpt lat="59.9090347" lon="17.8393147">
        <ele>12.6344</ele>
        <time>2013-04-26T19:01:11Z</time>
      </trkpt>
      <trkpt lat="59.9089964" lon="17.8392184">
        <ele>12.6344</ele>
        <time>2013-04-26T19:01:12Z</time>
      </trkpt>
      <trkpt lat="59.9089561" lon="17.8391228">
        <ele>12.1538</ele>
        <time>2013-04-26T19:01:13Z</time>
      </trkpt>
      <trkpt lat="59.9089168" lon="17.8390308">
        <ele>12.6344</ele>
        <time>2013-04-26T19:01:14Z</time>
      </trkpt>
      <trkpt lat="59.9088714" lon="17.8389431">
        <ele>12.6344</ele>
        <time>2013-04-26T19:01:15Z</time>
      </trkpt>
      <trkpt lat="59.9088281" lon="17.8388692">
        <ele>12.6344</ele>
        <time>2013-04-26T19:01:16Z</time>
      </trkpt>
      <trkpt lat="59.9087787" lon="17.8388118">
        <ele>12.6344</ele>
        <time>2013-04-26T19:01:17Z</time>
      </trkpt>
      <trkpt lat="59.9087302" lon="17.83876">
        <ele>12.6344</ele>
        <time>2013-04-26T19:01:18Z</time>
      </trkpt>
      <trkpt lat="59.9086844" lon="17.8387091">
        <ele>13.1151</ele>
        <time>2013-04-26T19:01:19Z</time>
      </trkpt>
      <trkpt lat="59.9086364" lon="17.8386632">
        <ele>13.1151</ele>
        <time>2013-04-26T19:01:20Z</time>
      </trkpt>
      <trkpt lat="59.9085866" lon="17.8386278">
        <ele>13.1151</ele>
        <time>2013-04-26T19:01:21Z</time>
      </trkpt>
      <trkpt lat="59.9085342" lon="17.8386038">
        <ele>12.6344</ele>
        <time>2013-04-26T19:01:22Z</time>
      </trkpt>
      <trkpt lat="59.9084826" lon="17.8385847">
        <ele>12.6344</ele>
        <time>2013-04-26T19:01:23Z</time>
      </trkpt>
      <trkpt lat="59.9084303" lon="17.8385756">
        <ele>12.6344</ele>
        <time>2013-04-26T19:01:24Z</time>
      </trkpt>
      <trkpt lat="59.9083789" lon="17.8385745">
        <ele>12.1538</ele>
        <time>2013-04-26T19:01:25Z</time>
      </trkpt>
      <trkpt lat="59.9083234" lon="17.8385796">
        <ele>12.6344</ele>
        <time>2013-04-26T19:01:26Z</time>
      </trkpt>
      <trkpt lat="59.9082653" lon="17.8385946">
        <ele>13.1151</ele>
        <time>2013-04-26T19:01:27Z</time>
      </trkpt>
      <trkpt lat="59.9082073" lon="17.8386164">
        <ele>13.5958</ele>
        <time>2013-04-26T19:01:28Z</time>
      </trkpt>
      <trkpt lat="59.90815" lon="17.8386479">
        <ele>14.557</ele>
        <time>2013-04-26T19:01:29Z</time>
      </trkpt>
      <trkpt lat="59.9080944" lon="17.8386848">
        <ele>14.557</ele>
        <time>2013-04-26T19:01:30Z</time>
      </trkpt>
      <trkpt lat="59.9080415" lon="17.8387328">
        <ele>15.0377</ele>
        <time>2013-04-26T19:01:31Z</time>
      </trkpt>
      <trkpt lat="59.9079915" lon="17.8387849">
        <ele>15.5184</ele>
        <time>2013-04-26T19:01:32Z</time>
      </trkpt>
      <trkpt lat="59.9079447" lon="17.8388381">
        <ele>15.5184</ele>
        <time>2013-04-26T19:01:33Z</time>
      </trkpt>
      <trkpt lat="59.9078986" lon="17.8388902">
        <ele>15.999</ele>
        <time>2013-04-26T19:01:34Z</time>
      </trkpt>
      <trkpt lat="59.9078551" lon="17.8389375">
        <ele>16.4797</ele>
        <time>2013-04-26T19:01:35Z</time>
      </trkpt>
      <trkpt lat="59.9078139" lon="17.838984">
        <ele>17.4412</ele>
        <time>2013-04-26T19:01:36Z</time>
      </trkpt>
      <trkpt lat="59.9077766" lon="17.839036">
        <ele>17.4412</ele>
        <time>2013-04-26T19:01:37Z</time>
      </trkpt>
      <trkpt lat="59.9077408" lon="17.839083">
        <ele>17.9218</ele>
        <time>2013-04-26T19:01:38Z</time>
      </trkpt>
      <trkpt lat="59.9077035" lon="17.8391233">
        <ele>18.4023</ele>
        <time>2013-04-26T19:01:39Z</time>
      </trkpt>
      <trkpt lat="59.9076692" lon="17.8391619">
        <ele>18.8831</ele>
        <time>2013-04-26T19:01:40Z</time>
      </trkpt>
      <trkpt lat="59.9076339" lon="17.8392003">
        <ele>19.3638</ele>
        <time>2013-04-26T19:01:41Z</time>
      </trkpt>
      <trkpt lat="59.9075997" lon="17.8392394">
        <ele>19.3638</ele>
        <time>2013-04-26T19:01:42Z</time>
      </trkpt>
      <trkpt lat="59.9075641" lon="17.8392826">
        <ele>19.8444</ele>
        <time>2013-04-26T19:01:43Z</time>
      </trkpt>
      <trkpt lat="59.9075264" lon="17.8393243">
        <ele>20.325</ele>
        <time>2013-04-26T19:01:44Z</time>
      </trkpt>
      <trkpt lat="59.9074885" lon="17.8393676">
        <ele>20.325</ele>
        <time>2013-04-26T19:01:45Z</time>
      </trkpt>
      <trkpt lat="59.9074538" lon="17.839409">
        <ele>20.8057</ele>
        <time>2013-04-26T19:01:46Z</time>
      </trkpt>
      <trkpt lat="59.9074155" lon="17.8394503">
        <ele>20.325</ele>
        <time>2013-04-26T19:01:47Z</time>
      </trkpt>
      <trkpt lat="59.9073657" lon="17.8395002">
        <ele>20.325</ele>
        <time>2013-04-26T19:01:48Z</time>
      </trkpt>
      <trkpt lat="59.9073049" lon="17.8395549">
        <ele>19.8444</ele>
        <time>2013-04-26T19:01:49Z</time>
      </trkpt>
      <trkpt lat="59.9072393" lon="17.839615">
        <ele>19.3638</ele>
        <time>2013-04-26T19:01:50Z</time>
      </trkpt>
      <trkpt lat="59.907172" lon="17.8396771">
        <ele>19.3638</ele>
        <time>2013-04-26T19:01:51Z</time>
      </trkpt>
      <trkpt lat="59.9071008" lon="17.8397365">
        <ele>18.8831</ele>
        <time>2013-04-26T19:01:52Z</time>
      </trkpt>
      <trkpt lat="59.9070248" lon="17.8397957">
        <ele>18.8831</ele>
        <time>2013-04-26T19:01:53Z</time>
      </trkpt>
      <trkpt lat="59.9069489" lon="17.8398543">
        <ele>18.4023</ele>
        <time>2013-04-26T19:01:54Z</time>
      </trkpt>
      <trkpt lat="59.9068709" lon="17.8399139">
        <ele>18.4023</ele>
        <time>2013-04-26T19:01:55Z</time>
      </trkpt>
      <trkpt lat="59.9067919" lon="17.8399731">
        <ele>17.9218</ele>
        <time>2013-04-26T19:01:56Z</time>
      </trkpt>
      <trkpt lat="59.9067146" lon="17.8400361">
        <ele>16.9604</ele>
        <time>2013-04-26T19:01:57Z</time>
      </trkpt>
      <trkpt lat="59.9066207" lon="17.8401078">
        <ele>16.9604</ele>
        <time>2013-04-26T19:01:58Z</time>
      </trkpt>
      <trkpt lat="59.9065438" lon="17.8401782">
        <ele>16.4797</ele>
        <time>2013-04-26T19:01:59Z</time>
      </trkpt>
      <trkpt lat="59.9064722" lon="17.8402456">
        <ele>15.5184</ele>
        <time>2013-04-26T19:02:00Z</time>
      </trkpt>
      <trkpt lat="59.9063929" lon="17.8403244">
        <ele>15.0377</ele>
        <time>2013-04-26T19:02:01Z</time>
      </trkpt>
      <trkpt lat="59.9063084" lon="17.8404212">
        <ele>15.0377</ele>
        <time>2013-04-26T19:02:02Z</time>
      </trkpt>
      <trkpt lat="59.9062204" lon="17.8405346">
        <ele>14.557</ele>
        <time>2013-04-26T19:02:03Z</time>
      </trkpt>
      <trkpt lat="59.9061459" lon="17.8406393">
        <ele>14.0764</ele>
        <time>2013-04-26T19:02:04Z</time>
      </trkpt>
      <trkpt lat="59.9060712" lon="17.8407424">
        <ele>13.1151</ele>
        <time>2013-04-26T19:02:05Z</time>
      </trkpt>
      <trkpt lat="59.9059954" lon="17.8408434">
        <ele>13.1151</ele>
        <time>2013-04-26T19:02:06Z</time>
      </trkpt>
      <trkpt lat="59.9059187" lon="17.8409313">
        <ele>12.6344</ele>
        <time>2013-04-26T19:02:07Z</time>
      </trkpt>
      <trkpt lat="59.9058391" lon="17.8410048">
        <ele>12.6344</ele>
        <time>2013-04-26T19:02:08Z</time>
      </trkpt>
      <trkpt lat="59.9057531" lon="17.8410651">
        <ele>11.6732</ele>
        <time>2013-04-26T19:02:09Z</time>
      </trkpt>
      <trkpt lat="59.9056687" lon="17.8411231">
        <ele>11.1925</ele>
        <time>2013-04-26T19:02:10Z</time>
      </trkpt>
      <trkpt lat="59.9055848" lon="17.8411617">
        <ele>10.7118</ele>
        <time>2013-04-26T19:02:11Z</time>
      </trkpt>
      <trkpt lat="59.9055019" lon="17.8411889">
        <ele>10.2312</ele>
        <time>2013-04-26T19:02:12Z</time>
      </trkpt>
      <trkpt lat="59.9054222" lon="17.8412126">
        <ele>10.2312</ele>
        <time>2013-04-26T19:02:13Z</time>
      </trkpt>
      <trkpt lat="59.9053464" lon="17.8412384">
        <ele>10.7118</ele>
        <time>2013-04-26T19:02:14Z</time>
      </trkpt>
      <trkpt lat="59.9052754" lon="17.8412619">
        <ele>11.1925</ele>
        <time>2013-04-26T19:02:15Z</time>
      </trkpt>
      <trkpt lat="59.9052057" lon="17.8412814">
        <ele>11.1925</ele>
        <time>2013-04-26T19:02:16Z</time>
      </trkpt>
      <trkpt lat="59.9051391" lon="17.8413022">
        <ele>11.1925</ele>
        <time>2013-04-26T19:02:17Z</time>
      </trkpt>
      <trkpt lat="59.9050771" lon="17.841325">
        <ele>11.6732</ele>
        <time>2013-04-26T19:02:18Z</time>
      </trkpt>
      <trkpt lat="59.9050192" lon="17.8413447">
        <ele>12.1538</ele>
        <time>2013-04-26T19:02:19Z</time>
      </trkpt>
      <trkpt lat="59.9049649" lon="17.8413643">
        <ele>12.1538</ele>
        <time>2013-04-26T19:02:20Z</time>
      </trkpt>
      <trkpt lat="59.9049125" lon="17.8413808">
        <ele>12.1538</ele>
        <time>2013-04-26T19:02:21Z</time>
      </trkpt>
      <trkpt lat="59.9048604" lon="17.8414037">
        <ele>12.1538</ele>
        <time>2013-04-26T19:02:22Z</time>
      </trkpt>
      <trkpt lat="59.9048083" lon="17.8414276">
        <ele>12.6344</ele>
        <time>2013-04-26T19:02:23Z</time>
      </trkpt>
      <trkpt lat="59.9047568" lon="17.8414452">
        <ele>12.6344</ele>
        <time>2013-04-26T19:02:24Z</time>
      </trkpt>
      <trkpt lat="59.9047108" lon="17.8414784">
        <ele>13.1151</ele>
        <time>2013-04-26T19:02:25Z</time>
      </trkpt>
      <trkpt lat="59.9046622" lon="17.841515">
        <ele>13.5958</ele>
        <time>2013-04-26T19:02:26Z</time>
      </trkpt>
      <trkpt lat="59.9046109" lon="17.8415508">
        <ele>13.5958</ele>
        <time>2013-04-26T19:02:27Z</time>
      </trkpt>
      <trkpt lat="59.9045591" lon="17.8415839">
        <ele>14.0764</ele>
        <time>2013-04-26T19:02:28Z</time>
      </trkpt>
      <trkpt lat="59.9045057" lon="17.8416209">
        <ele>14.0764</ele>
        <time>2013-04-26T19:02:29Z</time>
      </trkpt>
      <trkpt lat="59.9044509" lon="17.8416632">
        <ele>14.0764</ele>
        <time>2013-04-26T19:02:30Z</time>
      </trkpt>
      <trkpt lat="59.9043969" lon="17.8417119">
        <ele>14.557</ele>
        <time>2013-04-26T19:02:31Z</time>
      </trkpt>
      <trkpt lat="59.9043466" lon="17.8417669">
        <ele>15.999</ele>
        <time>2013-04-26T19:02:32Z</time>
      </trkpt>
      <trkpt lat="59.9042912" lon="17.841827">
        <ele>17.4412</ele>
        <time>2013-04-26T19:02:33Z</time>
      </trkpt>
      <trkpt lat="59.9042348" lon="17.8418738">
        <ele>17.4412</ele>
        <time>2013-04-26T19:02:34Z</time>
      </trkpt>
      <trkpt lat="59.9041769" lon="17.841915">
        <ele>18.4023</ele>
        <time>2013-04-26T19:02:35Z</time>
      </trkpt>
      <trkpt lat="59.9041152" lon="17.8419431">
        <ele>18.8831</ele>
        <time>2013-04-26T19:02:36Z</time>
      </trkpt>
      <trkpt lat="59.9040525" lon="17.8419551">
        <ele>18.8831</ele>
        <time>2013-04-26T19:02:37Z</time>
      </trkpt>
      <trkpt lat="59.9039917" lon="17.8419569">
        <ele>18.4023</ele>
        <time>2013-04-26T19:02:38Z</time>
      </trkpt>
      <trkpt lat="59.9039333" lon="17.8419452">
        <ele>18.8831</ele>
        <time>2013-04-26T19:02:39Z</time>
      </trkpt>
      <trkpt lat="59.9038764" lon="17.8419299">
        <ele>18.8831</ele>
        <time>2013-04-26T19:02:40Z</time>
      </trkpt>
      <trkpt lat="59.9038205" lon="17.8419094">
        <ele>18.8831</ele>
        <time>2013-04-26T19:02:41Z</time>
      </trkpt>
      <trkpt lat="59.9037692" lon="17.8418752">
        <ele>18.4023</ele>
        <time>2013-04-26T19:02:42Z</time>
      </trkpt>
      <trkpt lat="59.9037256" lon="17.8418362">
        <ele>18.4023</ele>
        <time>2013-04-26T19:02:43Z</time>
      </trkpt>
      <trkpt lat="59.9036869" lon="17.8418044">
        <ele>18.8831</ele>
        <time>2013-04-26T19:02:44Z</time>
      </trkpt>
      <trkpt lat="59.9036512" lon="17.8417671">
        <ele>19.3638</ele>
        <time>2013-04-26T19:02:45Z</time>
      </trkpt>
      <trkpt lat="59.9036138" lon="17.8417177">
        <ele>19.8444</ele>
        <time>2013-04-26T19:02:46Z</time>
      </trkpt>
      <trkpt lat="59.9035791" lon="17.841657">
        <ele>19.8444</ele>
        <time>2013-04-26T19:02:47Z</time>
      </trkpt>
      <trkpt lat="59.9035444" lon="17.8415896">
        <ele>20.325</ele>
        <time>2013-04-26T19:02:48Z</time>
      </trkpt>
      <trkpt lat="59.9035144" lon="17.8415234">
        <ele>20.8057</ele>
        <time>2013-04-26T19:02:49Z</time>
      </trkpt>
      <trkpt lat="59.9034811" lon="17.8414577">
        <ele>21.2864</ele>
        <time>2013-04-26T19:02:50Z</time>
      </trkpt>
      <trkpt lat="59.9034442" lon="17.8413955">
        <ele>21.767</ele>
        <time>2013-04-26T19:02:51Z</time>
      </trkpt>
      <trkpt lat="59.9034014" lon="17.841336">
        <ele>22.2476</ele>
        <time>2013-04-26T19:02:52Z</time>
      </trkpt>
      <trkpt lat="59.9033613" lon="17.8412884">
        <ele>22.7283</ele>
        <time>2013-04-26T19:02:53Z</time>
      </trkpt>
      <trkpt lat="59.903328" lon="17.8412561">
        <ele>23.209</ele>
        <time>2013-04-26T19:02:54Z</time>
      </trkpt>
      <trkpt lat="59.9032947" lon="17.8412364">
        <ele>23.6896</ele>
        <time>2013-04-26T19:02:55Z</time>
      </trkpt>
      <trkpt lat="59.9032626" lon="17.8412223">
        <ele>24.651</ele>
        <time>2013-04-26T19:02:56Z</time>
      </trkpt>
      <trkpt lat="59.9032252" lon="17.8411987">
        <ele>25.1317</ele>
        <time>2013-04-26T19:02:57Z</time>
      </trkpt>
      <trkpt lat="59.9031801" lon="17.8411838">
        <ele>25.6123</ele>
        <time>2013-04-26T19:02:58Z</time>
      </trkpt>
      <trkpt lat="59.9031256" lon="17.8411816">
        <ele>25.6123</ele>
        <time>2013-04-26T19:02:59Z</time>
      </trkpt>
      <trkpt lat="59.9030627" lon="17.8412037">
        <ele>25.6123</ele>
        <time>2013-04-26T19:03:00Z</time>
      </trkpt>
      <trkpt lat="59.9029982" lon="17.8412316">
        <ele>25.1317</ele>
        <time>2013-04-26T19:03:01Z</time>
      </trkpt>
      <trkpt lat="59.9029324" lon="17.8412712">
        <ele>24.651</ele>
        <time>2013-04-26T19:03:02Z</time>
      </trkpt>
      <trkpt lat="59.9028658" lon="17.84131">
        <ele>24.651</ele>
        <time>2013-04-26T19:03:03Z</time>
      </trkpt>
      <trkpt lat="59.9027984" lon="17.8413411">
        <ele>24.1703</ele>
        <time>2013-04-26T19:03:04Z</time>
      </trkpt>
      <trkpt lat="59.9027337" lon="17.8413742">
        <ele>24.1703</ele>
        <time>2013-04-26T19:03:05Z</time>
      </trkpt>
      <trkpt lat="59.9026691" lon="17.8413893">
        <ele>23.6896</ele>
        <time>2013-04-26T19:03:06Z</time>
      </trkpt>
      <trkpt lat="59.902605" lon="17.8414001">
        <ele>24.1703</ele>
        <time>2013-04-26T19:03:07Z</time>
      </trkpt>
      <trkpt lat="59.9025441" lon="17.8414146">
        <ele>24.651</ele>
        <time>2013-04-26T19:03:08Z</time>
      </trkpt>
      <trkpt lat="59.9024852" lon="17.8414426">
        <ele>25.1317</ele>
        <time>2013-04-26T19:03:09Z</time>
      </trkpt>
      <trkpt lat="59.9024322" lon="17.8414743">
        <ele>25.6123</ele>
        <time>2013-04-26T19:03:10Z</time>
      </trkpt>
      <trkpt lat="59.9023798" lon="17.8415058">
        <ele>26.0929</ele>
        <time>2013-04-26T19:03:11Z</time>
      </trkpt>
      <trkpt lat="59.9023244" lon="17.8415422">
        <ele>27.0543</ele>
        <time>2013-04-26T19:03:12Z</time>
      </trkpt>
      <trkpt lat="59.902272" lon="17.841569">
        <ele>27.5349</ele>
        <time>2013-04-26T19:03:13Z</time>
      </trkpt>
      <trkpt lat="59.9022212" lon="17.8415827">
        <ele>27.0543</ele>
        <time>2013-04-26T19:03:14Z</time>
      </trkpt>
      <trkpt lat="59.9021711" lon="17.8415808">
        <ele>26.5736</ele>
        <time>2013-04-26T19:03:15Z</time>
      </trkpt>
      <trkpt lat="59.9021222" lon="17.8415789">
        <ele>27.0543</ele>
        <time>2013-04-26T19:03:16Z</time>
      </trkpt>
      <trkpt lat="59.9020727" lon="17.8415639">
        <ele>27.5349</ele>
        <time>2013-04-26T19:03:17Z</time>
      </trkpt>
      <trkpt lat="59.9020209" lon="17.8415556">
        <ele>28.0155</ele>
        <time>2013-04-26T19:03:18Z</time>
      </trkpt>
      <trkpt lat="59.9019692" lon="17.8415458">
        <ele>28.0155</ele>
        <time>2013-04-26T19:03:19Z</time>
      </trkpt>
      <trkpt lat="59.9019158" lon="17.8415371">
        <ele>27.5349</ele>
        <time>2013-04-26T19:03:20Z</time>
      </trkpt>
      <trkpt lat="59.9018614" lon="17.8415214">
        <ele>27.5349</ele>
        <time>2013-04-26T19:03:21Z</time>
      </trkpt>
      <trkpt lat="59.9018065" lon="17.8414979">
        <ele>27.0543</ele>
        <time>2013-04-26T19:03:22Z</time>
      </trkpt>
      <trkpt lat="59.9017459" lon="17.8414831">
        <ele>27.5349</ele>
        <time>2013-04-26T19:03:23Z</time>
      </trkpt>
      <trkpt lat="59.9016831" lon="17.8414673">
        <ele>27.5349</ele>
        <time>2013-04-26T19:03:24Z</time>
      </trkpt>
      <trkpt lat="59.9016203" lon="17.8414561">
        <ele>27.5349</ele>
        <time>2013-04-26T19:03:25Z</time>
      </trkpt>
      <trkpt lat="59.9015558" lon="17.841438">
        <ele>27.5349</ele>
        <time>2013-04-26T19:03:26Z</time>
      </trkpt>
      <trkpt lat="59.9014893" lon="17.8414254">
        <ele>27.5349</ele>
        <time>2013-04-26T19:03:27Z</time>
      </trkpt>
      <trkpt lat="59.9014262" lon="17.8414178">
        <ele>27.0543</ele>
        <time>2013-04-26T19:03:28Z</time>
      </trkpt>
      <trkpt lat="59.901359" lon="17.8414075">
        <ele>27.5349</ele>
        <time>2013-04-26T19:03:29Z</time>
      </trkpt>
      <trkpt lat="59.9012939" lon="17.8413966">
        <ele>27.0543</ele>
        <time>2013-04-26T19:03:30Z</time>
      </trkpt>
      <trkpt lat="59.9012298" lon="17.841385">
        <ele>27.0543</ele>
        <time>2013-04-26T19:03:31Z</time>
      </trkpt>
      <trkpt lat="59.9011658" lon="17.8413758">
        <ele>27.0543</ele>
        <time>2013-04-26T19:03:32Z</time>
      </trkpt>
      <trkpt lat="59.9011039" lon="17.8413648">
        <ele>27.0543</ele>
        <time>2013-04-26T19:03:33Z</time>
      </trkpt>
      <trkpt lat="59.9010419" lon="17.8413596">
        <ele>26.5736</ele>
        <time>2013-04-26T19:03:34Z</time>
      </trkpt>
      <trkpt lat="59.9009808" lon="17.841355">
        <ele>26.5736</ele>
        <time>2013-04-26T19:03:35Z</time>
      </trkpt>
      <trkpt lat="59.9009223" lon="17.8413458">
        <ele>26.5736</ele>
        <time>2013-04-26T19:03:36Z</time>
      </trkpt>
      <trkpt lat="59.9008662" lon="17.8413406">
        <ele>26.5736</ele>
        <time>2013-04-26T19:03:37Z</time>
      </trkpt>
      <trkpt lat="59.9008027" lon="17.8413188">
        <ele>26.0929</ele>
        <time>2013-04-26T19:03:38Z</time>
      </trkpt>
      <trkpt lat="59.9007345" lon="17.8413009">
        <ele>26.0929</ele>
        <time>2013-04-26T19:03:39Z</time>
      </trkpt>
      <trkpt lat="59.9006721" lon="17.8412957">
        <ele>25.6123</ele>
        <time>2013-04-26T19:03:40Z</time>
      </trkpt>
      <trkpt lat="59.9006141" lon="17.8412923">
        <ele>25.1317</ele>
        <time>2013-04-26T19:03:41Z</time>
      </trkpt>
      <trkpt lat="59.9005561" lon="17.8412772">
        <ele>25.6123</ele>
        <time>2013-04-26T19:03:42Z</time>
      </trkpt>
      <trkpt lat="59.9005016" lon="17.8412681">
        <ele>25.1317</ele>
        <time>2013-04-26T19:03:43Z</time>
      </trkpt>
      <trkpt lat="59.9004519" lon="17.8412695">
        <ele>25.1317</ele>
        <time>2013-04-26T19:03:44Z</time>
      </trkpt>
      <trkpt lat="59.9004046" lon="17.8412629">
        <ele>25.1317</ele>
        <time>2013-04-26T19:03:45Z</time>
      </trkpt>
      <trkpt lat="59.9003612" lon="17.8412601">
        <ele>25.1317</ele>
        <time>2013-04-26T19:03:46Z</time>
      </trkpt>
      <trkpt lat="59.9003176" lon="17.8412625">
        <ele>25.6123</ele>
        <time>2013-04-26T19:03:47Z</time>
      </trkpt>
      <trkpt lat="59.900276" lon="17.8412623">
        <ele>26.0929</ele>
        <time>2013-04-26T19:03:48Z</time>
      </trkpt>
      <trkpt lat="59.9002343" lon="17.8412666">
        <ele>26.5736</ele>
        <time>2013-04-26T19:03:49Z</time>
      </trkpt>
      <trkpt lat="59.9001929" lon="17.8412698">
        <ele>27.5349</ele>
        <time>2013-04-26T19:03:50Z</time>
      </trkpt>
      <trkpt lat="59.9001536" lon="17.8412744">
        <ele>28.0155</ele>
        <time>2013-04-26T19:03:51Z</time>
      </trkpt>
      <trkpt lat="59.9001152" lon="17.8412847">
        <ele>28.9769</ele>
        <time>2013-04-26T19:03:52Z</time>
      </trkpt>
      <trkpt lat="59.9000788" lon="17.8412951">
        <ele>29.4575</ele>
        <time>2013-04-26T19:03:53Z</time>
      </trkpt>
      <trkpt lat="59.9000406" lon="17.8413075">
        <ele>30.4188</ele>
        <time>2013-04-26T19:03:54Z</time>
      </trkpt>
      <trkpt lat="59.8999994" lon="17.8413235">
        <ele>30.8995</ele>
        <time>2013-04-26T19:03:55Z</time>
      </trkpt>
      <trkpt lat="59.8999613" lon="17.8413463">
        <ele>31.3801</ele>
        <time>2013-04-26T19:03:56Z</time>
      </trkpt>
      <trkpt lat="59.8999233" lon="17.8413589">
        <ele>31.8607</ele>
        <time>2013-04-26T19:03:57Z</time>
      </trkpt>
      <trkpt lat="59.8998783" lon="17.8413606">
        <ele>32.8223</ele>
        <time>2013-04-26T19:03:58Z</time>
      </trkpt>
      <trkpt lat="59.8998309" lon="17.8413681">
        <ele>32.8223</ele>
        <time>2013-04-26T19:03:59Z</time>
      </trkpt>
      <trkpt lat="59.8997813" lon="17.8413728">
        <ele>33.7834</ele>
        <time>2013-04-26T19:04:00Z</time>
      </trkpt>
      <trkpt lat="59.8997418" lon="17.8413788">
        <ele>34.7449</ele>
        <time>2013-04-26T19:04:01Z</time>
      </trkpt>
      <trkpt lat="59.8997065" lon="17.8413839">
        <ele>35.7061</ele>
        <time>2013-04-26T19:04:02Z</time>
      </trkpt>
      <trkpt lat="59.8996749" lon="17.8413971">
        <ele>36.6675</ele>
        <time>2013-04-26T19:04:03Z</time>
      </trkpt>
      <trkpt lat="59.8996401" lon="17.8414146">
        <ele>36.6675</ele>
        <time>2013-04-26T19:04:04Z</time>
      </trkpt>
      <trkpt lat="59.899606" lon="17.8414339">
        <ele>36.1868</ele>
        <time>2013-04-26T19:04:05Z</time>
      </trkpt>
      <trkpt lat="59.8995719" lon="17.8414478">
        <ele>35.7061</ele>
        <time>2013-04-26T19:04:06Z</time>
      </trkpt>
      <trkpt lat="59.8995356" lon="17.8414572">
        <ele>33.7834</ele>
        <time>2013-04-26T19:04:07Z</time>
      </trkpt>
      <trkpt lat="59.8994992" lon="17.8414711">
        <ele>33.7834</ele>
        <time>2013-04-26T19:04:08Z</time>
      </trkpt>
      <trkpt lat="59.8994666" lon="17.841492">
        <ele>33.3029</ele>
        <time>2013-04-26T19:04:09Z</time>
      </trkpt>
      <trkpt lat="59.8994305" lon="17.8415194">
        <ele>32.8223</ele>
        <time>2013-04-26T19:04:10Z</time>
      </trkpt>
      <trkpt lat="59.8993931" lon="17.841541">
        <ele>32.3416</ele>
        <time>2013-04-26T19:04:11Z</time>
      </trkpt>
      <trkpt lat="59.8993593" lon="17.8415695">
        <ele>32.3416</ele>
        <time>2013-04-26T19:04:12Z</time>
      </trkpt>
      <trkpt lat="59.8993227" lon="17.8416104">
        <ele>32.3416</ele>
        <time>2013-04-26T19:04:13Z</time>
      </trkpt>
      <trkpt lat="59.8992822" lon="17.8416523">
        <ele>32.8223</ele>
        <time>2013-04-26T19:04:14Z</time>
      </trkpt>
      <trkpt lat="59.8992402" lon="17.8416918">
        <ele>33.3029</ele>
        <time>2013-04-26T19:04:15Z</time>
      </trkpt>
      <trkpt lat="59.8991974" lon="17.8417339">
        <ele>33.7834</ele>
        <time>2013-04-26T19:04:16Z</time>
      </trkpt>
      <trkpt lat="59.8991522" lon="17.8417727">
        <ele>33.7834</ele>
        <time>2013-04-26T19:04:17Z</time>
      </trkpt>
      <trkpt lat="59.8991043" lon="17.8418082">
        <ele>34.2642</ele>
        <time>2013-04-26T19:04:18Z</time>
      </trkpt>
      <trkpt lat="59.8990521" lon="17.8418411">
        <ele>33.7834</ele>
        <time>2013-04-26T19:04:19Z</time>
      </trkpt>
      <trkpt lat="59.8989976" lon="17.841881">
        <ele>33.7834</ele>
        <time>2013-04-26T19:04:20Z</time>
      </trkpt>
      <trkpt lat="59.8989434" lon="17.8419115">
        <ele>33.3029</ele>
        <time>2013-04-26T19:04:21Z</time>
      </trkpt>
      <trkpt lat="59.8988852" lon="17.8419436">
        <ele>32.8223</ele>
        <time>2013-04-26T19:04:22Z</time>
      </trkpt>
      <trkpt lat="59.8988225" lon="17.8419799">
        <ele>32.8223</ele>
        <time>2013-04-26T19:04:23Z</time>
      </trkpt>
      <trkpt lat="59.898757" lon="17.8420175">
        <ele>32.8223</ele>
        <time>2013-04-26T19:04:24Z</time>
      </trkpt>
      <trkpt lat="59.8986885" lon="17.8420519">
        <ele>32.3416</ele>
        <time>2013-04-26T19:04:25Z</time>
      </trkpt>
      <trkpt lat="59.8986195" lon="17.8420871">
        <ele>32.3416</ele>
        <time>2013-04-26T19:04:26Z</time>
      </trkpt>
      <trkpt lat="59.8985483" lon="17.8421159">
        <ele>31.3801</ele>
        <time>2013-04-26T19:04:27Z</time>
      </trkpt>
      <trkpt lat="59.8984734" lon="17.8421446">
        <ele>30.8995</ele>
        <time>2013-04-26T19:04:28Z</time>
      </trkpt>
      <trkpt lat="59.8983978" lon="17.8421684">
        <ele>30.4188</ele>
        <time>2013-04-26T19:04:29Z</time>
      </trkpt>
      <trkpt lat="59.8983213" lon="17.8421799">
        <ele>29.9381</ele>
        <time>2013-04-26T19:04:30Z</time>
      </trkpt>
      <trkpt lat="59.8982486" lon="17.8421889">
        <ele>29.9381</ele>
        <time>2013-04-26T19:04:31Z</time>
      </trkpt>
      <trkpt lat="59.8981773" lon="17.8421907">
        <ele>28.9769</ele>
        <time>2013-04-26T19:04:32Z</time>
      </trkpt>
      <trkpt lat="59.8980985" lon="17.8421828">
        <ele>28.0155</ele>
        <time>2013-04-26T19:04:33Z</time>
      </trkpt>
      <trkpt lat="59.8980197" lon="17.8421969">
        <ele>28.0155</ele>
        <time>2013-04-26T19:04:34Z</time>
      </trkpt>
      <trkpt lat="59.8978964" lon="17.8421585">
        <ele>28.0155</ele>
        <time>2013-04-26T19:04:35Z</time>
      </trkpt>
      <trkpt lat="59.8978052" lon="17.8421545">
        <ele>26.5736</ele>
        <time>2013-04-26T19:04:36Z</time>
      </trkpt>
      <trkpt lat="59.8977277" lon="17.8421746">
        <ele>26.0929</ele>
        <time>2013-04-26T19:04:37Z</time>
      </trkpt>
      <trkpt lat="59.8976544" lon="17.8422022">
        <ele>26.0929</ele>
        <time>2013-04-26T19:04:38Z</time>
      </trkpt>
      <trkpt lat="59.89757" lon="17.8422214">
        <ele>26.0929</ele>
        <time>2013-04-26T19:04:39Z</time>
      </trkpt>
      <trkpt lat="59.8974888" lon="17.8422512">
        <ele>25.1317</ele>
        <time>2013-04-26T19:04:40Z</time>
      </trkpt>
      <trkpt lat="59.8974163" lon="17.8422793">
        <ele>23.6896</ele>
        <time>2013-04-26T19:04:41Z</time>
      </trkpt>
      <trkpt lat="59.8973534" lon="17.8423177">
        <ele>23.209</ele>
        <time>2013-04-26T19:04:42Z</time>
      </trkpt>
      <trkpt lat="59.897283" lon="17.8423648">
        <ele>22.2476</ele>
        <time>2013-04-26T19:04:43Z</time>
      </trkpt>
      <trkpt lat="59.8972158" lon="17.842431">
        <ele>22.2476</ele>
        <time>2013-04-26T19:04:44Z</time>
      </trkpt>
      <trkpt lat="59.8971501" lon="17.8424954">
        <ele>21.2864</ele>
        <time>2013-04-26T19:04:45Z</time>
      </trkpt>
      <trkpt lat="59.897087" lon="17.8425497">
        <ele>21.767</ele>
        <time>2013-04-26T19:04:46Z</time>
      </trkpt>
      <trkpt lat="59.8970274" lon="17.8426036">
        <ele>22.2476</ele>
        <time>2013-04-26T19:04:47Z</time>
      </trkpt>
      <trkpt lat="59.8969556" lon="17.8426696">
        <ele>22.7283</ele>
        <time>2013-04-26T19:04:48Z</time>
      </trkpt>
      <trkpt lat="59.8968754" lon="17.8427279">
        <ele>23.209</ele>
        <time>2013-04-26T19:04:49Z</time>
      </trkpt>
      <trkpt lat="59.8967823" lon="17.842788">
        <ele>23.6896</ele>
        <time>2013-04-26T19:04:50Z</time>
      </trkpt>
      <trkpt lat="59.8966839" lon="17.842805">
        <ele>24.1703</ele>
        <time>2013-04-26T19:04:51Z</time>
      </trkpt>
      <trkpt lat="59.8965813" lon="17.8428113">
        <ele>24.1703</ele>
        <time>2013-04-26T19:04:52Z</time>
      </trkpt>
      <trkpt lat="59.8964804" lon="17.842801">
        <ele>24.1703</ele>
        <time>2013-04-26T19:04:53Z</time>
      </trkpt>
      <trkpt lat="59.8963943" lon="17.8427916">
        <ele>24.651</ele>
        <time>2013-04-26T19:04:54Z</time>
      </trkpt>
      <trkpt lat="59.8962602" lon="17.8427259">
        <ele>25.1317</ele>
        <time>2013-04-26T19:04:55Z</time>
      </trkpt>
      <trkpt lat="59.8961353" lon="17.8426771">
        <ele>25.1317</ele>
        <time>2013-04-26T19:04:56Z</time>
      </trkpt>
      <trkpt lat="59.8960209" lon="17.8426515">
        <ele>24.1703</ele>
        <time>2013-04-26T19:04:57Z</time>
      </trkpt>
      <trkpt lat="59.895911" lon="17.8426573">
        <ele>23.209</ele>
        <time>2013-04-26T19:04:58Z</time>
      </trkpt>
      <trkpt lat="59.8958058" lon="17.8426699">
        <ele>22.2476</ele>
        <time>2013-04-26T19:04:59Z</time>
      </trkpt>
      <trkpt lat="59.895709" lon="17.8426982">
        <ele>21.2864</ele>
        <time>2013-04-26T19:05:00Z</time>
      </trkpt>
      <trkpt lat="59.895612" lon="17.8427403">
        <ele>20.8057</ele>
        <time>2013-04-26T19:05:01Z</time>
      </trkpt>
      <trkpt lat="59.8955194" lon="17.8427842">
        <ele>19.8444</ele>
        <time>2013-04-26T19:05:02Z</time>
      </trkpt>
      <trkpt lat="59.8954302" lon="17.8428454">
        <ele>19.3638</ele>
        <time>2013-04-26T19:05:03Z</time>
      </trkpt>
      <trkpt lat="59.8953355" lon="17.8429022">
        <ele>20.325</ele>
        <time>2013-04-26T19:05:04Z</time>
      </trkpt>
      <trkpt lat="59.8952415" lon="17.8429537">
        <ele>21.2864</ele>
        <time>2013-04-26T19:05:05Z</time>
      </trkpt>
      <trkpt lat="59.8951498" lon="17.8429935">
        <ele>20.8057</ele>
        <time>2013-04-26T19:05:06Z</time>
      </trkpt>
      <trkpt lat="59.8950587" lon="17.8430305">
        <ele>19.8444</ele>
        <time>2013-04-26T19:05:07Z</time>
      </trkpt>
      <trkpt lat="59.8949712" lon="17.8430616">
        <ele>20.325</ele>
        <time>2013-04-26T19:05:08Z</time>
      </trkpt>
      <trkpt lat="59.8948817" lon="17.8430806">
        <ele>20.325</ele>
        <time>2013-04-26T19:05:09Z</time>
      </trkpt>
      <trkpt lat="59.8947898" lon="17.8430822">
        <ele>21.2864</ele>
        <time>2013-04-26T19:05:10Z</time>
      </trkpt>
      <trkpt lat="59.8947046" lon="17.8430712">
        <ele>21.767</ele>
        <time>2013-04-26T19:05:11Z</time>
      </trkpt>
      <trkpt lat="59.8946337" lon="17.8430796">
        <ele>21.2864</ele>
        <time>2013-04-26T19:05:12Z</time>
      </trkpt>
      <trkpt lat="59.8945522" lon="17.8430698">
        <ele>20.8057</ele>
        <time>2013-04-26T19:05:13Z</time>
      </trkpt>
      <trkpt lat="59.8944715" lon="17.843035">
        <ele>20.8057</ele>
        <time>2013-04-26T19:05:14Z</time>
      </trkpt>
      <trkpt lat="59.894386" lon="17.843048">
        <ele>21.2864</ele>
        <time>2013-04-26T19:05:15Z</time>
      </trkpt>
      <trkpt lat="59.8942983" lon="17.8430531">
        <ele>20.325</ele>
        <time>2013-04-26T19:05:16Z</time>
      </trkpt>
      <trkpt lat="59.8942149" lon="17.8430614">
        <ele>19.8444</ele>
        <time>2013-04-26T19:05:17Z</time>
      </trkpt>
      <trkpt lat="59.8941404" lon="17.8430587">
        <ele>18.4023</ele>
        <time>2013-04-26T19:05:18Z</time>
      </trkpt>
      <trkpt lat="59.8940663" lon="17.8430527">
        <ele>18.8831</ele>
        <time>2013-04-26T19:05:19Z</time>
      </trkpt>
      <trkpt lat="59.8939985" lon="17.8430473">
        <ele>18.8831</ele>
        <time>2013-04-26T19:05:20Z</time>
      </trkpt>
      <trkpt lat="59.8939249" lon="17.8430335">
        <ele>17.9218</ele>
        <time>2013-04-26T19:05:21Z</time>
      </trkpt>
      <trkpt lat="59.8938522" lon="17.8430374">
        <ele>17.4412</ele>
        <time>2013-04-26T19:05:22Z</time>
      </trkpt>
      <trkpt lat="59.8937869" lon="17.843052">
        <ele>17.4412</ele>
        <time>2013-04-26T19:05:23Z</time>
      </trkpt>
      <trkpt lat="59.893699" lon="17.8429723">
        <ele>19.3638</ele>
        <time>2013-04-26T19:05:24Z</time>
      </trkpt>
      <trkpt lat="59.8936042" lon="17.8429478">
        <ele>19.3638</ele>
        <time>2013-04-26T19:05:25Z</time>
      </trkpt>
      <trkpt lat="59.8935173" lon="17.8429205">
        <ele>20.325</ele>
        <time>2013-04-26T19:05:26Z</time>
      </trkpt>
      <trkpt lat="59.8934357" lon="17.8428997">
        <ele>19.8444</ele>
        <time>2013-04-26T19:05:27Z</time>
      </trkpt>
      <trkpt lat="59.8933494" lon="17.8428631">
        <ele>19.8444</ele>
        <time>2013-04-26T19:05:28Z</time>
      </trkpt>
      <trkpt lat="59.8932681" lon="17.8428313">
        <ele>20.325</ele>
        <time>2013-04-26T19:05:29Z</time>
      </trkpt>
      <trkpt lat="59.8931655" lon="17.8427714">
        <ele>23.209</ele>
        <time>2013-04-26T19:05:30Z</time>
      </trkpt>
      <trkpt lat="59.8930824" lon="17.8427248">
        <ele>23.209</ele>
        <time>2013-04-26T19:05:31Z</time>
      </trkpt>
      <trkpt lat="59.8929849" lon="17.8426604">
        <ele>24.651</ele>
        <time>2013-04-26T19:05:32Z</time>
      </trkpt>
      <trkpt lat="59.8929058" lon="17.8426289">
        <ele>24.651</ele>
        <time>2013-04-26T19:05:33Z</time>
      </trkpt>
      <trkpt lat="59.8928221" lon="17.8425881">
        <ele>25.1317</ele>
        <time>2013-04-26T19:05:34Z</time>
      </trkpt>
      <trkpt lat="59.8927587" lon="17.8425688">
        <ele>26.0929</ele>
        <time>2013-04-26T19:05:35Z</time>
      </trkpt>
      <trkpt lat="59.8927009" lon="17.8425517">
        <ele>26.5736</ele>
        <time>2013-04-26T19:05:36Z</time>
      </trkpt>
      <trkpt lat="59.8926468" lon="17.8425342">
        <ele>27.5349</ele>
        <time>2013-04-26T19:05:37Z</time>
      </trkpt>
      <trkpt lat="59.8925942" lon="17.8425236">
        <ele>28.4962</ele>
        <time>2013-04-26T19:05:38Z</time>
      </trkpt>
      <trkpt lat="59.8925346" lon="17.8424977">
        <ele>28.4962</ele>
        <time>2013-04-26T19:05:39Z</time>
      </trkpt>
      <trkpt lat="59.8924805" lon="17.8424804">
        <ele>28.9769</ele>
        <time>2013-04-26T19:05:40Z</time>
      </trkpt>
      <trkpt lat="59.8924259" lon="17.84246">
        <ele>29.4575</ele>
        <time>2013-04-26T19:05:41Z</time>
      </trkpt>
      <trkpt lat="59.8923718" lon="17.8424412">
        <ele>29.9381</ele>
        <time>2013-04-26T19:05:42Z</time>
      </trkpt>
      <trkpt lat="59.8923227" lon="17.8424337">
        <ele>29.9381</ele>
        <time>2013-04-26T19:05:43Z</time>
      </trkpt>
      <trkpt lat="59.8922771" lon="17.8424352">
        <ele>30.4188</ele>
        <time>2013-04-26T19:05:44Z</time>
      </trkpt>
      <trkpt lat="59.8922241" lon="17.8424243">
        <ele>30.8995</ele>
        <time>2013-04-26T19:05:45Z</time>
      </trkpt>
      <trkpt lat="59.8921693" lon="17.8424092">
        <ele>30.4188</ele>
        <time>2013-04-26T19:05:46Z</time>
      </trkpt>
      <trkpt lat="59.8921075" lon="17.8423881">
        <ele>29.4575</ele>
        <time>2013-04-26T19:05:47Z</time>
      </trkpt>
      <trkpt lat="59.8920397" lon="17.8423601">
        <ele>29.9381</ele>
        <time>2013-04-26T19:05:48Z</time>
      </trkpt>
      <trkpt lat="59.8919605" lon="17.8423267">
        <ele>31.3801</ele>
        <time>2013-04-26T19:05:49Z</time>
      </trkpt>
      <trkpt lat="59.8918573" lon="17.8422409">
        <ele>33.3029</ele>
        <time>2013-04-26T19:05:50Z</time>
      </trkpt>
      <trkpt lat="59.8917722" lon="17.8422067">
        <ele>33.7834</ele>
        <time>2013-04-26T19:05:51Z</time>
      </trkpt>
      <trkpt lat="59.8916902" lon="17.8421735">
        <ele>33.7834</ele>
        <time>2013-04-26T19:05:52Z</time>
      </trkpt>
      <trkpt lat="59.8916327" lon="17.8421741">
        <ele>33.3029</ele>
        <time>2013-04-26T19:05:53Z</time>
      </trkpt>
      <trkpt lat="59.8915763" lon="17.842167">
        <ele>32.3416</ele>
        <time>2013-04-26T19:05:54Z</time>
      </trkpt>
      <trkpt lat="59.8915198" lon="17.8421545">
        <ele>30.8995</ele>
        <time>2013-04-26T19:05:55Z</time>
      </trkpt>
      <trkpt lat="59.8914689" lon="17.8421449">
        <ele>29.9381</ele>
        <time>2013-04-26T19:05:56Z</time>
      </trkpt>
      <trkpt lat="59.8914172" lon="17.8421265">
        <ele>29.4575</ele>
        <time>2013-04-26T19:05:57Z</time>
      </trkpt>
      <trkpt lat="59.8913614" lon="17.842098">
        <ele>28.9769</ele>
        <time>2013-04-26T19:05:58Z</time>
      </trkpt>
      <trkpt lat="59.8912987" lon="17.8420555">
        <ele>28.0155</ele>
        <time>2013-04-26T19:05:59Z</time>
      </trkpt>
      <trkpt lat="59.8912378" lon="17.8420074">
        <ele>27.0543</ele>
        <time>2013-04-26T19:06:00Z</time>
      </trkpt>
      <trkpt lat="59.8911762" lon="17.8419601">
        <ele>27.0543</ele>
        <time>2013-04-26T19:06:01Z</time>
      </trkpt>
      <trkpt lat="59.8911142" lon="17.8419087">
        <ele>27.0543</ele>
        <time>2013-04-26T19:06:02Z</time>
      </trkpt>
      <trkpt lat="59.891054" lon="17.8418549">
        <ele>27.0543</ele>
        <time>2013-04-26T19:06:03Z</time>
      </trkpt>
      <trkpt lat="59.8909956" lon="17.8417961">
        <ele>26.5736</ele>
        <time>2013-04-26T19:06:04Z</time>
      </trkpt>
      <trkpt lat="59.8909322" lon="17.8417271">
        <ele>27.0543</ele>
        <time>2013-04-26T19:06:05Z</time>
      </trkpt>
      <trkpt lat="59.8908742" lon="17.8416545">
        <ele>26.0929</ele>
        <time>2013-04-26T19:06:06Z</time>
      </trkpt>
      <trkpt lat="59.890809" lon="17.8415682">
        <ele>26.5736</ele>
        <time>2013-04-26T19:06:07Z</time>
      </trkpt>
      <trkpt lat="59.8907495" lon="17.841481">
        <ele>26.0929</ele>
        <time>2013-04-26T19:06:08Z</time>
      </trkpt>
      <trkpt lat="59.890689" lon="17.8413648">
        <ele>25.6123</ele>
        <time>2013-04-26T19:06:09Z</time>
      </trkpt>
      <trkpt lat="59.8906273" lon="17.8412589">
        <ele>25.1317</ele>
        <time>2013-04-26T19:06:10Z</time>
      </trkpt>
      <trkpt lat="59.8905667" lon="17.8411634">
        <ele>24.651</ele>
        <time>2013-04-26T19:06:11Z</time>
      </trkpt>
      <trkpt lat="59.8905039" lon="17.8410619">
        <ele>24.651</ele>
        <time>2013-04-26T19:06:12Z</time>
      </trkpt>
      <trkpt lat="59.8904326" lon="17.84096">
        <ele>23.6896</ele>
        <time>2013-04-26T19:06:13Z</time>
      </trkpt>
      <trkpt lat="59.8903611" lon="17.8408804">
        <ele>23.6896</ele>
        <time>2013-04-26T19:06:14Z</time>
      </trkpt>
      <trkpt lat="59.8902865" lon="17.8408269">
        <ele>23.6896</ele>
        <time>2013-04-26T19:06:15Z</time>
      </trkpt>
      <trkpt lat="59.8902098" lon="17.8408076">
        <ele>23.6896</ele>
        <time>2013-04-26T19:06:16Z</time>
      </trkpt>
      <trkpt lat="59.8901322" lon="17.8408206">
        <ele>23.209</ele>
        <time>2013-04-26T19:06:17Z</time>
      </trkpt>
      <trkpt lat="59.8900568" lon="17.840867">
        <ele>23.6896</ele>
        <time>2013-04-26T19:06:18Z</time>
      </trkpt>
      <trkpt lat="59.8899855" lon="17.8409713">
        <ele>23.6896</ele>
        <time>2013-04-26T19:06:19Z</time>
      </trkpt>
      <trkpt lat="59.8899155" lon="17.8410992">
        <ele>24.651</ele>
        <time>2013-04-26T19:06:20Z</time>
      </trkpt>
      <trkpt lat="59.8898742" lon="17.8412422">
        <ele>24.651</ele>
        <time>2013-04-26T19:06:21Z</time>
      </trkpt>
      <trkpt lat="59.8898473" lon="17.8413872">
        <ele>25.1317</ele>
        <time>2013-04-26T19:06:22Z</time>
      </trkpt>
      <trkpt lat="59.8898254" lon="17.8415307">
        <ele>25.1317</ele>
        <time>2013-04-26T19:06:23Z</time>
      </trkpt>
      <trkpt lat="59.8898031" lon="17.8416582">
        <ele>24.651</ele>
        <time>2013-04-26T19:06:24Z</time>
      </trkpt>
      <trkpt lat="59.8897871" lon="17.841786">
        <ele>24.651</ele>
        <time>2013-04-26T19:06:25Z</time>
      </trkpt>
      <trkpt lat="59.8897693" lon="17.8419218">
        <ele>25.1317</ele>
        <time>2013-04-26T19:06:26Z</time>
      </trkpt>
      <trkpt lat="59.8897539" lon="17.8420622">
        <ele>24.651</ele>
        <time>2013-04-26T19:06:27Z</time>
      </trkpt>
      <trkpt lat="59.8897411" lon="17.8422192">
        <ele>24.1703</ele>
        <time>2013-04-26T19:06:28Z</time>
      </trkpt>
      <trkpt lat="59.8897346" lon="17.8423755">
        <ele>23.209</ele>
        <time>2013-04-26T19:06:29Z</time>
      </trkpt>
      <trkpt lat="59.8897392" lon="17.8425308">
        <ele>22.7283</ele>
        <time>2013-04-26T19:06:30Z</time>
      </trkpt>
      <trkpt lat="59.8897177" lon="17.8427185">
        <ele>20.8057</ele>
        <time>2013-04-26T19:06:31Z</time>
      </trkpt>
      <trkpt lat="59.8897005" lon="17.8429003">
        <ele>20.8057</ele>
        <time>2013-04-26T19:06:32Z</time>
      </trkpt>
      <trkpt lat="59.8896416" lon="17.843067">
        <ele>20.8057</ele>
        <time>2013-04-26T19:06:33Z</time>
      </trkpt>
      <trkpt lat="59.889583" lon="17.8431993">
        <ele>20.8057</ele>
        <time>2013-04-26T19:06:34Z</time>
      </trkpt>
      <trkpt lat="59.8895364" lon="17.8433333">
        <ele>20.8057</ele>
        <time>2013-04-26T19:06:35Z</time>
      </trkpt>
      <trkpt lat="59.889473" lon="17.843433">
        <ele>20.8057</ele>
        <time>2013-04-26T19:06:36Z</time>
      </trkpt>
      <trkpt lat="59.8894129" lon="17.8434224">
        <ele>20.325</ele>
        <time>2013-04-26T19:06:37Z</time>
      </trkpt>
      <trkpt lat="59.8893478" lon="17.8433955">
        <ele>19.8444</ele>
        <time>2013-04-26T19:06:38Z</time>
      </trkpt>
      <trkpt lat="59.8892836" lon="17.8433552">
        <ele>18.4023</ele>
        <time>2013-04-26T19:06:39Z</time>
      </trkpt>
      <trkpt lat="59.8891994" lon="17.8432511">
        <ele>18.4023</ele>
        <time>2013-04-26T19:06:40Z</time>
      </trkpt>
      <trkpt lat="59.8891487" lon="17.8432136">
        <ele>17.9218</ele>
        <time>2013-04-26T19:06:41Z</time>
      </trkpt>
      <trkpt lat="59.8890756" lon="17.8431744">
        <ele>17.4412</ele>
        <time>2013-04-26T19:06:42Z</time>
      </trkpt>
      <trkpt lat="59.8889953" lon="17.8431291">
        <ele>16.4797</ele>
        <time>2013-04-26T19:06:43Z</time>
      </trkpt>
      <trkpt lat="59.8889023" lon="17.8431129">
        <ele>15.5184</ele>
        <time>2013-04-26T19:06:44Z</time>
      </trkpt>
      <trkpt lat="59.8887964" lon="17.8430633">
        <ele>15.0377</ele>
        <time>2013-04-26T19:06:45Z</time>
      </trkpt>
      <trkpt lat="59.8887059" lon="17.8430594">
        <ele>14.557</ele>
        <time>2013-04-26T19:06:46Z</time>
      </trkpt>
      <trkpt lat="59.8886006" lon="17.8430147">
        <ele>14.557</ele>
        <time>2013-04-26T19:06:47Z</time>
      </trkpt>
      <trkpt lat="59.8885087" lon="17.8429936">
        <ele>14.0764</ele>
        <time>2013-04-26T19:06:48Z</time>
      </trkpt>
      <trkpt lat="59.8884198" lon="17.8429645">
        <ele>14.0764</ele>
        <time>2013-04-26T19:06:49Z</time>
      </trkpt>
      <trkpt lat="59.8883289" lon="17.8429157">
        <ele>14.0764</ele>
        <time>2013-04-26T19:06:50Z</time>
      </trkpt>
      <trkpt lat="59.8882401" lon="17.8428527">
        <ele>14.557</ele>
        <time>2013-04-26T19:06:51Z</time>
      </trkpt>
      <trkpt lat="59.888152" lon="17.8427805">
        <ele>15.0377</ele>
        <time>2013-04-26T19:06:52Z</time>
      </trkpt>
      <trkpt lat="59.8880664" lon="17.8427023">
        <ele>15.0377</ele>
        <time>2013-04-26T19:06:53Z</time>
      </trkpt>
      <trkpt lat="59.887985" lon="17.8426182">
        <ele>15.0377</ele>
        <time>2013-04-26T19:06:54Z</time>
      </trkpt>
      <trkpt lat="59.8878954" lon="17.8425191">
        <ele>15.999</ele>
        <time>2013-04-26T19:06:55Z</time>
      </trkpt>
      <trkpt lat="59.8878104" lon="17.8424187">
        <ele>16.4797</ele>
        <time>2013-04-26T19:06:56Z</time>
      </trkpt>
      <trkpt lat="59.8877289" lon="17.8423148">
        <ele>16.9604</ele>
        <time>2013-04-26T19:06:57Z</time>
      </trkpt>
      <trkpt lat="59.8876498" lon="17.8422042">
        <ele>17.4412</ele>
        <time>2013-04-26T19:06:58Z</time>
      </trkpt>
      <trkpt lat="59.887575" lon="17.842088">
        <ele>17.9218</ele>
        <time>2013-04-26T19:06:59Z</time>
      </trkpt>
      <trkpt lat="59.8875056" lon="17.8419662">
        <ele>18.4023</ele>
        <time>2013-04-26T19:07:00Z</time>
      </trkpt>
      <trkpt lat="59.8874437" lon="17.8418378">
        <ele>18.4023</ele>
        <time>2013-04-26T19:07:01Z</time>
      </trkpt>
      <trkpt lat="59.8873895" lon="17.8417057">
        <ele>18.8831</ele>
        <time>2013-04-26T19:07:02Z</time>
      </trkpt>
      <trkpt lat="59.8873383" lon="17.8415721">
        <ele>18.8831</ele>
        <time>2013-04-26T19:07:03Z</time>
      </trkpt>
      <trkpt lat="59.8872835" lon="17.8414366">
        <ele>18.8831</ele>
        <time>2013-04-26T19:07:04Z</time>
      </trkpt>
      <trkpt lat="59.8872224" lon="17.8413047">
        <ele>18.8831</ele>
        <time>2013-04-26T19:07:05Z</time>
      </trkpt>
      <trkpt lat="59.887153" lon="17.8411905">
        <ele>18.8831</ele>
        <time>2013-04-26T19:07:06Z</time>
      </trkpt>
      <trkpt lat="59.8870759" lon="17.8410973">
        <ele>18.4023</ele>
        <time>2013-04-26T19:07:07Z</time>
      </trkpt>
      <trkpt lat="59.886992" lon="17.8410256">
        <ele>18.4023</ele>
        <time>2013-04-26T19:07:08Z</time>
      </trkpt>
      <trkpt lat="59.8869047" lon="17.8409791">
        <ele>19.3638</ele>
        <time>2013-04-26T19:07:09Z</time>
      </trkpt>
      <trkpt lat="59.8868152" lon="17.840962">
        <ele>19.3638</ele>
        <time>2013-04-26T19:07:10Z</time>
      </trkpt>
      <trkpt lat="59.8867229" lon="17.8409695">
        <ele>19.8444</ele>
        <time>2013-04-26T19:07:11Z</time>
      </trkpt>
      <trkpt lat="59.8866292" lon="17.8409941">
        <ele>19.8444</ele>
        <time>2013-04-26T19:07:12Z</time>
      </trkpt>
      <trkpt lat="59.8865365" lon="17.8410313">
        <ele>20.325</ele>
        <time>2013-04-26T19:07:13Z</time>
      </trkpt>
      <trkpt lat="59.8864494" lon="17.8410801">
        <ele>20.325</ele>
        <time>2013-04-26T19:07:14Z</time>
      </trkpt>
      <trkpt lat="59.886363" lon="17.841128">
        <ele>19.8444</ele>
        <time>2013-04-26T19:07:15Z</time>
      </trkpt>
      <trkpt lat="59.8862776" lon="17.8411726">
        <ele>19.8444</ele>
        <time>2013-04-26T19:07:16Z</time>
      </trkpt>
      <trkpt lat="59.8861909" lon="17.8412086">
        <ele>19.3638</ele>
        <time>2013-04-26T19:07:17Z</time>
      </trkpt>
      <trkpt lat="59.886102" lon="17.8412385">
        <ele>18.8831</ele>
        <time>2013-04-26T19:07:18Z</time>
      </trkpt>
      <trkpt lat="59.8860134" lon="17.8412676">
        <ele>18.8831</ele>
        <time>2013-04-26T19:07:19Z</time>
      </trkpt>
      <trkpt lat="59.8859273" lon="17.8412945">
        <ele>18.8831</ele>
        <time>2013-04-26T19:07:20Z</time>
      </trkpt>
      <trkpt lat="59.8858415" lon="17.8413168">
        <ele>18.4023</ele>
        <time>2013-04-26T19:07:21Z</time>
      </trkpt>
      <trkpt lat="59.8857576" lon="17.8413401">
        <ele>18.4023</ele>
        <time>2013-04-26T19:07:22Z</time>
      </trkpt>
      <trkpt lat="59.8856751" lon="17.8413562">
        <ele>17.9218</ele>
        <time>2013-04-26T19:07:23Z</time>
      </trkpt>
      <trkpt lat="59.8855906" lon="17.8413653">
        <ele>18.4023</ele>
        <time>2013-04-26T19:07:24Z</time>
      </trkpt>
      <trkpt lat="59.8855087" lon="17.8413738">
        <ele>18.8831</ele>
        <time>2013-04-26T19:07:25Z</time>
      </trkpt>
      <trkpt lat="59.8854269" lon="17.8413867">
        <ele>18.8831</ele>
        <time>2013-04-26T19:07:26Z</time>
      </trkpt>
      <trkpt lat="59.8853437" lon="17.8414013">
        <ele>19.3638</ele>
        <time>2013-04-26T19:07:27Z</time>
      </trkpt>
      <trkpt lat="59.8852616" lon="17.841408">
        <ele>18.8831</ele>
        <time>2013-04-26T19:07:28Z</time>
      </trkpt>
      <trkpt lat="59.8851767" lon="17.8414189">
        <ele>18.8831</ele>
        <time>2013-04-26T19:07:29Z</time>
      </trkpt>
      <trkpt lat="59.8850886" lon="17.8414335">
        <ele>18.8831</ele>
        <time>2013-04-26T19:07:30Z</time>
      </trkpt>
      <trkpt lat="59.8849992" lon="17.8414415">
        <ele>18.8831</ele>
        <time>2013-04-26T19:07:31Z</time>
      </trkpt>
      <trkpt lat="59.8849074" lon="17.8414339">
        <ele>18.4023</ele>
        <time>2013-04-26T19:07:32Z</time>
      </trkpt>
      <trkpt lat="59.8848158" lon="17.841412">
        <ele>18.4023</ele>
        <time>2013-04-26T19:07:33Z</time>
      </trkpt>
      <trkpt lat="59.8847224" lon="17.8413691">
        <ele>18.8831</ele>
        <time>2013-04-26T19:07:34Z</time>
      </trkpt>
      <trkpt lat="59.8846306" lon="17.8413125">
        <ele>19.8444</ele>
        <time>2013-04-26T19:07:35Z</time>
      </trkpt>
      <trkpt lat="59.8845415" lon="17.8412493">
        <ele>20.325</ele>
        <time>2013-04-26T19:07:36Z</time>
      </trkpt>
      <trkpt lat="59.8844551" lon="17.841179">
        <ele>20.325</ele>
        <time>2013-04-26T19:07:37Z</time>
      </trkpt>
      <trkpt lat="59.8843714" lon="17.8411011">
        <ele>20.8057</ele>
        <time>2013-04-26T19:07:38Z</time>
      </trkpt>
      <trkpt lat="59.884292" lon="17.8410173">
        <ele>20.8057</ele>
        <time>2013-04-26T19:07:39Z</time>
      </trkpt>
      <trkpt lat="59.8842153" lon="17.8409278">
        <ele>20.8057</ele>
        <time>2013-04-26T19:07:40Z</time>
      </trkpt>
      <trkpt lat="59.8841404" lon="17.8408334">
        <ele>20.8057</ele>
        <time>2013-04-26T19:07:41Z</time>
      </trkpt>
      <trkpt lat="59.8840663" lon="17.8407355">
        <ele>20.8057</ele>
        <time>2013-04-26T19:07:42Z</time>
      </trkpt>
      <trkpt lat="59.8839931" lon="17.8406377">
        <ele>21.2864</ele>
        <time>2013-04-26T19:07:43Z</time>
      </trkpt>
      <trkpt lat="59.8839201" lon="17.8405402">
        <ele>21.2864</ele>
        <time>2013-04-26T19:07:44Z</time>
      </trkpt>
      <trkpt lat="59.8838475" lon="17.8404445">
        <ele>21.2864</ele>
        <time>2013-04-26T19:07:45Z</time>
      </trkpt>
      <trkpt lat="59.8837766" lon="17.8403502">
        <ele>21.767</ele>
        <time>2013-04-26T19:07:46Z</time>
      </trkpt>
      <trkpt lat="59.8837072" lon="17.8402574">
        <ele>21.767</ele>
        <time>2013-04-26T19:07:47Z</time>
      </trkpt>
      <trkpt lat="59.8836404" lon="17.8401674">
        <ele>22.2476</ele>
        <time>2013-04-26T19:07:48Z</time>
      </trkpt>
      <trkpt lat="59.8835757" lon="17.8400783">
        <ele>22.7283</ele>
        <time>2013-04-26T19:07:49Z</time>
      </trkpt>
      <trkpt lat="59.883513" lon="17.8399907">
        <ele>22.7283</ele>
        <time>2013-04-26T19:07:50Z</time>
      </trkpt>
      <trkpt lat="59.8834508" lon="17.8399056">
        <ele>23.209</ele>
        <time>2013-04-26T19:07:51Z</time>
      </trkpt>
      <trkpt lat="59.8833912" lon="17.8398247">
        <ele>23.6896</ele>
        <time>2013-04-26T19:07:52Z</time>
      </trkpt>
      <trkpt lat="59.8833332" lon="17.8397472">
        <ele>24.1703</ele>
        <time>2013-04-26T19:07:53Z</time>
      </trkpt>
      <trkpt lat="59.8832761" lon="17.8396706">
        <ele>24.1703</ele>
        <time>2013-04-26T19:07:54Z</time>
      </trkpt>
      <trkpt lat="59.8832208" lon="17.8395968">
        <ele>24.1703</ele>
        <time>2013-04-26T19:07:55Z</time>
      </trkpt>
      <trkpt lat="59.8831657" lon="17.839523">
        <ele>24.1703</ele>
        <time>2013-04-26T19:07:56Z</time>
      </trkpt>
      <trkpt lat="59.883112" lon="17.8394535">
        <ele>24.1703</ele>
        <time>2013-04-26T19:07:57Z</time>
      </trkpt>
      <trkpt lat="59.8830595" lon="17.8393873">
        <ele>24.651</ele>
        <time>2013-04-26T19:07:58Z</time>
      </trkpt>
      <trkpt lat="59.8830078" lon="17.8393243">
        <ele>25.1317</ele>
        <time>2013-04-26T19:07:59Z</time>
      </trkpt>
      <trkpt lat="59.8829567" lon="17.8392625">
        <ele>25.1317</ele>
        <time>2013-04-26T19:08:00Z</time>
      </trkpt>
      <trkpt lat="59.8829063" lon="17.8392031">
        <ele>25.6123</ele>
        <time>2013-04-26T19:08:01Z</time>
      </trkpt>
      <trkpt lat="59.8828551" lon="17.8391458">
        <ele>26.0929</ele>
        <time>2013-04-26T19:08:02Z</time>
      </trkpt>
      <trkpt lat="59.8828021" lon="17.8390977">
        <ele>26.0929</ele>
        <time>2013-04-26T19:08:03Z</time>
      </trkpt>
      <trkpt lat="59.8827452" lon="17.8390592">
        <ele>26.5736</ele>
        <time>2013-04-26T19:08:04Z</time>
      </trkpt>
      <trkpt lat="59.8826862" lon="17.8390289">
        <ele>26.5736</ele>
        <time>2013-04-26T19:08:05Z</time>
      </trkpt>
      <trkpt lat="59.882624" lon="17.8390042">
        <ele>26.0929</ele>
        <time>2013-04-26T19:08:06Z</time>
      </trkpt>
      <trkpt lat="59.8825577" lon="17.8389786">
        <ele>25.6123</ele>
        <time>2013-04-26T19:08:07Z</time>
      </trkpt>
      <trkpt lat="59.8824879" lon="17.8389536">
        <ele>25.6123</ele>
        <time>2013-04-26T19:08:08Z</time>
      </trkpt>
      <trkpt lat="59.8824154" lon="17.8389334">
        <ele>25.6123</ele>
        <time>2013-04-26T19:08:09Z</time>
      </trkpt>
      <trkpt lat="59.882336" lon="17.8389075">
        <ele>25.1317</ele>
        <time>2013-04-26T19:08:10Z</time>
      </trkpt>
      <trkpt lat="59.8822515" lon="17.8388698">
        <ele>24.651</ele>
        <time>2013-04-26T19:08:11Z</time>
      </trkpt>
      <trkpt lat="59.8821475" lon="17.8387752">
        <ele>24.651</ele>
        <time>2013-04-26T19:08:12Z</time>
      </trkpt>
      <trkpt lat="59.8820646" lon="17.8387071">
        <ele>24.1703</ele>
        <time>2013-04-26T19:08:13Z</time>
      </trkpt>
      <trkpt lat="59.8819867" lon="17.8386105">
        <ele>23.6896</ele>
        <time>2013-04-26T19:08:14Z</time>
      </trkpt>
      <trkpt lat="59.8819131" lon="17.8384986">
        <ele>23.209</ele>
        <time>2013-04-26T19:08:15Z</time>
      </trkpt>
      <trkpt lat="59.8818356" lon="17.8383836">
        <ele>22.7283</ele>
        <time>2013-04-26T19:08:16Z</time>
      </trkpt>
      <trkpt lat="59.8817648" lon="17.8382709">
        <ele>21.767</ele>
        <time>2013-04-26T19:08:17Z</time>
      </trkpt>
      <trkpt lat="59.8816912" lon="17.8381542">
        <ele>21.2864</ele>
        <time>2013-04-26T19:08:18Z</time>
      </trkpt>
      <trkpt lat="59.881619" lon="17.8380456">
        <ele>20.8057</ele>
        <time>2013-04-26T19:08:19Z</time>
      </trkpt>
      <trkpt lat="59.881548" lon="17.8379384">
        <ele>19.8444</ele>
        <time>2013-04-26T19:08:20Z</time>
      </trkpt>
      <trkpt lat="59.8814741" lon="17.8378326">
        <ele>19.8444</ele>
        <time>2013-04-26T19:08:21Z</time>
      </trkpt>
      <trkpt lat="59.8814005" lon="17.8377325">
        <ele>19.3638</ele>
        <time>2013-04-26T19:08:22Z</time>
      </trkpt>
      <trkpt lat="59.8813264" lon="17.8376328">
        <ele>18.8831</ele>
        <time>2013-04-26T19:08:23Z</time>
      </trkpt>
      <trkpt lat="59.8812555" lon="17.8375348">
        <ele>18.4023</ele>
        <time>2013-04-26T19:08:24Z</time>
      </trkpt>
      <trkpt lat="59.881186" lon="17.8374395">
        <ele>18.4023</ele>
        <time>2013-04-26T19:08:25Z</time>
      </trkpt>
      <trkpt lat="59.8811185" lon="17.8373395">
        <ele>17.9218</ele>
        <time>2013-04-26T19:08:26Z</time>
      </trkpt>
      <trkpt lat="59.8810508" lon="17.8372349">
        <ele>18.8831</ele>
        <time>2013-04-26T19:08:27Z</time>
      </trkpt>
      <trkpt lat="59.8809905" lon="17.837128">
        <ele>18.8831</ele>
        <time>2013-04-26T19:08:28Z</time>
      </trkpt>
      <trkpt lat="59.8809291" lon="17.8370239">
        <ele>19.3638</ele>
        <time>2013-04-26T19:08:29Z</time>
      </trkpt>
      <trkpt lat="59.8808657" lon="17.8369147">
        <ele>19.3638</ele>
        <time>2013-04-26T19:08:30Z</time>
      </trkpt>
      <trkpt lat="59.8808017" lon="17.8368086">
        <ele>19.8444</ele>
        <time>2013-04-26T19:08:31Z</time>
      </trkpt>
      <trkpt lat="59.8807374" lon="17.8367032">
        <ele>19.3638</ele>
        <time>2013-04-26T19:08:32Z</time>
      </trkpt>
      <trkpt lat="59.8806721" lon="17.8365978">
        <ele>19.3638</ele>
        <time>2013-04-26T19:08:33Z</time>
      </trkpt>
      <trkpt lat="59.8806041" lon="17.8364952">
        <ele>18.4023</ele>
        <time>2013-04-26T19:08:34Z</time>
      </trkpt>
      <trkpt lat="59.8805339" lon="17.8363988">
        <ele>18.4023</ele>
        <time>2013-04-26T19:08:35Z</time>
      </trkpt>
      <trkpt lat="59.8804588" lon="17.836303">
        <ele>17.4412</ele>
        <time>2013-04-26T19:08:36Z</time>
      </trkpt>
      <trkpt lat="59.8803803" lon="17.8362097">
        <ele>16.4797</ele>
        <time>2013-04-26T19:08:37Z</time>
      </trkpt>
      <trkpt lat="59.8802936" lon="17.8361278">
        <ele>16.4797</ele>
        <time>2013-04-26T19:08:38Z</time>
      </trkpt>
      <trkpt lat="59.8801978" lon="17.8360321">
        <ele>16.9604</ele>
        <time>2013-04-26T19:08:39Z</time>
      </trkpt>
      <trkpt lat="59.8801195" lon="17.8359511">
        <ele>17.4412</ele>
        <time>2013-04-26T19:08:40Z</time>
      </trkpt>
      <trkpt lat="59.8800364" lon="17.8358772">
        <ele>17.4412</ele>
        <time>2013-04-26T19:08:41Z</time>
      </trkpt>
      <trkpt lat="59.8799615" lon="17.8358233">
        <ele>17.9218</ele>
        <time>2013-04-26T19:08:42Z</time>
      </trkpt>
      <trkpt lat="59.8798828" lon="17.8357643">
        <ele>17.4412</ele>
        <time>2013-04-26T19:08:43Z</time>
      </trkpt>
      <trkpt lat="59.87982" lon="17.8357229">
        <ele>16.9604</ele>
        <time>2013-04-26T19:08:44Z</time>
      </trkpt>
      <trkpt lat="59.8797603" lon="17.835702">
        <ele>16.4797</ele>
        <time>2013-04-26T19:08:45Z</time>
      </trkpt>
      <trkpt lat="59.8796911" lon="17.8357097">
        <ele>16.4797</ele>
        <time>2013-04-26T19:08:46Z</time>
      </trkpt>
      <trkpt lat="59.8795893" lon="17.8358066">
        <ele>18.8831</ele>
        <time>2013-04-26T19:08:47Z</time>
      </trkpt>
      <trkpt lat="59.8795412" lon="17.8358093">
        <ele>20.325</ele>
        <time>2013-04-26T19:08:48Z</time>
      </trkpt>
      <trkpt lat="59.8794664" lon="17.8358082">
        <ele>21.767</ele>
        <time>2013-04-26T19:08:49Z</time>
      </trkpt>
      <trkpt lat="59.879375" lon="17.8358119">
        <ele>22.7283</ele>
        <time>2013-04-26T19:08:50Z</time>
      </trkpt>
      <trkpt lat="59.8792734" lon="17.8357813">
        <ele>23.6896</ele>
        <time>2013-04-26T19:08:51Z</time>
      </trkpt>
      <trkpt lat="59.8791768" lon="17.8357739">
        <ele>23.6896</ele>
        <time>2013-04-26T19:08:52Z</time>
      </trkpt>
      <trkpt lat="59.879086" lon="17.8357622">
        <ele>23.6896</ele>
        <time>2013-04-26T19:08:53Z</time>
      </trkpt>
      <trkpt lat="59.8789988" lon="17.8357445">
        <ele>23.6896</ele>
        <time>2013-04-26T19:08:54Z</time>
      </trkpt>
      <trkpt lat="59.8789162" lon="17.8357057">
        <ele>23.6896</ele>
        <time>2013-04-26T19:08:55Z</time>
      </trkpt>
      <trkpt lat="59.8788331" lon="17.8356534">
        <ele>23.209</ele>
        <time>2013-04-26T19:08:56Z</time>
      </trkpt>
      <trkpt lat="59.878742" lon="17.8355634">
        <ele>23.209</ele>
        <time>2013-04-26T19:08:57Z</time>
      </trkpt>
      <trkpt lat="59.8786533" lon="17.8354747">
        <ele>23.209</ele>
        <time>2013-04-26T19:08:58Z</time>
      </trkpt>
      <trkpt lat="59.8785678" lon="17.8354032">
        <ele>23.209</ele>
        <time>2013-04-26T19:08:59Z</time>
      </trkpt>
      <trkpt lat="59.8784847" lon="17.8353338">
        <ele>23.209</ele>
        <time>2013-04-26T19:09:00Z</time>
      </trkpt>
      <trkpt lat="59.8783985" lon="17.8352468">
        <ele>23.209</ele>
        <time>2013-04-26T19:09:01Z</time>
      </trkpt>
      <trkpt lat="59.8783145" lon="17.8351751">
        <ele>22.7283</ele>
        <time>2013-04-26T19:09:02Z</time>
      </trkpt>
      <trkpt lat="59.8782194" lon="17.8350509">
        <ele>23.209</ele>
        <time>2013-04-26T19:09:03Z</time>
      </trkpt>
      <trkpt lat="59.8781293" lon="17.8349752">
        <ele>22.7283</ele>
        <time>2013-04-26T19:09:04Z</time>
      </trkpt>
      <trkpt lat="59.8780443" lon="17.8349011">
        <ele>22.7283</ele>
        <time>2013-04-26T19:09:05Z</time>
      </trkpt>
      <trkpt lat="59.8779623" lon="17.8348178">
        <ele>22.7283</ele>
        <time>2013-04-26T19:09:06Z</time>
      </trkpt>
      <trkpt lat="59.8778862" lon="17.8347527">
        <ele>22.2476</ele>
        <time>2013-04-26T19:09:07Z</time>
      </trkpt>
      <trkpt lat="59.8778111" lon="17.8346721">
        <ele>22.2476</ele>
        <time>2013-04-26T19:09:08Z</time>
      </trkpt>
      <trkpt lat="59.8777369" lon="17.8345887">
        <ele>22.7283</ele>
        <time>2013-04-26T19:09:09Z</time>
      </trkpt>
      <trkpt lat="59.8776659" lon="17.834506">
        <ele>22.7283</ele>
        <time>2013-04-26T19:09:10Z</time>
      </trkpt>
      <trkpt lat="59.8776005" lon="17.8344241">
        <ele>21.767</ele>
        <time>2013-04-26T19:09:11Z</time>
      </trkpt>
      <trkpt lat="59.8775351" lon="17.8343491">
        <ele>21.767</ele>
        <time>2013-04-26T19:09:12Z</time>
      </trkpt>
      <trkpt lat="59.8774666" lon="17.8342566">
        <ele>21.2864</ele>
        <time>2013-04-26T19:09:13Z</time>
      </trkpt>
      <trkpt lat="59.8773968" lon="17.8341704">
        <ele>21.2864</ele>
        <time>2013-04-26T19:09:14Z</time>
      </trkpt>
      <trkpt lat="59.8773263" lon="17.8340828">
        <ele>21.2864</ele>
        <time>2013-04-26T19:09:15Z</time>
      </trkpt>
      <trkpt lat="59.8772564" lon="17.8339926">
        <ele>21.767</ele>
        <time>2013-04-26T19:09:16Z</time>
      </trkpt>
      <trkpt lat="59.8771854" lon="17.8339072">
        <ele>22.2476</ele>
        <time>2013-04-26T19:09:17Z</time>
      </trkpt>
      <trkpt lat="59.8771041" lon="17.8338123">
        <ele>21.2864</ele>
        <time>2013-04-26T19:09:18Z</time>
      </trkpt>
      <trkpt lat="59.8770161" lon="17.8337074">
        <ele>19.8444</ele>
        <time>2013-04-26T19:09:19Z</time>
      </trkpt>
      <trkpt lat="59.8769367" lon="17.8336206">
        <ele>19.8444</ele>
        <time>2013-04-26T19:09:20Z</time>
      </trkpt>
      <trkpt lat="59.8768569" lon="17.8335662">
        <ele>20.325</ele>
        <time>2013-04-26T19:09:21Z</time>
      </trkpt>
      <trkpt lat="59.8767913" lon="17.8335259">
        <ele>20.8057</ele>
        <time>2013-04-26T19:09:22Z</time>
      </trkpt>
      <trkpt lat="59.8767317" lon="17.8335011">
        <ele>21.2864</ele>
        <time>2013-04-26T19:09:23Z</time>
      </trkpt>
      <trkpt lat="59.8766658" lon="17.8334553">
        <ele>21.2864</ele>
        <time>2013-04-26T19:09:24Z</time>
      </trkpt>
      <trkpt lat="59.8766028" lon="17.8334216">
        <ele>21.767</ele>
        <time>2013-04-26T19:09:25Z</time>
      </trkpt>
      <trkpt lat="59.8765435" lon="17.8334348">
        <ele>22.7283</ele>
        <time>2013-04-26T19:09:26Z</time>
      </trkpt>
      <trkpt lat="59.876484" lon="17.8334151">
        <ele>24.1703</ele>
        <time>2013-04-26T19:09:27Z</time>
      </trkpt>
      <trkpt lat="59.8764232" lon="17.8333674">
        <ele>24.651</ele>
        <time>2013-04-26T19:09:28Z</time>
      </trkpt>
      <trkpt lat="59.8763717" lon="17.8333193">
        <ele>25.6123</ele>
        <time>2013-04-26T19:09:29Z</time>
      </trkpt>
      <trkpt lat="59.8763188" lon="17.8332795">
        <ele>26.5736</ele>
        <time>2013-04-26T19:09:30Z</time>
      </trkpt>
      <trkpt lat="59.8762645" lon="17.8332213">
        <ele>25.6123</ele>
        <time>2013-04-26T19:09:31Z</time>
      </trkpt>
      <trkpt lat="59.8761877" lon="17.8331626">
        <ele>23.6896</ele>
        <time>2013-04-26T19:09:32Z</time>
      </trkpt>
      <trkpt lat="59.8761111" lon="17.8331028">
        <ele>22.7283</ele>
        <time>2013-04-26T19:09:33Z</time>
      </trkpt>
      <trkpt lat="59.8760394" lon="17.8330344">
        <ele>22.7283</ele>
        <time>2013-04-26T19:09:34Z</time>
      </trkpt>
      <trkpt lat="59.8759672" lon="17.8329546">
        <ele>22.2476</ele>
        <time>2013-04-26T19:09:35Z</time>
      </trkpt>
      <trkpt lat="59.8758949" lon="17.8328815">
        <ele>22.2476</ele>
        <time>2013-04-26T19:09:36Z</time>
      </trkpt>
      <trkpt lat="59.875819" lon="17.8328043">
        <ele>21.767</ele>
        <time>2013-04-26T19:09:37Z</time>
      </trkpt>
      <trkpt lat="59.8757439" lon="17.8327287">
        <ele>22.2476</ele>
        <time>2013-04-26T19:09:38Z</time>
      </trkpt>
      <trkpt lat="59.8756714" lon="17.8326562">
        <ele>21.767</ele>
        <time>2013-04-26T19:09:39Z</time>
      </trkpt>
      <trkpt lat="59.8755977" lon="17.8325913">
        <ele>20.8057</ele>
        <time>2013-04-26T19:09:40Z</time>
      </trkpt>
      <trkpt lat="59.8755195" lon="17.8325329">
        <ele>19.8444</ele>
        <time>2013-04-26T19:09:41Z</time>
      </trkpt>
      <trkpt lat="59.8754287" lon="17.8324845">
        <ele>19.3638</ele>
        <time>2013-04-26T19:09:42Z</time>
      </trkpt>
      <trkpt lat="59.8753362" lon="17.8324329">
        <ele>18.4023</ele>
        <time>2013-04-26T19:09:43Z</time>
      </trkpt>
      <trkpt lat="59.8752512" lon="17.8324087">
        <ele>17.9218</ele>
        <time>2013-04-26T19:09:44Z</time>
      </trkpt>
      <trkpt lat="59.8751655" lon="17.8323858">
        <ele>17.9218</ele>
        <time>2013-04-26T19:09:45Z</time>
      </trkpt>
      <trkpt lat="59.8750777" lon="17.8323538">
        <ele>17.9218</ele>
        <time>2013-04-26T19:09:46Z</time>
      </trkpt>
      <trkpt lat="59.8749835" lon="17.8323185">
        <ele>18.4023</ele>
        <time>2013-04-26T19:09:47Z</time>
      </trkpt>
      <trkpt lat="59.8748953" lon="17.8322952">
        <ele>18.4023</ele>
        <time>2013-04-26T19:09:48Z</time>
      </trkpt>
      <trkpt lat="59.8748108" lon="17.832278">
        <ele>18.4023</ele>
        <time>2013-04-26T19:09:49Z</time>
      </trkpt>
      <trkpt lat="59.8747239" lon="17.8322553">
        <ele>18.8831</ele>
        <time>2013-04-26T19:09:50Z</time>
      </trkpt>
      <trkpt lat="59.874638" lon="17.8322329">
        <ele>18.8831</ele>
        <time>2013-04-26T19:09:51Z</time>
      </trkpt>
      <trkpt lat="59.8745503" lon="17.8321993">
        <ele>18.8831</ele>
        <time>2013-04-26T19:09:52Z</time>
      </trkpt>
      <trkpt lat="59.8744615" lon="17.8321461">
        <ele>18.8831</ele>
        <time>2013-04-26T19:09:53Z</time>
      </trkpt>
      <trkpt lat="59.8743867" lon="17.8320758">
        <ele>19.3638</ele>
        <time>2013-04-26T19:09:54Z</time>
      </trkpt>
      <trkpt lat="59.8743152" lon="17.831993">
        <ele>19.8444</ele>
        <time>2013-04-26T19:09:55Z</time>
      </trkpt>
      <trkpt lat="59.8742456" lon="17.8319346">
        <ele>19.8444</ele>
        <time>2013-04-26T19:09:56Z</time>
      </trkpt>
      <trkpt lat="59.8741774" lon="17.8318714">
        <ele>19.8444</ele>
        <time>2013-04-26T19:09:57Z</time>
      </trkpt>
      <trkpt lat="59.8741111" lon="17.8317973">
        <ele>20.325</ele>
        <time>2013-04-26T19:09:58Z</time>
      </trkpt>
      <trkpt lat="59.8740462" lon="17.8317182">
        <ele>20.325</ele>
        <time>2013-04-26T19:09:59Z</time>
      </trkpt>
      <trkpt lat="59.8739811" lon="17.8316366">
        <ele>20.325</ele>
        <time>2013-04-26T19:10:00Z</time>
      </trkpt>
      <trkpt lat="59.8739153" lon="17.8315554">
        <ele>20.325</ele>
        <time>2013-04-26T19:10:01Z</time>
      </trkpt>
      <trkpt lat="59.8738505" lon="17.8314715">
        <ele>19.8444</ele>
        <time>2013-04-26T19:10:02Z</time>
      </trkpt>
      <trkpt lat="59.8737869" lon="17.8313855">
        <ele>19.8444</ele>
        <time>2013-04-26T19:10:03Z</time>
      </trkpt>
      <trkpt lat="59.8737201" lon="17.8313002">
        <ele>19.3638</ele>
        <time>2013-04-26T19:10:04Z</time>
      </trkpt>
      <trkpt lat="59.873647" lon="17.8312135">
        <ele>19.3638</ele>
        <time>2013-04-26T19:10:05Z</time>
      </trkpt>
      <trkpt lat="59.8735742" lon="17.8311321">
        <ele>19.3638</ele>
        <time>2013-04-26T19:10:06Z</time>
      </trkpt>
      <trkpt lat="59.873497" lon="17.8310529">
        <ele>18.8831</ele>
        <time>2013-04-26T19:10:07Z</time>
      </trkpt>
      <trkpt lat="59.8734115" lon="17.8309745">
        <ele>18.8831</ele>
        <time>2013-04-26T19:10:08Z</time>
      </trkpt>
      <trkpt lat="59.8733247" lon="17.8309022">
        <ele>18.8831</ele>
        <time>2013-04-26T19:10:09Z</time>
      </trkpt>
      <trkpt lat="59.8732387" lon="17.830835">
        <ele>18.8831</ele>
        <time>2013-04-26T19:10:10Z</time>
      </trkpt>
      <trkpt lat="59.8731542" lon="17.8307721">
        <ele>18.8831</ele>
        <time>2013-04-26T19:10:11Z</time>
      </trkpt>
      <trkpt lat="59.8730663" lon="17.8307095">
        <ele>18.8831</ele>
        <time>2013-04-26T19:10:12Z</time>
      </trkpt>
      <trkpt lat="59.872977" lon="17.8306551">
        <ele>18.8831</ele>
        <time>2013-04-26T19:10:13Z</time>
      </trkpt>
      <trkpt lat="59.8728858" lon="17.8306131">
        <ele>18.8831</ele>
        <time>2013-04-26T19:10:14Z</time>
      </trkpt>
      <trkpt lat="59.8727927" lon="17.8305759">
        <ele>18.8831</ele>
        <time>2013-04-26T19:10:15Z</time>
      </trkpt>
      <trkpt lat="59.8726988" lon="17.8305381">
        <ele>18.4023</ele>
        <time>2013-04-26T19:10:16Z</time>
      </trkpt>
      <trkpt lat="59.8726038" lon="17.8304923">
        <ele>18.4023</ele>
        <time>2013-04-26T19:10:17Z</time>
      </trkpt>
      <trkpt lat="59.8725092" lon="17.8304386">
        <ele>17.4412</ele>
        <time>2013-04-26T19:10:18Z</time>
      </trkpt>
      <trkpt lat="59.8724136" lon="17.8303705">
        <ele>16.9604</ele>
        <time>2013-04-26T19:10:19Z</time>
      </trkpt>
      <trkpt lat="59.8723176" lon="17.8302913">
        <ele>16.4797</ele>
        <time>2013-04-26T19:10:20Z</time>
      </trkpt>
      <trkpt lat="59.8722203" lon="17.8302044">
        <ele>15.999</ele>
        <time>2013-04-26T19:10:21Z</time>
      </trkpt>
      <trkpt lat="59.872123" lon="17.8301148">
        <ele>15.999</ele>
        <time>2013-04-26T19:10:22Z</time>
      </trkpt>
      <trkpt lat="59.8720262" lon="17.8300271">
        <ele>15.5184</ele>
        <time>2013-04-26T19:10:23Z</time>
      </trkpt>
      <trkpt lat="59.8719272" lon="17.8299366">
        <ele>15.5184</ele>
        <time>2013-04-26T19:10:24Z</time>
      </trkpt>
      <trkpt lat="59.8718266" lon="17.8298443">
        <ele>15.0377</ele>
        <time>2013-04-26T19:10:25Z</time>
      </trkpt>
      <trkpt lat="59.8717256" lon="17.8297517">
        <ele>15.0377</ele>
        <time>2013-04-26T19:10:26Z</time>
      </trkpt>
      <trkpt lat="59.8716225" lon="17.8296567">
        <ele>14.557</ele>
        <time>2013-04-26T19:10:27Z</time>
      </trkpt>
      <trkpt lat="59.8715189" lon="17.829561">
        <ele>14.557</ele>
        <time>2013-04-26T19:10:28Z</time>
      </trkpt>
      <trkpt lat="59.8714152" lon="17.8294661">
        <ele>14.557</ele>
        <time>2013-04-26T19:10:29Z</time>
      </trkpt>
      <trkpt lat="59.8713116" lon="17.8293725">
        <ele>15.0377</ele>
        <time>2013-04-26T19:10:30Z</time>
      </trkpt>
      <trkpt lat="59.8712092" lon="17.8292782">
        <ele>15.0377</ele>
        <time>2013-04-26T19:10:31Z</time>
      </trkpt>
      <trkpt lat="59.871108" lon="17.8291819">
        <ele>15.0377</ele>
        <time>2013-04-26T19:10:32Z</time>
      </trkpt>
      <trkpt lat="59.8710075" lon="17.8290859">
        <ele>15.0377</ele>
        <time>2013-04-26T19:10:33Z</time>
      </trkpt>
      <trkpt lat="59.8709068" lon="17.8289911">
        <ele>15.0377</ele>
        <time>2013-04-26T19:10:34Z</time>
      </trkpt>
      <trkpt lat="59.8708076" lon="17.8288966">
        <ele>15.5184</ele>
        <time>2013-04-26T19:10:35Z</time>
      </trkpt>
      <trkpt lat="59.8707099" lon="17.8288034">
        <ele>15.5184</ele>
        <time>2013-04-26T19:10:36Z</time>
      </trkpt>
      <trkpt lat="59.8706125" lon="17.8287117">
        <ele>15.999</ele>
        <time>2013-04-26T19:10:37Z</time>
      </trkpt>
      <trkpt lat="59.8705165" lon="17.8286218">
        <ele>15.999</ele>
        <time>2013-04-26T19:10:38Z</time>
      </trkpt>
      <trkpt lat="59.8704229" lon="17.8285318">
        <ele>16.4797</ele>
        <time>2013-04-26T19:10:39Z</time>
      </trkpt>
      <trkpt lat="59.8703316" lon="17.8284427">
        <ele>16.9604</ele>
        <time>2013-04-26T19:10:40Z</time>
      </trkpt>
      <trkpt lat="59.8702416" lon="17.828355">
        <ele>16.9604</ele>
        <time>2013-04-26T19:10:41Z</time>
      </trkpt>
      <trkpt lat="59.8701529" lon="17.8282685">
        <ele>17.4412</ele>
        <time>2013-04-26T19:10:42Z</time>
      </trkpt>
      <trkpt lat="59.8700667" lon="17.8281811">
        <ele>17.9218</ele>
        <time>2013-04-26T19:10:43Z</time>
      </trkpt>
      <trkpt lat="59.8699837" lon="17.828091">
        <ele>18.4023</ele>
        <time>2013-04-26T19:10:44Z</time>
      </trkpt>
      <trkpt lat="59.8699048" lon="17.8279977">
        <ele>18.8831</ele>
        <time>2013-04-26T19:10:45Z</time>
      </trkpt>
      <trkpt lat="59.8698288" lon="17.8279005">
        <ele>18.8831</ele>
        <time>2013-04-26T19:10:46Z</time>
      </trkpt>
      <trkpt lat="59.869756" lon="17.8277994">
        <ele>19.3638</ele>
        <time>2013-04-26T19:10:47Z</time>
      </trkpt>
      <trkpt lat="59.8696857" lon="17.8276955">
        <ele>19.8444</ele>
        <time>2013-04-26T19:10:48Z</time>
      </trkpt>
      <trkpt lat="59.8696192" lon="17.827586">
        <ele>19.8444</ele>
        <time>2013-04-26T19:10:49Z</time>
      </trkpt>
      <trkpt lat="59.8695565" lon="17.8274721">
        <ele>20.325</ele>
        <time>2013-04-26T19:10:50Z</time>
      </trkpt>
      <trkpt lat="59.8694947" lon="17.8273559">
        <ele>20.325</ele>
        <time>2013-04-26T19:10:51Z</time>
      </trkpt>
      <trkpt lat="59.8694325" lon="17.8272416">
        <ele>20.8057</ele>
        <time>2013-04-26T19:10:52Z</time>
      </trkpt>
      <trkpt lat="59.8693682" lon="17.8271315">
        <ele>20.8057</ele>
        <time>2013-04-26T19:10:53Z</time>
      </trkpt>
      <trkpt lat="59.8693033" lon="17.8270232">
        <ele>20.8057</ele>
        <time>2013-04-26T19:10:54Z</time>
      </trkpt>
      <trkpt lat="59.8692381" lon="17.826916">
        <ele>20.8057</ele>
        <time>2013-04-26T19:10:55Z</time>
      </trkpt>
      <trkpt lat="59.8691738" lon="17.8268075">
        <ele>20.8057</ele>
        <time>2013-04-26T19:10:56Z</time>
      </trkpt>
      <trkpt lat="59.8691092" lon="17.8266973">
        <ele>20.8057</ele>
        <time>2013-04-26T19:10:57Z</time>
      </trkpt>
      <trkpt lat="59.8690455" lon="17.8265852">
        <ele>20.8057</ele>
        <time>2013-04-26T19:10:58Z</time>
      </trkpt>
      <trkpt lat="59.8689837" lon="17.8264716">
        <ele>20.8057</ele>
        <time>2013-04-26T19:10:59Z</time>
      </trkpt>
      <trkpt lat="59.8689227" lon="17.8263563">
        <ele>20.8057</ele>
        <time>2013-04-26T19:11:00Z</time>
      </trkpt>
      <trkpt lat="59.8688631" lon="17.8262438">
        <ele>21.2864</ele>
        <time>2013-04-26T19:11:01Z</time>
      </trkpt>
      <trkpt lat="59.868803" lon="17.8261345">
        <ele>21.767</ele>
        <time>2013-04-26T19:11:02Z</time>
      </trkpt>
      <trkpt lat="59.8687438" lon="17.8260294">
        <ele>21.767</ele>
        <time>2013-04-26T19:11:03Z</time>
      </trkpt>
      <trkpt lat="59.8686859" lon="17.8259279">
        <ele>21.767</ele>
        <time>2013-04-26T19:11:04Z</time>
      </trkpt>
      <trkpt lat="59.8686277" lon="17.8258339">
        <ele>21.767</ele>
        <time>2013-04-26T19:11:05Z</time>
      </trkpt>
      <trkpt lat="59.868559" lon="17.8257479">
        <ele>21.767</ele>
        <time>2013-04-26T19:11:06Z</time>
      </trkpt>
      <trkpt lat="59.8684992" lon="17.8256796">
        <ele>21.767</ele>
        <time>2013-04-26T19:11:07Z</time>
      </trkpt>
      <trkpt lat="59.8684335" lon="17.8256285">
        <ele>21.767</ele>
        <time>2013-04-26T19:11:08Z</time>
      </trkpt>
      <trkpt lat="59.8683591" lon="17.8256088">
        <ele>21.2864</ele>
        <time>2013-04-26T19:11:09Z</time>
      </trkpt>
      <trkpt lat="59.8682777" lon="17.8255844">
        <ele>21.2864</ele>
        <time>2013-04-26T19:11:10Z</time>
      </trkpt>
      <trkpt lat="59.8681975" lon="17.8255909">
        <ele>20.8057</ele>
        <time>2013-04-26T19:11:11Z</time>
      </trkpt>
      <trkpt lat="59.8681181" lon="17.8256219">
        <ele>20.8057</ele>
        <time>2013-04-26T19:11:12Z</time>
      </trkpt>
      <trkpt lat="59.868039" lon="17.8256577">
        <ele>20.8057</ele>
        <time>2013-04-26T19:11:13Z</time>
      </trkpt>
      <trkpt lat="59.8679582" lon="17.8257128">
        <ele>20.8057</ele>
        <time>2013-04-26T19:11:14Z</time>
      </trkpt>
      <trkpt lat="59.8678751" lon="17.8257739">
        <ele>20.325</ele>
        <time>2013-04-26T19:11:15Z</time>
      </trkpt>
      <trkpt lat="59.8677913" lon="17.8258346">
        <ele>20.325</ele>
        <time>2013-04-26T19:11:16Z</time>
      </trkpt>
      <trkpt lat="59.8677052" lon="17.8258962">
        <ele>19.8444</ele>
        <time>2013-04-26T19:11:17Z</time>
      </trkpt>
      <trkpt lat="59.8676168" lon="17.8259569">
        <ele>19.8444</ele>
        <time>2013-04-26T19:11:18Z</time>
      </trkpt>
      <trkpt lat="59.8675285" lon="17.8260203">
        <ele>19.8444</ele>
        <time>2013-04-26T19:11:19Z</time>
      </trkpt>
      <trkpt lat="59.8674386" lon="17.8260847">
        <ele>19.8444</ele>
        <time>2013-04-26T19:11:20Z</time>
      </trkpt>
      <trkpt lat="59.8673458" lon="17.8261495">
        <ele>19.3638</ele>
        <time>2013-04-26T19:11:21Z</time>
      </trkpt>
      <trkpt lat="59.867251" lon="17.8262141">
        <ele>19.3638</ele>
        <time>2013-04-26T19:11:22Z</time>
      </trkpt>
      <trkpt lat="59.8671548" lon="17.8262774">
        <ele>18.8831</ele>
        <time>2013-04-26T19:11:23Z</time>
      </trkpt>
      <trkpt lat="59.8670584" lon="17.8263395">
        <ele>18.8831</ele>
        <time>2013-04-26T19:11:24Z</time>
      </trkpt>
      <trkpt lat="59.8669605" lon="17.8264003">
        <ele>18.4023</ele>
        <time>2013-04-26T19:11:25Z</time>
      </trkpt>
      <trkpt lat="59.8668623" lon="17.8264597">
        <ele>17.9218</ele>
        <time>2013-04-26T19:11:26Z</time>
      </trkpt>
      <trkpt lat="59.8667631" lon="17.8265261">
        <ele>17.9218</ele>
        <time>2013-04-26T19:11:27Z</time>
      </trkpt>
      <trkpt lat="59.8666636" lon="17.8265862">
        <ele>17.9218</ele>
        <time>2013-04-26T19:11:28Z</time>
      </trkpt>
      <trkpt lat="59.8665651" lon="17.8266364">
        <ele>17.9218</ele>
        <time>2013-04-26T19:11:29Z</time>
      </trkpt>
      <trkpt lat="59.8664673" lon="17.8266721">
        <ele>17.9218</ele>
        <time>2013-04-26T19:11:30Z</time>
      </trkpt>
      <trkpt lat="59.8663702" lon="17.8267002">
        <ele>17.9218</ele>
        <time>2013-04-26T19:11:31Z</time>
      </trkpt>
      <trkpt lat="59.8662735" lon="17.8267175">
        <ele>17.9218</ele>
        <time>2013-04-26T19:11:32Z</time>
      </trkpt>
      <trkpt lat="59.8661777" lon="17.826725">
        <ele>17.9218</ele>
        <time>2013-04-26T19:11:33Z</time>
      </trkpt>
      <trkpt lat="59.8660832" lon="17.826721">
        <ele>18.4023</ele>
        <time>2013-04-26T19:11:34Z</time>
      </trkpt>
      <trkpt lat="59.8659876" lon="17.8267153">
        <ele>18.4023</ele>
        <time>2013-04-26T19:11:35Z</time>
      </trkpt>
      <trkpt lat="59.8658922" lon="17.8267056">
        <ele>17.9218</ele>
        <time>2013-04-26T19:11:36Z</time>
      </trkpt>
      <trkpt lat="59.8657975" lon="17.8266898">
        <ele>17.9218</ele>
        <time>2013-04-26T19:11:37Z</time>
      </trkpt>
      <trkpt lat="59.8657022" lon="17.8266706">
        <ele>17.4412</ele>
        <time>2013-04-26T19:11:38Z</time>
      </trkpt>
      <trkpt lat="59.8656067" lon="17.8266555">
        <ele>17.9218</ele>
        <time>2013-04-26T19:11:39Z</time>
      </trkpt>
      <trkpt lat="59.8655143" lon="17.8266344">
        <ele>17.9218</ele>
        <time>2013-04-26T19:11:40Z</time>
      </trkpt>
      <trkpt lat="59.8654247" lon="17.8266113">
        <ele>17.9218</ele>
        <time>2013-04-26T19:11:41Z</time>
      </trkpt>
      <trkpt lat="59.865337" lon="17.8265946">
        <ele>17.9218</ele>
        <time>2013-04-26T19:11:42Z</time>
      </trkpt>
      <trkpt lat="59.8652526" lon="17.8265732">
        <ele>18.4023</ele>
        <time>2013-04-26T19:11:43Z</time>
      </trkpt>
      <trkpt lat="59.8651722" lon="17.8265362">
        <ele>18.4023</ele>
        <time>2013-04-26T19:11:44Z</time>
      </trkpt>
      <trkpt lat="59.8650977" lon="17.8264763">
        <ele>17.9218</ele>
        <time>2013-04-26T19:11:45Z</time>
      </trkpt>
      <trkpt lat="59.8650303" lon="17.8263914">
        <ele>17.9218</ele>
        <time>2013-04-26T19:11:46Z</time>
      </trkpt>
      <trkpt lat="59.8649681" lon="17.8262918">
        <ele>17.4412</ele>
        <time>2013-04-26T19:11:47Z</time>
      </trkpt>
      <trkpt lat="59.8649092" lon="17.8261833">
        <ele>16.9604</ele>
        <time>2013-04-26T19:11:48Z</time>
      </trkpt>
      <trkpt lat="59.8648521" lon="17.8260666">
        <ele>16.9604</ele>
        <time>2013-04-26T19:11:49Z</time>
      </trkpt>
      <trkpt lat="59.8647953" lon="17.8259395">
        <ele>16.4797</ele>
        <time>2013-04-26T19:11:50Z</time>
      </trkpt>
      <trkpt lat="59.864736" lon="17.8258038">
        <ele>15.999</ele>
        <time>2013-04-26T19:11:51Z</time>
      </trkpt>
      <trkpt lat="59.8646714" lon="17.825663">
        <ele>15.0377</ele>
        <time>2013-04-26T19:11:52Z</time>
      </trkpt>
      <trkpt lat="59.8646057" lon="17.825517">
        <ele>14.557</ele>
        <time>2013-04-26T19:11:53Z</time>
      </trkpt>
      <trkpt lat="59.8645403" lon="17.8253688">
        <ele>13.5958</ele>
        <time>2013-04-26T19:11:54Z</time>
      </trkpt>
      <trkpt lat="59.8644724" lon="17.8252176">
        <ele>13.1151</ele>
        <time>2013-04-26T19:11:55Z</time>
      </trkpt>
      <trkpt lat="59.864403" lon="17.8250669">
        <ele>12.1538</ele>
        <time>2013-04-26T19:11:56Z</time>
      </trkpt>
      <trkpt lat="59.8643366" lon="17.8249146">
        <ele>12.1538</ele>
        <time>2013-04-26T19:11:57Z</time>
      </trkpt>
      <trkpt lat="59.8642709" lon="17.8247622">
        <ele>11.6732</ele>
        <time>2013-04-26T19:11:58Z</time>
      </trkpt>
      <trkpt lat="59.8642062" lon="17.824613">
        <ele>11.1925</ele>
        <time>2013-04-26T19:11:59Z</time>
      </trkpt>
      <trkpt lat="59.8641399" lon="17.8244661">
        <ele>11.1925</ele>
        <time>2013-04-26T19:12:00Z</time>
      </trkpt>
      <trkpt lat="59.8640731" lon="17.8243198">
        <ele>10.7118</ele>
        <time>2013-04-26T19:12:01Z</time>
      </trkpt>
      <trkpt lat="59.8640058" lon="17.8241728">
        <ele>10.7118</ele>
        <time>2013-04-26T19:12:02Z</time>
      </trkpt>
      <trkpt lat="59.8639434" lon="17.8240256">
        <ele>10.2312</ele>
        <time>2013-04-26T19:12:03Z</time>
      </trkpt>
      <trkpt lat="59.863881" lon="17.8238785">
        <ele>10.2312</ele>
        <time>2013-04-26T19:12:04Z</time>
      </trkpt>
      <trkpt lat="59.8638185" lon="17.8237335">
        <ele>9.75061</ele>
        <time>2013-04-26T19:12:05Z</time>
      </trkpt>
      <trkpt lat="59.8637559" lon="17.82359">
        <ele>9.75061</ele>
        <time>2013-04-26T19:12:06Z</time>
      </trkpt>
      <trkpt lat="59.863694" lon="17.8234481">
        <ele>9.75061</ele>
        <time>2013-04-26T19:12:07Z</time>
      </trkpt>
      <trkpt lat="59.8636341" lon="17.8233092">
        <ele>9.75061</ele>
        <time>2013-04-26T19:12:08Z</time>
      </trkpt>
      <trkpt lat="59.8635763" lon="17.8231704">
        <ele>10.2312</ele>
        <time>2013-04-26T19:12:09Z</time>
      </trkpt>
      <trkpt lat="59.8635218" lon="17.8230321">
        <ele>10.2312</ele>
        <time>2013-04-26T19:12:10Z</time>
      </trkpt>
      <trkpt lat="59.8634688" lon="17.8228959">
        <ele>10.2312</ele>
        <time>2013-04-26T19:12:11Z</time>
      </trkpt>
      <trkpt lat="59.8634178" lon="17.8227604">
        <ele>10.7118</ele>
        <time>2013-04-26T19:12:12Z</time>
      </trkpt>
      <trkpt lat="59.8633691" lon="17.822627">
        <ele>10.7118</ele>
        <time>2013-04-26T19:12:13Z</time>
      </trkpt>
      <trkpt lat="59.8633226" lon="17.8224964">
        <ele>10.7118</ele>
        <time>2013-04-26T19:12:14Z</time>
      </trkpt>
      <trkpt lat="59.8632778" lon="17.8223683">
        <ele>10.7118</ele>
        <time>2013-04-26T19:12:15Z</time>
      </trkpt>
      <trkpt lat="59.8632335" lon="17.8222421">
        <ele>11.1925</ele>
        <time>2013-04-26T19:12:16Z</time>
      </trkpt>
      <trkpt lat="59.8631918" lon="17.8221178">
        <ele>11.1925</ele>
        <time>2013-04-26T19:12:17Z</time>
      </trkpt>
      <trkpt lat="59.8631505" lon="17.821995">
        <ele>11.6732</ele>
        <time>2013-04-26T19:12:18Z</time>
      </trkpt>
      <trkpt lat="59.8631121" lon="17.821875">
        <ele>12.1538</ele>
        <time>2013-04-26T19:12:19Z</time>
      </trkpt>
      <trkpt lat="59.8630759" lon="17.8217573">
        <ele>12.6344</ele>
        <time>2013-04-26T19:12:20Z</time>
      </trkpt>
      <trkpt lat="59.86304" lon="17.8216397">
        <ele>13.1151</ele>
        <time>2013-04-26T19:12:21Z</time>
      </trkpt>
      <trkpt lat="59.8630049" lon="17.8215234">
        <ele>13.5958</ele>
        <time>2013-04-26T19:12:22Z</time>
      </trkpt>
      <trkpt lat="59.8629718" lon="17.8214097">
        <ele>14.0764</ele>
        <time>2013-04-26T19:12:23Z</time>
      </trkpt>
      <trkpt lat="59.8629406" lon="17.8213007">
        <ele>14.0764</ele>
        <time>2013-04-26T19:12:24Z</time>
      </trkpt>
      <trkpt lat="59.8629104" lon="17.8211978">
        <ele>14.557</ele>
        <time>2013-04-26T19:12:25Z</time>
      </trkpt>
      <trkpt lat="59.86288" lon="17.8210979">
        <ele>15.0377</ele>
        <time>2013-04-26T19:12:26Z</time>
      </trkpt>
      <trkpt lat="59.8628489" lon="17.8209967">
        <ele>15.5184</ele>
        <time>2013-04-26T19:12:27Z</time>
      </trkpt>
      <trkpt lat="59.8628211" lon="17.8208984">
        <ele>16.4797</ele>
        <time>2013-04-26T19:12:28Z</time>
      </trkpt>
      <trkpt lat="59.8627946" lon="17.8208005">
        <ele>16.9604</ele>
        <time>2013-04-26T19:12:29Z</time>
      </trkpt>
      <trkpt lat="59.8627704" lon="17.8207055">
        <ele>17.4412</ele>
        <time>2013-04-26T19:12:30Z</time>
      </trkpt>
      <trkpt lat="59.86275" lon="17.8206171">
        <ele>17.9218</ele>
        <time>2013-04-26T19:12:31Z</time>
      </trkpt>
      <trkpt lat="59.8627304" lon="17.8205281">
        <ele>18.4023</ele>
        <time>2013-04-26T19:12:32Z</time>
      </trkpt>
      <trkpt lat="59.8627101" lon="17.8204441">
        <ele>18.8831</ele>
        <time>2013-04-26T19:12:33Z</time>
      </trkpt>
      <trkpt lat="59.8626918" lon="17.8203571">
        <ele>19.3638</ele>
        <time>2013-04-26T19:12:34Z</time>
      </trkpt>
      <trkpt lat="59.8626753" lon="17.8202679">
        <ele>19.8444</ele>
        <time>2013-04-26T19:12:35Z</time>
      </trkpt>
      <trkpt lat="59.862654" lon="17.8201695">
        <ele>19.8444</ele>
        <time>2013-04-26T19:12:36Z</time>
      </trkpt>
      <trkpt lat="59.8626355" lon="17.8200769">
        <ele>20.325</ele>
        <time>2013-04-26T19:12:37Z</time>
      </trkpt>
      <trkpt lat="59.8626179" lon="17.819987">
        <ele>20.325</ele>
        <time>2013-04-26T19:12:38Z</time>
      </trkpt>
      <trkpt lat="59.8625998" lon="17.8198946">
        <ele>20.325</ele>
        <time>2013-04-26T19:12:39Z</time>
      </trkpt>
      <trkpt lat="59.8625836" lon="17.8197943">
        <ele>20.325</ele>
        <time>2013-04-26T19:12:40Z</time>
      </trkpt>
      <trkpt lat="59.8625698" lon="17.8196914">
        <ele>19.8444</ele>
        <time>2013-04-26T19:12:41Z</time>
      </trkpt>
      <trkpt lat="59.8625525" lon="17.8195898">
        <ele>19.3638</ele>
        <time>2013-04-26T19:12:42Z</time>
      </trkpt>
      <trkpt lat="59.8625278" lon="17.8194862">
        <ele>19.3638</ele>
        <time>2013-04-26T19:12:43Z</time>
      </trkpt>
      <trkpt lat="59.8625071" lon="17.8193826">
        <ele>19.8444</ele>
        <time>2013-04-26T19:12:44Z</time>
      </trkpt>
      <trkpt lat="59.8624821" lon="17.8192817">
        <ele>19.8444</ele>
        <time>2013-04-26T19:12:45Z</time>
      </trkpt>
      <trkpt lat="59.8624507" lon="17.819186">
        <ele>18.8831</ele>
        <time>2013-04-26T19:12:46Z</time>
      </trkpt>
      <trkpt lat="59.8624175" lon="17.8190984">
        <ele>18.8831</ele>
        <time>2013-04-26T19:12:47Z</time>
      </trkpt>
      <trkpt lat="59.8623776" lon="17.819018">
        <ele>18.4023</ele>
        <time>2013-04-26T19:12:48Z</time>
      </trkpt>
      <trkpt lat="59.8623315" lon="17.8189461">
        <ele>18.4023</ele>
        <time>2013-04-26T19:12:49Z</time>
      </trkpt>
      <trkpt lat="59.8622791" lon="17.8188827">
        <ele>18.8831</ele>
        <time>2013-04-26T19:12:50Z</time>
      </trkpt>
      <trkpt lat="59.8622282" lon="17.8188274">
        <ele>18.8831</ele>
        <time>2013-04-26T19:12:51Z</time>
      </trkpt>
      <trkpt lat="59.862173" lon="17.8187786">
        <ele>18.8831</ele>
        <time>2013-04-26T19:12:52Z</time>
      </trkpt>
      <trkpt lat="59.8621203" lon="17.8187355">
        <ele>18.8831</ele>
        <time>2013-04-26T19:12:53Z</time>
      </trkpt>
      <trkpt lat="59.8620689" lon="17.8187031">
        <ele>18.8831</ele>
        <time>2013-04-26T19:12:54Z</time>
      </trkpt>
      <trkpt lat="59.8620202" lon="17.8186726">
        <ele>18.8831</ele>
        <time>2013-04-26T19:12:55Z</time>
      </trkpt>
      <trkpt lat="59.8619752" lon="17.8186424">
        <ele>18.4023</ele>
        <time>2013-04-26T19:12:56Z</time>
      </trkpt>
      <trkpt lat="59.8619305" lon="17.8186182">
        <ele>18.4023</ele>
        <time>2013-04-26T19:12:57Z</time>
      </trkpt>
      <trkpt lat="59.8618871" lon="17.8185967">
        <ele>17.9218</ele>
        <time>2013-04-26T19:12:58Z</time>
      </trkpt>
      <trkpt lat="59.861842" lon="17.8185737">
        <ele>17.9218</ele>
        <time>2013-04-26T19:12:59Z</time>
      </trkpt>
      <trkpt lat="59.8617979" lon="17.8185457">
        <ele>17.9218</ele>
        <time>2013-04-26T19:13:00Z</time>
      </trkpt>
      <trkpt lat="59.8617504" lon="17.8185223">
        <ele>17.4412</ele>
        <time>2013-04-26T19:13:01Z</time>
      </trkpt>
      <trkpt lat="59.8617032" lon="17.8185016">
        <ele>16.9604</ele>
        <time>2013-04-26T19:13:02Z</time>
      </trkpt>
      <trkpt lat="59.8616564" lon="17.8184756">
        <ele>16.9604</ele>
        <time>2013-04-26T19:13:03Z</time>
      </trkpt>
      <trkpt lat="59.8615923" lon="17.8184266">
        <ele>17.9218</ele>
        <time>2013-04-26T19:13:04Z</time>
      </trkpt>
      <trkpt lat="59.8615332" lon="17.8183809">
        <ele>17.9218</ele>
        <time>2013-04-26T19:13:05Z</time>
      </trkpt>
      <trkpt lat="59.8614694" lon="17.8183309">
        <ele>18.4023</ele>
        <time>2013-04-26T19:13:06Z</time>
      </trkpt>
      <trkpt lat="59.8614018" lon="17.8182763">
        <ele>18.8831</ele>
        <time>2013-04-26T19:13:07Z</time>
      </trkpt>
      <trkpt lat="59.8613313" lon="17.8182186">
        <ele>19.3638</ele>
        <time>2013-04-26T19:13:08Z</time>
      </trkpt>
      <trkpt lat="59.8612612" lon="17.8181571">
        <ele>19.8444</ele>
        <time>2013-04-26T19:13:09Z</time>
      </trkpt>
      <trkpt lat="59.8611924" lon="17.8180935">
        <ele>20.325</ele>
        <time>2013-04-26T19:13:10Z</time>
      </trkpt>
      <trkpt lat="59.8611297" lon="17.8180291">
        <ele>20.325</ele>
        <time>2013-04-26T19:13:11Z</time>
      </trkpt>
      <trkpt lat="59.8610706" lon="17.8179717">
        <ele>20.325</ele>
        <time>2013-04-26T19:13:12Z</time>
      </trkpt>
      <trkpt lat="59.8610122" lon="17.81791">
        <ele>20.8057</ele>
        <time>2013-04-26T19:13:13Z</time>
      </trkpt>
      <trkpt lat="59.8609514" lon="17.8178343">
        <ele>20.8057</ele>
        <time>2013-04-26T19:13:14Z</time>
      </trkpt>
      <trkpt lat="59.8608944" lon="17.8177576">
        <ele>20.8057</ele>
        <time>2013-04-26T19:13:15Z</time>
      </trkpt>
      <trkpt lat="59.8608286" lon="17.817672">
        <ele>20.8057</ele>
        <time>2013-04-26T19:13:16Z</time>
      </trkpt>
      <trkpt lat="59.8607617" lon="17.8175857">
        <ele>21.2864</ele>
        <time>2013-04-26T19:13:17Z</time>
      </trkpt>
      <trkpt lat="59.8606986" lon="17.8175009">
        <ele>20.8057</ele>
        <time>2013-04-26T19:13:18Z</time>
      </trkpt>
      <trkpt lat="59.8606346" lon="17.8174153">
        <ele>20.325</ele>
        <time>2013-04-26T19:13:19Z</time>
      </trkpt>
      <trkpt lat="59.8605678" lon="17.8173231">
        <ele>20.325</ele>
        <time>2013-04-26T19:13:20Z</time>
      </trkpt>
      <trkpt lat="59.8604998" lon="17.8172261">
        <ele>20.325</ele>
        <time>2013-04-26T19:13:21Z</time>
      </trkpt>
      <trkpt lat="59.8604314" lon="17.8171297">
        <ele>20.325</ele>
        <time>2013-04-26T19:13:22Z</time>
      </trkpt>
      <trkpt lat="59.8603631" lon="17.8170367">
        <ele>20.325</ele>
        <time>2013-04-26T19:13:23Z</time>
      </trkpt>
      <trkpt lat="59.8602948" lon="17.8169474">
        <ele>19.8444</ele>
        <time>2013-04-26T19:13:24Z</time>
      </trkpt>
      <trkpt lat="59.8602269" lon="17.8168584">
        <ele>19.8444</ele>
        <time>2013-04-26T19:13:25Z</time>
      </trkpt>
      <trkpt lat="59.86016" lon="17.8167712">
        <ele>19.8444</ele>
        <time>2013-04-26T19:13:26Z</time>
      </trkpt>
      <trkpt lat="59.8600916" lon="17.816689">
        <ele>19.3638</ele>
        <time>2013-04-26T19:13:27Z</time>
      </trkpt>
      <trkpt lat="59.8600212" lon="17.8166118">
        <ele>19.3638</ele>
        <time>2013-04-26T19:13:28Z</time>
      </trkpt>
      <trkpt lat="59.8599498" lon="17.8165372">
        <ele>19.3638</ele>
        <time>2013-04-26T19:13:29Z</time>
      </trkpt>
      <trkpt lat="59.8598764" lon="17.8164649">
        <ele>19.3638</ele>
        <time>2013-04-26T19:13:30Z</time>
      </trkpt>
      <trkpt lat="59.8598019" lon="17.8163951">
        <ele>19.3638</ele>
        <time>2013-04-26T19:13:31Z</time>
      </trkpt>
      <trkpt lat="59.8597278" lon="17.8163276">
        <ele>19.3638</ele>
        <time>2013-04-26T19:13:32Z</time>
      </trkpt>
      <trkpt lat="59.8596539" lon="17.8162664">
        <ele>19.3638</ele>
        <time>2013-04-26T19:13:33Z</time>
      </trkpt>
      <trkpt lat="59.8595797" lon="17.8162053">
        <ele>19.3638</ele>
        <time>2013-04-26T19:13:34Z</time>
      </trkpt>
      <trkpt lat="59.8595052" lon="17.8161431">
        <ele>18.8831</ele>
        <time>2013-04-26T19:13:35Z</time>
      </trkpt>
      <trkpt lat="59.8594296" lon="17.81608">
        <ele>18.8831</ele>
        <time>2013-04-26T19:13:36Z</time>
      </trkpt>
      <trkpt lat="59.8593538" lon="17.8160202">
        <ele>18.4023</ele>
        <time>2013-04-26T19:13:37Z</time>
      </trkpt>
      <trkpt lat="59.8592774" lon="17.8159571">
        <ele>18.4023</ele>
        <time>2013-04-26T19:13:38Z</time>
      </trkpt>
      <trkpt lat="59.8592034" lon="17.8158935">
        <ele>18.4023</ele>
        <time>2013-04-26T19:13:39Z</time>
      </trkpt>
      <trkpt lat="59.8591302" lon="17.8158307">
        <ele>18.4023</ele>
        <time>2013-04-26T19:13:40Z</time>
      </trkpt>
      <trkpt lat="59.859057" lon="17.8157716">
        <ele>18.4023</ele>
        <time>2013-04-26T19:13:41Z</time>
      </trkpt>
      <trkpt lat="59.8589836" lon="17.8157153">
        <ele>18.4023</ele>
        <time>2013-04-26T19:13:42Z</time>
      </trkpt>
      <trkpt lat="59.858911" lon="17.8156586">
        <ele>18.4023</ele>
        <time>2013-04-26T19:13:43Z</time>
      </trkpt>
      <trkpt lat="59.8588404" lon="17.8156028">
        <ele>17.9218</ele>
        <time>2013-04-26T19:13:44Z</time>
      </trkpt>
      <trkpt lat="59.8587686" lon="17.8155472">
        <ele>17.9218</ele>
        <time>2013-04-26T19:13:45Z</time>
      </trkpt>
      <trkpt lat="59.8586966" lon="17.8154895">
        <ele>17.9218</ele>
        <time>2013-04-26T19:13:46Z</time>
      </trkpt>
      <trkpt lat="59.8586276" lon="17.8154334">
        <ele>17.9218</ele>
        <time>2013-04-26T19:13:47Z</time>
      </trkpt>
      <trkpt lat="59.8585613" lon="17.8153759">
        <ele>18.4023</ele>
        <time>2013-04-26T19:13:48Z</time>
      </trkpt>
      <trkpt lat="59.858498" lon="17.8153188">
        <ele>18.8831</ele>
        <time>2013-04-26T19:13:49Z</time>
      </trkpt>
      <trkpt lat="59.8584366" lon="17.8152659">
        <ele>19.3638</ele>
        <time>2013-04-26T19:13:50Z</time>
      </trkpt>
      <trkpt lat="59.8583616" lon="17.8151977">
        <ele>19.8444</ele>
        <time>2013-04-26T19:13:51Z</time>
      </trkpt>
      <trkpt lat="59.8582956" lon="17.8151248">
        <ele>20.325</ele>
        <time>2013-04-26T19:13:52Z</time>
      </trkpt>
      <trkpt lat="59.8582312" lon="17.8150931">
        <ele>20.325</ele>
        <time>2013-04-26T19:13:53Z</time>
      </trkpt>
      <trkpt lat="59.8581733" lon="17.8150537">
        <ele>19.8444</ele>
        <time>2013-04-26T19:13:54Z</time>
      </trkpt>
      <trkpt lat="59.8581165" lon="17.8150174">
        <ele>19.8444</ele>
        <time>2013-04-26T19:13:55Z</time>
      </trkpt>
      <trkpt lat="59.8580542" lon="17.8149765">
        <ele>19.8444</ele>
        <time>2013-04-26T19:13:56Z</time>
      </trkpt>
      <trkpt lat="59.8579869" lon="17.8149439">
        <ele>19.3638</ele>
        <time>2013-04-26T19:13:57Z</time>
      </trkpt>
      <trkpt lat="59.8579156" lon="17.8148952">
        <ele>19.3638</ele>
        <time>2013-04-26T19:13:58Z</time>
      </trkpt>
      <trkpt lat="59.8578506" lon="17.8148537">
        <ele>19.3638</ele>
        <time>2013-04-26T19:13:59Z</time>
      </trkpt>
      <trkpt lat="59.8577921" lon="17.81481">
        <ele>18.8831</ele>
        <time>2013-04-26T19:14:00Z</time>
      </trkpt>
      <trkpt lat="59.8577374" lon="17.8147513">
        <ele>18.8831</ele>
        <time>2013-04-26T19:14:01Z</time>
      </trkpt>
      <trkpt lat="59.8577084" lon="17.8146802">
        <ele>18.8831</ele>
        <time>2013-04-26T19:14:02Z</time>
      </trkpt>
      <trkpt lat="59.8577035" lon="17.8145803">
        <ele>18.8831</ele>
        <time>2013-04-26T19:14:03Z</time>
      </trkpt>
      <trkpt lat="59.8577145" lon="17.8144741">
        <ele>18.8831</ele>
        <time>2013-04-26T19:14:04Z</time>
      </trkpt>
      <trkpt lat="59.8577362" lon="17.8143672">
        <ele>18.4023</ele>
        <time>2013-04-26T19:14:05Z</time>
      </trkpt>
      <trkpt lat="59.8577606" lon="17.8142556">
        <ele>18.4023</ele>
        <time>2013-04-26T19:14:06Z</time>
      </trkpt>
      <trkpt lat="59.8577869" lon="17.8141405">
        <ele>18.4023</ele>
        <time>2013-04-26T19:14:07Z</time>
      </trkpt>
      <trkpt lat="59.8578108" lon="17.8140212">
        <ele>18.4023</ele>
        <time>2013-04-26T19:14:08Z</time>
      </trkpt>
      <trkpt lat="59.8578327" lon="17.8138971">
        <ele>18.4023</ele>
        <time>2013-04-26T19:14:09Z</time>
      </trkpt>
      <trkpt lat="59.8578538" lon="17.8137684">
        <ele>18.4023</ele>
        <time>2013-04-26T19:14:10Z</time>
      </trkpt>
      <trkpt lat="59.8578736" lon="17.8136345">
        <ele>18.4023</ele>
        <time>2013-04-26T19:14:11Z</time>
      </trkpt>
      <trkpt lat="59.8578927" lon="17.813497">
        <ele>18.4023</ele>
        <time>2013-04-26T19:14:12Z</time>
      </trkpt>
      <trkpt lat="59.8579117" lon="17.8133561">
        <ele>18.4023</ele>
        <time>2013-04-26T19:14:13Z</time>
      </trkpt>
      <trkpt lat="59.8579284" lon="17.813212">
        <ele>18.4023</ele>
        <time>2013-04-26T19:14:14Z</time>
      </trkpt>
      <trkpt lat="59.857944" lon="17.8130662">
        <ele>18.4023</ele>
        <time>2013-04-26T19:14:15Z</time>
      </trkpt>
      <trkpt lat="59.857959" lon="17.8129181">
        <ele>18.4023</ele>
        <time>2013-04-26T19:14:16Z</time>
      </trkpt>
      <trkpt lat="59.8579729" lon="17.8127667">
        <ele>18.4023</ele>
        <time>2013-04-26T19:14:17Z</time>
      </trkpt>
      <trkpt lat="59.8579844" lon="17.8126118">
        <ele>18.4023</ele>
        <time>2013-04-26T19:14:18Z</time>
      </trkpt>
      <trkpt lat="59.8579941" lon="17.8124548">
        <ele>18.8831</ele>
        <time>2013-04-26T19:14:19Z</time>
      </trkpt>
      <trkpt lat="59.858001" lon="17.8122958">
        <ele>18.8831</ele>
        <time>2013-04-26T19:14:20Z</time>
      </trkpt>
      <trkpt lat="59.8580062" lon="17.8121342">
        <ele>18.8831</ele>
        <time>2013-04-26T19:14:21Z</time>
      </trkpt>
      <trkpt lat="59.858009" lon="17.8119711">
        <ele>18.8831</ele>
        <time>2013-04-26T19:14:22Z</time>
      </trkpt>
      <trkpt lat="59.8580103" lon="17.8118076">
        <ele>18.8831</ele>
        <time>2013-04-26T19:14:23Z</time>
      </trkpt>
      <trkpt lat="59.8580098" lon="17.8116424">
        <ele>18.8831</ele>
        <time>2013-04-26T19:14:24Z</time>
      </trkpt>
      <trkpt lat="59.8580071" lon="17.8114761">
        <ele>18.8831</ele>
        <time>2013-04-26T19:14:25Z</time>
      </trkpt>
      <trkpt lat="59.8580021" lon="17.8113095">
        <ele>18.8831</ele>
        <time>2013-04-26T19:14:26Z</time>
      </trkpt>
      <trkpt lat="59.8579963" lon="17.8111428">
        <ele>18.8831</ele>
        <time>2013-04-26T19:14:27Z</time>
      </trkpt>
      <trkpt lat="59.8579895" lon="17.8109765">
        <ele>18.8831</ele>
        <time>2013-04-26T19:14:28Z</time>
      </trkpt>
      <trkpt lat="59.8579818" lon="17.81081">
        <ele>18.8831</ele>
        <time>2013-04-26T19:14:29Z</time>
      </trkpt>
      <trkpt lat="59.8579704" lon="17.8106435">
        <ele>18.8831</ele>
        <time>2013-04-26T19:14:30Z</time>
      </trkpt>
      <trkpt lat="59.8579589" lon="17.8104802">
        <ele>18.8831</ele>
        <time>2013-04-26T19:14:31Z</time>
      </trkpt>
      <trkpt lat="59.8579451" lon="17.81032">
        <ele>19.3638</ele>
        <time>2013-04-26T19:14:32Z</time>
      </trkpt>
      <trkpt lat="59.8579279" lon="17.8101628">
        <ele>18.8831</ele>
        <time>2013-04-26T19:14:33Z</time>
      </trkpt>
      <trkpt lat="59.8579096" lon="17.8100067">
        <ele>18.8831</ele>
        <time>2013-04-26T19:14:34Z</time>
      </trkpt>
      <trkpt lat="59.8578891" lon="17.8098524">
        <ele>18.8831</ele>
        <time>2013-04-26T19:14:35Z</time>
      </trkpt>
      <trkpt lat="59.8578657" lon="17.8097001">
        <ele>18.8831</ele>
        <time>2013-04-26T19:14:36Z</time>
      </trkpt>
      <trkpt lat="59.8578404" lon="17.80955">
        <ele>18.8831</ele>
        <time>2013-04-26T19:14:37Z</time>
      </trkpt>
      <trkpt lat="59.8578146" lon="17.8094001">
        <ele>18.8831</ele>
        <time>2013-04-26T19:14:38Z</time>
      </trkpt>
      <trkpt lat="59.8577875" lon="17.8092509">
        <ele>18.4023</ele>
        <time>2013-04-26T19:14:39Z</time>
      </trkpt>
      <trkpt lat="59.8577573" lon="17.8091036">
        <ele>18.4023</ele>
        <time>2013-04-26T19:14:40Z</time>
      </trkpt>
      <trkpt lat="59.8577263" lon="17.8089574">
        <ele>18.4023</ele>
        <time>2013-04-26T19:14:41Z</time>
      </trkpt>
      <trkpt lat="59.8576947" lon="17.8088123">
        <ele>18.4023</ele>
        <time>2013-04-26T19:14:42Z</time>
      </trkpt>
      <trkpt lat="59.8576612" lon="17.8086692">
        <ele>18.4023</ele>
        <time>2013-04-26T19:14:43Z</time>
      </trkpt>
      <trkpt lat="59.8576259" lon="17.8085268">
        <ele>18.4023</ele>
        <time>2013-04-26T19:14:44Z</time>
      </trkpt>
      <trkpt lat="59.8575905" lon="17.8083843">
        <ele>18.4023</ele>
        <time>2013-04-26T19:14:45Z</time>
      </trkpt>
      <trkpt lat="59.8575543" lon="17.8082511">
        <ele>17.9218</ele>
        <time>2013-04-26T19:14:46Z</time>
      </trkpt>
      <trkpt lat="59.8575135" lon="17.8081181">
        <ele>17.9218</ele>
        <time>2013-04-26T19:14:47Z</time>
      </trkpt>
      <trkpt lat="59.8574715" lon="17.8079835">
        <ele>17.4412</ele>
        <time>2013-04-26T19:14:48Z</time>
      </trkpt>
      <trkpt lat="59.8574315" lon="17.807847">
        <ele>17.4412</ele>
        <time>2013-04-26T19:14:49Z</time>
      </trkpt>
      <trkpt lat="59.8573928" lon="17.8077088">
        <ele>17.4412</ele>
        <time>2013-04-26T19:14:50Z</time>
      </trkpt>
      <trkpt lat="59.8573523" lon="17.8075726">
        <ele>17.4412</ele>
        <time>2013-04-26T19:14:51Z</time>
      </trkpt>
      <trkpt lat="59.8573111" lon="17.8074365">
        <ele>17.4412</ele>
        <time>2013-04-26T19:14:52Z</time>
      </trkpt>
      <trkpt lat="59.8572715" lon="17.8073002">
        <ele>17.4412</ele>
        <time>2013-04-26T19:14:53Z</time>
      </trkpt>
      <trkpt lat="59.8572301" lon="17.8071644">
        <ele>17.4412</ele>
        <time>2013-04-26T19:14:54Z</time>
      </trkpt>
      <trkpt lat="59.8571878" lon="17.8070287">
        <ele>17.4412</ele>
        <time>2013-04-26T19:14:55Z</time>
      </trkpt>
      <trkpt lat="59.8571443" lon="17.8068941">
        <ele>17.9218</ele>
        <time>2013-04-26T19:14:56Z</time>
      </trkpt>
      <trkpt lat="59.857102" lon="17.8067598">
        <ele>17.9218</ele>
        <time>2013-04-26T19:14:57Z</time>
      </trkpt>
      <trkpt lat="59.85706" lon="17.8066257">
        <ele>17.9218</ele>
        <time>2013-04-26T19:14:58Z</time>
      </trkpt>
      <trkpt lat="59.8570181" lon="17.8064919">
        <ele>17.9218</ele>
        <time>2013-04-26T19:14:59Z</time>
      </trkpt>
      <trkpt lat="59.8569761" lon="17.8063589">
        <ele>17.9218</ele>
        <time>2013-04-26T19:15:00Z</time>
      </trkpt>
      <trkpt lat="59.8569302" lon="17.8062273">
        <ele>17.9218</ele>
        <time>2013-04-26T19:15:01Z</time>
      </trkpt>
      <trkpt lat="59.8568849" lon="17.8060948">
        <ele>17.9218</ele>
        <time>2013-04-26T19:15:02Z</time>
      </trkpt>
      <trkpt lat="59.8568437" lon="17.80596">
        <ele>18.4023</ele>
        <time>2013-04-26T19:15:03Z</time>
      </trkpt>
      <trkpt lat="59.8568018" lon="17.8058259">
        <ele>18.4023</ele>
        <time>2013-04-26T19:15:04Z</time>
      </trkpt>
      <trkpt lat="59.8567592" lon="17.805692">
        <ele>18.4023</ele>
        <time>2013-04-26T19:15:05Z</time>
      </trkpt>
      <trkpt lat="59.8567169" lon="17.805559">
        <ele>18.4023</ele>
        <time>2013-04-26T19:15:06Z</time>
      </trkpt>
      <trkpt lat="59.8566742" lon="17.8054263">
        <ele>18.4023</ele>
        <time>2013-04-26T19:15:07Z</time>
      </trkpt>
      <trkpt lat="59.8566324" lon="17.8052942">
        <ele>18.8831</ele>
        <time>2013-04-26T19:15:08Z</time>
      </trkpt>
      <trkpt lat="59.8565935" lon="17.8051601">
        <ele>18.8831</ele>
        <time>2013-04-26T19:15:09Z</time>
      </trkpt>
      <trkpt lat="59.8565547" lon="17.8050266">
        <ele>19.3638</ele>
        <time>2013-04-26T19:15:10Z</time>
      </trkpt>
      <trkpt lat="59.8565153" lon="17.804896">
        <ele>19.3638</ele>
        <time>2013-04-26T19:15:11Z</time>
      </trkpt>
      <trkpt lat="59.8564744" lon="17.8047679">
        <ele>19.3638</ele>
        <time>2013-04-26T19:15:12Z</time>
      </trkpt>
      <trkpt lat="59.8564345" lon="17.8046401">
        <ele>19.3638</ele>
        <time>2013-04-26T19:15:13Z</time>
      </trkpt>
      <trkpt lat="59.8563966" lon="17.804513">
        <ele>19.3638</ele>
        <time>2013-04-26T19:15:14Z</time>
      </trkpt>
      <trkpt lat="59.8563583" lon="17.8043884">
        <ele>19.3638</ele>
        <time>2013-04-26T19:15:15Z</time>
      </trkpt>
      <trkpt lat="59.8563206" lon="17.8042654">
        <ele>19.3638</ele>
        <time>2013-04-26T19:15:16Z</time>
      </trkpt>
      <trkpt lat="59.8562863" lon="17.8041429">
        <ele>19.8444</ele>
        <time>2013-04-26T19:15:17Z</time>
      </trkpt>
      <trkpt lat="59.8562519" lon="17.8040241">
        <ele>19.8444</ele>
        <time>2013-04-26T19:15:18Z</time>
      </trkpt>
      <trkpt lat="59.8562185" lon="17.8039066">
        <ele>19.8444</ele>
        <time>2013-04-26T19:15:19Z</time>
      </trkpt>
      <trkpt lat="59.8561836" lon="17.8037932">
        <ele>19.8444</ele>
        <time>2013-04-26T19:15:20Z</time>
      </trkpt>
      <trkpt lat="59.8561563" lon="17.803679">
        <ele>20.325</ele>
        <time>2013-04-26T19:15:21Z</time>
      </trkpt>
      <trkpt lat="59.8561392" lon="17.8035579">
        <ele>20.325</ele>
        <time>2013-04-26T19:15:22Z</time>
      </trkpt>
      <trkpt lat="59.8561299" lon="17.8034371">
        <ele>20.325</ele>
        <time>2013-04-26T19:15:23Z</time>
      </trkpt>
      <trkpt lat="59.8561174" lon="17.8033093">
        <ele>20.8057</ele>
        <time>2013-04-26T19:15:24Z</time>
      </trkpt>
      <trkpt lat="59.8560925" lon="17.8032099">
        <ele>20.325</ele>
        <time>2013-04-26T19:15:25Z</time>
      </trkpt>
      <trkpt lat="59.8560561" lon="17.803124">
        <ele>20.8057</ele>
        <time>2013-04-26T19:15:26Z</time>
      </trkpt>
      <trkpt lat="59.8560119" lon="17.803045">
        <ele>20.325</ele>
        <time>2013-04-26T19:15:27Z</time>
      </trkpt>
      <trkpt lat="59.855979" lon="17.8029647">
        <ele>20.325</ele>
        <time>2013-04-26T19:15:28Z</time>
      </trkpt>
      <trkpt lat="59.8559437" lon="17.802866">
        <ele>20.325</ele>
        <time>2013-04-26T19:15:29Z</time>
      </trkpt>
      <trkpt lat="59.8559057" lon="17.8027643">
        <ele>20.8057</ele>
        <time>2013-04-26T19:15:30Z</time>
      </trkpt>
      <trkpt lat="59.8558693" lon="17.8026593">
        <ele>21.2864</ele>
        <time>2013-04-26T19:15:31Z</time>
      </trkpt>
      <trkpt lat="59.8558404" lon="17.8025603">
        <ele>21.2864</ele>
        <time>2013-04-26T19:15:32Z</time>
      </trkpt>
      <trkpt lat="59.8558206" lon="17.8024679">
        <ele>21.2864</ele>
        <time>2013-04-26T19:15:33Z</time>
      </trkpt>
      <trkpt lat="59.8557931" lon="17.8023721">
        <ele>21.767</ele>
        <time>2013-04-26T19:15:34Z</time>
      </trkpt>
      <trkpt lat="59.8557672" lon="17.802266">
        <ele>21.767</ele>
        <time>2013-04-26T19:15:35Z</time>
      </trkpt>
      <trkpt lat="59.8557422" lon="17.802155">
        <ele>22.2476</ele>
        <time>2013-04-26T19:15:36Z</time>
      </trkpt>
      <trkpt lat="59.8557218" lon="17.802021">
        <ele>22.2476</ele>
        <time>2013-04-26T19:15:37Z</time>
      </trkpt>
      <trkpt lat="59.8557108" lon="17.8019392">
        <ele>22.2476</ele>
        <time>2013-04-26T19:15:38Z</time>
      </trkpt>
      <trkpt lat="59.8557015" lon="17.8018361">
        <ele>21.767</ele>
        <time>2013-04-26T19:15:39Z</time>
      </trkpt>
      <trkpt lat="59.8556813" lon="17.8017341">
        <ele>21.2864</ele>
        <time>2013-04-26T19:15:40Z</time>
      </trkpt>
      <trkpt lat="59.8556615" lon="17.8016409">
        <ele>21.2864</ele>
        <time>2013-04-26T19:15:41Z</time>
      </trkpt>
      <trkpt lat="59.855644" lon="17.8015467">
        <ele>20.8057</ele>
        <time>2013-04-26T19:15:42Z</time>
      </trkpt>
      <trkpt lat="59.8556311" lon="17.8014659">
        <ele>19.8444</ele>
        <time>2013-04-26T19:15:43Z</time>
      </trkpt>
      <trkpt lat="59.8556176" lon="17.8013817">
        <ele>19.3638</ele>
        <time>2013-04-26T19:15:44Z</time>
      </trkpt>
      <trkpt lat="59.8555988" lon="17.801286">
        <ele>19.3638</ele>
        <time>2013-04-26T19:15:45Z</time>
      </trkpt>
      <trkpt lat="59.8555807" lon="17.8011969">
        <ele>18.4023</ele>
        <time>2013-04-26T19:15:46Z</time>
      </trkpt>
      <trkpt lat="59.8555601" lon="17.8011088">
        <ele>17.9218</ele>
        <time>2013-04-26T19:15:47Z</time>
      </trkpt>
      <trkpt lat="59.8555417" lon="17.8010242">
        <ele>17.9218</ele>
        <time>2013-04-26T19:15:48Z</time>
      </trkpt>
      <trkpt lat="59.8555206" lon="17.8009341">
        <ele>17.9218</ele>
        <time>2013-04-26T19:15:49Z</time>
      </trkpt>
      <trkpt lat="59.8554949" lon="17.8008447">
        <ele>17.4412</ele>
        <time>2013-04-26T19:15:50Z</time>
      </trkpt>
      <trkpt lat="59.8554678" lon="17.8007525">
        <ele>17.9218</ele>
        <time>2013-04-26T19:15:51Z</time>
      </trkpt>
      <trkpt lat="59.8554393" lon="17.8006582">
        <ele>18.4023</ele>
        <time>2013-04-26T19:15:52Z</time>
      </trkpt>
      <trkpt lat="59.855403" lon="17.8005563">
        <ele>19.3638</ele>
        <time>2013-04-26T19:15:53Z</time>
      </trkpt>
      <trkpt lat="59.855372" lon="17.800458">
        <ele>20.325</ele>
        <time>2013-04-26T19:15:54Z</time>
      </trkpt>
      <trkpt lat="59.8553434" lon="17.8003608">
        <ele>20.8057</ele>
        <time>2013-04-26T19:15:55Z</time>
      </trkpt>
      <trkpt lat="59.8553177" lon="17.800267">
        <ele>21.2864</ele>
        <time>2013-04-26T19:15:56Z</time>
      </trkpt>
      <trkpt lat="59.8552928" lon="17.8001745">
        <ele>21.2864</ele>
        <time>2013-04-26T19:15:57Z</time>
      </trkpt>
      <trkpt lat="59.8552653" lon="17.8000771">
        <ele>21.767</ele>
        <time>2013-04-26T19:15:58Z</time>
      </trkpt>
      <trkpt lat="59.8552372" lon="17.7999763">
        <ele>22.2476</ele>
        <time>2013-04-26T19:15:59Z</time>
      </trkpt>
      <trkpt lat="59.8552115" lon="17.799879">
        <ele>22.2476</ele>
        <time>2013-04-26T19:16:00Z</time>
      </trkpt>
      <trkpt lat="59.8551846" lon="17.7997818">
        <ele>22.7283</ele>
        <time>2013-04-26T19:16:01Z</time>
      </trkpt>
      <trkpt lat="59.8551561" lon="17.7996849">
        <ele>23.209</ele>
        <time>2013-04-26T19:16:02Z</time>
      </trkpt>
      <trkpt lat="59.8551258" lon="17.7995868">
        <ele>23.209</ele>
        <time>2013-04-26T19:16:03Z</time>
      </trkpt>
      <trkpt lat="59.8550973" lon="17.7994897">
        <ele>23.6896</ele>
        <time>2013-04-26T19:16:04Z</time>
      </trkpt>
      <trkpt lat="59.8550711" lon="17.7993926">
        <ele>23.6896</ele>
        <time>2013-04-26T19:16:05Z</time>
      </trkpt>
      <trkpt lat="59.8550421" lon="17.7992904">
        <ele>24.1703</ele>
        <time>2013-04-26T19:16:06Z</time>
      </trkpt>
      <trkpt lat="59.8550136" lon="17.7991877">
        <ele>24.1703</ele>
        <time>2013-04-26T19:16:07Z</time>
      </trkpt>
      <trkpt lat="59.8549871" lon="17.799086">
        <ele>24.1703</ele>
        <time>2013-04-26T19:16:08Z</time>
      </trkpt>
      <trkpt lat="59.8549566" lon="17.7989798">
        <ele>24.1703</ele>
        <time>2013-04-26T19:16:09Z</time>
      </trkpt>
      <trkpt lat="59.8549316" lon="17.7988774">
        <ele>23.209</ele>
        <time>2013-04-26T19:16:10Z</time>
      </trkpt>
      <trkpt lat="59.8549041" lon="17.7987716">
        <ele>23.209</ele>
        <time>2013-04-26T19:16:11Z</time>
      </trkpt>
      <trkpt lat="59.8548752" lon="17.7986622">
        <ele>22.7283</ele>
        <time>2013-04-26T19:16:12Z</time>
      </trkpt>
      <trkpt lat="59.8548468" lon="17.7985474">
        <ele>23.209</ele>
        <time>2013-04-26T19:16:13Z</time>
      </trkpt>
      <trkpt lat="59.8548188" lon="17.7984328">
        <ele>23.209</ele>
        <time>2013-04-26T19:16:14Z</time>
      </trkpt>
      <trkpt lat="59.8547908" lon="17.7983198">
        <ele>23.209</ele>
        <time>2013-04-26T19:16:15Z</time>
      </trkpt>
      <trkpt lat="59.8547632" lon="17.7982063">
        <ele>23.209</ele>
        <time>2013-04-26T19:16:16Z</time>
      </trkpt>
      <trkpt lat="59.8547334" lon="17.7980889">
        <ele>23.6896</ele>
        <time>2013-04-26T19:16:17Z</time>
      </trkpt>
      <trkpt lat="59.8547012" lon="17.7979677">
        <ele>23.6896</ele>
        <time>2013-04-26T19:16:18Z</time>
      </trkpt>
      <trkpt lat="59.8546696" lon="17.7978474">
        <ele>24.1703</ele>
        <time>2013-04-26T19:16:19Z</time>
      </trkpt>
      <trkpt lat="59.8546378" lon="17.7977286">
        <ele>24.1703</ele>
        <time>2013-04-26T19:16:20Z</time>
      </trkpt>
      <trkpt lat="59.8546027" lon="17.7976092">
        <ele>24.651</ele>
        <time>2013-04-26T19:16:21Z</time>
      </trkpt>
      <trkpt lat="59.8545707" lon="17.7974896">
        <ele>25.1317</ele>
        <time>2013-04-26T19:16:22Z</time>
      </trkpt>
      <trkpt lat="59.854543" lon="17.7973692">
        <ele>25.6123</ele>
        <time>2013-04-26T19:16:23Z</time>
      </trkpt>
      <trkpt lat="59.8545163" lon="17.7972475">
        <ele>25.6123</ele>
        <time>2013-04-26T19:16:24Z</time>
      </trkpt>
      <trkpt lat="59.8544892" lon="17.7971267">
        <ele>26.0929</ele>
        <time>2013-04-26T19:16:25Z</time>
      </trkpt>
      <trkpt lat="59.8544589" lon="17.7970094">
        <ele>26.0929</ele>
        <time>2013-04-26T19:16:26Z</time>
      </trkpt>
      <trkpt lat="59.8544224" lon="17.7968953">
        <ele>26.0929</ele>
        <time>2013-04-26T19:16:27Z</time>
      </trkpt>
      <trkpt lat="59.8543795" lon="17.7967819">
        <ele>26.5736</ele>
        <time>2013-04-26T19:16:28Z</time>
      </trkpt>
      <trkpt lat="59.8543438" lon="17.7966742">
        <ele>26.5736</ele>
        <time>2013-04-26T19:16:29Z</time>
      </trkpt>
      <trkpt lat="59.8543104" lon="17.7965657">
        <ele>26.5736</ele>
        <time>2013-04-26T19:16:30Z</time>
      </trkpt>
      <trkpt lat="59.8542788" lon="17.7964541">
        <ele>27.0543</ele>
        <time>2013-04-26T19:16:31Z</time>
      </trkpt>
      <trkpt lat="59.8542476" lon="17.7963406">
        <ele>27.5349</ele>
        <time>2013-04-26T19:16:32Z</time>
      </trkpt>
      <trkpt lat="59.8542164" lon="17.7962241">
        <ele>27.5349</ele>
        <time>2013-04-26T19:16:33Z</time>
      </trkpt>
      <trkpt lat="59.8541862" lon="17.7961079">
        <ele>28.0155</ele>
        <time>2013-04-26T19:16:34Z</time>
      </trkpt>
      <trkpt lat="59.8541533" lon="17.7959915">
        <ele>28.0155</ele>
        <time>2013-04-26T19:16:35Z</time>
      </trkpt>
      <trkpt lat="59.8541193" lon="17.7958754">
        <ele>28.4962</ele>
        <time>2013-04-26T19:16:36Z</time>
      </trkpt>
      <trkpt lat="59.8540854" lon="17.7957589">
        <ele>28.9769</ele>
        <time>2013-04-26T19:16:37Z</time>
      </trkpt>
      <trkpt lat="59.8540531" lon="17.7956416">
        <ele>28.9769</ele>
        <time>2013-04-26T19:16:38Z</time>
      </trkpt>
      <trkpt lat="59.8540214" lon="17.7955238">
        <ele>28.9769</ele>
        <time>2013-04-26T19:16:39Z</time>
      </trkpt>
      <trkpt lat="59.853989" lon="17.795406">
        <ele>28.9769</ele>
        <time>2013-04-26T19:16:40Z</time>
      </trkpt>
      <trkpt lat="59.8539546" lon="17.7952901">
        <ele>28.9769</ele>
        <time>2013-04-26T19:16:41Z</time>
      </trkpt>
      <trkpt lat="59.8539191" lon="17.7951738">
        <ele>29.4575</ele>
        <time>2013-04-26T19:16:42Z</time>
      </trkpt>
      <trkpt lat="59.8538812" lon="17.7950557">
        <ele>29.9381</ele>
        <time>2013-04-26T19:16:43Z</time>
      </trkpt>
      <trkpt lat="59.8538435" lon="17.7949392">
        <ele>29.9381</ele>
        <time>2013-04-26T19:16:44Z</time>
      </trkpt>
      <trkpt lat="59.853806" lon="17.7948224">
        <ele>30.4188</ele>
        <time>2013-04-26T19:16:45Z</time>
      </trkpt>
      <trkpt lat="59.8537682" lon="17.7947037">
        <ele>30.4188</ele>
        <time>2013-04-26T19:16:46Z</time>
      </trkpt>
      <trkpt lat="59.8537319" lon="17.7945854">
        <ele>30.4188</ele>
        <time>2013-04-26T19:16:47Z</time>
      </trkpt>
      <trkpt lat="59.8536927" lon="17.7944669">
        <ele>30.4188</ele>
        <time>2013-04-26T19:16:48Z</time>
      </trkpt>
      <trkpt lat="59.8536518" lon="17.7943452">
        <ele>30.8995</ele>
        <time>2013-04-26T19:16:49Z</time>
      </trkpt>
      <trkpt lat="59.8536113" lon="17.7942229">
        <ele>30.8995</ele>
        <time>2013-04-26T19:16:50Z</time>
      </trkpt>
      <trkpt lat="59.8535702" lon="17.7940992">
        <ele>30.8995</ele>
        <time>2013-04-26T19:16:51Z</time>
      </trkpt>
      <trkpt lat="59.853529" lon="17.7939749">
        <ele>30.4188</ele>
        <time>2013-04-26T19:16:52Z</time>
      </trkpt>
      <trkpt lat="59.8534865" lon="17.7938522">
        <ele>30.4188</ele>
        <time>2013-04-26T19:16:53Z</time>
      </trkpt>
      <trkpt lat="59.8534426" lon="17.7937287">
        <ele>30.4188</ele>
        <time>2013-04-26T19:16:54Z</time>
      </trkpt>
      <trkpt lat="59.8534004" lon="17.7936087">
        <ele>30.4188</ele>
        <time>2013-04-26T19:16:55Z</time>
      </trkpt>
      <trkpt lat="59.8533571" lon="17.7934884">
        <ele>30.4188</ele>
        <time>2013-04-26T19:16:56Z</time>
      </trkpt>
      <trkpt lat="59.8533162" lon="17.7933682">
        <ele>30.8995</ele>
        <time>2013-04-26T19:16:57Z</time>
      </trkpt>
      <trkpt lat="59.8532804" lon="17.7932536">
        <ele>30.8995</ele>
        <time>2013-04-26T19:16:58Z</time>
      </trkpt>
      <trkpt lat="59.8532442" lon="17.7931384">
        <ele>31.3801</ele>
        <time>2013-04-26T19:16:59Z</time>
      </trkpt>
      <trkpt lat="59.8532068" lon="17.7930232">
        <ele>30.4188</ele>
        <time>2013-04-26T19:17:00Z</time>
      </trkpt>
      <trkpt lat="59.8531662" lon="17.7929092">
        <ele>30.4188</ele>
        <time>2013-04-26T19:17:01Z</time>
      </trkpt>
      <trkpt lat="59.8531247" lon="17.7927939">
        <ele>30.8995</ele>
        <time>2013-04-26T19:17:02Z</time>
      </trkpt>
      <trkpt lat="59.8530815" lon="17.7926777">
        <ele>30.4188</ele>
        <time>2013-04-26T19:17:03Z</time>
      </trkpt>
      <trkpt lat="59.8530399" lon="17.7925617">
        <ele>29.4575</ele>
        <time>2013-04-26T19:17:04Z</time>
      </trkpt>
      <trkpt lat="59.852998" lon="17.7924437">
        <ele>28.9769</ele>
        <time>2013-04-26T19:17:05Z</time>
      </trkpt>
      <trkpt lat="59.8529553" lon="17.7923224">
        <ele>28.0155</ele>
        <time>2013-04-26T19:17:06Z</time>
      </trkpt>
      <trkpt lat="59.8529106" lon="17.7922017">
        <ele>27.5349</ele>
        <time>2013-04-26T19:17:07Z</time>
      </trkpt>
      <trkpt lat="59.8528648" lon="17.792082">
        <ele>27.0543</ele>
        <time>2013-04-26T19:17:08Z</time>
      </trkpt>
      <trkpt lat="59.8528187" lon="17.7919642">
        <ele>26.5736</ele>
        <time>2013-04-26T19:17:09Z</time>
      </trkpt>
      <trkpt lat="59.8527742" lon="17.7918452">
        <ele>26.5736</ele>
        <time>2013-04-26T19:17:10Z</time>
      </trkpt>
      <trkpt lat="59.8527271" lon="17.7917267">
        <ele>26.0929</ele>
        <time>2013-04-26T19:17:11Z</time>
      </trkpt>
      <trkpt lat="59.852678" lon="17.791608">
        <ele>26.5736</ele>
        <time>2013-04-26T19:17:12Z</time>
      </trkpt>
      <trkpt lat="59.8526275" lon="17.7914874">
        <ele>26.5736</ele>
        <time>2013-04-26T19:17:13Z</time>
      </trkpt>
      <trkpt lat="59.8525778" lon="17.7913631">
        <ele>26.5736</ele>
        <time>2013-04-26T19:17:14Z</time>
      </trkpt>
      <trkpt lat="59.8525287" lon="17.7912396">
        <ele>26.5736</ele>
        <time>2013-04-26T19:17:15Z</time>
      </trkpt>
      <trkpt lat="59.852481" lon="17.7911173">
        <ele>26.5736</ele>
        <time>2013-04-26T19:17:16Z</time>
      </trkpt>
      <trkpt lat="59.8524323" lon="17.7909946">
        <ele>26.0929</ele>
        <time>2013-04-26T19:17:17Z</time>
      </trkpt>
      <trkpt lat="59.8523829" lon="17.7908735">
        <ele>25.6123</ele>
        <time>2013-04-26T19:17:18Z</time>
      </trkpt>
      <trkpt lat="59.8523329" lon="17.7907528">
        <ele>25.6123</ele>
        <time>2013-04-26T19:17:19Z</time>
      </trkpt>
      <trkpt lat="59.8522822" lon="17.7906336">
        <ele>25.6123</ele>
        <time>2013-04-26T19:17:20Z</time>
      </trkpt>
      <trkpt lat="59.8522309" lon="17.7905174">
        <ele>25.6123</ele>
        <time>2013-04-26T19:17:21Z</time>
      </trkpt>
      <trkpt lat="59.8521806" lon="17.790403">
        <ele>26.0929</ele>
        <time>2013-04-26T19:17:22Z</time>
      </trkpt>
      <trkpt lat="59.8521299" lon="17.7902851">
        <ele>26.0929</ele>
        <time>2013-04-26T19:17:23Z</time>
      </trkpt>
      <trkpt lat="59.8520806" lon="17.7901673">
        <ele>26.5736</ele>
        <time>2013-04-26T19:17:24Z</time>
      </trkpt>
      <trkpt lat="59.8520319" lon="17.7900488">
        <ele>27.0543</ele>
        <time>2013-04-26T19:17:25Z</time>
      </trkpt>
      <trkpt lat="59.8519841" lon="17.7899282">
        <ele>27.5349</ele>
        <time>2013-04-26T19:17:26Z</time>
      </trkpt>
      <trkpt lat="59.8519367" lon="17.7898072">
        <ele>27.5349</ele>
        <time>2013-04-26T19:17:27Z</time>
      </trkpt>
      <trkpt lat="59.8518895" lon="17.7896873">
        <ele>27.5349</ele>
        <time>2013-04-26T19:17:28Z</time>
      </trkpt>
      <trkpt lat="59.8518428" lon="17.789569">
        <ele>28.0155</ele>
        <time>2013-04-26T19:17:29Z</time>
      </trkpt>
      <trkpt lat="59.8517973" lon="17.7894525">
        <ele>27.5349</ele>
        <time>2013-04-26T19:17:30Z</time>
      </trkpt>
      <trkpt lat="59.8517517" lon="17.789338">
        <ele>27.0543</ele>
        <time>2013-04-26T19:17:31Z</time>
      </trkpt>
      <trkpt lat="59.851704" lon="17.7892255">
        <ele>26.0929</ele>
        <time>2013-04-26T19:17:32Z</time>
      </trkpt>
      <trkpt lat="59.8516572" lon="17.7891121">
        <ele>25.1317</ele>
        <time>2013-04-26T19:17:33Z</time>
      </trkpt>
      <trkpt lat="59.8516111" lon="17.7889974">
        <ele>24.651</ele>
        <time>2013-04-26T19:17:34Z</time>
      </trkpt>
      <trkpt lat="59.8515648" lon="17.7888802">
        <ele>23.6896</ele>
        <time>2013-04-26T19:17:35Z</time>
      </trkpt>
      <trkpt lat="59.8515186" lon="17.7887636">
        <ele>23.6896</ele>
        <time>2013-04-26T19:17:36Z</time>
      </trkpt>
      <trkpt lat="59.8514726" lon="17.7886435">
        <ele>23.209</ele>
        <time>2013-04-26T19:17:37Z</time>
      </trkpt>
      <trkpt lat="59.8514263" lon="17.7885215">
        <ele>22.7283</ele>
        <time>2013-04-26T19:17:38Z</time>
      </trkpt>
      <trkpt lat="59.8513775" lon="17.7884026">
        <ele>23.209</ele>
        <time>2013-04-26T19:17:39Z</time>
      </trkpt>
      <trkpt lat="59.8513279" lon="17.7882788">
        <ele>22.7283</ele>
        <time>2013-04-26T19:17:40Z</time>
      </trkpt>
      <trkpt lat="59.8512772" lon="17.7881559">
        <ele>22.7283</ele>
        <time>2013-04-26T19:17:41Z</time>
      </trkpt>
      <trkpt lat="59.8512258" lon="17.7880342">
        <ele>22.2476</ele>
        <time>2013-04-26T19:17:42Z</time>
      </trkpt>
      <trkpt lat="59.8511739" lon="17.7879114">
        <ele>21.767</ele>
        <time>2013-04-26T19:17:43Z</time>
      </trkpt>
      <trkpt lat="59.8511213" lon="17.7877875">
        <ele>21.767</ele>
        <time>2013-04-26T19:17:44Z</time>
      </trkpt>
      <trkpt lat="59.8510682" lon="17.7876637">
        <ele>21.2864</ele>
        <time>2013-04-26T19:17:45Z</time>
      </trkpt>
      <trkpt lat="59.8510149" lon="17.7875407">
        <ele>21.2864</ele>
        <time>2013-04-26T19:17:46Z</time>
      </trkpt>
      <trkpt lat="59.8509634" lon="17.7874161">
        <ele>20.8057</ele>
        <time>2013-04-26T19:17:47Z</time>
      </trkpt>
      <trkpt lat="59.8509126" lon="17.7872894">
        <ele>20.325</ele>
        <time>2013-04-26T19:17:48Z</time>
      </trkpt>
      <trkpt lat="59.8508626" lon="17.7871594">
        <ele>20.325</ele>
        <time>2013-04-26T19:17:49Z</time>
      </trkpt>
      <trkpt lat="59.8508125" lon="17.7870274">
        <ele>19.8444</ele>
        <time>2013-04-26T19:17:50Z</time>
      </trkpt>
      <trkpt lat="59.8507603" lon="17.7868968">
        <ele>18.8831</ele>
        <time>2013-04-26T19:17:51Z</time>
      </trkpt>
      <trkpt lat="59.8507053" lon="17.7867665">
        <ele>17.9218</ele>
        <time>2013-04-26T19:17:52Z</time>
      </trkpt>
      <trkpt lat="59.8506499" lon="17.786629">
        <ele>16.9604</ele>
        <time>2013-04-26T19:17:53Z</time>
      </trkpt>
      <trkpt lat="59.8505937" lon="17.786488">
        <ele>16.4797</ele>
        <time>2013-04-26T19:17:54Z</time>
      </trkpt>
      <trkpt lat="59.8505373" lon="17.7863483">
        <ele>15.5184</ele>
        <time>2013-04-26T19:17:55Z</time>
      </trkpt>
      <trkpt lat="59.8504821" lon="17.7862057">
        <ele>15.0377</ele>
        <time>2013-04-26T19:17:56Z</time>
      </trkpt>
      <trkpt lat="59.8504277" lon="17.7860603">
        <ele>15.0377</ele>
        <time>2013-04-26T19:17:57Z</time>
      </trkpt>
      <trkpt lat="59.8503732" lon="17.7859118">
        <ele>14.557</ele>
        <time>2013-04-26T19:17:58Z</time>
      </trkpt>
      <trkpt lat="59.8503168" lon="17.7857613">
        <ele>14.0764</ele>
        <time>2013-04-26T19:17:59Z</time>
      </trkpt>
      <trkpt lat="59.8502583" lon="17.785608">
        <ele>14.0764</ele>
        <time>2013-04-26T19:18:00Z</time>
      </trkpt>
      <trkpt lat="59.8502005" lon="17.7854473">
        <ele>13.5958</ele>
        <time>2013-04-26T19:18:01Z</time>
      </trkpt>
      <trkpt lat="59.8501431" lon="17.7852817">
        <ele>13.1151</ele>
        <time>2013-04-26T19:18:02Z</time>
      </trkpt>
      <trkpt lat="59.8500882" lon="17.7851105">
        <ele>13.1151</ele>
        <time>2013-04-26T19:18:03Z</time>
      </trkpt>
      <trkpt lat="59.8500368" lon="17.7849344">
        <ele>13.1151</ele>
        <time>2013-04-26T19:18:04Z</time>
      </trkpt>
      <trkpt lat="59.8499859" lon="17.7847569">
        <ele>12.6344</ele>
        <time>2013-04-26T19:18:05Z</time>
      </trkpt>
      <trkpt lat="59.849938" lon="17.7845776">
        <ele>12.1538</ele>
        <time>2013-04-26T19:18:06Z</time>
      </trkpt>
      <trkpt lat="59.8498924" lon="17.7843958">
        <ele>11.6732</ele>
        <time>2013-04-26T19:18:07Z</time>
      </trkpt>
      <trkpt lat="59.8498515" lon="17.7842089">
        <ele>12.1538</ele>
        <time>2013-04-26T19:18:08Z</time>
      </trkpt>
      <trkpt lat="59.8498143" lon="17.7840169">
        <ele>15.0377</ele>
        <time>2013-04-26T19:18:09Z</time>
      </trkpt>
      <trkpt lat="59.8497807" lon="17.7838212">
        <ele>15.5184</ele>
        <time>2013-04-26T19:18:10Z</time>
      </trkpt>
      <trkpt lat="59.8497433" lon="17.7836261">
        <ele>15.999</ele>
        <time>2013-04-26T19:18:11Z</time>
      </trkpt>
      <trkpt lat="59.849702" lon="17.783434">
        <ele>16.4797</ele>
        <time>2013-04-26T19:18:12Z</time>
      </trkpt>
      <trkpt lat="59.8496605" lon="17.7832426">
        <ele>16.4797</ele>
        <time>2013-04-26T19:18:13Z</time>
      </trkpt>
      <trkpt lat="59.8496175" lon="17.7830526">
        <ele>16.4797</ele>
        <time>2013-04-26T19:18:14Z</time>
      </trkpt>
      <trkpt lat="59.8495741" lon="17.7828616">
        <ele>16.9604</ele>
        <time>2013-04-26T19:18:15Z</time>
      </trkpt>
      <trkpt lat="59.8495329" lon="17.7826703">
        <ele>16.9604</ele>
        <time>2013-04-26T19:18:16Z</time>
      </trkpt>
      <trkpt lat="59.8494943" lon="17.7824788">
        <ele>16.9604</ele>
        <time>2013-04-26T19:18:17Z</time>
      </trkpt>
      <trkpt lat="59.8494559" lon="17.7822881">
        <ele>16.9604</ele>
        <time>2013-04-26T19:18:18Z</time>
      </trkpt>
      <trkpt lat="59.8494156" lon="17.7820961">
        <ele>16.4797</ele>
        <time>2013-04-26T19:18:19Z</time>
      </trkpt>
      <trkpt lat="59.8493725" lon="17.7819052">
        <ele>16.4797</ele>
        <time>2013-04-26T19:18:20Z</time>
      </trkpt>
      <trkpt lat="59.8493268" lon="17.7817165">
        <ele>16.4797</ele>
        <time>2013-04-26T19:18:21Z</time>
      </trkpt>
      <trkpt lat="59.8492873" lon="17.7815346">
        <ele>16.9604</ele>
        <time>2013-04-26T19:18:22Z</time>
      </trkpt>
      <trkpt lat="59.8492493" lon="17.781354">
        <ele>16.9604</ele>
        <time>2013-04-26T19:18:23Z</time>
      </trkpt>
      <trkpt lat="59.8492137" lon="17.7811751">
        <ele>17.4412</ele>
        <time>2013-04-26T19:18:24Z</time>
      </trkpt>
      <trkpt lat="59.8491814" lon="17.7809985">
        <ele>17.9218</ele>
        <time>2013-04-26T19:18:25Z</time>
      </trkpt>
      <trkpt lat="59.8491491" lon="17.7808203">
        <ele>18.4023</ele>
        <time>2013-04-26T19:18:26Z</time>
      </trkpt>
      <trkpt lat="59.8491186" lon="17.7806445">
        <ele>19.3638</ele>
        <time>2013-04-26T19:18:27Z</time>
      </trkpt>
      <trkpt lat="59.8490886" lon="17.7804682">
        <ele>19.8444</ele>
        <time>2013-04-26T19:18:28Z</time>
      </trkpt>
      <trkpt lat="59.8490601" lon="17.7802952">
        <ele>21.2864</ele>
        <time>2013-04-26T19:18:29Z</time>
      </trkpt>
      <trkpt lat="59.8490316" lon="17.7801221">
        <ele>21.2864</ele>
        <time>2013-04-26T19:18:30Z</time>
      </trkpt>
      <trkpt lat="59.8490035" lon="17.7799531">
        <ele>22.2476</ele>
        <time>2013-04-26T19:18:31Z</time>
      </trkpt>
      <trkpt lat="59.8489745" lon="17.7797928">
        <ele>22.7283</ele>
        <time>2013-04-26T19:18:32Z</time>
      </trkpt>
      <trkpt lat="59.8489524" lon="17.7796335">
        <ele>23.6896</ele>
        <time>2013-04-26T19:18:33Z</time>
      </trkpt>
      <trkpt lat="59.8489342" lon="17.7794688">
        <ele>24.1703</ele>
        <time>2013-04-26T19:18:34Z</time>
      </trkpt>
      <trkpt lat="59.8489211" lon="17.779302">
        <ele>24.1703</ele>
        <time>2013-04-26T19:18:35Z</time>
      </trkpt>
      <trkpt lat="59.8489107" lon="17.7791342">
        <ele>23.6896</ele>
        <time>2013-04-26T19:18:36Z</time>
      </trkpt>
      <trkpt lat="59.8488995" lon="17.778966">
        <ele>23.6896</ele>
        <time>2013-04-26T19:18:37Z</time>
      </trkpt>
      <trkpt lat="59.8488887" lon="17.7787976">
        <ele>23.209</ele>
        <time>2013-04-26T19:18:38Z</time>
      </trkpt>
      <trkpt lat="59.8488794" lon="17.7786281">
        <ele>23.209</ele>
        <time>2013-04-26T19:18:39Z</time>
      </trkpt>
      <trkpt lat="59.8488725" lon="17.7784593">
        <ele>22.7283</ele>
        <time>2013-04-26T19:18:40Z</time>
      </trkpt>
      <trkpt lat="59.8488719" lon="17.7782921">
        <ele>22.7283</ele>
        <time>2013-04-26T19:18:41Z</time>
      </trkpt>
      <trkpt lat="59.848875" lon="17.7781232">
        <ele>22.7283</ele>
        <time>2013-04-26T19:18:42Z</time>
      </trkpt>
      <trkpt lat="59.8488732" lon="17.7779533">
        <ele>22.7283</ele>
        <time>2013-04-26T19:18:43Z</time>
      </trkpt>
      <trkpt lat="59.8488653" lon="17.7777824">
        <ele>22.7283</ele>
        <time>2013-04-26T19:18:44Z</time>
      </trkpt>
      <trkpt lat="59.8488548" lon="17.7776143">
        <ele>22.7283</ele>
        <time>2013-04-26T19:18:45Z</time>
      </trkpt>
      <trkpt lat="59.8488426" lon="17.7774456">
        <ele>22.2476</ele>
        <time>2013-04-26T19:18:46Z</time>
      </trkpt>
      <trkpt lat="59.8488292" lon="17.7772748">
        <ele>21.767</ele>
        <time>2013-04-26T19:18:47Z</time>
      </trkpt>
      <trkpt lat="59.8488185" lon="17.7771018">
        <ele>21.2864</ele>
        <time>2013-04-26T19:18:48Z</time>
      </trkpt>
      <trkpt lat="59.8488119" lon="17.7769285">
        <ele>21.2864</ele>
        <time>2013-04-26T19:18:49Z</time>
      </trkpt>
      <trkpt lat="59.8488079" lon="17.7767556">
        <ele>21.2864</ele>
        <time>2013-04-26T19:18:50Z</time>
      </trkpt>
      <trkpt lat="59.8488027" lon="17.7765825">
        <ele>20.8057</ele>
        <time>2013-04-26T19:18:51Z</time>
      </trkpt>
      <trkpt lat="59.8487969" lon="17.7764097">
        <ele>20.8057</ele>
        <time>2013-04-26T19:18:52Z</time>
      </trkpt>
      <trkpt lat="59.8487892" lon="17.7762364">
        <ele>20.8057</ele>
        <time>2013-04-26T19:18:53Z</time>
      </trkpt>
      <trkpt lat="59.8487804" lon="17.7760622">
        <ele>20.325</ele>
        <time>2013-04-26T19:18:54Z</time>
      </trkpt>
      <trkpt lat="59.8487737" lon="17.7758875">
        <ele>20.325</ele>
        <time>2013-04-26T19:18:55Z</time>
      </trkpt>
      <trkpt lat="59.8487626" lon="17.7757058">
        <ele>19.3638</ele>
        <time>2013-04-26T19:18:56Z</time>
      </trkpt>
      <trkpt lat="59.8487477" lon="17.7755206">
        <ele>18.4023</ele>
        <time>2013-04-26T19:18:57Z</time>
      </trkpt>
      <trkpt lat="59.84873" lon="17.7753368">
        <ele>17.9218</ele>
        <time>2013-04-26T19:18:58Z</time>
      </trkpt>
      <trkpt lat="59.8487078" lon="17.7751509">
        <ele>16.9604</ele>
        <time>2013-04-26T19:18:59Z</time>
      </trkpt>
      <trkpt lat="59.8486855" lon="17.7749629">
        <ele>15.999</ele>
        <time>2013-04-26T19:19:00Z</time>
      </trkpt>
      <trkpt lat="59.8486637" lon="17.7747726">
        <ele>15.5184</ele>
        <time>2013-04-26T19:19:01Z</time>
      </trkpt>
      <trkpt lat="59.8486405" lon="17.7745781">
        <ele>14.557</ele>
        <time>2013-04-26T19:19:02Z</time>
      </trkpt>
      <trkpt lat="59.8486159" lon="17.774382">
        <ele>14.0764</ele>
        <time>2013-04-26T19:19:03Z</time>
      </trkpt>
      <trkpt lat="59.8485901" lon="17.7741838">
        <ele>13.1151</ele>
        <time>2013-04-26T19:19:04Z</time>
      </trkpt>
      <trkpt lat="59.848565" lon="17.7739779">
        <ele>12.6344</ele>
        <time>2013-04-26T19:19:05Z</time>
      </trkpt>
      <trkpt lat="59.84854" lon="17.7737692">
        <ele>12.1538</ele>
        <time>2013-04-26T19:19:06Z</time>
      </trkpt>
      <trkpt lat="59.8485156" lon="17.773558">
        <ele>11.6732</ele>
        <time>2013-04-26T19:19:07Z</time>
      </trkpt>
      <trkpt lat="59.8484934" lon="17.7733441">
        <ele>11.1925</ele>
        <time>2013-04-26T19:19:08Z</time>
      </trkpt>
      <trkpt lat="59.84847" lon="17.7731309">
        <ele>10.7118</ele>
        <time>2013-04-26T19:19:09Z</time>
      </trkpt>
      <trkpt lat="59.8484452" lon="17.7729151">
        <ele>9.75061</ele>
        <time>2013-04-26T19:19:10Z</time>
      </trkpt>
      <trkpt lat="59.8484161" lon="17.772695">
        <ele>8.78918</ele>
        <time>2013-04-26T19:19:11Z</time>
      </trkpt>
      <trkpt lat="59.848381" lon="17.7724718">
        <ele>8.30859</ele>
        <time>2013-04-26T19:19:12Z</time>
      </trkpt>
      <trkpt lat="59.848342" lon="17.7722473">
        <ele>7.82788</ele>
        <time>2013-04-26T19:19:13Z</time>
      </trkpt>
      <trkpt lat="59.8483016" lon="17.7720236">
        <ele>7.34717</ele>
        <time>2013-04-26T19:19:14Z</time>
      </trkpt>
      <trkpt lat="59.8482602" lon="17.7718005">
        <ele>7.34717</ele>
        <time>2013-04-26T19:19:15Z</time>
      </trkpt>
      <trkpt lat="59.8482193" lon="17.7715801">
        <ele>7.34717</ele>
        <time>2013-04-26T19:19:16Z</time>
      </trkpt>
      <trkpt lat="59.8481799" lon="17.7713611">
        <ele>7.34717</ele>
        <time>2013-04-26T19:19:17Z</time>
      </trkpt>
      <trkpt lat="59.8481433" lon="17.7711428">
        <ele>7.34717</ele>
        <time>2013-04-26T19:19:18Z</time>
      </trkpt>
      <trkpt lat="59.8481146" lon="17.7709243">
        <ele>7.34717</ele>
        <time>2013-04-26T19:19:19Z</time>
      </trkpt>
      <trkpt lat="59.8480944" lon="17.7707073">
        <ele>7.82788</ele>
        <time>2013-04-26T19:19:20Z</time>
      </trkpt>
      <trkpt lat="59.8480755" lon="17.7704935">
        <ele>7.82788</ele>
        <time>2013-04-26T19:19:21Z</time>
      </trkpt>
      <trkpt lat="59.8480495" lon="17.7702879">
        <ele>7.82788</ele>
        <time>2013-04-26T19:19:22Z</time>
      </trkpt>
      <trkpt lat="59.8480091" lon="17.7700967">
        <ele>8.30859</ele>
        <time>2013-04-26T19:19:23Z</time>
      </trkpt>
      <trkpt lat="59.8479579" lon="17.7699173">
        <ele>8.30859</ele>
        <time>2013-04-26T19:19:24Z</time>
      </trkpt>
      <trkpt lat="59.847907" lon="17.7697423">
        <ele>8.30859</ele>
        <time>2013-04-26T19:19:25Z</time>
      </trkpt>
      <trkpt lat="59.8478626" lon="17.7695647">
        <ele>8.78918</ele>
        <time>2013-04-26T19:19:26Z</time>
      </trkpt>
      <trkpt lat="59.8478251" lon="17.769384">
        <ele>8.78918</ele>
        <time>2013-04-26T19:19:27Z</time>
      </trkpt>
      <trkpt lat="59.8477939" lon="17.7691995">
        <ele>8.78918</ele>
        <time>2013-04-26T19:19:28Z</time>
      </trkpt>
      <trkpt lat="59.8477678" lon="17.769014">
        <ele>8.78918</ele>
        <time>2013-04-26T19:19:29Z</time>
      </trkpt>
      <trkpt lat="59.8477428" lon="17.7688292">
        <ele>8.78918</ele>
        <time>2013-04-26T19:19:30Z</time>
      </trkpt>
      <trkpt lat="59.8477163" lon="17.7686473">
        <ele>9.2699</ele>
        <time>2013-04-26T19:19:31Z</time>
      </trkpt>
      <trkpt lat="59.8476885" lon="17.7684684">
        <ele>9.2699</ele>
        <time>2013-04-26T19:19:32Z</time>
      </trkpt>
      <trkpt lat="59.8476615" lon="17.7682901">
        <ele>9.2699</ele>
        <time>2013-04-26T19:19:33Z</time>
      </trkpt>
      <trkpt lat="59.8476341" lon="17.7681133">
        <ele>9.75061</ele>
        <time>2013-04-26T19:19:34Z</time>
      </trkpt>
      <trkpt lat="59.8476055" lon="17.7679386">
        <ele>9.75061</ele>
        <time>2013-04-26T19:19:35Z</time>
      </trkpt>
      <trkpt lat="59.8475761" lon="17.767766">
        <ele>9.75061</ele>
        <time>2013-04-26T19:19:36Z</time>
      </trkpt>
      <trkpt lat="59.8475463" lon="17.7675945">
        <ele>9.75061</ele>
        <time>2013-04-26T19:19:37Z</time>
      </trkpt>
      <trkpt lat="59.8475165" lon="17.7674236">
        <ele>9.75061</ele>
        <time>2013-04-26T19:19:38Z</time>
      </trkpt>
      <trkpt lat="59.8474879" lon="17.7672542">
        <ele>10.2312</ele>
        <time>2013-04-26T19:19:39Z</time>
      </trkpt>
      <trkpt lat="59.84746" lon="17.7670876">
        <ele>10.2312</ele>
        <time>2013-04-26T19:19:40Z</time>
      </trkpt>
      <trkpt lat="59.8474323" lon="17.7669237">
        <ele>10.2312</ele>
        <time>2013-04-26T19:19:41Z</time>
      </trkpt>
      <trkpt lat="59.8474056" lon="17.7667627">
        <ele>10.7118</ele>
        <time>2013-04-26T19:19:42Z</time>
      </trkpt>
      <trkpt lat="59.8473796" lon="17.7666061">
        <ele>10.7118</ele>
        <time>2013-04-26T19:19:43Z</time>
      </trkpt>
      <trkpt lat="59.8473551" lon="17.7664522">
        <ele>10.7118</ele>
        <time>2013-04-26T19:19:44Z</time>
      </trkpt>
      <trkpt lat="59.8473316" lon="17.7663002">
        <ele>11.1925</ele>
        <time>2013-04-26T19:19:45Z</time>
      </trkpt>
      <trkpt lat="59.8473078" lon="17.76615">
        <ele>11.1925</ele>
        <time>2013-04-26T19:19:46Z</time>
      </trkpt>
      <trkpt lat="59.8472833" lon="17.7660005">
        <ele>11.1925</ele>
        <time>2013-04-26T19:19:47Z</time>
      </trkpt>
      <trkpt lat="59.8472593" lon="17.7658515">
        <ele>11.1925</ele>
        <time>2013-04-26T19:19:48Z</time>
      </trkpt>
      <trkpt lat="59.8472347" lon="17.7657038">
        <ele>11.1925</ele>
        <time>2013-04-26T19:19:49Z</time>
      </trkpt>
      <trkpt lat="59.8472113" lon="17.7655568">
        <ele>11.1925</ele>
        <time>2013-04-26T19:19:50Z</time>
      </trkpt>
      <trkpt lat="59.8471988" lon="17.7654072">
        <ele>11.1925</ele>
        <time>2013-04-26T19:19:51Z</time>
      </trkpt>
      <trkpt lat="59.8472088" lon="17.7652609">
        <ele>11.1925</ele>
        <time>2013-04-26T19:19:52Z</time>
      </trkpt>
      <trkpt lat="59.8472407" lon="17.7651284">
        <ele>11.1925</ele>
        <time>2013-04-26T19:19:53Z</time>
      </trkpt>
      <trkpt lat="59.8472864" lon="17.7650113">
        <ele>11.1925</ele>
        <time>2013-04-26T19:19:54Z</time>
      </trkpt>
      <trkpt lat="59.8473387" lon="17.7649061">
        <ele>11.1925</ele>
        <time>2013-04-26T19:19:55Z</time>
      </trkpt>
      <trkpt lat="59.8473911" lon="17.7648029">
        <ele>11.1925</ele>
        <time>2013-04-26T19:19:56Z</time>
      </trkpt>
      <trkpt lat="59.8474417" lon="17.7646959">
        <ele>11.1925</ele>
        <time>2013-04-26T19:19:57Z</time>
      </trkpt>
      <trkpt lat="59.8474922" lon="17.7645888">
        <ele>11.1925</ele>
        <time>2013-04-26T19:19:58Z</time>
      </trkpt>
      <trkpt lat="59.8475438" lon="17.7644833">
        <ele>11.6732</ele>
        <time>2013-04-26T19:19:59Z</time>
      </trkpt>
      <trkpt lat="59.8475961" lon="17.7643786">
        <ele>11.6732</ele>
        <time>2013-04-26T19:20:00Z</time>
      </trkpt>
      <trkpt lat="59.847648" lon="17.7642748">
        <ele>11.6732</ele>
        <time>2013-04-26T19:20:01Z</time>
      </trkpt>
      <trkpt lat="59.8476993" lon="17.7641706">
        <ele>11.6732</ele>
        <time>2013-04-26T19:20:02Z</time>
      </trkpt>
      <trkpt lat="59.8477498" lon="17.7640654">
        <ele>11.6732</ele>
        <time>2013-04-26T19:20:03Z</time>
      </trkpt>
      <trkpt lat="59.8478006" lon="17.7639608">
        <ele>11.6732</ele>
        <time>2013-04-26T19:20:04Z</time>
      </trkpt>
      <trkpt lat="59.8478505" lon="17.7638568">
        <ele>11.6732</ele>
        <time>2013-04-26T19:20:05Z</time>
      </trkpt>
      <trkpt lat="59.8478996" lon="17.7637534">
        <ele>11.6732</ele>
        <time>2013-04-26T19:20:06Z</time>
      </trkpt>
      <trkpt lat="59.8479474" lon="17.76365">
        <ele>11.6732</ele>
        <time>2013-04-26T19:20:07Z</time>
      </trkpt>
      <trkpt lat="59.8479957" lon="17.7635472">
        <ele>11.6732</ele>
        <time>2013-04-26T19:20:08Z</time>
      </trkpt>
      <trkpt lat="59.8480453" lon="17.7634455">
        <ele>11.6732</ele>
        <time>2013-04-26T19:20:09Z</time>
      </trkpt>
      <trkpt lat="59.8480966" lon="17.7633457">
        <ele>12.1538</ele>
        <time>2013-04-26T19:20:10Z</time>
      </trkpt>
      <trkpt lat="59.8481463" lon="17.7632447">
        <ele>12.1538</ele>
        <time>2013-04-26T19:20:11Z</time>
      </trkpt>
      <trkpt lat="59.8481955" lon="17.7631439">
        <ele>12.6344</ele>
        <time>2013-04-26T19:20:12Z</time>
      </trkpt>
      <trkpt lat="59.8482449" lon="17.763044">
        <ele>12.6344</ele>
        <time>2013-04-26T19:20:13Z</time>
      </trkpt>
      <trkpt lat="59.8482915" lon="17.7629381">
        <ele>13.1151</ele>
        <time>2013-04-26T19:20:14Z</time>
      </trkpt>
      <trkpt lat="59.8483267" lon="17.7628185">
        <ele>13.1151</ele>
        <time>2013-04-26T19:20:15Z</time>
      </trkpt>
      <trkpt lat="59.8483474" lon="17.7626874">
        <ele>13.1151</ele>
        <time>2013-04-26T19:20:16Z</time>
      </trkpt>
      <trkpt lat="59.848358" lon="17.7625499">
        <ele>13.1151</ele>
        <time>2013-04-26T19:20:17Z</time>
      </trkpt>
      <trkpt lat="59.8483642" lon="17.7624097">
        <ele>13.5958</ele>
        <time>2013-04-26T19:20:18Z</time>
      </trkpt>
      <trkpt lat="59.8483679" lon="17.7622674">
        <ele>13.5958</ele>
        <time>2013-04-26T19:20:19Z</time>
      </trkpt>
      <trkpt lat="59.8483722" lon="17.7621229">
        <ele>13.5958</ele>
        <time>2013-04-26T19:20:20Z</time>
      </trkpt>
      <trkpt lat="59.8483773" lon="17.7619774">
        <ele>13.5958</ele>
        <time>2013-04-26T19:20:21Z</time>
      </trkpt>
      <trkpt lat="59.8483815" lon="17.7618317">
        <ele>14.0764</ele>
        <time>2013-04-26T19:20:22Z</time>
      </trkpt>
      <trkpt lat="59.8483861" lon="17.7616851">
        <ele>14.0764</ele>
        <time>2013-04-26T19:20:23Z</time>
      </trkpt>
      <trkpt lat="59.8483908" lon="17.761538">
        <ele>14.0764</ele>
        <time>2013-04-26T19:20:24Z</time>
      </trkpt>
      <trkpt lat="59.8483934" lon="17.7613905">
        <ele>14.0764</ele>
        <time>2013-04-26T19:20:25Z</time>
      </trkpt>
      <trkpt lat="59.8483929" lon="17.7612413">
        <ele>14.557</ele>
        <time>2013-04-26T19:20:26Z</time>
      </trkpt>
      <trkpt lat="59.8483932" lon="17.7610931">
        <ele>14.557</ele>
        <time>2013-04-26T19:20:27Z</time>
      </trkpt>
      <trkpt lat="59.848398" lon="17.7609434">
        <ele>14.557</ele>
        <time>2013-04-26T19:20:28Z</time>
      </trkpt>
      <trkpt lat="59.8484021" lon="17.760794">
        <ele>15.0377</ele>
        <time>2013-04-26T19:20:29Z</time>
      </trkpt>
      <trkpt lat="59.848406" lon="17.7606445">
        <ele>15.0377</ele>
        <time>2013-04-26T19:20:30Z</time>
      </trkpt>
      <trkpt lat="59.8484105" lon="17.7604956">
        <ele>15.0377</ele>
        <time>2013-04-26T19:20:31Z</time>
      </trkpt>
      <trkpt lat="59.8484157" lon="17.7603473">
        <ele>15.0377</ele>
        <time>2013-04-26T19:20:32Z</time>
      </trkpt>
      <trkpt lat="59.8484214" lon="17.760199">
        <ele>15.0377</ele>
        <time>2013-04-26T19:20:33Z</time>
      </trkpt>
      <trkpt lat="59.8484264" lon="17.7600504">
        <ele>15.0377</ele>
        <time>2013-04-26T19:20:34Z</time>
      </trkpt>
      <trkpt lat="59.8484305" lon="17.759901">
        <ele>15.5184</ele>
        <time>2013-04-26T19:20:35Z</time>
      </trkpt>
      <trkpt lat="59.8484349" lon="17.759752">
        <ele>15.5184</ele>
        <time>2013-04-26T19:20:36Z</time>
      </trkpt>
      <trkpt lat="59.8484394" lon="17.7596033">
        <ele>15.5184</ele>
        <time>2013-04-26T19:20:37Z</time>
      </trkpt>
      <trkpt lat="59.8484432" lon="17.7594546">
        <ele>15.5184</ele>
        <time>2013-04-26T19:20:38Z</time>
      </trkpt>
      <trkpt lat="59.8484472" lon="17.7593063">
        <ele>15.5184</ele>
        <time>2013-04-26T19:20:39Z</time>
      </trkpt>
      <trkpt lat="59.8484509" lon="17.7591583">
        <ele>15.5184</ele>
        <time>2013-04-26T19:20:40Z</time>
      </trkpt>
      <trkpt lat="59.8484552" lon="17.7590115">
        <ele>15.5184</ele>
        <time>2013-04-26T19:20:41Z</time>
      </trkpt>
      <trkpt lat="59.8484612" lon="17.7588667">
        <ele>15.5184</ele>
        <time>2013-04-26T19:20:42Z</time>
      </trkpt>
      <trkpt lat="59.8484684" lon="17.7587221">
        <ele>15.5184</ele>
        <time>2013-04-26T19:20:43Z</time>
      </trkpt>
      <trkpt lat="59.8484742" lon="17.7585787">
        <ele>15.999</ele>
        <time>2013-04-26T19:20:44Z</time>
      </trkpt>
      <trkpt lat="59.8484783" lon="17.7584373">
        <ele>15.999</ele>
        <time>2013-04-26T19:20:45Z</time>
      </trkpt>
      <trkpt lat="59.8484813" lon="17.7582975">
        <ele>15.999</ele>
        <time>2013-04-26T19:20:46Z</time>
      </trkpt>
      <trkpt lat="59.8484846" lon="17.7581596">
        <ele>15.999</ele>
        <time>2013-04-26T19:20:47Z</time>
      </trkpt>
      <trkpt lat="59.848488" lon="17.7580225">
        <ele>15.999</ele>
        <time>2013-04-26T19:20:48Z</time>
      </trkpt>
      <trkpt lat="59.8484899" lon="17.7578852">
        <ele>15.999</ele>
        <time>2013-04-26T19:20:49Z</time>
      </trkpt>
      <trkpt lat="59.8484913" lon="17.7577472">
        <ele>15.999</ele>
        <time>2013-04-26T19:20:50Z</time>
      </trkpt>
      <trkpt lat="59.8484934" lon="17.7576089">
        <ele>16.4797</ele>
        <time>2013-04-26T19:20:51Z</time>
      </trkpt>
      <trkpt lat="59.848496" lon="17.7574707">
        <ele>16.4797</ele>
        <time>2013-04-26T19:20:52Z</time>
      </trkpt>
      <trkpt lat="59.8484986" lon="17.7573327">
        <ele>16.4797</ele>
        <time>2013-04-26T19:20:53Z</time>
      </trkpt>
      <trkpt lat="59.8485011" lon="17.7571941">
        <ele>16.4797</ele>
        <time>2013-04-26T19:20:54Z</time>
      </trkpt>
      <trkpt lat="59.8485015" lon="17.7570552">
        <ele>16.4797</ele>
        <time>2013-04-26T19:20:55Z</time>
      </trkpt>
      <trkpt lat="59.8485001" lon="17.7569155">
        <ele>16.4797</ele>
        <time>2013-04-26T19:20:56Z</time>
      </trkpt>
      <trkpt lat="59.8484974" lon="17.7567751">
        <ele>15.999</ele>
        <time>2013-04-26T19:20:57Z</time>
      </trkpt>
      <trkpt lat="59.8484939" lon="17.7566332">
        <ele>15.999</ele>
        <time>2013-04-26T19:20:58Z</time>
      </trkpt>
      <trkpt lat="59.8484892" lon="17.7564909">
        <ele>15.999</ele>
        <time>2013-04-26T19:20:59Z</time>
      </trkpt>
      <trkpt lat="59.8484829" lon="17.7563481">
        <ele>15.999</ele>
        <time>2013-04-26T19:21:00Z</time>
      </trkpt>
      <trkpt lat="59.8484753" lon="17.7562052">
        <ele>15.999</ele>
        <time>2013-04-26T19:21:01Z</time>
      </trkpt>
      <trkpt lat="59.848467" lon="17.7560627">
        <ele>15.999</ele>
        <time>2013-04-26T19:21:02Z</time>
      </trkpt>
      <trkpt lat="59.8484578" lon="17.7559206">
        <ele>15.999</ele>
        <time>2013-04-26T19:21:03Z</time>
      </trkpt>
      <trkpt lat="59.8484479" lon="17.7557783">
        <ele>15.999</ele>
        <time>2013-04-26T19:21:04Z</time>
      </trkpt>
      <trkpt lat="59.8484369" lon="17.7556363">
        <ele>15.999</ele>
        <time>2013-04-26T19:21:05Z</time>
      </trkpt>
      <trkpt lat="59.8484239" lon="17.7554925">
        <ele>16.4797</ele>
        <time>2013-04-26T19:21:06Z</time>
      </trkpt>
      <trkpt lat="59.848411" lon="17.7553484">
        <ele>16.4797</ele>
        <time>2013-04-26T19:21:07Z</time>
      </trkpt>
      <trkpt lat="59.8483991" lon="17.7552035">
        <ele>16.4797</ele>
        <time>2013-04-26T19:21:08Z</time>
      </trkpt>
      <trkpt lat="59.8483857" lon="17.7550587">
        <ele>16.4797</ele>
        <time>2013-04-26T19:21:09Z</time>
      </trkpt>
      <trkpt lat="59.8483709" lon="17.7549148">
        <ele>16.4797</ele>
        <time>2013-04-26T19:21:10Z</time>
      </trkpt>
      <trkpt lat="59.8483555" lon="17.754772">
        <ele>16.9604</ele>
        <time>2013-04-26T19:21:11Z</time>
      </trkpt>
      <trkpt lat="59.8483404" lon="17.7546299">
        <ele>16.9604</ele>
        <time>2013-04-26T19:21:12Z</time>
      </trkpt>
      <trkpt lat="59.8483245" lon="17.754489">
        <ele>16.9604</ele>
        <time>2013-04-26T19:21:13Z</time>
      </trkpt>
      <trkpt lat="59.8483069" lon="17.7543492">
        <ele>16.9604</ele>
        <time>2013-04-26T19:21:14Z</time>
      </trkpt>
      <trkpt lat="59.8482893" lon="17.7542093">
        <ele>16.9604</ele>
        <time>2013-04-26T19:21:15Z</time>
      </trkpt>
      <trkpt lat="59.8482722" lon="17.7540693">
        <ele>17.4412</ele>
        <time>2013-04-26T19:21:16Z</time>
      </trkpt>
      <trkpt lat="59.8482561" lon="17.7539301">
        <ele>17.4412</ele>
        <time>2013-04-26T19:21:17Z</time>
      </trkpt>
      <trkpt lat="59.848239" lon="17.7537923">
        <ele>17.9218</ele>
        <time>2013-04-26T19:21:18Z</time>
      </trkpt>
      <trkpt lat="59.8482225" lon="17.7536584">
        <ele>17.9218</ele>
        <time>2013-04-26T19:21:19Z</time>
      </trkpt>
      <trkpt lat="59.848207" lon="17.7535285">
        <ele>17.9218</ele>
        <time>2013-04-26T19:21:20Z</time>
      </trkpt>
      <trkpt lat="59.8481908" lon="17.7534005">
        <ele>18.4023</ele>
        <time>2013-04-26T19:21:21Z</time>
      </trkpt>
      <trkpt lat="59.8481738" lon="17.7532731">
        <ele>18.4023</ele>
        <time>2013-04-26T19:21:22Z</time>
      </trkpt>
      <trkpt lat="59.8481578" lon="17.7531466">
        <ele>18.8831</ele>
        <time>2013-04-26T19:21:23Z</time>
      </trkpt>
      <trkpt lat="59.8481427" lon="17.7530221">
        <ele>18.8831</ele>
        <time>2013-04-26T19:21:24Z</time>
      </trkpt>
      <trkpt lat="59.8481282" lon="17.7529006">
        <ele>18.8831</ele>
        <time>2013-04-26T19:21:25Z</time>
      </trkpt>
      <trkpt lat="59.8481132" lon="17.7527817">
        <ele>19.3638</ele>
        <time>2013-04-26T19:21:26Z</time>
      </trkpt>
      <trkpt lat="59.8480964" lon="17.752665">
        <ele>19.3638</ele>
        <time>2013-04-26T19:21:27Z</time>
      </trkpt>
      <trkpt lat="59.8480808" lon="17.7525515">
        <ele>19.3638</ele>
        <time>2013-04-26T19:21:28Z</time>
      </trkpt>
      <trkpt lat="59.8480655" lon="17.7524424">
        <ele>19.8444</ele>
        <time>2013-04-26T19:21:29Z</time>
      </trkpt>
      <trkpt lat="59.8480494" lon="17.7523362">
        <ele>19.8444</ele>
        <time>2013-04-26T19:21:30Z</time>
      </trkpt>
      <trkpt lat="59.8480314" lon="17.7522309">
        <ele>19.8444</ele>
        <time>2013-04-26T19:21:31Z</time>
      </trkpt>
      <trkpt lat="59.8480152" lon="17.7521241">
        <ele>19.8444</ele>
        <time>2013-04-26T19:21:32Z</time>
      </trkpt>
      <trkpt lat="59.8480006" lon="17.7520176">
        <ele>20.325</ele>
        <time>2013-04-26T19:21:33Z</time>
      </trkpt>
      <trkpt lat="59.8479874" lon="17.7519117">
        <ele>20.325</ele>
        <time>2013-04-26T19:21:34Z</time>
      </trkpt>
      <trkpt lat="59.8479757" lon="17.7518058">
        <ele>20.8057</ele>
        <time>2013-04-26T19:21:35Z</time>
      </trkpt>
      <trkpt lat="59.8479635" lon="17.7517011">
        <ele>20.8057</ele>
        <time>2013-04-26T19:21:36Z</time>
      </trkpt>
      <trkpt lat="59.8479506" lon="17.7515958">
        <ele>20.8057</ele>
        <time>2013-04-26T19:21:37Z</time>
      </trkpt>
      <trkpt lat="59.8479386" lon="17.7514902">
        <ele>20.8057</ele>
        <time>2013-04-26T19:21:38Z</time>
      </trkpt>
      <trkpt lat="59.8479265" lon="17.7513852">
        <ele>20.8057</ele>
        <time>2013-04-26T19:21:39Z</time>
      </trkpt>
      <trkpt lat="59.8479137" lon="17.751278">
        <ele>21.2864</ele>
        <time>2013-04-26T19:21:40Z</time>
      </trkpt>
      <trkpt lat="59.8479016" lon="17.7511687">
        <ele>21.2864</ele>
        <time>2013-04-26T19:21:41Z</time>
      </trkpt>
      <trkpt lat="59.8478904" lon="17.7510596">
        <ele>21.2864</ele>
        <time>2013-04-26T19:21:42Z</time>
      </trkpt>
      <trkpt lat="59.84788" lon="17.7509475">
        <ele>21.2864</ele>
        <time>2013-04-26T19:21:43Z</time>
      </trkpt>
      <trkpt lat="59.8478692" lon="17.7508343">
        <ele>21.2864</ele>
        <time>2013-04-26T19:21:44Z</time>
      </trkpt>
      <trkpt lat="59.8478576" lon="17.7507206">
        <ele>21.767</ele>
        <time>2013-04-26T19:21:45Z</time>
      </trkpt>
      <trkpt lat="59.8478441" lon="17.7506065">
        <ele>21.767</ele>
        <time>2013-04-26T19:21:46Z</time>
      </trkpt>
      <trkpt lat="59.8478318" lon="17.750492">
        <ele>21.767</ele>
        <time>2013-04-26T19:21:47Z</time>
      </trkpt>
      <trkpt lat="59.8478226" lon="17.7503744">
        <ele>21.767</ele>
        <time>2013-04-26T19:21:48Z</time>
      </trkpt>
      <trkpt lat="59.8478158" lon="17.7502517">
        <ele>21.767</ele>
        <time>2013-04-26T19:21:49Z</time>
      </trkpt>
      <trkpt lat="59.8478099" lon="17.7501314">
        <ele>21.767</ele>
        <time>2013-04-26T19:21:50Z</time>
      </trkpt>
      <trkpt lat="59.8478048" lon="17.7500164">
        <ele>22.2476</ele>
        <time>2013-04-26T19:21:51Z</time>
      </trkpt>
      <trkpt lat="59.8478004" lon="17.7499026">
        <ele>22.2476</ele>
        <time>2013-04-26T19:21:52Z</time>
      </trkpt>
      <trkpt lat="59.8477925" lon="17.7497896">
        <ele>21.767</ele>
        <time>2013-04-26T19:21:53Z</time>
      </trkpt>
      <trkpt lat="59.8477866" lon="17.7496746">
        <ele>22.2476</ele>
        <time>2013-04-26T19:21:54Z</time>
      </trkpt>
      <trkpt lat="59.8477804" lon="17.7495607">
        <ele>21.767</ele>
        <time>2013-04-26T19:21:55Z</time>
      </trkpt>
      <trkpt lat="59.8477754" lon="17.7494457">
        <ele>21.767</ele>
        <time>2013-04-26T19:21:56Z</time>
      </trkpt>
      <trkpt lat="59.8477698" lon="17.7493276">
        <ele>21.767</ele>
        <time>2013-04-26T19:21:57Z</time>
      </trkpt>
      <trkpt lat="59.8477645" lon="17.7492075">
        <ele>21.767</ele>
        <time>2013-04-26T19:21:58Z</time>
      </trkpt>
      <trkpt lat="59.847761" lon="17.7490866">
        <ele>21.767</ele>
        <time>2013-04-26T19:21:59Z</time>
      </trkpt>
      <trkpt lat="59.8477584" lon="17.7489633">
        <ele>21.767</ele>
        <time>2013-04-26T19:22:00Z</time>
      </trkpt>
      <trkpt lat="59.8477564" lon="17.7488376">
        <ele>21.767</ele>
        <time>2013-04-26T19:22:01Z</time>
      </trkpt>
      <trkpt lat="59.8477538" lon="17.7487107">
        <ele>21.767</ele>
        <time>2013-04-26T19:22:02Z</time>
      </trkpt>
      <trkpt lat="59.8477511" lon="17.7485827">
        <ele>21.767</ele>
        <time>2013-04-26T19:22:03Z</time>
      </trkpt>
      <trkpt lat="59.8477485" lon="17.7484527">
        <ele>21.767</ele>
        <time>2013-04-26T19:22:04Z</time>
      </trkpt>
      <trkpt lat="59.8477464" lon="17.7483211">
        <ele>21.767</ele>
        <time>2013-04-26T19:22:05Z</time>
      </trkpt>
      <trkpt lat="59.8477452" lon="17.748188">
        <ele>21.767</ele>
        <time>2013-04-26T19:22:06Z</time>
      </trkpt>
      <trkpt lat="59.8477452" lon="17.7480536">
        <ele>21.767</ele>
        <time>2013-04-26T19:22:07Z</time>
      </trkpt>
      <trkpt lat="59.8477463" lon="17.7479176">
        <ele>21.767</ele>
        <time>2013-04-26T19:22:08Z</time>
      </trkpt>
      <trkpt lat="59.8477462" lon="17.7477801">
        <ele>21.767</ele>
        <time>2013-04-26T19:22:09Z</time>
      </trkpt>
      <trkpt lat="59.8477457" lon="17.7476419">
        <ele>21.767</ele>
        <time>2013-04-26T19:22:10Z</time>
      </trkpt>
      <trkpt lat="59.8477455" lon="17.747502">
        <ele>21.767</ele>
        <time>2013-04-26T19:22:11Z</time>
      </trkpt>
      <trkpt lat="59.8477464" lon="17.7473601">
        <ele>21.767</ele>
        <time>2013-04-26T19:22:12Z</time>
      </trkpt>
      <trkpt lat="59.8477495" lon="17.7472166">
        <ele>21.2864</ele>
        <time>2013-04-26T19:22:13Z</time>
      </trkpt>
      <trkpt lat="59.8477527" lon="17.7470706">
        <ele>21.2864</ele>
        <time>2013-04-26T19:22:14Z</time>
      </trkpt>
      <trkpt lat="59.8477548" lon="17.7469213">
        <ele>21.2864</ele>
        <time>2013-04-26T19:22:15Z</time>
      </trkpt>
      <trkpt lat="59.8477573" lon="17.7467685">
        <ele>21.2864</ele>
        <time>2013-04-26T19:22:16Z</time>
      </trkpt>
      <trkpt lat="59.8477607" lon="17.7466128">
        <ele>20.8057</ele>
        <time>2013-04-26T19:22:17Z</time>
      </trkpt>
      <trkpt lat="59.8477645" lon="17.746455">
        <ele>20.8057</ele>
        <time>2013-04-26T19:22:18Z</time>
      </trkpt>
      <trkpt lat="59.8477674" lon="17.7462947">
        <ele>20.8057</ele>
        <time>2013-04-26T19:22:19Z</time>
      </trkpt>
      <trkpt lat="59.8477698" lon="17.746134">
        <ele>20.325</ele>
        <time>2013-04-26T19:22:20Z</time>
      </trkpt>
      <trkpt lat="59.8477734" lon="17.7459717">
        <ele>20.325</ele>
        <time>2013-04-26T19:22:21Z</time>
      </trkpt>
      <trkpt lat="59.8477764" lon="17.7458072">
        <ele>20.325</ele>
        <time>2013-04-26T19:22:22Z</time>
      </trkpt>
      <trkpt lat="59.8477775" lon="17.7456407">
        <ele>19.8444</ele>
        <time>2013-04-26T19:22:23Z</time>
      </trkpt>
      <trkpt lat="59.8477791" lon="17.7454728">
        <ele>19.8444</ele>
        <time>2013-04-26T19:22:24Z</time>
      </trkpt>
      <trkpt lat="59.8477826" lon="17.7453031">
        <ele>19.8444</ele>
        <time>2013-04-26T19:22:25Z</time>
      </trkpt>
      <trkpt lat="59.8477862" lon="17.7451321">
        <ele>19.8444</ele>
        <time>2013-04-26T19:22:26Z</time>
      </trkpt>
      <trkpt lat="59.847789" lon="17.7449603">
        <ele>19.3638</ele>
        <time>2013-04-26T19:22:27Z</time>
      </trkpt>
      <trkpt lat="59.8477916" lon="17.7447883">
        <ele>19.3638</ele>
        <time>2013-04-26T19:22:28Z</time>
      </trkpt>
      <trkpt lat="59.847794" lon="17.7446161">
        <ele>19.3638</ele>
        <time>2013-04-26T19:22:29Z</time>
      </trkpt>
      <trkpt lat="59.8477961" lon="17.7444448">
        <ele>19.3638</ele>
        <time>2013-04-26T19:22:30Z</time>
      </trkpt>
      <trkpt lat="59.8477987" lon="17.7442754">
        <ele>19.3638</ele>
        <time>2013-04-26T19:22:31Z</time>
      </trkpt>
      <trkpt lat="59.8478018" lon="17.7441061">
        <ele>19.3638</ele>
        <time>2013-04-26T19:22:32Z</time>
      </trkpt>
      <trkpt lat="59.8478055" lon="17.743938">
        <ele>19.3638</ele>
        <time>2013-04-26T19:22:33Z</time>
      </trkpt>
      <trkpt lat="59.8478091" lon="17.743771">
        <ele>19.3638</ele>
        <time>2013-04-26T19:22:34Z</time>
      </trkpt>
      <trkpt lat="59.8478127" lon="17.7436057">
        <ele>19.3638</ele>
        <time>2013-04-26T19:22:35Z</time>
      </trkpt>
      <trkpt lat="59.8478163" lon="17.7434419">
        <ele>19.3638</ele>
        <time>2013-04-26T19:22:36Z</time>
      </trkpt>
      <trkpt lat="59.8478175" lon="17.7432788">
        <ele>19.3638</ele>
        <time>2013-04-26T19:22:37Z</time>
      </trkpt>
      <trkpt lat="59.8478183" lon="17.7431171">
        <ele>19.3638</ele>
        <time>2013-04-26T19:22:38Z</time>
      </trkpt>
      <trkpt lat="59.8478208" lon="17.7429574">
        <ele>19.3638</ele>
        <time>2013-04-26T19:22:39Z</time>
      </trkpt>
      <trkpt lat="59.8478241" lon="17.7427996">
        <ele>19.3638</ele>
        <time>2013-04-26T19:22:40Z</time>
      </trkpt>
      <trkpt lat="59.8478276" lon="17.7426443">
        <ele>19.3638</ele>
        <time>2013-04-26T19:22:41Z</time>
      </trkpt>
      <trkpt lat="59.8478313" lon="17.7424903">
        <ele>19.3638</ele>
        <time>2013-04-26T19:22:42Z</time>
      </trkpt>
      <trkpt lat="59.8478346" lon="17.7423373">
        <ele>19.3638</ele>
        <time>2013-04-26T19:22:43Z</time>
      </trkpt>
      <trkpt lat="59.847837" lon="17.7421847">
        <ele>19.8444</ele>
        <time>2013-04-26T19:22:44Z</time>
      </trkpt>
      <trkpt lat="59.8478382" lon="17.7420329">
        <ele>19.8444</ele>
        <time>2013-04-26T19:22:45Z</time>
      </trkpt>
      <trkpt lat="59.8478397" lon="17.7418817">
        <ele>19.8444</ele>
        <time>2013-04-26T19:22:46Z</time>
      </trkpt>
      <trkpt lat="59.8478416" lon="17.7417309">
        <ele>19.8444</ele>
        <time>2013-04-26T19:22:47Z</time>
      </trkpt>
      <trkpt lat="59.8478438" lon="17.7415805">
        <ele>19.3638</ele>
        <time>2013-04-26T19:22:48Z</time>
      </trkpt>
      <trkpt lat="59.8478469" lon="17.7414304">
        <ele>19.3638</ele>
        <time>2013-04-26T19:22:49Z</time>
      </trkpt>
      <trkpt lat="59.8478498" lon="17.7412804">
        <ele>19.3638</ele>
        <time>2013-04-26T19:22:50Z</time>
      </trkpt>
      <trkpt lat="59.8478524" lon="17.74113">
        <ele>19.3638</ele>
        <time>2013-04-26T19:22:51Z</time>
      </trkpt>
      <trkpt lat="59.8478547" lon="17.7409786">
        <ele>19.3638</ele>
        <time>2013-04-26T19:22:52Z</time>
      </trkpt>
      <trkpt lat="59.8478578" lon="17.740827">
        <ele>19.3638</ele>
        <time>2013-04-26T19:22:53Z</time>
      </trkpt>
      <trkpt lat="59.8478612" lon="17.7406752">
        <ele>19.3638</ele>
        <time>2013-04-26T19:22:54Z</time>
      </trkpt>
      <trkpt lat="59.847863" lon="17.7405229">
        <ele>19.3638</ele>
        <time>2013-04-26T19:22:55Z</time>
      </trkpt>
      <trkpt lat="59.8478635" lon="17.740371">
        <ele>19.3638</ele>
        <time>2013-04-26T19:22:56Z</time>
      </trkpt>
      <trkpt lat="59.8478644" lon="17.7402197">
        <ele>19.3638</ele>
        <time>2013-04-26T19:22:57Z</time>
      </trkpt>
      <trkpt lat="59.8478662" lon="17.7400692">
        <ele>19.3638</ele>
        <time>2013-04-26T19:22:58Z</time>
      </trkpt>
      <trkpt lat="59.8478686" lon="17.7399199">
        <ele>19.3638</ele>
        <time>2013-04-26T19:22:59Z</time>
      </trkpt>
      <trkpt lat="59.8478702" lon="17.7397712">
        <ele>19.3638</ele>
        <time>2013-04-26T19:23:00Z</time>
      </trkpt>
      <trkpt lat="59.8478728" lon="17.7396231">
        <ele>19.3638</ele>
        <time>2013-04-26T19:23:01Z</time>
      </trkpt>
      <trkpt lat="59.8478759" lon="17.7394777">
        <ele>19.3638</ele>
        <time>2013-04-26T19:23:02Z</time>
      </trkpt>
      <trkpt lat="59.847877" lon="17.7393372">
        <ele>19.3638</ele>
        <time>2013-04-26T19:23:03Z</time>
      </trkpt>
      <trkpt lat="59.8478768" lon="17.739201">
        <ele>19.3638</ele>
        <time>2013-04-26T19:23:04Z</time>
      </trkpt>
      <trkpt lat="59.8478801" lon="17.7390693">
        <ele>19.3638</ele>
        <time>2013-04-26T19:23:05Z</time>
      </trkpt>
      <trkpt lat="59.8478966" lon="17.7389467">
        <ele>19.3638</ele>
        <time>2013-04-26T19:23:06Z</time>
      </trkpt>
      <trkpt lat="59.8479313" lon="17.7388462">
        <ele>19.3638</ele>
        <time>2013-04-26T19:23:07Z</time>
      </trkpt>
      <trkpt lat="59.8479815" lon="17.7387833">
        <ele>19.3638</ele>
        <time>2013-04-26T19:23:08Z</time>
      </trkpt>
      <trkpt lat="59.8480413" lon="17.7387501">
        <ele>19.3638</ele>
        <time>2013-04-26T19:23:09Z</time>
      </trkpt>
      <trkpt lat="59.8481063" lon="17.7387336">
        <ele>19.3638</ele>
        <time>2013-04-26T19:23:10Z</time>
      </trkpt>
      <trkpt lat="59.8481725" lon="17.7387191">
        <ele>19.3638</ele>
        <time>2013-04-26T19:23:11Z</time>
      </trkpt>
      <trkpt lat="59.848239" lon="17.7386981">
        <ele>19.3638</ele>
        <time>2013-04-26T19:23:12Z</time>
      </trkpt>
      <trkpt lat="59.8483054" lon="17.7386704">
        <ele>19.3638</ele>
        <time>2013-04-26T19:23:13Z</time>
      </trkpt>
      <trkpt lat="59.8483714" lon="17.7386411">
        <ele>19.3638</ele>
        <time>2013-04-26T19:23:14Z</time>
      </trkpt>
      <trkpt lat="59.8484376" lon="17.7386126">
        <ele>19.3638</ele>
        <time>2013-04-26T19:23:15Z</time>
      </trkpt>
      <trkpt lat="59.8485043" lon="17.7385836">
        <ele>19.8444</ele>
        <time>2013-04-26T19:23:16Z</time>
      </trkpt>
      <trkpt lat="59.8485716" lon="17.7385551">
        <ele>19.8444</ele>
        <time>2013-04-26T19:23:17Z</time>
      </trkpt>
      <trkpt lat="59.8486394" lon="17.738527">
        <ele>19.8444</ele>
        <time>2013-04-26T19:23:18Z</time>
      </trkpt>
      <trkpt lat="59.8487073" lon="17.7384966">
        <ele>19.8444</ele>
        <time>2013-04-26T19:23:19Z</time>
      </trkpt>
      <trkpt lat="59.8487752" lon="17.7384649">
        <ele>19.8444</ele>
        <time>2013-04-26T19:23:20Z</time>
      </trkpt>
      <trkpt lat="59.8488436" lon="17.7384329">
        <ele>20.325</ele>
        <time>2013-04-26T19:23:21Z</time>
      </trkpt>
      <trkpt lat="59.8489123" lon="17.7384007">
        <ele>20.325</ele>
        <time>2013-04-26T19:23:22Z</time>
      </trkpt>
      <trkpt lat="59.8489808" lon="17.7383675">
        <ele>20.325</ele>
        <time>2013-04-26T19:23:23Z</time>
      </trkpt>
      <trkpt lat="59.8490497" lon="17.7383342">
        <ele>20.325</ele>
        <time>2013-04-26T19:23:24Z</time>
      </trkpt>
      <trkpt lat="59.8491186" lon="17.7383036">
        <ele>20.325</ele>
        <time>2013-04-26T19:23:25Z</time>
      </trkpt>
      <trkpt lat="59.8491878" lon="17.7382741">
        <ele>20.325</ele>
        <time>2013-04-26T19:23:26Z</time>
      </trkpt>
      <trkpt lat="59.8492567" lon="17.7382437">
        <ele>20.325</ele>
        <time>2013-04-26T19:23:27Z</time>
      </trkpt>
      <trkpt lat="59.8493253" lon="17.738214">
        <ele>20.8057</ele>
        <time>2013-04-26T19:23:28Z</time>
      </trkpt>
      <trkpt lat="59.8493937" lon="17.7381855">
        <ele>20.8057</ele>
        <time>2013-04-26T19:23:29Z</time>
      </trkpt>
      <trkpt lat="59.8494621" lon="17.7381588">
        <ele>20.8057</ele>
        <time>2013-04-26T19:23:30Z</time>
      </trkpt>
      <trkpt lat="59.8495308" lon="17.7381332">
        <ele>20.8057</ele>
        <time>2013-04-26T19:23:31Z</time>
      </trkpt>
      <trkpt lat="59.8495998" lon="17.7381064">
        <ele>20.8057</ele>
        <time>2013-04-26T19:23:32Z</time>
      </trkpt>
      <trkpt lat="59.8496692" lon="17.738081">
        <ele>20.8057</ele>
        <time>2013-04-26T19:23:33Z</time>
      </trkpt>
      <trkpt lat="59.8497388" lon="17.7380578">
        <ele>20.8057</ele>
        <time>2013-04-26T19:23:34Z</time>
      </trkpt>
      <trkpt lat="59.8498086" lon="17.738036">
        <ele>20.8057</ele>
        <time>2013-04-26T19:23:35Z</time>
      </trkpt>
      <trkpt lat="59.8498789" lon="17.7380123">
        <ele>20.8057</ele>
        <time>2013-04-26T19:23:36Z</time>
      </trkpt>
      <trkpt lat="59.8499491" lon="17.7379866">
        <ele>20.8057</ele>
        <time>2013-04-26T19:23:37Z</time>
      </trkpt>
      <trkpt lat="59.8500196" lon="17.7379608">
        <ele>20.8057</ele>
        <time>2013-04-26T19:23:38Z</time>
      </trkpt>
      <trkpt lat="59.8500902" lon="17.737932">
        <ele>20.8057</ele>
        <time>2013-04-26T19:23:39Z</time>
      </trkpt>
      <trkpt lat="59.8501604" lon="17.7378992">
        <ele>20.8057</ele>
        <time>2013-04-26T19:23:40Z</time>
      </trkpt>
      <trkpt lat="59.8502311" lon="17.7378639">
        <ele>20.8057</ele>
        <time>2013-04-26T19:23:41Z</time>
      </trkpt>
      <trkpt lat="59.8503018" lon="17.7378258">
        <ele>20.8057</ele>
        <time>2013-04-26T19:23:42Z</time>
      </trkpt>
      <trkpt lat="59.850372" lon="17.7377842">
        <ele>20.8057</ele>
        <time>2013-04-26T19:23:43Z</time>
      </trkpt>
      <trkpt lat="59.8504421" lon="17.7377402">
        <ele>20.8057</ele>
        <time>2013-04-26T19:23:44Z</time>
      </trkpt>
      <trkpt lat="59.8505119" lon="17.7376941">
        <ele>20.8057</ele>
        <time>2013-04-26T19:23:45Z</time>
      </trkpt>
      <trkpt lat="59.8505811" lon="17.7376471">
        <ele>20.8057</ele>
        <time>2013-04-26T19:23:46Z</time>
      </trkpt>
      <trkpt lat="59.8506502" lon="17.7375986">
        <ele>20.8057</ele>
        <time>2013-04-26T19:23:47Z</time>
      </trkpt>
      <trkpt lat="59.8507189" lon="17.7375481">
        <ele>20.8057</ele>
        <time>2013-04-26T19:23:48Z</time>
      </trkpt>
      <trkpt lat="59.8507877" lon="17.7374978">
        <ele>20.8057</ele>
        <time>2013-04-26T19:23:49Z</time>
      </trkpt>
      <trkpt lat="59.8508561" lon="17.7374465">
        <ele>20.8057</ele>
        <time>2013-04-26T19:23:50Z</time>
      </trkpt>
      <trkpt lat="59.850924" lon="17.7373945">
        <ele>20.8057</ele>
        <time>2013-04-26T19:23:51Z</time>
      </trkpt>
      <trkpt lat="59.8509913" lon="17.7373414">
        <ele>20.8057</ele>
        <time>2013-04-26T19:23:52Z</time>
      </trkpt>
      <trkpt lat="59.8510581" lon="17.7372881">
        <ele>20.8057</ele>
        <time>2013-04-26T19:23:53Z</time>
      </trkpt>
      <trkpt lat="59.8511238" lon="17.7372334">
        <ele>20.8057</ele>
        <time>2013-04-26T19:23:54Z</time>
      </trkpt>
      <trkpt lat="59.8511889" lon="17.7371755">
        <ele>20.8057</ele>
        <time>2013-04-26T19:23:55Z</time>
      </trkpt>
      <trkpt lat="59.8512535" lon="17.7371181">
        <ele>20.8057</ele>
        <time>2013-04-26T19:23:56Z</time>
      </trkpt>
      <trkpt lat="59.8513187" lon="17.7370621">
        <ele>20.325</ele>
        <time>2013-04-26T19:23:57Z</time>
      </trkpt>
      <trkpt lat="59.8513829" lon="17.7370025">
        <ele>20.325</ele>
        <time>2013-04-26T19:23:58Z</time>
      </trkpt>
      <trkpt lat="59.8514454" lon="17.7369384">
        <ele>20.325</ele>
        <time>2013-04-26T19:23:59Z</time>
      </trkpt>
      <trkpt lat="59.8515061" lon="17.73687">
        <ele>20.8057</ele>
        <time>2013-04-26T19:24:00Z</time>
      </trkpt>
      <trkpt lat="59.8515647" lon="17.7367963">
        <ele>20.8057</ele>
        <time>2013-04-26T19:24:01Z</time>
      </trkpt>
      <trkpt lat="59.8516222" lon="17.7367178">
        <ele>20.8057</ele>
        <time>2013-04-26T19:24:02Z</time>
      </trkpt>
      <trkpt lat="59.851679" lon="17.7366358">
        <ele>20.8057</ele>
        <time>2013-04-26T19:24:03Z</time>
      </trkpt>
      <trkpt lat="59.8517354" lon="17.7365519">
        <ele>20.325</ele>
        <time>2013-04-26T19:24:04Z</time>
      </trkpt>
      <trkpt lat="59.8517913" lon="17.7364657">
        <ele>20.325</ele>
        <time>2013-04-26T19:24:05Z</time>
      </trkpt>
      <trkpt lat="59.8518459" lon="17.7363757">
        <ele>20.325</ele>
        <time>2013-04-26T19:24:06Z</time>
      </trkpt>
      <trkpt lat="59.8519003" lon="17.7362836">
        <ele>20.325</ele>
        <time>2013-04-26T19:24:07Z</time>
      </trkpt>
      <trkpt lat="59.8519551" lon="17.7361919">
        <ele>20.325</ele>
        <time>2013-04-26T19:24:08Z</time>
      </trkpt>
      <trkpt lat="59.8520107" lon="17.7361005">
        <ele>20.325</ele>
        <time>2013-04-26T19:24:09Z</time>
      </trkpt>
      <trkpt lat="59.852068" lon="17.7360125">
        <ele>20.325</ele>
        <time>2013-04-26T19:24:10Z</time>
      </trkpt>
      <trkpt lat="59.8521272" lon="17.7359298">
        <ele>19.8444</ele>
        <time>2013-04-26T19:24:11Z</time>
      </trkpt>
      <trkpt lat="59.8521876" lon="17.7358505">
        <ele>19.8444</ele>
        <time>2013-04-26T19:24:12Z</time>
      </trkpt>
      <trkpt lat="59.8522479" lon="17.7357729">
        <ele>19.8444</ele>
        <time>2013-04-26T19:24:13Z</time>
      </trkpt>
      <trkpt lat="59.8523091" lon="17.7356975">
        <ele>19.8444</ele>
        <time>2013-04-26T19:24:14Z</time>
      </trkpt>
      <trkpt lat="59.8523707" lon="17.7356229">
        <ele>19.8444</ele>
        <time>2013-04-26T19:24:15Z</time>
      </trkpt>
      <trkpt lat="59.8524322" lon="17.7355475">
        <ele>19.8444</ele>
        <time>2013-04-26T19:24:16Z</time>
      </trkpt>
      <trkpt lat="59.8524938" lon="17.7354718">
        <ele>19.8444</ele>
        <time>2013-04-26T19:24:17Z</time>
      </trkpt>
      <trkpt lat="59.8525551" lon="17.7353967">
        <ele>19.8444</ele>
        <time>2013-04-26T19:24:18Z</time>
      </trkpt>
      <trkpt lat="59.8526165" lon="17.7353233">
        <ele>19.8444</ele>
        <time>2013-04-26T19:24:19Z</time>
      </trkpt>
      <trkpt lat="59.8526774" lon="17.7352506">
        <ele>19.8444</ele>
        <time>2013-04-26T19:24:20Z</time>
      </trkpt>
      <trkpt lat="59.852738" lon="17.7351776">
        <ele>19.8444</ele>
        <time>2013-04-26T19:24:21Z</time>
      </trkpt>
      <trkpt lat="59.8527987" lon="17.735106">
        <ele>19.8444</ele>
        <time>2013-04-26T19:24:22Z</time>
      </trkpt>
      <trkpt lat="59.8528595" lon="17.7350347">
        <ele>19.8444</ele>
        <time>2013-04-26T19:24:23Z</time>
      </trkpt>
      <trkpt lat="59.8529198" lon="17.7349631">
        <ele>19.8444</ele>
        <time>2013-04-26T19:24:24Z</time>
      </trkpt>
      <trkpt lat="59.8529802" lon="17.734892">
        <ele>19.8444</ele>
        <time>2013-04-26T19:24:25Z</time>
      </trkpt>
      <trkpt lat="59.8530409" lon="17.7348212">
        <ele>19.8444</ele>
        <time>2013-04-26T19:24:26Z</time>
      </trkpt>
      <trkpt lat="59.8531022" lon="17.7347512">
        <ele>19.8444</ele>
        <time>2013-04-26T19:24:27Z</time>
      </trkpt>
      <trkpt lat="59.8531641" lon="17.7346804">
        <ele>19.3638</ele>
        <time>2013-04-26T19:24:28Z</time>
      </trkpt>
      <trkpt lat="59.853226" lon="17.7346076">
        <ele>19.3638</ele>
        <time>2013-04-26T19:24:29Z</time>
      </trkpt>
      <trkpt lat="59.8532884" lon="17.7345302">
        <ele>18.8831</ele>
        <time>2013-04-26T19:24:30Z</time>
      </trkpt>
      <trkpt lat="59.8533513" lon="17.7344462">
        <ele>18.8831</ele>
        <time>2013-04-26T19:24:31Z</time>
      </trkpt>
      <trkpt lat="59.8534143" lon="17.7343528">
        <ele>18.4023</ele>
        <time>2013-04-26T19:24:32Z</time>
      </trkpt>
      <trkpt lat="59.8534767" lon="17.7342502">
        <ele>17.9218</ele>
        <time>2013-04-26T19:24:33Z</time>
      </trkpt>
      <trkpt lat="59.8535373" lon="17.7341363">
        <ele>17.9218</ele>
        <time>2013-04-26T19:24:34Z</time>
      </trkpt>
      <trkpt lat="59.8535946" lon="17.7340091">
        <ele>17.4412</ele>
        <time>2013-04-26T19:24:35Z</time>
      </trkpt>
      <trkpt lat="59.8536487" lon="17.733871">
        <ele>16.9604</ele>
        <time>2013-04-26T19:24:36Z</time>
      </trkpt>
      <trkpt lat="59.8537004" lon="17.7337234">
        <ele>16.4797</ele>
        <time>2013-04-26T19:24:37Z</time>
      </trkpt>
      <trkpt lat="59.8537476" lon="17.7335644">
        <ele>15.999</ele>
        <time>2013-04-26T19:24:38Z</time>
      </trkpt>
      <trkpt lat="59.853789" lon="17.7333946">
        <ele>15.5184</ele>
        <time>2013-04-26T19:24:39Z</time>
      </trkpt>
      <trkpt lat="59.8538253" lon="17.7332196">
        <ele>15.0377</ele>
        <time>2013-04-26T19:24:40Z</time>
      </trkpt>
      <trkpt lat="59.8538561" lon="17.7330397">
        <ele>14.557</ele>
        <time>2013-04-26T19:24:41Z</time>
      </trkpt>
      <trkpt lat="59.8538796" lon="17.732858">
        <ele>14.557</ele>
        <time>2013-04-26T19:24:42Z</time>
      </trkpt>
      <trkpt lat="59.8538905" lon="17.732635">
        <ele>14.0764</ele>
        <time>2013-04-26T19:24:43Z</time>
      </trkpt>
      <trkpt lat="59.8538983" lon="17.7324617">
        <ele>14.0764</ele>
        <time>2013-04-26T19:24:44Z</time>
      </trkpt>
      <trkpt lat="59.853904" lon="17.732254">
        <ele>13.5958</ele>
        <time>2013-04-26T19:24:45Z</time>
      </trkpt>
      <trkpt lat="59.8539376" lon="17.7320277">
        <ele>13.5958</ele>
        <time>2013-04-26T19:24:46Z</time>
      </trkpt>
      <trkpt lat="59.8539454" lon="17.7318245">
        <ele>13.5958</ele>
        <time>2013-04-26T19:24:47Z</time>
      </trkpt>
      <trkpt lat="59.8539636" lon="17.7316446">
        <ele>14.0764</ele>
        <time>2013-04-26T19:24:48Z</time>
      </trkpt>
      <trkpt lat="59.8539837" lon="17.7314693">
        <ele>14.557</ele>
        <time>2013-04-26T19:24:49Z</time>
      </trkpt>
      <trkpt lat="59.8540075" lon="17.7313144">
        <ele>14.557</ele>
        <time>2013-04-26T19:24:50Z</time>
      </trkpt>
      <trkpt lat="59.8540305" lon="17.7311641">
        <ele>15.0377</ele>
        <time>2013-04-26T19:24:51Z</time>
      </trkpt>
      <trkpt lat="59.854053" lon="17.7310211">
        <ele>15.0377</ele>
        <time>2013-04-26T19:24:52Z</time>
      </trkpt>
      <trkpt lat="59.8540764" lon="17.7308852">
        <ele>15.0377</ele>
        <time>2013-04-26T19:24:53Z</time>
      </trkpt>
      <trkpt lat="59.8540984" lon="17.7307553">
        <ele>15.5184</ele>
        <time>2013-04-26T19:24:54Z</time>
      </trkpt>
      <trkpt lat="59.854121" lon="17.7306331">
        <ele>15.999</ele>
        <time>2013-04-26T19:24:55Z</time>
      </trkpt>
      <trkpt lat="59.8541448" lon="17.7305197">
        <ele>16.4797</ele>
        <time>2013-04-26T19:24:56Z</time>
      </trkpt>
      <trkpt lat="59.8541672" lon="17.7304195">
        <ele>16.4797</ele>
        <time>2013-04-26T19:24:57Z</time>
      </trkpt>
      <trkpt lat="59.854192" lon="17.7303224">
        <ele>16.9604</ele>
        <time>2013-04-26T19:24:58Z</time>
      </trkpt>
      <trkpt lat="59.8542194" lon="17.7302286">
        <ele>16.9604</ele>
        <time>2013-04-26T19:24:59Z</time>
      </trkpt>
      <trkpt lat="59.8542486" lon="17.7301374">
        <ele>17.4412</ele>
        <time>2013-04-26T19:25:00Z</time>
      </trkpt>
      <trkpt lat="59.8542783" lon="17.730046">
        <ele>17.4412</ele>
        <time>2013-04-26T19:25:01Z</time>
      </trkpt>
      <trkpt lat="59.8543091" lon="17.7299577">
        <ele>17.4412</ele>
        <time>2013-04-26T19:25:02Z</time>
      </trkpt>
      <trkpt lat="59.8543415" lon="17.7298707">
        <ele>17.9218</ele>
        <time>2013-04-26T19:25:03Z</time>
      </trkpt>
      <trkpt lat="59.8543749" lon="17.7297832">
        <ele>17.9218</ele>
        <time>2013-04-26T19:25:04Z</time>
      </trkpt>
      <trkpt lat="59.8544084" lon="17.7296939">
        <ele>17.9218</ele>
        <time>2013-04-26T19:25:05Z</time>
      </trkpt>
      <trkpt lat="59.8544417" lon="17.7296031">
        <ele>17.9218</ele>
        <time>2013-04-26T19:25:06Z</time>
      </trkpt>
      <trkpt lat="59.8544762" lon="17.7295112">
        <ele>17.9218</ele>
        <time>2013-04-26T19:25:07Z</time>
      </trkpt>
      <trkpt lat="59.8545127" lon="17.7294178">
        <ele>17.9218</ele>
        <time>2013-04-26T19:25:08Z</time>
      </trkpt>
      <trkpt lat="59.8545503" lon="17.7293209">
        <ele>17.9218</ele>
        <time>2013-04-26T19:25:09Z</time>
      </trkpt>
      <trkpt lat="59.8545893" lon="17.7292196">
        <ele>17.9218</ele>
        <time>2013-04-26T19:25:10Z</time>
      </trkpt>
      <trkpt lat="59.8546295" lon="17.7291147">
        <ele>17.9218</ele>
        <time>2013-04-26T19:25:11Z</time>
      </trkpt>
      <trkpt lat="59.8546707" lon="17.7290103">
        <ele>17.9218</ele>
        <time>2013-04-26T19:25:12Z</time>
      </trkpt>
      <trkpt lat="59.8547116" lon="17.7289085">
        <ele>17.9218</ele>
        <time>2013-04-26T19:25:13Z</time>
      </trkpt>
      <trkpt lat="59.8547523" lon="17.7288081">
        <ele>17.9218</ele>
        <time>2013-04-26T19:25:14Z</time>
      </trkpt>
      <trkpt lat="59.8547933" lon="17.7287093">
        <ele>17.9218</ele>
        <time>2013-04-26T19:25:15Z</time>
      </trkpt>
      <trkpt lat="59.8548333" lon="17.7286104">
        <ele>17.9218</ele>
        <time>2013-04-26T19:25:16Z</time>
      </trkpt>
      <trkpt lat="59.8548725" lon="17.7285104">
        <ele>17.4412</ele>
        <time>2013-04-26T19:25:17Z</time>
      </trkpt>
      <trkpt lat="59.8549116" lon="17.7284091">
        <ele>17.4412</ele>
        <time>2013-04-26T19:25:18Z</time>
      </trkpt>
      <trkpt lat="59.8549519" lon="17.7283062">
        <ele>17.4412</ele>
        <time>2013-04-26T19:25:19Z</time>
      </trkpt>
      <trkpt lat="59.8549916" lon="17.728201">
        <ele>17.4412</ele>
        <time>2013-04-26T19:25:20Z</time>
      </trkpt>
      <trkpt lat="59.8550317" lon="17.7280972">
        <ele>17.4412</ele>
        <time>2013-04-26T19:25:21Z</time>
      </trkpt>
      <trkpt lat="59.8550732" lon="17.7279944">
        <ele>16.9604</ele>
        <time>2013-04-26T19:25:22Z</time>
      </trkpt>
      <trkpt lat="59.8551149" lon="17.7278917">
        <ele>16.9604</ele>
        <time>2013-04-26T19:25:23Z</time>
      </trkpt>
      <trkpt lat="59.8551555" lon="17.7277877">
        <ele>16.9604</ele>
        <time>2013-04-26T19:25:24Z</time>
      </trkpt>
      <trkpt lat="59.8551949" lon="17.7276825">
        <ele>16.9604</ele>
        <time>2013-04-26T19:25:25Z</time>
      </trkpt>
      <trkpt lat="59.8552343" lon="17.7275762">
        <ele>16.9604</ele>
        <time>2013-04-26T19:25:26Z</time>
      </trkpt>
      <trkpt lat="59.855273" lon="17.72747">
        <ele>16.9604</ele>
        <time>2013-04-26T19:25:27Z</time>
      </trkpt>
      <trkpt lat="59.8553109" lon="17.7273649">
        <ele>16.9604</ele>
        <time>2013-04-26T19:25:28Z</time>
      </trkpt>
      <trkpt lat="59.8553483" lon="17.7272594">
        <ele>16.4797</ele>
        <time>2013-04-26T19:25:29Z</time>
      </trkpt>
      <trkpt lat="59.8553874" lon="17.7271548">
        <ele>16.4797</ele>
        <time>2013-04-26T19:25:30Z</time>
      </trkpt>
      <trkpt lat="59.8554273" lon="17.727049">
        <ele>16.4797</ele>
        <time>2013-04-26T19:25:31Z</time>
      </trkpt>
      <trkpt lat="59.8554668" lon="17.7269395">
        <ele>16.4797</ele>
        <time>2013-04-26T19:25:32Z</time>
      </trkpt>
      <trkpt lat="59.8555056" lon="17.7268273">
        <ele>15.999</ele>
        <time>2013-04-26T19:25:33Z</time>
      </trkpt>
      <trkpt lat="59.8555438" lon="17.7267133">
        <ele>15.5184</ele>
        <time>2013-04-26T19:25:34Z</time>
      </trkpt>
      <trkpt lat="59.8555824" lon="17.7265982">
        <ele>15.5184</ele>
        <time>2013-04-26T19:25:35Z</time>
      </trkpt>
      <trkpt lat="59.8556217" lon="17.7264838">
        <ele>15.0377</ele>
        <time>2013-04-26T19:25:36Z</time>
      </trkpt>
      <trkpt lat="59.855661" lon="17.7263688">
        <ele>15.0377</ele>
        <time>2013-04-26T19:25:37Z</time>
      </trkpt>
      <trkpt lat="59.8556999" lon="17.7262533">
        <ele>14.557</ele>
        <time>2013-04-26T19:25:38Z</time>
      </trkpt>
      <trkpt lat="59.8557398" lon="17.7261382">
        <ele>14.557</ele>
        <time>2013-04-26T19:25:39Z</time>
      </trkpt>
      <trkpt lat="59.8557797" lon="17.7260237">
        <ele>14.0764</ele>
        <time>2013-04-26T19:25:40Z</time>
      </trkpt>
      <trkpt lat="59.8558192" lon="17.7259097">
        <ele>14.0764</ele>
        <time>2013-04-26T19:25:41Z</time>
      </trkpt>
      <trkpt lat="59.855859" lon="17.7257978">
        <ele>14.0764</ele>
        <time>2013-04-26T19:25:42Z</time>
      </trkpt>
      <trkpt lat="59.8558992" lon="17.7256881">
        <ele>14.0764</ele>
        <time>2013-04-26T19:25:43Z</time>
      </trkpt>
      <trkpt lat="59.8559399" lon="17.7255814">
        <ele>14.0764</ele>
        <time>2013-04-26T19:25:44Z</time>
      </trkpt>
      <trkpt lat="59.8559823" lon="17.7254788">
        <ele>14.0764</ele>
        <time>2013-04-26T19:25:45Z</time>
      </trkpt>
      <trkpt lat="59.8560257" lon="17.7253784">
        <ele>14.0764</ele>
        <time>2013-04-26T19:25:46Z</time>
      </trkpt>
      <trkpt lat="59.8560686" lon="17.7252789">
        <ele>14.0764</ele>
        <time>2013-04-26T19:25:47Z</time>
      </trkpt>
      <trkpt lat="59.8561106" lon="17.72518">
        <ele>14.0764</ele>
        <time>2013-04-26T19:25:48Z</time>
      </trkpt>
      <trkpt lat="59.8561522" lon="17.7250811">
        <ele>14.0764</ele>
        <time>2013-04-26T19:25:49Z</time>
      </trkpt>
      <trkpt lat="59.856194" lon="17.7249828">
        <ele>14.0764</ele>
        <time>2013-04-26T19:25:50Z</time>
      </trkpt>
      <trkpt lat="59.8562351" lon="17.7248851">
        <ele>14.557</ele>
        <time>2013-04-26T19:25:51Z</time>
      </trkpt>
      <trkpt lat="59.856276" lon="17.7247874">
        <ele>14.557</ele>
        <time>2013-04-26T19:25:52Z</time>
      </trkpt>
      <trkpt lat="59.8563162" lon="17.7246895">
        <ele>14.557</ele>
        <time>2013-04-26T19:25:53Z</time>
      </trkpt>
      <trkpt lat="59.8563551" lon="17.7245896">
        <ele>14.557</ele>
        <time>2013-04-26T19:25:54Z</time>
      </trkpt>
      <trkpt lat="59.8563941" lon="17.72449">
        <ele>14.557</ele>
        <time>2013-04-26T19:25:55Z</time>
      </trkpt>
      <trkpt lat="59.856434" lon="17.7243922">
        <ele>14.557</ele>
        <time>2013-04-26T19:25:56Z</time>
      </trkpt>
      <trkpt lat="59.8564742" lon="17.7242952">
        <ele>14.557</ele>
        <time>2013-04-26T19:25:57Z</time>
      </trkpt>
      <trkpt lat="59.8565148" lon="17.7241997">
        <ele>14.557</ele>
        <time>2013-04-26T19:25:58Z</time>
      </trkpt>
      <trkpt lat="59.8565566" lon="17.7241081">
        <ele>14.557</ele>
        <time>2013-04-26T19:25:59Z</time>
      </trkpt>
      <trkpt lat="59.8565992" lon="17.7240192">
        <ele>14.557</ele>
        <time>2013-04-26T19:26:00Z</time>
      </trkpt>
      <trkpt lat="59.8566408" lon="17.7239322">
        <ele>15.0377</ele>
        <time>2013-04-26T19:26:01Z</time>
      </trkpt>
      <trkpt lat="59.8566834" lon="17.7238466">
        <ele>15.0377</ele>
        <time>2013-04-26T19:26:02Z</time>
      </trkpt>
      <trkpt lat="59.8567261" lon="17.7237586">
        <ele>15.0377</ele>
        <time>2013-04-26T19:26:03Z</time>
      </trkpt>
      <trkpt lat="59.8567672" lon="17.7236695">
        <ele>15.0377</ele>
        <time>2013-04-26T19:26:04Z</time>
      </trkpt>
      <trkpt lat="59.8568098" lon="17.7235825">
        <ele>15.5184</ele>
        <time>2013-04-26T19:26:05Z</time>
      </trkpt>
      <trkpt lat="59.8568524" lon="17.7234976">
        <ele>15.5184</ele>
        <time>2013-04-26T19:26:06Z</time>
      </trkpt>
      <trkpt lat="59.8568935" lon="17.7234125">
        <ele>15.999</ele>
        <time>2013-04-26T19:26:07Z</time>
      </trkpt>
      <trkpt lat="59.8569349" lon="17.723329">
        <ele>15.999</ele>
        <time>2013-04-26T19:26:08Z</time>
      </trkpt>
      <trkpt lat="59.8569773" lon="17.7232492">
        <ele>16.4797</ele>
        <time>2013-04-26T19:26:09Z</time>
      </trkpt>
      <trkpt lat="59.8570204" lon="17.7231728">
        <ele>16.4797</ele>
        <time>2013-04-26T19:26:10Z</time>
      </trkpt>
      <trkpt lat="59.8570634" lon="17.723098">
        <ele>16.9604</ele>
        <time>2013-04-26T19:26:11Z</time>
      </trkpt>
      <trkpt lat="59.8571048" lon="17.7230278">
        <ele>17.4412</ele>
        <time>2013-04-26T19:26:12Z</time>
      </trkpt>
      <trkpt lat="59.8571488" lon="17.7229577">
        <ele>17.4412</ele>
        <time>2013-04-26T19:26:13Z</time>
      </trkpt>
      <trkpt lat="59.8571974" lon="17.7228869">
        <ele>17.4412</ele>
        <time>2013-04-26T19:26:14Z</time>
      </trkpt>
      <trkpt lat="59.8572479" lon="17.7228141">
        <ele>17.9218</ele>
        <time>2013-04-26T19:26:15Z</time>
      </trkpt>
      <trkpt lat="59.857299" lon="17.7227343">
        <ele>17.9218</ele>
        <time>2013-04-26T19:26:16Z</time>
      </trkpt>
      <trkpt lat="59.8573491" lon="17.7226481">
        <ele>17.9218</ele>
        <time>2013-04-26T19:26:17Z</time>
      </trkpt>
      <trkpt lat="59.8573954" lon="17.7225382">
        <ele>18.4023</ele>
        <time>2013-04-26T19:26:18Z</time>
      </trkpt>
      <trkpt lat="59.8574467" lon="17.7224347">
        <ele>19.3638</ele>
        <time>2013-04-26T19:26:19Z</time>
      </trkpt>
      <trkpt lat="59.8574958" lon="17.7223516">
        <ele>19.8444</ele>
        <time>2013-04-26T19:26:20Z</time>
      </trkpt>
      <trkpt lat="59.8575373" lon="17.7222789">
        <ele>19.8444</ele>
        <time>2013-04-26T19:26:21Z</time>
      </trkpt>
      <trkpt lat="59.8575755" lon="17.722187">
        <ele>20.325</ele>
        <time>2013-04-26T19:26:22Z</time>
      </trkpt>
      <trkpt lat="59.8576077" lon="17.7220973">
        <ele>20.325</ele>
        <time>2013-04-26T19:26:23Z</time>
      </trkpt>
      <trkpt lat="59.8576383" lon="17.722014">
        <ele>21.2864</ele>
        <time>2013-04-26T19:26:24Z</time>
      </trkpt>
      <trkpt lat="59.8576612" lon="17.7219138">
        <ele>20.8057</ele>
        <time>2013-04-26T19:26:25Z</time>
      </trkpt>
      <trkpt lat="59.8576825" lon="17.7218042">
        <ele>20.325</ele>
        <time>2013-04-26T19:26:26Z</time>
      </trkpt>
      <trkpt lat="59.8577016" lon="17.7216967">
        <ele>19.8444</ele>
        <time>2013-04-26T19:26:27Z</time>
      </trkpt>
      <trkpt lat="59.857713" lon="17.7215836">
        <ele>19.3638</ele>
        <time>2013-04-26T19:26:28Z</time>
      </trkpt>
      <trkpt lat="59.8577212" lon="17.7214642">
        <ele>19.3638</ele>
        <time>2013-04-26T19:26:29Z</time>
      </trkpt>
      <trkpt lat="59.8577228" lon="17.7213395">
        <ele>19.3638</ele>
        <time>2013-04-26T19:26:30Z</time>
      </trkpt>
      <trkpt lat="59.857722" lon="17.7212141">
        <ele>18.8831</ele>
        <time>2013-04-26T19:26:31Z</time>
      </trkpt>
      <trkpt lat="59.857715" lon="17.7210884">
        <ele>17.9218</ele>
        <time>2013-04-26T19:26:32Z</time>
      </trkpt>
      <trkpt lat="59.8577107" lon="17.7209624">
        <ele>17.4412</ele>
        <time>2013-04-26T19:26:33Z</time>
      </trkpt>
      <trkpt lat="59.8577065" lon="17.720833">
        <ele>16.9604</ele>
        <time>2013-04-26T19:26:34Z</time>
      </trkpt>
      <trkpt lat="59.8577044" lon="17.7206971">
        <ele>16.9604</ele>
        <time>2013-04-26T19:26:35Z</time>
      </trkpt>
      <trkpt lat="59.8577029" lon="17.7205541">
        <ele>16.9604</ele>
        <time>2013-04-26T19:26:36Z</time>
      </trkpt>
      <trkpt lat="59.8577009" lon="17.7204051">
        <ele>16.4797</ele>
        <time>2013-04-26T19:26:37Z</time>
      </trkpt>
      <trkpt lat="59.8577003" lon="17.7202533">
        <ele>15.999</ele>
        <time>2013-04-26T19:26:38Z</time>
      </trkpt>
      <trkpt lat="59.8576975" lon="17.7200979">
        <ele>15.5184</ele>
        <time>2013-04-26T19:26:39Z</time>
      </trkpt>
      <trkpt lat="59.8576917" lon="17.7199393">
        <ele>15.5184</ele>
        <time>2013-04-26T19:26:40Z</time>
      </trkpt>
      <trkpt lat="59.8576847" lon="17.7197799">
        <ele>15.0377</ele>
        <time>2013-04-26T19:26:41Z</time>
      </trkpt>
      <trkpt lat="59.8576772" lon="17.7196216">
        <ele>15.0377</ele>
        <time>2013-04-26T19:26:42Z</time>
      </trkpt>
      <trkpt lat="59.8576702" lon="17.7194644">
        <ele>14.557</ele>
        <time>2013-04-26T19:26:43Z</time>
      </trkpt>
      <trkpt lat="59.8576651" lon="17.7193068">
        <ele>14.0764</ele>
        <time>2013-04-26T19:26:44Z</time>
      </trkpt>
      <trkpt lat="59.8576617" lon="17.7191481">
        <ele>14.0764</ele>
        <time>2013-04-26T19:26:45Z</time>
      </trkpt>
      <trkpt lat="59.8576591" lon="17.7189888">
        <ele>13.5958</ele>
        <time>2013-04-26T19:26:46Z</time>
      </trkpt>
      <trkpt lat="59.8576578" lon="17.7188307">
        <ele>13.1151</ele>
        <time>2013-04-26T19:26:47Z</time>
      </trkpt>
      <trkpt lat="59.857658" lon="17.7186734">
        <ele>13.1151</ele>
        <time>2013-04-26T19:26:48Z</time>
      </trkpt>
      <trkpt lat="59.8576589" lon="17.7185184">
        <ele>12.6344</ele>
        <time>2013-04-26T19:26:49Z</time>
      </trkpt>
      <trkpt lat="59.8576596" lon="17.7183656">
        <ele>12.6344</ele>
        <time>2013-04-26T19:26:50Z</time>
      </trkpt>
      <trkpt lat="59.8576622" lon="17.7182146">
        <ele>12.6344</ele>
        <time>2013-04-26T19:26:51Z</time>
      </trkpt>
      <trkpt lat="59.8576673" lon="17.7180644">
        <ele>12.6344</ele>
        <time>2013-04-26T19:26:52Z</time>
      </trkpt>
      <trkpt lat="59.8576728" lon="17.7179149">
        <ele>12.6344</ele>
        <time>2013-04-26T19:26:53Z</time>
      </trkpt>
      <trkpt lat="59.8576762" lon="17.7177668">
        <ele>12.6344</ele>
        <time>2013-04-26T19:26:54Z</time>
      </trkpt>
      <trkpt lat="59.8576785" lon="17.7176203">
        <ele>12.6344</ele>
        <time>2013-04-26T19:26:55Z</time>
      </trkpt>
      <trkpt lat="59.8576799" lon="17.7174747">
        <ele>12.6344</ele>
        <time>2013-04-26T19:26:56Z</time>
      </trkpt>
      <trkpt lat="59.8576793" lon="17.7173276">
        <ele>12.6344</ele>
        <time>2013-04-26T19:26:57Z</time>
      </trkpt>
      <trkpt lat="59.8576757" lon="17.7171793">
        <ele>12.6344</ele>
        <time>2013-04-26T19:26:58Z</time>
      </trkpt>
      <trkpt lat="59.8576697" lon="17.7170296">
        <ele>12.6344</ele>
        <time>2013-04-26T19:26:59Z</time>
      </trkpt>
      <trkpt lat="59.8576617" lon="17.7168784">
        <ele>12.1538</ele>
        <time>2013-04-26T19:27:00Z</time>
      </trkpt>
      <trkpt lat="59.8576534" lon="17.7167261">
        <ele>12.1538</ele>
        <time>2013-04-26T19:27:01Z</time>
      </trkpt>
      <trkpt lat="59.8576459" lon="17.7165739">
        <ele>12.1538</ele>
        <time>2013-04-26T19:27:02Z</time>
      </trkpt>
      <trkpt lat="59.8576394" lon="17.7164225">
        <ele>12.1538</ele>
        <time>2013-04-26T19:27:03Z</time>
      </trkpt>
      <trkpt lat="59.8576351" lon="17.7162711">
        <ele>12.1538</ele>
        <time>2013-04-26T19:27:04Z</time>
      </trkpt>
      <trkpt lat="59.8576353" lon="17.7161195">
        <ele>12.1538</ele>
        <time>2013-04-26T19:27:05Z</time>
      </trkpt>
      <trkpt lat="59.8576412" lon="17.7159683">
        <ele>12.1538</ele>
        <time>2013-04-26T19:27:06Z</time>
      </trkpt>
      <trkpt lat="59.8576523" lon="17.7158181">
        <ele>12.1538</ele>
        <time>2013-04-26T19:27:07Z</time>
      </trkpt>
      <trkpt lat="59.8576685" lon="17.7156678">
        <ele>12.1538</ele>
        <time>2013-04-26T19:27:08Z</time>
      </trkpt>
      <trkpt lat="59.8576886" lon="17.7155197">
        <ele>12.1538</ele>
        <time>2013-04-26T19:27:09Z</time>
      </trkpt>
      <trkpt lat="59.8577115" lon="17.7153744">
        <ele>12.1538</ele>
        <time>2013-04-26T19:27:10Z</time>
      </trkpt>
      <trkpt lat="59.8577372" lon="17.7152319">
        <ele>12.1538</ele>
        <time>2013-04-26T19:27:11Z</time>
      </trkpt>
      <trkpt lat="59.8577662" lon="17.7150934">
        <ele>12.1538</ele>
        <time>2013-04-26T19:27:12Z</time>
      </trkpt>
      <trkpt lat="59.8577968" lon="17.7149586">
        <ele>12.1538</ele>
        <time>2013-04-26T19:27:13Z</time>
      </trkpt>
      <trkpt lat="59.8578291" lon="17.7148261">
        <ele>11.6732</ele>
        <time>2013-04-26T19:27:14Z</time>
      </trkpt>
      <trkpt lat="59.8578642" lon="17.7146973">
        <ele>11.6732</ele>
        <time>2013-04-26T19:27:15Z</time>
      </trkpt>
      <trkpt lat="59.8579026" lon="17.7145738">
        <ele>11.6732</ele>
        <time>2013-04-26T19:27:16Z</time>
      </trkpt>
      <trkpt lat="59.8579445" lon="17.7144551">
        <ele>11.6732</ele>
        <time>2013-04-26T19:27:17Z</time>
      </trkpt>
      <trkpt lat="59.8579883" lon="17.7143406">
        <ele>11.6732</ele>
        <time>2013-04-26T19:27:18Z</time>
      </trkpt>
      <trkpt lat="59.8580321" lon="17.7142256">
        <ele>11.6732</ele>
        <time>2013-04-26T19:27:19Z</time>
      </trkpt>
      <trkpt lat="59.8580745" lon="17.7141081">
        <ele>11.6732</ele>
        <time>2013-04-26T19:27:20Z</time>
      </trkpt>
      <trkpt lat="59.8581134" lon="17.7139879">
        <ele>12.1538</ele>
        <time>2013-04-26T19:27:21Z</time>
      </trkpt>
      <trkpt lat="59.8581465" lon="17.7138631">
        <ele>12.1538</ele>
        <time>2013-04-26T19:27:22Z</time>
      </trkpt>
      <trkpt lat="59.858174" lon="17.7137329">
        <ele>12.1538</ele>
        <time>2013-04-26T19:27:23Z</time>
      </trkpt>
      <trkpt lat="59.8581972" lon="17.7135983">
        <ele>12.1538</ele>
        <time>2013-04-26T19:27:24Z</time>
      </trkpt>
      <trkpt lat="59.8582167" lon="17.7134605">
        <ele>12.1538</ele>
        <time>2013-04-26T19:27:25Z</time>
      </trkpt>
      <trkpt lat="59.8582324" lon="17.713319">
        <ele>11.6732</ele>
        <time>2013-04-26T19:27:26Z</time>
      </trkpt>
      <trkpt lat="59.8582456" lon="17.7131755">
        <ele>11.6732</ele>
        <time>2013-04-26T19:27:27Z</time>
      </trkpt>
      <trkpt lat="59.8582594" lon="17.7130311">
        <ele>11.6732</ele>
        <time>2013-04-26T19:27:28Z</time>
      </trkpt>
      <trkpt lat="59.858275" lon="17.7128881">
        <ele>11.6732</ele>
        <time>2013-04-26T19:27:29Z</time>
      </trkpt>
      <trkpt lat="59.858291" lon="17.7127467">
        <ele>11.6732</ele>
        <time>2013-04-26T19:27:30Z</time>
      </trkpt>
      <trkpt lat="59.8583085" lon="17.7126079">
        <ele>11.6732</ele>
        <time>2013-04-26T19:27:31Z</time>
      </trkpt>
      <trkpt lat="59.8583284" lon="17.712474">
        <ele>11.6732</ele>
        <time>2013-04-26T19:27:32Z</time>
      </trkpt>
      <trkpt lat="59.8583506" lon="17.712349">
        <ele>11.6732</ele>
        <time>2013-04-26T19:27:33Z</time>
      </trkpt>
      <trkpt lat="59.8583773" lon="17.7122292">
        <ele>11.6732</ele>
        <time>2013-04-26T19:27:34Z</time>
      </trkpt>
      <trkpt lat="59.858406" lon="17.7121106">
        <ele>11.6732</ele>
        <time>2013-04-26T19:27:35Z</time>
      </trkpt>
      <trkpt lat="59.8584345" lon="17.7119919">
        <ele>11.6732</ele>
        <time>2013-04-26T19:27:36Z</time>
      </trkpt>
      <trkpt lat="59.8584605" lon="17.7118718">
        <ele>11.6732</ele>
        <time>2013-04-26T19:27:37Z</time>
      </trkpt>
      <trkpt lat="59.8584856" lon="17.7117463">
        <ele>11.6732</ele>
        <time>2013-04-26T19:27:38Z</time>
      </trkpt>
      <trkpt lat="59.8585081" lon="17.7116173">
        <ele>11.6732</ele>
        <time>2013-04-26T19:27:39Z</time>
      </trkpt>
      <trkpt lat="59.8585252" lon="17.7114843">
        <ele>11.6732</ele>
        <time>2013-04-26T19:27:40Z</time>
      </trkpt>
      <trkpt lat="59.8585338" lon="17.711347">
        <ele>12.1538</ele>
        <time>2013-04-26T19:27:41Z</time>
      </trkpt>
      <trkpt lat="59.8585366" lon="17.7112098">
        <ele>11.6732</ele>
        <time>2013-04-26T19:27:42Z</time>
      </trkpt>
      <trkpt lat="59.8585329" lon="17.711073">
        <ele>11.6732</ele>
        <time>2013-04-26T19:27:43Z</time>
      </trkpt>
      <trkpt lat="59.8585268" lon="17.7109314">
        <ele>11.6732</ele>
        <time>2013-04-26T19:27:44Z</time>
      </trkpt>
      <trkpt lat="59.8585149" lon="17.7108">
        <ele>11.1925</ele>
        <time>2013-04-26T19:27:45Z</time>
      </trkpt>
      <trkpt lat="59.8584988" lon="17.7106628">
        <ele>11.1925</ele>
        <time>2013-04-26T19:27:46Z</time>
      </trkpt>
      <trkpt lat="59.8584791" lon="17.710529">
        <ele>10.7118</ele>
        <time>2013-04-26T19:27:47Z</time>
      </trkpt>
      <trkpt lat="59.8584551" lon="17.7103975">
        <ele>11.1925</ele>
        <time>2013-04-26T19:27:48Z</time>
      </trkpt>
      <trkpt lat="59.8584304" lon="17.7102715">
        <ele>11.6732</ele>
        <time>2013-04-26T19:27:49Z</time>
      </trkpt>
      <trkpt lat="59.8584117" lon="17.7101464">
        <ele>11.6732</ele>
        <time>2013-04-26T19:27:50Z</time>
      </trkpt>
      <trkpt lat="59.8583915" lon="17.7100193">
        <ele>11.6732</ele>
        <time>2013-04-26T19:27:51Z</time>
      </trkpt>
      <trkpt lat="59.8583698" lon="17.7098763">
        <ele>12.1538</ele>
        <time>2013-04-26T19:27:52Z</time>
      </trkpt>
      <trkpt lat="59.8583527" lon="17.709737">
        <ele>12.6344</ele>
        <time>2013-04-26T19:27:53Z</time>
      </trkpt>
      <trkpt lat="59.8583366" lon="17.7095915">
        <ele>13.1151</ele>
        <time>2013-04-26T19:27:54Z</time>
      </trkpt>
      <trkpt lat="59.8583227" lon="17.709446">
        <ele>13.1151</ele>
        <time>2013-04-26T19:27:55Z</time>
      </trkpt>
      <trkpt lat="59.8583163" lon="17.7092957">
        <ele>13.1151</ele>
        <time>2013-04-26T19:27:56Z</time>
      </trkpt>
      <trkpt lat="59.8583148" lon="17.7091401">
        <ele>14.0764</ele>
        <time>2013-04-26T19:27:57Z</time>
      </trkpt>
      <trkpt lat="59.858318" lon="17.7089906">
        <ele>14.0764</ele>
        <time>2013-04-26T19:27:58Z</time>
      </trkpt>
      <trkpt lat="59.8583279" lon="17.7088394">
        <ele>14.0764</ele>
        <time>2013-04-26T19:27:59Z</time>
      </trkpt>
      <trkpt lat="59.8583433" lon="17.7086865">
        <ele>14.0764</ele>
        <time>2013-04-26T19:28:00Z</time>
      </trkpt>
      <trkpt lat="59.8583615" lon="17.7085362">
        <ele>14.0764</ele>
        <time>2013-04-26T19:28:01Z</time>
      </trkpt>
      <trkpt lat="59.8583787" lon="17.7083836">
        <ele>14.0764</ele>
        <time>2013-04-26T19:28:02Z</time>
      </trkpt>
      <trkpt lat="59.8583931" lon="17.708228">
        <ele>14.0764</ele>
        <time>2013-04-26T19:28:03Z</time>
      </trkpt>
      <trkpt lat="59.8584096" lon="17.7080668">
        <ele>13.5958</ele>
        <time>2013-04-26T19:28:04Z</time>
      </trkpt>
      <trkpt lat="59.8584237" lon="17.7079013">
        <ele>13.5958</ele>
        <time>2013-04-26T19:28:05Z</time>
      </trkpt>
      <trkpt lat="59.8584392" lon="17.7077359">
        <ele>13.5958</ele>
        <time>2013-04-26T19:28:06Z</time>
      </trkpt>
      <trkpt lat="59.8584553" lon="17.7075733">
        <ele>13.1151</ele>
        <time>2013-04-26T19:28:07Z</time>
      </trkpt>
      <trkpt lat="59.8584711" lon="17.7074134">
        <ele>13.1151</ele>
        <time>2013-04-26T19:28:08Z</time>
      </trkpt>
      <trkpt lat="59.8584873" lon="17.7072496">
        <ele>13.1151</ele>
        <time>2013-04-26T19:28:09Z</time>
      </trkpt>
      <trkpt lat="59.858508" lon="17.7070922">
        <ele>12.6344</ele>
        <time>2013-04-26T19:28:10Z</time>
      </trkpt>
      <trkpt lat="59.8585253" lon="17.7069367">
        <ele>12.1538</ele>
        <time>2013-04-26T19:28:11Z</time>
      </trkpt>
      <trkpt lat="59.8585402" lon="17.706783">
        <ele>12.1538</ele>
        <time>2013-04-26T19:28:12Z</time>
      </trkpt>
      <trkpt lat="59.8585467" lon="17.7066239">
        <ele>12.6344</ele>
        <time>2013-04-26T19:28:13Z</time>
      </trkpt>
      <trkpt lat="59.8585351" lon="17.7064629">
        <ele>14.0764</ele>
        <time>2013-04-26T19:28:14Z</time>
      </trkpt>
      <trkpt lat="59.8585514" lon="17.7062869">
        <ele>14.557</ele>
        <time>2013-04-26T19:28:15Z</time>
      </trkpt>
      <trkpt lat="59.8585894" lon="17.7061217">
        <ele>15.0377</ele>
        <time>2013-04-26T19:28:16Z</time>
      </trkpt>
      <trkpt lat="59.8586312" lon="17.7059865">
        <ele>15.0377</ele>
        <time>2013-04-26T19:28:17Z</time>
      </trkpt>
      <trkpt lat="59.8586698" lon="17.7058557">
        <ele>15.0377</ele>
        <time>2013-04-26T19:28:18Z</time>
      </trkpt>
      <trkpt lat="59.858706" lon="17.7057287">
        <ele>15.0377</ele>
        <time>2013-04-26T19:28:19Z</time>
      </trkpt>
      <trkpt lat="59.8587405" lon="17.7056127">
        <ele>15.0377</ele>
        <time>2013-04-26T19:28:20Z</time>
      </trkpt>
      <trkpt lat="59.8587728" lon="17.705505">
        <ele>15.5184</ele>
        <time>2013-04-26T19:28:21Z</time>
      </trkpt>
      <trkpt lat="59.8587966" lon="17.7054055">
        <ele>15.5184</ele>
        <time>2013-04-26T19:28:22Z</time>
      </trkpt>
      <trkpt lat="59.8588132" lon="17.7053013">
        <ele>15.5184</ele>
        <time>2013-04-26T19:28:23Z</time>
      </trkpt>
      <trkpt lat="59.8588215" lon="17.7051927">
        <ele>15.5184</ele>
        <time>2013-04-26T19:28:24Z</time>
      </trkpt>
      <trkpt lat="59.8588187" lon="17.7050853">
        <ele>15.0377</ele>
        <time>2013-04-26T19:28:25Z</time>
      </trkpt>
      <trkpt lat="59.8587938" lon="17.7049787">
        <ele>15.0377</ele>
        <time>2013-04-26T19:28:26Z</time>
      </trkpt>
      <trkpt lat="59.8587625" lon="17.7048715">
        <ele>15.999</ele>
        <time>2013-04-26T19:28:27Z</time>
      </trkpt>
      <trkpt lat="59.8587308" lon="17.704762">
        <ele>16.4797</ele>
        <time>2013-04-26T19:28:28Z</time>
      </trkpt>
      <trkpt lat="59.8586913" lon="17.7046417">
        <ele>15.999</ele>
        <time>2013-04-26T19:28:29Z</time>
      </trkpt>
      <trkpt lat="59.8586566" lon="17.7045148">
        <ele>15.5184</ele>
        <time>2013-04-26T19:28:30Z</time>
      </trkpt>
      <trkpt lat="59.8586206" lon="17.7043855">
        <ele>15.5184</ele>
        <time>2013-04-26T19:28:31Z</time>
      </trkpt>
      <trkpt lat="59.8585847" lon="17.7042544">
        <ele>15.5184</ele>
        <time>2013-04-26T19:28:32Z</time>
      </trkpt>
      <trkpt lat="59.85855" lon="17.7041218">
        <ele>15.5184</ele>
        <time>2013-04-26T19:28:33Z</time>
      </trkpt>
      <trkpt lat="59.85852" lon="17.7039945">
        <ele>15.999</ele>
        <time>2013-04-26T19:28:34Z</time>
      </trkpt>
      <trkpt lat="59.8584863" lon="17.7038665">
        <ele>15.999</ele>
        <time>2013-04-26T19:28:35Z</time>
      </trkpt>
      <trkpt lat="59.8584059" lon="17.7037404">
        <ele>16.4797</ele>
        <time>2013-04-26T19:28:36Z</time>
      </trkpt>
      <trkpt lat="59.8583434" lon="17.7035983">
        <ele>17.4412</ele>
        <time>2013-04-26T19:28:37Z</time>
      </trkpt>
      <trkpt lat="59.8583101" lon="17.7034581">
        <ele>18.4023</ele>
        <time>2013-04-26T19:28:38Z</time>
      </trkpt>
      <trkpt lat="59.8582694" lon="17.7033225">
        <ele>19.3638</ele>
        <time>2013-04-26T19:28:39Z</time>
      </trkpt>
      <trkpt lat="59.858246" lon="17.7031844">
        <ele>20.8057</ele>
        <time>2013-04-26T19:28:40Z</time>
      </trkpt>
      <trkpt lat="59.858209" lon="17.703034">
        <ele>21.2864</ele>
        <time>2013-04-26T19:28:41Z</time>
      </trkpt>
      <trkpt lat="59.8581689" lon="17.7028552">
        <ele>21.767</ele>
        <time>2013-04-26T19:28:42Z</time>
      </trkpt>
      <trkpt lat="59.858135" lon="17.7026977">
        <ele>21.767</ele>
        <time>2013-04-26T19:28:43Z</time>
      </trkpt>
      <trkpt lat="59.8581175" lon="17.7025311">
        <ele>21.767</ele>
        <time>2013-04-26T19:28:44Z</time>
      </trkpt>
      <trkpt lat="59.8580942" lon="17.7023798">
        <ele>21.2864</ele>
        <time>2013-04-26T19:28:45Z</time>
      </trkpt>
      <trkpt lat="59.8580631" lon="17.7022627">
        <ele>21.2864</ele>
        <time>2013-04-26T19:28:46Z</time>
      </trkpt>
      <trkpt lat="59.8580216" lon="17.702117">
        <ele>22.2476</ele>
        <time>2013-04-26T19:28:47Z</time>
      </trkpt>
      <trkpt lat="59.8580093" lon="17.7019792">
        <ele>23.6896</ele>
        <time>2013-04-26T19:28:48Z</time>
      </trkpt>
      <trkpt lat="59.8579534" lon="17.7017695">
        <ele>24.1703</ele>
        <time>2013-04-26T19:28:49Z</time>
      </trkpt>
      <trkpt lat="59.8578948" lon="17.701609">
        <ele>23.209</ele>
        <time>2013-04-26T19:28:50Z</time>
      </trkpt>
      <trkpt lat="59.8578538" lon="17.701471">
        <ele>22.7283</ele>
        <time>2013-04-26T19:28:51Z</time>
      </trkpt>
      <trkpt lat="59.8578119" lon="17.7013059">
        <ele>22.7283</ele>
        <time>2013-04-26T19:28:52Z</time>
      </trkpt>
      <trkpt lat="59.8577873" lon="17.7011408">
        <ele>22.2476</ele>
        <time>2013-04-26T19:28:53Z</time>
      </trkpt>
      <trkpt lat="59.8577601" lon="17.7009749">
        <ele>21.767</ele>
        <time>2013-04-26T19:28:54Z</time>
      </trkpt>
      <trkpt lat="59.8577353" lon="17.7008132">
        <ele>21.2864</ele>
        <time>2013-04-26T19:28:55Z</time>
      </trkpt>
      <trkpt lat="59.8577072" lon="17.7006497">
        <ele>21.2864</ele>
        <time>2013-04-26T19:28:56Z</time>
      </trkpt>
      <trkpt lat="59.8576688" lon="17.7004778">
        <ele>20.8057</ele>
        <time>2013-04-26T19:28:57Z</time>
      </trkpt>
      <trkpt lat="59.8576307" lon="17.7002937">
        <ele>20.325</ele>
        <time>2013-04-26T19:28:58Z</time>
      </trkpt>
      <trkpt lat="59.8575929" lon="17.7001144">
        <ele>19.8444</ele>
        <time>2013-04-26T19:28:59Z</time>
      </trkpt>
      <trkpt lat="59.8575513" lon="17.6999456">
        <ele>19.3638</ele>
        <time>2013-04-26T19:29:00Z</time>
      </trkpt>
      <trkpt lat="59.8575104" lon="17.6997742">
        <ele>18.8831</ele>
        <time>2013-04-26T19:29:01Z</time>
      </trkpt>
      <trkpt lat="59.8574725" lon="17.6996022">
        <ele>18.4023</ele>
        <time>2013-04-26T19:29:02Z</time>
      </trkpt>
      <trkpt lat="59.8574362" lon="17.6994318">
        <ele>17.9218</ele>
        <time>2013-04-26T19:29:03Z</time>
      </trkpt>
      <trkpt lat="59.8574011" lon="17.6992639">
        <ele>17.9218</ele>
        <time>2013-04-26T19:29:04Z</time>
      </trkpt>
      <trkpt lat="59.8573651" lon="17.6990965">
        <ele>17.9218</ele>
        <time>2013-04-26T19:29:05Z</time>
      </trkpt>
      <trkpt lat="59.8573252" lon="17.6989288">
        <ele>17.9218</ele>
        <time>2013-04-26T19:29:06Z</time>
      </trkpt>
      <trkpt lat="59.8572906" lon="17.6987668">
        <ele>18.4023</ele>
        <time>2013-04-26T19:29:07Z</time>
      </trkpt>
      <trkpt lat="59.8572629" lon="17.6986014">
        <ele>17.9218</ele>
        <time>2013-04-26T19:29:08Z</time>
      </trkpt>
      <trkpt lat="59.8572347" lon="17.6984375">
        <ele>17.4412</ele>
        <time>2013-04-26T19:29:09Z</time>
      </trkpt>
      <trkpt lat="59.8572079" lon="17.6982734">
        <ele>16.9604</ele>
        <time>2013-04-26T19:29:10Z</time>
      </trkpt>
      <trkpt lat="59.8571804" lon="17.6981107">
        <ele>16.4797</ele>
        <time>2013-04-26T19:29:11Z</time>
      </trkpt>
      <trkpt lat="59.8571504" lon="17.6979491">
        <ele>15.999</ele>
        <time>2013-04-26T19:29:12Z</time>
      </trkpt>
      <trkpt lat="59.8571194" lon="17.6977888">
        <ele>15.5184</ele>
        <time>2013-04-26T19:29:13Z</time>
      </trkpt>
      <trkpt lat="59.8570892" lon="17.697629">
        <ele>15.5184</ele>
        <time>2013-04-26T19:29:14Z</time>
      </trkpt>
      <trkpt lat="59.8570609" lon="17.6974676">
        <ele>15.0377</ele>
        <time>2013-04-26T19:29:15Z</time>
      </trkpt>
      <trkpt lat="59.8570254" lon="17.6973008">
        <ele>15.999</ele>
        <time>2013-04-26T19:29:16Z</time>
      </trkpt>
      <trkpt lat="59.8569911" lon="17.6971343">
        <ele>16.4797</ele>
        <time>2013-04-26T19:29:17Z</time>
      </trkpt>
      <trkpt lat="59.8569609" lon="17.6969687">
        <ele>16.4797</ele>
        <time>2013-04-26T19:29:18Z</time>
      </trkpt>
      <trkpt lat="59.8569363" lon="17.6968064">
        <ele>16.4797</ele>
        <time>2013-04-26T19:29:19Z</time>
      </trkpt>
      <trkpt lat="59.856909" lon="17.6966452">
        <ele>16.4797</ele>
        <time>2013-04-26T19:29:20Z</time>
      </trkpt>
      <trkpt lat="59.8568809" lon="17.696485">
        <ele>15.999</ele>
        <time>2013-04-26T19:29:21Z</time>
      </trkpt>
      <trkpt lat="59.856853" lon="17.6963247">
        <ele>15.999</ele>
        <time>2013-04-26T19:29:22Z</time>
      </trkpt>
      <trkpt lat="59.8568261" lon="17.6961632">
        <ele>15.999</ele>
        <time>2013-04-26T19:29:23Z</time>
      </trkpt>
      <trkpt lat="59.8568008" lon="17.6960021">
        <ele>15.5184</ele>
        <time>2013-04-26T19:29:24Z</time>
      </trkpt>
      <trkpt lat="59.8567738" lon="17.6958403">
        <ele>15.5184</ele>
        <time>2013-04-26T19:29:25Z</time>
      </trkpt>
      <trkpt lat="59.8567457" lon="17.6956784">
        <ele>15.0377</ele>
        <time>2013-04-26T19:29:26Z</time>
      </trkpt>
      <trkpt lat="59.8567174" lon="17.695516">
        <ele>15.0377</ele>
        <time>2013-04-26T19:29:27Z</time>
      </trkpt>
      <trkpt lat="59.8566888" lon="17.6953529">
        <ele>15.0377</ele>
        <time>2013-04-26T19:29:28Z</time>
      </trkpt>
      <trkpt lat="59.8566593" lon="17.6951881">
        <ele>15.0377</ele>
        <time>2013-04-26T19:29:29Z</time>
      </trkpt>
      <trkpt lat="59.8566303" lon="17.6950224">
        <ele>15.0377</ele>
        <time>2013-04-26T19:29:30Z</time>
      </trkpt>
      <trkpt lat="59.856604" lon="17.6948566">
        <ele>14.557</ele>
        <time>2013-04-26T19:29:31Z</time>
      </trkpt>
      <trkpt lat="59.8565774" lon="17.6946911">
        <ele>14.557</ele>
        <time>2013-04-26T19:29:32Z</time>
      </trkpt>
      <trkpt lat="59.8565516" lon="17.6945268">
        <ele>14.0764</ele>
        <time>2013-04-26T19:29:33Z</time>
      </trkpt>
      <trkpt lat="59.8565211" lon="17.694365">
        <ele>14.557</ele>
        <time>2013-04-26T19:29:34Z</time>
      </trkpt>
      <trkpt lat="59.8564914" lon="17.6942062">
        <ele>14.557</ele>
        <time>2013-04-26T19:29:35Z</time>
      </trkpt>
      <trkpt lat="59.8564634" lon="17.6940476">
        <ele>14.557</ele>
        <time>2013-04-26T19:29:36Z</time>
      </trkpt>
      <trkpt lat="59.8564361" lon="17.6938901">
        <ele>14.557</ele>
        <time>2013-04-26T19:29:37Z</time>
      </trkpt>
      <trkpt lat="59.8564089" lon="17.6937347">
        <ele>14.557</ele>
        <time>2013-04-26T19:29:38Z</time>
      </trkpt>
      <trkpt lat="59.8563818" lon="17.693581">
        <ele>14.557</ele>
        <time>2013-04-26T19:29:39Z</time>
      </trkpt>
      <trkpt lat="59.8563542" lon="17.6934287">
        <ele>14.557</ele>
        <time>2013-04-26T19:29:40Z</time>
      </trkpt>
      <trkpt lat="59.8563296" lon="17.6932785">
        <ele>14.0764</ele>
        <time>2013-04-26T19:29:41Z</time>
      </trkpt>
      <trkpt lat="59.8563037" lon="17.6931297">
        <ele>14.0764</ele>
        <time>2013-04-26T19:29:42Z</time>
      </trkpt>
      <trkpt lat="59.8562766" lon="17.6929816">
        <ele>13.5958</ele>
        <time>2013-04-26T19:29:43Z</time>
      </trkpt>
      <trkpt lat="59.8562621" lon="17.6928277">
        <ele>13.5958</ele>
        <time>2013-04-26T19:29:44Z</time>
      </trkpt>
      <trkpt lat="59.8562443" lon="17.6926817">
        <ele>13.1151</ele>
        <time>2013-04-26T19:29:45Z</time>
      </trkpt>
      <trkpt lat="59.8562178" lon="17.6925338">
        <ele>13.5958</ele>
        <time>2013-04-26T19:29:46Z</time>
      </trkpt>
      <trkpt lat="59.8561926" lon="17.6923887">
        <ele>13.1151</ele>
        <time>2013-04-26T19:29:47Z</time>
      </trkpt>
      <trkpt lat="59.8561714" lon="17.6922491">
        <ele>13.1151</ele>
        <time>2013-04-26T19:29:48Z</time>
      </trkpt>
      <trkpt lat="59.8561499" lon="17.692114">
        <ele>13.1151</ele>
        <time>2013-04-26T19:29:49Z</time>
      </trkpt>
      <trkpt lat="59.8561263" lon="17.6919839">
        <ele>12.6344</ele>
        <time>2013-04-26T19:29:50Z</time>
      </trkpt>
      <trkpt lat="59.8561024" lon="17.6918559">
        <ele>12.6344</ele>
        <time>2013-04-26T19:29:51Z</time>
      </trkpt>
      <trkpt lat="59.8560798" lon="17.691728">
        <ele>12.6344</ele>
        <time>2013-04-26T19:29:52Z</time>
      </trkpt>
      <trkpt lat="59.8560593" lon="17.6916005">
        <ele>12.6344</ele>
        <time>2013-04-26T19:29:53Z</time>
      </trkpt>
      <trkpt lat="59.8560435" lon="17.6914731">
        <ele>12.1538</ele>
        <time>2013-04-26T19:29:54Z</time>
      </trkpt>
      <trkpt lat="59.856035" lon="17.6913462">
        <ele>12.6344</ele>
        <time>2013-04-26T19:29:55Z</time>
      </trkpt>
      <trkpt lat="59.8560383" lon="17.691222">
        <ele>12.6344</ele>
        <time>2013-04-26T19:29:56Z</time>
      </trkpt>
      <trkpt lat="59.8560613" lon="17.6911234">
        <ele>12.1538</ele>
        <time>2013-04-26T19:29:57Z</time>
      </trkpt>
      <trkpt lat="59.8560894" lon="17.6910224">
        <ele>12.1538</ele>
        <time>2013-04-26T19:29:58Z</time>
      </trkpt>
      <trkpt lat="59.8561308" lon="17.690935">
        <ele>11.6732</ele>
        <time>2013-04-26T19:29:59Z</time>
      </trkpt>
      <trkpt lat="59.8561785" lon="17.6908585">
        <ele>11.6732</ele>
        <time>2013-04-26T19:30:00Z</time>
      </trkpt>
      <trkpt lat="59.8562299" lon="17.6907856">
        <ele>11.1925</ele>
        <time>2013-04-26T19:30:01Z</time>
      </trkpt>
      <trkpt lat="59.8562828" lon="17.6907152">
        <ele>11.1925</ele>
        <time>2013-04-26T19:30:02Z</time>
      </trkpt>
      <trkpt lat="59.8563367" lon="17.6906459">
        <ele>11.1925</ele>
        <time>2013-04-26T19:30:03Z</time>
      </trkpt>
      <trkpt lat="59.8563933" lon="17.6905785">
        <ele>11.1925</ele>
        <time>2013-04-26T19:30:04Z</time>
      </trkpt>
      <trkpt lat="59.8564521" lon="17.6905152">
        <ele>11.1925</ele>
        <time>2013-04-26T19:30:05Z</time>
      </trkpt>
      <trkpt lat="59.8565123" lon="17.6904556">
        <ele>11.1925</ele>
        <time>2013-04-26T19:30:06Z</time>
      </trkpt>
      <trkpt lat="59.8565723" lon="17.6903978">
        <ele>11.1925</ele>
        <time>2013-04-26T19:30:07Z</time>
      </trkpt>
      <trkpt lat="59.8566334" lon="17.6903377">
        <ele>11.6732</ele>
        <time>2013-04-26T19:30:08Z</time>
      </trkpt>
      <trkpt lat="59.8566956" lon="17.6902764">
        <ele>11.6732</ele>
        <time>2013-04-26T19:30:09Z</time>
      </trkpt>
      <trkpt lat="59.8567586" lon="17.6902159">
        <ele>11.6732</ele>
        <time>2013-04-26T19:30:10Z</time>
      </trkpt>
      <trkpt lat="59.8568221" lon="17.6901564">
        <ele>11.6732</ele>
        <time>2013-04-26T19:30:11Z</time>
      </trkpt>
      <trkpt lat="59.8568856" lon="17.690096">
        <ele>12.1538</ele>
        <time>2013-04-26T19:30:12Z</time>
      </trkpt>
      <trkpt lat="59.8569484" lon="17.6900316">
        <ele>12.1538</ele>
        <time>2013-04-26T19:30:13Z</time>
      </trkpt>
      <trkpt lat="59.8570108" lon="17.6899653">
        <ele>12.1538</ele>
        <time>2013-04-26T19:30:14Z</time>
      </trkpt>
      <trkpt lat="59.8570735" lon="17.6899002">
        <ele>12.1538</ele>
        <time>2013-04-26T19:30:15Z</time>
      </trkpt>
      <trkpt lat="59.8571364" lon="17.6898372">
        <ele>12.1538</ele>
        <time>2013-04-26T19:30:16Z</time>
      </trkpt>
      <trkpt lat="59.8571999" lon="17.6897771">
        <ele>12.1538</ele>
        <time>2013-04-26T19:30:17Z</time>
      </trkpt>
      <trkpt lat="59.8572632" lon="17.6897207">
        <ele>12.1538</ele>
        <time>2013-04-26T19:30:18Z</time>
      </trkpt>
      <trkpt lat="59.857327" lon="17.6896664">
        <ele>12.1538</ele>
        <time>2013-04-26T19:30:19Z</time>
      </trkpt>
      <trkpt lat="59.8573911" lon="17.6896119">
        <ele>12.6344</ele>
        <time>2013-04-26T19:30:20Z</time>
      </trkpt>
      <trkpt lat="59.8574544" lon="17.6895539">
        <ele>12.6344</ele>
        <time>2013-04-26T19:30:21Z</time>
      </trkpt>
      <trkpt lat="59.8575169" lon="17.6894928">
        <ele>12.6344</ele>
        <time>2013-04-26T19:30:22Z</time>
      </trkpt>
      <trkpt lat="59.8575794" lon="17.6894306">
        <ele>12.6344</ele>
        <time>2013-04-26T19:30:23Z</time>
      </trkpt>
      <trkpt lat="59.8576426" lon="17.6893695">
        <ele>12.6344</ele>
        <time>2013-04-26T19:30:24Z</time>
      </trkpt>
      <trkpt lat="59.8577067" lon="17.6893098">
        <ele>12.6344</ele>
        <time>2013-04-26T19:30:25Z</time>
      </trkpt>
      <trkpt lat="59.8577708" lon="17.6892489">
        <ele>12.6344</ele>
        <time>2013-04-26T19:30:26Z</time>
      </trkpt>
      <trkpt lat="59.8578355" lon="17.689185">
        <ele>12.6344</ele>
        <time>2013-04-26T19:30:27Z</time>
      </trkpt>
      <trkpt lat="59.8578993" lon="17.6891187">
        <ele>12.6344</ele>
        <time>2013-04-26T19:30:28Z</time>
      </trkpt>
      <trkpt lat="59.8579615" lon="17.689053">
        <ele>12.6344</ele>
        <time>2013-04-26T19:30:29Z</time>
      </trkpt>
      <trkpt lat="59.8580249" lon="17.6889938">
        <ele>12.6344</ele>
        <time>2013-04-26T19:30:30Z</time>
      </trkpt>
      <trkpt lat="59.8580921" lon="17.6889442">
        <ele>12.6344</ele>
        <time>2013-04-26T19:30:31Z</time>
      </trkpt>
      <trkpt lat="59.8581634" lon="17.6889136">
        <ele>12.6344</ele>
        <time>2013-04-26T19:30:32Z</time>
      </trkpt>
      <trkpt lat="59.8582366" lon="17.6888961">
        <ele>12.6344</ele>
        <time>2013-04-26T19:30:33Z</time>
      </trkpt>
      <trkpt lat="59.8583069" lon="17.6888582">
        <ele>12.6344</ele>
        <time>2013-04-26T19:30:34Z</time>
      </trkpt>
      <trkpt lat="59.8583687" lon="17.688781">
        <ele>12.1538</ele>
        <time>2013-04-26T19:30:35Z</time>
      </trkpt>
      <trkpt lat="59.8584208" lon="17.6886749">
        <ele>12.1538</ele>
        <time>2013-04-26T19:30:36Z</time>
      </trkpt>
      <trkpt lat="59.8584692" lon="17.6885591">
        <ele>12.1538</ele>
        <time>2013-04-26T19:30:37Z</time>
      </trkpt>
      <trkpt lat="59.858519" lon="17.688446">
        <ele>12.1538</ele>
        <time>2013-04-26T19:30:38Z</time>
      </trkpt>
      <trkpt lat="59.8585701" lon="17.6883391">
        <ele>12.1538</ele>
        <time>2013-04-26T19:30:39Z</time>
      </trkpt>
      <trkpt lat="59.8586219" lon="17.6882376">
        <ele>12.1538</ele>
        <time>2013-04-26T19:30:40Z</time>
      </trkpt>
      <trkpt lat="59.8586755" lon="17.6881418">
        <ele>12.1538</ele>
        <time>2013-04-26T19:30:41Z</time>
      </trkpt>
      <trkpt lat="59.8587308" lon="17.6880522">
        <ele>12.1538</ele>
        <time>2013-04-26T19:30:42Z</time>
      </trkpt>
      <trkpt lat="59.8587858" lon="17.6879702">
        <ele>12.6344</ele>
        <time>2013-04-26T19:30:43Z</time>
      </trkpt>
      <trkpt lat="59.8588412" lon="17.6878942">
        <ele>12.6344</ele>
        <time>2013-04-26T19:30:44Z</time>
      </trkpt>
      <trkpt lat="59.8588962" lon="17.687823">
        <ele>12.6344</ele>
        <time>2013-04-26T19:30:45Z</time>
      </trkpt>
      <trkpt lat="59.8589497" lon="17.6877564">
        <ele>13.1151</ele>
        <time>2013-04-26T19:30:46Z</time>
      </trkpt>
      <trkpt lat="59.8590007" lon="17.6876947">
        <ele>13.1151</ele>
        <time>2013-04-26T19:30:47Z</time>
      </trkpt>
      <trkpt lat="59.8590494" lon="17.6876379">
        <ele>13.5958</ele>
        <time>2013-04-26T19:30:48Z</time>
      </trkpt>
      <trkpt lat="59.8590956" lon="17.6875844">
        <ele>13.5958</ele>
        <time>2013-04-26T19:30:49Z</time>
      </trkpt>
      <trkpt lat="59.8591398" lon="17.6875331">
        <ele>13.5958</ele>
        <time>2013-04-26T19:30:50Z</time>
      </trkpt>
      <trkpt lat="59.8591802" lon="17.687486">
        <ele>13.5958</ele>
        <time>2013-04-26T19:30:51Z</time>
      </trkpt>
      <trkpt lat="59.8593917" lon="17.6872402">
        <ele>17.9218</ele>
        <time>2013-04-26T19:31:18Z</time>
      </trkpt>
      <trkpt lat="59.8594129" lon="17.6872109">
        <ele>17.4412</ele>
        <time>2013-04-26T19:31:19Z</time>
      </trkpt>
      <trkpt lat="59.8594421" lon="17.6871715">
        <ele>16.9604</ele>
        <time>2013-04-26T19:31:20Z</time>
      </trkpt>
      <trkpt lat="59.8594794" lon="17.6871295">
        <ele>16.4797</ele>
        <time>2013-04-26T19:31:21Z</time>
      </trkpt>
      <trkpt lat="59.8595252" lon="17.6870839">
        <ele>16.9604</ele>
        <time>2013-04-26T19:31:22Z</time>
      </trkpt>
      <trkpt lat="59.8595747" lon="17.6870275">
        <ele>16.4797</ele>
        <time>2013-04-26T19:31:23Z</time>
      </trkpt>
      <trkpt lat="59.8596275" lon="17.6869613">
        <ele>16.4797</ele>
        <time>2013-04-26T19:31:24Z</time>
      </trkpt>
      <trkpt lat="59.8596859" lon="17.6868927">
        <ele>16.9604</ele>
        <time>2013-04-26T19:31:25Z</time>
      </trkpt>
      <trkpt lat="59.8597486" lon="17.6868354">
        <ele>16.4797</ele>
        <time>2013-04-26T19:31:26Z</time>
      </trkpt>
      <trkpt lat="59.8598114" lon="17.686769">
        <ele>16.4797</ele>
        <time>2013-04-26T19:31:27Z</time>
      </trkpt>
      <trkpt lat="59.8598726" lon="17.6866898">
        <ele>16.4797</ele>
        <time>2013-04-26T19:31:28Z</time>
      </trkpt>
      <trkpt lat="59.8599351" lon="17.6866086">
        <ele>16.4797</ele>
        <time>2013-04-26T19:31:29Z</time>
      </trkpt>
      <trkpt lat="59.8600003" lon="17.6865259">
        <ele>16.4797</ele>
        <time>2013-04-26T19:31:30Z</time>
      </trkpt>
      <trkpt lat="59.8600669" lon="17.6864438">
        <ele>16.9604</ele>
        <time>2013-04-26T19:31:31Z</time>
      </trkpt>
      <trkpt lat="59.8601346" lon="17.6863623">
        <ele>16.9604</ele>
        <time>2013-04-26T19:31:32Z</time>
      </trkpt>
      <trkpt lat="59.8602009" lon="17.6862762">
        <ele>16.9604</ele>
        <time>2013-04-26T19:31:33Z</time>
      </trkpt>
      <trkpt lat="59.8602662" lon="17.6861873">
        <ele>17.4412</ele>
        <time>2013-04-26T19:31:34Z</time>
      </trkpt>
      <trkpt lat="59.860332" lon="17.6860993">
        <ele>17.4412</ele>
        <time>2013-04-26T19:31:35Z</time>
      </trkpt>
      <trkpt lat="59.8604002" lon="17.6860144">
        <ele>17.4412</ele>
        <time>2013-04-26T19:31:36Z</time>
      </trkpt>
      <trkpt lat="59.8604687" lon="17.6859323">
        <ele>17.9218</ele>
        <time>2013-04-26T19:31:37Z</time>
      </trkpt>
      <trkpt lat="59.8605383" lon="17.6858548">
        <ele>17.9218</ele>
        <time>2013-04-26T19:31:38Z</time>
      </trkpt>
      <trkpt lat="59.8606095" lon="17.68578">
        <ele>17.9218</ele>
        <time>2013-04-26T19:31:39Z</time>
      </trkpt>
      <trkpt lat="59.8606781" lon="17.6857013">
        <ele>17.9218</ele>
        <time>2013-04-26T19:31:40Z</time>
      </trkpt>
      <trkpt lat="59.8607443" lon="17.6856212">
        <ele>17.9218</ele>
        <time>2013-04-26T19:31:41Z</time>
      </trkpt>
      <trkpt lat="59.8608099" lon="17.6855481">
        <ele>17.4412</ele>
        <time>2013-04-26T19:31:42Z</time>
      </trkpt>
      <trkpt lat="59.8608788" lon="17.6854797">
        <ele>17.9218</ele>
        <time>2013-04-26T19:31:43Z</time>
      </trkpt>
      <trkpt lat="59.8609487" lon="17.6854101">
        <ele>17.4412</ele>
        <time>2013-04-26T19:31:44Z</time>
      </trkpt>
      <trkpt lat="59.8610178" lon="17.6853379">
        <ele>17.4412</ele>
        <time>2013-04-26T19:31:45Z</time>
      </trkpt>
      <trkpt lat="59.8610872" lon="17.6852663">
        <ele>17.9218</ele>
        <time>2013-04-26T19:31:46Z</time>
      </trkpt>
      <trkpt lat="59.8611575" lon="17.6851984">
        <ele>17.9218</ele>
        <time>2013-04-26T19:31:47Z</time>
      </trkpt>
      <trkpt lat="59.8612275" lon="17.6851331">
        <ele>17.9218</ele>
        <time>2013-04-26T19:31:48Z</time>
      </trkpt>
      <trkpt lat="59.8612976" lon="17.6850689">
        <ele>17.9218</ele>
        <time>2013-04-26T19:31:49Z</time>
      </trkpt>
      <trkpt lat="59.8613679" lon="17.6850063">
        <ele>17.9218</ele>
        <time>2013-04-26T19:31:50Z</time>
      </trkpt>
      <trkpt lat="59.8614386" lon="17.684946">
        <ele>17.4412</ele>
        <time>2013-04-26T19:31:51Z</time>
      </trkpt>
      <trkpt lat="59.86151" lon="17.6848866">
        <ele>17.9218</ele>
        <time>2013-04-26T19:31:52Z</time>
      </trkpt>
      <trkpt lat="59.8615826" lon="17.6848328">
        <ele>17.9218</ele>
        <time>2013-04-26T19:31:53Z</time>
      </trkpt>
      <trkpt lat="59.8616558" lon="17.6847799">
        <ele>17.9218</ele>
        <time>2013-04-26T19:31:54Z</time>
      </trkpt>
      <trkpt lat="59.8617291" lon="17.6847246">
        <ele>17.9218</ele>
        <time>2013-04-26T19:31:55Z</time>
      </trkpt>
      <trkpt lat="59.8618032" lon="17.6846696">
        <ele>17.9218</ele>
        <time>2013-04-26T19:31:56Z</time>
      </trkpt>
      <trkpt lat="59.8618768" lon="17.6846146">
        <ele>17.9218</ele>
        <time>2013-04-26T19:31:57Z</time>
      </trkpt>
      <trkpt lat="59.8619509" lon="17.6845619">
        <ele>17.9218</ele>
        <time>2013-04-26T19:31:58Z</time>
      </trkpt>
      <trkpt lat="59.862025" lon="17.6845106">
        <ele>17.9218</ele>
        <time>2013-04-26T19:31:59Z</time>
      </trkpt>
      <trkpt lat="59.862099" lon="17.6844582">
        <ele>17.9218</ele>
        <time>2013-04-26T19:32:00Z</time>
      </trkpt>
      <trkpt lat="59.8621725" lon="17.6844064">
        <ele>18.4023</ele>
        <time>2013-04-26T19:32:01Z</time>
      </trkpt>
      <trkpt lat="59.8622464" lon="17.6843571">
        <ele>18.4023</ele>
        <time>2013-04-26T19:32:02Z</time>
      </trkpt>
      <trkpt lat="59.8623195" lon="17.6843064">
        <ele>18.4023</ele>
        <time>2013-04-26T19:32:03Z</time>
      </trkpt>
      <trkpt lat="59.8623921" lon="17.6842549">
        <ele>18.4023</ele>
        <time>2013-04-26T19:32:04Z</time>
      </trkpt>
      <trkpt lat="59.8624641" lon="17.6841987">
        <ele>18.4023</ele>
        <time>2013-04-26T19:32:05Z</time>
      </trkpt>
      <trkpt lat="59.8625362" lon="17.6841412">
        <ele>18.4023</ele>
        <time>2013-04-26T19:32:06Z</time>
      </trkpt>
      <trkpt lat="59.8626081" lon="17.684085">
        <ele>18.4023</ele>
        <time>2013-04-26T19:32:07Z</time>
      </trkpt>
      <trkpt lat="59.8626802" lon="17.6840286">
        <ele>18.4023</ele>
        <time>2013-04-26T19:32:08Z</time>
      </trkpt>
      <trkpt lat="59.8627537" lon="17.6839727">
        <ele>18.4023</ele>
        <time>2013-04-26T19:32:09Z</time>
      </trkpt>
      <trkpt lat="59.8628282" lon="17.6839159">
        <ele>18.4023</ele>
        <time>2013-04-26T19:32:10Z</time>
      </trkpt>
      <trkpt lat="59.862903" lon="17.6838626">
        <ele>18.4023</ele>
        <time>2013-04-26T19:32:11Z</time>
      </trkpt>
      <trkpt lat="59.8629781" lon="17.6838106">
        <ele>18.4023</ele>
        <time>2013-04-26T19:32:12Z</time>
      </trkpt>
      <trkpt lat="59.8630532" lon="17.6837603">
        <ele>18.4023</ele>
        <time>2013-04-26T19:32:13Z</time>
      </trkpt>
      <trkpt lat="59.8631271" lon="17.6837093">
        <ele>18.4023</ele>
        <time>2013-04-26T19:32:14Z</time>
      </trkpt>
      <trkpt lat="59.8632002" lon="17.6836578">
        <ele>18.4023</ele>
        <time>2013-04-26T19:32:15Z</time>
      </trkpt>
      <trkpt lat="59.8632737" lon="17.6836087">
        <ele>18.4023</ele>
        <time>2013-04-26T19:32:16Z</time>
      </trkpt>
      <trkpt lat="59.8633461" lon="17.6835575">
        <ele>18.4023</ele>
        <time>2013-04-26T19:32:17Z</time>
      </trkpt>
      <trkpt lat="59.8634178" lon="17.6835047">
        <ele>17.9218</ele>
        <time>2013-04-26T19:32:18Z</time>
      </trkpt>
      <trkpt lat="59.8634889" lon="17.6834547">
        <ele>17.9218</ele>
        <time>2013-04-26T19:32:19Z</time>
      </trkpt>
      <trkpt lat="59.8635576" lon="17.6834064">
        <ele>17.9218</ele>
        <time>2013-04-26T19:32:20Z</time>
      </trkpt>
      <trkpt lat="59.8636238" lon="17.6833574">
        <ele>17.9218</ele>
        <time>2013-04-26T19:32:21Z</time>
      </trkpt>
      <trkpt lat="59.8636893" lon="17.6833056">
        <ele>17.9218</ele>
        <time>2013-04-26T19:32:22Z</time>
      </trkpt>
      <trkpt lat="59.8637555" lon="17.6832558">
        <ele>17.9218</ele>
        <time>2013-04-26T19:32:23Z</time>
      </trkpt>
      <trkpt lat="59.8638218" lon="17.6832055">
        <ele>17.9218</ele>
        <time>2013-04-26T19:32:24Z</time>
      </trkpt>
      <trkpt lat="59.8638876" lon="17.6831588">
        <ele>17.9218</ele>
        <time>2013-04-26T19:32:25Z</time>
      </trkpt>
      <trkpt lat="59.8639509" lon="17.6831094">
        <ele>17.9218</ele>
        <time>2013-04-26T19:32:26Z</time>
      </trkpt>
      <trkpt lat="59.8640109" lon="17.6830522">
        <ele>17.9218</ele>
        <time>2013-04-26T19:32:27Z</time>
      </trkpt>
      <trkpt lat="59.8640715" lon="17.6829975">
        <ele>17.9218</ele>
        <time>2013-04-26T19:32:28Z</time>
      </trkpt>
      <trkpt lat="59.8641357" lon="17.6829504">
        <ele>17.4412</ele>
        <time>2013-04-26T19:32:29Z</time>
      </trkpt>
      <trkpt lat="59.864202" lon="17.682904">
        <ele>17.4412</ele>
        <time>2013-04-26T19:32:30Z</time>
      </trkpt>
      <trkpt lat="59.8642699" lon="17.6828566">
        <ele>17.4412</ele>
        <time>2013-04-26T19:32:31Z</time>
      </trkpt>
      <trkpt lat="59.8643388" lon="17.6828081">
        <ele>17.4412</ele>
        <time>2013-04-26T19:32:32Z</time>
      </trkpt>
      <trkpt lat="59.8644087" lon="17.6827594">
        <ele>17.4412</ele>
        <time>2013-04-26T19:32:33Z</time>
      </trkpt>
      <trkpt lat="59.8644784" lon="17.6827084">
        <ele>17.4412</ele>
        <time>2013-04-26T19:32:34Z</time>
      </trkpt>
      <trkpt lat="59.8645481" lon="17.6826572">
        <ele>17.4412</ele>
        <time>2013-04-26T19:32:35Z</time>
      </trkpt>
      <trkpt lat="59.8646178" lon="17.6826074">
        <ele>17.4412</ele>
        <time>2013-04-26T19:32:36Z</time>
      </trkpt>
      <trkpt lat="59.8646875" lon="17.6825566">
        <ele>17.4412</ele>
        <time>2013-04-26T19:32:37Z</time>
      </trkpt>
      <trkpt lat="59.8647587" lon="17.6825057">
        <ele>17.4412</ele>
        <time>2013-04-26T19:32:38Z</time>
      </trkpt>
      <trkpt lat="59.8648297" lon="17.6824531">
        <ele>17.4412</ele>
        <time>2013-04-26T19:32:39Z</time>
      </trkpt>
      <trkpt lat="59.8649008" lon="17.6824002">
        <ele>17.4412</ele>
        <time>2013-04-26T19:32:40Z</time>
      </trkpt>
      <trkpt lat="59.8649723" lon="17.6823474">
        <ele>17.4412</ele>
        <time>2013-04-26T19:32:41Z</time>
      </trkpt>
      <trkpt lat="59.8650448" lon="17.6822953">
        <ele>17.4412</ele>
        <time>2013-04-26T19:32:42Z</time>
      </trkpt>
      <trkpt lat="59.8651179" lon="17.682244">
        <ele>17.4412</ele>
        <time>2013-04-26T19:32:43Z</time>
      </trkpt>
      <trkpt lat="59.8651909" lon="17.6821915">
        <ele>17.4412</ele>
        <time>2013-04-26T19:32:44Z</time>
      </trkpt>
      <trkpt lat="59.8652643" lon="17.682138">
        <ele>17.4412</ele>
        <time>2013-04-26T19:32:45Z</time>
      </trkpt>
      <trkpt lat="59.865338" lon="17.6820841">
        <ele>17.9218</ele>
        <time>2013-04-26T19:32:46Z</time>
      </trkpt>
      <trkpt lat="59.865412" lon="17.6820307">
        <ele>17.9218</ele>
        <time>2013-04-26T19:32:47Z</time>
      </trkpt>
      <trkpt lat="59.8654862" lon="17.6819765">
        <ele>17.9218</ele>
        <time>2013-04-26T19:32:48Z</time>
      </trkpt>
      <trkpt lat="59.8655617" lon="17.6819231">
        <ele>17.9218</ele>
        <time>2013-04-26T19:32:49Z</time>
      </trkpt>
      <trkpt lat="59.8656379" lon="17.6818723">
        <ele>17.9218</ele>
        <time>2013-04-26T19:32:50Z</time>
      </trkpt>
      <trkpt lat="59.865714" lon="17.6818222">
        <ele>17.9218</ele>
        <time>2013-04-26T19:32:51Z</time>
      </trkpt>
      <trkpt lat="59.8657897" lon="17.6817727">
        <ele>18.4023</ele>
        <time>2013-04-26T19:32:52Z</time>
      </trkpt>
      <trkpt lat="59.8658646" lon="17.6817226">
        <ele>18.4023</ele>
        <time>2013-04-26T19:32:53Z</time>
      </trkpt>
      <trkpt lat="59.8659382" lon="17.6816713">
        <ele>18.4023</ele>
        <time>2013-04-26T19:32:54Z</time>
      </trkpt>
      <trkpt lat="59.8660108" lon="17.681625">
        <ele>18.4023</ele>
        <time>2013-04-26T19:32:55Z</time>
      </trkpt>
      <trkpt lat="59.866083" lon="17.6815842">
        <ele>18.4023</ele>
        <time>2013-04-26T19:32:56Z</time>
      </trkpt>
      <trkpt lat="59.8661553" lon="17.6815449">
        <ele>18.4023</ele>
        <time>2013-04-26T19:32:57Z</time>
      </trkpt>
      <trkpt lat="59.8662271" lon="17.6815077">
        <ele>18.4023</ele>
        <time>2013-04-26T19:32:58Z</time>
      </trkpt>
      <trkpt lat="59.8662991" lon="17.6814703">
        <ele>18.8831</ele>
        <time>2013-04-26T19:32:59Z</time>
      </trkpt>
      <trkpt lat="59.8663713" lon="17.6814316">
        <ele>18.8831</ele>
        <time>2013-04-26T19:33:00Z</time>
      </trkpt>
      <trkpt lat="59.8664429" lon="17.681394">
        <ele>18.8831</ele>
        <time>2013-04-26T19:33:01Z</time>
      </trkpt>
      <trkpt lat="59.8665139" lon="17.681359">
        <ele>18.8831</ele>
        <time>2013-04-26T19:33:02Z</time>
      </trkpt>
      <trkpt lat="59.8665849" lon="17.6813237">
        <ele>18.8831</ele>
        <time>2013-04-26T19:33:03Z</time>
      </trkpt>
      <trkpt lat="59.8666549" lon="17.6812917">
        <ele>18.4023</ele>
        <time>2013-04-26T19:33:04Z</time>
      </trkpt>
      <trkpt lat="59.8667249" lon="17.6812643">
        <ele>18.4023</ele>
        <time>2013-04-26T19:33:05Z</time>
      </trkpt>
      <trkpt lat="59.8667951" lon="17.6812341">
        <ele>18.4023</ele>
        <time>2013-04-26T19:33:06Z</time>
      </trkpt>
      <trkpt lat="59.8668644" lon="17.6812005">
        <ele>18.4023</ele>
        <time>2013-04-26T19:33:07Z</time>
      </trkpt>
      <trkpt lat="59.8669334" lon="17.6811686">
        <ele>18.4023</ele>
        <time>2013-04-26T19:33:08Z</time>
      </trkpt>
      <trkpt lat="59.867003" lon="17.6811393">
        <ele>18.4023</ele>
        <time>2013-04-26T19:33:09Z</time>
      </trkpt>
      <trkpt lat="59.8670723" lon="17.6811097">
        <ele>18.4023</ele>
        <time>2013-04-26T19:33:10Z</time>
      </trkpt>
      <trkpt lat="59.8671417" lon="17.6810788">
        <ele>18.4023</ele>
        <time>2013-04-26T19:33:11Z</time>
      </trkpt>
      <trkpt lat="59.86721" lon="17.6810483">
        <ele>18.4023</ele>
        <time>2013-04-26T19:33:12Z</time>
      </trkpt>
      <trkpt lat="59.8672775" lon="17.6810165">
        <ele>18.4023</ele>
        <time>2013-04-26T19:33:13Z</time>
      </trkpt>
      <trkpt lat="59.8673457" lon="17.6809839">
        <ele>18.4023</ele>
        <time>2013-04-26T19:33:14Z</time>
      </trkpt>
      <trkpt lat="59.8674137" lon="17.6809524">
        <ele>18.4023</ele>
        <time>2013-04-26T19:33:15Z</time>
      </trkpt>
      <trkpt lat="59.867482" lon="17.6809203">
        <ele>18.4023</ele>
        <time>2013-04-26T19:33:16Z</time>
      </trkpt>
      <trkpt lat="59.8675498" lon="17.6808896">
        <ele>18.4023</ele>
        <time>2013-04-26T19:33:17Z</time>
      </trkpt>
      <trkpt lat="59.8676174" lon="17.680861">
        <ele>18.4023</ele>
        <time>2013-04-26T19:33:18Z</time>
      </trkpt>
      <trkpt lat="59.8676836" lon="17.6808326">
        <ele>17.9218</ele>
        <time>2013-04-26T19:33:19Z</time>
      </trkpt>
      <trkpt lat="59.8677514" lon="17.6808045">
        <ele>17.9218</ele>
        <time>2013-04-26T19:33:20Z</time>
      </trkpt>
      <trkpt lat="59.8678202" lon="17.6807752">
        <ele>17.9218</ele>
        <time>2013-04-26T19:33:21Z</time>
      </trkpt>
      <trkpt lat="59.867888" lon="17.6807459">
        <ele>17.4412</ele>
        <time>2013-04-26T19:33:22Z</time>
      </trkpt>
      <trkpt lat="59.8679553" lon="17.6807171">
        <ele>17.4412</ele>
        <time>2013-04-26T19:33:23Z</time>
      </trkpt>
      <trkpt lat="59.8680234" lon="17.6806861">
        <ele>17.4412</ele>
        <time>2013-04-26T19:33:24Z</time>
      </trkpt>
      <trkpt lat="59.8680909" lon="17.680654">
        <ele>17.4412</ele>
        <time>2013-04-26T19:33:25Z</time>
      </trkpt>
      <trkpt lat="59.8681584" lon="17.6806225">
        <ele>17.4412</ele>
        <time>2013-04-26T19:33:26Z</time>
      </trkpt>
      <trkpt lat="59.8682252" lon="17.6805917">
        <ele>17.4412</ele>
        <time>2013-04-26T19:33:27Z</time>
      </trkpt>
      <trkpt lat="59.8682923" lon="17.6805608">
        <ele>17.9218</ele>
        <time>2013-04-26T19:33:28Z</time>
      </trkpt>
      <trkpt lat="59.8683601" lon="17.6805299">
        <ele>17.9218</ele>
        <time>2013-04-26T19:33:29Z</time>
      </trkpt>
      <trkpt lat="59.8684263" lon="17.6805011">
        <ele>17.4412</ele>
        <time>2013-04-26T19:33:30Z</time>
      </trkpt>
      <trkpt lat="59.8684933" lon="17.6804704">
        <ele>17.9218</ele>
        <time>2013-04-26T19:33:31Z</time>
      </trkpt>
      <trkpt lat="59.868561" lon="17.6804369">
        <ele>17.9218</ele>
        <time>2013-04-26T19:33:32Z</time>
      </trkpt>
      <trkpt lat="59.8686291" lon="17.6804052">
        <ele>17.9218</ele>
        <time>2013-04-26T19:33:33Z</time>
      </trkpt>
      <trkpt lat="59.8686978" lon="17.6803746">
        <ele>18.4023</ele>
        <time>2013-04-26T19:33:34Z</time>
      </trkpt>
      <trkpt lat="59.868766" lon="17.6803426">
        <ele>18.4023</ele>
        <time>2013-04-26T19:33:35Z</time>
      </trkpt>
      <trkpt lat="59.8688341" lon="17.6803118">
        <ele>18.4023</ele>
        <time>2013-04-26T19:33:36Z</time>
      </trkpt>
      <trkpt lat="59.8689023" lon="17.6802818">
        <ele>18.4023</ele>
        <time>2013-04-26T19:33:37Z</time>
      </trkpt>
      <trkpt lat="59.8689703" lon="17.6802505">
        <ele>18.8831</ele>
        <time>2013-04-26T19:33:38Z</time>
      </trkpt>
      <trkpt lat="59.8690386" lon="17.6802198">
        <ele>18.8831</ele>
        <time>2013-04-26T19:33:39Z</time>
      </trkpt>
      <trkpt lat="59.8691064" lon="17.6801891">
        <ele>18.8831</ele>
        <time>2013-04-26T19:33:40Z</time>
      </trkpt>
      <trkpt lat="59.869174" lon="17.6801567">
        <ele>19.3638</ele>
        <time>2013-04-26T19:33:41Z</time>
      </trkpt>
      <trkpt lat="59.8692417" lon="17.6801245">
        <ele>19.3638</ele>
        <time>2013-04-26T19:33:42Z</time>
      </trkpt>
      <trkpt lat="59.8693099" lon="17.6800935">
        <ele>19.3638</ele>
        <time>2013-04-26T19:33:43Z</time>
      </trkpt>
      <trkpt lat="59.869378" lon="17.6800624">
        <ele>19.3638</ele>
        <time>2013-04-26T19:33:44Z</time>
      </trkpt>
      <trkpt lat="59.8694462" lon="17.6800321">
        <ele>19.3638</ele>
        <time>2013-04-26T19:33:45Z</time>
      </trkpt>
      <trkpt lat="59.8695142" lon="17.6800033">
        <ele>19.8444</ele>
        <time>2013-04-26T19:33:46Z</time>
      </trkpt>
      <trkpt lat="59.8695821" lon="17.6799733">
        <ele>19.8444</ele>
        <time>2013-04-26T19:33:47Z</time>
      </trkpt>
      <trkpt lat="59.8696494" lon="17.6799417">
        <ele>19.8444</ele>
        <time>2013-04-26T19:33:48Z</time>
      </trkpt>
      <trkpt lat="59.8697167" lon="17.6799101">
        <ele>19.8444</ele>
        <time>2013-04-26T19:33:49Z</time>
      </trkpt>
      <trkpt lat="59.8697841" lon="17.679878">
        <ele>19.8444</ele>
        <time>2013-04-26T19:33:50Z</time>
      </trkpt>
      <trkpt lat="59.8698515" lon="17.6798458">
        <ele>19.8444</ele>
        <time>2013-04-26T19:33:51Z</time>
      </trkpt>
      <trkpt lat="59.8699192" lon="17.6798152">
        <ele>19.8444</ele>
        <time>2013-04-26T19:33:52Z</time>
      </trkpt>
      <trkpt lat="59.8699873" lon="17.6797867">
        <ele>19.8444</ele>
        <time>2013-04-26T19:33:53Z</time>
      </trkpt>
      <trkpt lat="59.8700561" lon="17.6797583">
        <ele>19.8444</ele>
        <time>2013-04-26T19:33:54Z</time>
      </trkpt>
      <trkpt lat="59.8701245" lon="17.6797294">
        <ele>19.8444</ele>
        <time>2013-04-26T19:33:55Z</time>
      </trkpt>
      <trkpt lat="59.8701931" lon="17.6797024">
        <ele>20.325</ele>
        <time>2013-04-26T19:33:56Z</time>
      </trkpt>
      <trkpt lat="59.8702615" lon="17.6796778">
        <ele>20.325</ele>
        <time>2013-04-26T19:33:57Z</time>
      </trkpt>
      <trkpt lat="59.8703296" lon="17.6796542">
        <ele>20.325</ele>
        <time>2013-04-26T19:33:58Z</time>
      </trkpt>
      <trkpt lat="59.8703975" lon="17.6796309">
        <ele>20.325</ele>
        <time>2013-04-26T19:33:59Z</time>
      </trkpt>
      <trkpt lat="59.8704658" lon="17.6796076">
        <ele>20.325</ele>
        <time>2013-04-26T19:34:00Z</time>
      </trkpt>
      <trkpt lat="59.8705342" lon="17.6795864">
        <ele>20.325</ele>
        <time>2013-04-26T19:34:01Z</time>
      </trkpt>
      <trkpt lat="59.8706035" lon="17.6795687">
        <ele>20.8057</ele>
        <time>2013-04-26T19:34:02Z</time>
      </trkpt>
      <trkpt lat="59.8706723" lon="17.6795485">
        <ele>20.8057</ele>
        <time>2013-04-26T19:34:03Z</time>
      </trkpt>
      <trkpt lat="59.8707408" lon="17.6795282">
        <ele>20.8057</ele>
        <time>2013-04-26T19:34:04Z</time>
      </trkpt>
      <trkpt lat="59.8708091" lon="17.6795092">
        <ele>20.8057</ele>
        <time>2013-04-26T19:34:05Z</time>
      </trkpt>
      <trkpt lat="59.8708775" lon="17.67949">
        <ele>20.8057</ele>
        <time>2013-04-26T19:34:06Z</time>
      </trkpt>
      <trkpt lat="59.870946" lon="17.6794711">
        <ele>21.2864</ele>
        <time>2013-04-26T19:34:07Z</time>
      </trkpt>
      <trkpt lat="59.8710149" lon="17.6794523">
        <ele>21.2864</ele>
        <time>2013-04-26T19:34:08Z</time>
      </trkpt>
      <trkpt lat="59.8710842" lon="17.679434">
        <ele>21.2864</ele>
        <time>2013-04-26T19:34:09Z</time>
      </trkpt>
      <trkpt lat="59.8711509" lon="17.6794145">
        <ele>20.8057</ele>
        <time>2013-04-26T19:34:10Z</time>
      </trkpt>
      <trkpt lat="59.8712178" lon="17.6793953">
        <ele>20.8057</ele>
        <time>2013-04-26T19:34:11Z</time>
      </trkpt>
      <trkpt lat="59.8712848" lon="17.6793755">
        <ele>20.325</ele>
        <time>2013-04-26T19:34:12Z</time>
      </trkpt>
      <trkpt lat="59.8713526" lon="17.6793562">
        <ele>20.325</ele>
        <time>2013-04-26T19:34:13Z</time>
      </trkpt>
      <trkpt lat="59.8714203" lon="17.679337">
        <ele>20.325</ele>
        <time>2013-04-26T19:34:14Z</time>
      </trkpt>
      <trkpt lat="59.871488" lon="17.6793169">
        <ele>19.8444</ele>
        <time>2013-04-26T19:34:15Z</time>
      </trkpt>
      <trkpt lat="59.8715562" lon="17.6792973">
        <ele>19.8444</ele>
        <time>2013-04-26T19:34:16Z</time>
      </trkpt>
      <trkpt lat="59.8716241" lon="17.6792789">
        <ele>19.8444</ele>
        <time>2013-04-26T19:34:17Z</time>
      </trkpt>
      <trkpt lat="59.8716919" lon="17.6792611">
        <ele>19.8444</ele>
        <time>2013-04-26T19:34:18Z</time>
      </trkpt>
      <trkpt lat="59.8717597" lon="17.6792428">
        <ele>19.8444</ele>
        <time>2013-04-26T19:34:19Z</time>
      </trkpt>
      <trkpt lat="59.8718272" lon="17.6792236">
        <ele>19.3638</ele>
        <time>2013-04-26T19:34:20Z</time>
      </trkpt>
      <trkpt lat="59.8718945" lon="17.6792034">
        <ele>19.3638</ele>
        <time>2013-04-26T19:34:21Z</time>
      </trkpt>
      <trkpt lat="59.8719606" lon="17.6791826">
        <ele>19.3638</ele>
        <time>2013-04-26T19:34:22Z</time>
      </trkpt>
      <trkpt lat="59.872026" lon="17.6791625">
        <ele>19.3638</ele>
        <time>2013-04-26T19:34:23Z</time>
      </trkpt>
      <trkpt lat="59.8720906" lon="17.6791433">
        <ele>19.3638</ele>
        <time>2013-04-26T19:34:24Z</time>
      </trkpt>
      <trkpt lat="59.8721545" lon="17.6791351">
        <ele>19.3638</ele>
        <time>2013-04-26T19:34:25Z</time>
      </trkpt>
      <trkpt lat="59.872216" lon="17.6791527">
        <ele>19.3638</ele>
        <time>2013-04-26T19:34:26Z</time>
      </trkpt>
      <trkpt lat="59.8722706" lon="17.6792122">
        <ele>19.3638</ele>
        <time>2013-04-26T19:34:27Z</time>
      </trkpt>
      <trkpt lat="59.8723089" lon="17.6793055">
        <ele>19.3638</ele>
        <time>2013-04-26T19:34:28Z</time>
      </trkpt>
      <trkpt lat="59.872332" lon="17.6794205">
        <ele>19.3638</ele>
        <time>2013-04-26T19:34:29Z</time>
      </trkpt>
      <trkpt lat="59.8723445" lon="17.6795439">
        <ele>19.3638</ele>
        <time>2013-04-26T19:34:30Z</time>
      </trkpt>
      <trkpt lat="59.8723524" lon="17.6796722">
        <ele>18.8831</ele>
        <time>2013-04-26T19:34:31Z</time>
      </trkpt>
      <trkpt lat="59.8723575" lon="17.6798033">
        <ele>18.8831</ele>
        <time>2013-04-26T19:34:32Z</time>
      </trkpt>
      <trkpt lat="59.8723611" lon="17.6799365">
        <ele>18.8831</ele>
        <time>2013-04-26T19:34:33Z</time>
      </trkpt>
      <trkpt lat="59.8723664" lon="17.6800712">
        <ele>18.4023</ele>
        <time>2013-04-26T19:34:34Z</time>
      </trkpt>
      <trkpt lat="59.8723743" lon="17.6802078">
        <ele>18.4023</ele>
        <time>2013-04-26T19:34:35Z</time>
      </trkpt>
      <trkpt lat="59.872384" lon="17.6803462">
        <ele>18.4023</ele>
        <time>2013-04-26T19:34:36Z</time>
      </trkpt>
      <trkpt lat="59.8723953" lon="17.6804869">
        <ele>18.8831</ele>
        <time>2013-04-26T19:34:37Z</time>
      </trkpt>
      <trkpt lat="59.8724069" lon="17.6806284">
        <ele>18.8831</ele>
        <time>2013-04-26T19:34:38Z</time>
      </trkpt>
      <trkpt lat="59.8724208" lon="17.6807699">
        <ele>19.3638</ele>
        <time>2013-04-26T19:34:39Z</time>
      </trkpt>
      <trkpt lat="59.8724357" lon="17.6809119">
        <ele>19.3638</ele>
        <time>2013-04-26T19:34:40Z</time>
      </trkpt>
      <trkpt lat="59.8724482" lon="17.6810549">
        <ele>19.3638</ele>
        <time>2013-04-26T19:34:41Z</time>
      </trkpt>
      <trkpt lat="59.8724607" lon="17.6811995">
        <ele>18.8831</ele>
        <time>2013-04-26T19:34:42Z</time>
      </trkpt>
      <trkpt lat="59.8724747" lon="17.681346">
        <ele>18.8831</ele>
        <time>2013-04-26T19:34:43Z</time>
      </trkpt>
      <trkpt lat="59.8724897" lon="17.6814935">
        <ele>18.8831</ele>
        <time>2013-04-26T19:34:44Z</time>
      </trkpt>
      <trkpt lat="59.8725056" lon="17.6816418">
        <ele>18.8831</ele>
        <time>2013-04-26T19:34:45Z</time>
      </trkpt>
      <trkpt lat="59.8725214" lon="17.6817914">
        <ele>18.8831</ele>
        <time>2013-04-26T19:34:46Z</time>
      </trkpt>
      <trkpt lat="59.8725374" lon="17.6819416">
        <ele>18.8831</ele>
        <time>2013-04-26T19:34:47Z</time>
      </trkpt>
      <trkpt lat="59.8725528" lon="17.6820925">
        <ele>18.8831</ele>
        <time>2013-04-26T19:34:48Z</time>
      </trkpt>
      <trkpt lat="59.8725684" lon="17.6822438">
        <ele>18.8831</ele>
        <time>2013-04-26T19:34:49Z</time>
      </trkpt>
      <trkpt lat="59.8725864" lon="17.6823939">
        <ele>18.8831</ele>
        <time>2013-04-26T19:34:50Z</time>
      </trkpt>
      <trkpt lat="59.8726062" lon="17.6825429">
        <ele>19.3638</ele>
        <time>2013-04-26T19:34:51Z</time>
      </trkpt>
      <trkpt lat="59.8726264" lon="17.6826906">
        <ele>19.3638</ele>
        <time>2013-04-26T19:34:52Z</time>
      </trkpt>
      <trkpt lat="59.8726457" lon="17.6828374">
        <ele>19.8444</ele>
        <time>2013-04-26T19:34:53Z</time>
      </trkpt>
      <trkpt lat="59.8726656" lon="17.682983">
        <ele>19.8444</ele>
        <time>2013-04-26T19:34:54Z</time>
      </trkpt>
      <trkpt lat="59.8726874" lon="17.6831262">
        <ele>19.8444</ele>
        <time>2013-04-26T19:34:55Z</time>
      </trkpt>
      <trkpt lat="59.8727114" lon="17.6832667">
        <ele>19.8444</ele>
        <time>2013-04-26T19:34:56Z</time>
      </trkpt>
      <trkpt lat="59.8727373" lon="17.6834051">
        <ele>19.8444</ele>
        <time>2013-04-26T19:34:57Z</time>
      </trkpt>
      <trkpt lat="59.872764" lon="17.6835422">
        <ele>19.8444</ele>
        <time>2013-04-26T19:34:58Z</time>
      </trkpt>
      <trkpt lat="59.8727916" lon="17.6836781">
        <ele>19.8444</ele>
        <time>2013-04-26T19:34:59Z</time>
      </trkpt>
      <trkpt lat="59.872821" lon="17.6838128">
        <ele>19.8444</ele>
        <time>2013-04-26T19:35:00Z</time>
      </trkpt>
      <trkpt lat="59.8728518" lon="17.6839454">
        <ele>20.325</ele>
        <time>2013-04-26T19:35:01Z</time>
      </trkpt>
      <trkpt lat="59.8728838" lon="17.6840749">
        <ele>20.325</ele>
        <time>2013-04-26T19:35:02Z</time>
      </trkpt>
      <trkpt lat="59.8729161" lon="17.6842037">
        <ele>20.325</ele>
        <time>2013-04-26T19:35:03Z</time>
      </trkpt>
      <trkpt lat="59.8729502" lon="17.6843322">
        <ele>20.325</ele>
        <time>2013-04-26T19:35:04Z</time>
      </trkpt>
      <trkpt lat="59.8729849" lon="17.6844597">
        <ele>20.8057</ele>
        <time>2013-04-26T19:35:05Z</time>
      </trkpt>
      <trkpt lat="59.8730176" lon="17.6845872">
        <ele>20.8057</ele>
        <time>2013-04-26T19:35:06Z</time>
      </trkpt>
      <trkpt lat="59.8730491" lon="17.6847163">
        <ele>21.2864</ele>
        <time>2013-04-26T19:35:07Z</time>
      </trkpt>
      <trkpt lat="59.8730805" lon="17.6848461">
        <ele>21.2864</ele>
        <time>2013-04-26T19:35:08Z</time>
      </trkpt>
      <trkpt lat="59.8731122" lon="17.6849737">
        <ele>21.2864</ele>
        <time>2013-04-26T19:35:09Z</time>
      </trkpt>
      <trkpt lat="59.8731439" lon="17.6851005">
        <ele>21.767</ele>
        <time>2013-04-26T19:35:10Z</time>
      </trkpt>
      <trkpt lat="59.8731765" lon="17.6852267">
        <ele>21.767</ele>
        <time>2013-04-26T19:35:11Z</time>
      </trkpt>
      <trkpt lat="59.8732088" lon="17.6853533">
        <ele>22.2476</ele>
        <time>2013-04-26T19:35:12Z</time>
      </trkpt>
      <trkpt lat="59.8732419" lon="17.68548">
        <ele>22.2476</ele>
        <time>2013-04-26T19:35:13Z</time>
      </trkpt>
      <trkpt lat="59.8732771" lon="17.6856023">
        <ele>22.2476</ele>
        <time>2013-04-26T19:35:14Z</time>
      </trkpt>
      <trkpt lat="59.8733143" lon="17.6857176">
        <ele>22.7283</ele>
        <time>2013-04-26T19:35:15Z</time>
      </trkpt>
      <trkpt lat="59.8733505" lon="17.6858273">
        <ele>22.7283</ele>
        <time>2013-04-26T19:35:16Z</time>
      </trkpt>
      <trkpt lat="59.8733853" lon="17.6859361">
        <ele>22.2476</ele>
        <time>2013-04-26T19:35:17Z</time>
      </trkpt>
      <trkpt lat="59.873419" lon="17.6860444">
        <ele>22.2476</ele>
        <time>2013-04-26T19:35:18Z</time>
      </trkpt>
      <trkpt lat="59.8734525" lon="17.6861522">
        <ele>22.2476</ele>
        <time>2013-04-26T19:35:19Z</time>
      </trkpt>
      <trkpt lat="59.8734847" lon="17.6862614">
        <ele>22.2476</ele>
        <time>2013-04-26T19:35:20Z</time>
      </trkpt>
      <trkpt lat="59.8735154" lon="17.6863733">
        <ele>21.767</ele>
        <time>2013-04-26T19:35:21Z</time>
      </trkpt>
      <trkpt lat="59.8735449" lon="17.6864879">
        <ele>21.767</ele>
        <time>2013-04-26T19:35:22Z</time>
      </trkpt>
      <trkpt lat="59.8735732" lon="17.6866048">
        <ele>21.767</ele>
        <time>2013-04-26T19:35:23Z</time>
      </trkpt>
      <trkpt lat="59.8736008" lon="17.686723">
        <ele>21.767</ele>
        <time>2013-04-26T19:35:24Z</time>
      </trkpt>
      <trkpt lat="59.8736288" lon="17.6868416">
        <ele>21.767</ele>
        <time>2013-04-26T19:35:25Z</time>
      </trkpt>
      <trkpt lat="59.8736578" lon="17.6869597">
        <ele>21.767</ele>
        <time>2013-04-26T19:35:26Z</time>
      </trkpt>
      <trkpt lat="59.8736868" lon="17.6870782">
        <ele>21.767</ele>
        <time>2013-04-26T19:35:27Z</time>
      </trkpt>
      <trkpt lat="59.8737153" lon="17.6871965">
        <ele>21.767</ele>
        <time>2013-04-26T19:35:28Z</time>
      </trkpt>
      <trkpt lat="59.873748" lon="17.6873099">
        <ele>21.767</ele>
        <time>2013-04-26T19:35:29Z</time>
      </trkpt>
      <trkpt lat="59.8737909" lon="17.6874035">
        <ele>21.767</ele>
        <time>2013-04-26T19:35:30Z</time>
      </trkpt>
      <trkpt lat="59.8738443" lon="17.6874637">
        <ele>21.767</ele>
        <time>2013-04-26T19:35:31Z</time>
      </trkpt>
      <trkpt lat="59.873904" lon="17.6874822">
        <ele>22.2476</ele>
        <time>2013-04-26T19:35:32Z</time>
      </trkpt>
      <trkpt lat="59.8739619" lon="17.6874568">
        <ele>22.2476</ele>
        <time>2013-04-26T19:35:33Z</time>
      </trkpt>
      <trkpt lat="59.8740142" lon="17.6873963">
        <ele>22.2476</ele>
        <time>2013-04-26T19:35:34Z</time>
      </trkpt>
      <trkpt lat="59.8740603" lon="17.687315">
        <ele>22.7283</ele>
        <time>2013-04-26T19:35:35Z</time>
      </trkpt>
      <trkpt lat="59.8741038" lon="17.6872268">
        <ele>22.7283</ele>
        <time>2013-04-26T19:35:36Z</time>
      </trkpt>
      <trkpt lat="59.8741468" lon="17.6871337">
        <ele>23.209</ele>
        <time>2013-04-26T19:35:37Z</time>
      </trkpt>
      <trkpt lat="59.8741892" lon="17.6870363">
        <ele>23.209</ele>
        <time>2013-04-26T19:35:38Z</time>
      </trkpt>
      <trkpt lat="59.8742313" lon="17.6869357">
        <ele>23.209</ele>
        <time>2013-04-26T19:35:39Z</time>
      </trkpt>
      <trkpt lat="59.8742741" lon="17.6868333">
        <ele>23.209</ele>
        <time>2013-04-26T19:35:40Z</time>
      </trkpt>
      <trkpt lat="59.8743176" lon="17.6867319">
        <ele>22.7283</ele>
        <time>2013-04-26T19:35:41Z</time>
      </trkpt>
      <trkpt lat="59.8743616" lon="17.6866332">
        <ele>22.7283</ele>
        <time>2013-04-26T19:35:42Z</time>
      </trkpt>
      <trkpt lat="59.8744044" lon="17.6865291">
        <ele>22.7283</ele>
        <time>2013-04-26T19:35:43Z</time>
      </trkpt>
      <trkpt lat="59.8744483" lon="17.6864255">
        <ele>22.7283</ele>
        <time>2013-04-26T19:35:44Z</time>
      </trkpt>
      <trkpt lat="59.874494" lon="17.6863218">
        <ele>23.209</ele>
        <time>2013-04-26T19:35:45Z</time>
      </trkpt>
      <trkpt lat="59.8745429" lon="17.6862215">
        <ele>23.209</ele>
        <time>2013-04-26T19:35:46Z</time>
      </trkpt>
      <trkpt lat="59.8745928" lon="17.6861211">
        <ele>23.209</ele>
        <time>2013-04-26T19:35:47Z</time>
      </trkpt>
      <trkpt lat="59.8746429" lon="17.6860158">
        <ele>23.6896</ele>
        <time>2013-04-26T19:35:48Z</time>
      </trkpt>
      <trkpt lat="59.8746917" lon="17.6859086">
        <ele>24.1703</ele>
        <time>2013-04-26T19:35:49Z</time>
      </trkpt>
      <trkpt lat="59.8747403" lon="17.685803">
        <ele>24.651</ele>
        <time>2013-04-26T19:35:50Z</time>
      </trkpt>
      <trkpt lat="59.874789" lon="17.6857003">
        <ele>24.651</ele>
        <time>2013-04-26T19:35:51Z</time>
      </trkpt>
      <trkpt lat="59.8748374" lon="17.6855993">
        <ele>25.1317</ele>
        <time>2013-04-26T19:35:52Z</time>
      </trkpt>
      <trkpt lat="59.8748848" lon="17.6854973">
        <ele>25.1317</ele>
        <time>2013-04-26T19:35:53Z</time>
      </trkpt>
      <trkpt lat="59.8749315" lon="17.6853954">
        <ele>25.1317</ele>
        <time>2013-04-26T19:35:54Z</time>
      </trkpt>
      <trkpt lat="59.8749777" lon="17.6852938">
        <ele>25.6123</ele>
        <time>2013-04-26T19:35:55Z</time>
      </trkpt>
      <trkpt lat="59.8750242" lon="17.6851927">
        <ele>25.6123</ele>
        <time>2013-04-26T19:35:56Z</time>
      </trkpt>
      <trkpt lat="59.8750712" lon="17.6850936">
        <ele>26.0929</ele>
        <time>2013-04-26T19:35:57Z</time>
      </trkpt>
      <trkpt lat="59.8751181" lon="17.6849942">
        <ele>26.0929</ele>
        <time>2013-04-26T19:35:58Z</time>
      </trkpt>
      <trkpt lat="59.8751645" lon="17.6848937">
        <ele>26.5736</ele>
        <time>2013-04-26T19:35:59Z</time>
      </trkpt>
      <trkpt lat="59.8752103" lon="17.6847934">
        <ele>26.5736</ele>
        <time>2013-04-26T19:36:00Z</time>
      </trkpt>
      <trkpt lat="59.875256" lon="17.6846944">
        <ele>27.0543</ele>
        <time>2013-04-26T19:36:01Z</time>
      </trkpt>
      <trkpt lat="59.8753016" lon="17.6845968">
        <ele>27.0543</ele>
        <time>2013-04-26T19:36:02Z</time>
      </trkpt>
      <trkpt lat="59.8753475" lon="17.6845008">
        <ele>27.5349</ele>
        <time>2013-04-26T19:36:03Z</time>
      </trkpt>
      <trkpt lat="59.8753921" lon="17.6844054">
        <ele>27.5349</ele>
        <time>2013-04-26T19:36:04Z</time>
      </trkpt>
      <trkpt lat="59.8754359" lon="17.6843109">
        <ele>28.0155</ele>
        <time>2013-04-26T19:36:05Z</time>
      </trkpt>
      <trkpt lat="59.8754795" lon="17.6842187">
        <ele>28.4962</ele>
        <time>2013-04-26T19:36:06Z</time>
      </trkpt>
      <trkpt lat="59.8755232" lon="17.6841287">
        <ele>28.4962</ele>
        <time>2013-04-26T19:36:07Z</time>
      </trkpt>
      <trkpt lat="59.8755665" lon="17.6840396">
        <ele>28.9769</ele>
        <time>2013-04-26T19:36:08Z</time>
      </trkpt>
      <trkpt lat="59.8756082" lon="17.6839496">
        <ele>28.9769</ele>
        <time>2013-04-26T19:36:09Z</time>
      </trkpt>
      <trkpt lat="59.87565" lon="17.6838599">
        <ele>28.9769</ele>
        <time>2013-04-26T19:36:10Z</time>
      </trkpt>
      <trkpt lat="59.8756925" lon="17.6837739">
        <ele>28.9769</ele>
        <time>2013-04-26T19:36:11Z</time>
      </trkpt>
      <trkpt lat="59.8757346" lon="17.6836883">
        <ele>28.9769</ele>
        <time>2013-04-26T19:36:12Z</time>
      </trkpt>
      <trkpt lat="59.875775" lon="17.6836013">
        <ele>29.4575</ele>
        <time>2013-04-26T19:36:13Z</time>
      </trkpt>
      <trkpt lat="59.8758164" lon="17.6835145">
        <ele>29.4575</ele>
        <time>2013-04-26T19:36:14Z</time>
      </trkpt>
      <trkpt lat="59.8758578" lon="17.6834278">
        <ele>29.9381</ele>
        <time>2013-04-26T19:36:15Z</time>
      </trkpt>
      <trkpt lat="59.8758985" lon="17.6833399">
        <ele>29.9381</ele>
        <time>2013-04-26T19:36:16Z</time>
      </trkpt>
      <trkpt lat="59.8759382" lon="17.6832541">
        <ele>29.9381</ele>
        <time>2013-04-26T19:36:17Z</time>
      </trkpt>
      <trkpt lat="59.8759774" lon="17.6831676">
        <ele>30.4188</ele>
        <time>2013-04-26T19:36:18Z</time>
      </trkpt>
      <trkpt lat="59.8760167" lon="17.6830808">
        <ele>30.4188</ele>
        <time>2013-04-26T19:36:19Z</time>
      </trkpt>
      <trkpt lat="59.876056" lon="17.6829947">
        <ele>30.4188</ele>
        <time>2013-04-26T19:36:20Z</time>
      </trkpt>
      <trkpt lat="59.8760953" lon="17.6829091">
        <ele>30.4188</ele>
        <time>2013-04-26T19:36:21Z</time>
      </trkpt>
      <trkpt lat="59.8761352" lon="17.6828239">
        <ele>30.4188</ele>
        <time>2013-04-26T19:36:22Z</time>
      </trkpt>
      <trkpt lat="59.8761739" lon="17.6827387">
        <ele>30.4188</ele>
        <time>2013-04-26T19:36:23Z</time>
      </trkpt>
      <trkpt lat="59.8762121" lon="17.6826527">
        <ele>30.4188</ele>
        <time>2013-04-26T19:36:24Z</time>
      </trkpt>
      <trkpt lat="59.8762502" lon="17.6825654">
        <ele>30.4188</ele>
        <time>2013-04-26T19:36:25Z</time>
      </trkpt>
      <trkpt lat="59.8762892" lon="17.6824784">
        <ele>30.8995</ele>
        <time>2013-04-26T19:36:26Z</time>
      </trkpt>
      <trkpt lat="59.8763297" lon="17.6823923">
        <ele>30.8995</ele>
        <time>2013-04-26T19:36:27Z</time>
      </trkpt>
      <trkpt lat="59.8763716" lon="17.6823049">
        <ele>30.4188</ele>
        <time>2013-04-26T19:36:28Z</time>
      </trkpt>
      <trkpt lat="59.8764144" lon="17.6822156">
        <ele>30.8995</ele>
        <time>2013-04-26T19:36:29Z</time>
      </trkpt>
      <trkpt lat="59.8764576" lon="17.6821228">
        <ele>30.8995</ele>
        <time>2013-04-26T19:36:30Z</time>
      </trkpt>
      <trkpt lat="59.8765007" lon="17.6820288">
        <ele>30.8995</ele>
        <time>2013-04-26T19:36:31Z</time>
      </trkpt>
      <trkpt lat="59.876544" lon="17.6819337">
        <ele>30.8995</ele>
        <time>2013-04-26T19:36:32Z</time>
      </trkpt>
      <trkpt lat="59.8765882" lon="17.68184">
        <ele>30.8995</ele>
        <time>2013-04-26T19:36:33Z</time>
      </trkpt>
      <trkpt lat="59.8766332" lon="17.6817483">
        <ele>30.8995</ele>
        <time>2013-04-26T19:36:34Z</time>
      </trkpt>
      <trkpt lat="59.8766773" lon="17.6816561">
        <ele>30.8995</ele>
        <time>2013-04-26T19:36:35Z</time>
      </trkpt>
      <trkpt lat="59.8767198" lon="17.6815615">
        <ele>30.8995</ele>
        <time>2013-04-26T19:36:36Z</time>
      </trkpt>
      <trkpt lat="59.876762" lon="17.6814665">
        <ele>30.8995</ele>
        <time>2013-04-26T19:36:37Z</time>
      </trkpt>
      <trkpt lat="59.8768048" lon="17.6813729">
        <ele>30.8995</ele>
        <time>2013-04-26T19:36:38Z</time>
      </trkpt>
      <trkpt lat="59.8768482" lon="17.6812797">
        <ele>30.8995</ele>
        <time>2013-04-26T19:36:39Z</time>
      </trkpt>
      <trkpt lat="59.8768916" lon="17.6811854">
        <ele>30.8995</ele>
        <time>2013-04-26T19:36:40Z</time>
      </trkpt>
      <trkpt lat="59.8769347" lon="17.6810902">
        <ele>30.8995</ele>
        <time>2013-04-26T19:36:41Z</time>
      </trkpt>
      <trkpt lat="59.876975" lon="17.6809922">
        <ele>30.8995</ele>
        <time>2013-04-26T19:36:42Z</time>
      </trkpt>
      <trkpt lat="59.8770119" lon="17.6808907">
        <ele>30.8995</ele>
        <time>2013-04-26T19:36:43Z</time>
      </trkpt>
      <trkpt lat="59.8770477" lon="17.6807928">
        <ele>30.8995</ele>
        <time>2013-04-26T19:36:44Z</time>
      </trkpt>
      <trkpt lat="59.877086" lon="17.6807032">
        <ele>30.8995</ele>
        <time>2013-04-26T19:36:45Z</time>
      </trkpt>
      <trkpt lat="59.8771252" lon="17.6806193">
        <ele>30.8995</ele>
        <time>2013-04-26T19:36:46Z</time>
      </trkpt>
      <trkpt lat="59.8771628" lon="17.6805382">
        <ele>30.4188</ele>
        <time>2013-04-26T19:36:47Z</time>
      </trkpt>
      <trkpt lat="59.8772009" lon="17.6804621">
        <ele>30.4188</ele>
        <time>2013-04-26T19:36:48Z</time>
      </trkpt>
      <trkpt lat="59.8772407" lon="17.6803932">
        <ele>30.4188</ele>
        <time>2013-04-26T19:36:49Z</time>
      </trkpt>
      <trkpt lat="59.8772797" lon="17.6803274">
        <ele>30.4188</ele>
        <time>2013-04-26T19:36:50Z</time>
      </trkpt>
      <trkpt lat="59.8773149" lon="17.6802587">
        <ele>30.4188</ele>
        <time>2013-04-26T19:36:51Z</time>
      </trkpt>
      <trkpt lat="59.877347" lon="17.6801863">
        <ele>30.4188</ele>
        <time>2013-04-26T19:36:52Z</time>
      </trkpt>
      <trkpt lat="59.8773729" lon="17.6801042">
        <ele>30.4188</ele>
        <time>2013-04-26T19:36:53Z</time>
      </trkpt>
      <trkpt lat="59.8773917" lon="17.6800128">
        <ele>30.4188</ele>
        <time>2013-04-26T19:36:54Z</time>
      </trkpt>
      <trkpt lat="59.8774087" lon="17.6799187">
        <ele>30.4188</ele>
        <time>2013-04-26T19:36:55Z</time>
      </trkpt>
      <trkpt lat="59.8774226" lon="17.6798254">
        <ele>30.8995</ele>
        <time>2013-04-26T19:36:56Z</time>
      </trkpt>
      <trkpt lat="59.8774306" lon="17.6797385">
        <ele>30.4188</ele>
        <time>2013-04-26T19:36:57Z</time>
      </trkpt>
      <trkpt lat="59.8774412" lon="17.6796548">
        <ele>30.4188</ele>
        <time>2013-04-26T19:36:58Z</time>
      </trkpt>
      <trkpt lat="59.8774604" lon="17.6795734">
        <ele>30.4188</ele>
        <time>2013-04-26T19:36:59Z</time>
      </trkpt>
      <trkpt lat="59.8774916" lon="17.6794935">
        <ele>29.9381</ele>
        <time>2013-04-26T19:37:00Z</time>
      </trkpt>
      <trkpt lat="59.87753" lon="17.6794131">
        <ele>29.9381</ele>
        <time>2013-04-26T19:37:01Z</time>
      </trkpt>
      <trkpt lat="59.8775707" lon="17.6793315">
        <ele>29.9381</ele>
        <time>2013-04-26T19:37:02Z</time>
      </trkpt>
      <trkpt lat="59.8776142" lon="17.6792507">
        <ele>29.4575</ele>
        <time>2013-04-26T19:37:03Z</time>
      </trkpt>
      <trkpt lat="59.877661" lon="17.6791727">
        <ele>29.4575</ele>
        <time>2013-04-26T19:37:04Z</time>
      </trkpt>
      <trkpt lat="59.8777115" lon="17.6790994">
        <ele>29.4575</ele>
        <time>2013-04-26T19:37:05Z</time>
      </trkpt>
      <trkpt lat="59.8777642" lon="17.67903">
        <ele>29.4575</ele>
        <time>2013-04-26T19:37:06Z</time>
      </trkpt>
      <trkpt lat="59.8778185" lon="17.6789673">
        <ele>29.4575</ele>
        <time>2013-04-26T19:37:07Z</time>
      </trkpt>
      <trkpt lat="59.8778727" lon="17.6789044">
        <ele>29.4575</ele>
        <time>2013-04-26T19:37:08Z</time>
      </trkpt>
      <trkpt lat="59.8779252" lon="17.6788304">
        <ele>28.9769</ele>
        <time>2013-04-26T19:37:09Z</time>
      </trkpt>
      <trkpt lat="59.8779769" lon="17.6787454">
        <ele>29.4575</ele>
        <time>2013-04-26T19:37:10Z</time>
      </trkpt>
      <trkpt lat="59.8780261" lon="17.6786507">
        <ele>29.4575</ele>
        <time>2013-04-26T19:37:11Z</time>
      </trkpt>
      <trkpt lat="59.8780728" lon="17.6785497">
        <ele>29.4575</ele>
        <time>2013-04-26T19:37:12Z</time>
      </trkpt>
      <trkpt lat="59.8781195" lon="17.6784449">
        <ele>29.4575</ele>
        <time>2013-04-26T19:37:13Z</time>
      </trkpt>
      <trkpt lat="59.8781671" lon="17.6783365">
        <ele>29.9381</ele>
        <time>2013-04-26T19:37:14Z</time>
      </trkpt>
      <trkpt lat="59.8782151" lon="17.6782228">
        <ele>29.4575</ele>
        <time>2013-04-26T19:37:15Z</time>
      </trkpt>
      <trkpt lat="59.8782625" lon="17.6781027">
        <ele>29.9381</ele>
        <time>2013-04-26T19:37:16Z</time>
      </trkpt>
      <trkpt lat="59.8783063" lon="17.677981">
        <ele>29.9381</ele>
        <time>2013-04-26T19:37:17Z</time>
      </trkpt>
      <trkpt lat="59.8783503" lon="17.6778653">
        <ele>29.9381</ele>
        <time>2013-04-26T19:37:18Z</time>
      </trkpt>
      <trkpt lat="59.8783951" lon="17.6777586">
        <ele>29.4575</ele>
        <time>2013-04-26T19:37:19Z</time>
      </trkpt>
      <trkpt lat="59.8784407" lon="17.6776521">
        <ele>29.4575</ele>
        <time>2013-04-26T19:37:20Z</time>
      </trkpt>
      <trkpt lat="59.8784875" lon="17.6775463">
        <ele>29.4575</ele>
        <time>2013-04-26T19:37:21Z</time>
      </trkpt>
      <trkpt lat="59.8785334" lon="17.6774402">
        <ele>28.9769</ele>
        <time>2013-04-26T19:37:22Z</time>
      </trkpt>
      <trkpt lat="59.8785803" lon="17.6773328">
        <ele>29.4575</ele>
        <time>2013-04-26T19:37:23Z</time>
      </trkpt>
      <trkpt lat="59.8786279" lon="17.6772273">
        <ele>29.4575</ele>
        <time>2013-04-26T19:37:24Z</time>
      </trkpt>
      <trkpt lat="59.8786752" lon="17.6771212">
        <ele>28.9769</ele>
        <time>2013-04-26T19:37:25Z</time>
      </trkpt>
      <trkpt lat="59.8787232" lon="17.6770139">
        <ele>29.4575</ele>
        <time>2013-04-26T19:37:26Z</time>
      </trkpt>
      <trkpt lat="59.8787717" lon="17.6769092">
        <ele>29.4575</ele>
        <time>2013-04-26T19:37:27Z</time>
      </trkpt>
      <trkpt lat="59.8788193" lon="17.676807">
        <ele>28.4962</ele>
        <time>2013-04-26T19:37:28Z</time>
      </trkpt>
      <trkpt lat="59.8788654" lon="17.6767114">
        <ele>27.5349</ele>
        <time>2013-04-26T19:37:29Z</time>
      </trkpt>
      <trkpt lat="59.878913" lon="17.676621">
        <ele>27.0543</ele>
        <time>2013-04-26T19:37:30Z</time>
      </trkpt>
      <trkpt lat="59.8789606" lon="17.6765387">
        <ele>26.5736</ele>
        <time>2013-04-26T19:37:31Z</time>
      </trkpt>
      <trkpt lat="59.8790076" lon="17.6764628">
        <ele>26.0929</ele>
        <time>2013-04-26T19:37:32Z</time>
      </trkpt>
      <trkpt lat="59.8790575" lon="17.676385">
        <ele>26.5736</ele>
        <time>2013-04-26T19:37:33Z</time>
      </trkpt>
      <trkpt lat="59.8791093" lon="17.6763079">
        <ele>26.5736</ele>
        <time>2013-04-26T19:37:34Z</time>
      </trkpt>
      <trkpt lat="59.8791618" lon="17.6762296">
        <ele>27.0543</ele>
        <time>2013-04-26T19:37:35Z</time>
      </trkpt>
      <trkpt lat="59.8792123" lon="17.6761472">
        <ele>26.5736</ele>
        <time>2013-04-26T19:37:36Z</time>
      </trkpt>
      <trkpt lat="59.8792596" lon="17.6760545">
        <ele>26.5736</ele>
        <time>2013-04-26T19:37:37Z</time>
      </trkpt>
      <trkpt lat="59.8793068" lon="17.6759603">
        <ele>26.0929</ele>
        <time>2013-04-26T19:37:38Z</time>
      </trkpt>
      <trkpt lat="59.8793575" lon="17.6758717">
        <ele>26.0929</ele>
        <time>2013-04-26T19:37:39Z</time>
      </trkpt>
      <trkpt lat="59.8794096" lon="17.6757868">
        <ele>25.6123</ele>
        <time>2013-04-26T19:37:40Z</time>
      </trkpt>
      <trkpt lat="59.8794624" lon="17.6757041">
        <ele>25.6123</ele>
        <time>2013-04-26T19:37:41Z</time>
      </trkpt>
      <trkpt lat="59.8795169" lon="17.6756216">
        <ele>25.6123</ele>
        <time>2013-04-26T19:37:42Z</time>
      </trkpt>
      <trkpt lat="59.8795704" lon="17.6755417">
        <ele>25.6123</ele>
        <time>2013-04-26T19:37:43Z</time>
      </trkpt>
      <trkpt lat="59.8796263" lon="17.6754609">
        <ele>25.1317</ele>
        <time>2013-04-26T19:37:44Z</time>
      </trkpt>
      <trkpt lat="59.8796837" lon="17.6753778">
        <ele>25.1317</ele>
        <time>2013-04-26T19:37:45Z</time>
      </trkpt>
      <trkpt lat="59.8797418" lon="17.6752906">
        <ele>25.1317</ele>
        <time>2013-04-26T19:37:46Z</time>
      </trkpt>
      <trkpt lat="59.8798001" lon="17.6752019">
        <ele>25.1317</ele>
        <time>2013-04-26T19:37:47Z</time>
      </trkpt>
      <trkpt lat="59.8798589" lon="17.6751137">
        <ele>24.651</ele>
        <time>2013-04-26T19:37:48Z</time>
      </trkpt>
      <trkpt lat="59.8799181" lon="17.6750269">
        <ele>24.651</ele>
        <time>2013-04-26T19:37:49Z</time>
      </trkpt>
      <trkpt lat="59.8799769" lon="17.6749418">
        <ele>24.651</ele>
        <time>2013-04-26T19:37:50Z</time>
      </trkpt>
      <trkpt lat="59.8800367" lon="17.67486">
        <ele>24.651</ele>
        <time>2013-04-26T19:37:51Z</time>
      </trkpt>
      <trkpt lat="59.8800991" lon="17.6747832">
        <ele>24.651</ele>
        <time>2013-04-26T19:37:52Z</time>
      </trkpt>
      <trkpt lat="59.8801634" lon="17.6747107">
        <ele>24.651</ele>
        <time>2013-04-26T19:37:53Z</time>
      </trkpt>
      <trkpt lat="59.8802297" lon="17.6746441">
        <ele>24.651</ele>
        <time>2013-04-26T19:37:54Z</time>
      </trkpt>
      <trkpt lat="59.8802966" lon="17.6745803">
        <ele>24.1703</ele>
        <time>2013-04-26T19:37:55Z</time>
      </trkpt>
      <trkpt lat="59.880364" lon="17.674516">
        <ele>24.1703</ele>
        <time>2013-04-26T19:37:56Z</time>
      </trkpt>
      <trkpt lat="59.8804321" lon="17.6744519">
        <ele>24.1703</ele>
        <time>2013-04-26T19:37:57Z</time>
      </trkpt>
      <trkpt lat="59.8805006" lon="17.6743855">
        <ele>24.1703</ele>
        <time>2013-04-26T19:37:58Z</time>
      </trkpt>
      <trkpt lat="59.8805694" lon="17.6743181">
        <ele>24.1703</ele>
        <time>2013-04-26T19:37:59Z</time>
      </trkpt>
      <trkpt lat="59.880639" lon="17.6742525">
        <ele>24.1703</ele>
        <time>2013-04-26T19:38:00Z</time>
      </trkpt>
      <trkpt lat="59.8807093" lon="17.6741872">
        <ele>24.1703</ele>
        <time>2013-04-26T19:38:01Z</time>
      </trkpt>
      <trkpt lat="59.8807799" lon="17.6741228">
        <ele>24.651</ele>
        <time>2013-04-26T19:38:02Z</time>
      </trkpt>
      <trkpt lat="59.8808499" lon="17.6740576">
        <ele>24.651</ele>
        <time>2013-04-26T19:38:03Z</time>
      </trkpt>
      <trkpt lat="59.8809203" lon="17.6739891">
        <ele>24.651</ele>
        <time>2013-04-26T19:38:04Z</time>
      </trkpt>
      <trkpt lat="59.8809916" lon="17.6739215">
        <ele>24.651</ele>
        <time>2013-04-26T19:38:05Z</time>
      </trkpt>
      <trkpt lat="59.8810633" lon="17.6738566">
        <ele>24.651</ele>
        <time>2013-04-26T19:38:06Z</time>
      </trkpt>
      <trkpt lat="59.8811346" lon="17.6737928">
        <ele>24.651</ele>
        <time>2013-04-26T19:38:07Z</time>
      </trkpt>
      <trkpt lat="59.8812046" lon="17.6737277">
        <ele>25.1317</ele>
        <time>2013-04-26T19:38:08Z</time>
      </trkpt>
      <trkpt lat="59.8812731" lon="17.6736613">
        <ele>25.1317</ele>
        <time>2013-04-26T19:38:09Z</time>
      </trkpt>
      <trkpt lat="59.8813368" lon="17.673585">
        <ele>25.1317</ele>
        <time>2013-04-26T19:38:10Z</time>
      </trkpt>
      <trkpt lat="59.8813943" lon="17.6735036">
        <ele>25.1317</ele>
        <time>2013-04-26T19:38:11Z</time>
      </trkpt>
      <trkpt lat="59.8814521" lon="17.6734339">
        <ele>25.1317</ele>
        <time>2013-04-26T19:38:12Z</time>
      </trkpt>
      <trkpt lat="59.8815146" lon="17.6733852">
        <ele>25.1317</ele>
        <time>2013-04-26T19:38:13Z</time>
      </trkpt>
      <trkpt lat="59.8815796" lon="17.6733552">
        <ele>25.1317</ele>
        <time>2013-04-26T19:38:14Z</time>
      </trkpt>
      <trkpt lat="59.8816455" lon="17.673326">
        <ele>25.1317</ele>
        <time>2013-04-26T19:38:15Z</time>
      </trkpt>
      <trkpt lat="59.8817107" lon="17.6732835">
        <ele>25.1317</ele>
        <time>2013-04-26T19:38:16Z</time>
      </trkpt>
      <trkpt lat="59.8817754" lon="17.6732319">
        <ele>25.6123</ele>
        <time>2013-04-26T19:38:17Z</time>
      </trkpt>
      <trkpt lat="59.8818406" lon="17.6731781">
        <ele>25.6123</ele>
        <time>2013-04-26T19:38:18Z</time>
      </trkpt>
      <trkpt lat="59.8819055" lon="17.6731243">
        <ele>25.6123</ele>
        <time>2013-04-26T19:38:19Z</time>
      </trkpt>
      <trkpt lat="59.8819682" lon="17.6730703">
        <ele>25.6123</ele>
        <time>2013-04-26T19:38:20Z</time>
      </trkpt>
      <trkpt lat="59.8820283" lon="17.6730126">
        <ele>25.6123</ele>
        <time>2013-04-26T19:38:21Z</time>
      </trkpt>
      <trkpt lat="59.8820832" lon="17.6729449">
        <ele>25.6123</ele>
        <time>2013-04-26T19:38:22Z</time>
      </trkpt>
      <trkpt lat="59.8821294" lon="17.6728637">
        <ele>25.6123</ele>
        <time>2013-04-26T19:38:23Z</time>
      </trkpt>
      <trkpt lat="59.8821665" lon="17.6727744">
        <ele>25.6123</ele>
        <time>2013-04-26T19:38:24Z</time>
      </trkpt>
      <trkpt lat="59.8821998" lon="17.6726881">
        <ele>25.6123</ele>
        <time>2013-04-26T19:38:25Z</time>
      </trkpt>
      <trkpt lat="59.8822345" lon="17.6726114">
        <ele>25.1317</ele>
        <time>2013-04-26T19:38:26Z</time>
      </trkpt>
      <trkpt lat="59.8822733" lon="17.6725413">
        <ele>25.1317</ele>
        <time>2013-04-26T19:38:27Z</time>
      </trkpt>
      <trkpt lat="59.8823206" lon="17.6724771">
        <ele>25.1317</ele>
        <time>2013-04-26T19:38:28Z</time>
      </trkpt>
      <trkpt lat="59.8823741" lon="17.6724226">
        <ele>25.1317</ele>
        <time>2013-04-26T19:38:29Z</time>
      </trkpt>
      <trkpt lat="59.8824316" lon="17.6723728">
        <ele>25.1317</ele>
        <time>2013-04-26T19:38:30Z</time>
      </trkpt>
      <trkpt lat="59.8824919" lon="17.6723233">
        <ele>25.1317</ele>
        <time>2013-04-26T19:38:31Z</time>
      </trkpt>
      <trkpt lat="59.8825542" lon="17.6722745">
        <ele>25.1317</ele>
        <time>2013-04-26T19:38:32Z</time>
      </trkpt>
      <trkpt lat="59.8826171" lon="17.6722234">
        <ele>25.1317</ele>
        <time>2013-04-26T19:38:33Z</time>
      </trkpt>
      <trkpt lat="59.8826798" lon="17.6721704">
        <ele>25.1317</ele>
        <time>2013-04-26T19:38:34Z</time>
      </trkpt>
      <trkpt lat="59.882743" lon="17.6721174">
        <ele>25.6123</ele>
        <time>2013-04-26T19:38:35Z</time>
      </trkpt>
      <trkpt lat="59.8828068" lon="17.6720627">
        <ele>25.6123</ele>
        <time>2013-04-26T19:38:36Z</time>
      </trkpt>
      <trkpt lat="59.8828711" lon="17.6720064">
        <ele>25.6123</ele>
        <time>2013-04-26T19:38:37Z</time>
      </trkpt>
      <trkpt lat="59.8829363" lon="17.6719498">
        <ele>25.6123</ele>
        <time>2013-04-26T19:38:38Z</time>
      </trkpt>
      <trkpt lat="59.8830017" lon="17.6718917">
        <ele>25.6123</ele>
        <time>2013-04-26T19:38:39Z</time>
      </trkpt>
      <trkpt lat="59.8830672" lon="17.6718305">
        <ele>25.6123</ele>
        <time>2013-04-26T19:38:40Z</time>
      </trkpt>
      <trkpt lat="59.8831322" lon="17.6717659">
        <ele>25.6123</ele>
        <time>2013-04-26T19:38:41Z</time>
      </trkpt>
      <trkpt lat="59.8831973" lon="17.6716984">
        <ele>25.6123</ele>
        <time>2013-04-26T19:38:42Z</time>
      </trkpt>
      <trkpt lat="59.8832628" lon="17.6716293">
        <ele>25.6123</ele>
        <time>2013-04-26T19:38:43Z</time>
      </trkpt>
      <trkpt lat="59.8833286" lon="17.671558">
        <ele>25.6123</ele>
        <time>2013-04-26T19:38:44Z</time>
      </trkpt>
      <trkpt lat="59.8833941" lon="17.6714834">
        <ele>25.6123</ele>
        <time>2013-04-26T19:38:45Z</time>
      </trkpt>
      <trkpt lat="59.8834591" lon="17.6714075">
        <ele>25.6123</ele>
        <time>2013-04-26T19:38:46Z</time>
      </trkpt>
      <trkpt lat="59.8835243" lon="17.6713324">
        <ele>25.6123</ele>
        <time>2013-04-26T19:38:47Z</time>
      </trkpt>
      <trkpt lat="59.8835909" lon="17.6712602">
        <ele>25.6123</ele>
        <time>2013-04-26T19:38:48Z</time>
      </trkpt>
      <trkpt lat="59.8836599" lon="17.6711965">
        <ele>25.6123</ele>
        <time>2013-04-26T19:38:49Z</time>
      </trkpt>
      <trkpt lat="59.8837321" lon="17.6711494">
        <ele>25.6123</ele>
        <time>2013-04-26T19:38:50Z</time>
      </trkpt>
      <trkpt lat="59.8838055" lon="17.6711189">
        <ele>25.6123</ele>
        <time>2013-04-26T19:38:51Z</time>
      </trkpt>
      <trkpt lat="59.8838761" lon="17.6710862">
        <ele>25.6123</ele>
        <time>2013-04-26T19:38:52Z</time>
      </trkpt>
      <trkpt lat="59.8839403" lon="17.6710304">
        <ele>25.6123</ele>
        <time>2013-04-26T19:38:53Z</time>
      </trkpt>
      <trkpt lat="59.8839942" lon="17.6709483">
        <ele>25.6123</ele>
        <time>2013-04-26T19:38:54Z</time>
      </trkpt>
      <trkpt lat="59.8840356" lon="17.6708453">
        <ele>25.6123</ele>
        <time>2013-04-26T19:38:55Z</time>
      </trkpt>
      <trkpt lat="59.8840667" lon="17.6707263">
        <ele>25.1317</ele>
        <time>2013-04-26T19:38:56Z</time>
      </trkpt>
      <trkpt lat="59.8840927" lon="17.6705988">
        <ele>25.1317</ele>
        <time>2013-04-26T19:38:57Z</time>
      </trkpt>
      <trkpt lat="59.8841206" lon="17.6704712">
        <ele>25.1317</ele>
        <time>2013-04-26T19:38:58Z</time>
      </trkpt>
      <trkpt lat="59.8841561" lon="17.6703518">
        <ele>25.1317</ele>
        <time>2013-04-26T19:38:59Z</time>
      </trkpt>
      <trkpt lat="59.884201" lon="17.6702435">
        <ele>25.1317</ele>
        <time>2013-04-26T19:39:00Z</time>
      </trkpt>
      <trkpt lat="59.8842504" lon="17.6701409">
        <ele>24.651</ele>
        <time>2013-04-26T19:39:01Z</time>
      </trkpt>
      <trkpt lat="59.8843017" lon="17.6700382">
        <ele>24.651</ele>
        <time>2013-04-26T19:39:02Z</time>
      </trkpt>
      <trkpt lat="59.8843522" lon="17.6699337">
        <ele>24.651</ele>
        <time>2013-04-26T19:39:03Z</time>
      </trkpt>
      <trkpt lat="59.8844014" lon="17.6698264">
        <ele>24.1703</ele>
        <time>2013-04-26T19:39:04Z</time>
      </trkpt>
      <trkpt lat="59.8844493" lon="17.6697156">
        <ele>24.1703</ele>
        <time>2013-04-26T19:39:05Z</time>
      </trkpt>
      <trkpt lat="59.884496" lon="17.6696018">
        <ele>24.1703</ele>
        <time>2013-04-26T19:39:06Z</time>
      </trkpt>
      <trkpt lat="59.8845417" lon="17.6694851">
        <ele>24.1703</ele>
        <time>2013-04-26T19:39:07Z</time>
      </trkpt>
      <trkpt lat="59.8845866" lon="17.6693669">
        <ele>23.6896</ele>
        <time>2013-04-26T19:39:08Z</time>
      </trkpt>
      <trkpt lat="59.8846308" lon="17.6692468">
        <ele>23.6896</ele>
        <time>2013-04-26T19:39:09Z</time>
      </trkpt>
      <trkpt lat="59.8846743" lon="17.6691254">
        <ele>23.209</ele>
        <time>2013-04-26T19:39:10Z</time>
      </trkpt>
      <trkpt lat="59.8847162" lon="17.6690006">
        <ele>23.209</ele>
        <time>2013-04-26T19:39:11Z</time>
      </trkpt>
      <trkpt lat="59.8847552" lon="17.6688728">
        <ele>23.209</ele>
        <time>2013-04-26T19:39:12Z</time>
      </trkpt>
      <trkpt lat="59.8847938" lon="17.6687414">
        <ele>23.209</ele>
        <time>2013-04-26T19:39:13Z</time>
      </trkpt>
      <trkpt lat="59.8848295" lon="17.6686062">
        <ele>22.7283</ele>
        <time>2013-04-26T19:39:14Z</time>
      </trkpt>
      <trkpt lat="59.8848634" lon="17.6684668">
        <ele>22.7283</ele>
        <time>2013-04-26T19:39:15Z</time>
      </trkpt>
      <trkpt lat="59.884899" lon="17.6683249">
        <ele>22.7283</ele>
        <time>2013-04-26T19:39:16Z</time>
      </trkpt>
      <trkpt lat="59.8849421" lon="17.6681868">
        <ele>22.7283</ele>
        <time>2013-04-26T19:39:17Z</time>
      </trkpt>
      <trkpt lat="59.8849946" lon="17.6680616">
        <ele>22.7283</ele>
        <time>2013-04-26T19:39:18Z</time>
      </trkpt>
      <trkpt lat="59.8850545" lon="17.6679503">
        <ele>22.7283</ele>
        <time>2013-04-26T19:39:19Z</time>
      </trkpt>
      <trkpt lat="59.8851099" lon="17.6678379">
        <ele>22.7283</ele>
        <time>2013-04-26T19:39:20Z</time>
      </trkpt>
      <trkpt lat="59.8851504" lon="17.6677081">
        <ele>22.7283</ele>
        <time>2013-04-26T19:39:21Z</time>
      </trkpt>
      <trkpt lat="59.8851707" lon="17.6675631">
        <ele>22.7283</ele>
        <time>2013-04-26T19:39:22Z</time>
      </trkpt>
      <trkpt lat="59.8851715" lon="17.66741">
        <ele>22.2476</ele>
        <time>2013-04-26T19:39:23Z</time>
      </trkpt>
      <trkpt lat="59.8851601" lon="17.6672551">
        <ele>22.2476</ele>
        <time>2013-04-26T19:39:24Z</time>
      </trkpt>
      <trkpt lat="59.88515" lon="17.667097">
        <ele>22.2476</ele>
        <time>2013-04-26T19:39:25Z</time>
      </trkpt>
      <trkpt lat="59.8851519" lon="17.6669351">
        <ele>22.2476</ele>
        <time>2013-04-26T19:39:26Z</time>
      </trkpt>
      <trkpt lat="59.8851623" lon="17.6667737">
        <ele>22.2476</ele>
        <time>2013-04-26T19:39:27Z</time>
      </trkpt>
      <trkpt lat="59.885175" lon="17.6666132">
        <ele>22.2476</ele>
        <time>2013-04-26T19:39:28Z</time>
      </trkpt>
      <trkpt lat="59.8851883" lon="17.6664527">
        <ele>22.2476</ele>
        <time>2013-04-26T19:39:29Z</time>
      </trkpt>
      <trkpt lat="59.8852023" lon="17.6662921">
        <ele>22.2476</ele>
        <time>2013-04-26T19:39:30Z</time>
      </trkpt>
      <trkpt lat="59.8852176" lon="17.6661319">
        <ele>22.2476</ele>
        <time>2013-04-26T19:39:31Z</time>
      </trkpt>
      <trkpt lat="59.8852342" lon="17.6659714">
        <ele>22.2476</ele>
        <time>2013-04-26T19:39:32Z</time>
      </trkpt>
      <trkpt lat="59.8852518" lon="17.6658108">
        <ele>22.2476</ele>
        <time>2013-04-26T19:39:33Z</time>
      </trkpt>
      <trkpt lat="59.8852721" lon="17.6656512">
        <ele>21.767</ele>
        <time>2013-04-26T19:39:34Z</time>
      </trkpt>
      <trkpt lat="59.8852971" lon="17.6654944">
        <ele>21.767</ele>
        <time>2013-04-26T19:39:35Z</time>
      </trkpt>
      <trkpt lat="59.8853291" lon="17.665346">
        <ele>21.767</ele>
        <time>2013-04-26T19:39:36Z</time>
      </trkpt>
      <trkpt lat="59.8853694" lon="17.665214">
        <ele>21.767</ele>
        <time>2013-04-26T19:39:37Z</time>
      </trkpt>
      <trkpt lat="59.8854151" lon="17.6651012">
        <ele>21.767</ele>
        <time>2013-04-26T19:39:38Z</time>
      </trkpt>
      <trkpt lat="59.8854643" lon="17.6650075">
        <ele>21.767</ele>
        <time>2013-04-26T19:39:39Z</time>
      </trkpt>
      <trkpt lat="59.8855217" lon="17.6649396">
        <ele>21.2864</ele>
        <time>2013-04-26T19:39:40Z</time>
      </trkpt>
      <trkpt lat="59.885589" lon="17.6649033">
        <ele>21.2864</ele>
        <time>2013-04-26T19:39:41Z</time>
      </trkpt>
      <trkpt lat="59.8856618" lon="17.6648933">
        <ele>21.2864</ele>
        <time>2013-04-26T19:39:42Z</time>
      </trkpt>
      <trkpt lat="59.885736" lon="17.6649027">
        <ele>21.2864</ele>
        <time>2013-04-26T19:39:43Z</time>
      </trkpt>
      <trkpt lat="59.8858102" lon="17.6649261">
        <ele>21.2864</ele>
        <time>2013-04-26T19:39:44Z</time>
      </trkpt>
      <trkpt lat="59.8858857" lon="17.6649462">
        <ele>21.2864</ele>
        <time>2013-04-26T19:39:45Z</time>
      </trkpt>
      <trkpt lat="59.8859626" lon="17.6649416">
        <ele>21.2864</ele>
        <time>2013-04-26T19:39:46Z</time>
      </trkpt>
      <trkpt lat="59.8860367" lon="17.6649033">
        <ele>21.2864</ele>
        <time>2013-04-26T19:39:47Z</time>
      </trkpt>
      <trkpt lat="59.8861056" lon="17.6648323">
        <ele>21.2864</ele>
        <time>2013-04-26T19:39:48Z</time>
      </trkpt>
      <trkpt lat="59.8861682" lon="17.6647344">
        <ele>21.2864</ele>
        <time>2013-04-26T19:39:49Z</time>
      </trkpt>
      <trkpt lat="59.886223" lon="17.6646149">
        <ele>21.2864</ele>
        <time>2013-04-26T19:39:50Z</time>
      </trkpt>
      <trkpt lat="59.8862712" lon="17.6644784">
        <ele>21.2864</ele>
        <time>2013-04-26T19:39:51Z</time>
      </trkpt>
      <trkpt lat="59.8863147" lon="17.6643341">
        <ele>21.2864</ele>
        <time>2013-04-26T19:39:52Z</time>
      </trkpt>
      <trkpt lat="59.8863578" lon="17.6641903">
        <ele>21.767</ele>
        <time>2013-04-26T19:39:53Z</time>
      </trkpt>
      <trkpt lat="59.8864024" lon="17.6640489">
        <ele>21.767</ele>
        <time>2013-04-26T19:39:54Z</time>
      </trkpt>
      <trkpt lat="59.8864491" lon="17.6639117">
        <ele>21.767</ele>
        <time>2013-04-26T19:39:55Z</time>
      </trkpt>
      <trkpt lat="59.8864986" lon="17.6637799">
        <ele>21.767</ele>
        <time>2013-04-26T19:39:56Z</time>
      </trkpt>
      <trkpt lat="59.8865506" lon="17.6636549">
        <ele>21.767</ele>
        <time>2013-04-26T19:39:57Z</time>
      </trkpt>
      <trkpt lat="59.8866043" lon="17.6635356">
        <ele>21.767</ele>
        <time>2013-04-26T19:39:58Z</time>
      </trkpt>
      <trkpt lat="59.8866588" lon="17.6634218">
        <ele>22.2476</ele>
        <time>2013-04-26T19:39:59Z</time>
      </trkpt>
      <trkpt lat="59.8867143" lon="17.6633136">
        <ele>22.2476</ele>
        <time>2013-04-26T19:40:00Z</time>
      </trkpt>
      <trkpt lat="59.8867684" lon="17.6632068">
        <ele>22.2476</ele>
        <time>2013-04-26T19:40:01Z</time>
      </trkpt>
      <trkpt lat="59.8868193" lon="17.6630958">
        <ele>22.2476</ele>
        <time>2013-04-26T19:40:02Z</time>
      </trkpt>
      <trkpt lat="59.8868684" lon="17.6629824">
        <ele>22.2476</ele>
        <time>2013-04-26T19:40:03Z</time>
      </trkpt>
      <trkpt lat="59.8869157" lon="17.6628665">
        <ele>22.2476</ele>
        <time>2013-04-26T19:40:04Z</time>
      </trkpt>
      <trkpt lat="59.8869592" lon="17.6627464">
        <ele>22.2476</ele>
        <time>2013-04-26T19:40:05Z</time>
      </trkpt>
      <trkpt lat="59.8869971" lon="17.662622">
        <ele>22.2476</ele>
        <time>2013-04-26T19:40:06Z</time>
      </trkpt>
      <trkpt lat="59.8870303" lon="17.6624942">
        <ele>22.2476</ele>
        <time>2013-04-26T19:40:07Z</time>
      </trkpt>
      <trkpt lat="59.8870603" lon="17.6623609">
        <ele>22.2476</ele>
        <time>2013-04-26T19:40:08Z</time>
      </trkpt>
      <trkpt lat="59.8870867" lon="17.662219">
        <ele>22.2476</ele>
        <time>2013-04-26T19:40:09Z</time>
      </trkpt>
      <trkpt lat="59.8871069" lon="17.6620698">
        <ele>22.2476</ele>
        <time>2013-04-26T19:40:10Z</time>
      </trkpt>
      <trkpt lat="59.8871202" lon="17.6619154">
        <ele>22.2476</ele>
        <time>2013-04-26T19:40:11Z</time>
      </trkpt>
      <trkpt lat="59.8871284" lon="17.661759">
        <ele>22.2476</ele>
        <time>2013-04-26T19:40:12Z</time>
      </trkpt>
      <trkpt lat="59.8871364" lon="17.6616027">
        <ele>22.2476</ele>
        <time>2013-04-26T19:40:13Z</time>
      </trkpt>
      <trkpt lat="59.8871546" lon="17.6614517">
        <ele>22.2476</ele>
        <time>2013-04-26T19:40:14Z</time>
      </trkpt>
      <trkpt lat="59.8871908" lon="17.661316">
        <ele>22.2476</ele>
        <time>2013-04-26T19:40:15Z</time>
      </trkpt>
      <trkpt lat="59.8872426" lon="17.661205">
        <ele>22.2476</ele>
        <time>2013-04-26T19:40:16Z</time>
      </trkpt>
      <trkpt lat="59.8873048" lon="17.661115">
        <ele>22.2476</ele>
        <time>2013-04-26T19:40:17Z</time>
      </trkpt>
      <trkpt lat="59.8873736" lon="17.6610395">
        <ele>22.2476</ele>
        <time>2013-04-26T19:40:18Z</time>
      </trkpt>
      <trkpt lat="59.8874444" lon="17.6609695">
        <ele>22.2476</ele>
        <time>2013-04-26T19:40:19Z</time>
      </trkpt>
      <trkpt lat="59.8875159" lon="17.6609013">
        <ele>21.767</ele>
        <time>2013-04-26T19:40:20Z</time>
      </trkpt>
      <trkpt lat="59.8875871" lon="17.6608317">
        <ele>21.767</ele>
        <time>2013-04-26T19:40:21Z</time>
      </trkpt>
      <trkpt lat="59.8876563" lon="17.6607534">
        <ele>21.767</ele>
        <time>2013-04-26T19:40:22Z</time>
      </trkpt>
      <trkpt lat="59.8877218" lon="17.6606622">
        <ele>21.767</ele>
        <time>2013-04-26T19:40:23Z</time>
      </trkpt>
      <trkpt lat="59.8877819" lon="17.6605586">
        <ele>21.767</ele>
        <time>2013-04-26T19:40:24Z</time>
      </trkpt>
      <trkpt lat="59.8878367" lon="17.6604451">
        <ele>21.2864</ele>
        <time>2013-04-26T19:40:25Z</time>
      </trkpt>
      <trkpt lat="59.8878863" lon="17.6603246">
        <ele>21.2864</ele>
        <time>2013-04-26T19:40:26Z</time>
      </trkpt>
      <trkpt lat="59.8879329" lon="17.6601991">
        <ele>21.2864</ele>
        <time>2013-04-26T19:40:27Z</time>
      </trkpt>
      <trkpt lat="59.8879786" lon="17.6600749">
        <ele>21.2864</ele>
        <time>2013-04-26T19:40:28Z</time>
      </trkpt>
      <trkpt lat="59.888023" lon="17.6599549">
        <ele>21.2864</ele>
        <time>2013-04-26T19:40:29Z</time>
      </trkpt>
      <trkpt lat="59.8880661" lon="17.6598389">
        <ele>21.2864</ele>
        <time>2013-04-26T19:40:30Z</time>
      </trkpt>
      <trkpt lat="59.8881086" lon="17.6597256">
        <ele>21.2864</ele>
        <time>2013-04-26T19:40:31Z</time>
      </trkpt>
      <trkpt lat="59.8881498" lon="17.6596119">
        <ele>21.2864</ele>
        <time>2013-04-26T19:40:32Z</time>
      </trkpt>
      <trkpt lat="59.8881902" lon="17.6594972">
        <ele>21.2864</ele>
        <time>2013-04-26T19:40:33Z</time>
      </trkpt>
      <trkpt lat="59.888231" lon="17.6593828">
        <ele>21.2864</ele>
        <time>2013-04-26T19:40:34Z</time>
      </trkpt>
      <trkpt lat="59.8882734" lon="17.6592703">
        <ele>21.2864</ele>
        <time>2013-04-26T19:40:35Z</time>
      </trkpt>
      <trkpt lat="59.888316" lon="17.6591585">
        <ele>21.767</ele>
        <time>2013-04-26T19:40:36Z</time>
      </trkpt>
      <trkpt lat="59.8883587" lon="17.6590471">
        <ele>21.767</ele>
        <time>2013-04-26T19:40:37Z</time>
      </trkpt>
      <trkpt lat="59.8884004" lon="17.6589334">
        <ele>21.767</ele>
        <time>2013-04-26T19:40:38Z</time>
      </trkpt>
      <trkpt lat="59.8884422" lon="17.6588198">
        <ele>21.767</ele>
        <time>2013-04-26T19:40:39Z</time>
      </trkpt>
      <trkpt lat="59.8884843" lon="17.6587064">
        <ele>21.767</ele>
        <time>2013-04-26T19:40:40Z</time>
      </trkpt>
      <trkpt lat="59.8885263" lon="17.6585918">
        <ele>21.767</ele>
        <time>2013-04-26T19:40:41Z</time>
      </trkpt>
      <trkpt lat="59.8885687" lon="17.6584779">
        <ele>22.2476</ele>
        <time>2013-04-26T19:40:42Z</time>
      </trkpt>
      <trkpt lat="59.8886111" lon="17.6583641">
        <ele>22.2476</ele>
        <time>2013-04-26T19:40:43Z</time>
      </trkpt>
      <trkpt lat="59.8886524" lon="17.658249">
        <ele>22.2476</ele>
        <time>2013-04-26T19:40:44Z</time>
      </trkpt>
      <trkpt lat="59.8886915" lon="17.658133">
        <ele>22.2476</ele>
        <time>2013-04-26T19:40:45Z</time>
      </trkpt>
      <trkpt lat="59.888732" lon="17.6580211">
        <ele>22.2476</ele>
        <time>2013-04-26T19:40:46Z</time>
      </trkpt>
      <trkpt lat="59.8887732" lon="17.6579096">
        <ele>21.767</ele>
        <time>2013-04-26T19:40:47Z</time>
      </trkpt>
      <trkpt lat="59.8888141" lon="17.6577946">
        <ele>21.767</ele>
        <time>2013-04-26T19:40:48Z</time>
      </trkpt>
      <trkpt lat="59.8888552" lon="17.6576791">
        <ele>21.767</ele>
        <time>2013-04-26T19:40:49Z</time>
      </trkpt>
      <trkpt lat="59.888896" lon="17.6575625">
        <ele>21.767</ele>
        <time>2013-04-26T19:40:50Z</time>
      </trkpt>
      <trkpt lat="59.8889359" lon="17.6574458">
        <ele>22.2476</ele>
        <time>2013-04-26T19:40:51Z</time>
      </trkpt>
      <trkpt lat="59.8889763" lon="17.6573305">
        <ele>22.2476</ele>
        <time>2013-04-26T19:40:52Z</time>
      </trkpt>
      <trkpt lat="59.8890173" lon="17.6572148">
        <ele>22.2476</ele>
        <time>2013-04-26T19:40:53Z</time>
      </trkpt>
      <trkpt lat="59.8890593" lon="17.657099">
        <ele>22.2476</ele>
        <time>2013-04-26T19:40:54Z</time>
      </trkpt>
      <trkpt lat="59.8891028" lon="17.6569841">
        <ele>22.2476</ele>
        <time>2013-04-26T19:40:55Z</time>
      </trkpt>
      <trkpt lat="59.8891457" lon="17.6568709">
        <ele>22.2476</ele>
        <time>2013-04-26T19:40:56Z</time>
      </trkpt>
      <trkpt lat="59.8891888" lon="17.6567569">
        <ele>22.7283</ele>
        <time>2013-04-26T19:40:57Z</time>
      </trkpt>
      <trkpt lat="59.8892307" lon="17.6566429">
        <ele>22.7283</ele>
        <time>2013-04-26T19:40:58Z</time>
      </trkpt>
      <trkpt lat="59.8892722" lon="17.6565293">
        <ele>22.7283</ele>
        <time>2013-04-26T19:40:59Z</time>
      </trkpt>
      <trkpt lat="59.8893139" lon="17.6564166">
        <ele>22.7283</ele>
        <time>2013-04-26T19:41:00Z</time>
      </trkpt>
      <trkpt lat="59.8893555" lon="17.6563039">
        <ele>22.7283</ele>
        <time>2013-04-26T19:41:01Z</time>
      </trkpt>
      <trkpt lat="59.8893968" lon="17.6561909">
        <ele>22.7283</ele>
        <time>2013-04-26T19:41:02Z</time>
      </trkpt>
      <trkpt lat="59.8894389" lon="17.6560775">
        <ele>22.7283</ele>
        <time>2013-04-26T19:41:03Z</time>
      </trkpt>
      <trkpt lat="59.8894807" lon="17.655964">
        <ele>22.7283</ele>
        <time>2013-04-26T19:41:04Z</time>
      </trkpt>
      <trkpt lat="59.8895218" lon="17.6558495">
        <ele>22.7283</ele>
        <time>2013-04-26T19:41:05Z</time>
      </trkpt>
      <trkpt lat="59.8895632" lon="17.6557316">
        <ele>22.7283</ele>
        <time>2013-04-26T19:41:06Z</time>
      </trkpt>
      <trkpt lat="59.8896021" lon="17.655617">
        <ele>22.7283</ele>
        <time>2013-04-26T19:41:07Z</time>
      </trkpt>
      <trkpt lat="59.889642" lon="17.6555046">
        <ele>22.2476</ele>
        <time>2013-04-26T19:41:08Z</time>
      </trkpt>
      <trkpt lat="59.8896819" lon="17.6553916">
        <ele>22.2476</ele>
        <time>2013-04-26T19:41:09Z</time>
      </trkpt>
      <trkpt lat="59.8897222" lon="17.6552771">
        <ele>22.2476</ele>
        <time>2013-04-26T19:41:10Z</time>
      </trkpt>
      <trkpt lat="59.8897631" lon="17.6551633">
        <ele>22.2476</ele>
        <time>2013-04-26T19:41:11Z</time>
      </trkpt>
      <trkpt lat="59.8898032" lon="17.6550512">
        <ele>22.2476</ele>
        <time>2013-04-26T19:41:12Z</time>
      </trkpt>
      <trkpt lat="59.8898429" lon="17.6549403">
        <ele>21.767</ele>
        <time>2013-04-26T19:41:13Z</time>
      </trkpt>
      <trkpt lat="59.8898837" lon="17.6548294">
        <ele>21.767</ele>
        <time>2013-04-26T19:41:14Z</time>
      </trkpt>
      <trkpt lat="59.8899233" lon="17.654718">
        <ele>21.767</ele>
        <time>2013-04-26T19:41:15Z</time>
      </trkpt>
      <trkpt lat="59.8899621" lon="17.6546062">
        <ele>21.767</ele>
        <time>2013-04-26T19:41:16Z</time>
      </trkpt>
      <trkpt lat="59.8900025" lon="17.6544944">
        <ele>21.767</ele>
        <time>2013-04-26T19:41:17Z</time>
      </trkpt>
      <trkpt lat="59.8900431" lon="17.6543836">
        <ele>21.767</ele>
        <time>2013-04-26T19:41:18Z</time>
      </trkpt>
      <trkpt lat="59.890084" lon="17.6542727">
        <ele>21.767</ele>
        <time>2013-04-26T19:41:19Z</time>
      </trkpt>
      <trkpt lat="59.8901248" lon="17.6541608">
        <ele>21.767</ele>
        <time>2013-04-26T19:41:20Z</time>
      </trkpt>
      <trkpt lat="59.8901652" lon="17.6540479">
        <ele>21.767</ele>
        <time>2013-04-26T19:41:21Z</time>
      </trkpt>
      <trkpt lat="59.8902055" lon="17.6539366">
        <ele>21.767</ele>
        <time>2013-04-26T19:41:22Z</time>
      </trkpt>
      <trkpt lat="59.890245" lon="17.6538252">
        <ele>21.767</ele>
        <time>2013-04-26T19:41:23Z</time>
      </trkpt>
      <trkpt lat="59.8902839" lon="17.6537157">
        <ele>21.767</ele>
        <time>2013-04-26T19:41:24Z</time>
      </trkpt>
      <trkpt lat="59.8903228" lon="17.6536074">
        <ele>21.767</ele>
        <time>2013-04-26T19:41:25Z</time>
      </trkpt>
      <trkpt lat="59.8903619" lon="17.6534983">
        <ele>21.767</ele>
        <time>2013-04-26T19:41:26Z</time>
      </trkpt>
      <trkpt lat="59.8904014" lon="17.65339">
        <ele>21.767</ele>
        <time>2013-04-26T19:41:27Z</time>
      </trkpt>
      <trkpt lat="59.8904412" lon="17.6532817">
        <ele>21.767</ele>
        <time>2013-04-26T19:41:28Z</time>
      </trkpt>
      <trkpt lat="59.8904795" lon="17.653174">
        <ele>21.767</ele>
        <time>2013-04-26T19:41:29Z</time>
      </trkpt>
      <trkpt lat="59.8905181" lon="17.6530661">
        <ele>22.2476</ele>
        <time>2013-04-26T19:41:30Z</time>
      </trkpt>
      <trkpt lat="59.8905582" lon="17.652958">
        <ele>22.2476</ele>
        <time>2013-04-26T19:41:31Z</time>
      </trkpt>
      <trkpt lat="59.8905999" lon="17.6528498">
        <ele>22.7283</ele>
        <time>2013-04-26T19:41:32Z</time>
      </trkpt>
      <trkpt lat="59.8906409" lon="17.6527415">
        <ele>22.7283</ele>
        <time>2013-04-26T19:41:33Z</time>
      </trkpt>
      <trkpt lat="59.8906791" lon="17.6526338">
        <ele>22.7283</ele>
        <time>2013-04-26T19:41:34Z</time>
      </trkpt>
      <trkpt lat="59.8907172" lon="17.6525263">
        <ele>22.7283</ele>
        <time>2013-04-26T19:41:35Z</time>
      </trkpt>
      <trkpt lat="59.8907568" lon="17.6524181">
        <ele>22.7283</ele>
        <time>2013-04-26T19:41:36Z</time>
      </trkpt>
      <trkpt lat="59.8907963" lon="17.6523084">
        <ele>23.209</ele>
        <time>2013-04-26T19:41:37Z</time>
      </trkpt>
      <trkpt lat="59.8908358" lon="17.6521987">
        <ele>23.209</ele>
        <time>2013-04-26T19:41:38Z</time>
      </trkpt>
      <trkpt lat="59.890876" lon="17.6520884">
        <ele>23.209</ele>
        <time>2013-04-26T19:41:39Z</time>
      </trkpt>
      <trkpt lat="59.8909159" lon="17.651979">
        <ele>23.209</ele>
        <time>2013-04-26T19:41:40Z</time>
      </trkpt>
      <trkpt lat="59.8909573" lon="17.6518672">
        <ele>23.6896</ele>
        <time>2013-04-26T19:41:41Z</time>
      </trkpt>
      <trkpt lat="59.8909952" lon="17.6517557">
        <ele>23.6896</ele>
        <time>2013-04-26T19:41:42Z</time>
      </trkpt>
      <trkpt lat="59.8910323" lon="17.6516423">
        <ele>23.6896</ele>
        <time>2013-04-26T19:41:43Z</time>
      </trkpt>
      <trkpt lat="59.8910707" lon="17.6515317">
        <ele>24.1703</ele>
        <time>2013-04-26T19:41:44Z</time>
      </trkpt>
      <trkpt lat="59.891112" lon="17.651424">
        <ele>24.1703</ele>
        <time>2013-04-26T19:41:45Z</time>
      </trkpt>
      <trkpt lat="59.8911541" lon="17.6513169">
        <ele>24.1703</ele>
        <time>2013-04-26T19:41:46Z</time>
      </trkpt>
      <trkpt lat="59.8911954" lon="17.6512092">
        <ele>24.651</ele>
        <time>2013-04-26T19:41:47Z</time>
      </trkpt>
      <trkpt lat="59.8912353" lon="17.6511004">
        <ele>24.651</ele>
        <time>2013-04-26T19:41:48Z</time>
      </trkpt>
      <trkpt lat="59.8912731" lon="17.6509896">
        <ele>24.651</ele>
        <time>2013-04-26T19:41:49Z</time>
      </trkpt>
      <trkpt lat="59.8913095" lon="17.6508767">
        <ele>25.1317</ele>
        <time>2013-04-26T19:41:50Z</time>
      </trkpt>
      <trkpt lat="59.8913464" lon="17.650762">
        <ele>25.1317</ele>
        <time>2013-04-26T19:41:51Z</time>
      </trkpt>
      <trkpt lat="59.8913836" lon="17.6506464">
        <ele>25.1317</ele>
        <time>2013-04-26T19:41:52Z</time>
      </trkpt>
      <trkpt lat="59.8914207" lon="17.6505302">
        <ele>25.6123</ele>
        <time>2013-04-26T19:41:53Z</time>
      </trkpt>
      <trkpt lat="59.8914602" lon="17.6504014">
        <ele>25.6123</ele>
        <time>2013-04-26T19:41:54Z</time>
      </trkpt>
      <trkpt lat="59.8914975" lon="17.6502809">
        <ele>26.0929</ele>
        <time>2013-04-26T19:41:55Z</time>
      </trkpt>
      <trkpt lat="59.8915327" lon="17.6501611">
        <ele>26.0929</ele>
        <time>2013-04-26T19:41:56Z</time>
      </trkpt>
      <trkpt lat="59.8915658" lon="17.6500389">
        <ele>26.0929</ele>
        <time>2013-04-26T19:41:57Z</time>
      </trkpt>
      <trkpt lat="59.8915984" lon="17.6499172">
        <ele>26.5736</ele>
        <time>2013-04-26T19:41:58Z</time>
      </trkpt>
      <trkpt lat="59.8916296" lon="17.6497945">
        <ele>26.5736</ele>
        <time>2013-04-26T19:41:59Z</time>
      </trkpt>
      <trkpt lat="59.8916587" lon="17.6496707">
        <ele>26.5736</ele>
        <time>2013-04-26T19:42:00Z</time>
      </trkpt>
      <trkpt lat="59.8916881" lon="17.6495484">
        <ele>26.5736</ele>
        <time>2013-04-26T19:42:01Z</time>
      </trkpt>
      <trkpt lat="59.8917166" lon="17.6494267">
        <ele>27.0543</ele>
        <time>2013-04-26T19:42:02Z</time>
      </trkpt>
      <trkpt lat="59.8917436" lon="17.6493048">
        <ele>27.0543</ele>
        <time>2013-04-26T19:42:03Z</time>
      </trkpt>
      <trkpt lat="59.8917695" lon="17.6491812">
        <ele>27.0543</ele>
        <time>2013-04-26T19:42:04Z</time>
      </trkpt>
      <trkpt lat="59.8917938" lon="17.6490575">
        <ele>27.5349</ele>
        <time>2013-04-26T19:42:05Z</time>
      </trkpt>
      <trkpt lat="59.8918166" lon="17.648932">
        <ele>27.5349</ele>
        <time>2013-04-26T19:42:06Z</time>
      </trkpt>
      <trkpt lat="59.8918384" lon="17.648806">
        <ele>27.5349</ele>
        <time>2013-04-26T19:42:07Z</time>
      </trkpt>
      <trkpt lat="59.8918607" lon="17.6486793">
        <ele>28.0155</ele>
        <time>2013-04-26T19:42:08Z</time>
      </trkpt>
      <trkpt lat="59.8918845" lon="17.6485525">
        <ele>28.0155</ele>
        <time>2013-04-26T19:42:09Z</time>
      </trkpt>
      <trkpt lat="59.8919079" lon="17.6484261">
        <ele>28.0155</ele>
        <time>2013-04-26T19:42:10Z</time>
      </trkpt>
      <trkpt lat="59.8919312" lon="17.6482979">
        <ele>28.0155</ele>
        <time>2013-04-26T19:42:11Z</time>
      </trkpt>
      <trkpt lat="59.8919544" lon="17.6481678">
        <ele>28.0155</ele>
        <time>2013-04-26T19:42:12Z</time>
      </trkpt>
      <trkpt lat="59.8919772" lon="17.6480357">
        <ele>28.0155</ele>
        <time>2013-04-26T19:42:13Z</time>
      </trkpt>
      <trkpt lat="59.8919985" lon="17.6479012">
        <ele>28.0155</ele>
        <time>2013-04-26T19:42:14Z</time>
      </trkpt>
      <trkpt lat="59.8920179" lon="17.6477638">
        <ele>28.0155</ele>
        <time>2013-04-26T19:42:15Z</time>
      </trkpt>
      <trkpt lat="59.8920358" lon="17.6476236">
        <ele>28.0155</ele>
        <time>2013-04-26T19:42:16Z</time>
      </trkpt>
      <trkpt lat="59.8920528" lon="17.6474827">
        <ele>28.0155</ele>
        <time>2013-04-26T19:42:17Z</time>
      </trkpt>
      <trkpt lat="59.8920711" lon="17.6473428">
        <ele>28.0155</ele>
        <time>2013-04-26T19:42:18Z</time>
      </trkpt>
      <trkpt lat="59.8920902" lon="17.6472077">
        <ele>27.5349</ele>
        <time>2013-04-26T19:42:19Z</time>
      </trkpt>
      <trkpt lat="59.8921097" lon="17.6470748">
        <ele>27.5349</ele>
        <time>2013-04-26T19:42:20Z</time>
      </trkpt>
      <trkpt lat="59.892128" lon="17.6469409">
        <ele>27.5349</ele>
        <time>2013-04-26T19:42:21Z</time>
      </trkpt>
      <trkpt lat="59.8921455" lon="17.6468055">
        <ele>27.5349</ele>
        <time>2013-04-26T19:42:22Z</time>
      </trkpt>
      <trkpt lat="59.8921617" lon="17.6466689">
        <ele>27.5349</ele>
        <time>2013-04-26T19:42:23Z</time>
      </trkpt>
      <trkpt lat="59.8921767" lon="17.6465311">
        <ele>27.5349</ele>
        <time>2013-04-26T19:42:24Z</time>
      </trkpt>
      <trkpt lat="59.892191" lon="17.6463923">
        <ele>27.5349</ele>
        <time>2013-04-26T19:42:25Z</time>
      </trkpt>
      <trkpt lat="59.8922053" lon="17.6462533">
        <ele>27.5349</ele>
        <time>2013-04-26T19:42:26Z</time>
      </trkpt>
      <trkpt lat="59.8922191" lon="17.6461134">
        <ele>27.5349</ele>
        <time>2013-04-26T19:42:27Z</time>
      </trkpt>
      <trkpt lat="59.8922336" lon="17.6459735">
        <ele>27.5349</ele>
        <time>2013-04-26T19:42:28Z</time>
      </trkpt>
      <trkpt lat="59.8922491" lon="17.6458341">
        <ele>27.5349</ele>
        <time>2013-04-26T19:42:29Z</time>
      </trkpt>
      <trkpt lat="59.8922637" lon="17.645695">
        <ele>27.5349</ele>
        <time>2013-04-26T19:42:30Z</time>
      </trkpt>
      <trkpt lat="59.8922773" lon="17.6455567">
        <ele>27.5349</ele>
        <time>2013-04-26T19:42:31Z</time>
      </trkpt>
      <trkpt lat="59.8922914" lon="17.6454194">
        <ele>27.5349</ele>
        <time>2013-04-26T19:42:32Z</time>
      </trkpt>
      <trkpt lat="59.8923056" lon="17.6452831">
        <ele>28.0155</ele>
        <time>2013-04-26T19:42:33Z</time>
      </trkpt>
      <trkpt lat="59.8923194" lon="17.6451475">
        <ele>28.0155</ele>
        <time>2013-04-26T19:42:34Z</time>
      </trkpt>
      <trkpt lat="59.8923339" lon="17.6450131">
        <ele>28.0155</ele>
        <time>2013-04-26T19:42:35Z</time>
      </trkpt>
      <trkpt lat="59.892349" lon="17.6448791">
        <ele>28.0155</ele>
        <time>2013-04-26T19:42:36Z</time>
      </trkpt>
      <trkpt lat="59.8923632" lon="17.644745">
        <ele>28.0155</ele>
        <time>2013-04-26T19:42:37Z</time>
      </trkpt>
      <trkpt lat="59.892377" lon="17.6446118">
        <ele>28.4962</ele>
        <time>2013-04-26T19:42:38Z</time>
      </trkpt>
      <trkpt lat="59.8923888" lon="17.6444793">
        <ele>28.4962</ele>
        <time>2013-04-26T19:42:39Z</time>
      </trkpt>
      <trkpt lat="59.8924015" lon="17.6443465">
        <ele>28.9769</ele>
        <time>2013-04-26T19:42:40Z</time>
      </trkpt>
      <trkpt lat="59.8924153" lon="17.6442133">
        <ele>28.9769</ele>
        <time>2013-04-26T19:42:41Z</time>
      </trkpt>
      <trkpt lat="59.8924292" lon="17.6440781">
        <ele>28.9769</ele>
        <time>2013-04-26T19:42:42Z</time>
      </trkpt>
      <trkpt lat="59.8924441" lon="17.6439415">
        <ele>28.9769</ele>
        <time>2013-04-26T19:42:43Z</time>
      </trkpt>
      <trkpt lat="59.8924583" lon="17.6438043">
        <ele>28.9769</ele>
        <time>2013-04-26T19:42:44Z</time>
      </trkpt>
      <trkpt lat="59.8924717" lon="17.6436668">
        <ele>28.9769</ele>
        <time>2013-04-26T19:42:45Z</time>
      </trkpt>
      <trkpt lat="59.892485" lon="17.643529">
        <ele>28.9769</ele>
        <time>2013-04-26T19:42:46Z</time>
      </trkpt>
      <trkpt lat="59.8925004" lon="17.64339">
        <ele>28.9769</ele>
        <time>2013-04-26T19:42:47Z</time>
      </trkpt>
      <trkpt lat="59.8925173" lon="17.6432498">
        <ele>28.4962</ele>
        <time>2013-04-26T19:42:48Z</time>
      </trkpt>
      <trkpt lat="59.892533" lon="17.6431085">
        <ele>28.4962</ele>
        <time>2013-04-26T19:42:49Z</time>
      </trkpt>
      <trkpt lat="59.8925481" lon="17.6429661">
        <ele>28.4962</ele>
        <time>2013-04-26T19:42:50Z</time>
      </trkpt>
      <trkpt lat="59.8925627" lon="17.642822">
        <ele>28.4962</ele>
        <time>2013-04-26T19:42:51Z</time>
      </trkpt>
      <trkpt lat="59.8925769" lon="17.642676">
        <ele>28.4962</ele>
        <time>2013-04-26T19:42:52Z</time>
      </trkpt>
      <trkpt lat="59.8925915" lon="17.6425293">
        <ele>28.0155</ele>
        <time>2013-04-26T19:42:53Z</time>
      </trkpt>
      <trkpt lat="59.8926052" lon="17.6423807">
        <ele>28.0155</ele>
        <time>2013-04-26T19:42:54Z</time>
      </trkpt>
      <trkpt lat="59.8926164" lon="17.64223">
        <ele>28.0155</ele>
        <time>2013-04-26T19:42:55Z</time>
      </trkpt>
      <trkpt lat="59.8926253" lon="17.6420783">
        <ele>27.5349</ele>
        <time>2013-04-26T19:42:56Z</time>
      </trkpt>
      <trkpt lat="59.8926339" lon="17.641926">
        <ele>27.5349</ele>
        <time>2013-04-26T19:42:57Z</time>
      </trkpt>
      <trkpt lat="59.8926424" lon="17.6417724">
        <ele>27.5349</ele>
        <time>2013-04-26T19:42:58Z</time>
      </trkpt>
      <trkpt lat="59.8926505" lon="17.6416188">
        <ele>27.5349</ele>
        <time>2013-04-26T19:42:59Z</time>
      </trkpt>
      <trkpt lat="59.8926585" lon="17.6414669">
        <ele>27.5349</ele>
        <time>2013-04-26T19:43:00Z</time>
      </trkpt>
      <trkpt lat="59.892665" lon="17.641315">
        <ele>27.5349</ele>
        <time>2013-04-26T19:43:01Z</time>
      </trkpt>
      <trkpt lat="59.8926713" lon="17.6411635">
        <ele>27.5349</ele>
        <time>2013-04-26T19:43:02Z</time>
      </trkpt>
      <trkpt lat="59.8926794" lon="17.6410127">
        <ele>28.0155</ele>
        <time>2013-04-26T19:43:03Z</time>
      </trkpt>
      <trkpt lat="59.8926884" lon="17.6408626">
        <ele>28.0155</ele>
        <time>2013-04-26T19:43:04Z</time>
      </trkpt>
      <trkpt lat="59.8926962" lon="17.6407129">
        <ele>28.0155</ele>
        <time>2013-04-26T19:43:05Z</time>
      </trkpt>
      <trkpt lat="59.8927035" lon="17.6405645">
        <ele>28.0155</ele>
        <time>2013-04-26T19:43:06Z</time>
      </trkpt>
      <trkpt lat="59.89271" lon="17.6404159">
        <ele>28.0155</ele>
        <time>2013-04-26T19:43:07Z</time>
      </trkpt>
      <trkpt lat="59.8927144" lon="17.6402667">
        <ele>28.0155</ele>
        <time>2013-04-26T19:43:08Z</time>
      </trkpt>
      <trkpt lat="59.8927173" lon="17.6401191">
        <ele>28.0155</ele>
        <time>2013-04-26T19:43:09Z</time>
      </trkpt>
      <trkpt lat="59.8927194" lon="17.6399718">
        <ele>28.0155</ele>
        <time>2013-04-26T19:43:10Z</time>
      </trkpt>
      <trkpt lat="59.8927216" lon="17.6398238">
        <ele>28.0155</ele>
        <time>2013-04-26T19:43:11Z</time>
      </trkpt>
      <trkpt lat="59.892724" lon="17.6396773">
        <ele>28.0155</ele>
        <time>2013-04-26T19:43:12Z</time>
      </trkpt>
      <trkpt lat="59.8927262" lon="17.6395333">
        <ele>27.5349</ele>
        <time>2013-04-26T19:43:13Z</time>
      </trkpt>
      <trkpt lat="59.8927276" lon="17.6393916">
        <ele>27.5349</ele>
        <time>2013-04-26T19:43:14Z</time>
      </trkpt>
      <trkpt lat="59.8927289" lon="17.6392523">
        <ele>27.5349</ele>
        <time>2013-04-26T19:43:15Z</time>
      </trkpt>
      <trkpt lat="59.8927304" lon="17.6391148">
        <ele>27.0543</ele>
        <time>2013-04-26T19:43:16Z</time>
      </trkpt>
      <trkpt lat="59.8927298" lon="17.6389785">
        <ele>27.0543</ele>
        <time>2013-04-26T19:43:17Z</time>
      </trkpt>
      <trkpt lat="59.8927288" lon="17.6388462">
        <ele>27.0543</ele>
        <time>2013-04-26T19:43:18Z</time>
      </trkpt>
      <trkpt lat="59.8927299" lon="17.6387194">
        <ele>27.0543</ele>
        <time>2013-04-26T19:43:19Z</time>
      </trkpt>
      <trkpt lat="59.8927351" lon="17.6385941">
        <ele>27.0543</ele>
        <time>2013-04-26T19:43:20Z</time>
      </trkpt>
      <trkpt lat="59.8927527" lon="17.6384753">
        <ele>27.0543</ele>
        <time>2013-04-26T19:43:21Z</time>
      </trkpt>
      <trkpt lat="59.8927889" lon="17.6383805">
        <ele>27.0543</ele>
        <time>2013-04-26T19:43:22Z</time>
      </trkpt>
      <trkpt lat="59.8928396" lon="17.6383184">
        <ele>27.0543</ele>
        <time>2013-04-26T19:43:23Z</time>
      </trkpt>
      <trkpt lat="59.8928972" lon="17.6382739">
        <ele>27.0543</ele>
        <time>2013-04-26T19:43:24Z</time>
      </trkpt>
      <trkpt lat="59.8929594" lon="17.6382382">
        <ele>27.5349</ele>
        <time>2013-04-26T19:43:25Z</time>
      </trkpt>
      <trkpt lat="59.8930253" lon="17.6382061">
        <ele>28.0155</ele>
        <time>2013-04-26T19:43:26Z</time>
      </trkpt>
      <trkpt lat="59.893094" lon="17.6381715">
        <ele>28.4962</ele>
        <time>2013-04-26T19:43:27Z</time>
      </trkpt>
      <trkpt lat="59.8931633" lon="17.6381311">
        <ele>28.4962</ele>
        <time>2013-04-26T19:43:28Z</time>
      </trkpt>
      <trkpt lat="59.8932313" lon="17.6380869">
        <ele>28.9769</ele>
        <time>2013-04-26T19:43:29Z</time>
      </trkpt>
      <trkpt lat="59.8933011" lon="17.6380445">
        <ele>28.9769</ele>
        <time>2013-04-26T19:43:30Z</time>
      </trkpt>
      <trkpt lat="59.8933718" lon="17.6380041">
        <ele>28.9769</ele>
        <time>2013-04-26T19:43:31Z</time>
      </trkpt>
      <trkpt lat="59.8934422" lon="17.6379617">
        <ele>28.9769</ele>
        <time>2013-04-26T19:43:32Z</time>
      </trkpt>
      <trkpt lat="59.8935125" lon="17.6379154">
        <ele>28.9769</ele>
        <time>2013-04-26T19:43:33Z</time>
      </trkpt>
      <trkpt lat="59.8935836" lon="17.6378663">
        <ele>28.9769</ele>
        <time>2013-04-26T19:43:34Z</time>
      </trkpt>
      <trkpt lat="59.893656" lon="17.6378143">
        <ele>28.9769</ele>
        <time>2013-04-26T19:43:35Z</time>
      </trkpt>
      <trkpt lat="59.8937285" lon="17.6377617">
        <ele>28.9769</ele>
        <time>2013-04-26T19:43:36Z</time>
      </trkpt>
      <trkpt lat="59.8938001" lon="17.63771">
        <ele>28.9769</ele>
        <time>2013-04-26T19:43:37Z</time>
      </trkpt>
      <trkpt lat="59.893871" lon="17.63766">
        <ele>28.9769</ele>
        <time>2013-04-26T19:43:38Z</time>
      </trkpt>
      <trkpt lat="59.8939404" lon="17.6376092">
        <ele>28.4962</ele>
        <time>2013-04-26T19:43:39Z</time>
      </trkpt>
      <trkpt lat="59.8940093" lon="17.637557">
        <ele>28.4962</ele>
        <time>2013-04-26T19:43:40Z</time>
      </trkpt>
      <trkpt lat="59.8940782" lon="17.6375077">
        <ele>28.4962</ele>
        <time>2013-04-26T19:43:41Z</time>
      </trkpt>
      <trkpt lat="59.8941461" lon="17.6374596">
        <ele>28.4962</ele>
        <time>2013-04-26T19:43:42Z</time>
      </trkpt>
      <trkpt lat="59.8942146" lon="17.637412">
        <ele>28.4962</ele>
        <time>2013-04-26T19:43:43Z</time>
      </trkpt>
      <trkpt lat="59.8942843" lon="17.637367">
        <ele>28.9769</ele>
        <time>2013-04-26T19:43:44Z</time>
      </trkpt>
      <trkpt lat="59.8943549" lon="17.6373239">
        <ele>28.9769</ele>
        <time>2013-04-26T19:43:45Z</time>
      </trkpt>
      <trkpt lat="59.8944259" lon="17.6372794">
        <ele>28.9769</ele>
        <time>2013-04-26T19:43:46Z</time>
      </trkpt>
      <trkpt lat="59.8944972" lon="17.6372338">
        <ele>28.9769</ele>
        <time>2013-04-26T19:43:47Z</time>
      </trkpt>
      <trkpt lat="59.8945683" lon="17.6371893">
        <ele>28.9769</ele>
        <time>2013-04-26T19:43:48Z</time>
      </trkpt>
      <trkpt lat="59.8946406" lon="17.6371483">
        <ele>28.9769</ele>
        <time>2013-04-26T19:43:49Z</time>
      </trkpt>
      <trkpt lat="59.8947132" lon="17.6371103">
        <ele>28.9769</ele>
        <time>2013-04-26T19:43:50Z</time>
      </trkpt>
      <trkpt lat="59.8947848" lon="17.6370727">
        <ele>28.9769</ele>
        <time>2013-04-26T19:43:51Z</time>
      </trkpt>
      <trkpt lat="59.8948553" lon="17.63703">
        <ele>28.9769</ele>
        <time>2013-04-26T19:43:52Z</time>
      </trkpt>
      <trkpt lat="59.8949252" lon="17.636981">
        <ele>29.4575</ele>
        <time>2013-04-26T19:43:53Z</time>
      </trkpt>
      <trkpt lat="59.8949953" lon="17.6369334">
        <ele>29.4575</ele>
        <time>2013-04-26T19:43:54Z</time>
      </trkpt>
      <trkpt lat="59.8950655" lon="17.6368874">
        <ele>29.4575</ele>
        <time>2013-04-26T19:43:55Z</time>
      </trkpt>
      <trkpt lat="59.8951351" lon="17.6368423">
        <ele>29.4575</ele>
        <time>2013-04-26T19:43:56Z</time>
      </trkpt>
      <trkpt lat="59.8952043" lon="17.6367987">
        <ele>29.4575</ele>
        <time>2013-04-26T19:43:57Z</time>
      </trkpt>
      <trkpt lat="59.8952723" lon="17.6367535">
        <ele>29.9381</ele>
        <time>2013-04-26T19:43:58Z</time>
      </trkpt>
      <trkpt lat="59.8953394" lon="17.6367076">
        <ele>29.9381</ele>
        <time>2013-04-26T19:43:59Z</time>
      </trkpt>
      <trkpt lat="59.8954059" lon="17.636662">
        <ele>29.9381</ele>
        <time>2013-04-26T19:44:00Z</time>
      </trkpt>
      <trkpt lat="59.8954725" lon="17.6366182">
        <ele>30.4188</ele>
        <time>2013-04-26T19:44:01Z</time>
      </trkpt>
      <trkpt lat="59.8955385" lon="17.636578">
        <ele>30.4188</ele>
        <time>2013-04-26T19:44:02Z</time>
      </trkpt>
      <trkpt lat="59.8956058" lon="17.6365445">
        <ele>30.4188</ele>
        <time>2013-04-26T19:44:03Z</time>
      </trkpt>
      <trkpt lat="59.8956742" lon="17.6365179">
        <ele>30.8995</ele>
        <time>2013-04-26T19:44:04Z</time>
      </trkpt>
      <trkpt lat="59.895743" lon="17.6364984">
        <ele>30.8995</ele>
        <time>2013-04-26T19:44:05Z</time>
      </trkpt>
      <trkpt lat="59.8958114" lon="17.6364848">
        <ele>31.3801</ele>
        <time>2013-04-26T19:44:06Z</time>
      </trkpt>
      <trkpt lat="59.8958799" lon="17.6364774">
        <ele>31.3801</ele>
        <time>2013-04-26T19:44:07Z</time>
      </trkpt>
      <trkpt lat="59.8959479" lon="17.6364768">
        <ele>31.3801</ele>
        <time>2013-04-26T19:44:08Z</time>
      </trkpt>
      <trkpt lat="59.8960145" lon="17.6364822">
        <ele>31.3801</ele>
        <time>2013-04-26T19:44:09Z</time>
      </trkpt>
      <trkpt lat="59.8960799" lon="17.6364941">
        <ele>31.3801</ele>
        <time>2013-04-26T19:44:10Z</time>
      </trkpt>
      <trkpt lat="59.8961455" lon="17.6365136">
        <ele>31.3801</ele>
        <time>2013-04-26T19:44:11Z</time>
      </trkpt>
      <trkpt lat="59.8962119" lon="17.6365374">
        <ele>31.3801</ele>
        <time>2013-04-26T19:44:12Z</time>
      </trkpt>
      <trkpt lat="59.8962765" lon="17.6365646">
        <ele>31.3801</ele>
        <time>2013-04-26T19:44:13Z</time>
      </trkpt>
      <trkpt lat="59.89634" lon="17.636592">
        <ele>31.3801</ele>
        <time>2013-04-26T19:44:14Z</time>
      </trkpt>
      <trkpt lat="59.896404" lon="17.6366168">
        <ele>31.3801</ele>
        <time>2013-04-26T19:44:15Z</time>
      </trkpt>
      <trkpt lat="59.8964676" lon="17.6366417">
        <ele>30.8995</ele>
        <time>2013-04-26T19:44:16Z</time>
      </trkpt>
      <trkpt lat="59.8965312" lon="17.6366691">
        <ele>30.8995</ele>
        <time>2013-04-26T19:44:17Z</time>
      </trkpt>
      <trkpt lat="59.8965953" lon="17.6366971">
        <ele>30.8995</ele>
        <time>2013-04-26T19:44:18Z</time>
      </trkpt>
      <trkpt lat="59.8966591" lon="17.6367241">
        <ele>30.4188</ele>
        <time>2013-04-26T19:44:19Z</time>
      </trkpt>
      <trkpt lat="59.8967242" lon="17.6367505">
        <ele>30.4188</ele>
        <time>2013-04-26T19:44:20Z</time>
      </trkpt>
      <trkpt lat="59.8967902" lon="17.6367769">
        <ele>30.4188</ele>
        <time>2013-04-26T19:44:21Z</time>
      </trkpt>
      <trkpt lat="59.8968558" lon="17.6368044">
        <ele>29.9381</ele>
        <time>2013-04-26T19:44:22Z</time>
      </trkpt>
      <trkpt lat="59.8969214" lon="17.636836">
        <ele>29.4575</ele>
        <time>2013-04-26T19:44:23Z</time>
      </trkpt>
      <trkpt lat="59.896988" lon="17.6368689">
        <ele>29.4575</ele>
        <time>2013-04-26T19:44:24Z</time>
      </trkpt>
      <trkpt lat="59.8970558" lon="17.6369021">
        <ele>28.9769</ele>
        <time>2013-04-26T19:44:25Z</time>
      </trkpt>
      <trkpt lat="59.897125" lon="17.6369375">
        <ele>28.9769</ele>
        <time>2013-04-26T19:44:26Z</time>
      </trkpt>
      <trkpt lat="59.8971962" lon="17.6369748">
        <ele>28.4962</ele>
        <time>2013-04-26T19:44:27Z</time>
      </trkpt>
      <trkpt lat="59.8972687" lon="17.6370151">
        <ele>28.4962</ele>
        <time>2013-04-26T19:44:28Z</time>
      </trkpt>
      <trkpt lat="59.8973433" lon="17.6370562">
        <ele>28.0155</ele>
        <time>2013-04-26T19:44:29Z</time>
      </trkpt>
      <trkpt lat="59.8974193" lon="17.6370986">
        <ele>27.5349</ele>
        <time>2013-04-26T19:44:30Z</time>
      </trkpt>
      <trkpt lat="59.8974946" lon="17.6371437">
        <ele>27.0543</ele>
        <time>2013-04-26T19:44:31Z</time>
      </trkpt>
      <trkpt lat="59.8975706" lon="17.6371898">
        <ele>27.0543</ele>
        <time>2013-04-26T19:44:32Z</time>
      </trkpt>
      <trkpt lat="59.897644" lon="17.6372452">
        <ele>26.5736</ele>
        <time>2013-04-26T19:44:33Z</time>
      </trkpt>
      <trkpt lat="59.8977157" lon="17.6373152">
        <ele>26.5736</ele>
        <time>2013-04-26T19:44:34Z</time>
      </trkpt>
      <trkpt lat="59.8977821" lon="17.6374047">
        <ele>26.5736</ele>
        <time>2013-04-26T19:44:35Z</time>
      </trkpt>
      <trkpt lat="59.8978435" lon="17.63751">
        <ele>26.0929</ele>
        <time>2013-04-26T19:44:36Z</time>
      </trkpt>
      <trkpt lat="59.8979018" lon="17.6376218">
        <ele>26.0929</ele>
        <time>2013-04-26T19:44:37Z</time>
      </trkpt>
      <trkpt lat="59.8979629" lon="17.637727">
        <ele>25.6123</ele>
        <time>2013-04-26T19:44:38Z</time>
      </trkpt>
      <trkpt lat="59.8980298" lon="17.6378176">
        <ele>25.6123</ele>
        <time>2013-04-26T19:44:39Z</time>
      </trkpt>
      <trkpt lat="59.8981015" lon="17.6378922">
        <ele>25.6123</ele>
        <time>2013-04-26T19:44:40Z</time>
      </trkpt>
      <trkpt lat="59.8981757" lon="17.6379571">
        <ele>25.6123</ele>
        <time>2013-04-26T19:44:41Z</time>
      </trkpt>
      <trkpt lat="59.8982502" lon="17.6380212">
        <ele>25.6123</ele>
        <time>2013-04-26T19:44:42Z</time>
      </trkpt>
      <trkpt lat="59.8983244" lon="17.6380869">
        <ele>25.6123</ele>
        <time>2013-04-26T19:44:43Z</time>
      </trkpt>
      <trkpt lat="59.898398" lon="17.6381539">
        <ele>25.1317</ele>
        <time>2013-04-26T19:44:44Z</time>
      </trkpt>
      <trkpt lat="59.8984718" lon="17.6382184">
        <ele>25.1317</ele>
        <time>2013-04-26T19:44:45Z</time>
      </trkpt>
      <trkpt lat="59.8985483" lon="17.63827">
        <ele>25.1317</ele>
        <time>2013-04-26T19:44:46Z</time>
      </trkpt>
      <trkpt lat="59.898629" lon="17.6382979">
        <ele>24.651</ele>
        <time>2013-04-26T19:44:47Z</time>
      </trkpt>
      <trkpt lat="59.8987124" lon="17.6383007">
        <ele>24.651</ele>
        <time>2013-04-26T19:44:48Z</time>
      </trkpt>
      <trkpt lat="59.8987976" lon="17.6382978">
        <ele>24.1703</ele>
        <time>2013-04-26T19:44:49Z</time>
      </trkpt>
      <trkpt lat="59.8988801" lon="17.6383171">
        <ele>24.1703</ele>
        <time>2013-04-26T19:44:50Z</time>
      </trkpt>
      <trkpt lat="59.8989582" lon="17.6383698">
        <ele>24.1703</ele>
        <time>2013-04-26T19:44:51Z</time>
      </trkpt>
      <trkpt lat="59.8990339" lon="17.6384419">
        <ele>24.1703</ele>
        <time>2013-04-26T19:44:52Z</time>
      </trkpt>
      <trkpt lat="59.8991097" lon="17.6385191">
        <ele>24.1703</ele>
        <time>2013-04-26T19:44:53Z</time>
      </trkpt>
      <trkpt lat="59.8991852" lon="17.6385982">
        <ele>24.1703</ele>
        <time>2013-04-26T19:44:54Z</time>
      </trkpt>
      <trkpt lat="59.8992595" lon="17.6386754">
        <ele>23.6896</ele>
        <time>2013-04-26T19:44:55Z</time>
      </trkpt>
      <trkpt lat="59.8993315" lon="17.6387704">
        <ele>23.6896</ele>
        <time>2013-04-26T19:44:56Z</time>
      </trkpt>
      <trkpt lat="59.8994024" lon="17.6388481">
        <ele>23.6896</ele>
        <time>2013-04-26T19:44:57Z</time>
      </trkpt>
      <trkpt lat="59.8994757" lon="17.6389246">
        <ele>23.209</ele>
        <time>2013-04-26T19:44:58Z</time>
      </trkpt>
      <trkpt lat="59.8995498" lon="17.6390012">
        <ele>23.209</ele>
        <time>2013-04-26T19:44:59Z</time>
      </trkpt>
      <trkpt lat="59.8996236" lon="17.6390786">
        <ele>22.7283</ele>
        <time>2013-04-26T19:45:00Z</time>
      </trkpt>
      <trkpt lat="59.8996986" lon="17.6391551">
        <ele>22.7283</ele>
        <time>2013-04-26T19:45:01Z</time>
      </trkpt>
      <trkpt lat="59.8997722" lon="17.6392254">
        <ele>22.7283</ele>
        <time>2013-04-26T19:45:02Z</time>
      </trkpt>
      <trkpt lat="59.8998475" lon="17.6393032">
        <ele>22.2476</ele>
        <time>2013-04-26T19:45:03Z</time>
      </trkpt>
      <trkpt lat="59.899924" lon="17.6393825">
        <ele>22.2476</ele>
        <time>2013-04-26T19:45:04Z</time>
      </trkpt>
      <trkpt lat="59.9000002" lon="17.63946">
        <ele>21.767</ele>
        <time>2013-04-26T19:45:05Z</time>
      </trkpt>
      <trkpt lat="59.9000767" lon="17.6395359">
        <ele>21.767</ele>
        <time>2013-04-26T19:45:06Z</time>
      </trkpt>
      <trkpt lat="59.9001525" lon="17.6396141">
        <ele>21.2864</ele>
        <time>2013-04-26T19:45:07Z</time>
      </trkpt>
      <trkpt lat="59.9002306" lon="17.6396939">
        <ele>21.2864</ele>
        <time>2013-04-26T19:45:08Z</time>
      </trkpt>
      <trkpt lat="59.9003079" lon="17.6397729">
        <ele>20.8057</ele>
        <time>2013-04-26T19:45:09Z</time>
      </trkpt>
      <trkpt lat="59.9003853" lon="17.6398522">
        <ele>20.325</ele>
        <time>2013-04-26T19:45:10Z</time>
      </trkpt>
      <trkpt lat="59.9004646" lon="17.6399289">
        <ele>20.325</ele>
        <time>2013-04-26T19:45:11Z</time>
      </trkpt>
      <trkpt lat="59.900543" lon="17.6400068">
        <ele>19.8444</ele>
        <time>2013-04-26T19:45:12Z</time>
      </trkpt>
      <trkpt lat="59.9006208" lon="17.640085">
        <ele>19.8444</ele>
        <time>2013-04-26T19:45:13Z</time>
      </trkpt>
      <trkpt lat="59.9006984" lon="17.640163">
        <ele>19.3638</ele>
        <time>2013-04-26T19:45:14Z</time>
      </trkpt>
      <trkpt lat="59.9007751" lon="17.6402403">
        <ele>19.3638</ele>
        <time>2013-04-26T19:45:15Z</time>
      </trkpt>
      <trkpt lat="59.9008512" lon="17.6403175">
        <ele>18.8831</ele>
        <time>2013-04-26T19:45:16Z</time>
      </trkpt>
      <trkpt lat="59.9009275" lon="17.6403943">
        <ele>18.8831</ele>
        <time>2013-04-26T19:45:17Z</time>
      </trkpt>
      <trkpt lat="59.9010056" lon="17.6404688">
        <ele>18.4023</ele>
        <time>2013-04-26T19:45:18Z</time>
      </trkpt>
      <trkpt lat="59.9010813" lon="17.6405443">
        <ele>18.4023</ele>
        <time>2013-04-26T19:45:19Z</time>
      </trkpt>
      <trkpt lat="59.901157" lon="17.6406189">
        <ele>18.4023</ele>
        <time>2013-04-26T19:45:20Z</time>
      </trkpt>
      <trkpt lat="59.901233" lon="17.6406932">
        <ele>17.9218</ele>
        <time>2013-04-26T19:45:21Z</time>
      </trkpt>
      <trkpt lat="59.9013088" lon="17.6407677">
        <ele>17.9218</ele>
        <time>2013-04-26T19:45:22Z</time>
      </trkpt>
      <trkpt lat="59.9013847" lon="17.6408406">
        <ele>17.9218</ele>
        <time>2013-04-26T19:45:23Z</time>
      </trkpt>
      <trkpt lat="59.9014604" lon="17.6409105">
        <ele>17.9218</ele>
        <time>2013-04-26T19:45:24Z</time>
      </trkpt>
      <trkpt lat="59.9015358" lon="17.6409784">
        <ele>17.4412</ele>
        <time>2013-04-26T19:45:25Z</time>
      </trkpt>
      <trkpt lat="59.9016107" lon="17.6410455">
        <ele>17.4412</ele>
        <time>2013-04-26T19:45:26Z</time>
      </trkpt>
      <trkpt lat="59.9016861" lon="17.641111">
        <ele>17.4412</ele>
        <time>2013-04-26T19:45:27Z</time>
      </trkpt>
      <trkpt lat="59.9017622" lon="17.6411742">
        <ele>16.9604</ele>
        <time>2013-04-26T19:45:28Z</time>
      </trkpt>
      <trkpt lat="59.9018384" lon="17.6412365">
        <ele>16.9604</ele>
        <time>2013-04-26T19:45:29Z</time>
      </trkpt>
      <trkpt lat="59.9019142" lon="17.6412981">
        <ele>16.9604</ele>
        <time>2013-04-26T19:45:30Z</time>
      </trkpt>
      <trkpt lat="59.9019904" lon="17.6413582">
        <ele>16.4797</ele>
        <time>2013-04-26T19:45:31Z</time>
      </trkpt>
      <trkpt lat="59.9020671" lon="17.641416">
        <ele>16.4797</ele>
        <time>2013-04-26T19:45:32Z</time>
      </trkpt>
      <trkpt lat="59.9021443" lon="17.6414715">
        <ele>16.4797</ele>
        <time>2013-04-26T19:45:33Z</time>
      </trkpt>
      <trkpt lat="59.9022214" lon="17.6415256">
        <ele>16.4797</ele>
        <time>2013-04-26T19:45:34Z</time>
      </trkpt>
      <trkpt lat="59.9022986" lon="17.6415787">
        <ele>16.4797</ele>
        <time>2013-04-26T19:45:35Z</time>
      </trkpt>
      <trkpt lat="59.9023759" lon="17.6416312">
        <ele>15.999</ele>
        <time>2013-04-26T19:45:36Z</time>
      </trkpt>
      <trkpt lat="59.9024539" lon="17.6416818">
        <ele>15.999</ele>
        <time>2013-04-26T19:45:37Z</time>
      </trkpt>
      <trkpt lat="59.9025318" lon="17.6417284">
        <ele>15.999</ele>
        <time>2013-04-26T19:45:38Z</time>
      </trkpt>
      <trkpt lat="59.9026094" lon="17.641767">
        <ele>15.999</ele>
        <time>2013-04-26T19:45:39Z</time>
      </trkpt>
      <trkpt lat="59.902686" lon="17.6417985">
        <ele>15.999</ele>
        <time>2013-04-26T19:45:40Z</time>
      </trkpt>
      <trkpt lat="59.9027596" lon="17.6418321">
        <ele>15.999</ele>
        <time>2013-04-26T19:45:41Z</time>
      </trkpt>
      <trkpt lat="59.9028311" lon="17.64187">
        <ele>15.999</ele>
        <time>2013-04-26T19:45:42Z</time>
      </trkpt>
      <trkpt lat="59.9029005" lon="17.6419079">
        <ele>15.999</ele>
        <time>2013-04-26T19:45:43Z</time>
      </trkpt>
      <trkpt lat="59.9036343" lon="17.6423221">
        <ele>20.325</ele>
        <time>2013-04-26T19:47:27Z</time>
      </trkpt>
      <trkpt lat="59.9036594" lon="17.6423298">
        <ele>20.325</ele>
        <time>2013-04-26T19:47:28Z</time>
      </trkpt>
      <trkpt lat="59.9036878" lon="17.6423434">
        <ele>20.325</ele>
        <time>2013-04-26T19:47:29Z</time>
      </trkpt>
      <trkpt lat="59.9037193" lon="17.6423595">
        <ele>20.325</ele>
        <time>2013-04-26T19:47:30Z</time>
      </trkpt>
      <trkpt lat="59.9037526" lon="17.6423756">
        <ele>19.8444</ele>
        <time>2013-04-26T19:47:31Z</time>
      </trkpt>
      <trkpt lat="59.903788" lon="17.6423954">
        <ele>19.8444</ele>
        <time>2013-04-26T19:47:32Z</time>
      </trkpt>
      <trkpt lat="59.9038263" lon="17.6424237">
        <ele>19.8444</ele>
        <time>2013-04-26T19:47:33Z</time>
      </trkpt>
      <trkpt lat="59.9038717" lon="17.6424445">
        <ele>19.8444</ele>
        <time>2013-04-26T19:47:34Z</time>
      </trkpt>
      <trkpt lat="59.9039215" lon="17.6424655">
        <ele>19.8444</ele>
        <time>2013-04-26T19:47:35Z</time>
      </trkpt>
      <trkpt lat="59.9039734" lon="17.6424871">
        <ele>19.8444</ele>
        <time>2013-04-26T19:47:36Z</time>
      </trkpt>
      <trkpt lat="59.9040321" lon="17.6425066">
        <ele>19.3638</ele>
        <time>2013-04-26T19:47:37Z</time>
      </trkpt>
      <trkpt lat="59.9040954" lon="17.6425274">
        <ele>18.8831</ele>
        <time>2013-04-26T19:47:38Z</time>
      </trkpt>
      <trkpt lat="59.9041616" lon="17.6425523">
        <ele>18.4023</ele>
        <time>2013-04-26T19:47:39Z</time>
      </trkpt>
      <trkpt lat="59.9042307" lon="17.6425791">
        <ele>18.4023</ele>
        <time>2013-04-26T19:47:40Z</time>
      </trkpt>
      <trkpt lat="59.9043008" lon="17.6426077">
        <ele>17.9218</ele>
        <time>2013-04-26T19:47:41Z</time>
      </trkpt>
      <trkpt lat="59.9043727" lon="17.642642">
        <ele>17.9218</ele>
        <time>2013-04-26T19:47:42Z</time>
      </trkpt>
      <trkpt lat="59.9044469" lon="17.642676">
        <ele>17.9218</ele>
        <time>2013-04-26T19:47:43Z</time>
      </trkpt>
      <trkpt lat="59.9045227" lon="17.6427077">
        <ele>17.9218</ele>
        <time>2013-04-26T19:47:44Z</time>
      </trkpt>
      <trkpt lat="59.9045994" lon="17.6427403">
        <ele>17.9218</ele>
        <time>2013-04-26T19:47:45Z</time>
      </trkpt>
      <trkpt lat="59.9046768" lon="17.6427745">
        <ele>17.4412</ele>
        <time>2013-04-26T19:47:46Z</time>
      </trkpt>
      <trkpt lat="59.904755" lon="17.6428095">
        <ele>17.4412</ele>
        <time>2013-04-26T19:47:47Z</time>
      </trkpt>
      <trkpt lat="59.9048337" lon="17.6428465">
        <ele>16.9604</ele>
        <time>2013-04-26T19:47:48Z</time>
      </trkpt>
      <trkpt lat="59.9049135" lon="17.6428852">
        <ele>16.4797</ele>
        <time>2013-04-26T19:47:49Z</time>
      </trkpt>
      <trkpt lat="59.9049931" lon="17.6429238">
        <ele>15.999</ele>
        <time>2013-04-26T19:47:50Z</time>
      </trkpt>
      <trkpt lat="59.905072" lon="17.6429619">
        <ele>15.999</ele>
        <time>2013-04-26T19:47:51Z</time>
      </trkpt>
      <trkpt lat="59.9051488" lon="17.6429992">
        <ele>15.5184</ele>
        <time>2013-04-26T19:47:52Z</time>
      </trkpt>
      <trkpt lat="59.9052264" lon="17.6430358">
        <ele>15.5184</ele>
        <time>2013-04-26T19:47:53Z</time>
      </trkpt>
      <trkpt lat="59.9053014" lon="17.6430722">
        <ele>15.5184</ele>
        <time>2013-04-26T19:47:54Z</time>
      </trkpt>
      <trkpt lat="59.9053743" lon="17.6431073">
        <ele>15.5184</ele>
        <time>2013-04-26T19:47:55Z</time>
      </trkpt>
      <trkpt lat="59.9054469" lon="17.6431423">
        <ele>15.5184</ele>
        <time>2013-04-26T19:47:56Z</time>
      </trkpt>
      <trkpt lat="59.9055179" lon="17.643177">
        <ele>15.0377</ele>
        <time>2013-04-26T19:47:57Z</time>
      </trkpt>
      <trkpt lat="59.905588" lon="17.6432116">
        <ele>14.557</ele>
        <time>2013-04-26T19:47:58Z</time>
      </trkpt>
      <trkpt lat="59.9056575" lon="17.6432468">
        <ele>14.557</ele>
        <time>2013-04-26T19:47:59Z</time>
      </trkpt>
      <trkpt lat="59.9057263" lon="17.6432806">
        <ele>14.0764</ele>
        <time>2013-04-26T19:48:00Z</time>
      </trkpt>
      <trkpt lat="59.9057952" lon="17.6433122">
        <ele>14.0764</ele>
        <time>2013-04-26T19:48:01Z</time>
      </trkpt>
      <trkpt lat="59.9058641" lon="17.6433418">
        <ele>13.5958</ele>
        <time>2013-04-26T19:48:02Z</time>
      </trkpt>
      <trkpt lat="59.9059319" lon="17.6433723">
        <ele>13.5958</ele>
        <time>2013-04-26T19:48:03Z</time>
      </trkpt>
      <trkpt lat="59.9059992" lon="17.6434023">
        <ele>13.5958</ele>
        <time>2013-04-26T19:48:04Z</time>
      </trkpt>
      <trkpt lat="59.9060661" lon="17.6434288">
        <ele>13.5958</ele>
        <time>2013-04-26T19:48:05Z</time>
      </trkpt>
      <trkpt lat="59.9061323" lon="17.643455">
        <ele>13.1151</ele>
        <time>2013-04-26T19:48:06Z</time>
      </trkpt>
      <trkpt lat="59.9061976" lon="17.6434831">
        <ele>13.1151</ele>
        <time>2013-04-26T19:48:07Z</time>
      </trkpt>
      <trkpt lat="59.906263" lon="17.6435086">
        <ele>13.1151</ele>
        <time>2013-04-26T19:48:08Z</time>
      </trkpt>
      <trkpt lat="59.9063271" lon="17.6435348">
        <ele>12.6344</ele>
        <time>2013-04-26T19:48:09Z</time>
      </trkpt>
      <trkpt lat="59.9063909" lon="17.6435604">
        <ele>12.6344</ele>
        <time>2013-04-26T19:48:10Z</time>
      </trkpt>
      <trkpt lat="59.906454" lon="17.6435846">
        <ele>12.1538</ele>
        <time>2013-04-26T19:48:11Z</time>
      </trkpt>
      <trkpt lat="59.9065176" lon="17.6436091">
        <ele>12.1538</ele>
        <time>2013-04-26T19:48:12Z</time>
      </trkpt>
      <trkpt lat="59.9065809" lon="17.6436312">
        <ele>12.1538</ele>
        <time>2013-04-26T19:48:13Z</time>
      </trkpt>
      <trkpt lat="59.9066446" lon="17.6436508">
        <ele>12.1538</ele>
        <time>2013-04-26T19:48:14Z</time>
      </trkpt>
      <trkpt lat="59.9067084" lon="17.643672">
        <ele>12.1538</ele>
        <time>2013-04-26T19:48:15Z</time>
      </trkpt>
      <trkpt lat="59.9067721" lon="17.6436934">
        <ele>12.1538</ele>
        <time>2013-04-26T19:48:16Z</time>
      </trkpt>
      <trkpt lat="59.9068359" lon="17.6437119">
        <ele>12.1538</ele>
        <time>2013-04-26T19:48:17Z</time>
      </trkpt>
      <trkpt lat="59.9068995" lon="17.6437286">
        <ele>12.1538</ele>
        <time>2013-04-26T19:48:18Z</time>
      </trkpt>
      <trkpt lat="59.9069627" lon="17.6437468">
        <ele>12.6344</ele>
        <time>2013-04-26T19:48:19Z</time>
      </trkpt>
      <trkpt lat="59.9070258" lon="17.6437633">
        <ele>12.6344</ele>
        <time>2013-04-26T19:48:20Z</time>
      </trkpt>
      <trkpt lat="59.9070885" lon="17.6437768">
        <ele>12.6344</ele>
        <time>2013-04-26T19:48:21Z</time>
      </trkpt>
      <trkpt lat="59.9071506" lon="17.6437923">
        <ele>12.6344</ele>
        <time>2013-04-26T19:48:22Z</time>
      </trkpt>
      <trkpt lat="59.9072122" lon="17.6438087">
        <ele>12.6344</ele>
        <time>2013-04-26T19:48:23Z</time>
      </trkpt>
      <trkpt lat="59.9072738" lon="17.6438229">
        <ele>12.6344</ele>
        <time>2013-04-26T19:48:24Z</time>
      </trkpt>
      <trkpt lat="59.9073348" lon="17.6438364">
        <ele>13.1151</ele>
        <time>2013-04-26T19:48:25Z</time>
      </trkpt>
      <trkpt lat="59.9073963" lon="17.6438493">
        <ele>13.1151</ele>
        <time>2013-04-26T19:48:26Z</time>
      </trkpt>
      <trkpt lat="59.9074579" lon="17.6438612">
        <ele>13.1151</ele>
        <time>2013-04-26T19:48:27Z</time>
      </trkpt>
      <trkpt lat="59.90752" lon="17.6438721">
        <ele>13.1151</ele>
        <time>2013-04-26T19:48:28Z</time>
      </trkpt>
      <trkpt lat="59.9075818" lon="17.643883">
        <ele>13.5958</ele>
        <time>2013-04-26T19:48:29Z</time>
      </trkpt>
      <trkpt lat="59.9076434" lon="17.643893">
        <ele>13.5958</ele>
        <time>2013-04-26T19:48:30Z</time>
      </trkpt>
      <trkpt lat="59.907705" lon="17.6438983">
        <ele>13.5958</ele>
        <time>2013-04-26T19:48:31Z</time>
      </trkpt>
      <trkpt lat="59.9077667" lon="17.6438909">
        <ele>14.0764</ele>
        <time>2013-04-26T19:48:32Z</time>
      </trkpt>
      <trkpt lat="59.9078283" lon="17.6438738">
        <ele>14.0764</ele>
        <time>2013-04-26T19:48:33Z</time>
      </trkpt>
      <trkpt lat="59.9078932" lon="17.6438592">
        <ele>14.557</ele>
        <time>2013-04-26T19:48:34Z</time>
      </trkpt>
      <trkpt lat="59.9079556" lon="17.6438494">
        <ele>14.557</ele>
        <time>2013-04-26T19:48:35Z</time>
      </trkpt>
      <trkpt lat="59.9080174" lon="17.6438441">
        <ele>14.557</ele>
        <time>2013-04-26T19:48:36Z</time>
      </trkpt>
      <trkpt lat="59.9080778" lon="17.6438426">
        <ele>14.557</ele>
        <time>2013-04-26T19:48:37Z</time>
      </trkpt>
      <trkpt lat="59.9081377" lon="17.6438456">
        <ele>14.557</ele>
        <time>2013-04-26T19:48:38Z</time>
      </trkpt>
      <trkpt lat="59.9081969" lon="17.6438504">
        <ele>14.557</ele>
        <time>2013-04-26T19:48:39Z</time>
      </trkpt>
      <trkpt lat="59.9082553" lon="17.6438432">
        <ele>14.557</ele>
        <time>2013-04-26T19:48:40Z</time>
      </trkpt>
      <trkpt lat="59.9083121" lon="17.6438142">
        <ele>14.557</ele>
        <time>2013-04-26T19:48:41Z</time>
      </trkpt>
      <trkpt lat="59.9083682" lon="17.6437747">
        <ele>14.557</ele>
        <time>2013-04-26T19:48:42Z</time>
      </trkpt>
      <trkpt lat="59.9084275" lon="17.6437469">
        <ele>14.557</ele>
        <time>2013-04-26T19:48:43Z</time>
      </trkpt>
      <trkpt lat="59.9084893" lon="17.6437385">
        <ele>14.557</ele>
        <time>2013-04-26T19:48:44Z</time>
      </trkpt>
      <trkpt lat="59.9085541" lon="17.6437372">
        <ele>14.557</ele>
        <time>2013-04-26T19:48:45Z</time>
      </trkpt>
      <trkpt lat="59.9086207" lon="17.6437364">
        <ele>14.0764</ele>
        <time>2013-04-26T19:48:46Z</time>
      </trkpt>
      <trkpt lat="59.9086872" lon="17.6437315">
        <ele>14.0764</ele>
        <time>2013-04-26T19:48:47Z</time>
      </trkpt>
      <trkpt lat="59.9087539" lon="17.6437253">
        <ele>14.0764</ele>
        <time>2013-04-26T19:48:48Z</time>
      </trkpt>
      <trkpt lat="59.9088208" lon="17.6437193">
        <ele>14.0764</ele>
        <time>2013-04-26T19:48:49Z</time>
      </trkpt>
      <trkpt lat="59.9088888" lon="17.6437141">
        <ele>13.5958</ele>
        <time>2013-04-26T19:48:50Z</time>
      </trkpt>
      <trkpt lat="59.9089566" lon="17.6437095">
        <ele>13.5958</ele>
        <time>2013-04-26T19:48:51Z</time>
      </trkpt>
      <trkpt lat="59.9090244" lon="17.6437033">
        <ele>13.5958</ele>
        <time>2013-04-26T19:48:52Z</time>
      </trkpt>
      <trkpt lat="59.9090922" lon="17.6436956">
        <ele>13.5958</ele>
        <time>2013-04-26T19:48:53Z</time>
      </trkpt>
      <trkpt lat="59.9091604" lon="17.6436856">
        <ele>13.5958</ele>
        <time>2013-04-26T19:48:54Z</time>
      </trkpt>
      <trkpt lat="59.9092293" lon="17.643674">
        <ele>13.5958</ele>
        <time>2013-04-26T19:48:55Z</time>
      </trkpt>
      <trkpt lat="59.9092991" lon="17.6436627">
        <ele>13.5958</ele>
        <time>2013-04-26T19:48:56Z</time>
      </trkpt>
      <trkpt lat="59.9093698" lon="17.6436514">
        <ele>13.5958</ele>
        <time>2013-04-26T19:48:57Z</time>
      </trkpt>
      <trkpt lat="59.9094408" lon="17.643639">
        <ele>13.5958</ele>
        <time>2013-04-26T19:48:58Z</time>
      </trkpt>
      <trkpt lat="59.9095122" lon="17.6436249">
        <ele>13.5958</ele>
        <time>2013-04-26T19:48:59Z</time>
      </trkpt>
      <trkpt lat="59.9095844" lon="17.6436084">
        <ele>13.5958</ele>
        <time>2013-04-26T19:49:00Z</time>
      </trkpt>
      <trkpt lat="59.9096555" lon="17.6435914">
        <ele>14.0764</ele>
        <time>2013-04-26T19:49:01Z</time>
      </trkpt>
      <trkpt lat="59.9097266" lon="17.6435759">
        <ele>14.0764</ele>
        <time>2013-04-26T19:49:02Z</time>
      </trkpt>
      <trkpt lat="59.9097961" lon="17.6435629">
        <ele>14.0764</ele>
        <time>2013-04-26T19:49:03Z</time>
      </trkpt>
      <trkpt lat="59.9098652" lon="17.6435596">
        <ele>14.0764</ele>
        <time>2013-04-26T19:49:04Z</time>
      </trkpt>
      <trkpt lat="59.909934" lon="17.6435763">
        <ele>14.557</ele>
        <time>2013-04-26T19:49:05Z</time>
      </trkpt>
      <trkpt lat="59.9100013" lon="17.6436065">
        <ele>14.557</ele>
        <time>2013-04-26T19:49:06Z</time>
      </trkpt>
      <trkpt lat="59.9100667" lon="17.6436324">
        <ele>15.0377</ele>
        <time>2013-04-26T19:49:07Z</time>
      </trkpt>
      <trkpt lat="59.9101288" lon="17.6436472">
        <ele>15.5184</ele>
        <time>2013-04-26T19:49:08Z</time>
      </trkpt>
      <trkpt lat="59.9101884" lon="17.6436513">
        <ele>15.999</ele>
        <time>2013-04-26T19:49:09Z</time>
      </trkpt>
      <trkpt lat="59.9102484" lon="17.6436457">
        <ele>15.999</ele>
        <time>2013-04-26T19:49:10Z</time>
      </trkpt>
      <trkpt lat="59.9103084" lon="17.6436355">
        <ele>16.4797</ele>
        <time>2013-04-26T19:49:11Z</time>
      </trkpt>
      <trkpt lat="59.9103682" lon="17.6436256">
        <ele>16.4797</ele>
        <time>2013-04-26T19:49:12Z</time>
      </trkpt>
      <trkpt lat="59.9104286" lon="17.6436136">
        <ele>16.4797</ele>
        <time>2013-04-26T19:49:13Z</time>
      </trkpt>
      <trkpt lat="59.9104883" lon="17.6435908">
        <ele>16.9604</ele>
        <time>2013-04-26T19:49:14Z</time>
      </trkpt>
      <trkpt lat="59.9105501" lon="17.6435588">
        <ele>17.4412</ele>
        <time>2013-04-26T19:49:15Z</time>
      </trkpt>
      <trkpt lat="59.9106129" lon="17.6435261">
        <ele>16.9604</ele>
        <time>2013-04-26T19:49:16Z</time>
      </trkpt>
      <trkpt lat="59.9106779" lon="17.6434992">
        <ele>16.9604</ele>
        <time>2013-04-26T19:49:17Z</time>
      </trkpt>
      <trkpt lat="59.910744" lon="17.6434799">
        <ele>16.9604</ele>
        <time>2013-04-26T19:49:18Z</time>
      </trkpt>
      <trkpt lat="59.91081" lon="17.6434673">
        <ele>16.9604</ele>
        <time>2013-04-26T19:49:19Z</time>
      </trkpt>
      <trkpt lat="59.9108753" lon="17.6434555">
        <ele>16.9604</ele>
        <time>2013-04-26T19:49:20Z</time>
      </trkpt>
      <trkpt lat="59.9109396" lon="17.6434428">
        <ele>16.4797</ele>
        <time>2013-04-26T19:49:21Z</time>
      </trkpt>
      <trkpt lat="59.9110032" lon="17.6434301">
        <ele>16.4797</ele>
        <time>2013-04-26T19:49:22Z</time>
      </trkpt>
      <trkpt lat="59.9110674" lon="17.6434178">
        <ele>16.4797</ele>
        <time>2013-04-26T19:49:23Z</time>
      </trkpt>
      <trkpt lat="59.9111325" lon="17.643406">
        <ele>16.9604</ele>
        <time>2013-04-26T19:49:24Z</time>
      </trkpt>
      <trkpt lat="59.9111974" lon="17.643394">
        <ele>16.9604</ele>
        <time>2013-04-26T19:49:25Z</time>
      </trkpt>
      <trkpt lat="59.9112617" lon="17.6433805">
        <ele>16.9604</ele>
        <time>2013-04-26T19:49:26Z</time>
      </trkpt>
      <trkpt lat="59.911326" lon="17.6433643">
        <ele>16.9604</ele>
        <time>2013-04-26T19:49:27Z</time>
      </trkpt>
      <trkpt lat="59.91139" lon="17.6433456">
        <ele>16.9604</ele>
        <time>2013-04-26T19:49:28Z</time>
      </trkpt>
      <trkpt lat="59.9114565" lon="17.6433299">
        <ele>17.4412</ele>
        <time>2013-04-26T19:49:29Z</time>
      </trkpt>
      <trkpt lat="59.9115216" lon="17.6433173">
        <ele>17.4412</ele>
        <time>2013-04-26T19:49:30Z</time>
      </trkpt>
      <trkpt lat="59.9115882" lon="17.6433065">
        <ele>17.4412</ele>
        <time>2013-04-26T19:49:31Z</time>
      </trkpt>
      <trkpt lat="59.9116527" lon="17.6432954">
        <ele>17.4412</ele>
        <time>2013-04-26T19:49:32Z</time>
      </trkpt>
      <trkpt lat="59.9117164" lon="17.6432829">
        <ele>16.9604</ele>
        <time>2013-04-26T19:49:33Z</time>
      </trkpt>
      <trkpt lat="59.9117816" lon="17.6432722">
        <ele>16.9604</ele>
        <time>2013-04-26T19:49:34Z</time>
      </trkpt>
      <trkpt lat="59.9118471" lon="17.6432604">
        <ele>16.9604</ele>
        <time>2013-04-26T19:49:35Z</time>
      </trkpt>
      <trkpt lat="59.9119104" lon="17.6432453">
        <ele>16.9604</ele>
        <time>2013-04-26T19:49:36Z</time>
      </trkpt>
      <trkpt lat="59.9119734" lon="17.6432291">
        <ele>16.9604</ele>
        <time>2013-04-26T19:49:37Z</time>
      </trkpt>
      <trkpt lat="59.912038" lon="17.6432097">
        <ele>16.9604</ele>
        <time>2013-04-26T19:49:38Z</time>
      </trkpt>
      <trkpt lat="59.9121036" lon="17.6431897">
        <ele>16.9604</ele>
        <time>2013-04-26T19:49:39Z</time>
      </trkpt>
      <trkpt lat="59.9121713" lon="17.6431675">
        <ele>16.9604</ele>
        <time>2013-04-26T19:49:40Z</time>
      </trkpt>
      <trkpt lat="59.9122403" lon="17.6431428">
        <ele>16.4797</ele>
        <time>2013-04-26T19:49:41Z</time>
      </trkpt>
      <trkpt lat="59.9123112" lon="17.6431215">
        <ele>16.4797</ele>
        <time>2013-04-26T19:49:42Z</time>
      </trkpt>
      <trkpt lat="59.9123827" lon="17.6431055">
        <ele>15.999</ele>
        <time>2013-04-26T19:49:43Z</time>
      </trkpt>
      <trkpt lat="59.9124541" lon="17.6430924">
        <ele>15.999</ele>
        <time>2013-04-26T19:49:44Z</time>
      </trkpt>
      <trkpt lat="59.9125247" lon="17.6430823">
        <ele>15.999</ele>
        <time>2013-04-26T19:49:45Z</time>
      </trkpt>
      <trkpt lat="59.9125976" lon="17.6430857">
        <ele>15.999</ele>
        <time>2013-04-26T19:49:46Z</time>
      </trkpt>
      <trkpt lat="59.9126671" lon="17.6431096">
        <ele>16.4797</ele>
        <time>2013-04-26T19:49:47Z</time>
      </trkpt>
      <trkpt lat="59.9127313" lon="17.6431426">
        <ele>16.4797</ele>
        <time>2013-04-26T19:49:48Z</time>
      </trkpt>
      <trkpt lat="59.9127903" lon="17.6431622">
        <ele>16.9604</ele>
        <time>2013-04-26T19:49:49Z</time>
      </trkpt>
      <trkpt lat="59.9128473" lon="17.6431666">
        <ele>16.9604</ele>
        <time>2013-04-26T19:49:50Z</time>
      </trkpt>
      <trkpt lat="59.9129062" lon="17.6431604">
        <ele>16.9604</ele>
        <time>2013-04-26T19:49:51Z</time>
      </trkpt>
      <trkpt lat="59.9129666" lon="17.6431489">
        <ele>16.9604</ele>
        <time>2013-04-26T19:49:52Z</time>
      </trkpt>
      <trkpt lat="59.913027" lon="17.6431364">
        <ele>16.9604</ele>
        <time>2013-04-26T19:49:53Z</time>
      </trkpt>
      <trkpt lat="59.9130882" lon="17.6431214">
        <ele>16.9604</ele>
        <time>2013-04-26T19:49:54Z</time>
      </trkpt>
      <trkpt lat="59.9131503" lon="17.6431089">
        <ele>16.4797</ele>
        <time>2013-04-26T19:49:55Z</time>
      </trkpt>
      <trkpt lat="59.9132139" lon="17.6431004">
        <ele>15.999</ele>
        <time>2013-04-26T19:49:56Z</time>
      </trkpt>
      <trkpt lat="59.9132794" lon="17.6430882">
        <ele>16.4797</ele>
        <time>2013-04-26T19:49:57Z</time>
      </trkpt>
      <trkpt lat="59.9133441" lon="17.6430708">
        <ele>15.999</ele>
        <time>2013-04-26T19:49:58Z</time>
      </trkpt>
      <trkpt lat="59.9134104" lon="17.643052">
        <ele>15.999</ele>
        <time>2013-04-26T19:49:59Z</time>
      </trkpt>
      <trkpt lat="59.9134777" lon="17.6430361">
        <ele>16.4797</ele>
        <time>2013-04-26T19:50:00Z</time>
      </trkpt>
      <trkpt lat="59.9135451" lon="17.6430204">
        <ele>15.999</ele>
        <time>2013-04-26T19:50:01Z</time>
      </trkpt>
      <trkpt lat="59.9136135" lon="17.6430045">
        <ele>15.999</ele>
        <time>2013-04-26T19:50:02Z</time>
      </trkpt>
      <trkpt lat="59.9136832" lon="17.6429926">
        <ele>15.999</ele>
        <time>2013-04-26T19:50:03Z</time>
      </trkpt>
      <trkpt lat="59.9137544" lon="17.642982">
        <ele>15.999</ele>
        <time>2013-04-26T19:50:04Z</time>
      </trkpt>
      <trkpt lat="59.9138263" lon="17.6429692">
        <ele>15.5184</ele>
        <time>2013-04-26T19:50:05Z</time>
      </trkpt>
      <trkpt lat="59.9138997" lon="17.6429557">
        <ele>15.5184</ele>
        <time>2013-04-26T19:50:06Z</time>
      </trkpt>
      <trkpt lat="59.9139745" lon="17.6429424">
        <ele>15.5184</ele>
        <time>2013-04-26T19:50:07Z</time>
      </trkpt>
      <trkpt lat="59.9140501" lon="17.6429287">
        <ele>15.0377</ele>
        <time>2013-04-26T19:50:08Z</time>
      </trkpt>
      <trkpt lat="59.9141262" lon="17.6429132">
        <ele>15.0377</ele>
        <time>2013-04-26T19:50:09Z</time>
      </trkpt>
      <trkpt lat="59.9142" lon="17.642896">
        <ele>15.0377</ele>
        <time>2013-04-26T19:50:10Z</time>
      </trkpt>
      <trkpt lat="59.914275" lon="17.6428816">
        <ele>14.557</ele>
        <time>2013-04-26T19:50:11Z</time>
      </trkpt>
      <trkpt lat="59.9143509" lon="17.6428641">
        <ele>14.557</ele>
        <time>2013-04-26T19:50:12Z</time>
      </trkpt>
      <trkpt lat="59.9144278" lon="17.6428491">
        <ele>15.0377</ele>
        <time>2013-04-26T19:50:13Z</time>
      </trkpt>
      <trkpt lat="59.9145051" lon="17.6428371">
        <ele>15.5184</ele>
        <time>2013-04-26T19:50:14Z</time>
      </trkpt>
      <trkpt lat="59.9145837" lon="17.6428217">
        <ele>15.5184</ele>
        <time>2013-04-26T19:50:15Z</time>
      </trkpt>
      <trkpt lat="59.9146633" lon="17.6428059">
        <ele>15.999</ele>
        <time>2013-04-26T19:50:16Z</time>
      </trkpt>
      <trkpt lat="59.9147432" lon="17.6427913">
        <ele>16.4797</ele>
        <time>2013-04-26T19:50:17Z</time>
      </trkpt>
      <trkpt lat="59.9148239" lon="17.642777">
        <ele>16.9604</ele>
        <time>2013-04-26T19:50:18Z</time>
      </trkpt>
      <trkpt lat="59.9149054" lon="17.6427636">
        <ele>16.9604</ele>
        <time>2013-04-26T19:50:19Z</time>
      </trkpt>
      <trkpt lat="59.9149883" lon="17.6427484">
        <ele>17.4412</ele>
        <time>2013-04-26T19:50:20Z</time>
      </trkpt>
      <trkpt lat="59.9150709" lon="17.642729">
        <ele>17.4412</ele>
        <time>2013-04-26T19:50:21Z</time>
      </trkpt>
      <trkpt lat="59.9151519" lon="17.6426999">
        <ele>17.4412</ele>
        <time>2013-04-26T19:50:22Z</time>
      </trkpt>
      <trkpt lat="59.9152312" lon="17.6426579">
        <ele>17.9218</ele>
        <time>2013-04-26T19:50:23Z</time>
      </trkpt>
      <trkpt lat="59.9153151" lon="17.6426088">
        <ele>17.9218</ele>
        <time>2013-04-26T19:50:24Z</time>
      </trkpt>
      <trkpt lat="59.9154053" lon="17.6425605">
        <ele>18.4023</ele>
        <time>2013-04-26T19:50:25Z</time>
      </trkpt>
      <trkpt lat="59.9154971" lon="17.6425249">
        <ele>18.4023</ele>
        <time>2013-04-26T19:50:26Z</time>
      </trkpt>
      <trkpt lat="59.9155892" lon="17.6424999">
        <ele>18.4023</ele>
        <time>2013-04-26T19:50:27Z</time>
      </trkpt>
      <trkpt lat="59.9156803" lon="17.6424813">
        <ele>18.8831</ele>
        <time>2013-04-26T19:50:28Z</time>
      </trkpt>
      <trkpt lat="59.9157697" lon="17.6424681">
        <ele>18.8831</ele>
        <time>2013-04-26T19:50:29Z</time>
      </trkpt>
      <trkpt lat="59.9158575" lon="17.6424611">
        <ele>19.3638</ele>
        <time>2013-04-26T19:50:30Z</time>
      </trkpt>
      <trkpt lat="59.9159436" lon="17.6424595">
        <ele>19.3638</ele>
        <time>2013-04-26T19:50:31Z</time>
      </trkpt>
      <trkpt lat="59.9160278" lon="17.642459">
        <ele>19.8444</ele>
        <time>2013-04-26T19:50:32Z</time>
      </trkpt>
      <trkpt lat="59.9161099" lon="17.6424584">
        <ele>20.325</ele>
        <time>2013-04-26T19:50:33Z</time>
      </trkpt>
      <trkpt lat="59.9161905" lon="17.6424575">
        <ele>20.325</ele>
        <time>2013-04-26T19:50:34Z</time>
      </trkpt>
      <trkpt lat="59.9162692" lon="17.6424552">
        <ele>20.8057</ele>
        <time>2013-04-26T19:50:35Z</time>
      </trkpt>
      <trkpt lat="59.9163465" lon="17.6424501">
        <ele>20.8057</ele>
        <time>2013-04-26T19:50:36Z</time>
      </trkpt>
      <trkpt lat="59.9164236" lon="17.6424414">
        <ele>20.8057</ele>
        <time>2013-04-26T19:50:37Z</time>
      </trkpt>
      <trkpt lat="59.9165008" lon="17.6424291">
        <ele>21.2864</ele>
        <time>2013-04-26T19:50:38Z</time>
      </trkpt>
      <trkpt lat="59.9165779" lon="17.642416">
        <ele>21.2864</ele>
        <time>2013-04-26T19:50:39Z</time>
      </trkpt>
      <trkpt lat="59.9166556" lon="17.6424029">
        <ele>21.2864</ele>
        <time>2013-04-26T19:50:40Z</time>
      </trkpt>
      <trkpt lat="59.9167345" lon="17.6423906">
        <ele>21.2864</ele>
        <time>2013-04-26T19:50:41Z</time>
      </trkpt>
      <trkpt lat="59.9168148" lon="17.6423788">
        <ele>20.8057</ele>
        <time>2013-04-26T19:50:42Z</time>
      </trkpt>
      <trkpt lat="59.9168965" lon="17.6423672">
        <ele>20.8057</ele>
        <time>2013-04-26T19:50:43Z</time>
      </trkpt>
      <trkpt lat="59.9169785" lon="17.6423528">
        <ele>20.8057</ele>
        <time>2013-04-26T19:50:44Z</time>
      </trkpt>
      <trkpt lat="59.9170608" lon="17.6423329">
        <ele>20.8057</ele>
        <time>2013-04-26T19:50:45Z</time>
      </trkpt>
      <trkpt lat="59.917143" lon="17.642306">
        <ele>20.8057</ele>
        <time>2013-04-26T19:50:46Z</time>
      </trkpt>
      <trkpt lat="59.9172261" lon="17.6422827">
        <ele>20.8057</ele>
        <time>2013-04-26T19:50:47Z</time>
      </trkpt>
      <trkpt lat="59.91731" lon="17.6422729">
        <ele>20.8057</ele>
        <time>2013-04-26T19:50:48Z</time>
      </trkpt>
      <trkpt lat="59.917393" lon="17.6422731">
        <ele>20.8057</ele>
        <time>2013-04-26T19:50:49Z</time>
      </trkpt>
      <trkpt lat="59.9174755" lon="17.6422736">
        <ele>20.8057</ele>
        <time>2013-04-26T19:50:50Z</time>
      </trkpt>
      <trkpt lat="59.9175572" lon="17.6422719">
        <ele>21.2864</ele>
        <time>2013-04-26T19:50:51Z</time>
      </trkpt>
      <trkpt lat="59.9176379" lon="17.6422694">
        <ele>21.2864</ele>
        <time>2013-04-26T19:50:52Z</time>
      </trkpt>
      <trkpt lat="59.9177177" lon="17.6422664">
        <ele>21.2864</ele>
        <time>2013-04-26T19:50:53Z</time>
      </trkpt>
      <trkpt lat="59.9177967" lon="17.6422654">
        <ele>21.2864</ele>
        <time>2013-04-26T19:50:54Z</time>
      </trkpt>
      <trkpt lat="59.9178741" lon="17.6422636">
        <ele>21.767</ele>
        <time>2013-04-26T19:50:55Z</time>
      </trkpt>
      <trkpt lat="59.9179505" lon="17.642259">
        <ele>21.767</ele>
        <time>2013-04-26T19:50:56Z</time>
      </trkpt>
      <trkpt lat="59.9180242" lon="17.6422523">
        <ele>21.767</ele>
        <time>2013-04-26T19:50:57Z</time>
      </trkpt>
      <trkpt lat="59.9180961" lon="17.6422444">
        <ele>22.2476</ele>
        <time>2013-04-26T19:50:58Z</time>
      </trkpt>
      <trkpt lat="59.9181669" lon="17.6422374">
        <ele>22.2476</ele>
        <time>2013-04-26T19:50:59Z</time>
      </trkpt>
      <trkpt lat="59.9182371" lon="17.6422315">
        <ele>22.7283</ele>
        <time>2013-04-26T19:51:00Z</time>
      </trkpt>
      <trkpt lat="59.9183077" lon="17.6422241">
        <ele>22.7283</ele>
        <time>2013-04-26T19:51:01Z</time>
      </trkpt>
      <trkpt lat="59.9183772" lon="17.642215">
        <ele>23.209</ele>
        <time>2013-04-26T19:51:02Z</time>
      </trkpt>
      <trkpt lat="59.9184455" lon="17.6422078">
        <ele>23.209</ele>
        <time>2013-04-26T19:51:03Z</time>
      </trkpt>
      <trkpt lat="59.9185153" lon="17.6422021">
        <ele>23.209</ele>
        <time>2013-04-26T19:51:04Z</time>
      </trkpt>
      <trkpt lat="59.9185857" lon="17.6421947">
        <ele>23.209</ele>
        <time>2013-04-26T19:51:05Z</time>
      </trkpt>
      <trkpt lat="59.9186563" lon="17.6421875">
        <ele>23.6896</ele>
        <time>2013-04-26T19:51:06Z</time>
      </trkpt>
      <trkpt lat="59.9187277" lon="17.6421808">
        <ele>23.6896</ele>
        <time>2013-04-26T19:51:07Z</time>
      </trkpt>
      <trkpt lat="59.9187996" lon="17.6421708">
        <ele>23.6896</ele>
        <time>2013-04-26T19:51:08Z</time>
      </trkpt>
      <trkpt lat="59.9188723" lon="17.6421575">
        <ele>23.6896</ele>
        <time>2013-04-26T19:51:09Z</time>
      </trkpt>
      <trkpt lat="59.9189428" lon="17.6421461">
        <ele>23.6896</ele>
        <time>2013-04-26T19:51:10Z</time>
      </trkpt>
      <trkpt lat="59.9190106" lon="17.6421364">
        <ele>23.6896</ele>
        <time>2013-04-26T19:51:11Z</time>
      </trkpt>
      <trkpt lat="59.9190774" lon="17.6421288">
        <ele>23.6896</ele>
        <time>2013-04-26T19:51:12Z</time>
      </trkpt>
      <trkpt lat="59.9191435" lon="17.6421233">
        <ele>23.6896</ele>
        <time>2013-04-26T19:51:13Z</time>
      </trkpt>
      <trkpt lat="59.9192093" lon="17.6421148">
        <ele>24.1703</ele>
        <time>2013-04-26T19:51:14Z</time>
      </trkpt>
      <trkpt lat="59.9192753" lon="17.6421043">
        <ele>24.1703</ele>
        <time>2013-04-26T19:51:15Z</time>
      </trkpt>
      <trkpt lat="59.9193419" lon="17.6420965">
        <ele>23.6896</ele>
        <time>2013-04-26T19:51:16Z</time>
      </trkpt>
      <trkpt lat="59.9194088" lon="17.6420908">
        <ele>23.6896</ele>
        <time>2013-04-26T19:51:17Z</time>
      </trkpt>
      <trkpt lat="59.9194759" lon="17.6420841">
        <ele>23.6896</ele>
        <time>2013-04-26T19:51:18Z</time>
      </trkpt>
      <trkpt lat="59.9195434" lon="17.6420766">
        <ele>23.6896</ele>
        <time>2013-04-26T19:51:19Z</time>
      </trkpt>
      <trkpt lat="59.9196105" lon="17.6420701">
        <ele>23.6896</ele>
        <time>2013-04-26T19:51:20Z</time>
      </trkpt>
      <trkpt lat="59.9196778" lon="17.6420622">
        <ele>23.6896</ele>
        <time>2013-04-26T19:51:21Z</time>
      </trkpt>
      <trkpt lat="59.9197449" lon="17.6420502">
        <ele>23.6896</ele>
        <time>2013-04-26T19:51:22Z</time>
      </trkpt>
      <trkpt lat="59.9198121" lon="17.6420333">
        <ele>24.1703</ele>
        <time>2013-04-26T19:51:23Z</time>
      </trkpt>
      <trkpt lat="59.9198796" lon="17.6420135">
        <ele>23.6896</ele>
        <time>2013-04-26T19:51:24Z</time>
      </trkpt>
      <trkpt lat="59.9199475" lon="17.6419965">
        <ele>23.6896</ele>
        <time>2013-04-26T19:51:25Z</time>
      </trkpt>
      <trkpt lat="59.9200166" lon="17.6419855">
        <ele>23.6896</ele>
        <time>2013-04-26T19:51:26Z</time>
      </trkpt>
      <trkpt lat="59.9200866" lon="17.6419786">
        <ele>23.6896</ele>
        <time>2013-04-26T19:51:27Z</time>
      </trkpt>
      <trkpt lat="59.920156" lon="17.6419729">
        <ele>24.1703</ele>
        <time>2013-04-26T19:51:28Z</time>
      </trkpt>
      <trkpt lat="59.9202239" lon="17.641968">
        <ele>24.1703</ele>
        <time>2013-04-26T19:51:29Z</time>
      </trkpt>
      <trkpt lat="59.9202912" lon="17.6419627">
        <ele>24.1703</ele>
        <time>2013-04-26T19:51:30Z</time>
      </trkpt>
      <trkpt lat="59.9203603" lon="17.6419575">
        <ele>23.6896</ele>
        <time>2013-04-26T19:51:31Z</time>
      </trkpt>
      <trkpt lat="59.9204301" lon="17.6419542">
        <ele>23.6896</ele>
        <time>2013-04-26T19:51:32Z</time>
      </trkpt>
      <trkpt lat="59.9205004" lon="17.6419518">
        <ele>23.6896</ele>
        <time>2013-04-26T19:51:33Z</time>
      </trkpt>
      <trkpt lat="59.9205713" lon="17.6419498">
        <ele>23.6896</ele>
        <time>2013-04-26T19:51:34Z</time>
      </trkpt>
      <trkpt lat="59.9206429" lon="17.6419485">
        <ele>23.6896</ele>
        <time>2013-04-26T19:51:35Z</time>
      </trkpt>
      <trkpt lat="59.9207141" lon="17.641947">
        <ele>23.6896</ele>
        <time>2013-04-26T19:51:36Z</time>
      </trkpt>
      <trkpt lat="59.9207853" lon="17.6419451">
        <ele>24.1703</ele>
        <time>2013-04-26T19:51:37Z</time>
      </trkpt>
      <trkpt lat="59.9208562" lon="17.641945">
        <ele>23.6896</ele>
        <time>2013-04-26T19:51:38Z</time>
      </trkpt>
      <trkpt lat="59.9209265" lon="17.641944">
        <ele>24.1703</ele>
        <time>2013-04-26T19:51:39Z</time>
      </trkpt>
      <trkpt lat="59.9209965" lon="17.641941">
        <ele>24.1703</ele>
        <time>2013-04-26T19:51:40Z</time>
      </trkpt>
      <trkpt lat="59.9210656" lon="17.6419389">
        <ele>24.1703</ele>
        <time>2013-04-26T19:51:41Z</time>
      </trkpt>
      <trkpt lat="59.9211348" lon="17.6419336">
        <ele>24.1703</ele>
        <time>2013-04-26T19:51:42Z</time>
      </trkpt>
      <trkpt lat="59.9212034" lon="17.6419245">
        <ele>24.651</ele>
        <time>2013-04-26T19:51:43Z</time>
      </trkpt>
      <trkpt lat="59.9212716" lon="17.641916">
        <ele>25.1317</ele>
        <time>2013-04-26T19:51:44Z</time>
      </trkpt>
      <trkpt lat="59.9213369" lon="17.6419073">
        <ele>25.1317</ele>
        <time>2013-04-26T19:51:45Z</time>
      </trkpt>
      <trkpt lat="59.9214018" lon="17.641899">
        <ele>25.1317</ele>
        <time>2013-04-26T19:51:46Z</time>
      </trkpt>
      <trkpt lat="59.9214649" lon="17.6418912">
        <ele>25.1317</ele>
        <time>2013-04-26T19:51:47Z</time>
      </trkpt>
      <trkpt lat="59.9215266" lon="17.641883">
        <ele>25.6123</ele>
        <time>2013-04-26T19:51:48Z</time>
      </trkpt>
      <trkpt lat="59.9215902" lon="17.6418745">
        <ele>25.6123</ele>
        <time>2013-04-26T19:51:49Z</time>
      </trkpt>
      <trkpt lat="59.921655" lon="17.6418669">
        <ele>26.0929</ele>
        <time>2013-04-26T19:51:50Z</time>
      </trkpt>
      <trkpt lat="59.9217217" lon="17.6418576">
        <ele>26.0929</ele>
        <time>2013-04-26T19:51:51Z</time>
      </trkpt>
      <trkpt lat="59.9217893" lon="17.6418467">
        <ele>26.5736</ele>
        <time>2013-04-26T19:51:52Z</time>
      </trkpt>
      <trkpt lat="59.9218569" lon="17.6418373">
        <ele>26.0929</ele>
        <time>2013-04-26T19:51:53Z</time>
      </trkpt>
      <trkpt lat="59.9219255" lon="17.6418284">
        <ele>26.0929</ele>
        <time>2013-04-26T19:51:54Z</time>
      </trkpt>
      <trkpt lat="59.9219948" lon="17.6418198">
        <ele>26.0929</ele>
        <time>2013-04-26T19:51:55Z</time>
      </trkpt>
      <trkpt lat="59.9220639" lon="17.6418121">
        <ele>26.0929</ele>
        <time>2013-04-26T19:51:56Z</time>
      </trkpt>
      <trkpt lat="59.9221337" lon="17.6418058">
        <ele>26.0929</ele>
        <time>2013-04-26T19:51:57Z</time>
      </trkpt>
      <trkpt lat="59.9222034" lon="17.6418006">
        <ele>26.0929</ele>
        <time>2013-04-26T19:51:58Z</time>
      </trkpt>
      <trkpt lat="59.922273" lon="17.6417948">
        <ele>26.0929</ele>
        <time>2013-04-26T19:51:59Z</time>
      </trkpt>
      <trkpt lat="59.9223423" lon="17.641787">
        <ele>26.0929</ele>
        <time>2013-04-26T19:52:00Z</time>
      </trkpt>
      <trkpt lat="59.9224115" lon="17.6417768">
        <ele>26.0929</ele>
        <time>2013-04-26T19:52:01Z</time>
      </trkpt>
      <trkpt lat="59.9224811" lon="17.6417668">
        <ele>26.0929</ele>
        <time>2013-04-26T19:52:02Z</time>
      </trkpt>
      <trkpt lat="59.9225507" lon="17.6417586">
        <ele>26.0929</ele>
        <time>2013-04-26T19:52:03Z</time>
      </trkpt>
      <trkpt lat="59.9226204" lon="17.641751">
        <ele>26.0929</ele>
        <time>2013-04-26T19:52:04Z</time>
      </trkpt>
      <trkpt lat="59.9226899" lon="17.641741">
        <ele>26.0929</ele>
        <time>2013-04-26T19:52:05Z</time>
      </trkpt>
      <trkpt lat="59.9227599" lon="17.6417307">
        <ele>26.0929</ele>
        <time>2013-04-26T19:52:06Z</time>
      </trkpt>
      <trkpt lat="59.9228303" lon="17.6417225">
        <ele>26.0929</ele>
        <time>2013-04-26T19:52:07Z</time>
      </trkpt>
      <trkpt lat="59.9229018" lon="17.641714">
        <ele>26.0929</ele>
        <time>2013-04-26T19:52:08Z</time>
      </trkpt>
      <trkpt lat="59.9229748" lon="17.6417068">
        <ele>25.6123</ele>
        <time>2013-04-26T19:52:09Z</time>
      </trkpt>
      <trkpt lat="59.9230489" lon="17.6417011">
        <ele>25.6123</ele>
        <time>2013-04-26T19:52:10Z</time>
      </trkpt>
      <trkpt lat="59.9231234" lon="17.6416921">
        <ele>25.6123</ele>
        <time>2013-04-26T19:52:11Z</time>
      </trkpt>
      <trkpt lat="59.9231982" lon="17.641682">
        <ele>25.1317</ele>
        <time>2013-04-26T19:52:12Z</time>
      </trkpt>
      <trkpt lat="59.9232733" lon="17.6416721">
        <ele>25.1317</ele>
        <time>2013-04-26T19:52:13Z</time>
      </trkpt>
      <trkpt lat="59.923349" lon="17.6416611">
        <ele>25.1317</ele>
        <time>2013-04-26T19:52:14Z</time>
      </trkpt>
      <trkpt lat="59.9234256" lon="17.6416488">
        <ele>24.651</ele>
        <time>2013-04-26T19:52:15Z</time>
      </trkpt>
      <trkpt lat="59.9235033" lon="17.641637">
        <ele>24.651</ele>
        <time>2013-04-26T19:52:16Z</time>
      </trkpt>
      <trkpt lat="59.9235821" lon="17.6416265">
        <ele>24.1703</ele>
        <time>2013-04-26T19:52:17Z</time>
      </trkpt>
      <trkpt lat="59.923663" lon="17.641614">
        <ele>24.1703</ele>
        <time>2013-04-26T19:52:18Z</time>
      </trkpt>
      <trkpt lat="59.9237457" lon="17.6415987">
        <ele>24.1703</ele>
        <time>2013-04-26T19:52:19Z</time>
      </trkpt>
      <trkpt lat="59.9238286" lon="17.6415866">
        <ele>23.6896</ele>
        <time>2013-04-26T19:52:20Z</time>
      </trkpt>
      <trkpt lat="59.9239115" lon="17.6415745">
        <ele>23.209</ele>
        <time>2013-04-26T19:52:21Z</time>
      </trkpt>
      <trkpt lat="59.9239945" lon="17.6415628">
        <ele>23.209</ele>
        <time>2013-04-26T19:52:22Z</time>
      </trkpt>
      <trkpt lat="59.9240773" lon="17.6415528">
        <ele>22.7283</ele>
        <time>2013-04-26T19:52:23Z</time>
      </trkpt>
      <trkpt lat="59.9241592" lon="17.6415437">
        <ele>22.7283</ele>
        <time>2013-04-26T19:52:24Z</time>
      </trkpt>
      <trkpt lat="59.9242407" lon="17.6415359">
        <ele>22.7283</ele>
        <time>2013-04-26T19:52:25Z</time>
      </trkpt>
      <trkpt lat="59.9243218" lon="17.6415306">
        <ele>22.2476</ele>
        <time>2013-04-26T19:52:26Z</time>
      </trkpt>
      <trkpt lat="59.9244025" lon="17.6415255">
        <ele>22.2476</ele>
        <time>2013-04-26T19:52:27Z</time>
      </trkpt>
      <trkpt lat="59.9244829" lon="17.6415192">
        <ele>22.2476</ele>
        <time>2013-04-26T19:52:28Z</time>
      </trkpt>
      <trkpt lat="59.9245632" lon="17.6415084">
        <ele>22.2476</ele>
        <time>2013-04-26T19:52:29Z</time>
      </trkpt>
      <trkpt lat="59.9246433" lon="17.6414906">
        <ele>21.767</ele>
        <time>2013-04-26T19:52:30Z</time>
      </trkpt>
      <trkpt lat="59.9247236" lon="17.6414711">
        <ele>21.767</ele>
        <time>2013-04-26T19:52:31Z</time>
      </trkpt>
      <trkpt lat="59.924804" lon="17.6414525">
        <ele>21.767</ele>
        <time>2013-04-26T19:52:32Z</time>
      </trkpt>
      <trkpt lat="59.9248849" lon="17.6414362">
        <ele>21.767</ele>
        <time>2013-04-26T19:52:33Z</time>
      </trkpt>
      <trkpt lat="59.9249666" lon="17.641425">
        <ele>21.767</ele>
        <time>2013-04-26T19:52:34Z</time>
      </trkpt>
      <trkpt lat="59.9250485" lon="17.6414171">
        <ele>21.2864</ele>
        <time>2013-04-26T19:52:35Z</time>
      </trkpt>
      <trkpt lat="59.9251309" lon="17.6414117">
        <ele>21.2864</ele>
        <time>2013-04-26T19:52:36Z</time>
      </trkpt>
      <trkpt lat="59.9252134" lon="17.6414105">
        <ele>21.2864</ele>
        <time>2013-04-26T19:52:37Z</time>
      </trkpt>
      <trkpt lat="59.9252954" lon="17.641411">
        <ele>21.2864</ele>
        <time>2013-04-26T19:52:38Z</time>
      </trkpt>
      <trkpt lat="59.9253763" lon="17.6414105">
        <ele>21.2864</ele>
        <time>2013-04-26T19:52:39Z</time>
      </trkpt>
      <trkpt lat="59.9254575" lon="17.6414084">
        <ele>20.8057</ele>
        <time>2013-04-26T19:52:40Z</time>
      </trkpt>
      <trkpt lat="59.9255389" lon="17.6414033">
        <ele>20.8057</ele>
        <time>2013-04-26T19:52:41Z</time>
      </trkpt>
      <trkpt lat="59.9256198" lon="17.6413945">
        <ele>20.8057</ele>
        <time>2013-04-26T19:52:42Z</time>
      </trkpt>
      <trkpt lat="59.9257001" lon="17.6413836">
        <ele>20.8057</ele>
        <time>2013-04-26T19:52:43Z</time>
      </trkpt>
      <trkpt lat="59.9257795" lon="17.641372">
        <ele>20.8057</ele>
        <time>2013-04-26T19:52:44Z</time>
      </trkpt>
      <trkpt lat="59.9258588" lon="17.6413597">
        <ele>20.325</ele>
        <time>2013-04-26T19:52:45Z</time>
      </trkpt>
      <trkpt lat="59.9259375" lon="17.641348">
        <ele>20.325</ele>
        <time>2013-04-26T19:52:46Z</time>
      </trkpt>
      <trkpt lat="59.9260167" lon="17.6413374">
        <ele>20.325</ele>
        <time>2013-04-26T19:52:47Z</time>
      </trkpt>
      <trkpt lat="59.926096" lon="17.6413272">
        <ele>19.8444</ele>
        <time>2013-04-26T19:52:48Z</time>
      </trkpt>
      <trkpt lat="59.9261756" lon="17.6413177">
        <ele>19.8444</ele>
        <time>2013-04-26T19:52:49Z</time>
      </trkpt>
      <trkpt lat="59.9262551" lon="17.6413074">
        <ele>19.8444</ele>
        <time>2013-04-26T19:52:50Z</time>
      </trkpt>
      <trkpt lat="59.9263347" lon="17.6412971">
        <ele>19.3638</ele>
        <time>2013-04-26T19:52:51Z</time>
      </trkpt>
      <trkpt lat="59.9264136" lon="17.6412876">
        <ele>19.3638</ele>
        <time>2013-04-26T19:52:52Z</time>
      </trkpt>
      <trkpt lat="59.9264921" lon="17.6412779">
        <ele>19.3638</ele>
        <time>2013-04-26T19:52:53Z</time>
      </trkpt>
      <trkpt lat="59.9265697" lon="17.6412672">
        <ele>19.3638</ele>
        <time>2013-04-26T19:52:54Z</time>
      </trkpt>
      <trkpt lat="59.9266464" lon="17.641257">
        <ele>19.3638</ele>
        <time>2013-04-26T19:52:55Z</time>
      </trkpt>
      <trkpt lat="59.9267222" lon="17.6412479">
        <ele>19.3638</ele>
        <time>2013-04-26T19:52:56Z</time>
      </trkpt>
      <trkpt lat="59.9267973" lon="17.6412395">
        <ele>19.3638</ele>
        <time>2013-04-26T19:52:57Z</time>
      </trkpt>
      <trkpt lat="59.9268726" lon="17.6412308">
        <ele>19.3638</ele>
        <time>2013-04-26T19:52:58Z</time>
      </trkpt>
      <trkpt lat="59.9269481" lon="17.6412225">
        <ele>19.3638</ele>
        <time>2013-04-26T19:52:59Z</time>
      </trkpt>
      <trkpt lat="59.9270238" lon="17.6412156">
        <ele>19.3638</ele>
        <time>2013-04-26T19:53:00Z</time>
      </trkpt>
      <trkpt lat="59.9270998" lon="17.6412089">
        <ele>19.3638</ele>
        <time>2013-04-26T19:53:01Z</time>
      </trkpt>
      <trkpt lat="59.927176" lon="17.6412029">
        <ele>19.3638</ele>
        <time>2013-04-26T19:53:02Z</time>
      </trkpt>
      <trkpt lat="59.9272523" lon="17.6411983">
        <ele>19.3638</ele>
        <time>2013-04-26T19:53:03Z</time>
      </trkpt>
      <trkpt lat="59.9273292" lon="17.6411938">
        <ele>19.3638</ele>
        <time>2013-04-26T19:53:04Z</time>
      </trkpt>
      <trkpt lat="59.9274064" lon="17.6411883">
        <ele>19.8444</ele>
        <time>2013-04-26T19:53:05Z</time>
      </trkpt>
      <trkpt lat="59.9274837" lon="17.6411799">
        <ele>19.8444</ele>
        <time>2013-04-26T19:53:06Z</time>
      </trkpt>
      <trkpt lat="59.9275614" lon="17.6411702">
        <ele>19.8444</ele>
        <time>2013-04-26T19:53:07Z</time>
      </trkpt>
      <trkpt lat="59.9276395" lon="17.6411609">
        <ele>19.8444</ele>
        <time>2013-04-26T19:53:08Z</time>
      </trkpt>
      <trkpt lat="59.9277178" lon="17.6411527">
        <ele>19.8444</ele>
        <time>2013-04-26T19:53:09Z</time>
      </trkpt>
      <trkpt lat="59.9277961" lon="17.6411452">
        <ele>19.8444</ele>
        <time>2013-04-26T19:53:10Z</time>
      </trkpt>
      <trkpt lat="59.9278738" lon="17.6411365">
        <ele>19.8444</ele>
        <time>2013-04-26T19:53:11Z</time>
      </trkpt>
      <trkpt lat="59.9279513" lon="17.6411278">
        <ele>19.8444</ele>
        <time>2013-04-26T19:53:12Z</time>
      </trkpt>
      <trkpt lat="59.9280284" lon="17.6411221">
        <ele>19.8444</ele>
        <time>2013-04-26T19:53:13Z</time>
      </trkpt>
      <trkpt lat="59.9281052" lon="17.6411173">
        <ele>19.8444</ele>
        <time>2013-04-26T19:53:14Z</time>
      </trkpt>
      <trkpt lat="59.9281816" lon="17.6411109">
        <ele>19.8444</ele>
        <time>2013-04-26T19:53:15Z</time>
      </trkpt>
      <trkpt lat="59.9282581" lon="17.6411014">
        <ele>19.8444</ele>
        <time>2013-04-26T19:53:16Z</time>
      </trkpt>
      <trkpt lat="59.9283344" lon="17.6410889">
        <ele>19.8444</ele>
        <time>2013-04-26T19:53:17Z</time>
      </trkpt>
      <trkpt lat="59.9284109" lon="17.6410769">
        <ele>19.8444</ele>
        <time>2013-04-26T19:53:18Z</time>
      </trkpt>
      <trkpt lat="59.9284872" lon="17.6410672">
        <ele>20.325</ele>
        <time>2013-04-26T19:53:19Z</time>
      </trkpt>
      <trkpt lat="59.9285631" lon="17.6410582">
        <ele>20.325</ele>
        <time>2013-04-26T19:53:20Z</time>
      </trkpt>
      <trkpt lat="59.9286378" lon="17.6410459">
        <ele>20.325</ele>
        <time>2013-04-26T19:53:21Z</time>
      </trkpt>
      <trkpt lat="59.9287114" lon="17.6410288">
        <ele>20.325</ele>
        <time>2013-04-26T19:53:22Z</time>
      </trkpt>
      <trkpt lat="59.9287855" lon="17.6410096">
        <ele>20.325</ele>
        <time>2013-04-26T19:53:23Z</time>
      </trkpt>
      <trkpt lat="59.9288611" lon="17.6409926">
        <ele>20.325</ele>
        <time>2013-04-26T19:53:24Z</time>
      </trkpt>
      <trkpt lat="59.9289373" lon="17.6409759">
        <ele>20.325</ele>
        <time>2013-04-26T19:53:25Z</time>
      </trkpt>
      <trkpt lat="59.9290139" lon="17.6409617">
        <ele>20.325</ele>
        <time>2013-04-26T19:53:26Z</time>
      </trkpt>
      <trkpt lat="59.9290904" lon="17.6409547">
        <ele>20.325</ele>
        <time>2013-04-26T19:53:27Z</time>
      </trkpt>
      <trkpt lat="59.9291668" lon="17.6409505">
        <ele>20.325</ele>
        <time>2013-04-26T19:53:28Z</time>
      </trkpt>
      <trkpt lat="59.9292432" lon="17.6409483">
        <ele>20.325</ele>
        <time>2013-04-26T19:53:29Z</time>
      </trkpt>
      <trkpt lat="59.9293184" lon="17.6409484">
        <ele>20.325</ele>
        <time>2013-04-26T19:53:30Z</time>
      </trkpt>
      <trkpt lat="59.9293926" lon="17.6409455">
        <ele>20.325</ele>
        <time>2013-04-26T19:53:31Z</time>
      </trkpt>
      <trkpt lat="59.9294661" lon="17.6409381">
        <ele>20.325</ele>
        <time>2013-04-26T19:53:32Z</time>
      </trkpt>
      <trkpt lat="59.9295388" lon="17.6409278">
        <ele>20.325</ele>
        <time>2013-04-26T19:53:33Z</time>
      </trkpt>
      <trkpt lat="59.9296116" lon="17.6409162">
        <ele>20.8057</ele>
        <time>2013-04-26T19:53:34Z</time>
      </trkpt>
      <trkpt lat="59.9296842" lon="17.6409002">
        <ele>20.8057</ele>
        <time>2013-04-26T19:53:35Z</time>
      </trkpt>
      <trkpt lat="59.9297562" lon="17.6408817">
        <ele>20.8057</ele>
        <time>2013-04-26T19:53:36Z</time>
      </trkpt>
      <trkpt lat="59.9298273" lon="17.6408646">
        <ele>20.8057</ele>
        <time>2013-04-26T19:53:37Z</time>
      </trkpt>
      <trkpt lat="59.9298986" lon="17.6408541">
        <ele>20.8057</ele>
        <time>2013-04-26T19:53:38Z</time>
      </trkpt>
      <trkpt lat="59.9299712" lon="17.6408521">
        <ele>20.8057</ele>
        <time>2013-04-26T19:53:39Z</time>
      </trkpt>
      <trkpt lat="59.9300452" lon="17.6408535">
        <ele>20.8057</ele>
        <time>2013-04-26T19:53:40Z</time>
      </trkpt>
      <trkpt lat="59.9301192" lon="17.6408558">
        <ele>20.8057</ele>
        <time>2013-04-26T19:53:41Z</time>
      </trkpt>
      <trkpt lat="59.9301925" lon="17.6408578">
        <ele>20.8057</ele>
        <time>2013-04-26T19:53:42Z</time>
      </trkpt>
      <trkpt lat="59.9302649" lon="17.6408594">
        <ele>20.8057</ele>
        <time>2013-04-26T19:53:43Z</time>
      </trkpt>
      <trkpt lat="59.9303365" lon="17.6408615">
        <ele>20.8057</ele>
        <time>2013-04-26T19:53:44Z</time>
      </trkpt>
      <trkpt lat="59.9304073" lon="17.6408645">
        <ele>20.8057</ele>
        <time>2013-04-26T19:53:45Z</time>
      </trkpt>
      <trkpt lat="59.9304773" lon="17.6408677">
        <ele>21.2864</ele>
        <time>2013-04-26T19:53:46Z</time>
      </trkpt>
      <trkpt lat="59.9305462" lon="17.6408691">
        <ele>21.2864</ele>
        <time>2013-04-26T19:53:47Z</time>
      </trkpt>
      <trkpt lat="59.9306133" lon="17.6408619">
        <ele>21.2864</ele>
        <time>2013-04-26T19:53:48Z</time>
      </trkpt>
      <trkpt lat="59.9306789" lon="17.6408478">
        <ele>21.767</ele>
        <time>2013-04-26T19:53:49Z</time>
      </trkpt>
      <trkpt lat="59.9307436" lon="17.6408355">
        <ele>21.767</ele>
        <time>2013-04-26T19:53:50Z</time>
      </trkpt>
      <trkpt lat="59.9308084" lon="17.6408304">
        <ele>21.767</ele>
        <time>2013-04-26T19:53:51Z</time>
      </trkpt>
      <trkpt lat="59.930874" lon="17.640836">
        <ele>21.767</ele>
        <time>2013-04-26T19:53:52Z</time>
      </trkpt>
      <trkpt lat="59.9309402" lon="17.640852">
        <ele>21.767</ele>
        <time>2013-04-26T19:53:53Z</time>
      </trkpt>
      <trkpt lat="59.9310063" lon="17.6408787">
        <ele>21.767</ele>
        <time>2013-04-26T19:53:54Z</time>
      </trkpt>
      <trkpt lat="59.9310704" lon="17.6409165">
        <ele>21.767</ele>
        <time>2013-04-26T19:53:55Z</time>
      </trkpt>
      <trkpt lat="59.9311327" lon="17.6409621">
        <ele>21.767</ele>
        <time>2013-04-26T19:53:56Z</time>
      </trkpt>
      <trkpt lat="59.9311931" lon="17.6410086">
        <ele>22.2476</ele>
        <time>2013-04-26T19:53:57Z</time>
      </trkpt>
      <trkpt lat="59.9312513" lon="17.6410521">
        <ele>22.2476</ele>
        <time>2013-04-26T19:53:58Z</time>
      </trkpt>
      <trkpt lat="59.9313066" lon="17.6410949">
        <ele>22.7283</ele>
        <time>2013-04-26T19:53:59Z</time>
      </trkpt>
      <trkpt lat="59.931358" lon="17.6411369">
        <ele>23.209</ele>
        <time>2013-04-26T19:54:00Z</time>
      </trkpt>
      <trkpt lat="59.9314065" lon="17.6411726">
        <ele>23.6896</ele>
        <time>2013-04-26T19:54:01Z</time>
      </trkpt>
      <trkpt lat="59.9314546" lon="17.6412044">
        <ele>23.6896</ele>
        <time>2013-04-26T19:54:02Z</time>
      </trkpt>
      <trkpt lat="59.9315043" lon="17.6412395">
        <ele>23.6896</ele>
        <time>2013-04-26T19:54:03Z</time>
      </trkpt>
      <trkpt lat="59.9315554" lon="17.6412788">
        <ele>23.6896</ele>
        <time>2013-04-26T19:54:04Z</time>
      </trkpt>
      <trkpt lat="59.9316079" lon="17.6413202">
        <ele>23.6896</ele>
        <time>2013-04-26T19:54:05Z</time>
      </trkpt>
      <trkpt lat="59.9316614" lon="17.6413614">
        <ele>23.6896</ele>
        <time>2013-04-26T19:54:06Z</time>
      </trkpt>
      <trkpt lat="59.9317161" lon="17.6414032">
        <ele>23.6896</ele>
        <time>2013-04-26T19:54:07Z</time>
      </trkpt>
      <trkpt lat="59.9317717" lon="17.6414451">
        <ele>23.6896</ele>
        <time>2013-04-26T19:54:08Z</time>
      </trkpt>
      <trkpt lat="59.9318281" lon="17.6414858">
        <ele>23.6896</ele>
        <time>2013-04-26T19:54:09Z</time>
      </trkpt>
      <trkpt lat="59.9318852" lon="17.641524">
        <ele>23.6896</ele>
        <time>2013-04-26T19:54:10Z</time>
      </trkpt>
      <trkpt lat="59.9319421" lon="17.6415583">
        <ele>23.6896</ele>
        <time>2013-04-26T19:54:11Z</time>
      </trkpt>
      <trkpt lat="59.9319971" lon="17.6415916">
        <ele>24.1703</ele>
        <time>2013-04-26T19:54:12Z</time>
      </trkpt>
      <trkpt lat="59.9320488" lon="17.6416294">
        <ele>24.1703</ele>
        <time>2013-04-26T19:54:13Z</time>
      </trkpt>
      <trkpt lat="59.9320971" lon="17.6416762">
        <ele>24.1703</ele>
        <time>2013-04-26T19:54:14Z</time>
      </trkpt>
      <trkpt lat="59.9321479" lon="17.6417264">
        <ele>23.6896</ele>
        <time>2013-04-26T19:54:15Z</time>
      </trkpt>
      <trkpt lat="59.9322024" lon="17.6417783">
        <ele>23.6896</ele>
        <time>2013-04-26T19:54:16Z</time>
      </trkpt>
      <trkpt lat="59.9322587" lon="17.6418322">
        <ele>23.6896</ele>
        <time>2013-04-26T19:54:17Z</time>
      </trkpt>
      <trkpt lat="59.9323161" lon="17.6418861">
        <ele>23.209</ele>
        <time>2013-04-26T19:54:18Z</time>
      </trkpt>
      <trkpt lat="59.9323747" lon="17.6419389">
        <ele>23.209</ele>
        <time>2013-04-26T19:54:19Z</time>
      </trkpt>
      <trkpt lat="59.9324341" lon="17.6419906">
        <ele>23.209</ele>
        <time>2013-04-26T19:54:20Z</time>
      </trkpt>
      <trkpt lat="59.9324927" lon="17.6420447">
        <ele>23.209</ele>
        <time>2013-04-26T19:54:21Z</time>
      </trkpt>
      <trkpt lat="59.9325499" lon="17.6421031">
        <ele>23.209</ele>
        <time>2013-04-26T19:54:22Z</time>
      </trkpt>
      <trkpt lat="59.9326061" lon="17.6421642">
        <ele>23.209</ele>
        <time>2013-04-26T19:54:23Z</time>
      </trkpt>
      <trkpt lat="59.932661" lon="17.6422281">
        <ele>23.209</ele>
        <time>2013-04-26T19:54:24Z</time>
      </trkpt>
      <trkpt lat="59.9327144" lon="17.6422964">
        <ele>23.209</ele>
        <time>2013-04-26T19:54:25Z</time>
      </trkpt>
      <trkpt lat="59.9327639" lon="17.6423725">
        <ele>23.6896</ele>
        <time>2013-04-26T19:54:26Z</time>
      </trkpt>
      <trkpt lat="59.9328083" lon="17.6424565">
        <ele>23.6896</ele>
        <time>2013-04-26T19:54:27Z</time>
      </trkpt>
      <trkpt lat="59.9328508" lon="17.6425414">
        <ele>23.6896</ele>
        <time>2013-04-26T19:54:28Z</time>
      </trkpt>
      <trkpt lat="59.9328959" lon="17.6426191">
        <ele>24.1703</ele>
        <time>2013-04-26T19:54:29Z</time>
      </trkpt>
      <trkpt lat="59.9329425" lon="17.6426915">
        <ele>24.1703</ele>
        <time>2013-04-26T19:54:30Z</time>
      </trkpt>
      <trkpt lat="59.93299" lon="17.6427589">
        <ele>24.1703</ele>
        <time>2013-04-26T19:54:31Z</time>
      </trkpt>
      <trkpt lat="59.9330388" lon="17.6428232">
        <ele>24.1703</ele>
        <time>2013-04-26T19:54:32Z</time>
      </trkpt>
      <trkpt lat="59.9330887" lon="17.6428884">
        <ele>24.1703</ele>
        <time>2013-04-26T19:54:33Z</time>
      </trkpt>
      <trkpt lat="59.9331381" lon="17.6429543">
        <ele>24.651</ele>
        <time>2013-04-26T19:54:34Z</time>
      </trkpt>
      <trkpt lat="59.9331854" lon="17.6430226">
        <ele>24.651</ele>
        <time>2013-04-26T19:54:35Z</time>
      </trkpt>
      <trkpt lat="59.9332305" lon="17.6430944">
        <ele>24.651</ele>
        <time>2013-04-26T19:54:36Z</time>
      </trkpt>
      <trkpt lat="59.9332731" lon="17.643168">
        <ele>25.1317</ele>
        <time>2013-04-26T19:54:37Z</time>
      </trkpt>
      <trkpt lat="59.933314" lon="17.6432391">
        <ele>25.6123</ele>
        <time>2013-04-26T19:54:38Z</time>
      </trkpt>
      <trkpt lat="59.9333539" lon="17.6433035">
        <ele>25.6123</ele>
        <time>2013-04-26T19:54:39Z</time>
      </trkpt>
      <trkpt lat="59.9333929" lon="17.6433634">
        <ele>26.0929</ele>
        <time>2013-04-26T19:54:40Z</time>
      </trkpt>
      <trkpt lat="59.9334313" lon="17.6434199">
        <ele>26.5736</ele>
        <time>2013-04-26T19:54:41Z</time>
      </trkpt>
      <trkpt lat="59.9334706" lon="17.6434712">
        <ele>26.5736</ele>
        <time>2013-04-26T19:54:42Z</time>
      </trkpt>
      <trkpt lat="59.9335118" lon="17.6435188">
        <ele>26.5736</ele>
        <time>2013-04-26T19:54:43Z</time>
      </trkpt>
      <trkpt lat="59.9335526" lon="17.6435661">
        <ele>27.0543</ele>
        <time>2013-04-26T19:54:44Z</time>
      </trkpt>
      <trkpt lat="59.9335942" lon="17.6436077">
        <ele>27.0543</ele>
        <time>2013-04-26T19:54:45Z</time>
      </trkpt>
      <trkpt lat="59.9336355" lon="17.6436515">
        <ele>27.5349</ele>
        <time>2013-04-26T19:54:46Z</time>
      </trkpt>
      <trkpt lat="59.9336774" lon="17.643699">
        <ele>28.0155</ele>
        <time>2013-04-26T19:54:47Z</time>
      </trkpt>
      <trkpt lat="59.9337188" lon="17.643744">
        <ele>28.0155</ele>
        <time>2013-04-26T19:54:48Z</time>
      </trkpt>
      <trkpt lat="59.9337619" lon="17.6437873">
        <ele>28.0155</ele>
        <time>2013-04-26T19:54:49Z</time>
      </trkpt>
      <trkpt lat="59.9338055" lon="17.6438315">
        <ele>28.4962</ele>
        <time>2013-04-26T19:54:50Z</time>
      </trkpt>
      <trkpt lat="59.9338498" lon="17.6438745">
        <ele>28.4962</ele>
        <time>2013-04-26T19:54:51Z</time>
      </trkpt>
      <trkpt lat="59.933896" lon="17.6439182">
        <ele>28.4962</ele>
        <time>2013-04-26T19:54:52Z</time>
      </trkpt>
      <trkpt lat="59.9339428" lon="17.643967">
        <ele>28.4962</ele>
        <time>2013-04-26T19:54:53Z</time>
      </trkpt>
      <trkpt lat="59.9339892" lon="17.6440232">
        <ele>28.4962</ele>
        <time>2013-04-26T19:54:54Z</time>
      </trkpt>
      <trkpt lat="59.934036" lon="17.644082">
        <ele>28.9769</ele>
        <time>2013-04-26T19:54:55Z</time>
      </trkpt>
      <trkpt lat="59.9340837" lon="17.6441436">
        <ele>28.9769</ele>
        <time>2013-04-26T19:54:56Z</time>
      </trkpt>
      <trkpt lat="59.9341321" lon="17.6442066">
        <ele>28.9769</ele>
        <time>2013-04-26T19:54:57Z</time>
      </trkpt>
      <trkpt lat="59.9341816" lon="17.6442705">
        <ele>29.4575</ele>
        <time>2013-04-26T19:54:58Z</time>
      </trkpt>
      <trkpt lat="59.9342308" lon="17.6443329">
        <ele>29.4575</ele>
        <time>2013-04-26T19:54:59Z</time>
      </trkpt>
      <trkpt lat="59.9342782" lon="17.6443926">
        <ele>29.4575</ele>
        <time>2013-04-26T19:55:00Z</time>
      </trkpt>
      <trkpt lat="59.9343233" lon="17.6444544">
        <ele>29.9381</ele>
        <time>2013-04-26T19:55:01Z</time>
      </trkpt>
      <trkpt lat="59.9343661" lon="17.644517">
        <ele>29.9381</ele>
        <time>2013-04-26T19:55:02Z</time>
      </trkpt>
      <trkpt lat="59.9344057" lon="17.6445793">
        <ele>30.4188</ele>
        <time>2013-04-26T19:55:03Z</time>
      </trkpt>
      <trkpt lat="59.9344395" lon="17.6446414">
        <ele>30.8995</ele>
        <time>2013-04-26T19:55:04Z</time>
      </trkpt>
      <trkpt lat="59.9344692" lon="17.6447">
        <ele>31.3801</ele>
        <time>2013-04-26T19:55:05Z</time>
      </trkpt>
      <trkpt lat="59.9344996" lon="17.6447537">
        <ele>31.3801</ele>
        <time>2013-04-26T19:55:06Z</time>
      </trkpt>
      <trkpt lat="59.9345323" lon="17.6447989">
        <ele>31.8607</ele>
        <time>2013-04-26T19:55:07Z</time>
      </trkpt>
      <trkpt lat="59.9345676" lon="17.6448417">
        <ele>31.8607</ele>
        <time>2013-04-26T19:55:08Z</time>
      </trkpt>
      <trkpt lat="59.9346036" lon="17.6448874">
        <ele>32.3416</ele>
        <time>2013-04-26T19:55:09Z</time>
      </trkpt>
      <trkpt lat="59.9346393" lon="17.6449366">
        <ele>32.3416</ele>
        <time>2013-04-26T19:55:10Z</time>
      </trkpt>
      <trkpt lat="59.9346764" lon="17.6449858">
        <ele>32.3416</ele>
        <time>2013-04-26T19:55:11Z</time>
      </trkpt>
      <trkpt lat="59.9347156" lon="17.6450335">
        <ele>32.8223</ele>
        <time>2013-04-26T19:55:12Z</time>
      </trkpt>
      <trkpt lat="59.9347541" lon="17.6450858">
        <ele>32.8223</ele>
        <time>2013-04-26T19:55:13Z</time>
      </trkpt>
      <trkpt lat="59.934794" lon="17.6451407">
        <ele>32.8223</ele>
        <time>2013-04-26T19:55:14Z</time>
      </trkpt>
      <trkpt lat="59.9348344" lon="17.6451956">
        <ele>32.8223</ele>
        <time>2013-04-26T19:55:15Z</time>
      </trkpt>
      <trkpt lat="59.9348773" lon="17.6452453">
        <ele>33.3029</ele>
        <time>2013-04-26T19:55:16Z</time>
      </trkpt>
      <trkpt lat="59.9349217" lon="17.6452905">
        <ele>33.3029</ele>
        <time>2013-04-26T19:55:17Z</time>
      </trkpt>
      <trkpt lat="59.9349643" lon="17.6453427">
        <ele>33.7834</ele>
        <time>2013-04-26T19:55:18Z</time>
      </trkpt>
      <trkpt lat="59.9350042" lon="17.6454044">
        <ele>33.7834</ele>
        <time>2013-04-26T19:55:19Z</time>
      </trkpt>
      <trkpt lat="59.9350389" lon="17.6454788">
        <ele>33.7834</ele>
        <time>2013-04-26T19:55:20Z</time>
      </trkpt>
      <trkpt lat="59.9350692" lon="17.6455613">
        <ele>33.7834</ele>
        <time>2013-04-26T19:55:21Z</time>
      </trkpt>
      <trkpt lat="59.9350995" lon="17.645644">
        <ele>34.2642</ele>
        <time>2013-04-26T19:55:22Z</time>
      </trkpt>
      <trkpt lat="59.9351331" lon="17.6457244">
        <ele>34.2642</ele>
        <time>2013-04-26T19:55:23Z</time>
      </trkpt>
      <trkpt lat="59.9351706" lon="17.6457979">
        <ele>34.2642</ele>
        <time>2013-04-26T19:55:24Z</time>
      </trkpt>
      <trkpt lat="59.9352137" lon="17.6458644">
        <ele>34.2642</ele>
        <time>2013-04-26T19:55:25Z</time>
      </trkpt>
      <trkpt lat="59.9352601" lon="17.645926">
        <ele>34.7449</ele>
        <time>2013-04-26T19:55:26Z</time>
      </trkpt>
      <trkpt lat="59.935308" lon="17.6459864">
        <ele>34.7449</ele>
        <time>2013-04-26T19:55:27Z</time>
      </trkpt>
      <trkpt lat="59.9353572" lon="17.6460476">
        <ele>34.2642</ele>
        <time>2013-04-26T19:55:28Z</time>
      </trkpt>
      <trkpt lat="59.9354077" lon="17.6461084">
        <ele>34.2642</ele>
        <time>2013-04-26T19:55:29Z</time>
      </trkpt>
      <trkpt lat="59.9354594" lon="17.6461708">
        <ele>34.7449</ele>
        <time>2013-04-26T19:55:30Z</time>
      </trkpt>
      <trkpt lat="59.9355114" lon="17.6462348">
        <ele>34.7449</ele>
        <time>2013-04-26T19:55:31Z</time>
      </trkpt>
      <trkpt lat="59.9355629" lon="17.6463016">
        <ele>34.7449</ele>
        <time>2013-04-26T19:55:32Z</time>
      </trkpt>
      <trkpt lat="59.9356142" lon="17.6463715">
        <ele>34.7449</ele>
        <time>2013-04-26T19:55:33Z</time>
      </trkpt>
      <trkpt lat="59.9356667" lon="17.6464397">
        <ele>34.7449</ele>
        <time>2013-04-26T19:55:34Z</time>
      </trkpt>
      <trkpt lat="59.9357209" lon="17.646505">
        <ele>34.7449</ele>
        <time>2013-04-26T19:55:35Z</time>
      </trkpt>
      <trkpt lat="59.9357739" lon="17.6465707">
        <ele>34.2642</ele>
        <time>2013-04-26T19:55:36Z</time>
      </trkpt>
      <trkpt lat="59.9358273" lon="17.6466373">
        <ele>34.2642</ele>
        <time>2013-04-26T19:55:37Z</time>
      </trkpt>
      <trkpt lat="59.935881" lon="17.646702">
        <ele>34.2642</ele>
        <time>2013-04-26T19:55:38Z</time>
      </trkpt>
      <trkpt lat="59.9359353" lon="17.6467673">
        <ele>34.2642</ele>
        <time>2013-04-26T19:55:39Z</time>
      </trkpt>
      <trkpt lat="59.9359898" lon="17.6468336">
        <ele>34.2642</ele>
        <time>2013-04-26T19:55:40Z</time>
      </trkpt>
      <trkpt lat="59.9360434" lon="17.6468997">
        <ele>33.7834</ele>
        <time>2013-04-26T19:55:41Z</time>
      </trkpt>
      <trkpt lat="59.9360965" lon="17.6469673">
        <ele>33.7834</ele>
        <time>2013-04-26T19:55:42Z</time>
      </trkpt>
      <trkpt lat="59.9361489" lon="17.6470368">
        <ele>33.7834</ele>
        <time>2013-04-26T19:55:43Z</time>
      </trkpt>
      <trkpt lat="59.9362023" lon="17.6471054">
        <ele>33.7834</ele>
        <time>2013-04-26T19:55:44Z</time>
      </trkpt>
      <trkpt lat="59.9362567" lon="17.6471727">
        <ele>33.3029</ele>
        <time>2013-04-26T19:55:45Z</time>
      </trkpt>
      <trkpt lat="59.9363114" lon="17.6472403">
        <ele>33.3029</ele>
        <time>2013-04-26T19:55:46Z</time>
      </trkpt>
      <trkpt lat="59.9363659" lon="17.6473091">
        <ele>33.3029</ele>
        <time>2013-04-26T19:55:47Z</time>
      </trkpt>
      <trkpt lat="59.9364209" lon="17.6473759">
        <ele>33.3029</ele>
        <time>2013-04-26T19:55:48Z</time>
      </trkpt>
      <trkpt lat="59.9364758" lon="17.6474422">
        <ele>32.8223</ele>
        <time>2013-04-26T19:55:49Z</time>
      </trkpt>
      <trkpt lat="59.9365317" lon="17.6475127">
        <ele>32.8223</ele>
        <time>2013-04-26T19:55:50Z</time>
      </trkpt>
      <trkpt lat="59.9365882" lon="17.6475866">
        <ele>32.8223</ele>
        <time>2013-04-26T19:55:51Z</time>
      </trkpt>
      <trkpt lat="59.936646" lon="17.6476594">
        <ele>32.8223</ele>
        <time>2013-04-26T19:55:52Z</time>
      </trkpt>
      <trkpt lat="59.9367048" lon="17.6477308">
        <ele>32.3416</ele>
        <time>2013-04-26T19:55:53Z</time>
      </trkpt>
      <trkpt lat="59.9367627" lon="17.6478037">
        <ele>32.3416</ele>
        <time>2013-04-26T19:55:54Z</time>
      </trkpt>
      <trkpt lat="59.9368214" lon="17.6478779">
        <ele>32.3416</ele>
        <time>2013-04-26T19:55:55Z</time>
      </trkpt>
      <trkpt lat="59.9368817" lon="17.647952">
        <ele>32.3416</ele>
        <time>2013-04-26T19:55:56Z</time>
      </trkpt>
      <trkpt lat="59.936942" lon="17.6480275">
        <ele>32.3416</ele>
        <time>2013-04-26T19:55:57Z</time>
      </trkpt>
      <trkpt lat="59.9370014" lon="17.6481061">
        <ele>32.3416</ele>
        <time>2013-04-26T19:55:58Z</time>
      </trkpt>
      <trkpt lat="59.9370615" lon="17.6481854">
        <ele>32.3416</ele>
        <time>2013-04-26T19:55:59Z</time>
      </trkpt>
      <trkpt lat="59.9371218" lon="17.6482633">
        <ele>32.3416</ele>
        <time>2013-04-26T19:56:00Z</time>
      </trkpt>
      <trkpt lat="59.9371819" lon="17.6483425">
        <ele>32.3416</ele>
        <time>2013-04-26T19:56:01Z</time>
      </trkpt>
      <trkpt lat="59.937242" lon="17.6484244">
        <ele>32.3416</ele>
        <time>2013-04-26T19:56:02Z</time>
      </trkpt>
      <trkpt lat="59.9373026" lon="17.6485089">
        <ele>31.8607</ele>
        <time>2013-04-26T19:56:03Z</time>
      </trkpt>
      <trkpt lat="59.9373617" lon="17.6485995">
        <ele>31.8607</ele>
        <time>2013-04-26T19:56:04Z</time>
      </trkpt>
      <trkpt lat="59.9374205" lon="17.6486916">
        <ele>31.8607</ele>
        <time>2013-04-26T19:56:05Z</time>
      </trkpt>
      <trkpt lat="59.9374797" lon="17.6487849">
        <ele>31.3801</ele>
        <time>2013-04-26T19:56:06Z</time>
      </trkpt>
      <trkpt lat="59.9375386" lon="17.6488808">
        <ele>31.3801</ele>
        <time>2013-04-26T19:56:07Z</time>
      </trkpt>
      <trkpt lat="59.9375973" lon="17.6489803">
        <ele>31.3801</ele>
        <time>2013-04-26T19:56:08Z</time>
      </trkpt>
      <trkpt lat="59.9376543" lon="17.6490829">
        <ele>30.8995</ele>
        <time>2013-04-26T19:56:09Z</time>
      </trkpt>
      <trkpt lat="59.937709" lon="17.649187">
        <ele>30.8995</ele>
        <time>2013-04-26T19:56:10Z</time>
      </trkpt>
      <trkpt lat="59.937761" lon="17.6492936">
        <ele>30.4188</ele>
        <time>2013-04-26T19:56:11Z</time>
      </trkpt>
      <trkpt lat="59.9378045" lon="17.6494137">
        <ele>30.4188</ele>
        <time>2013-04-26T19:56:12Z</time>
      </trkpt>
      <trkpt lat="59.9378439" lon="17.6495419">
        <ele>30.4188</ele>
        <time>2013-04-26T19:56:13Z</time>
      </trkpt>
      <trkpt lat="59.9378857" lon="17.6496682">
        <ele>30.4188</ele>
        <time>2013-04-26T19:56:14Z</time>
      </trkpt>
      <trkpt lat="59.9379305" lon="17.6497925">
        <ele>30.4188</ele>
        <time>2013-04-26T19:56:15Z</time>
      </trkpt>
      <trkpt lat="59.9379774" lon="17.6499172">
        <ele>30.4188</ele>
        <time>2013-04-26T19:56:16Z</time>
      </trkpt>
      <trkpt lat="59.9380247" lon="17.6500431">
        <ele>30.4188</ele>
        <time>2013-04-26T19:56:17Z</time>
      </trkpt>
      <trkpt lat="59.9380717" lon="17.6501721">
        <ele>29.9381</ele>
        <time>2013-04-26T19:56:18Z</time>
      </trkpt>
      <trkpt lat="59.9381185" lon="17.6503035">
        <ele>29.9381</ele>
        <time>2013-04-26T19:56:19Z</time>
      </trkpt>
      <trkpt lat="59.9381646" lon="17.6504365">
        <ele>29.9381</ele>
        <time>2013-04-26T19:56:20Z</time>
      </trkpt>
      <trkpt lat="59.9382113" lon="17.650569">
        <ele>29.9381</ele>
        <time>2013-04-26T19:56:21Z</time>
      </trkpt>
      <trkpt lat="59.9382596" lon="17.6506985">
        <ele>29.9381</ele>
        <time>2013-04-26T19:56:22Z</time>
      </trkpt>
      <trkpt lat="59.93831" lon="17.6508238">
        <ele>29.4575</ele>
        <time>2013-04-26T19:56:23Z</time>
      </trkpt>
      <trkpt lat="59.9383624" lon="17.6509474">
        <ele>29.4575</ele>
        <time>2013-04-26T19:56:24Z</time>
      </trkpt>
      <trkpt lat="59.9384153" lon="17.651073">
        <ele>29.4575</ele>
        <time>2013-04-26T19:56:25Z</time>
      </trkpt>
      <trkpt lat="59.938465" lon="17.6512038">
        <ele>29.4575</ele>
        <time>2013-04-26T19:56:26Z</time>
      </trkpt>
      <trkpt lat="59.9385125" lon="17.6513392">
        <ele>29.4575</ele>
        <time>2013-04-26T19:56:27Z</time>
      </trkpt>
      <trkpt lat="59.9385586" lon="17.6514755">
        <ele>29.9381</ele>
        <time>2013-04-26T19:56:28Z</time>
      </trkpt>
      <trkpt lat="59.9386033" lon="17.6516134">
        <ele>29.9381</ele>
        <time>2013-04-26T19:56:29Z</time>
      </trkpt>
      <trkpt lat="59.9386468" lon="17.6517532">
        <ele>29.9381</ele>
        <time>2013-04-26T19:56:30Z</time>
      </trkpt>
      <trkpt lat="59.9386884" lon="17.6518951">
        <ele>29.9381</ele>
        <time>2013-04-26T19:56:31Z</time>
      </trkpt>
      <trkpt lat="59.9387287" lon="17.652036">
        <ele>29.9381</ele>
        <time>2013-04-26T19:56:32Z</time>
      </trkpt>
      <trkpt lat="59.9387686" lon="17.6521761">
        <ele>29.9381</ele>
        <time>2013-04-26T19:56:33Z</time>
      </trkpt>
      <trkpt lat="59.9388087" lon="17.6523189">
        <ele>29.9381</ele>
        <time>2013-04-26T19:56:34Z</time>
      </trkpt>
      <trkpt lat="59.9388487" lon="17.6524633">
        <ele>30.4188</ele>
        <time>2013-04-26T19:56:35Z</time>
      </trkpt>
      <trkpt lat="59.9388887" lon="17.6526084">
        <ele>30.4188</ele>
        <time>2013-04-26T19:56:36Z</time>
      </trkpt>
      <trkpt lat="59.9389259" lon="17.6527524">
        <ele>30.4188</ele>
        <time>2013-04-26T19:56:37Z</time>
      </trkpt>
      <trkpt lat="59.9389605" lon="17.6528952">
        <ele>29.9381</ele>
        <time>2013-04-26T19:56:38Z</time>
      </trkpt>
      <trkpt lat="59.9389934" lon="17.6530361">
        <ele>29.9381</ele>
        <time>2013-04-26T19:56:39Z</time>
      </trkpt>
      <trkpt lat="59.9390287" lon="17.6531771">
        <ele>29.9381</ele>
        <time>2013-04-26T19:56:40Z</time>
      </trkpt>
      <trkpt lat="59.9390628" lon="17.6533183">
        <ele>29.9381</ele>
        <time>2013-04-26T19:56:41Z</time>
      </trkpt>
      <trkpt lat="59.9390957" lon="17.65346">
        <ele>29.4575</ele>
        <time>2013-04-26T19:56:42Z</time>
      </trkpt>
      <trkpt lat="59.9391279" lon="17.6536022">
        <ele>29.4575</ele>
        <time>2013-04-26T19:56:43Z</time>
      </trkpt>
      <trkpt lat="59.9391587" lon="17.6537443">
        <ele>29.4575</ele>
        <time>2013-04-26T19:56:44Z</time>
      </trkpt>
      <trkpt lat="59.9391892" lon="17.6538859">
        <ele>29.4575</ele>
        <time>2013-04-26T19:56:45Z</time>
      </trkpt>
      <trkpt lat="59.9392209" lon="17.6540267">
        <ele>29.9381</ele>
        <time>2013-04-26T19:56:46Z</time>
      </trkpt>
      <trkpt lat="59.9392518" lon="17.6541648">
        <ele>29.9381</ele>
        <time>2013-04-26T19:56:47Z</time>
      </trkpt>
      <trkpt lat="59.9392815" lon="17.6543021">
        <ele>29.9381</ele>
        <time>2013-04-26T19:56:48Z</time>
      </trkpt>
      <trkpt lat="59.9393094" lon="17.6544406">
        <ele>29.9381</ele>
        <time>2013-04-26T19:56:49Z</time>
      </trkpt>
      <trkpt lat="59.9393369" lon="17.6545784">
        <ele>29.9381</ele>
        <time>2013-04-26T19:56:50Z</time>
      </trkpt>
      <trkpt lat="59.9393648" lon="17.6547159">
        <ele>29.9381</ele>
        <time>2013-04-26T19:56:51Z</time>
      </trkpt>
      <trkpt lat="59.9393925" lon="17.6548533">
        <ele>29.9381</ele>
        <time>2013-04-26T19:56:52Z</time>
      </trkpt>
      <trkpt lat="59.9394196" lon="17.6549907">
        <ele>30.4188</ele>
        <time>2013-04-26T19:56:53Z</time>
      </trkpt>
      <trkpt lat="59.939448" lon="17.6551269">
        <ele>30.4188</ele>
        <time>2013-04-26T19:56:54Z</time>
      </trkpt>
      <trkpt lat="59.9394772" lon="17.6552626">
        <ele>30.4188</ele>
        <time>2013-04-26T19:56:55Z</time>
      </trkpt>
      <trkpt lat="59.9395049" lon="17.6553997">
        <ele>30.4188</ele>
        <time>2013-04-26T19:56:56Z</time>
      </trkpt>
      <trkpt lat="59.9395309" lon="17.6555377">
        <ele>30.4188</ele>
        <time>2013-04-26T19:56:57Z</time>
      </trkpt>
      <trkpt lat="59.9395573" lon="17.6556758">
        <ele>30.4188</ele>
        <time>2013-04-26T19:56:58Z</time>
      </trkpt>
      <trkpt lat="59.9395852" lon="17.6558132">
        <ele>30.8995</ele>
        <time>2013-04-26T19:56:59Z</time>
      </trkpt>
      <trkpt lat="59.9396134" lon="17.6559502">
        <ele>30.8995</ele>
        <time>2013-04-26T19:57:00Z</time>
      </trkpt>
      <trkpt lat="59.9396412" lon="17.6560884">
        <ele>30.8995</ele>
        <time>2013-04-26T19:57:01Z</time>
      </trkpt>
      <trkpt lat="59.9396693" lon="17.6562272">
        <ele>30.8995</ele>
        <time>2013-04-26T19:57:02Z</time>
      </trkpt>
      <trkpt lat="59.9396978" lon="17.6563658">
        <ele>30.4188</ele>
        <time>2013-04-26T19:57:03Z</time>
      </trkpt>
      <trkpt lat="59.9397263" lon="17.6565052">
        <ele>30.4188</ele>
        <time>2013-04-26T19:57:04Z</time>
      </trkpt>
      <trkpt lat="59.9397548" lon="17.6566457">
        <ele>30.4188</ele>
        <time>2013-04-26T19:57:05Z</time>
      </trkpt>
      <trkpt lat="59.9397819" lon="17.6567869">
        <ele>30.4188</ele>
        <time>2013-04-26T19:57:06Z</time>
      </trkpt>
      <trkpt lat="59.9398096" lon="17.6569286">
        <ele>30.4188</ele>
        <time>2013-04-26T19:57:07Z</time>
      </trkpt>
      <trkpt lat="59.9398388" lon="17.657071">
        <ele>30.4188</ele>
        <time>2013-04-26T19:57:08Z</time>
      </trkpt>
      <trkpt lat="59.9398684" lon="17.6572148">
        <ele>29.9381</ele>
        <time>2013-04-26T19:57:09Z</time>
      </trkpt>
      <trkpt lat="59.9398976" lon="17.6573604">
        <ele>29.9381</ele>
        <time>2013-04-26T19:57:10Z</time>
      </trkpt>
      <trkpt lat="59.9399266" lon="17.6575082">
        <ele>29.9381</ele>
        <time>2013-04-26T19:57:11Z</time>
      </trkpt>
      <trkpt lat="59.9399562" lon="17.6576574">
        <ele>29.4575</ele>
        <time>2013-04-26T19:57:12Z</time>
      </trkpt>
      <trkpt lat="59.9399869" lon="17.6578074">
        <ele>29.4575</ele>
        <time>2013-04-26T19:57:13Z</time>
      </trkpt>
      <trkpt lat="59.9400175" lon="17.6579582">
        <ele>29.4575</ele>
        <time>2013-04-26T19:57:14Z</time>
      </trkpt>
      <trkpt lat="59.9400485" lon="17.6581111">
        <ele>28.9769</ele>
        <time>2013-04-26T19:57:15Z</time>
      </trkpt>
      <trkpt lat="59.9400803" lon="17.6582664">
        <ele>28.4962</ele>
        <time>2013-04-26T19:57:16Z</time>
      </trkpt>
      <trkpt lat="59.9401133" lon="17.6584228">
        <ele>28.4962</ele>
        <time>2013-04-26T19:57:17Z</time>
      </trkpt>
      <trkpt lat="59.9401481" lon="17.6585789">
        <ele>28.4962</ele>
        <time>2013-04-26T19:57:18Z</time>
      </trkpt>
      <trkpt lat="59.9401842" lon="17.6587349">
        <ele>28.4962</ele>
        <time>2013-04-26T19:57:19Z</time>
      </trkpt>
      <trkpt lat="59.9402201" lon="17.6588912">
        <ele>28.4962</ele>
        <time>2013-04-26T19:57:20Z</time>
      </trkpt>
      <trkpt lat="59.9402545" lon="17.6590487">
        <ele>28.4962</ele>
        <time>2013-04-26T19:57:21Z</time>
      </trkpt>
      <trkpt lat="59.9402863" lon="17.6592074">
        <ele>28.9769</ele>
        <time>2013-04-26T19:57:22Z</time>
      </trkpt>
      <trkpt lat="59.9403138" lon="17.6593644">
        <ele>28.9769</ele>
        <time>2013-04-26T19:57:23Z</time>
      </trkpt>
      <trkpt lat="59.9403396" lon="17.6595184">
        <ele>29.4575</ele>
        <time>2013-04-26T19:57:24Z</time>
      </trkpt>
      <trkpt lat="59.9403652" lon="17.6596669">
        <ele>29.4575</ele>
        <time>2013-04-26T19:57:25Z</time>
      </trkpt>
      <trkpt lat="59.9403951" lon="17.6598108">
        <ele>29.4575</ele>
        <time>2013-04-26T19:57:26Z</time>
      </trkpt>
      <trkpt lat="59.9404205" lon="17.6599302">
        <ele>29.9381</ele>
        <time>2013-04-26T19:57:27Z</time>
      </trkpt>
      <trkpt lat="59.9404768" lon="17.6600603">
        <ele>29.9381</ele>
        <time>2013-04-26T19:57:28Z</time>
      </trkpt>
      <trkpt lat="59.9405179" lon="17.6601501">
        <ele>30.4188</ele>
        <time>2013-04-26T19:57:29Z</time>
      </trkpt>
      <trkpt lat="59.9405368" lon="17.6602667">
        <ele>29.9381</ele>
        <time>2013-04-26T19:57:30Z</time>
      </trkpt>
      <trkpt lat="59.9405743" lon="17.6603955">
        <ele>28.9769</ele>
        <time>2013-04-26T19:57:31Z</time>
      </trkpt>
      <trkpt lat="59.9405509" lon="17.6605888">
        <ele>27.5349</ele>
        <time>2013-04-26T19:57:32Z</time>
      </trkpt>
      <trkpt lat="59.9404971" lon="17.6607173">
        <ele>26.0929</ele>
        <time>2013-04-26T19:57:33Z</time>
      </trkpt>
      <trkpt lat="59.9404557" lon="17.6608881">
        <ele>25.6123</ele>
        <time>2013-04-26T19:57:34Z</time>
      </trkpt>
      <trkpt lat="59.9404282" lon="17.6610548">
        <ele>25.1317</ele>
        <time>2013-04-26T19:57:35Z</time>
      </trkpt>
      <trkpt lat="59.9404139" lon="17.6612203">
        <ele>25.1317</ele>
        <time>2013-04-26T19:57:36Z</time>
      </trkpt>
      <trkpt lat="59.9404049" lon="17.6613947">
        <ele>25.6123</ele>
        <time>2013-04-26T19:57:37Z</time>
      </trkpt>
      <trkpt lat="59.9404007" lon="17.6615518">
        <ele>26.0929</ele>
        <time>2013-04-26T19:57:38Z</time>
      </trkpt>
      <trkpt lat="59.9404065" lon="17.6617056">
        <ele>26.0929</ele>
        <time>2013-04-26T19:57:39Z</time>
      </trkpt>
      <trkpt lat="59.9404433" lon="17.6618484">
        <ele>26.0929</ele>
        <time>2013-04-26T19:57:40Z</time>
      </trkpt>
      <trkpt lat="59.9404936" lon="17.6619697">
        <ele>26.5736</ele>
        <time>2013-04-26T19:57:41Z</time>
      </trkpt>
      <trkpt lat="59.9405603" lon="17.6620574">
        <ele>27.0543</ele>
        <time>2013-04-26T19:57:42Z</time>
      </trkpt>
      <trkpt lat="59.9406322" lon="17.6621211">
        <ele>27.0543</ele>
        <time>2013-04-26T19:57:43Z</time>
      </trkpt>
      <trkpt lat="59.9407121" lon="17.6621611">
        <ele>27.5349</ele>
        <time>2013-04-26T19:57:44Z</time>
      </trkpt>
      <trkpt lat="59.9407901" lon="17.6621851">
        <ele>27.5349</ele>
        <time>2013-04-26T19:57:45Z</time>
      </trkpt>
      <trkpt lat="59.9408872" lon="17.6622048">
        <ele>28.4962</ele>
        <time>2013-04-26T19:57:46Z</time>
      </trkpt>
      <trkpt lat="59.9409732" lon="17.6622178">
        <ele>28.9769</ele>
        <time>2013-04-26T19:57:47Z</time>
      </trkpt>
      <trkpt lat="59.9410524" lon="17.6622392">
        <ele>29.4575</ele>
        <time>2013-04-26T19:57:48Z</time>
      </trkpt>
      <trkpt lat="59.9411322" lon="17.6622786">
        <ele>29.4575</ele>
        <time>2013-04-26T19:57:49Z</time>
      </trkpt>
      <trkpt lat="59.9412102" lon="17.6623278">
        <ele>29.9381</ele>
        <time>2013-04-26T19:57:50Z</time>
      </trkpt>
      <trkpt lat="59.9412875" lon="17.6623828">
        <ele>30.4188</ele>
        <time>2013-04-26T19:57:51Z</time>
      </trkpt>
      <trkpt lat="59.9413641" lon="17.6624463">
        <ele>30.8995</ele>
        <time>2013-04-26T19:57:52Z</time>
      </trkpt>
      <trkpt lat="59.9414384" lon="17.6625231">
        <ele>31.3801</ele>
        <time>2013-04-26T19:57:53Z</time>
      </trkpt>
      <trkpt lat="59.9415047" lon="17.6626117">
        <ele>31.3801</ele>
        <time>2013-04-26T19:57:54Z</time>
      </trkpt>
      <trkpt lat="59.9415688" lon="17.6627011">
        <ele>31.3801</ele>
        <time>2013-04-26T19:57:55Z</time>
      </trkpt>
      <trkpt lat="59.941629" lon="17.6627987">
        <ele>31.8607</ele>
        <time>2013-04-26T19:57:56Z</time>
      </trkpt>
      <trkpt lat="59.9416855" lon="17.6629005">
        <ele>31.3801</ele>
        <time>2013-04-26T19:57:57Z</time>
      </trkpt>
      <trkpt lat="59.9417397" lon="17.6630047">
        <ele>31.3801</ele>
        <time>2013-04-26T19:57:58Z</time>
      </trkpt>
      <trkpt lat="59.941793" lon="17.6631095">
        <ele>31.3801</ele>
        <time>2013-04-26T19:57:59Z</time>
      </trkpt>
      <trkpt lat="59.9418456" lon="17.6632106">
        <ele>31.3801</ele>
        <time>2013-04-26T19:58:00Z</time>
      </trkpt>
      <trkpt lat="59.9419009" lon="17.6633077">
        <ele>31.3801</ele>
        <time>2013-04-26T19:58:01Z</time>
      </trkpt>
      <trkpt lat="59.9419578" lon="17.6634025">
        <ele>31.3801</ele>
        <time>2013-04-26T19:58:02Z</time>
      </trkpt>
      <trkpt lat="59.942015" lon="17.6634924">
        <ele>30.8995</ele>
        <time>2013-04-26T19:58:03Z</time>
      </trkpt>
      <trkpt lat="59.9420759" lon="17.6635824">
        <ele>30.8995</ele>
        <time>2013-04-26T19:58:04Z</time>
      </trkpt>
      <trkpt lat="59.9421371" lon="17.6636704">
        <ele>30.8995</ele>
        <time>2013-04-26T19:58:05Z</time>
      </trkpt>
      <trkpt lat="59.9421987" lon="17.6637576">
        <ele>30.8995</ele>
        <time>2013-04-26T19:58:06Z</time>
      </trkpt>
      <trkpt lat="59.942261" lon="17.6638456">
        <ele>30.8995</ele>
        <time>2013-04-26T19:58:07Z</time>
      </trkpt>
      <trkpt lat="59.9423243" lon="17.6639317">
        <ele>30.8995</ele>
        <time>2013-04-26T19:58:08Z</time>
      </trkpt>
      <trkpt lat="59.9423883" lon="17.6640174">
        <ele>30.4188</ele>
        <time>2013-04-26T19:58:09Z</time>
      </trkpt>
      <trkpt lat="59.9424541" lon="17.6641005">
        <ele>30.4188</ele>
        <time>2013-04-26T19:58:10Z</time>
      </trkpt>
      <trkpt lat="59.9425195" lon="17.6641859">
        <ele>30.4188</ele>
        <time>2013-04-26T19:58:11Z</time>
      </trkpt>
      <trkpt lat="59.9425863" lon="17.6642703">
        <ele>29.9381</ele>
        <time>2013-04-26T19:58:12Z</time>
      </trkpt>
      <trkpt lat="59.9426544" lon="17.6643536">
        <ele>29.9381</ele>
        <time>2013-04-26T19:58:13Z</time>
      </trkpt>
      <trkpt lat="59.9427239" lon="17.664435">
        <ele>29.9381</ele>
        <time>2013-04-26T19:58:14Z</time>
      </trkpt>
      <trkpt lat="59.9427914" lon="17.6645081">
        <ele>29.4575</ele>
        <time>2013-04-26T19:58:15Z</time>
      </trkpt>
      <trkpt lat="59.9428618" lon="17.6645895">
        <ele>28.9769</ele>
        <time>2013-04-26T19:58:16Z</time>
      </trkpt>
      <trkpt lat="59.9429352" lon="17.6646666">
        <ele>28.9769</ele>
        <time>2013-04-26T19:58:17Z</time>
      </trkpt>
      <trkpt lat="59.9430095" lon="17.664741">
        <ele>28.4962</ele>
        <time>2013-04-26T19:58:18Z</time>
      </trkpt>
      <trkpt lat="59.9430847" lon="17.6648122">
        <ele>28.0155</ele>
        <time>2013-04-26T19:58:19Z</time>
      </trkpt>
      <trkpt lat="59.9431606" lon="17.6648809">
        <ele>28.0155</ele>
        <time>2013-04-26T19:58:20Z</time>
      </trkpt>
      <trkpt lat="59.9432369" lon="17.6649471">
        <ele>27.5349</ele>
        <time>2013-04-26T19:58:21Z</time>
      </trkpt>
      <trkpt lat="59.9433146" lon="17.6650116">
        <ele>27.5349</ele>
        <time>2013-04-26T19:58:22Z</time>
      </trkpt>
      <trkpt lat="59.9433936" lon="17.6650768">
        <ele>27.0543</ele>
        <time>2013-04-26T19:58:23Z</time>
      </trkpt>
      <trkpt lat="59.9434724" lon="17.6651391">
        <ele>27.0543</ele>
        <time>2013-04-26T19:58:24Z</time>
      </trkpt>
      <trkpt lat="59.943552" lon="17.6651982">
        <ele>27.0543</ele>
        <time>2013-04-26T19:58:25Z</time>
      </trkpt>
      <trkpt lat="59.9436322" lon="17.6652555">
        <ele>27.0543</ele>
        <time>2013-04-26T19:58:26Z</time>
      </trkpt>
      <trkpt lat="59.9437129" lon="17.6653115">
        <ele>27.0543</ele>
        <time>2013-04-26T19:58:27Z</time>
      </trkpt>
      <trkpt lat="59.9437938" lon="17.6653647">
        <ele>27.0543</ele>
        <time>2013-04-26T19:58:28Z</time>
      </trkpt>
      <trkpt lat="59.9438751" lon="17.6654139">
        <ele>26.5736</ele>
        <time>2013-04-26T19:58:29Z</time>
      </trkpt>
      <trkpt lat="59.943957" lon="17.6654597">
        <ele>26.5736</ele>
        <time>2013-04-26T19:58:30Z</time>
      </trkpt>
      <trkpt lat="59.9440398" lon="17.6655025">
        <ele>26.5736</ele>
        <time>2013-04-26T19:58:31Z</time>
      </trkpt>
      <trkpt lat="59.9441235" lon="17.6655444">
        <ele>26.5736</ele>
        <time>2013-04-26T19:58:32Z</time>
      </trkpt>
      <trkpt lat="59.9442071" lon="17.665584">
        <ele>26.5736</ele>
        <time>2013-04-26T19:58:33Z</time>
      </trkpt>
      <trkpt lat="59.944291" lon="17.6656197">
        <ele>26.0929</ele>
        <time>2013-04-26T19:58:34Z</time>
      </trkpt>
      <trkpt lat="59.9443751" lon="17.6656539">
        <ele>26.0929</ele>
        <time>2013-04-26T19:58:35Z</time>
      </trkpt>
      <trkpt lat="59.9444595" lon="17.6656875">
        <ele>26.0929</ele>
        <time>2013-04-26T19:58:36Z</time>
      </trkpt>
      <trkpt lat="59.9445443" lon="17.6657213">
        <ele>26.0929</ele>
        <time>2013-04-26T19:58:37Z</time>
      </trkpt>
      <trkpt lat="59.9446288" lon="17.665755">
        <ele>26.0929</ele>
        <time>2013-04-26T19:58:38Z</time>
      </trkpt>
      <trkpt lat="59.9447135" lon="17.665788">
        <ele>26.0929</ele>
        <time>2013-04-26T19:58:39Z</time>
      </trkpt>
      <trkpt lat="59.9448009" lon="17.6658207">
        <ele>26.5736</ele>
        <time>2013-04-26T19:58:40Z</time>
      </trkpt>
      <trkpt lat="59.9448871" lon="17.6658524">
        <ele>26.5736</ele>
        <time>2013-04-26T19:58:41Z</time>
      </trkpt>
      <trkpt lat="59.9449705" lon="17.6658844">
        <ele>26.5736</ele>
        <time>2013-04-26T19:58:42Z</time>
      </trkpt>
      <trkpt lat="59.9450541" lon="17.665916">
        <ele>26.5736</ele>
        <time>2013-04-26T19:58:43Z</time>
      </trkpt>
      <trkpt lat="59.9451378" lon="17.6659471">
        <ele>26.5736</ele>
        <time>2013-04-26T19:58:44Z</time>
      </trkpt>
      <trkpt lat="59.945221" lon="17.6659782">
        <ele>26.5736</ele>
        <time>2013-04-26T19:58:45Z</time>
      </trkpt>
      <trkpt lat="59.9453035" lon="17.6660089">
        <ele>26.5736</ele>
        <time>2013-04-26T19:58:46Z</time>
      </trkpt>
      <trkpt lat="59.9453861" lon="17.6660404">
        <ele>26.5736</ele>
        <time>2013-04-26T19:58:47Z</time>
      </trkpt>
      <trkpt lat="59.9454685" lon="17.666073">
        <ele>26.5736</ele>
        <time>2013-04-26T19:58:48Z</time>
      </trkpt>
      <trkpt lat="59.9455508" lon="17.6661042">
        <ele>26.5736</ele>
        <time>2013-04-26T19:58:49Z</time>
      </trkpt>
      <trkpt lat="59.9456331" lon="17.6661352">
        <ele>26.5736</ele>
        <time>2013-04-26T19:58:50Z</time>
      </trkpt>
      <trkpt lat="59.9457151" lon="17.6661666">
        <ele>26.5736</ele>
        <time>2013-04-26T19:58:51Z</time>
      </trkpt>
      <trkpt lat="59.9457974" lon="17.6661971">
        <ele>26.5736</ele>
        <time>2013-04-26T19:58:52Z</time>
      </trkpt>
      <trkpt lat="59.9458794" lon="17.6662275">
        <ele>26.5736</ele>
        <time>2013-04-26T19:58:53Z</time>
      </trkpt>
      <trkpt lat="59.9459607" lon="17.6662575">
        <ele>26.5736</ele>
        <time>2013-04-26T19:58:54Z</time>
      </trkpt>
      <trkpt lat="59.9460413" lon="17.6662869">
        <ele>26.5736</ele>
        <time>2013-04-26T19:58:55Z</time>
      </trkpt>
      <trkpt lat="59.9461217" lon="17.6663174">
        <ele>26.5736</ele>
        <time>2013-04-26T19:58:56Z</time>
      </trkpt>
      <trkpt lat="59.9462015" lon="17.6663522">
        <ele>26.5736</ele>
        <time>2013-04-26T19:58:57Z</time>
      </trkpt>
      <trkpt lat="59.94628" lon="17.6663972">
        <ele>26.5736</ele>
        <time>2013-04-26T19:58:58Z</time>
      </trkpt>
      <trkpt lat="59.9463573" lon="17.6664504">
        <ele>26.5736</ele>
        <time>2013-04-26T19:58:59Z</time>
      </trkpt>
      <trkpt lat="59.9464352" lon="17.6665003">
        <ele>26.5736</ele>
        <time>2013-04-26T19:59:00Z</time>
      </trkpt>
      <trkpt lat="59.9465147" lon="17.6665407">
        <ele>26.5736</ele>
        <time>2013-04-26T19:59:01Z</time>
      </trkpt>
      <trkpt lat="59.9465951" lon="17.6665698">
        <ele>26.5736</ele>
        <time>2013-04-26T19:59:02Z</time>
      </trkpt>
      <trkpt lat="59.9466764" lon="17.6665862">
        <ele>26.5736</ele>
        <time>2013-04-26T19:59:03Z</time>
      </trkpt>
      <trkpt lat="59.9467579" lon="17.6665965">
        <ele>26.0929</ele>
        <time>2013-04-26T19:59:04Z</time>
      </trkpt>
      <trkpt lat="59.9468392" lon="17.6666144">
        <ele>26.0929</ele>
        <time>2013-04-26T19:59:05Z</time>
      </trkpt>
      <trkpt lat="59.9469204" lon="17.6666437">
        <ele>26.0929</ele>
        <time>2013-04-26T19:59:06Z</time>
      </trkpt>
      <trkpt lat="59.9470008" lon="17.6666768">
        <ele>26.0929</ele>
        <time>2013-04-26T19:59:07Z</time>
      </trkpt>
      <trkpt lat="59.9470809" lon="17.6667107">
        <ele>25.6123</ele>
        <time>2013-04-26T19:59:08Z</time>
      </trkpt>
      <trkpt lat="59.9471611" lon="17.6667463">
        <ele>25.6123</ele>
        <time>2013-04-26T19:59:09Z</time>
      </trkpt>
      <trkpt lat="59.9472416" lon="17.6667827">
        <ele>25.6123</ele>
        <time>2013-04-26T19:59:10Z</time>
      </trkpt>
      <trkpt lat="59.9473219" lon="17.6668194">
        <ele>25.6123</ele>
        <time>2013-04-26T19:59:11Z</time>
      </trkpt>
      <trkpt lat="59.9474022" lon="17.6668573">
        <ele>25.6123</ele>
        <time>2013-04-26T19:59:12Z</time>
      </trkpt>
      <trkpt lat="59.947482" lon="17.666897">
        <ele>25.6123</ele>
        <time>2013-04-26T19:59:13Z</time>
      </trkpt>
      <trkpt lat="59.9475612" lon="17.6669365">
        <ele>25.6123</ele>
        <time>2013-04-26T19:59:14Z</time>
      </trkpt>
      <trkpt lat="59.9476408" lon="17.6669758">
        <ele>25.6123</ele>
        <time>2013-04-26T19:59:15Z</time>
      </trkpt>
      <trkpt lat="59.9477203" lon="17.667014">
        <ele>25.6123</ele>
        <time>2013-04-26T19:59:16Z</time>
      </trkpt>
      <trkpt lat="59.9477996" lon="17.6670516">
        <ele>25.6123</ele>
        <time>2013-04-26T19:59:17Z</time>
      </trkpt>
      <trkpt lat="59.9478788" lon="17.6670925">
        <ele>25.6123</ele>
        <time>2013-04-26T19:59:18Z</time>
      </trkpt>
      <trkpt lat="59.9479574" lon="17.6671364">
        <ele>25.6123</ele>
        <time>2013-04-26T19:59:19Z</time>
      </trkpt>
      <trkpt lat="59.9480358" lon="17.66718">
        <ele>25.6123</ele>
        <time>2013-04-26T19:59:20Z</time>
      </trkpt>
      <trkpt lat="59.9481141" lon="17.667222">
        <ele>25.1317</ele>
        <time>2013-04-26T19:59:21Z</time>
      </trkpt>
      <trkpt lat="59.9481927" lon="17.6672639">
        <ele>25.6123</ele>
        <time>2013-04-26T19:59:22Z</time>
      </trkpt>
      <trkpt lat="59.9482709" lon="17.6673074">
        <ele>25.1317</ele>
        <time>2013-04-26T19:59:23Z</time>
      </trkpt>
      <trkpt lat="59.9483491" lon="17.6673512">
        <ele>25.1317</ele>
        <time>2013-04-26T19:59:24Z</time>
      </trkpt>
      <trkpt lat="59.9484277" lon="17.6673948">
        <ele>25.1317</ele>
        <time>2013-04-26T19:59:25Z</time>
      </trkpt>
      <trkpt lat="59.9485057" lon="17.6674381">
        <ele>25.1317</ele>
        <time>2013-04-26T19:59:26Z</time>
      </trkpt>
      <trkpt lat="59.9485833" lon="17.6674815">
        <ele>25.1317</ele>
        <time>2013-04-26T19:59:27Z</time>
      </trkpt>
      <trkpt lat="59.9486605" lon="17.667525">
        <ele>25.6123</ele>
        <time>2013-04-26T19:59:28Z</time>
      </trkpt>
      <trkpt lat="59.9487371" lon="17.6675688">
        <ele>25.1317</ele>
        <time>2013-04-26T19:59:29Z</time>
      </trkpt>
      <trkpt lat="59.9488137" lon="17.6676123">
        <ele>25.1317</ele>
        <time>2013-04-26T19:59:30Z</time>
      </trkpt>
      <trkpt lat="59.9488897" lon="17.6676569">
        <ele>25.6123</ele>
        <time>2013-04-26T19:59:31Z</time>
      </trkpt>
      <trkpt lat="59.9489649" lon="17.6677031">
        <ele>25.6123</ele>
        <time>2013-04-26T19:59:32Z</time>
      </trkpt>
      <trkpt lat="59.9490396" lon="17.6677472">
        <ele>25.6123</ele>
        <time>2013-04-26T19:59:33Z</time>
      </trkpt>
      <trkpt lat="59.9491143" lon="17.667789">
        <ele>25.6123</ele>
        <time>2013-04-26T19:59:34Z</time>
      </trkpt>
      <trkpt lat="59.9491897" lon="17.667829">
        <ele>25.6123</ele>
        <time>2013-04-26T19:59:35Z</time>
      </trkpt>
      <trkpt lat="59.9492613" lon="17.6678663">
        <ele>25.1317</ele>
        <time>2013-04-26T19:59:36Z</time>
      </trkpt>
      <trkpt lat="59.9493347" lon="17.667902">
        <ele>25.1317</ele>
        <time>2013-04-26T19:59:37Z</time>
      </trkpt>
      <trkpt lat="59.9494057" lon="17.66794">
        <ele>24.651</ele>
        <time>2013-04-26T19:59:38Z</time>
      </trkpt>
      <trkpt lat="59.9494744" lon="17.6679757">
        <ele>24.1703</ele>
        <time>2013-04-26T19:59:39Z</time>
      </trkpt>
      <trkpt lat="59.9495463" lon="17.6680165">
        <ele>24.651</ele>
        <time>2013-04-26T19:59:40Z</time>
      </trkpt>
      <trkpt lat="59.9496136" lon="17.6680589">
        <ele>24.651</ele>
        <time>2013-04-26T19:59:41Z</time>
      </trkpt>
      <trkpt lat="59.949681" lon="17.6680984">
        <ele>24.651</ele>
        <time>2013-04-26T19:59:42Z</time>
      </trkpt>
      <trkpt lat="59.9497493" lon="17.6681337">
        <ele>24.651</ele>
        <time>2013-04-26T19:59:43Z</time>
      </trkpt>
      <trkpt lat="59.9498188" lon="17.6681677">
        <ele>24.651</ele>
        <time>2013-04-26T19:59:44Z</time>
      </trkpt>
      <trkpt lat="59.9498888" lon="17.6681985">
        <ele>24.651</ele>
        <time>2013-04-26T19:59:45Z</time>
      </trkpt>
      <trkpt lat="59.9499591" lon="17.6682254">
        <ele>24.651</ele>
        <time>2013-04-26T19:59:46Z</time>
      </trkpt>
      <trkpt lat="59.95003" lon="17.6682497">
        <ele>24.651</ele>
        <time>2013-04-26T19:59:47Z</time>
      </trkpt>
      <trkpt lat="59.9501008" lon="17.6682723">
        <ele>24.651</ele>
        <time>2013-04-26T19:59:48Z</time>
      </trkpt>
      <trkpt lat="59.9501703" lon="17.6682932">
        <ele>24.1703</ele>
        <time>2013-04-26T19:59:49Z</time>
      </trkpt>
      <trkpt lat="59.9502413" lon="17.6683118">
        <ele>24.1703</ele>
        <time>2013-04-26T19:59:50Z</time>
      </trkpt>
      <trkpt lat="59.9503138" lon="17.6683277">
        <ele>23.6896</ele>
        <time>2013-04-26T19:59:51Z</time>
      </trkpt>
      <trkpt lat="59.950387" lon="17.6683382">
        <ele>23.209</ele>
        <time>2013-04-26T19:59:52Z</time>
      </trkpt>
      <trkpt lat="59.9504624" lon="17.6683397">
        <ele>22.7283</ele>
        <time>2013-04-26T19:59:53Z</time>
      </trkpt>
      <trkpt lat="59.9505393" lon="17.6683362">
        <ele>22.7283</ele>
        <time>2013-04-26T19:59:54Z</time>
      </trkpt>
      <trkpt lat="59.9506169" lon="17.6683279">
        <ele>22.7283</ele>
        <time>2013-04-26T19:59:55Z</time>
      </trkpt>
      <trkpt lat="59.9506955" lon="17.6683143">
        <ele>22.7283</ele>
        <time>2013-04-26T19:59:56Z</time>
      </trkpt>
      <trkpt lat="59.9507754" lon="17.6682994">
        <ele>22.7283</ele>
        <time>2013-04-26T19:59:57Z</time>
      </trkpt>
      <trkpt lat="59.9508561" lon="17.6682808">
        <ele>22.2476</ele>
        <time>2013-04-26T19:59:58Z</time>
      </trkpt>
      <trkpt lat="59.950937" lon="17.6682562">
        <ele>22.2476</ele>
        <time>2013-04-26T19:59:59Z</time>
      </trkpt>
      <trkpt lat="59.9510186" lon="17.668228">
        <ele>22.2476</ele>
        <time>2013-04-26T20:00:00Z</time>
      </trkpt>
      <trkpt lat="59.9511008" lon="17.6681994">
        <ele>22.2476</ele>
        <time>2013-04-26T20:00:01Z</time>
      </trkpt>
      <trkpt lat="59.9511827" lon="17.6681683">
        <ele>21.767</ele>
        <time>2013-04-26T20:00:02Z</time>
      </trkpt>
      <trkpt lat="59.951264" lon="17.668132">
        <ele>21.767</ele>
        <time>2013-04-26T20:00:03Z</time>
      </trkpt>
      <trkpt lat="59.9513451" lon="17.6681003">
        <ele>21.767</ele>
        <time>2013-04-26T20:00:04Z</time>
      </trkpt>
      <trkpt lat="59.9514257" lon="17.6680801">
        <ele>21.2864</ele>
        <time>2013-04-26T20:00:05Z</time>
      </trkpt>
      <trkpt lat="59.9515054" lon="17.6680719">
        <ele>21.2864</ele>
        <time>2013-04-26T20:00:06Z</time>
      </trkpt>
      <trkpt lat="59.9515836" lon="17.6680891">
        <ele>20.8057</ele>
        <time>2013-04-26T20:00:07Z</time>
      </trkpt>
      <trkpt lat="59.9516562" lon="17.6681471">
        <ele>20.8057</ele>
        <time>2013-04-26T20:00:08Z</time>
      </trkpt>
      <trkpt lat="59.9517173" lon="17.6682492">
        <ele>20.325</ele>
        <time>2013-04-26T20:00:09Z</time>
      </trkpt>
      <trkpt lat="59.9517658" lon="17.6683826">
        <ele>20.325</ele>
        <time>2013-04-26T20:00:10Z</time>
      </trkpt>
      <trkpt lat="59.9518027" lon="17.6685289">
        <ele>20.8057</ele>
        <time>2013-04-26T20:00:11Z</time>
      </trkpt>
      <trkpt lat="59.9518308" lon="17.6686812">
        <ele>20.8057</ele>
        <time>2013-04-26T20:00:12Z</time>
      </trkpt>
      <trkpt lat="59.9518478" lon="17.6688355">
        <ele>21.2864</ele>
        <time>2013-04-26T20:00:13Z</time>
      </trkpt>
      <trkpt lat="59.9518523" lon="17.6689904">
        <ele>21.2864</ele>
        <time>2013-04-26T20:00:14Z</time>
      </trkpt>
      <trkpt lat="59.9518489" lon="17.6691425">
        <ele>21.767</ele>
        <time>2013-04-26T20:00:15Z</time>
      </trkpt>
      <trkpt lat="59.9518432" lon="17.6692924">
        <ele>21.767</ele>
        <time>2013-04-26T20:00:16Z</time>
      </trkpt>
      <trkpt lat="59.9518362" lon="17.6694428">
        <ele>21.767</ele>
        <time>2013-04-26T20:00:17Z</time>
      </trkpt>
      <trkpt lat="59.9518294" lon="17.669594">
        <ele>22.2476</ele>
        <time>2013-04-26T20:00:18Z</time>
      </trkpt>
      <trkpt lat="59.9518228" lon="17.6697455">
        <ele>22.2476</ele>
        <time>2013-04-26T20:00:19Z</time>
      </trkpt>
      <trkpt lat="59.9518161" lon="17.6698978">
        <ele>22.2476</ele>
        <time>2013-04-26T20:00:20Z</time>
      </trkpt>
      <trkpt lat="59.9518083" lon="17.6700477">
        <ele>22.2476</ele>
        <time>2013-04-26T20:00:21Z</time>
      </trkpt>
      <trkpt lat="59.9517997" lon="17.6701965">
        <ele>22.7283</ele>
        <time>2013-04-26T20:00:22Z</time>
      </trkpt>
      <trkpt lat="59.9517902" lon="17.670344">
        <ele>22.7283</ele>
        <time>2013-04-26T20:00:23Z</time>
      </trkpt>
      <trkpt lat="59.9517794" lon="17.6704899">
        <ele>23.209</ele>
        <time>2013-04-26T20:00:24Z</time>
      </trkpt>
      <trkpt lat="59.9517689" lon="17.6706336">
        <ele>23.209</ele>
        <time>2013-04-26T20:00:25Z</time>
      </trkpt>
      <trkpt lat="59.9517453" lon="17.6707843">
        <ele>23.6896</ele>
        <time>2013-04-26T20:00:26Z</time>
      </trkpt>
      <trkpt lat="59.9517406" lon="17.6709242">
        <ele>23.6896</ele>
        <time>2013-04-26T20:00:27Z</time>
      </trkpt>
      <trkpt lat="59.9517468" lon="17.6710552">
        <ele>24.1703</ele>
        <time>2013-04-26T20:00:28Z</time>
      </trkpt>
      <trkpt lat="59.9517669" lon="17.671179">
        <ele>24.1703</ele>
        <time>2013-04-26T20:00:29Z</time>
      </trkpt>
      <trkpt lat="59.9517925" lon="17.6713005">
        <ele>24.651</ele>
        <time>2013-04-26T20:00:30Z</time>
      </trkpt>
      <trkpt lat="59.9518129" lon="17.6714226">
        <ele>25.1317</ele>
        <time>2013-04-26T20:00:31Z</time>
      </trkpt>
      <trkpt lat="59.9518238" lon="17.6715495">
        <ele>25.1317</ele>
        <time>2013-04-26T20:00:32Z</time>
      </trkpt>
      <trkpt lat="59.9518275" lon="17.6716778">
        <ele>25.6123</ele>
        <time>2013-04-26T20:00:33Z</time>
      </trkpt>
      <trkpt lat="59.9518255" lon="17.6718064">
        <ele>25.6123</ele>
        <time>2013-04-26T20:00:34Z</time>
      </trkpt>
      <trkpt lat="59.9518243" lon="17.6719392">
        <ele>25.6123</ele>
        <time>2013-04-26T20:00:35Z</time>
      </trkpt>
      <trkpt lat="59.9518295" lon="17.6720739">
        <ele>25.6123</ele>
        <time>2013-04-26T20:00:36Z</time>
      </trkpt>
      <trkpt lat="59.95184" lon="17.6722103">
        <ele>25.6123</ele>
        <time>2013-04-26T20:00:37Z</time>
      </trkpt>
      <trkpt lat="59.9518535" lon="17.6723467">
        <ele>25.6123</ele>
        <time>2013-04-26T20:00:38Z</time>
      </trkpt>
      <trkpt lat="59.9518685" lon="17.6724823">
        <ele>25.6123</ele>
        <time>2013-04-26T20:00:39Z</time>
      </trkpt>
      <trkpt lat="59.9518829" lon="17.672616">
        <ele>25.6123</ele>
        <time>2013-04-26T20:00:40Z</time>
      </trkpt>
      <trkpt lat="59.9518984" lon="17.6727475">
        <ele>25.6123</ele>
        <time>2013-04-26T20:00:41Z</time>
      </trkpt>
      <trkpt lat="59.9519156" lon="17.6728771">
        <ele>25.6123</ele>
        <time>2013-04-26T20:00:42Z</time>
      </trkpt>
      <trkpt lat="59.9519333" lon="17.6730066">
        <ele>25.6123</ele>
        <time>2013-04-26T20:00:43Z</time>
      </trkpt>
      <trkpt lat="59.951951" lon="17.6731374">
        <ele>26.0929</ele>
        <time>2013-04-26T20:00:44Z</time>
      </trkpt>
      <trkpt lat="59.9519699" lon="17.6732693">
        <ele>26.0929</ele>
        <time>2013-04-26T20:00:45Z</time>
      </trkpt>
      <trkpt lat="59.9519909" lon="17.6734012">
        <ele>26.0929</ele>
        <time>2013-04-26T20:00:46Z</time>
      </trkpt>
      <trkpt lat="59.9520141" lon="17.6735334">
        <ele>26.0929</ele>
        <time>2013-04-26T20:00:47Z</time>
      </trkpt>
      <trkpt lat="59.9520378" lon="17.6736635">
        <ele>26.0929</ele>
        <time>2013-04-26T20:00:48Z</time>
      </trkpt>
      <trkpt lat="59.9520607" lon="17.6737873">
        <ele>26.0929</ele>
        <time>2013-04-26T20:00:49Z</time>
      </trkpt>
      <trkpt lat="59.9520835" lon="17.6739052">
        <ele>26.0929</ele>
        <time>2013-04-26T20:00:50Z</time>
      </trkpt>
      <trkpt lat="59.9521046" lon="17.6740178">
        <ele>26.0929</ele>
        <time>2013-04-26T20:00:51Z</time>
      </trkpt>
      <trkpt lat="59.9521244" lon="17.6741285">
        <ele>26.0929</ele>
        <time>2013-04-26T20:00:52Z</time>
      </trkpt>
      <trkpt lat="59.9521454" lon="17.6742361">
        <ele>25.6123</ele>
        <time>2013-04-26T20:00:53Z</time>
      </trkpt>
      <trkpt lat="59.95217" lon="17.6743286">
        <ele>25.6123</ele>
        <time>2013-04-26T20:00:54Z</time>
      </trkpt>
      <trkpt lat="59.9521896" lon="17.6744337">
        <ele>25.6123</ele>
        <time>2013-04-26T20:00:55Z</time>
      </trkpt>
      <trkpt lat="59.9522104" lon="17.6745392">
        <ele>26.0929</ele>
        <time>2013-04-26T20:00:56Z</time>
      </trkpt>
      <trkpt lat="59.9522294" lon="17.6746448">
        <ele>26.0929</ele>
        <time>2013-04-26T20:00:57Z</time>
      </trkpt>
      <trkpt lat="59.952242" lon="17.674758">
        <ele>26.5736</ele>
        <time>2013-04-26T20:00:58Z</time>
      </trkpt>
      <trkpt lat="59.9522582" lon="17.6748637">
        <ele>27.0543</ele>
        <time>2013-04-26T20:00:59Z</time>
      </trkpt>
      <trkpt lat="59.9522787" lon="17.6749525">
        <ele>27.5349</ele>
        <time>2013-04-26T20:01:00Z</time>
      </trkpt>
      <trkpt lat="59.9522967" lon="17.6750325">
        <ele>28.0155</ele>
        <time>2013-04-26T20:01:01Z</time>
      </trkpt>
      <trkpt lat="59.9523131" lon="17.6751138">
        <ele>28.0155</ele>
        <time>2013-04-26T20:01:02Z</time>
      </trkpt>
      <trkpt lat="59.9523347" lon="17.6751911">
        <ele>28.0155</ele>
        <time>2013-04-26T20:01:03Z</time>
      </trkpt>
      <trkpt lat="59.9523596" lon="17.6752698">
        <ele>28.0155</ele>
        <time>2013-04-26T20:01:04Z</time>
      </trkpt>
      <trkpt lat="59.9523865" lon="17.6753515">
        <ele>28.0155</ele>
        <time>2013-04-26T20:01:05Z</time>
      </trkpt>
      <trkpt lat="59.9524156" lon="17.6754379">
        <ele>28.0155</ele>
        <time>2013-04-26T20:01:06Z</time>
      </trkpt>
      <trkpt lat="59.9524474" lon="17.6755282">
        <ele>27.5349</ele>
        <time>2013-04-26T20:01:07Z</time>
      </trkpt>
      <trkpt lat="59.9524827" lon="17.6756193">
        <ele>27.5349</ele>
        <time>2013-04-26T20:01:08Z</time>
      </trkpt>
      <trkpt lat="59.9525231" lon="17.6757132">
        <ele>27.0543</ele>
        <time>2013-04-26T20:01:09Z</time>
      </trkpt>
      <trkpt lat="59.9525666" lon="17.675814">
        <ele>27.0543</ele>
        <time>2013-04-26T20:01:10Z</time>
      </trkpt>
      <trkpt lat="59.9526113" lon="17.6759183">
        <ele>26.5736</ele>
        <time>2013-04-26T20:01:11Z</time>
      </trkpt>
      <trkpt lat="59.9526548" lon="17.6760302">
        <ele>26.5736</ele>
        <time>2013-04-26T20:01:12Z</time>
      </trkpt>
      <trkpt lat="59.9526968" lon="17.6761477">
        <ele>26.5736</ele>
        <time>2013-04-26T20:01:13Z</time>
      </trkpt>
      <trkpt lat="59.9527378" lon="17.6762658">
        <ele>26.5736</ele>
        <time>2013-04-26T20:01:14Z</time>
      </trkpt>
      <trkpt lat="59.9527779" lon="17.6763829">
        <ele>26.5736</ele>
        <time>2013-04-26T20:01:15Z</time>
      </trkpt>
      <trkpt lat="59.9528199" lon="17.6764983">
        <ele>26.0929</ele>
        <time>2013-04-26T20:01:16Z</time>
      </trkpt>
      <trkpt lat="59.9528653" lon="17.6766104">
        <ele>25.6123</ele>
        <time>2013-04-26T20:01:17Z</time>
      </trkpt>
      <trkpt lat="59.9529124" lon="17.6767223">
        <ele>25.6123</ele>
        <time>2013-04-26T20:01:18Z</time>
      </trkpt>
      <trkpt lat="59.9529582" lon="17.6768361">
        <ele>25.6123</ele>
        <time>2013-04-26T20:01:19Z</time>
      </trkpt>
      <trkpt lat="59.9530015" lon="17.6769531">
        <ele>25.6123</ele>
        <time>2013-04-26T20:01:20Z</time>
      </trkpt>
      <trkpt lat="59.9530448" lon="17.6770707">
        <ele>25.1317</ele>
        <time>2013-04-26T20:01:21Z</time>
      </trkpt>
      <trkpt lat="59.9530885" lon="17.6771874">
        <ele>25.6123</ele>
        <time>2013-04-26T20:01:22Z</time>
      </trkpt>
      <trkpt lat="59.9531334" lon="17.6773014">
        <ele>25.6123</ele>
        <time>2013-04-26T20:01:23Z</time>
      </trkpt>
      <trkpt lat="59.9531783" lon="17.6774148">
        <ele>26.0929</ele>
        <time>2013-04-26T20:01:24Z</time>
      </trkpt>
      <trkpt lat="59.9532209" lon="17.677532">
        <ele>26.0929</ele>
        <time>2013-04-26T20:01:25Z</time>
      </trkpt>
      <trkpt lat="59.9532623" lon="17.6776513">
        <ele>26.0929</ele>
        <time>2013-04-26T20:01:26Z</time>
      </trkpt>
      <trkpt lat="59.9533027" lon="17.6777707">
        <ele>26.0929</ele>
        <time>2013-04-26T20:01:27Z</time>
      </trkpt>
      <trkpt lat="59.9533437" lon="17.6778866">
        <ele>26.0929</ele>
        <time>2013-04-26T20:01:28Z</time>
      </trkpt>
      <trkpt lat="59.9533856" lon="17.6779981">
        <ele>25.6123</ele>
        <time>2013-04-26T20:01:29Z</time>
      </trkpt>
      <trkpt lat="59.9534285" lon="17.6781085">
        <ele>25.1317</ele>
        <time>2013-04-26T20:01:30Z</time>
      </trkpt>
      <trkpt lat="59.9534691" lon="17.6782235">
        <ele>25.1317</ele>
        <time>2013-04-26T20:01:31Z</time>
      </trkpt>
      <trkpt lat="59.9535084" lon="17.6783398">
        <ele>24.651</ele>
        <time>2013-04-26T20:01:32Z</time>
      </trkpt>
      <trkpt lat="59.9535499" lon="17.6784566">
        <ele>24.651</ele>
        <time>2013-04-26T20:01:33Z</time>
      </trkpt>
      <trkpt lat="59.9535891" lon="17.6785773">
        <ele>24.1703</ele>
        <time>2013-04-26T20:01:34Z</time>
      </trkpt>
      <trkpt lat="59.9536277" lon="17.6787016">
        <ele>24.1703</ele>
        <time>2013-04-26T20:01:35Z</time>
      </trkpt>
      <trkpt lat="59.9536675" lon="17.6788267">
        <ele>23.209</ele>
        <time>2013-04-26T20:01:36Z</time>
      </trkpt>
      <trkpt lat="59.9537091" lon="17.6789542">
        <ele>23.209</ele>
        <time>2013-04-26T20:01:37Z</time>
      </trkpt>
      <trkpt lat="59.9537488" lon="17.6790808">
        <ele>22.2476</ele>
        <time>2013-04-26T20:01:38Z</time>
      </trkpt>
      <trkpt lat="59.9537896" lon="17.6792096">
        <ele>21.767</ele>
        <time>2013-04-26T20:01:39Z</time>
      </trkpt>
      <trkpt lat="59.9538328" lon="17.6793388">
        <ele>21.767</ele>
        <time>2013-04-26T20:01:40Z</time>
      </trkpt>
      <trkpt lat="59.9538751" lon="17.6794665">
        <ele>21.2864</ele>
        <time>2013-04-26T20:01:41Z</time>
      </trkpt>
      <trkpt lat="59.9539176" lon="17.6795925">
        <ele>20.8057</ele>
        <time>2013-04-26T20:01:42Z</time>
      </trkpt>
      <trkpt lat="59.9539608" lon="17.6797179">
        <ele>20.8057</ele>
        <time>2013-04-26T20:01:43Z</time>
      </trkpt>
      <trkpt lat="59.9540056" lon="17.6798438">
        <ele>20.325</ele>
        <time>2013-04-26T20:01:44Z</time>
      </trkpt>
      <trkpt lat="59.9540474" lon="17.6799717">
        <ele>18.8831</ele>
        <time>2013-04-26T20:01:45Z</time>
      </trkpt>
      <trkpt lat="59.9540902" lon="17.6801006">
        <ele>18.4023</ele>
        <time>2013-04-26T20:01:46Z</time>
      </trkpt>
      <trkpt lat="59.9541344" lon="17.6802284">
        <ele>17.9218</ele>
        <time>2013-04-26T20:01:47Z</time>
      </trkpt>
      <trkpt lat="59.9541784" lon="17.6803571">
        <ele>17.4412</ele>
        <time>2013-04-26T20:01:48Z</time>
      </trkpt>
      <trkpt lat="59.9542208" lon="17.6804856">
        <ele>16.9604</ele>
        <time>2013-04-26T20:01:49Z</time>
      </trkpt>
      <trkpt lat="59.9542649" lon="17.6806124">
        <ele>15.999</ele>
        <time>2013-04-26T20:01:50Z</time>
      </trkpt>
      <trkpt lat="59.9543094" lon="17.680739">
        <ele>15.999</ele>
        <time>2013-04-26T20:01:51Z</time>
      </trkpt>
      <trkpt lat="59.9543524" lon="17.6808687">
        <ele>15.5184</ele>
        <time>2013-04-26T20:01:52Z</time>
      </trkpt>
      <trkpt lat="59.9543933" lon="17.6810035">
        <ele>15.0377</ele>
        <time>2013-04-26T20:01:53Z</time>
      </trkpt>
      <trkpt lat="59.9544327" lon="17.6811418">
        <ele>14.557</ele>
        <time>2013-04-26T20:01:54Z</time>
      </trkpt>
      <trkpt lat="59.9544708" lon="17.6812777">
        <ele>14.557</ele>
        <time>2013-04-26T20:01:55Z</time>
      </trkpt>
      <trkpt lat="59.9545091" lon="17.6814091">
        <ele>14.0764</ele>
        <time>2013-04-26T20:01:56Z</time>
      </trkpt>
      <trkpt lat="59.9545498" lon="17.6815335">
        <ele>14.0764</ele>
        <time>2013-04-26T20:01:57Z</time>
      </trkpt>
      <trkpt lat="59.9545941" lon="17.6816517">
        <ele>14.0764</ele>
        <time>2013-04-26T20:01:58Z</time>
      </trkpt>
      <trkpt lat="59.9546403" lon="17.681767">
        <ele>13.5958</ele>
        <time>2013-04-26T20:01:59Z</time>
      </trkpt>
      <trkpt lat="59.9546883" lon="17.6818752">
        <ele>13.1151</ele>
        <time>2013-04-26T20:02:00Z</time>
      </trkpt>
      <trkpt lat="59.9547443" lon="17.6819664">
        <ele>13.1151</ele>
        <time>2013-04-26T20:02:01Z</time>
      </trkpt>
      <trkpt lat="59.9548037" lon="17.6820493">
        <ele>13.1151</ele>
        <time>2013-04-26T20:02:02Z</time>
      </trkpt>
      <trkpt lat="59.9548569" lon="17.6821461">
        <ele>13.5958</ele>
        <time>2013-04-26T20:02:03Z</time>
      </trkpt>
      <trkpt lat="59.9549014" lon="17.6822598">
        <ele>14.557</ele>
        <time>2013-04-26T20:02:04Z</time>
      </trkpt>
      <trkpt lat="59.9549413" lon="17.6823811">
        <ele>15.5184</ele>
        <time>2013-04-26T20:02:05Z</time>
      </trkpt>
      <trkpt lat="59.9549781" lon="17.6825063">
        <ele>15.999</ele>
        <time>2013-04-26T20:02:06Z</time>
      </trkpt>
      <trkpt lat="59.9550159" lon="17.6826353">
        <ele>16.9604</ele>
        <time>2013-04-26T20:02:07Z</time>
      </trkpt>
      <trkpt lat="59.9550522" lon="17.6827653">
        <ele>17.4412</ele>
        <time>2013-04-26T20:02:08Z</time>
      </trkpt>
      <trkpt lat="59.9550884" lon="17.6828965">
        <ele>17.9218</ele>
        <time>2013-04-26T20:02:09Z</time>
      </trkpt>
      <trkpt lat="59.9551247" lon="17.6830268">
        <ele>18.4023</ele>
        <time>2013-04-26T20:02:10Z</time>
      </trkpt>
      <trkpt lat="59.9551624" lon="17.6831568">
        <ele>19.3638</ele>
        <time>2013-04-26T20:02:11Z</time>
      </trkpt>
      <trkpt lat="59.9551973" lon="17.6832879">
        <ele>19.3638</ele>
        <time>2013-04-26T20:02:12Z</time>
      </trkpt>
      <trkpt lat="59.9552302" lon="17.6834226">
        <ele>19.8444</ele>
        <time>2013-04-26T20:02:13Z</time>
      </trkpt>
      <trkpt lat="59.955262" lon="17.6835592">
        <ele>20.325</ele>
        <time>2013-04-26T20:02:14Z</time>
      </trkpt>
      <trkpt lat="59.955293" lon="17.6836965">
        <ele>20.325</ele>
        <time>2013-04-26T20:02:15Z</time>
      </trkpt>
      <trkpt lat="59.9553225" lon="17.6838345">
        <ele>20.8057</ele>
        <time>2013-04-26T20:02:16Z</time>
      </trkpt>
      <trkpt lat="59.9553501" lon="17.6839724">
        <ele>20.8057</ele>
        <time>2013-04-26T20:02:17Z</time>
      </trkpt>
      <trkpt lat="59.9553766" lon="17.684111">
        <ele>21.2864</ele>
        <time>2013-04-26T20:02:18Z</time>
      </trkpt>
      <trkpt lat="59.9554023" lon="17.6842505">
        <ele>21.2864</ele>
        <time>2013-04-26T20:02:19Z</time>
      </trkpt>
      <trkpt lat="59.9554272" lon="17.6843909">
        <ele>21.767</ele>
        <time>2013-04-26T20:02:20Z</time>
      </trkpt>
      <trkpt lat="59.9554504" lon="17.6845308">
        <ele>22.2476</ele>
        <time>2013-04-26T20:02:21Z</time>
      </trkpt>
      <trkpt lat="59.9554739" lon="17.6846699">
        <ele>22.2476</ele>
        <time>2013-04-26T20:02:22Z</time>
      </trkpt>
      <trkpt lat="59.9554977" lon="17.6848085">
        <ele>22.2476</ele>
        <time>2013-04-26T20:02:23Z</time>
      </trkpt>
      <trkpt lat="59.9555208" lon="17.6849476">
        <ele>22.7283</ele>
        <time>2013-04-26T20:02:24Z</time>
      </trkpt>
      <trkpt lat="59.9555429" lon="17.6850881">
        <ele>22.7283</ele>
        <time>2013-04-26T20:02:25Z</time>
      </trkpt>
      <trkpt lat="59.955564" lon="17.6852299">
        <ele>23.209</ele>
        <time>2013-04-26T20:02:26Z</time>
      </trkpt>
      <trkpt lat="59.9555825" lon="17.6853687">
        <ele>23.209</ele>
        <time>2013-04-26T20:02:27Z</time>
      </trkpt>
      <trkpt lat="59.9556012" lon="17.6855088">
        <ele>23.209</ele>
        <time>2013-04-26T20:02:28Z</time>
      </trkpt>
      <trkpt lat="59.955623" lon="17.6856544">
        <ele>23.6896</ele>
        <time>2013-04-26T20:02:29Z</time>
      </trkpt>
      <trkpt lat="59.9556442" lon="17.6857974">
        <ele>24.651</ele>
        <time>2013-04-26T20:02:30Z</time>
      </trkpt>
      <trkpt lat="59.9556633" lon="17.6859392">
        <ele>24.651</ele>
        <time>2013-04-26T20:02:31Z</time>
      </trkpt>
      <trkpt lat="59.9556826" lon="17.686082">
        <ele>25.1317</ele>
        <time>2013-04-26T20:02:32Z</time>
      </trkpt>
      <trkpt lat="59.9557021" lon="17.6862254">
        <ele>25.1317</ele>
        <time>2013-04-26T20:02:33Z</time>
      </trkpt>
      <trkpt lat="59.9557234" lon="17.6863679">
        <ele>25.6123</ele>
        <time>2013-04-26T20:02:34Z</time>
      </trkpt>
      <trkpt lat="59.9557451" lon="17.6865086">
        <ele>25.6123</ele>
        <time>2013-04-26T20:02:35Z</time>
      </trkpt>
      <trkpt lat="59.9557687" lon="17.6866474">
        <ele>26.0929</ele>
        <time>2013-04-26T20:02:36Z</time>
      </trkpt>
      <trkpt lat="59.9557912" lon="17.6867842">
        <ele>26.0929</ele>
        <time>2013-04-26T20:02:37Z</time>
      </trkpt>
      <trkpt lat="59.9558114" lon="17.6869219">
        <ele>26.0929</ele>
        <time>2013-04-26T20:02:38Z</time>
      </trkpt>
      <trkpt lat="59.9558302" lon="17.6870612">
        <ele>26.5736</ele>
        <time>2013-04-26T20:02:39Z</time>
      </trkpt>
      <trkpt lat="59.9558476" lon="17.6872022">
        <ele>26.5736</ele>
        <time>2013-04-26T20:02:40Z</time>
      </trkpt>
      <trkpt lat="59.9558649" lon="17.6873444">
        <ele>26.0929</ele>
        <time>2013-04-26T20:02:41Z</time>
      </trkpt>
      <trkpt lat="59.9558853" lon="17.687486">
        <ele>26.0929</ele>
        <time>2013-04-26T20:02:42Z</time>
      </trkpt>
      <trkpt lat="59.9559073" lon="17.6876265">
        <ele>26.0929</ele>
        <time>2013-04-26T20:02:43Z</time>
      </trkpt>
      <trkpt lat="59.9559271" lon="17.687766">
        <ele>25.6123</ele>
        <time>2013-04-26T20:02:44Z</time>
      </trkpt>
      <trkpt lat="59.9559471" lon="17.6879129">
        <ele>25.6123</ele>
        <time>2013-04-26T20:02:45Z</time>
      </trkpt>
      <trkpt lat="59.9559684" lon="17.6880563">
        <ele>26.0929</ele>
        <time>2013-04-26T20:02:46Z</time>
      </trkpt>
      <trkpt lat="59.9559904" lon="17.6881952">
        <ele>26.0929</ele>
        <time>2013-04-26T20:02:47Z</time>
      </trkpt>
      <trkpt lat="59.9560131" lon="17.6883339">
        <ele>26.0929</ele>
        <time>2013-04-26T20:02:48Z</time>
      </trkpt>
      <trkpt lat="59.9560357" lon="17.6884728">
        <ele>26.0929</ele>
        <time>2013-04-26T20:02:49Z</time>
      </trkpt>
      <trkpt lat="59.9560601" lon="17.688612">
        <ele>26.0929</ele>
        <time>2013-04-26T20:02:50Z</time>
      </trkpt>
      <trkpt lat="59.9560898" lon="17.6887452">
        <ele>26.0929</ele>
        <time>2013-04-26T20:02:51Z</time>
      </trkpt>
      <trkpt lat="59.9561249" lon="17.6888701">
        <ele>26.0929</ele>
        <time>2013-04-26T20:02:52Z</time>
      </trkpt>
      <trkpt lat="59.9561632" lon="17.688989">
        <ele>26.0929</ele>
        <time>2013-04-26T20:02:53Z</time>
      </trkpt>
      <trkpt lat="59.9561994" lon="17.6891128">
        <ele>26.0929</ele>
        <time>2013-04-26T20:02:54Z</time>
      </trkpt>
      <trkpt lat="59.95623" lon="17.689241">
        <ele>26.0929</ele>
        <time>2013-04-26T20:02:55Z</time>
      </trkpt>
      <trkpt lat="59.9562556" lon="17.6893727">
        <ele>26.0929</ele>
        <time>2013-04-26T20:02:56Z</time>
      </trkpt>
      <trkpt lat="59.9562803" lon="17.6895035">
        <ele>26.0929</ele>
        <time>2013-04-26T20:02:57Z</time>
      </trkpt>
      <trkpt lat="59.9563083" lon="17.6896291">
        <ele>26.0929</ele>
        <time>2013-04-26T20:02:58Z</time>
      </trkpt>
      <trkpt lat="59.9563374" lon="17.6897538">
        <ele>26.5736</ele>
        <time>2013-04-26T20:02:59Z</time>
      </trkpt>
      <trkpt lat="59.9563669" lon="17.6898766">
        <ele>26.5736</ele>
        <time>2013-04-26T20:03:00Z</time>
      </trkpt>
      <trkpt lat="59.9563958" lon="17.6899989">
        <ele>26.5736</ele>
        <time>2013-04-26T20:03:01Z</time>
      </trkpt>
      <trkpt lat="59.9564265" lon="17.6901167">
        <ele>26.0929</ele>
        <time>2013-04-26T20:03:02Z</time>
      </trkpt>
      <trkpt lat="59.9564592" lon="17.69023">
        <ele>26.0929</ele>
        <time>2013-04-26T20:03:03Z</time>
      </trkpt>
      <trkpt lat="59.9564954" lon="17.6903412">
        <ele>25.6123</ele>
        <time>2013-04-26T20:03:04Z</time>
      </trkpt>
      <trkpt lat="59.9565342" lon="17.6904537">
        <ele>25.6123</ele>
        <time>2013-04-26T20:03:05Z</time>
      </trkpt>
      <trkpt lat="59.9565744" lon="17.690569">
        <ele>26.0929</ele>
        <time>2013-04-26T20:03:06Z</time>
      </trkpt>
      <trkpt lat="59.9566151" lon="17.6906871">
        <ele>26.0929</ele>
        <time>2013-04-26T20:03:07Z</time>
      </trkpt>
      <trkpt lat="59.9566573" lon="17.6908076">
        <ele>25.6123</ele>
        <time>2013-04-26T20:03:08Z</time>
      </trkpt>
      <trkpt lat="59.956698" lon="17.6909318">
        <ele>25.1317</ele>
        <time>2013-04-26T20:03:09Z</time>
      </trkpt>
      <trkpt lat="59.9567425" lon="17.6910514">
        <ele>25.1317</ele>
        <time>2013-04-26T20:03:10Z</time>
      </trkpt>
      <trkpt lat="59.9567787" lon="17.6911927">
        <ele>25.1317</ele>
        <time>2013-04-26T20:03:11Z</time>
      </trkpt>
      <trkpt lat="59.9568202" lon="17.6913234">
        <ele>25.1317</ele>
        <time>2013-04-26T20:03:12Z</time>
      </trkpt>
      <trkpt lat="59.9568621" lon="17.6914533">
        <ele>24.651</ele>
        <time>2013-04-26T20:03:13Z</time>
      </trkpt>
      <trkpt lat="59.9569164" lon="17.6915879">
        <ele>24.651</ele>
        <time>2013-04-26T20:03:14Z</time>
      </trkpt>
      <trkpt lat="59.9569608" lon="17.6917246">
        <ele>24.1703</ele>
        <time>2013-04-26T20:03:15Z</time>
      </trkpt>
      <trkpt lat="59.9570077" lon="17.6918622">
        <ele>24.1703</ele>
        <time>2013-04-26T20:03:16Z</time>
      </trkpt>
      <trkpt lat="59.9570548" lon="17.6919998">
        <ele>24.1703</ele>
        <time>2013-04-26T20:03:17Z</time>
      </trkpt>
      <trkpt lat="59.9571025" lon="17.692137">
        <ele>24.1703</ele>
        <time>2013-04-26T20:03:18Z</time>
      </trkpt>
      <trkpt lat="59.9571505" lon="17.6922712">
        <ele>24.1703</ele>
        <time>2013-04-26T20:03:19Z</time>
      </trkpt>
      <trkpt lat="59.9571999" lon="17.6924065">
        <ele>23.6896</ele>
        <time>2013-04-26T20:03:20Z</time>
      </trkpt>
      <trkpt lat="59.9572469" lon="17.6925379">
        <ele>23.6896</ele>
        <time>2013-04-26T20:03:21Z</time>
      </trkpt>
      <trkpt lat="59.9572926" lon="17.6926722">
        <ele>23.6896</ele>
        <time>2013-04-26T20:03:22Z</time>
      </trkpt>
      <trkpt lat="59.9573374" lon="17.6928042">
        <ele>23.6896</ele>
        <time>2013-04-26T20:03:23Z</time>
      </trkpt>
      <trkpt lat="59.9573846" lon="17.6929347">
        <ele>23.6896</ele>
        <time>2013-04-26T20:03:24Z</time>
      </trkpt>
      <trkpt lat="59.9574313" lon="17.6930618">
        <ele>23.6896</ele>
        <time>2013-04-26T20:03:25Z</time>
      </trkpt>
      <trkpt lat="59.9574752" lon="17.6931868">
        <ele>23.6896</ele>
        <time>2013-04-26T20:03:26Z</time>
      </trkpt>
      <trkpt lat="59.9575265" lon="17.6933168">
        <ele>24.1703</ele>
        <time>2013-04-26T20:03:27Z</time>
      </trkpt>
      <trkpt lat="59.9575708" lon="17.6934444">
        <ele>24.1703</ele>
        <time>2013-04-26T20:03:28Z</time>
      </trkpt>
      <trkpt lat="59.9576142" lon="17.6935716">
        <ele>23.6896</ele>
        <time>2013-04-26T20:03:29Z</time>
      </trkpt>
      <trkpt lat="59.9576578" lon="17.6936978">
        <ele>23.6896</ele>
        <time>2013-04-26T20:03:30Z</time>
      </trkpt>
      <trkpt lat="59.9577006" lon="17.6938218">
        <ele>23.6896</ele>
        <time>2013-04-26T20:03:31Z</time>
      </trkpt>
      <trkpt lat="59.9577413" lon="17.6939481">
        <ele>23.209</ele>
        <time>2013-04-26T20:03:32Z</time>
      </trkpt>
      <trkpt lat="59.9577822" lon="17.6940714">
        <ele>23.209</ele>
        <time>2013-04-26T20:03:33Z</time>
      </trkpt>
      <trkpt lat="59.9578235" lon="17.6941931">
        <ele>23.209</ele>
        <time>2013-04-26T20:03:34Z</time>
      </trkpt>
      <trkpt lat="59.9578641" lon="17.6943133">
        <ele>23.209</ele>
        <time>2013-04-26T20:03:35Z</time>
      </trkpt>
      <trkpt lat="59.9579068" lon="17.6944329">
        <ele>23.6896</ele>
        <time>2013-04-26T20:03:36Z</time>
      </trkpt>
      <trkpt lat="59.9579492" lon="17.6945523">
        <ele>23.6896</ele>
        <time>2013-04-26T20:03:37Z</time>
      </trkpt>
      <trkpt lat="59.9579907" lon="17.6946719">
        <ele>23.6896</ele>
        <time>2013-04-26T20:03:38Z</time>
      </trkpt>
      <trkpt lat="59.9580329" lon="17.6947899">
        <ele>24.1703</ele>
        <time>2013-04-26T20:03:39Z</time>
      </trkpt>
      <trkpt lat="59.9580757" lon="17.6949092">
        <ele>23.6896</ele>
        <time>2013-04-26T20:03:40Z</time>
      </trkpt>
      <trkpt lat="59.9581192" lon="17.6950318">
        <ele>23.209</ele>
        <time>2013-04-26T20:03:41Z</time>
      </trkpt>
      <trkpt lat="59.9581637" lon="17.6951509">
        <ele>23.209</ele>
        <time>2013-04-26T20:03:42Z</time>
      </trkpt>
      <trkpt lat="59.9582089" lon="17.6952692">
        <ele>23.6896</ele>
        <time>2013-04-26T20:03:43Z</time>
      </trkpt>
      <trkpt lat="59.9582556" lon="17.6953881">
        <ele>23.6896</ele>
        <time>2013-04-26T20:03:44Z</time>
      </trkpt>
      <trkpt lat="59.9583011" lon="17.6955078">
        <ele>24.1703</ele>
        <time>2013-04-26T20:03:45Z</time>
      </trkpt>
      <trkpt lat="59.9583467" lon="17.6956254">
        <ele>24.1703</ele>
        <time>2013-04-26T20:03:46Z</time>
      </trkpt>
      <trkpt lat="59.9583959" lon="17.6957384">
        <ele>24.1703</ele>
        <time>2013-04-26T20:03:47Z</time>
      </trkpt>
      <trkpt lat="59.9584457" lon="17.6958519">
        <ele>24.651</ele>
        <time>2013-04-26T20:03:48Z</time>
      </trkpt>
      <trkpt lat="59.9584962" lon="17.6959635">
        <ele>24.651</ele>
        <time>2013-04-26T20:03:49Z</time>
      </trkpt>
      <trkpt lat="59.9585444" lon="17.6960782">
        <ele>24.651</ele>
        <time>2013-04-26T20:03:50Z</time>
      </trkpt>
      <trkpt lat="59.9585886" lon="17.6961985">
        <ele>24.1703</ele>
        <time>2013-04-26T20:03:51Z</time>
      </trkpt>
      <trkpt lat="59.9586314" lon="17.6963212">
        <ele>24.1703</ele>
        <time>2013-04-26T20:03:52Z</time>
      </trkpt>
      <trkpt lat="59.9586744" lon="17.6964419">
        <ele>23.6896</ele>
        <time>2013-04-26T20:03:53Z</time>
      </trkpt>
      <trkpt lat="59.958715" lon="17.6965647">
        <ele>23.209</ele>
        <time>2013-04-26T20:03:54Z</time>
      </trkpt>
      <trkpt lat="59.9587534" lon="17.6966922">
        <ele>23.209</ele>
        <time>2013-04-26T20:03:55Z</time>
      </trkpt>
      <trkpt lat="59.958787" lon="17.6968215">
        <ele>23.209</ele>
        <time>2013-04-26T20:03:56Z</time>
      </trkpt>
      <trkpt lat="59.9588177" lon="17.6969536">
        <ele>23.6896</ele>
        <time>2013-04-26T20:03:57Z</time>
      </trkpt>
      <trkpt lat="59.9588476" lon="17.6970852">
        <ele>23.6896</ele>
        <time>2013-04-26T20:03:58Z</time>
      </trkpt>
      <trkpt lat="59.9588757" lon="17.6972163">
        <ele>23.6896</ele>
        <time>2013-04-26T20:03:59Z</time>
      </trkpt>
      <trkpt lat="59.9589026" lon="17.6973498">
        <ele>24.1703</ele>
        <time>2013-04-26T20:04:00Z</time>
      </trkpt>
      <trkpt lat="59.9589282" lon="17.6974824">
        <ele>24.651</ele>
        <time>2013-04-26T20:04:01Z</time>
      </trkpt>
      <trkpt lat="59.9589514" lon="17.6976167">
        <ele>25.1317</ele>
        <time>2013-04-26T20:04:02Z</time>
      </trkpt>
      <trkpt lat="59.9589731" lon="17.6977519">
        <ele>25.6123</ele>
        <time>2013-04-26T20:04:03Z</time>
      </trkpt>
      <trkpt lat="59.9589911" lon="17.6978798">
        <ele>25.6123</ele>
        <time>2013-04-26T20:04:04Z</time>
      </trkpt>
      <trkpt lat="59.9590037" lon="17.6980025">
        <ele>25.6123</ele>
        <time>2013-04-26T20:04:05Z</time>
      </trkpt>
      <trkpt lat="59.9590128" lon="17.6981306">
        <ele>25.1317</ele>
        <time>2013-04-26T20:04:06Z</time>
      </trkpt>
      <trkpt lat="59.9590199" lon="17.6982637">
        <ele>25.1317</ele>
        <time>2013-04-26T20:04:07Z</time>
      </trkpt>
      <trkpt lat="59.9590274" lon="17.6984082">
        <ele>25.6123</ele>
        <time>2013-04-26T20:04:08Z</time>
      </trkpt>
      <trkpt lat="59.9590308" lon="17.6985516">
        <ele>25.1317</ele>
        <time>2013-04-26T20:04:09Z</time>
      </trkpt>
      <trkpt lat="59.9590331" lon="17.6986904">
        <ele>25.1317</ele>
        <time>2013-04-26T20:04:10Z</time>
      </trkpt>
      <trkpt lat="59.9590348" lon="17.6988287">
        <ele>25.1317</ele>
        <time>2013-04-26T20:04:11Z</time>
      </trkpt>
      <trkpt lat="59.9590368" lon="17.6989661">
        <ele>25.6123</ele>
        <time>2013-04-26T20:04:12Z</time>
      </trkpt>
      <trkpt lat="59.9590402" lon="17.6991055">
        <ele>25.6123</ele>
        <time>2013-04-26T20:04:13Z</time>
      </trkpt>
      <trkpt lat="59.959045" lon="17.6992464">
        <ele>25.6123</ele>
        <time>2013-04-26T20:04:14Z</time>
      </trkpt>
      <trkpt lat="59.9590506" lon="17.6993896">
        <ele>25.6123</ele>
        <time>2013-04-26T20:04:15Z</time>
      </trkpt>
      <trkpt lat="59.9590574" lon="17.6995348">
        <ele>25.6123</ele>
        <time>2013-04-26T20:04:16Z</time>
      </trkpt>
      <trkpt lat="59.9590645" lon="17.699682">
        <ele>25.6123</ele>
        <time>2013-04-26T20:04:17Z</time>
      </trkpt>
      <trkpt lat="59.959074" lon="17.6998291">
        <ele>25.6123</ele>
        <time>2013-04-26T20:04:18Z</time>
      </trkpt>
      <trkpt lat="59.959087" lon="17.6999743">
        <ele>26.0929</ele>
        <time>2013-04-26T20:04:19Z</time>
      </trkpt>
      <trkpt lat="59.9591009" lon="17.7001192">
        <ele>26.0929</ele>
        <time>2013-04-26T20:04:20Z</time>
      </trkpt>
      <trkpt lat="59.9591143" lon="17.7002653">
        <ele>26.0929</ele>
        <time>2013-04-26T20:04:21Z</time>
      </trkpt>
      <trkpt lat="59.959127" lon="17.7004115">
        <ele>26.0929</ele>
        <time>2013-04-26T20:04:22Z</time>
      </trkpt>
      <trkpt lat="59.9591392" lon="17.7005573">
        <ele>26.0929</ele>
        <time>2013-04-26T20:04:23Z</time>
      </trkpt>
      <trkpt lat="59.9591513" lon="17.7006994">
        <ele>26.0929</ele>
        <time>2013-04-26T20:04:24Z</time>
      </trkpt>
      <trkpt lat="59.9591647" lon="17.7008371">
        <ele>26.5736</ele>
        <time>2013-04-26T20:04:25Z</time>
      </trkpt>
      <trkpt lat="59.9591782" lon="17.7009708">
        <ele>26.5736</ele>
        <time>2013-04-26T20:04:26Z</time>
      </trkpt>
      <trkpt lat="59.9591917" lon="17.7011013">
        <ele>26.5736</ele>
        <time>2013-04-26T20:04:27Z</time>
      </trkpt>
      <trkpt lat="59.9592065" lon="17.7012293">
        <ele>26.5736</ele>
        <time>2013-04-26T20:04:28Z</time>
      </trkpt>
      <trkpt lat="59.9592249" lon="17.70135">
        <ele>26.5736</ele>
        <time>2013-04-26T20:04:29Z</time>
      </trkpt>
      <trkpt lat="59.9592437" lon="17.7014697">
        <ele>26.0929</ele>
        <time>2013-04-26T20:04:30Z</time>
      </trkpt>
      <trkpt lat="59.9592652" lon="17.7015872">
        <ele>26.0929</ele>
        <time>2013-04-26T20:04:31Z</time>
      </trkpt>
      <trkpt lat="59.95929" lon="17.7017036">
        <ele>26.5736</ele>
        <time>2013-04-26T20:04:32Z</time>
      </trkpt>
      <trkpt lat="59.9593169" lon="17.7018198">
        <ele>26.0929</ele>
        <time>2013-04-26T20:04:33Z</time>
      </trkpt>
      <trkpt lat="59.959346" lon="17.7019364">
        <ele>26.0929</ele>
        <time>2013-04-26T20:04:34Z</time>
      </trkpt>
      <trkpt lat="59.959377" lon="17.7020519">
        <ele>25.6123</ele>
        <time>2013-04-26T20:04:35Z</time>
      </trkpt>
      <trkpt lat="59.9594095" lon="17.7021685">
        <ele>25.6123</ele>
        <time>2013-04-26T20:04:36Z</time>
      </trkpt>
      <trkpt lat="59.9594414" lon="17.7022866">
        <ele>25.6123</ele>
        <time>2013-04-26T20:04:37Z</time>
      </trkpt>
      <trkpt lat="59.9594727" lon="17.7024039">
        <ele>25.1317</ele>
        <time>2013-04-26T20:04:38Z</time>
      </trkpt>
      <trkpt lat="59.9595036" lon="17.7025216">
        <ele>24.651</ele>
        <time>2013-04-26T20:04:39Z</time>
      </trkpt>
      <trkpt lat="59.9595356" lon="17.702636">
        <ele>24.651</ele>
        <time>2013-04-26T20:04:40Z</time>
      </trkpt>
      <trkpt lat="59.9595657" lon="17.7027487">
        <ele>24.1703</ele>
        <time>2013-04-26T20:04:41Z</time>
      </trkpt>
      <trkpt lat="59.959596" lon="17.702861">
        <ele>23.6896</ele>
        <time>2013-04-26T20:04:42Z</time>
      </trkpt>
      <trkpt lat="59.959625" lon="17.7029755">
        <ele>23.209</ele>
        <time>2013-04-26T20:04:43Z</time>
      </trkpt>
      <trkpt lat="59.9596552" lon="17.703088">
        <ele>22.7283</ele>
        <time>2013-04-26T20:04:44Z</time>
      </trkpt>
      <trkpt lat="59.9596894" lon="17.7031994">
        <ele>22.2476</ele>
        <time>2013-04-26T20:04:45Z</time>
      </trkpt>
      <trkpt lat="59.959727" lon="17.703312">
        <ele>22.2476</ele>
        <time>2013-04-26T20:04:46Z</time>
      </trkpt>
      <trkpt lat="59.9597649" lon="17.7034256">
        <ele>22.2476</ele>
        <time>2013-04-26T20:04:47Z</time>
      </trkpt>
      <trkpt lat="59.9598029" lon="17.7035413">
        <ele>21.767</ele>
        <time>2013-04-26T20:04:48Z</time>
      </trkpt>
      <trkpt lat="59.9598468" lon="17.703663">
        <ele>22.2476</ele>
        <time>2013-04-26T20:04:49Z</time>
      </trkpt>
      <trkpt lat="59.9598887" lon="17.7037861">
        <ele>22.2476</ele>
        <time>2013-04-26T20:04:50Z</time>
      </trkpt>
      <trkpt lat="59.959933" lon="17.7039074">
        <ele>22.2476</ele>
        <time>2013-04-26T20:04:51Z</time>
      </trkpt>
      <trkpt lat="59.9599773" lon="17.7040295">
        <ele>22.2476</ele>
        <time>2013-04-26T20:04:52Z</time>
      </trkpt>
      <trkpt lat="59.9600276" lon="17.7041375">
        <ele>22.7283</ele>
        <time>2013-04-26T20:04:53Z</time>
      </trkpt>
      <trkpt lat="59.9600847" lon="17.7042344">
        <ele>23.6896</ele>
        <time>2013-04-26T20:04:54Z</time>
      </trkpt>
      <trkpt lat="59.9601384" lon="17.7043317">
        <ele>23.6896</ele>
        <time>2013-04-26T20:04:55Z</time>
      </trkpt>
      <trkpt lat="59.9601935" lon="17.7044253">
        <ele>23.209</ele>
        <time>2013-04-26T20:04:56Z</time>
      </trkpt>
      <trkpt lat="59.960254" lon="17.7045172">
        <ele>23.209</ele>
        <time>2013-04-26T20:04:57Z</time>
      </trkpt>
      <trkpt lat="59.9603173" lon="17.7046071">
        <ele>23.209</ele>
        <time>2013-04-26T20:04:58Z</time>
      </trkpt>
      <trkpt lat="59.9603815" lon="17.7046917">
        <ele>23.209</ele>
        <time>2013-04-26T20:04:59Z</time>
      </trkpt>
      <trkpt lat="59.9604478" lon="17.7047735">
        <ele>23.209</ele>
        <time>2013-04-26T20:05:00Z</time>
      </trkpt>
      <trkpt lat="59.9605147" lon="17.7048544">
        <ele>22.7283</ele>
        <time>2013-04-26T20:05:01Z</time>
      </trkpt>
      <trkpt lat="59.9605809" lon="17.7049362">
        <ele>22.7283</ele>
        <time>2013-04-26T20:05:02Z</time>
      </trkpt>
      <trkpt lat="59.9606463" lon="17.705018">
        <ele>22.2476</ele>
        <time>2013-04-26T20:05:03Z</time>
      </trkpt>
      <trkpt lat="59.960712" lon="17.7050992">
        <ele>22.2476</ele>
        <time>2013-04-26T20:05:04Z</time>
      </trkpt>
      <trkpt lat="59.9607767" lon="17.7051832">
        <ele>22.2476</ele>
        <time>2013-04-26T20:05:05Z</time>
      </trkpt>
      <trkpt lat="59.9608411" lon="17.7052693">
        <ele>22.2476</ele>
        <time>2013-04-26T20:05:06Z</time>
      </trkpt>
      <trkpt lat="59.9609041" lon="17.7053556">
        <ele>22.2476</ele>
        <time>2013-04-26T20:05:07Z</time>
      </trkpt>
      <trkpt lat="59.9609668" lon="17.7054421">
        <ele>22.2476</ele>
        <time>2013-04-26T20:05:08Z</time>
      </trkpt>
      <trkpt lat="59.9610273" lon="17.7055354">
        <ele>22.2476</ele>
        <time>2013-04-26T20:05:09Z</time>
      </trkpt>
      <trkpt lat="59.9610886" lon="17.7056325">
        <ele>22.2476</ele>
        <time>2013-04-26T20:05:10Z</time>
      </trkpt>
      <trkpt lat="59.9611469" lon="17.7057356">
        <ele>22.2476</ele>
        <time>2013-04-26T20:05:11Z</time>
      </trkpt>
      <trkpt lat="59.9612008" lon="17.7058442">
        <ele>22.2476</ele>
        <time>2013-04-26T20:05:12Z</time>
      </trkpt>
      <trkpt lat="59.9612542" lon="17.7059494">
        <ele>22.2476</ele>
        <time>2013-04-26T20:05:13Z</time>
      </trkpt>
      <trkpt lat="59.9613083" lon="17.7060519">
        <ele>22.2476</ele>
        <time>2013-04-26T20:05:14Z</time>
      </trkpt>
      <trkpt lat="59.9613634" lon="17.706152">
        <ele>21.767</ele>
        <time>2013-04-26T20:05:15Z</time>
      </trkpt>
      <trkpt lat="59.9614186" lon="17.7062505">
        <ele>21.767</ele>
        <time>2013-04-26T20:05:16Z</time>
      </trkpt>
      <trkpt lat="59.9614744" lon="17.7063492">
        <ele>21.767</ele>
        <time>2013-04-26T20:05:17Z</time>
      </trkpt>
      <trkpt lat="59.9615313" lon="17.7064429">
        <ele>21.2864</ele>
        <time>2013-04-26T20:05:18Z</time>
      </trkpt>
      <trkpt lat="59.9615913" lon="17.7065296">
        <ele>21.2864</ele>
        <time>2013-04-26T20:05:19Z</time>
      </trkpt>
      <trkpt lat="59.9616537" lon="17.7066081">
        <ele>21.2864</ele>
        <time>2013-04-26T20:05:20Z</time>
      </trkpt>
      <trkpt lat="59.96172" lon="17.7066778">
        <ele>21.2864</ele>
        <time>2013-04-26T20:05:21Z</time>
      </trkpt>
      <trkpt lat="59.9617919" lon="17.7067425">
        <ele>22.2476</ele>
        <time>2013-04-26T20:05:22Z</time>
      </trkpt>
      <trkpt lat="59.9618623" lon="17.7067974">
        <ele>22.2476</ele>
        <time>2013-04-26T20:05:23Z</time>
      </trkpt>
      <trkpt lat="59.9619348" lon="17.706844">
        <ele>22.2476</ele>
        <time>2013-04-26T20:05:24Z</time>
      </trkpt>
      <trkpt lat="59.9620085" lon="17.706888">
        <ele>22.2476</ele>
        <time>2013-04-26T20:05:25Z</time>
      </trkpt>
      <trkpt lat="59.9620834" lon="17.7069313">
        <ele>22.2476</ele>
        <time>2013-04-26T20:05:26Z</time>
      </trkpt>
      <trkpt lat="59.9621593" lon="17.7069749">
        <ele>22.2476</ele>
        <time>2013-04-26T20:05:27Z</time>
      </trkpt>
      <trkpt lat="59.9622358" lon="17.7070165">
        <ele>22.7283</ele>
        <time>2013-04-26T20:05:28Z</time>
      </trkpt>
      <trkpt lat="59.9623127" lon="17.7070543">
        <ele>22.7283</ele>
        <time>2013-04-26T20:05:29Z</time>
      </trkpt>
      <trkpt lat="59.9623912" lon="17.7070886">
        <ele>22.7283</ele>
        <time>2013-04-26T20:05:30Z</time>
      </trkpt>
      <trkpt lat="59.962473" lon="17.7071217">
        <ele>23.209</ele>
        <time>2013-04-26T20:05:31Z</time>
      </trkpt>
      <trkpt lat="59.962556" lon="17.7071494">
        <ele>23.6896</ele>
        <time>2013-04-26T20:05:32Z</time>
      </trkpt>
      <trkpt lat="59.9626389" lon="17.7071729">
        <ele>23.6896</ele>
        <time>2013-04-26T20:05:33Z</time>
      </trkpt>
      <trkpt lat="59.9627234" lon="17.7071919">
        <ele>24.1703</ele>
        <time>2013-04-26T20:05:34Z</time>
      </trkpt>
      <trkpt lat="59.9628172" lon="17.7071885">
        <ele>24.1703</ele>
        <time>2013-04-26T20:05:35Z</time>
      </trkpt>
      <trkpt lat="59.9629093" lon="17.7071941">
        <ele>24.1703</ele>
        <time>2013-04-26T20:05:36Z</time>
      </trkpt>
      <trkpt lat="59.9629979" lon="17.7071957">
        <ele>24.651</ele>
        <time>2013-04-26T20:05:37Z</time>
      </trkpt>
      <trkpt lat="59.9630869" lon="17.7071956">
        <ele>24.651</ele>
        <time>2013-04-26T20:05:38Z</time>
      </trkpt>
      <trkpt lat="59.9631707" lon="17.7071916">
        <ele>25.1317</ele>
        <time>2013-04-26T20:05:39Z</time>
      </trkpt>
      <trkpt lat="59.9632576" lon="17.7071916">
        <ele>25.1317</ele>
        <time>2013-04-26T20:05:40Z</time>
      </trkpt>
      <trkpt lat="59.9633448" lon="17.7071905">
        <ele>24.651</ele>
        <time>2013-04-26T20:05:41Z</time>
      </trkpt>
      <trkpt lat="59.9634315" lon="17.7071895">
        <ele>24.651</ele>
        <time>2013-04-26T20:05:42Z</time>
      </trkpt>
      <trkpt lat="59.9635181" lon="17.7071921">
        <ele>24.651</ele>
        <time>2013-04-26T20:05:43Z</time>
      </trkpt>
      <trkpt lat="59.9636045" lon="17.7071983">
        <ele>24.651</ele>
        <time>2013-04-26T20:05:44Z</time>
      </trkpt>
      <trkpt lat="59.9636904" lon="17.7072077">
        <ele>25.1317</ele>
        <time>2013-04-26T20:05:45Z</time>
      </trkpt>
      <trkpt lat="59.9637755" lon="17.70722">
        <ele>25.1317</ele>
        <time>2013-04-26T20:05:46Z</time>
      </trkpt>
      <trkpt lat="59.9638607" lon="17.7072303">
        <ele>25.1317</ele>
        <time>2013-04-26T20:05:47Z</time>
      </trkpt>
      <trkpt lat="59.9639455" lon="17.7072412">
        <ele>25.1317</ele>
        <time>2013-04-26T20:05:48Z</time>
      </trkpt>
      <trkpt lat="59.9640299" lon="17.7072544">
        <ele>25.1317</ele>
        <time>2013-04-26T20:05:49Z</time>
      </trkpt>
      <trkpt lat="59.9641136" lon="17.7072698">
        <ele>24.651</ele>
        <time>2013-04-26T20:05:50Z</time>
      </trkpt>
      <trkpt lat="59.9641977" lon="17.7072883">
        <ele>24.651</ele>
        <time>2013-04-26T20:05:51Z</time>
      </trkpt>
      <trkpt lat="59.9642814" lon="17.7073116">
        <ele>24.651</ele>
        <time>2013-04-26T20:05:52Z</time>
      </trkpt>
      <trkpt lat="59.9643645" lon="17.7073382">
        <ele>24.651</ele>
        <time>2013-04-26T20:05:53Z</time>
      </trkpt>
      <trkpt lat="59.9644479" lon="17.7073682">
        <ele>24.651</ele>
        <time>2013-04-26T20:05:54Z</time>
      </trkpt>
      <trkpt lat="59.9645303" lon="17.7074029">
        <ele>24.651</ele>
        <time>2013-04-26T20:05:55Z</time>
      </trkpt>
      <trkpt lat="59.9646117" lon="17.7074439">
        <ele>24.651</ele>
        <time>2013-04-26T20:05:56Z</time>
      </trkpt>
      <trkpt lat="59.9646918" lon="17.7074931">
        <ele>24.651</ele>
        <time>2013-04-26T20:05:57Z</time>
      </trkpt>
      <trkpt lat="59.9647714" lon="17.7075485">
        <ele>24.651</ele>
        <time>2013-04-26T20:05:58Z</time>
      </trkpt>
      <trkpt lat="59.9648513" lon="17.7076081">
        <ele>24.651</ele>
        <time>2013-04-26T20:05:59Z</time>
      </trkpt>
      <trkpt lat="59.9649311" lon="17.70767">
        <ele>24.1703</ele>
        <time>2013-04-26T20:06:00Z</time>
      </trkpt>
      <trkpt lat="59.9650119" lon="17.7077325">
        <ele>24.1703</ele>
        <time>2013-04-26T20:06:01Z</time>
      </trkpt>
      <trkpt lat="59.9650926" lon="17.7077967">
        <ele>24.1703</ele>
        <time>2013-04-26T20:06:02Z</time>
      </trkpt>
      <trkpt lat="59.9651734" lon="17.7078609">
        <ele>24.1703</ele>
        <time>2013-04-26T20:06:03Z</time>
      </trkpt>
      <trkpt lat="59.9652545" lon="17.7079266">
        <ele>24.1703</ele>
        <time>2013-04-26T20:06:04Z</time>
      </trkpt>
      <trkpt lat="59.9653348" lon="17.707995">
        <ele>24.1703</ele>
        <time>2013-04-26T20:06:05Z</time>
      </trkpt>
      <trkpt lat="59.9654148" lon="17.708067">
        <ele>24.1703</ele>
        <time>2013-04-26T20:06:06Z</time>
      </trkpt>
      <trkpt lat="59.9654917" lon="17.7081452">
        <ele>23.6896</ele>
        <time>2013-04-26T20:06:07Z</time>
      </trkpt>
      <trkpt lat="59.9655668" lon="17.7082313">
        <ele>23.6896</ele>
        <time>2013-04-26T20:06:08Z</time>
      </trkpt>
      <trkpt lat="59.9656393" lon="17.7083274">
        <ele>23.209</ele>
        <time>2013-04-26T20:06:09Z</time>
      </trkpt>
      <trkpt lat="59.965708" lon="17.7084353">
        <ele>23.209</ele>
        <time>2013-04-26T20:06:10Z</time>
      </trkpt>
      <trkpt lat="59.9657707" lon="17.708554">
        <ele>23.209</ele>
        <time>2013-04-26T20:06:11Z</time>
      </trkpt>
      <trkpt lat="59.9658294" lon="17.7086786">
        <ele>23.209</ele>
        <time>2013-04-26T20:06:12Z</time>
      </trkpt>
      <trkpt lat="59.9658817" lon="17.7088117">
        <ele>23.209</ele>
        <time>2013-04-26T20:06:13Z</time>
      </trkpt>
      <trkpt lat="59.9659305" lon="17.7089502">
        <ele>23.209</ele>
        <time>2013-04-26T20:06:14Z</time>
      </trkpt>
      <trkpt lat="59.9659766" lon="17.7090917">
        <ele>23.209</ele>
        <time>2013-04-26T20:06:15Z</time>
      </trkpt>
      <trkpt lat="59.9660209" lon="17.7092362">
        <ele>23.209</ele>
        <time>2013-04-26T20:06:16Z</time>
      </trkpt>
      <trkpt lat="59.9660646" lon="17.7093823">
        <ele>23.209</ele>
        <time>2013-04-26T20:06:17Z</time>
      </trkpt>
      <trkpt lat="59.9661074" lon="17.7095287">
        <ele>24.1703</ele>
        <time>2013-04-26T20:06:18Z</time>
      </trkpt>
      <trkpt lat="59.9661472" lon="17.7096734">
        <ele>24.1703</ele>
        <time>2013-04-26T20:06:19Z</time>
      </trkpt>
      <trkpt lat="59.966183" lon="17.7098363">
        <ele>25.1317</ele>
        <time>2013-04-26T20:06:20Z</time>
      </trkpt>
      <trkpt lat="59.9662183" lon="17.7099749">
        <ele>25.1317</ele>
        <time>2013-04-26T20:06:21Z</time>
      </trkpt>
      <trkpt lat="59.9662553" lon="17.7101172">
        <ele>25.1317</ele>
        <time>2013-04-26T20:06:22Z</time>
      </trkpt>
      <trkpt lat="59.9662893" lon="17.7102541">
        <ele>25.1317</ele>
        <time>2013-04-26T20:06:23Z</time>
      </trkpt>
      <trkpt lat="59.9663225" lon="17.7103892">
        <ele>25.1317</ele>
        <time>2013-04-26T20:06:24Z</time>
      </trkpt>
      <trkpt lat="59.9663587" lon="17.7105217">
        <ele>25.1317</ele>
        <time>2013-04-26T20:06:25Z</time>
      </trkpt>
      <trkpt lat="59.9663948" lon="17.7106539">
        <ele>25.1317</ele>
        <time>2013-04-26T20:06:26Z</time>
      </trkpt>
      <trkpt lat="59.9664237" lon="17.7108024">
        <ele>25.6123</ele>
        <time>2013-04-26T20:06:27Z</time>
      </trkpt>
      <trkpt lat="59.9664603" lon="17.7109254">
        <ele>25.6123</ele>
        <time>2013-04-26T20:06:28Z</time>
      </trkpt>
      <trkpt lat="59.9664965" lon="17.7110504">
        <ele>26.0929</ele>
        <time>2013-04-26T20:06:29Z</time>
      </trkpt>
      <trkpt lat="59.9665282" lon="17.7111875">
        <ele>26.0929</ele>
        <time>2013-04-26T20:06:30Z</time>
      </trkpt>
      <trkpt lat="59.9665722" lon="17.7113123">
        <ele>26.0929</ele>
        <time>2013-04-26T20:06:31Z</time>
      </trkpt>
      <trkpt lat="59.9666109" lon="17.7114464">
        <ele>26.5736</ele>
        <time>2013-04-26T20:06:32Z</time>
      </trkpt>
      <trkpt lat="59.9666578" lon="17.7115802">
        <ele>26.5736</ele>
        <time>2013-04-26T20:06:33Z</time>
      </trkpt>
      <trkpt lat="59.9667131" lon="17.7117369">
        <ele>27.0543</ele>
        <time>2013-04-26T20:06:34Z</time>
      </trkpt>
      <trkpt lat="59.9667595" lon="17.7118733">
        <ele>27.5349</ele>
        <time>2013-04-26T20:06:35Z</time>
      </trkpt>
      <trkpt lat="59.9668053" lon="17.712009">
        <ele>28.0155</ele>
        <time>2013-04-26T20:06:36Z</time>
      </trkpt>
      <trkpt lat="59.9668535" lon="17.7121438">
        <ele>28.0155</ele>
        <time>2013-04-26T20:06:37Z</time>
      </trkpt>
      <trkpt lat="59.9669037" lon="17.7122738">
        <ele>28.0155</ele>
        <time>2013-04-26T20:06:38Z</time>
      </trkpt>
      <trkpt lat="59.9669545" lon="17.7124041">
        <ele>28.0155</ele>
        <time>2013-04-26T20:06:39Z</time>
      </trkpt>
      <trkpt lat="59.9670015" lon="17.7125378">
        <ele>28.0155</ele>
        <time>2013-04-26T20:06:40Z</time>
      </trkpt>
      <trkpt lat="59.9670451" lon="17.7126741">
        <ele>27.5349</ele>
        <time>2013-04-26T20:06:41Z</time>
      </trkpt>
      <trkpt lat="59.9670831" lon="17.7128125">
        <ele>27.0543</ele>
        <time>2013-04-26T20:06:42Z</time>
      </trkpt>
      <trkpt lat="59.9671213" lon="17.7129532">
        <ele>26.5736</ele>
        <time>2013-04-26T20:06:43Z</time>
      </trkpt>
      <trkpt lat="59.9671564" lon="17.7130979">
        <ele>26.0929</ele>
        <time>2013-04-26T20:06:44Z</time>
      </trkpt>
      <trkpt lat="59.9671897" lon="17.7132482">
        <ele>25.6123</ele>
        <time>2013-04-26T20:06:45Z</time>
      </trkpt>
      <trkpt lat="59.9672203" lon="17.7134046">
        <ele>25.1317</ele>
        <time>2013-04-26T20:06:46Z</time>
      </trkpt>
      <trkpt lat="59.9672487" lon="17.7135662">
        <ele>24.1703</ele>
        <time>2013-04-26T20:06:47Z</time>
      </trkpt>
      <trkpt lat="59.9672767" lon="17.7137339">
        <ele>23.6896</ele>
        <time>2013-04-26T20:06:48Z</time>
      </trkpt>
      <trkpt lat="59.9673031" lon="17.7139086">
        <ele>23.209</ele>
        <time>2013-04-26T20:06:49Z</time>
      </trkpt>
      <trkpt lat="59.9673304" lon="17.7140915">
        <ele>23.209</ele>
        <time>2013-04-26T20:06:50Z</time>
      </trkpt>
      <trkpt lat="59.9673559" lon="17.7142789">
        <ele>22.2476</ele>
        <time>2013-04-26T20:06:51Z</time>
      </trkpt>
      <trkpt lat="59.9673808" lon="17.71447">
        <ele>21.767</ele>
        <time>2013-04-26T20:06:52Z</time>
      </trkpt>
      <trkpt lat="59.9674025" lon="17.7146635">
        <ele>20.8057</ele>
        <time>2013-04-26T20:06:53Z</time>
      </trkpt>
      <trkpt lat="59.9674238" lon="17.7148581">
        <ele>20.325</ele>
        <time>2013-04-26T20:06:54Z</time>
      </trkpt>
      <trkpt lat="59.9674496" lon="17.7150467">
        <ele>19.8444</ele>
        <time>2013-04-26T20:06:55Z</time>
      </trkpt>
      <trkpt lat="59.9674808" lon="17.7152297">
        <ele>19.3638</ele>
        <time>2013-04-26T20:06:56Z</time>
      </trkpt>
      <trkpt lat="59.9675103" lon="17.7154077">
        <ele>19.3638</ele>
        <time>2013-04-26T20:06:57Z</time>
      </trkpt>
      <trkpt lat="59.9675429" lon="17.7155764">
        <ele>19.3638</ele>
        <time>2013-04-26T20:06:58Z</time>
      </trkpt>
      <trkpt lat="59.9675837" lon="17.7157356">
        <ele>19.3638</ele>
        <time>2013-04-26T20:06:59Z</time>
      </trkpt>
      <trkpt lat="59.9676283" lon="17.7158903">
        <ele>19.8444</ele>
        <time>2013-04-26T20:07:00Z</time>
      </trkpt>
      <trkpt lat="59.9676739" lon="17.716034">
        <ele>19.8444</ele>
        <time>2013-04-26T20:07:01Z</time>
      </trkpt>
      <trkpt lat="59.9677191" lon="17.7161667">
        <ele>20.325</ele>
        <time>2013-04-26T20:07:02Z</time>
      </trkpt>
      <trkpt lat="59.9677684" lon="17.716291">
        <ele>20.8057</ele>
        <time>2013-04-26T20:07:03Z</time>
      </trkpt>
      <trkpt lat="59.9678196" lon="17.7164027">
        <ele>21.767</ele>
        <time>2013-04-26T20:07:04Z</time>
      </trkpt>
      <trkpt lat="59.9678718" lon="17.7165039">
        <ele>22.2476</ele>
        <time>2013-04-26T20:07:05Z</time>
      </trkpt>
      <trkpt lat="59.9679223" lon="17.7165949">
        <ele>23.209</ele>
        <time>2013-04-26T20:07:06Z</time>
      </trkpt>
      <trkpt lat="59.9679737" lon="17.7166734">
        <ele>23.6896</ele>
        <time>2013-04-26T20:07:07Z</time>
      </trkpt>
      <trkpt lat="59.9680233" lon="17.7167456">
        <ele>23.6896</ele>
        <time>2013-04-26T20:07:08Z</time>
      </trkpt>
      <trkpt lat="59.968072" lon="17.7168171">
        <ele>24.1703</ele>
        <time>2013-04-26T20:07:09Z</time>
      </trkpt>
      <trkpt lat="59.9681226" lon="17.7168789">
        <ele>24.651</ele>
        <time>2013-04-26T20:07:10Z</time>
      </trkpt>
      <trkpt lat="59.9681742" lon="17.71693">
        <ele>25.6123</ele>
        <time>2013-04-26T20:07:11Z</time>
      </trkpt>
      <trkpt lat="59.9682247" lon="17.7169681">
        <ele>25.6123</ele>
        <time>2013-04-26T20:07:12Z</time>
      </trkpt>
      <trkpt lat="59.968277" lon="17.7170089">
        <ele>26.0929</ele>
        <time>2013-04-26T20:07:13Z</time>
      </trkpt>
      <trkpt lat="59.9683298" lon="17.717051">
        <ele>26.0929</ele>
        <time>2013-04-26T20:07:14Z</time>
      </trkpt>
      <trkpt lat="59.9683843" lon="17.7170909">
        <ele>26.5736</ele>
        <time>2013-04-26T20:07:15Z</time>
      </trkpt>
      <trkpt lat="59.9684345" lon="17.7171285">
        <ele>26.0929</ele>
        <time>2013-04-26T20:07:16Z</time>
      </trkpt>
      <trkpt lat="59.9684882" lon="17.7171623">
        <ele>26.0929</ele>
        <time>2013-04-26T20:07:17Z</time>
      </trkpt>
      <trkpt lat="59.9685444" lon="17.7171913">
        <ele>26.5736</ele>
        <time>2013-04-26T20:07:18Z</time>
      </trkpt>
      <trkpt lat="59.9686007" lon="17.7172197">
        <ele>26.5736</ele>
        <time>2013-04-26T20:07:19Z</time>
      </trkpt>
      <trkpt lat="59.9686586" lon="17.7172507">
        <ele>26.5736</ele>
        <time>2013-04-26T20:07:20Z</time>
      </trkpt>
      <trkpt lat="59.9687157" lon="17.7172774">
        <ele>27.0543</ele>
        <time>2013-04-26T20:07:21Z</time>
      </trkpt>
      <trkpt lat="59.9687708" lon="17.717298">
        <ele>26.5736</ele>
        <time>2013-04-26T20:07:22Z</time>
      </trkpt>
      <trkpt lat="59.9688261" lon="17.7173183">
        <ele>26.5736</ele>
        <time>2013-04-26T20:07:23Z</time>
      </trkpt>
      <trkpt lat="59.9688813" lon="17.7173406">
        <ele>26.5736</ele>
        <time>2013-04-26T20:07:24Z</time>
      </trkpt>
      <trkpt lat="59.9689381" lon="17.7173576">
        <ele>27.0543</ele>
        <time>2013-04-26T20:07:25Z</time>
      </trkpt>
      <trkpt lat="59.9689964" lon="17.7173672">
        <ele>28.0155</ele>
        <time>2013-04-26T20:07:26Z</time>
      </trkpt>
      <trkpt lat="59.969054" lon="17.7173824">
        <ele>28.0155</ele>
        <time>2013-04-26T20:07:27Z</time>
      </trkpt>
      <trkpt lat="59.9691115" lon="17.7174067">
        <ele>27.5349</ele>
        <time>2013-04-26T20:07:28Z</time>
      </trkpt>
      <trkpt lat="59.9691698" lon="17.7174381">
        <ele>27.5349</ele>
        <time>2013-04-26T20:07:29Z</time>
      </trkpt>
      <trkpt lat="59.9692295" lon="17.717471">
        <ele>27.0543</ele>
        <time>2013-04-26T20:07:30Z</time>
      </trkpt>
      <trkpt lat="59.9692907" lon="17.7175036">
        <ele>26.5736</ele>
        <time>2013-04-26T20:07:31Z</time>
      </trkpt>
      <trkpt lat="59.9693525" lon="17.7175358">
        <ele>26.0929</ele>
        <time>2013-04-26T20:07:32Z</time>
      </trkpt>
      <trkpt lat="59.9694188" lon="17.7175692">
        <ele>26.0929</ele>
        <time>2013-04-26T20:07:33Z</time>
      </trkpt>
      <trkpt lat="59.969487" lon="17.7176077">
        <ele>25.6123</ele>
        <time>2013-04-26T20:07:34Z</time>
      </trkpt>
      <trkpt lat="59.9695561" lon="17.7176508">
        <ele>25.1317</ele>
        <time>2013-04-26T20:07:35Z</time>
      </trkpt>
      <trkpt lat="59.9696264" lon="17.7176979">
        <ele>24.651</ele>
        <time>2013-04-26T20:07:36Z</time>
      </trkpt>
      <trkpt lat="59.9696966" lon="17.7177497">
        <ele>24.651</ele>
        <time>2013-04-26T20:07:37Z</time>
      </trkpt>
      <trkpt lat="59.9697672" lon="17.7178025">
        <ele>24.1703</ele>
        <time>2013-04-26T20:07:38Z</time>
      </trkpt>
      <trkpt lat="59.9698371" lon="17.7178579">
        <ele>23.6896</ele>
        <time>2013-04-26T20:07:39Z</time>
      </trkpt>
      <trkpt lat="59.9699066" lon="17.717918">
        <ele>23.209</ele>
        <time>2013-04-26T20:07:40Z</time>
      </trkpt>
      <trkpt lat="59.9699762" lon="17.7179801">
        <ele>23.209</ele>
        <time>2013-04-26T20:07:41Z</time>
      </trkpt>
      <trkpt lat="59.9700464" lon="17.7180432">
        <ele>22.7283</ele>
        <time>2013-04-26T20:07:42Z</time>
      </trkpt>
      <trkpt lat="59.9701164" lon="17.7181091">
        <ele>22.2476</ele>
        <time>2013-04-26T20:07:43Z</time>
      </trkpt>
      <trkpt lat="59.9701865" lon="17.7181768">
        <ele>22.2476</ele>
        <time>2013-04-26T20:07:44Z</time>
      </trkpt>
      <trkpt lat="59.9702573" lon="17.7182432">
        <ele>21.767</ele>
        <time>2013-04-26T20:07:45Z</time>
      </trkpt>
      <trkpt lat="59.9703283" lon="17.7183087">
        <ele>21.2864</ele>
        <time>2013-04-26T20:07:46Z</time>
      </trkpt>
      <trkpt lat="59.9703996" lon="17.7183744">
        <ele>21.2864</ele>
        <time>2013-04-26T20:07:47Z</time>
      </trkpt>
      <trkpt lat="59.9704708" lon="17.7184397">
        <ele>20.8057</ele>
        <time>2013-04-26T20:07:48Z</time>
      </trkpt>
      <trkpt lat="59.9705427" lon="17.7185063">
        <ele>20.8057</ele>
        <time>2013-04-26T20:07:49Z</time>
      </trkpt>
      <trkpt lat="59.9706148" lon="17.7185743">
        <ele>20.325</ele>
        <time>2013-04-26T20:07:50Z</time>
      </trkpt>
      <trkpt lat="59.9706878" lon="17.7186416">
        <ele>20.325</ele>
        <time>2013-04-26T20:07:51Z</time>
      </trkpt>
      <trkpt lat="59.9707608" lon="17.718708">
        <ele>20.325</ele>
        <time>2013-04-26T20:07:52Z</time>
      </trkpt>
      <trkpt lat="59.9708342" lon="17.7187751">
        <ele>19.8444</ele>
        <time>2013-04-26T20:07:53Z</time>
      </trkpt>
      <trkpt lat="59.970908" lon="17.7188421">
        <ele>19.8444</ele>
        <time>2013-04-26T20:07:54Z</time>
      </trkpt>
      <trkpt lat="59.970982" lon="17.7189108">
        <ele>19.3638</ele>
        <time>2013-04-26T20:07:55Z</time>
      </trkpt>
      <trkpt lat="59.9710562" lon="17.7189811">
        <ele>19.3638</ele>
        <time>2013-04-26T20:07:56Z</time>
      </trkpt>
      <trkpt lat="59.9711311" lon="17.7190502">
        <ele>18.8831</ele>
        <time>2013-04-26T20:07:57Z</time>
      </trkpt>
      <trkpt lat="59.9712057" lon="17.7191186">
        <ele>18.8831</ele>
        <time>2013-04-26T20:07:58Z</time>
      </trkpt>
      <trkpt lat="59.9712798" lon="17.7191873">
        <ele>18.8831</ele>
        <time>2013-04-26T20:07:59Z</time>
      </trkpt>
      <trkpt lat="59.9713544" lon="17.719255">
        <ele>18.8831</ele>
        <time>2013-04-26T20:08:00Z</time>
      </trkpt>
      <trkpt lat="59.9714292" lon="17.7193229">
        <ele>18.4023</ele>
        <time>2013-04-26T20:08:01Z</time>
      </trkpt>
      <trkpt lat="59.971504" lon="17.7193917">
        <ele>18.4023</ele>
        <time>2013-04-26T20:08:02Z</time>
      </trkpt>
      <trkpt lat="59.9715786" lon="17.7194605">
        <ele>18.4023</ele>
        <time>2013-04-26T20:08:03Z</time>
      </trkpt>
      <trkpt lat="59.9716534" lon="17.7195273">
        <ele>18.4023</ele>
        <time>2013-04-26T20:08:04Z</time>
      </trkpt>
      <trkpt lat="59.9717286" lon="17.7195927">
        <ele>18.4023</ele>
        <time>2013-04-26T20:08:05Z</time>
      </trkpt>
      <trkpt lat="59.9718036" lon="17.7196588">
        <ele>18.4023</ele>
        <time>2013-04-26T20:08:06Z</time>
      </trkpt>
      <trkpt lat="59.9718777" lon="17.719726">
        <ele>17.9218</ele>
        <time>2013-04-26T20:08:07Z</time>
      </trkpt>
      <trkpt lat="59.9719512" lon="17.7197953">
        <ele>17.9218</ele>
        <time>2013-04-26T20:08:08Z</time>
      </trkpt>
      <trkpt lat="59.9720249" lon="17.7198635">
        <ele>17.9218</ele>
        <time>2013-04-26T20:08:09Z</time>
      </trkpt>
      <trkpt lat="59.9720989" lon="17.7199299">
        <ele>17.9218</ele>
        <time>2013-04-26T20:08:10Z</time>
      </trkpt>
      <trkpt lat="59.9721729" lon="17.7199969">
        <ele>17.9218</ele>
        <time>2013-04-26T20:08:11Z</time>
      </trkpt>
      <trkpt lat="59.9722469" lon="17.720066">
        <ele>17.4412</ele>
        <time>2013-04-26T20:08:12Z</time>
      </trkpt>
      <trkpt lat="59.9723212" lon="17.7201346">
        <ele>17.4412</ele>
        <time>2013-04-26T20:08:13Z</time>
      </trkpt>
      <trkpt lat="59.9723963" lon="17.7202018">
        <ele>17.4412</ele>
        <time>2013-04-26T20:08:14Z</time>
      </trkpt>
      <trkpt lat="59.9724714" lon="17.7202692">
        <ele>17.4412</ele>
        <time>2013-04-26T20:08:15Z</time>
      </trkpt>
      <trkpt lat="59.9725463" lon="17.7203376">
        <ele>17.4412</ele>
        <time>2013-04-26T20:08:16Z</time>
      </trkpt>
      <trkpt lat="59.9726208" lon="17.7204084">
        <ele>17.4412</ele>
        <time>2013-04-26T20:08:17Z</time>
      </trkpt>
      <trkpt lat="59.9726947" lon="17.7204823">
        <ele>16.9604</ele>
        <time>2013-04-26T20:08:18Z</time>
      </trkpt>
      <trkpt lat="59.9727685" lon="17.7205603">
        <ele>16.9604</ele>
        <time>2013-04-26T20:08:19Z</time>
      </trkpt>
      <trkpt lat="59.9728418" lon="17.7206402">
        <ele>16.9604</ele>
        <time>2013-04-26T20:08:20Z</time>
      </trkpt>
      <trkpt lat="59.9729142" lon="17.7207241">
        <ele>16.9604</ele>
        <time>2013-04-26T20:08:21Z</time>
      </trkpt>
      <trkpt lat="59.9729845" lon="17.7208141">
        <ele>16.9604</ele>
        <time>2013-04-26T20:08:22Z</time>
      </trkpt>
      <trkpt lat="59.973053" lon="17.720909">
        <ele>16.4797</ele>
        <time>2013-04-26T20:08:23Z</time>
      </trkpt>
      <trkpt lat="59.9731198" lon="17.7210088">
        <ele>16.4797</ele>
        <time>2013-04-26T20:08:24Z</time>
      </trkpt>
      <trkpt lat="59.9731854" lon="17.7211122">
        <ele>16.4797</ele>
        <time>2013-04-26T20:08:25Z</time>
      </trkpt>
      <trkpt lat="59.9732492" lon="17.7212193">
        <ele>16.4797</ele>
        <time>2013-04-26T20:08:26Z</time>
      </trkpt>
      <trkpt lat="59.973312" lon="17.7213292">
        <ele>16.4797</ele>
        <time>2013-04-26T20:08:27Z</time>
      </trkpt>
      <trkpt lat="59.9733737" lon="17.721442">
        <ele>16.4797</ele>
        <time>2013-04-26T20:08:28Z</time>
      </trkpt>
      <trkpt lat="59.9734326" lon="17.7215595">
        <ele>16.4797</ele>
        <time>2013-04-26T20:08:29Z</time>
      </trkpt>
      <trkpt lat="59.973489" lon="17.7216808">
        <ele>16.4797</ele>
        <time>2013-04-26T20:08:30Z</time>
      </trkpt>
      <trkpt lat="59.9735434" lon="17.7218051">
        <ele>16.4797</ele>
        <time>2013-04-26T20:08:31Z</time>
      </trkpt>
      <trkpt lat="59.9735947" lon="17.7219342">
        <ele>16.4797</ele>
        <time>2013-04-26T20:08:32Z</time>
      </trkpt>
      <trkpt lat="59.9736441" lon="17.7220671">
        <ele>16.4797</ele>
        <time>2013-04-26T20:08:33Z</time>
      </trkpt>
      <trkpt lat="59.9736917" lon="17.722203">
        <ele>16.4797</ele>
        <time>2013-04-26T20:08:34Z</time>
      </trkpt>
      <trkpt lat="59.9737378" lon="17.7223414">
        <ele>16.4797</ele>
        <time>2013-04-26T20:08:35Z</time>
      </trkpt>
      <trkpt lat="59.9737819" lon="17.7224822">
        <ele>16.4797</ele>
        <time>2013-04-26T20:08:36Z</time>
      </trkpt>
      <trkpt lat="59.9738237" lon="17.7226258">
        <ele>16.4797</ele>
        <time>2013-04-26T20:08:37Z</time>
      </trkpt>
      <trkpt lat="59.9738632" lon="17.7227713">
        <ele>16.4797</ele>
        <time>2013-04-26T20:08:38Z</time>
      </trkpt>
      <trkpt lat="59.9739003" lon="17.7229184">
        <ele>16.4797</ele>
        <time>2013-04-26T20:08:39Z</time>
      </trkpt>
      <trkpt lat="59.9739345" lon="17.7230672">
        <ele>16.4797</ele>
        <time>2013-04-26T20:08:40Z</time>
      </trkpt>
      <trkpt lat="59.9739659" lon="17.7232183">
        <ele>16.4797</ele>
        <time>2013-04-26T20:08:41Z</time>
      </trkpt>
      <trkpt lat="59.9739948" lon="17.7233716">
        <ele>16.4797</ele>
        <time>2013-04-26T20:08:42Z</time>
      </trkpt>
      <trkpt lat="59.974021" lon="17.7235258">
        <ele>16.4797</ele>
        <time>2013-04-26T20:08:43Z</time>
      </trkpt>
      <trkpt lat="59.974047" lon="17.7236793">
        <ele>16.9604</ele>
        <time>2013-04-26T20:08:44Z</time>
      </trkpt>
      <trkpt lat="59.9740718" lon="17.7238325">
        <ele>16.9604</ele>
        <time>2013-04-26T20:08:45Z</time>
      </trkpt>
      <trkpt lat="59.9740952" lon="17.723986">
        <ele>16.9604</ele>
        <time>2013-04-26T20:08:46Z</time>
      </trkpt>
      <trkpt lat="59.9741184" lon="17.7241381">
        <ele>16.9604</ele>
        <time>2013-04-26T20:08:47Z</time>
      </trkpt>
      <trkpt lat="59.9741418" lon="17.7242883">
        <ele>16.9604</ele>
        <time>2013-04-26T20:08:48Z</time>
      </trkpt>
      <trkpt lat="59.9741647" lon="17.7244375">
        <ele>16.9604</ele>
        <time>2013-04-26T20:08:49Z</time>
      </trkpt>
      <trkpt lat="59.9741873" lon="17.7245864">
        <ele>16.9604</ele>
        <time>2013-04-26T20:08:50Z</time>
      </trkpt>
      <trkpt lat="59.9742082" lon="17.7247362">
        <ele>17.4412</ele>
        <time>2013-04-26T20:08:51Z</time>
      </trkpt>
      <trkpt lat="59.9742278" lon="17.7248857">
        <ele>17.4412</ele>
        <time>2013-04-26T20:08:52Z</time>
      </trkpt>
      <trkpt lat="59.9742471" lon="17.7250334">
        <ele>17.4412</ele>
        <time>2013-04-26T20:08:53Z</time>
      </trkpt>
      <trkpt lat="59.9742665" lon="17.7251798">
        <ele>17.9218</ele>
        <time>2013-04-26T20:08:54Z</time>
      </trkpt>
      <trkpt lat="59.9742847" lon="17.7253256">
        <ele>17.9218</ele>
        <time>2013-04-26T20:08:55Z</time>
      </trkpt>
      <trkpt lat="59.9743014" lon="17.7254712">
        <ele>17.9218</ele>
        <time>2013-04-26T20:08:56Z</time>
      </trkpt>
      <trkpt lat="59.9743163" lon="17.7256162">
        <ele>18.4023</ele>
        <time>2013-04-26T20:08:57Z</time>
      </trkpt>
      <trkpt lat="59.9743293" lon="17.7257611">
        <ele>18.4023</ele>
        <time>2013-04-26T20:08:58Z</time>
      </trkpt>
      <trkpt lat="59.9743408" lon="17.7259067">
        <ele>18.4023</ele>
        <time>2013-04-26T20:08:59Z</time>
      </trkpt>
      <trkpt lat="59.9743527" lon="17.7260542">
        <ele>18.8831</ele>
        <time>2013-04-26T20:09:00Z</time>
      </trkpt>
      <trkpt lat="59.9743626" lon="17.7262021">
        <ele>18.8831</ele>
        <time>2013-04-26T20:09:01Z</time>
      </trkpt>
      <trkpt lat="59.974371" lon="17.7263493">
        <ele>19.3638</ele>
        <time>2013-04-26T20:09:02Z</time>
      </trkpt>
      <trkpt lat="59.9743782" lon="17.7264943">
        <ele>19.3638</ele>
        <time>2013-04-26T20:09:03Z</time>
      </trkpt>
      <trkpt lat="59.9743836" lon="17.7266398">
        <ele>19.3638</ele>
        <time>2013-04-26T20:09:04Z</time>
      </trkpt>
      <trkpt lat="59.9743879" lon="17.7267854">
        <ele>19.3638</ele>
        <time>2013-04-26T20:09:05Z</time>
      </trkpt>
      <trkpt lat="59.9743916" lon="17.7269334">
        <ele>19.3638</ele>
        <time>2013-04-26T20:09:06Z</time>
      </trkpt>
      <trkpt lat="59.974395" lon="17.727084">
        <ele>19.3638</ele>
        <time>2013-04-26T20:09:07Z</time>
      </trkpt>
      <trkpt lat="59.9743989" lon="17.7272358">
        <ele>18.8831</ele>
        <time>2013-04-26T20:09:08Z</time>
      </trkpt>
      <trkpt lat="59.9744035" lon="17.7273905">
        <ele>18.8831</ele>
        <time>2013-04-26T20:09:09Z</time>
      </trkpt>
      <trkpt lat="59.9744085" lon="17.7275515">
        <ele>18.8831</ele>
        <time>2013-04-26T20:09:10Z</time>
      </trkpt>
      <trkpt lat="59.9744133" lon="17.7277152">
        <ele>18.8831</ele>
        <time>2013-04-26T20:09:11Z</time>
      </trkpt>
      <trkpt lat="59.9744183" lon="17.7278813">
        <ele>18.8831</ele>
        <time>2013-04-26T20:09:12Z</time>
      </trkpt>
      <trkpt lat="59.9744233" lon="17.7280487">
        <ele>18.8831</ele>
        <time>2013-04-26T20:09:13Z</time>
      </trkpt>
      <trkpt lat="59.9744273" lon="17.7282138">
        <ele>18.8831</ele>
        <time>2013-04-26T20:09:14Z</time>
      </trkpt>
      <trkpt lat="59.9744312" lon="17.7283781">
        <ele>18.8831</ele>
        <time>2013-04-26T20:09:15Z</time>
      </trkpt>
      <trkpt lat="59.9744346" lon="17.7285414">
        <ele>18.8831</ele>
        <time>2013-04-26T20:09:16Z</time>
      </trkpt>
      <trkpt lat="59.9744404" lon="17.7287038">
        <ele>18.8831</ele>
        <time>2013-04-26T20:09:17Z</time>
      </trkpt>
      <trkpt lat="59.9744478" lon="17.7288641">
        <ele>18.8831</ele>
        <time>2013-04-26T20:09:18Z</time>
      </trkpt>
      <trkpt lat="59.9744543" lon="17.7290235">
        <ele>18.8831</ele>
        <time>2013-04-26T20:09:19Z</time>
      </trkpt>
      <trkpt lat="59.974459" lon="17.72918">
        <ele>18.8831</ele>
        <time>2013-04-26T20:09:20Z</time>
      </trkpt>
      <trkpt lat="59.9744584" lon="17.7293299">
        <ele>19.3638</ele>
        <time>2013-04-26T20:09:21Z</time>
      </trkpt>
      <trkpt lat="59.9744575" lon="17.7294862">
        <ele>19.3638</ele>
        <time>2013-04-26T20:09:22Z</time>
      </trkpt>
      <trkpt lat="59.9744526" lon="17.7296443">
        <ele>19.3638</ele>
        <time>2013-04-26T20:09:23Z</time>
      </trkpt>
      <trkpt lat="59.974444" lon="17.7298023">
        <ele>19.3638</ele>
        <time>2013-04-26T20:09:24Z</time>
      </trkpt>
      <trkpt lat="59.974433" lon="17.7299591">
        <ele>19.3638</ele>
        <time>2013-04-26T20:09:25Z</time>
      </trkpt>
      <trkpt lat="59.9744211" lon="17.7301141">
        <ele>19.3638</ele>
        <time>2013-04-26T20:09:26Z</time>
      </trkpt>
      <trkpt lat="59.9744091" lon="17.7302695">
        <ele>19.3638</ele>
        <time>2013-04-26T20:09:27Z</time>
      </trkpt>
      <trkpt lat="59.9743966" lon="17.7304258">
        <ele>19.3638</ele>
        <time>2013-04-26T20:09:28Z</time>
      </trkpt>
      <trkpt lat="59.9743831" lon="17.7305821">
        <ele>19.3638</ele>
        <time>2013-04-26T20:09:29Z</time>
      </trkpt>
      <trkpt lat="59.9743697" lon="17.7307383">
        <ele>19.3638</ele>
        <time>2013-04-26T20:09:30Z</time>
      </trkpt>
      <trkpt lat="59.9743584" lon="17.7308953">
        <ele>19.3638</ele>
        <time>2013-04-26T20:09:31Z</time>
      </trkpt>
      <trkpt lat="59.9743501" lon="17.7310525">
        <ele>19.3638</ele>
        <time>2013-04-26T20:09:32Z</time>
      </trkpt>
      <trkpt lat="59.974344" lon="17.7312092">
        <ele>19.3638</ele>
        <time>2013-04-26T20:09:33Z</time>
      </trkpt>
      <trkpt lat="59.9743382" lon="17.7313675">
        <ele>19.8444</ele>
        <time>2013-04-26T20:09:34Z</time>
      </trkpt>
      <trkpt lat="59.9743336" lon="17.7315267">
        <ele>19.8444</ele>
        <time>2013-04-26T20:09:35Z</time>
      </trkpt>
      <trkpt lat="59.974331" lon="17.7316865">
        <ele>19.8444</ele>
        <time>2013-04-26T20:09:36Z</time>
      </trkpt>
      <trkpt lat="59.9743289" lon="17.7318484">
        <ele>19.8444</ele>
        <time>2013-04-26T20:09:37Z</time>
      </trkpt>
      <trkpt lat="59.9743292" lon="17.7320093">
        <ele>20.325</ele>
        <time>2013-04-26T20:09:38Z</time>
      </trkpt>
      <trkpt lat="59.9743329" lon="17.7321673">
        <ele>20.325</ele>
        <time>2013-04-26T20:09:39Z</time>
      </trkpt>
      <trkpt lat="59.9743378" lon="17.7323248">
        <ele>20.325</ele>
        <time>2013-04-26T20:09:40Z</time>
      </trkpt>
      <trkpt lat="59.9743424" lon="17.7324819">
        <ele>20.325</ele>
        <time>2013-04-26T20:09:41Z</time>
      </trkpt>
      <trkpt lat="59.9743465" lon="17.7326409">
        <ele>20.325</ele>
        <time>2013-04-26T20:09:42Z</time>
      </trkpt>
      <trkpt lat="59.974349" lon="17.732801">
        <ele>20.325</ele>
        <time>2013-04-26T20:09:43Z</time>
      </trkpt>
      <trkpt lat="59.9743479" lon="17.7329614">
        <ele>20.325</ele>
        <time>2013-04-26T20:09:44Z</time>
      </trkpt>
      <trkpt lat="59.9743422" lon="17.733122">
        <ele>20.325</ele>
        <time>2013-04-26T20:09:45Z</time>
      </trkpt>
      <trkpt lat="59.9743346" lon="17.7332841">
        <ele>20.325</ele>
        <time>2013-04-26T20:09:46Z</time>
      </trkpt>
      <trkpt lat="59.9743273" lon="17.7334455">
        <ele>20.325</ele>
        <time>2013-04-26T20:09:47Z</time>
      </trkpt>
      <trkpt lat="59.9743195" lon="17.7336054">
        <ele>20.325</ele>
        <time>2013-04-26T20:09:48Z</time>
      </trkpt>
      <trkpt lat="59.9743117" lon="17.7337639">
        <ele>20.325</ele>
        <time>2013-04-26T20:09:49Z</time>
      </trkpt>
      <trkpt lat="59.9743051" lon="17.7339209">
        <ele>20.325</ele>
        <time>2013-04-26T20:09:50Z</time>
      </trkpt>
      <trkpt lat="59.9742988" lon="17.734079">
        <ele>20.325</ele>
        <time>2013-04-26T20:09:51Z</time>
      </trkpt>
      <trkpt lat="59.9742927" lon="17.7342367">
        <ele>20.325</ele>
        <time>2013-04-26T20:09:52Z</time>
      </trkpt>
      <trkpt lat="59.9742883" lon="17.7343947">
        <ele>20.325</ele>
        <time>2013-04-26T20:09:53Z</time>
      </trkpt>
      <trkpt lat="59.9742862" lon="17.734552">
        <ele>20.325</ele>
        <time>2013-04-26T20:09:54Z</time>
      </trkpt>
      <trkpt lat="59.9742864" lon="17.7347074">
        <ele>20.325</ele>
        <time>2013-04-26T20:09:55Z</time>
      </trkpt>
      <trkpt lat="59.9742895" lon="17.7348573">
        <ele>20.325</ele>
        <time>2013-04-26T20:09:56Z</time>
      </trkpt>
      <trkpt lat="59.9742957" lon="17.7350064">
        <ele>20.325</ele>
        <time>2013-04-26T20:09:57Z</time>
      </trkpt>
      <trkpt lat="59.9743059" lon="17.7351531">
        <ele>20.8057</ele>
        <time>2013-04-26T20:09:58Z</time>
      </trkpt>
      <trkpt lat="59.9743199" lon="17.7352969">
        <ele>20.8057</ele>
        <time>2013-04-26T20:09:59Z</time>
      </trkpt>
      <trkpt lat="59.9743356" lon="17.7354383">
        <ele>21.2864</ele>
        <time>2013-04-26T20:10:00Z</time>
      </trkpt>
      <trkpt lat="59.9743516" lon="17.7355776">
        <ele>21.2864</ele>
        <time>2013-04-26T20:10:01Z</time>
      </trkpt>
      <trkpt lat="59.9743693" lon="17.7357153">
        <ele>21.2864</ele>
        <time>2013-04-26T20:10:02Z</time>
      </trkpt>
      <trkpt lat="59.9743905" lon="17.7358519">
        <ele>21.2864</ele>
        <time>2013-04-26T20:10:03Z</time>
      </trkpt>
      <trkpt lat="59.974414" lon="17.7359881">
        <ele>21.767</ele>
        <time>2013-04-26T20:10:04Z</time>
      </trkpt>
      <trkpt lat="59.9744399" lon="17.7361235">
        <ele>21.767</ele>
        <time>2013-04-26T20:10:05Z</time>
      </trkpt>
      <trkpt lat="59.9744693" lon="17.7362561">
        <ele>21.767</ele>
        <time>2013-04-26T20:10:06Z</time>
      </trkpt>
      <trkpt lat="59.9745013" lon="17.736386">
        <ele>21.767</ele>
        <time>2013-04-26T20:10:07Z</time>
      </trkpt>
      <trkpt lat="59.9745355" lon="17.7365147">
        <ele>21.767</ele>
        <time>2013-04-26T20:10:08Z</time>
      </trkpt>
      <trkpt lat="59.9745709" lon="17.7366423">
        <ele>22.2476</ele>
        <time>2013-04-26T20:10:09Z</time>
      </trkpt>
      <trkpt lat="59.9746053" lon="17.7367672">
        <ele>21.767</ele>
        <time>2013-04-26T20:10:10Z</time>
      </trkpt>
      <trkpt lat="59.974641" lon="17.7368899">
        <ele>21.2864</ele>
        <time>2013-04-26T20:10:11Z</time>
      </trkpt>
      <trkpt lat="59.9746817" lon="17.7370084">
        <ele>21.2864</ele>
        <time>2013-04-26T20:10:12Z</time>
      </trkpt>
      <trkpt lat="59.9747252" lon="17.7371237">
        <ele>21.2864</ele>
        <time>2013-04-26T20:10:13Z</time>
      </trkpt>
      <trkpt lat="59.9747691" lon="17.7372372">
        <ele>20.8057</ele>
        <time>2013-04-26T20:10:14Z</time>
      </trkpt>
      <trkpt lat="59.9748147" lon="17.7373469">
        <ele>20.8057</ele>
        <time>2013-04-26T20:10:15Z</time>
      </trkpt>
      <trkpt lat="59.9748614" lon="17.7374521">
        <ele>20.8057</ele>
        <time>2013-04-26T20:10:16Z</time>
      </trkpt>
      <trkpt lat="59.9749099" lon="17.7375528">
        <ele>20.8057</ele>
        <time>2013-04-26T20:10:17Z</time>
      </trkpt>
      <trkpt lat="59.9749593" lon="17.7376497">
        <ele>20.8057</ele>
        <time>2013-04-26T20:10:18Z</time>
      </trkpt>
      <trkpt lat="59.9750091" lon="17.7377438">
        <ele>20.8057</ele>
        <time>2013-04-26T20:10:19Z</time>
      </trkpt>
      <trkpt lat="59.9750593" lon="17.7378374">
        <ele>20.8057</ele>
        <time>2013-04-26T20:10:20Z</time>
      </trkpt>
      <trkpt lat="59.9751093" lon="17.7379317">
        <ele>20.8057</ele>
        <time>2013-04-26T20:10:21Z</time>
      </trkpt>
      <trkpt lat="59.9751593" lon="17.7380254">
        <ele>20.325</ele>
        <time>2013-04-26T20:10:22Z</time>
      </trkpt>
      <trkpt lat="59.97521" lon="17.7381173">
        <ele>20.325</ele>
        <time>2013-04-26T20:10:23Z</time>
      </trkpt>
      <trkpt lat="59.9752629" lon="17.7382088">
        <ele>20.325</ele>
        <time>2013-04-26T20:10:24Z</time>
      </trkpt>
      <trkpt lat="59.975316" lon="17.7382995">
        <ele>20.8057</ele>
        <time>2013-04-26T20:10:25Z</time>
      </trkpt>
      <trkpt lat="59.9753685" lon="17.7383899">
        <ele>20.8057</ele>
        <time>2013-04-26T20:10:26Z</time>
      </trkpt>
      <trkpt lat="59.9754207" lon="17.7384781">
        <ele>20.8057</ele>
        <time>2013-04-26T20:10:27Z</time>
      </trkpt>
      <trkpt lat="59.9754728" lon="17.7385652">
        <ele>20.8057</ele>
        <time>2013-04-26T20:10:28Z</time>
      </trkpt>
      <trkpt lat="59.9755243" lon="17.7386534">
        <ele>20.325</ele>
        <time>2013-04-26T20:10:29Z</time>
      </trkpt>
      <trkpt lat="59.9755761" lon="17.7387393">
        <ele>20.325</ele>
        <time>2013-04-26T20:10:30Z</time>
      </trkpt>
      <trkpt lat="59.9756264" lon="17.7388244">
        <ele>20.325</ele>
        <time>2013-04-26T20:10:31Z</time>
      </trkpt>
      <trkpt lat="59.9756757" lon="17.7389125">
        <ele>20.325</ele>
        <time>2013-04-26T20:10:32Z</time>
      </trkpt>
      <trkpt lat="59.9757269" lon="17.738998">
        <ele>20.325</ele>
        <time>2013-04-26T20:10:33Z</time>
      </trkpt>
      <trkpt lat="59.9757782" lon="17.7390844">
        <ele>20.8057</ele>
        <time>2013-04-26T20:10:34Z</time>
      </trkpt>
      <trkpt lat="59.9758279" lon="17.739173">
        <ele>20.8057</ele>
        <time>2013-04-26T20:10:35Z</time>
      </trkpt>
      <trkpt lat="59.9758773" lon="17.7392611">
        <ele>20.8057</ele>
        <time>2013-04-26T20:10:36Z</time>
      </trkpt>
      <trkpt lat="59.975928" lon="17.7393481">
        <ele>21.2864</ele>
        <time>2013-04-26T20:10:37Z</time>
      </trkpt>
      <trkpt lat="59.975978" lon="17.7394323">
        <ele>21.2864</ele>
        <time>2013-04-26T20:10:38Z</time>
      </trkpt>
      <trkpt lat="59.9760273" lon="17.7395118">
        <ele>21.767</ele>
        <time>2013-04-26T20:10:39Z</time>
      </trkpt>
      <trkpt lat="59.9760755" lon="17.7395859">
        <ele>21.767</ele>
        <time>2013-04-26T20:10:40Z</time>
      </trkpt>
      <trkpt lat="59.9761249" lon="17.7396492">
        <ele>21.767</ele>
        <time>2013-04-26T20:10:41Z</time>
      </trkpt>
      <trkpt lat="59.9761739" lon="17.7397045">
        <ele>22.2476</ele>
        <time>2013-04-26T20:10:42Z</time>
      </trkpt>
      <trkpt lat="59.9762222" lon="17.7397494">
        <ele>22.2476</ele>
        <time>2013-04-26T20:10:43Z</time>
      </trkpt>
      <trkpt lat="59.9762691" lon="17.7397872">
        <ele>22.7283</ele>
        <time>2013-04-26T20:10:44Z</time>
      </trkpt>
      <trkpt lat="59.9763161" lon="17.7398102">
        <ele>22.7283</ele>
        <time>2013-04-26T20:10:45Z</time>
      </trkpt>
      <trkpt lat="59.976362" lon="17.7398091">
        <ele>22.7283</ele>
        <time>2013-04-26T20:10:46Z</time>
      </trkpt>
      <trkpt lat="59.9764036" lon="17.7397843">
        <ele>22.7283</ele>
        <time>2013-04-26T20:10:47Z</time>
      </trkpt>
      <trkpt lat="59.9764476" lon="17.7397496">
        <ele>22.2476</ele>
        <time>2013-04-26T20:10:48Z</time>
      </trkpt>
      <trkpt lat="59.9764926" lon="17.7397123">
        <ele>22.2476</ele>
        <time>2013-04-26T20:10:49Z</time>
      </trkpt>
      <trkpt lat="59.9765377" lon="17.7396689">
        <ele>21.767</ele>
        <time>2013-04-26T20:10:50Z</time>
      </trkpt>
      <trkpt lat="59.9765842" lon="17.739624">
        <ele>21.2864</ele>
        <time>2013-04-26T20:10:51Z</time>
      </trkpt>
      <trkpt lat="59.9766309" lon="17.7395796">
        <ele>20.8057</ele>
        <time>2013-04-26T20:10:52Z</time>
      </trkpt>
      <trkpt lat="59.9766763" lon="17.7395375">
        <ele>20.325</ele>
        <time>2013-04-26T20:10:53Z</time>
      </trkpt>
      <trkpt lat="59.9767217" lon="17.7395061">
        <ele>20.325</ele>
        <time>2013-04-26T20:10:54Z</time>
      </trkpt>
      <trkpt lat="59.9767697" lon="17.7394819">
        <ele>20.8057</ele>
        <time>2013-04-26T20:10:55Z</time>
      </trkpt>
      <trkpt lat="59.9768164" lon="17.7394626">
        <ele>21.2864</ele>
        <time>2013-04-26T20:10:56Z</time>
      </trkpt>
      <trkpt lat="59.976864" lon="17.7394473">
        <ele>21.2864</ele>
        <time>2013-04-26T20:10:57Z</time>
      </trkpt>
      <trkpt lat="59.9769122" lon="17.7394315">
        <ele>21.767</ele>
        <time>2013-04-26T20:10:58Z</time>
      </trkpt>
      <trkpt lat="59.9769594" lon="17.7394139">
        <ele>21.767</ele>
        <time>2013-04-26T20:10:59Z</time>
      </trkpt>
      <trkpt lat="59.9770065" lon="17.7393896">
        <ele>21.767</ele>
        <time>2013-04-26T20:11:00Z</time>
      </trkpt>
      <trkpt lat="59.9770534" lon="17.7393665">
        <ele>21.2864</ele>
        <time>2013-04-26T20:11:01Z</time>
      </trkpt>
      <trkpt lat="59.9771011" lon="17.739343">
        <ele>21.767</ele>
        <time>2013-04-26T20:11:02Z</time>
      </trkpt>
      <trkpt lat="59.9771508" lon="17.7393169">
        <ele>21.767</ele>
        <time>2013-04-26T20:11:03Z</time>
      </trkpt>
      <trkpt lat="59.9772005" lon="17.7392859">
        <ele>21.767</ele>
        <time>2013-04-26T20:11:04Z</time>
      </trkpt>
      <trkpt lat="59.9772505" lon="17.7392548">
        <ele>21.767</ele>
        <time>2013-04-26T20:11:05Z</time>
      </trkpt>
      <trkpt lat="59.9772996" lon="17.7392247">
        <ele>21.767</ele>
        <time>2013-04-26T20:11:06Z</time>
      </trkpt>
      <trkpt lat="59.9773493" lon="17.7391966">
        <ele>21.767</ele>
        <time>2013-04-26T20:11:07Z</time>
      </trkpt>
      <trkpt lat="59.9773997" lon="17.7391705">
        <ele>21.767</ele>
        <time>2013-04-26T20:11:08Z</time>
      </trkpt>
      <trkpt lat="59.97745" lon="17.7391477">
        <ele>21.767</ele>
        <time>2013-04-26T20:11:09Z</time>
      </trkpt>
      <trkpt lat="59.9774991" lon="17.7391262">
        <ele>21.767</ele>
        <time>2013-04-26T20:11:10Z</time>
      </trkpt>
      <trkpt lat="59.9775479" lon="17.7391092">
        <ele>21.767</ele>
        <time>2013-04-26T20:11:11Z</time>
      </trkpt>
      <trkpt lat="59.9775965" lon="17.7390993">
        <ele>21.767</ele>
        <time>2013-04-26T20:11:12Z</time>
      </trkpt>
      <trkpt lat="59.9776447" lon="17.739093">
        <ele>22.2476</ele>
        <time>2013-04-26T20:11:13Z</time>
      </trkpt>
      <trkpt lat="59.9776914" lon="17.7390897">
        <ele>22.2476</ele>
        <time>2013-04-26T20:11:14Z</time>
      </trkpt>
      <trkpt lat="59.9777363" lon="17.7390961">
        <ele>22.2476</ele>
        <time>2013-04-26T20:11:15Z</time>
      </trkpt>
      <trkpt lat="59.9777808" lon="17.7391093">
        <ele>22.7283</ele>
        <time>2013-04-26T20:11:16Z</time>
      </trkpt>
      <trkpt lat="59.9778261" lon="17.7391217">
        <ele>22.7283</ele>
        <time>2013-04-26T20:11:17Z</time>
      </trkpt>
      <trkpt lat="59.9778709" lon="17.7391414">
        <ele>23.209</ele>
        <time>2013-04-26T20:11:18Z</time>
      </trkpt>
      <trkpt lat="59.9779149" lon="17.7391681">
        <ele>23.209</ele>
        <time>2013-04-26T20:11:19Z</time>
      </trkpt>
      <trkpt lat="59.9779585" lon="17.7391925">
        <ele>23.6896</ele>
        <time>2013-04-26T20:11:20Z</time>
      </trkpt>
      <trkpt lat="59.9779984" lon="17.7392202">
        <ele>23.209</ele>
        <time>2013-04-26T20:11:21Z</time>
      </trkpt>
      <trkpt lat="59.9780387" lon="17.7392443">
        <ele>23.209</ele>
        <time>2013-04-26T20:11:22Z</time>
      </trkpt>
      <trkpt lat="59.9780834" lon="17.7392629">
        <ele>23.6896</ele>
        <time>2013-04-26T20:11:23Z</time>
      </trkpt>
      <trkpt lat="59.9781319" lon="17.7392818">
        <ele>23.6896</ele>
        <time>2013-04-26T20:11:24Z</time>
      </trkpt>
      <trkpt lat="59.9781819" lon="17.7392973">
        <ele>23.6896</ele>
        <time>2013-04-26T20:11:25Z</time>
      </trkpt>
      <trkpt lat="59.978232" lon="17.7393113">
        <ele>23.6896</ele>
        <time>2013-04-26T20:11:26Z</time>
      </trkpt>
      <trkpt lat="59.9782823" lon="17.7393278">
        <ele>24.1703</ele>
        <time>2013-04-26T20:11:27Z</time>
      </trkpt>
      <trkpt lat="59.9783331" lon="17.7393434">
        <ele>24.651</ele>
        <time>2013-04-26T20:11:28Z</time>
      </trkpt>
      <trkpt lat="59.9783884" lon="17.7393502">
        <ele>24.651</ele>
        <time>2013-04-26T20:11:29Z</time>
      </trkpt>
      <trkpt lat="59.9784409" lon="17.7393498">
        <ele>24.1703</ele>
        <time>2013-04-26T20:11:30Z</time>
      </trkpt>
      <trkpt lat="59.9784862" lon="17.7393476">
        <ele>24.1703</ele>
        <time>2013-04-26T20:11:31Z</time>
      </trkpt>
      <trkpt lat="59.9785397" lon="17.7393476">
        <ele>25.1317</ele>
        <time>2013-04-26T20:11:32Z</time>
      </trkpt>
      <trkpt lat="59.9785942" lon="17.7393534">
        <ele>25.6123</ele>
        <time>2013-04-26T20:11:33Z</time>
      </trkpt>
      <trkpt lat="59.9786486" lon="17.7393589">
        <ele>26.5736</ele>
        <time>2013-04-26T20:11:34Z</time>
      </trkpt>
      <trkpt lat="59.9787034" lon="17.7393657">
        <ele>27.0543</ele>
        <time>2013-04-26T20:11:35Z</time>
      </trkpt>
      <trkpt lat="59.9787563" lon="17.7393745">
        <ele>28.0155</ele>
        <time>2013-04-26T20:11:36Z</time>
      </trkpt>
    </trkseg>
  </trk>
</gpx>